<?xml version="1.0" encoding="UTF-8" standalone="no" ?>
<gpx xmlns="http://www.topografix.com/GPX/1/1" xmlns:xsi="http://www.w3.org/2001/XMLSchema-instance" xsi:schemaLocation="http://www.topografix.com/GPX/1/1 http://www.topografix.com/GPX/1/1/gpx.xsd" version="1.1" creator="VisuGPX - https://www.visugpx.com">
  <metadata>
    <name>Vallon de l'Orrenaye</name>
  </metadata>
  <trk>
    <name><![CDATA[Vallon de l'Orrenaye_1]]></name>
    <trkseg>
      <trkpt lat="44.42775" lon="6.88937">
        <ele>1954</ele>
        <time>2022-08-16T05:42:33Z</time>
      </trkpt>
      <trkpt lat="44.42774" lon="6.88939">
        <ele>1939.2</ele>
        <time>2022-08-16T05:42:35Z</time>
      </trkpt>
      <trkpt lat="44.42773" lon="6.88946">
        <ele>1939.6</ele>
        <time>2022-08-16T05:42:38Z</time>
      </trkpt>
      <trkpt lat="44.42774" lon="6.88949">
        <ele>1939.8</ele>
        <time>2022-08-16T05:42:39Z</time>
      </trkpt>
      <trkpt lat="44.42774" lon="6.88951">
        <ele>1939.8</ele>
        <time>2022-08-16T05:42:40Z</time>
      </trkpt>
      <trkpt lat="44.42775" lon="6.88953">
        <ele>1940.2</ele>
        <time>2022-08-16T05:42:41Z</time>
      </trkpt>
      <trkpt lat="44.42776" lon="6.88955">
        <ele>1940.2</ele>
        <time>2022-08-16T05:42:42Z</time>
      </trkpt>
      <trkpt lat="44.42777" lon="6.88956">
        <ele>1940.6</ele>
        <time>2022-08-16T05:42:43Z</time>
      </trkpt>
      <trkpt lat="44.42779" lon="6.88957">
        <ele>1940.8</ele>
        <time>2022-08-16T05:42:44Z</time>
      </trkpt>
      <trkpt lat="44.4278" lon="6.88957">
        <ele>1941.2</ele>
        <time>2022-08-16T05:42:45Z</time>
      </trkpt>
      <trkpt lat="44.42788" lon="6.88955">
        <ele>1941.6</ele>
        <time>2022-08-16T05:42:50Z</time>
      </trkpt>
      <trkpt lat="44.42789" lon="6.88954">
        <ele>1941.6</ele>
        <time>2022-08-16T05:42:51Z</time>
      </trkpt>
      <trkpt lat="44.4279" lon="6.88953">
        <ele>1942</ele>
        <time>2022-08-16T05:42:52Z</time>
      </trkpt>
      <trkpt lat="44.42791" lon="6.88952">
        <ele>1941.4</ele>
        <time>2022-08-16T05:42:53Z</time>
      </trkpt>
      <trkpt lat="44.42792" lon="6.88951">
        <ele>1941.2</ele>
        <time>2022-08-16T05:42:54Z</time>
      </trkpt>
      <trkpt lat="44.42793" lon="6.8895">
        <ele>1941.2</ele>
        <time>2022-08-16T05:42:55Z</time>
      </trkpt>
      <trkpt lat="44.42793" lon="6.88948">
        <ele>1941.4</ele>
        <time>2022-08-16T05:42:56Z</time>
      </trkpt>
      <trkpt lat="44.42794" lon="6.88947">
        <ele>1941.4</ele>
        <time>2022-08-16T05:42:57Z</time>
      </trkpt>
      <trkpt lat="44.42795" lon="6.88946">
        <ele>1941.6</ele>
        <time>2022-08-16T05:42:58Z</time>
      </trkpt>
      <trkpt lat="44.42796" lon="6.88945">
        <ele>1941.6</ele>
        <time>2022-08-16T05:42:59Z</time>
      </trkpt>
      <trkpt lat="44.42797" lon="6.88943">
        <ele>1941.6</ele>
        <time>2022-08-16T05:43:00Z</time>
      </trkpt>
      <trkpt lat="44.42798" lon="6.88943">
        <ele>1941.8</ele>
        <time>2022-08-16T05:43:01Z</time>
      </trkpt>
      <trkpt lat="44.42799" lon="6.88942">
        <ele>1942</ele>
        <time>2022-08-16T05:43:02Z</time>
      </trkpt>
      <trkpt lat="44.428" lon="6.88941">
        <ele>1942.4</ele>
        <time>2022-08-16T05:43:03Z</time>
      </trkpt>
      <trkpt lat="44.42801" lon="6.8894">
        <ele>1942.4</ele>
        <time>2022-08-16T05:43:04Z</time>
      </trkpt>
      <trkpt lat="44.42802" lon="6.8894">
        <ele>1942.6</ele>
        <time>2022-08-16T05:43:05Z</time>
      </trkpt>
      <trkpt lat="44.42804" lon="6.88939">
        <ele>1942.6</ele>
        <time>2022-08-16T05:43:06Z</time>
      </trkpt>
      <trkpt lat="44.42805" lon="6.88938">
        <ele>1943</ele>
        <time>2022-08-16T05:43:07Z</time>
      </trkpt>
      <trkpt lat="44.42806" lon="6.88937">
        <ele>1943.2</ele>
        <time>2022-08-16T05:43:08Z</time>
      </trkpt>
      <trkpt lat="44.42807" lon="6.88937">
        <ele>1943.2</ele>
        <time>2022-08-16T05:43:09Z</time>
      </trkpt>
      <trkpt lat="44.42809" lon="6.88937">
        <ele>1943.4</ele>
        <time>2022-08-16T05:43:10Z</time>
      </trkpt>
      <trkpt lat="44.4281" lon="6.88937">
        <ele>1943.4</ele>
        <time>2022-08-16T05:43:11Z</time>
      </trkpt>
      <trkpt lat="44.42811" lon="6.88936">
        <ele>1943.4</ele>
        <time>2022-08-16T05:43:12Z</time>
      </trkpt>
      <trkpt lat="44.42812" lon="6.88936">
        <ele>1943.6</ele>
        <time>2022-08-16T05:43:13Z</time>
      </trkpt>
      <trkpt lat="44.42813" lon="6.88936">
        <ele>1943.8</ele>
        <time>2022-08-16T05:43:14Z</time>
      </trkpt>
      <trkpt lat="44.42815" lon="6.88936">
        <ele>1944</ele>
        <time>2022-08-16T05:43:15Z</time>
      </trkpt>
      <trkpt lat="44.42816" lon="6.88936">
        <ele>1944</ele>
        <time>2022-08-16T05:43:16Z</time>
      </trkpt>
      <trkpt lat="44.42817" lon="6.88935">
        <ele>1944.2</ele>
        <time>2022-08-16T05:43:17Z</time>
      </trkpt>
      <trkpt lat="44.42819" lon="6.88935">
        <ele>1944.2</ele>
        <time>2022-08-16T05:43:18Z</time>
      </trkpt>
      <trkpt lat="44.4282" lon="6.88934">
        <ele>1944.4</ele>
        <time>2022-08-16T05:43:19Z</time>
      </trkpt>
      <trkpt lat="44.42821" lon="6.88933">
        <ele>1944.4</ele>
        <time>2022-08-16T05:43:20Z</time>
      </trkpt>
      <trkpt lat="44.42822" lon="6.88931">
        <ele>1944.6</ele>
        <time>2022-08-16T05:43:21Z</time>
      </trkpt>
      <trkpt lat="44.42822" lon="6.8893">
        <ele>1944.8</ele>
        <time>2022-08-16T05:43:22Z</time>
      </trkpt>
      <trkpt lat="44.42823" lon="6.88928">
        <ele>1945.2</ele>
        <time>2022-08-16T05:43:23Z</time>
      </trkpt>
      <trkpt lat="44.42823" lon="6.88926">
        <ele>1945.4</ele>
        <time>2022-08-16T05:43:24Z</time>
      </trkpt>
      <trkpt lat="44.42823" lon="6.88924">
        <ele>1945.4</ele>
        <time>2022-08-16T05:43:25Z</time>
      </trkpt>
      <trkpt lat="44.42824" lon="6.88923">
        <ele>1945.6</ele>
        <time>2022-08-16T05:43:26Z</time>
      </trkpt>
      <trkpt lat="44.42824" lon="6.88921">
        <ele>1946</ele>
        <time>2022-08-16T05:43:27Z</time>
      </trkpt>
      <trkpt lat="44.42824" lon="6.88919">
        <ele>1946.2</ele>
        <time>2022-08-16T05:43:28Z</time>
      </trkpt>
      <trkpt lat="44.42824" lon="6.88918">
        <ele>1946.4</ele>
        <time>2022-08-16T05:43:29Z</time>
      </trkpt>
      <trkpt lat="44.42825" lon="6.88916">
        <ele>1946.6</ele>
        <time>2022-08-16T05:43:30Z</time>
      </trkpt>
      <trkpt lat="44.42825" lon="6.88914">
        <ele>1946.8</ele>
        <time>2022-08-16T05:43:31Z</time>
      </trkpt>
      <trkpt lat="44.42826" lon="6.88913">
        <ele>1946.8</ele>
        <time>2022-08-16T05:43:32Z</time>
      </trkpt>
      <trkpt lat="44.42827" lon="6.88912">
        <ele>1947.2</ele>
        <time>2022-08-16T05:43:33Z</time>
      </trkpt>
      <trkpt lat="44.42828" lon="6.88911">
        <ele>1947</ele>
        <time>2022-08-16T05:43:34Z</time>
      </trkpt>
      <trkpt lat="44.42829" lon="6.88909">
        <ele>1947</ele>
        <time>2022-08-16T05:43:35Z</time>
      </trkpt>
      <trkpt lat="44.4283" lon="6.88908">
        <ele>1947.2</ele>
        <time>2022-08-16T05:43:36Z</time>
      </trkpt>
      <trkpt lat="44.42831" lon="6.88907">
        <ele>1947.4</ele>
        <time>2022-08-16T05:43:37Z</time>
      </trkpt>
      <trkpt lat="44.42832" lon="6.88906">
        <ele>1947.6</ele>
        <time>2022-08-16T05:43:38Z</time>
      </trkpt>
      <trkpt lat="44.42833" lon="6.88905">
        <ele>1947.6</ele>
        <time>2022-08-16T05:43:39Z</time>
      </trkpt>
      <trkpt lat="44.42833" lon="6.88903">
        <ele>1947.8</ele>
        <time>2022-08-16T05:43:40Z</time>
      </trkpt>
      <trkpt lat="44.42834" lon="6.88902">
        <ele>1947.8</ele>
        <time>2022-08-16T05:43:41Z</time>
      </trkpt>
      <trkpt lat="44.42835" lon="6.88901">
        <ele>1947.8</ele>
        <time>2022-08-16T05:43:42Z</time>
      </trkpt>
      <trkpt lat="44.42836" lon="6.889">
        <ele>1948</ele>
        <time>2022-08-16T05:43:43Z</time>
      </trkpt>
      <trkpt lat="44.42837" lon="6.889">
        <ele>1948</ele>
        <time>2022-08-16T05:43:44Z</time>
      </trkpt>
      <trkpt lat="44.42838" lon="6.88899">
        <ele>1948</ele>
        <time>2022-08-16T05:43:45Z</time>
      </trkpt>
      <trkpt lat="44.42839" lon="6.88898">
        <ele>1948.4</ele>
        <time>2022-08-16T05:43:46Z</time>
      </trkpt>
      <trkpt lat="44.4284" lon="6.88898">
        <ele>1948.8</ele>
        <time>2022-08-16T05:43:47Z</time>
      </trkpt>
      <trkpt lat="44.42841" lon="6.88897">
        <ele>1949</ele>
        <time>2022-08-16T05:43:48Z</time>
      </trkpt>
      <trkpt lat="44.42842" lon="6.88896">
        <ele>1949</ele>
        <time>2022-08-16T05:43:49Z</time>
      </trkpt>
      <trkpt lat="44.42843" lon="6.88895">
        <ele>1949.2</ele>
        <time>2022-08-16T05:43:50Z</time>
      </trkpt>
      <trkpt lat="44.42844" lon="6.88895">
        <ele>1949.4</ele>
        <time>2022-08-16T05:43:51Z</time>
      </trkpt>
      <trkpt lat="44.42845" lon="6.88894">
        <ele>1949.6</ele>
        <time>2022-08-16T05:43:52Z</time>
      </trkpt>
      <trkpt lat="44.42846" lon="6.88894">
        <ele>1949.8</ele>
        <time>2022-08-16T05:43:53Z</time>
      </trkpt>
      <trkpt lat="44.42847" lon="6.88893">
        <ele>1949.8</ele>
        <time>2022-08-16T05:43:54Z</time>
      </trkpt>
      <trkpt lat="44.42849" lon="6.88893">
        <ele>1950</ele>
        <time>2022-08-16T05:43:55Z</time>
      </trkpt>
      <trkpt lat="44.4285" lon="6.88893">
        <ele>1950.2</ele>
        <time>2022-08-16T05:43:56Z</time>
      </trkpt>
      <trkpt lat="44.42851" lon="6.88893">
        <ele>1950.2</ele>
        <time>2022-08-16T05:43:57Z</time>
      </trkpt>
      <trkpt lat="44.42852" lon="6.88893">
        <ele>1950.2</ele>
        <time>2022-08-16T05:43:58Z</time>
      </trkpt>
      <trkpt lat="44.42854" lon="6.88893">
        <ele>1950.2</ele>
        <time>2022-08-16T05:43:59Z</time>
      </trkpt>
      <trkpt lat="44.42855" lon="6.88893">
        <ele>1950.4</ele>
        <time>2022-08-16T05:44:00Z</time>
      </trkpt>
      <trkpt lat="44.42857" lon="6.88893">
        <ele>1950.6</ele>
        <time>2022-08-16T05:44:01Z</time>
      </trkpt>
      <trkpt lat="44.42858" lon="6.88893">
        <ele>1950.6</ele>
        <time>2022-08-16T05:44:02Z</time>
      </trkpt>
      <trkpt lat="44.42859" lon="6.88893">
        <ele>1950.6</ele>
        <time>2022-08-16T05:44:03Z</time>
      </trkpt>
      <trkpt lat="44.42861" lon="6.88893">
        <ele>1950.8</ele>
        <time>2022-08-16T05:44:04Z</time>
      </trkpt>
      <trkpt lat="44.42862" lon="6.88893">
        <ele>1950.8</ele>
        <time>2022-08-16T05:44:05Z</time>
      </trkpt>
      <trkpt lat="44.42864" lon="6.88892">
        <ele>1950.8</ele>
        <time>2022-08-16T05:44:06Z</time>
      </trkpt>
      <trkpt lat="44.42865" lon="6.88892">
        <ele>1951</ele>
        <time>2022-08-16T05:44:07Z</time>
      </trkpt>
      <trkpt lat="44.42866" lon="6.88892">
        <ele>1951</ele>
        <time>2022-08-16T05:44:08Z</time>
      </trkpt>
      <trkpt lat="44.42868" lon="6.88892">
        <ele>1951.2</ele>
        <time>2022-08-16T05:44:09Z</time>
      </trkpt>
      <trkpt lat="44.42869" lon="6.88892">
        <ele>1951.4</ele>
        <time>2022-08-16T05:44:10Z</time>
      </trkpt>
      <trkpt lat="44.4287" lon="6.88892">
        <ele>1951.6</ele>
        <time>2022-08-16T05:44:11Z</time>
      </trkpt>
      <trkpt lat="44.42872" lon="6.88893">
        <ele>1951.6</ele>
        <time>2022-08-16T05:44:12Z</time>
      </trkpt>
      <trkpt lat="44.42873" lon="6.88893">
        <ele>1951.8</ele>
        <time>2022-08-16T05:44:13Z</time>
      </trkpt>
      <trkpt lat="44.42875" lon="6.88893">
        <ele>1952</ele>
        <time>2022-08-16T05:44:14Z</time>
      </trkpt>
      <trkpt lat="44.42876" lon="6.88893">
        <ele>1952</ele>
        <time>2022-08-16T05:44:15Z</time>
      </trkpt>
      <trkpt lat="44.42878" lon="6.88893">
        <ele>1952.2</ele>
        <time>2022-08-16T05:44:16Z</time>
      </trkpt>
      <trkpt lat="44.42879" lon="6.88893">
        <ele>1952.4</ele>
        <time>2022-08-16T05:44:17Z</time>
      </trkpt>
      <trkpt lat="44.4288" lon="6.88893">
        <ele>1952.6</ele>
        <time>2022-08-16T05:44:18Z</time>
      </trkpt>
      <trkpt lat="44.42882" lon="6.88892">
        <ele>1952.8</ele>
        <time>2022-08-16T05:44:19Z</time>
      </trkpt>
      <trkpt lat="44.42883" lon="6.88892">
        <ele>1952.8</ele>
        <time>2022-08-16T05:44:20Z</time>
      </trkpt>
      <trkpt lat="44.42884" lon="6.88891">
        <ele>1952.8</ele>
        <time>2022-08-16T05:44:21Z</time>
      </trkpt>
      <trkpt lat="44.42886" lon="6.88891">
        <ele>1952.8</ele>
        <time>2022-08-16T05:44:22Z</time>
      </trkpt>
      <trkpt lat="44.42887" lon="6.8889">
        <ele>1953.2</ele>
        <time>2022-08-16T05:44:23Z</time>
      </trkpt>
      <trkpt lat="44.42888" lon="6.8889">
        <ele>1953.4</ele>
        <time>2022-08-16T05:44:24Z</time>
      </trkpt>
      <trkpt lat="44.4289" lon="6.88891">
        <ele>1953.6</ele>
        <time>2022-08-16T05:44:25Z</time>
      </trkpt>
      <trkpt lat="44.42891" lon="6.88891">
        <ele>1953.6</ele>
        <time>2022-08-16T05:44:26Z</time>
      </trkpt>
      <trkpt lat="44.42892" lon="6.88891">
        <ele>1953.6</ele>
        <time>2022-08-16T05:44:27Z</time>
      </trkpt>
      <trkpt lat="44.42894" lon="6.88891">
        <ele>1953.8</ele>
        <time>2022-08-16T05:44:28Z</time>
      </trkpt>
      <trkpt lat="44.42895" lon="6.88891">
        <ele>1953.8</ele>
        <time>2022-08-16T05:44:29Z</time>
      </trkpt>
      <trkpt lat="44.42896" lon="6.88891">
        <ele>1954</ele>
        <time>2022-08-16T05:44:30Z</time>
      </trkpt>
      <trkpt lat="44.42898" lon="6.88891">
        <ele>1954</ele>
        <time>2022-08-16T05:44:31Z</time>
      </trkpt>
      <trkpt lat="44.42899" lon="6.8889">
        <ele>1954.2</ele>
        <time>2022-08-16T05:44:32Z</time>
      </trkpt>
      <trkpt lat="44.429" lon="6.8889">
        <ele>1954.2</ele>
        <time>2022-08-16T05:44:33Z</time>
      </trkpt>
      <trkpt lat="44.42901" lon="6.88889">
        <ele>1954.4</ele>
        <time>2022-08-16T05:44:34Z</time>
      </trkpt>
      <trkpt lat="44.42902" lon="6.88888">
        <ele>1954.6</ele>
        <time>2022-08-16T05:44:35Z</time>
      </trkpt>
      <trkpt lat="44.42903" lon="6.88887">
        <ele>1954.8</ele>
        <time>2022-08-16T05:44:36Z</time>
      </trkpt>
      <trkpt lat="44.42904" lon="6.88886">
        <ele>1955</ele>
        <time>2022-08-16T05:44:37Z</time>
      </trkpt>
      <trkpt lat="44.42905" lon="6.88884">
        <ele>1955</ele>
        <time>2022-08-16T05:44:38Z</time>
      </trkpt>
      <trkpt lat="44.42906" lon="6.88884">
        <ele>1955.4</ele>
        <time>2022-08-16T05:44:39Z</time>
      </trkpt>
      <trkpt lat="44.42907" lon="6.88883">
        <ele>1955.4</ele>
        <time>2022-08-16T05:44:40Z</time>
      </trkpt>
      <trkpt lat="44.42907" lon="6.88882">
        <ele>1955.8</ele>
        <time>2022-08-16T05:44:41Z</time>
      </trkpt>
      <trkpt lat="44.42908" lon="6.8888">
        <ele>1956</ele>
        <time>2022-08-16T05:44:42Z</time>
      </trkpt>
      <trkpt lat="44.42909" lon="6.88879">
        <ele>1956.2</ele>
        <time>2022-08-16T05:44:43Z</time>
      </trkpt>
      <trkpt lat="44.4291" lon="6.88877">
        <ele>1956.4</ele>
        <time>2022-08-16T05:44:44Z</time>
      </trkpt>
      <trkpt lat="44.42911" lon="6.88877">
        <ele>1956.4</ele>
        <time>2022-08-16T05:44:45Z</time>
      </trkpt>
      <trkpt lat="44.42913" lon="6.88876">
        <ele>1956.6</ele>
        <time>2022-08-16T05:44:46Z</time>
      </trkpt>
      <trkpt lat="44.42914" lon="6.88876">
        <ele>1956.6</ele>
        <time>2022-08-16T05:44:47Z</time>
      </trkpt>
      <trkpt lat="44.42915" lon="6.88875">
        <ele>1957</ele>
        <time>2022-08-16T05:44:48Z</time>
      </trkpt>
      <trkpt lat="44.42916" lon="6.88875">
        <ele>1957.2</ele>
        <time>2022-08-16T05:44:49Z</time>
      </trkpt>
      <trkpt lat="44.42917" lon="6.88874">
        <ele>1957.4</ele>
        <time>2022-08-16T05:44:50Z</time>
      </trkpt>
      <trkpt lat="44.42918" lon="6.88874">
        <ele>1957.4</ele>
        <time>2022-08-16T05:44:51Z</time>
      </trkpt>
      <trkpt lat="44.42919" lon="6.88874">
        <ele>1957.8</ele>
        <time>2022-08-16T05:44:52Z</time>
      </trkpt>
      <trkpt lat="44.4292" lon="6.88874">
        <ele>1957.8</ele>
        <time>2022-08-16T05:44:53Z</time>
      </trkpt>
      <trkpt lat="44.42921" lon="6.88875">
        <ele>1958</ele>
        <time>2022-08-16T05:44:54Z</time>
      </trkpt>
      <trkpt lat="44.42923" lon="6.88875">
        <ele>1958.2</ele>
        <time>2022-08-16T05:44:55Z</time>
      </trkpt>
      <trkpt lat="44.42924" lon="6.88875">
        <ele>1958.2</ele>
        <time>2022-08-16T05:44:56Z</time>
      </trkpt>
      <trkpt lat="44.42925" lon="6.88875">
        <ele>1958.2</ele>
        <time>2022-08-16T05:44:57Z</time>
      </trkpt>
      <trkpt lat="44.42927" lon="6.88876">
        <ele>1958.4</ele>
        <time>2022-08-16T05:44:58Z</time>
      </trkpt>
      <trkpt lat="44.42928" lon="6.88875">
        <ele>1958.6</ele>
        <time>2022-08-16T05:44:59Z</time>
      </trkpt>
      <trkpt lat="44.42929" lon="6.88875">
        <ele>1958.6</ele>
        <time>2022-08-16T05:45:00Z</time>
      </trkpt>
      <trkpt lat="44.42931" lon="6.88875">
        <ele>1958.8</ele>
        <time>2022-08-16T05:45:01Z</time>
      </trkpt>
      <trkpt lat="44.42932" lon="6.88874">
        <ele>1959</ele>
        <time>2022-08-16T05:45:02Z</time>
      </trkpt>
      <trkpt lat="44.42933" lon="6.88874">
        <ele>1959.2</ele>
        <time>2022-08-16T05:45:03Z</time>
      </trkpt>
      <trkpt lat="44.42934" lon="6.88874">
        <ele>1959.4</ele>
        <time>2022-08-16T05:45:04Z</time>
      </trkpt>
      <trkpt lat="44.42936" lon="6.88873">
        <ele>1959.6</ele>
        <time>2022-08-16T05:45:05Z</time>
      </trkpt>
      <trkpt lat="44.42937" lon="6.88872">
        <ele>1959.8</ele>
        <time>2022-08-16T05:45:06Z</time>
      </trkpt>
      <trkpt lat="44.42938" lon="6.88872">
        <ele>1959.8</ele>
        <time>2022-08-16T05:45:07Z</time>
      </trkpt>
      <trkpt lat="44.42939" lon="6.88871">
        <ele>1960</ele>
        <time>2022-08-16T05:45:08Z</time>
      </trkpt>
      <trkpt lat="44.4294" lon="6.88871">
        <ele>1960</ele>
        <time>2022-08-16T05:45:09Z</time>
      </trkpt>
      <trkpt lat="44.42941" lon="6.88869">
        <ele>1960</ele>
        <time>2022-08-16T05:45:10Z</time>
      </trkpt>
      <trkpt lat="44.42942" lon="6.88868">
        <ele>1960</ele>
        <time>2022-08-16T05:45:11Z</time>
      </trkpt>
      <trkpt lat="44.42942" lon="6.88866">
        <ele>1960.2</ele>
        <time>2022-08-16T05:45:12Z</time>
      </trkpt>
      <trkpt lat="44.42943" lon="6.88864">
        <ele>1960.2</ele>
        <time>2022-08-16T05:45:13Z</time>
      </trkpt>
      <trkpt lat="44.42943" lon="6.88863">
        <ele>1960.4</ele>
        <time>2022-08-16T05:45:14Z</time>
      </trkpt>
      <trkpt lat="44.42944" lon="6.88861">
        <ele>1960.6</ele>
        <time>2022-08-16T05:45:15Z</time>
      </trkpt>
      <trkpt lat="44.42944" lon="6.88859">
        <ele>1960.8</ele>
        <time>2022-08-16T05:45:16Z</time>
      </trkpt>
      <trkpt lat="44.42944" lon="6.88858">
        <ele>1960.8</ele>
        <time>2022-08-16T05:45:17Z</time>
      </trkpt>
      <trkpt lat="44.42945" lon="6.88856">
        <ele>1961.2</ele>
        <time>2022-08-16T05:45:18Z</time>
      </trkpt>
      <trkpt lat="44.42945" lon="6.88855">
        <ele>1961.4</ele>
        <time>2022-08-16T05:45:19Z</time>
      </trkpt>
      <trkpt lat="44.42945" lon="6.88853">
        <ele>1961.6</ele>
        <time>2022-08-16T05:45:20Z</time>
      </trkpt>
      <trkpt lat="44.42945" lon="6.88851">
        <ele>1961.6</ele>
        <time>2022-08-16T05:45:21Z</time>
      </trkpt>
      <trkpt lat="44.42945" lon="6.88849">
        <ele>1961.8</ele>
        <time>2022-08-16T05:45:22Z</time>
      </trkpt>
      <trkpt lat="44.42946" lon="6.88848">
        <ele>1962</ele>
        <time>2022-08-16T05:45:23Z</time>
      </trkpt>
      <trkpt lat="44.42946" lon="6.88846">
        <ele>1962.2</ele>
        <time>2022-08-16T05:45:24Z</time>
      </trkpt>
      <trkpt lat="44.42947" lon="6.88844">
        <ele>1962.4</ele>
        <time>2022-08-16T05:45:25Z</time>
      </trkpt>
      <trkpt lat="44.42947" lon="6.88842">
        <ele>1962.6</ele>
        <time>2022-08-16T05:45:26Z</time>
      </trkpt>
      <trkpt lat="44.42948" lon="6.88841">
        <ele>1962.6</ele>
        <time>2022-08-16T05:45:27Z</time>
      </trkpt>
      <trkpt lat="44.42948" lon="6.88839">
        <ele>1962.8</ele>
        <time>2022-08-16T05:45:28Z</time>
      </trkpt>
      <trkpt lat="44.42949" lon="6.88837">
        <ele>1962.8</ele>
        <time>2022-08-16T05:45:29Z</time>
      </trkpt>
      <trkpt lat="44.42949" lon="6.88836">
        <ele>1963</ele>
        <time>2022-08-16T05:45:30Z</time>
      </trkpt>
      <trkpt lat="44.4295" lon="6.88834">
        <ele>1963</ele>
        <time>2022-08-16T05:45:31Z</time>
      </trkpt>
      <trkpt lat="44.4295" lon="6.88833">
        <ele>1963</ele>
        <time>2022-08-16T05:45:32Z</time>
      </trkpt>
      <trkpt lat="44.42951" lon="6.88831">
        <ele>1963</ele>
        <time>2022-08-16T05:45:33Z</time>
      </trkpt>
      <trkpt lat="44.42952" lon="6.8883">
        <ele>1963.2</ele>
        <time>2022-08-16T05:45:34Z</time>
      </trkpt>
      <trkpt lat="44.42953" lon="6.88828">
        <ele>1963.2</ele>
        <time>2022-08-16T05:45:35Z</time>
      </trkpt>
      <trkpt lat="44.42953" lon="6.88827">
        <ele>1963.4</ele>
        <time>2022-08-16T05:45:36Z</time>
      </trkpt>
      <trkpt lat="44.42954" lon="6.88827">
        <ele>1963.6</ele>
        <time>2022-08-16T05:45:37Z</time>
      </trkpt>
      <trkpt lat="44.42955" lon="6.88825">
        <ele>1963.8</ele>
        <time>2022-08-16T05:45:38Z</time>
      </trkpt>
      <trkpt lat="44.42956" lon="6.88824">
        <ele>1964</ele>
        <time>2022-08-16T05:45:39Z</time>
      </trkpt>
      <trkpt lat="44.42957" lon="6.88823">
        <ele>1964.2</ele>
        <time>2022-08-16T05:45:40Z</time>
      </trkpt>
      <trkpt lat="44.42958" lon="6.88822">
        <ele>1964.2</ele>
        <time>2022-08-16T05:45:41Z</time>
      </trkpt>
      <trkpt lat="44.42959" lon="6.88821">
        <ele>1964.4</ele>
        <time>2022-08-16T05:45:42Z</time>
      </trkpt>
      <trkpt lat="44.4296" lon="6.8882">
        <ele>1964.4</ele>
        <time>2022-08-16T05:45:43Z</time>
      </trkpt>
      <trkpt lat="44.42961" lon="6.88819">
        <ele>1964.6</ele>
        <time>2022-08-16T05:45:44Z</time>
      </trkpt>
      <trkpt lat="44.42962" lon="6.88818">
        <ele>1964.8</ele>
        <time>2022-08-16T05:45:45Z</time>
      </trkpt>
      <trkpt lat="44.42963" lon="6.88817">
        <ele>1965</ele>
        <time>2022-08-16T05:45:46Z</time>
      </trkpt>
      <trkpt lat="44.42964" lon="6.88816">
        <ele>1965</ele>
        <time>2022-08-16T05:45:47Z</time>
      </trkpt>
      <trkpt lat="44.42965" lon="6.88815">
        <ele>1965.2</ele>
        <time>2022-08-16T05:45:48Z</time>
      </trkpt>
      <trkpt lat="44.42966" lon="6.88814">
        <ele>1965.2</ele>
        <time>2022-08-16T05:45:49Z</time>
      </trkpt>
      <trkpt lat="44.42967" lon="6.88813">
        <ele>1965.4</ele>
        <time>2022-08-16T05:45:50Z</time>
      </trkpt>
      <trkpt lat="44.42968" lon="6.88812">
        <ele>1965.8</ele>
        <time>2022-08-16T05:45:51Z</time>
      </trkpt>
      <trkpt lat="44.42969" lon="6.88811">
        <ele>1966</ele>
        <time>2022-08-16T05:45:52Z</time>
      </trkpt>
      <trkpt lat="44.4297" lon="6.8881">
        <ele>1966</ele>
        <time>2022-08-16T05:45:53Z</time>
      </trkpt>
      <trkpt lat="44.42971" lon="6.88809">
        <ele>1966.2</ele>
        <time>2022-08-16T05:45:54Z</time>
      </trkpt>
      <trkpt lat="44.42972" lon="6.88808">
        <ele>1966.2</ele>
        <time>2022-08-16T05:45:55Z</time>
      </trkpt>
      <trkpt lat="44.42973" lon="6.88807">
        <ele>1966.6</ele>
        <time>2022-08-16T05:45:56Z</time>
      </trkpt>
      <trkpt lat="44.42974" lon="6.88806">
        <ele>1966.6</ele>
        <time>2022-08-16T05:45:57Z</time>
      </trkpt>
      <trkpt lat="44.42975" lon="6.88804">
        <ele>1966.6</ele>
        <time>2022-08-16T05:45:58Z</time>
      </trkpt>
      <trkpt lat="44.42976" lon="6.88803">
        <ele>1966.8</ele>
        <time>2022-08-16T05:45:59Z</time>
      </trkpt>
      <trkpt lat="44.42977" lon="6.88802">
        <ele>1967</ele>
        <time>2022-08-16T05:46:00Z</time>
      </trkpt>
      <trkpt lat="44.42978" lon="6.88801">
        <ele>1967</ele>
        <time>2022-08-16T05:46:01Z</time>
      </trkpt>
      <trkpt lat="44.42979" lon="6.888">
        <ele>1967</ele>
        <time>2022-08-16T05:46:02Z</time>
      </trkpt>
      <trkpt lat="44.4298" lon="6.88799">
        <ele>1967.2</ele>
        <time>2022-08-16T05:46:03Z</time>
      </trkpt>
      <trkpt lat="44.42981" lon="6.88797">
        <ele>1967.4</ele>
        <time>2022-08-16T05:46:04Z</time>
      </trkpt>
      <trkpt lat="44.42982" lon="6.88796">
        <ele>1967.6</ele>
        <time>2022-08-16T05:46:05Z</time>
      </trkpt>
      <trkpt lat="44.42982" lon="6.88794">
        <ele>1967.6</ele>
        <time>2022-08-16T05:46:06Z</time>
      </trkpt>
      <trkpt lat="44.42983" lon="6.88793">
        <ele>1967.8</ele>
        <time>2022-08-16T05:46:07Z</time>
      </trkpt>
      <trkpt lat="44.42984" lon="6.88792">
        <ele>1967.8</ele>
        <time>2022-08-16T05:46:08Z</time>
      </trkpt>
      <trkpt lat="44.42986" lon="6.88791">
        <ele>1968</ele>
        <time>2022-08-16T05:46:09Z</time>
      </trkpt>
      <trkpt lat="44.42987" lon="6.8879">
        <ele>1968.2</ele>
        <time>2022-08-16T05:46:10Z</time>
      </trkpt>
      <trkpt lat="44.42988" lon="6.88789">
        <ele>1968.4</ele>
        <time>2022-08-16T05:46:11Z</time>
      </trkpt>
      <trkpt lat="44.42989" lon="6.88788">
        <ele>1968.6</ele>
        <time>2022-08-16T05:46:12Z</time>
      </trkpt>
      <trkpt lat="44.4299" lon="6.88788">
        <ele>1968.8</ele>
        <time>2022-08-16T05:46:13Z</time>
      </trkpt>
      <trkpt lat="44.42991" lon="6.88786">
        <ele>1969</ele>
        <time>2022-08-16T05:46:14Z</time>
      </trkpt>
      <trkpt lat="44.42992" lon="6.88785">
        <ele>1969</ele>
        <time>2022-08-16T05:46:15Z</time>
      </trkpt>
      <trkpt lat="44.42992" lon="6.88784">
        <ele>1969.2</ele>
        <time>2022-08-16T05:46:16Z</time>
      </trkpt>
      <trkpt lat="44.42993" lon="6.88782">
        <ele>1969.2</ele>
        <time>2022-08-16T05:46:17Z</time>
      </trkpt>
      <trkpt lat="44.42994" lon="6.8878">
        <ele>1969.4</ele>
        <time>2022-08-16T05:46:18Z</time>
      </trkpt>
      <trkpt lat="44.42994" lon="6.88779">
        <ele>1969.4</ele>
        <time>2022-08-16T05:46:19Z</time>
      </trkpt>
      <trkpt lat="44.42995" lon="6.88777">
        <ele>1969.6</ele>
        <time>2022-08-16T05:46:20Z</time>
      </trkpt>
      <trkpt lat="44.42996" lon="6.88775">
        <ele>1969.6</ele>
        <time>2022-08-16T05:46:21Z</time>
      </trkpt>
      <trkpt lat="44.42997" lon="6.88774">
        <ele>1969.8</ele>
        <time>2022-08-16T05:46:22Z</time>
      </trkpt>
      <trkpt lat="44.42997" lon="6.88772">
        <ele>1969.8</ele>
        <time>2022-08-16T05:46:23Z</time>
      </trkpt>
      <trkpt lat="44.42998" lon="6.88771">
        <ele>1970</ele>
        <time>2022-08-16T05:46:24Z</time>
      </trkpt>
      <trkpt lat="44.42999" lon="6.88769">
        <ele>1970.2</ele>
        <time>2022-08-16T05:46:25Z</time>
      </trkpt>
      <trkpt lat="44.43" lon="6.88768">
        <ele>1970.4</ele>
        <time>2022-08-16T05:46:26Z</time>
      </trkpt>
      <trkpt lat="44.43001" lon="6.88767">
        <ele>1970.8</ele>
        <time>2022-08-16T05:46:27Z</time>
      </trkpt>
      <trkpt lat="44.43002" lon="6.88765">
        <ele>1970.8</ele>
        <time>2022-08-16T05:46:28Z</time>
      </trkpt>
      <trkpt lat="44.43003" lon="6.88764">
        <ele>1971</ele>
        <time>2022-08-16T05:46:29Z</time>
      </trkpt>
      <trkpt lat="44.43004" lon="6.88762">
        <ele>1971.2</ele>
        <time>2022-08-16T05:46:30Z</time>
      </trkpt>
      <trkpt lat="44.43004" lon="6.88761">
        <ele>1971.4</ele>
        <time>2022-08-16T05:46:31Z</time>
      </trkpt>
      <trkpt lat="44.43005" lon="6.8876">
        <ele>1971.4</ele>
        <time>2022-08-16T05:46:32Z</time>
      </trkpt>
      <trkpt lat="44.43006" lon="6.88758">
        <ele>1971.6</ele>
        <time>2022-08-16T05:46:33Z</time>
      </trkpt>
      <trkpt lat="44.43007" lon="6.88756">
        <ele>1971.8</ele>
        <time>2022-08-16T05:46:34Z</time>
      </trkpt>
      <trkpt lat="44.43008" lon="6.88755">
        <ele>1972</ele>
        <time>2022-08-16T05:46:35Z</time>
      </trkpt>
      <trkpt lat="44.43009" lon="6.88753">
        <ele>1972</ele>
        <time>2022-08-16T05:46:36Z</time>
      </trkpt>
      <trkpt lat="44.43009" lon="6.88752">
        <ele>1972.2</ele>
        <time>2022-08-16T05:46:37Z</time>
      </trkpt>
      <trkpt lat="44.4301" lon="6.8875">
        <ele>1972.2</ele>
        <time>2022-08-16T05:46:38Z</time>
      </trkpt>
      <trkpt lat="44.43011" lon="6.88749">
        <ele>1972.4</ele>
        <time>2022-08-16T05:46:39Z</time>
      </trkpt>
      <trkpt lat="44.43012" lon="6.88747">
        <ele>1972.4</ele>
        <time>2022-08-16T05:46:40Z</time>
      </trkpt>
      <trkpt lat="44.43013" lon="6.88746">
        <ele>1972.6</ele>
        <time>2022-08-16T05:46:41Z</time>
      </trkpt>
      <trkpt lat="44.43014" lon="6.88745">
        <ele>1972.8</ele>
        <time>2022-08-16T05:46:42Z</time>
      </trkpt>
      <trkpt lat="44.43015" lon="6.88743">
        <ele>1972.8</ele>
        <time>2022-08-16T05:46:43Z</time>
      </trkpt>
      <trkpt lat="44.43016" lon="6.88742">
        <ele>1972.8</ele>
        <time>2022-08-16T05:46:44Z</time>
      </trkpt>
      <trkpt lat="44.43017" lon="6.88741">
        <ele>1972.8</ele>
        <time>2022-08-16T05:46:45Z</time>
      </trkpt>
      <trkpt lat="44.43018" lon="6.88739">
        <ele>1973</ele>
        <time>2022-08-16T05:46:46Z</time>
      </trkpt>
      <trkpt lat="44.4302" lon="6.88738">
        <ele>1973</ele>
        <time>2022-08-16T05:46:47Z</time>
      </trkpt>
      <trkpt lat="44.43021" lon="6.88737">
        <ele>1973.2</ele>
        <time>2022-08-16T05:46:48Z</time>
      </trkpt>
      <trkpt lat="44.43022" lon="6.88736">
        <ele>1973.2</ele>
        <time>2022-08-16T05:46:49Z</time>
      </trkpt>
      <trkpt lat="44.43023" lon="6.88735">
        <ele>1973.4</ele>
        <time>2022-08-16T05:46:50Z</time>
      </trkpt>
      <trkpt lat="44.43024" lon="6.88734">
        <ele>1973.6</ele>
        <time>2022-08-16T05:46:51Z</time>
      </trkpt>
      <trkpt lat="44.43025" lon="6.88733">
        <ele>1973.6</ele>
        <time>2022-08-16T05:46:52Z</time>
      </trkpt>
      <trkpt lat="44.43026" lon="6.88732">
        <ele>1973.8</ele>
        <time>2022-08-16T05:46:53Z</time>
      </trkpt>
      <trkpt lat="44.43027" lon="6.88731">
        <ele>1973.8</ele>
        <time>2022-08-16T05:46:54Z</time>
      </trkpt>
      <trkpt lat="44.43027" lon="6.8873">
        <ele>1973.8</ele>
        <time>2022-08-16T05:46:55Z</time>
      </trkpt>
      <trkpt lat="44.43028" lon="6.88729">
        <ele>1973.8</ele>
        <time>2022-08-16T05:46:56Z</time>
      </trkpt>
      <trkpt lat="44.43029" lon="6.88728">
        <ele>1974</ele>
        <time>2022-08-16T05:46:57Z</time>
      </trkpt>
      <trkpt lat="44.4303" lon="6.88727">
        <ele>1974</ele>
        <time>2022-08-16T05:46:58Z</time>
      </trkpt>
      <trkpt lat="44.43031" lon="6.88726">
        <ele>1974.2</ele>
        <time>2022-08-16T05:46:59Z</time>
      </trkpt>
      <trkpt lat="44.43032" lon="6.88725">
        <ele>1974.4</ele>
        <time>2022-08-16T05:47:00Z</time>
      </trkpt>
      <trkpt lat="44.43033" lon="6.88725">
        <ele>1974.6</ele>
        <time>2022-08-16T05:47:01Z</time>
      </trkpt>
      <trkpt lat="44.43034" lon="6.88724">
        <ele>1974.8</ele>
        <time>2022-08-16T05:47:02Z</time>
      </trkpt>
      <trkpt lat="44.43035" lon="6.88723">
        <ele>1974.8</ele>
        <time>2022-08-16T05:47:03Z</time>
      </trkpt>
      <trkpt lat="44.43037" lon="6.88722">
        <ele>1974.8</ele>
        <time>2022-08-16T05:47:04Z</time>
      </trkpt>
      <trkpt lat="44.43038" lon="6.88721">
        <ele>1975</ele>
        <time>2022-08-16T05:47:05Z</time>
      </trkpt>
      <trkpt lat="44.43039" lon="6.88721">
        <ele>1975.2</ele>
        <time>2022-08-16T05:47:06Z</time>
      </trkpt>
      <trkpt lat="44.4304" lon="6.88719">
        <ele>1975.2</ele>
        <time>2022-08-16T05:47:07Z</time>
      </trkpt>
      <trkpt lat="44.4304" lon="6.88718">
        <ele>1975.4</ele>
        <time>2022-08-16T05:47:08Z</time>
      </trkpt>
      <trkpt lat="44.43041" lon="6.88718">
        <ele>1975.6</ele>
        <time>2022-08-16T05:47:09Z</time>
      </trkpt>
      <trkpt lat="44.43042" lon="6.88717">
        <ele>1975.6</ele>
        <time>2022-08-16T05:47:10Z</time>
      </trkpt>
      <trkpt lat="44.43043" lon="6.88716">
        <ele>1975.8</ele>
        <time>2022-08-16T05:47:11Z</time>
      </trkpt>
      <trkpt lat="44.43044" lon="6.88715">
        <ele>1976</ele>
        <time>2022-08-16T05:47:12Z</time>
      </trkpt>
      <trkpt lat="44.43046" lon="6.88714">
        <ele>1976.2</ele>
        <time>2022-08-16T05:47:13Z</time>
      </trkpt>
      <trkpt lat="44.43047" lon="6.88713">
        <ele>1976.4</ele>
        <time>2022-08-16T05:47:14Z</time>
      </trkpt>
      <trkpt lat="44.43047" lon="6.88711">
        <ele>1976.2</ele>
        <time>2022-08-16T05:47:15Z</time>
      </trkpt>
      <trkpt lat="44.43048" lon="6.8871">
        <ele>1976.4</ele>
        <time>2022-08-16T05:47:16Z</time>
      </trkpt>
      <trkpt lat="44.43049" lon="6.8871">
        <ele>1976.6</ele>
        <time>2022-08-16T05:47:17Z</time>
      </trkpt>
      <trkpt lat="44.43051" lon="6.88709">
        <ele>1976.6</ele>
        <time>2022-08-16T05:47:18Z</time>
      </trkpt>
      <trkpt lat="44.43052" lon="6.88708">
        <ele>1976.8</ele>
        <time>2022-08-16T05:47:19Z</time>
      </trkpt>
      <trkpt lat="44.43052" lon="6.88707">
        <ele>1977</ele>
        <time>2022-08-16T05:47:20Z</time>
      </trkpt>
      <trkpt lat="44.43054" lon="6.88706">
        <ele>1977.2</ele>
        <time>2022-08-16T05:47:21Z</time>
      </trkpt>
      <trkpt lat="44.43055" lon="6.88704">
        <ele>1977.4</ele>
        <time>2022-08-16T05:47:22Z</time>
      </trkpt>
      <trkpt lat="44.43056" lon="6.88703">
        <ele>1977.6</ele>
        <time>2022-08-16T05:47:23Z</time>
      </trkpt>
      <trkpt lat="44.43057" lon="6.88701">
        <ele>1977.8</ele>
        <time>2022-08-16T05:47:24Z</time>
      </trkpt>
      <trkpt lat="44.43058" lon="6.887">
        <ele>1978</ele>
        <time>2022-08-16T05:47:25Z</time>
      </trkpt>
      <trkpt lat="44.43058" lon="6.88699">
        <ele>1978.2</ele>
        <time>2022-08-16T05:47:26Z</time>
      </trkpt>
      <trkpt lat="44.43059" lon="6.88698">
        <ele>1978.4</ele>
        <time>2022-08-16T05:47:27Z</time>
      </trkpt>
      <trkpt lat="44.4306" lon="6.88696">
        <ele>1978.4</ele>
        <time>2022-08-16T05:47:28Z</time>
      </trkpt>
      <trkpt lat="44.43061" lon="6.88695">
        <ele>1978.8</ele>
        <time>2022-08-16T05:47:29Z</time>
      </trkpt>
      <trkpt lat="44.43063" lon="6.88694">
        <ele>1978.8</ele>
        <time>2022-08-16T05:47:30Z</time>
      </trkpt>
      <trkpt lat="44.43064" lon="6.88693">
        <ele>1978.8</ele>
        <time>2022-08-16T05:47:31Z</time>
      </trkpt>
      <trkpt lat="44.43065" lon="6.88693">
        <ele>1979.2</ele>
        <time>2022-08-16T05:47:32Z</time>
      </trkpt>
      <trkpt lat="44.43066" lon="6.88692">
        <ele>1979.2</ele>
        <time>2022-08-16T05:47:33Z</time>
      </trkpt>
      <trkpt lat="44.43067" lon="6.88691">
        <ele>1979.4</ele>
        <time>2022-08-16T05:47:34Z</time>
      </trkpt>
      <trkpt lat="44.43068" lon="6.88689">
        <ele>1979.4</ele>
        <time>2022-08-16T05:47:35Z</time>
      </trkpt>
      <trkpt lat="44.43069" lon="6.88688">
        <ele>1979.8</ele>
        <time>2022-08-16T05:47:36Z</time>
      </trkpt>
      <trkpt lat="44.4307" lon="6.88687">
        <ele>1979.8</ele>
        <time>2022-08-16T05:47:37Z</time>
      </trkpt>
      <trkpt lat="44.43071" lon="6.88686">
        <ele>1980</ele>
        <time>2022-08-16T05:47:38Z</time>
      </trkpt>
      <trkpt lat="44.43072" lon="6.88685">
        <ele>1980</ele>
        <time>2022-08-16T05:47:39Z</time>
      </trkpt>
      <trkpt lat="44.43074" lon="6.88684">
        <ele>1980.2</ele>
        <time>2022-08-16T05:47:40Z</time>
      </trkpt>
      <trkpt lat="44.43075" lon="6.88683">
        <ele>1980.2</ele>
        <time>2022-08-16T05:47:41Z</time>
      </trkpt>
      <trkpt lat="44.43076" lon="6.88681">
        <ele>1980.4</ele>
        <time>2022-08-16T05:47:42Z</time>
      </trkpt>
      <trkpt lat="44.43077" lon="6.8868">
        <ele>1980.6</ele>
        <time>2022-08-16T05:47:43Z</time>
      </trkpt>
      <trkpt lat="44.43078" lon="6.88679">
        <ele>1980.6</ele>
        <time>2022-08-16T05:47:44Z</time>
      </trkpt>
      <trkpt lat="44.4308" lon="6.88678">
        <ele>1980.8</ele>
        <time>2022-08-16T05:47:45Z</time>
      </trkpt>
      <trkpt lat="44.43081" lon="6.88677">
        <ele>1981</ele>
        <time>2022-08-16T05:47:46Z</time>
      </trkpt>
      <trkpt lat="44.43082" lon="6.88676">
        <ele>1981.2</ele>
        <time>2022-08-16T05:47:47Z</time>
      </trkpt>
      <trkpt lat="44.43083" lon="6.88676">
        <ele>1981.2</ele>
        <time>2022-08-16T05:47:48Z</time>
      </trkpt>
      <trkpt lat="44.43084" lon="6.88675">
        <ele>1981.6</ele>
        <time>2022-08-16T05:47:49Z</time>
      </trkpt>
      <trkpt lat="44.43085" lon="6.88674">
        <ele>1981.6</ele>
        <time>2022-08-16T05:47:50Z</time>
      </trkpt>
      <trkpt lat="44.43086" lon="6.88674">
        <ele>1982</ele>
        <time>2022-08-16T05:47:51Z</time>
      </trkpt>
      <trkpt lat="44.43087" lon="6.88673">
        <ele>1982.2</ele>
        <time>2022-08-16T05:47:52Z</time>
      </trkpt>
      <trkpt lat="44.43088" lon="6.88672">
        <ele>1982.2</ele>
        <time>2022-08-16T05:47:53Z</time>
      </trkpt>
      <trkpt lat="44.43089" lon="6.88671">
        <ele>1982.4</ele>
        <time>2022-08-16T05:47:54Z</time>
      </trkpt>
      <trkpt lat="44.4309" lon="6.8867">
        <ele>1982.4</ele>
        <time>2022-08-16T05:47:55Z</time>
      </trkpt>
      <trkpt lat="44.43091" lon="6.88669">
        <ele>1982.6</ele>
        <time>2022-08-16T05:47:56Z</time>
      </trkpt>
      <trkpt lat="44.43092" lon="6.88668">
        <ele>1982.6</ele>
        <time>2022-08-16T05:47:57Z</time>
      </trkpt>
      <trkpt lat="44.43093" lon="6.88667">
        <ele>1982.8</ele>
        <time>2022-08-16T05:47:58Z</time>
      </trkpt>
      <trkpt lat="44.43094" lon="6.88666">
        <ele>1982.8</ele>
        <time>2022-08-16T05:47:59Z</time>
      </trkpt>
      <trkpt lat="44.43095" lon="6.88664">
        <ele>1983</ele>
        <time>2022-08-16T05:48:00Z</time>
      </trkpt>
      <trkpt lat="44.43096" lon="6.88663">
        <ele>1983</ele>
        <time>2022-08-16T05:48:01Z</time>
      </trkpt>
      <trkpt lat="44.43097" lon="6.88661">
        <ele>1983.2</ele>
        <time>2022-08-16T05:48:02Z</time>
      </trkpt>
      <trkpt lat="44.43098" lon="6.8866">
        <ele>1983.2</ele>
        <time>2022-08-16T05:48:03Z</time>
      </trkpt>
      <trkpt lat="44.43099" lon="6.88659">
        <ele>1983.4</ele>
        <time>2022-08-16T05:48:04Z</time>
      </trkpt>
      <trkpt lat="44.431" lon="6.88658">
        <ele>1983.6</ele>
        <time>2022-08-16T05:48:05Z</time>
      </trkpt>
      <trkpt lat="44.43101" lon="6.88657">
        <ele>1983.6</ele>
        <time>2022-08-16T05:48:06Z</time>
      </trkpt>
      <trkpt lat="44.43102" lon="6.88656">
        <ele>1983.8</ele>
        <time>2022-08-16T05:48:07Z</time>
      </trkpt>
      <trkpt lat="44.43103" lon="6.88654">
        <ele>1984</ele>
        <time>2022-08-16T05:48:08Z</time>
      </trkpt>
      <trkpt lat="44.43104" lon="6.88654">
        <ele>1984.2</ele>
        <time>2022-08-16T05:48:09Z</time>
      </trkpt>
      <trkpt lat="44.43106" lon="6.88653">
        <ele>1984.4</ele>
        <time>2022-08-16T05:48:10Z</time>
      </trkpt>
      <trkpt lat="44.43107" lon="6.88652">
        <ele>1984.6</ele>
        <time>2022-08-16T05:48:11Z</time>
      </trkpt>
      <trkpt lat="44.43108" lon="6.88651">
        <ele>1984.8</ele>
        <time>2022-08-16T05:48:12Z</time>
      </trkpt>
      <trkpt lat="44.43109" lon="6.8865">
        <ele>1984.8</ele>
        <time>2022-08-16T05:48:13Z</time>
      </trkpt>
      <trkpt lat="44.43111" lon="6.88649">
        <ele>1985</ele>
        <time>2022-08-16T05:48:14Z</time>
      </trkpt>
      <trkpt lat="44.43112" lon="6.88649">
        <ele>1985</ele>
        <time>2022-08-16T05:48:15Z</time>
      </trkpt>
      <trkpt lat="44.43113" lon="6.88648">
        <ele>1985</ele>
        <time>2022-08-16T05:48:16Z</time>
      </trkpt>
      <trkpt lat="44.43114" lon="6.88648">
        <ele>1985.2</ele>
        <time>2022-08-16T05:48:17Z</time>
      </trkpt>
      <trkpt lat="44.43115" lon="6.88648">
        <ele>1985.2</ele>
        <time>2022-08-16T05:48:18Z</time>
      </trkpt>
      <trkpt lat="44.43116" lon="6.88648">
        <ele>1985.2</ele>
        <time>2022-08-16T05:48:19Z</time>
      </trkpt>
      <trkpt lat="44.43117" lon="6.88647">
        <ele>1985.4</ele>
        <time>2022-08-16T05:48:20Z</time>
      </trkpt>
      <trkpt lat="44.43119" lon="6.88647">
        <ele>1985.4</ele>
        <time>2022-08-16T05:48:21Z</time>
      </trkpt>
      <trkpt lat="44.4312" lon="6.88646">
        <ele>1985.6</ele>
        <time>2022-08-16T05:48:22Z</time>
      </trkpt>
      <trkpt lat="44.43121" lon="6.88646">
        <ele>1985.6</ele>
        <time>2022-08-16T05:48:23Z</time>
      </trkpt>
      <trkpt lat="44.43122" lon="6.88646">
        <ele>1985.8</ele>
        <time>2022-08-16T05:48:24Z</time>
      </trkpt>
      <trkpt lat="44.43123" lon="6.88646">
        <ele>1985.8</ele>
        <time>2022-08-16T05:48:25Z</time>
      </trkpt>
      <trkpt lat="44.43125" lon="6.88645">
        <ele>1985.8</ele>
        <time>2022-08-16T05:48:26Z</time>
      </trkpt>
      <trkpt lat="44.43126" lon="6.88645">
        <ele>1986.2</ele>
        <time>2022-08-16T05:48:27Z</time>
      </trkpt>
      <trkpt lat="44.43127" lon="6.88645">
        <ele>1986.2</ele>
        <time>2022-08-16T05:48:28Z</time>
      </trkpt>
      <trkpt lat="44.43129" lon="6.88645">
        <ele>1986.4</ele>
        <time>2022-08-16T05:48:29Z</time>
      </trkpt>
      <trkpt lat="44.4313" lon="6.88644">
        <ele>1986.4</ele>
        <time>2022-08-16T05:48:30Z</time>
      </trkpt>
      <trkpt lat="44.43131" lon="6.88643">
        <ele>1986.6</ele>
        <time>2022-08-16T05:48:31Z</time>
      </trkpt>
      <trkpt lat="44.43132" lon="6.88642">
        <ele>1986.6</ele>
        <time>2022-08-16T05:48:32Z</time>
      </trkpt>
      <trkpt lat="44.43133" lon="6.88641">
        <ele>1986.8</ele>
        <time>2022-08-16T05:48:33Z</time>
      </trkpt>
      <trkpt lat="44.43134" lon="6.88641">
        <ele>1987</ele>
        <time>2022-08-16T05:48:34Z</time>
      </trkpt>
      <trkpt lat="44.43136" lon="6.8864">
        <ele>1987.2</ele>
        <time>2022-08-16T05:48:35Z</time>
      </trkpt>
      <trkpt lat="44.43137" lon="6.8864">
        <ele>1987.4</ele>
        <time>2022-08-16T05:48:36Z</time>
      </trkpt>
      <trkpt lat="44.43138" lon="6.88639">
        <ele>1987.6</ele>
        <time>2022-08-16T05:48:37Z</time>
      </trkpt>
      <trkpt lat="44.43139" lon="6.88639">
        <ele>1987.6</ele>
        <time>2022-08-16T05:48:38Z</time>
      </trkpt>
      <trkpt lat="44.4314" lon="6.88639">
        <ele>1987.8</ele>
        <time>2022-08-16T05:48:39Z</time>
      </trkpt>
      <trkpt lat="44.43141" lon="6.88638">
        <ele>1988</ele>
        <time>2022-08-16T05:48:40Z</time>
      </trkpt>
      <trkpt lat="44.43142" lon="6.88638">
        <ele>1988</ele>
        <time>2022-08-16T05:48:41Z</time>
      </trkpt>
      <trkpt lat="44.43143" lon="6.88638">
        <ele>1988.2</ele>
        <time>2022-08-16T05:48:42Z</time>
      </trkpt>
      <trkpt lat="44.43145" lon="6.88637">
        <ele>1988.6</ele>
        <time>2022-08-16T05:48:43Z</time>
      </trkpt>
      <trkpt lat="44.43146" lon="6.88637">
        <ele>1988.6</ele>
        <time>2022-08-16T05:48:44Z</time>
      </trkpt>
      <trkpt lat="44.43147" lon="6.88637">
        <ele>1988.8</ele>
        <time>2022-08-16T05:48:45Z</time>
      </trkpt>
      <trkpt lat="44.43148" lon="6.88637">
        <ele>1989</ele>
        <time>2022-08-16T05:48:46Z</time>
      </trkpt>
      <trkpt lat="44.43149" lon="6.88637">
        <ele>1989</ele>
        <time>2022-08-16T05:48:47Z</time>
      </trkpt>
      <trkpt lat="44.43151" lon="6.88637">
        <ele>1989.2</ele>
        <time>2022-08-16T05:48:48Z</time>
      </trkpt>
      <trkpt lat="44.43152" lon="6.88636">
        <ele>1989.4</ele>
        <time>2022-08-16T05:48:49Z</time>
      </trkpt>
      <trkpt lat="44.43154" lon="6.88636">
        <ele>1989.4</ele>
        <time>2022-08-16T05:48:50Z</time>
      </trkpt>
      <trkpt lat="44.43155" lon="6.88635">
        <ele>1989.6</ele>
        <time>2022-08-16T05:48:51Z</time>
      </trkpt>
      <trkpt lat="44.43156" lon="6.88635">
        <ele>1989.8</ele>
        <time>2022-08-16T05:48:52Z</time>
      </trkpt>
      <trkpt lat="44.43157" lon="6.88635">
        <ele>1990</ele>
        <time>2022-08-16T05:48:53Z</time>
      </trkpt>
      <trkpt lat="44.43158" lon="6.88634">
        <ele>1990</ele>
        <time>2022-08-16T05:48:54Z</time>
      </trkpt>
      <trkpt lat="44.4316" lon="6.88633">
        <ele>1990.2</ele>
        <time>2022-08-16T05:48:55Z</time>
      </trkpt>
      <trkpt lat="44.43161" lon="6.88632">
        <ele>1990.4</ele>
        <time>2022-08-16T05:48:56Z</time>
      </trkpt>
      <trkpt lat="44.43162" lon="6.88631">
        <ele>1990.6</ele>
        <time>2022-08-16T05:48:57Z</time>
      </trkpt>
      <trkpt lat="44.43162" lon="6.8863">
        <ele>1990.6</ele>
        <time>2022-08-16T05:48:58Z</time>
      </trkpt>
      <trkpt lat="44.43163" lon="6.88628">
        <ele>1990.8</ele>
        <time>2022-08-16T05:48:59Z</time>
      </trkpt>
      <trkpt lat="44.43164" lon="6.88627">
        <ele>1991</ele>
        <time>2022-08-16T05:49:00Z</time>
      </trkpt>
      <trkpt lat="44.43165" lon="6.88626">
        <ele>1991.2</ele>
        <time>2022-08-16T05:49:01Z</time>
      </trkpt>
      <trkpt lat="44.43166" lon="6.88624">
        <ele>1991.4</ele>
        <time>2022-08-16T05:49:02Z</time>
      </trkpt>
      <trkpt lat="44.43167" lon="6.88623">
        <ele>1991.6</ele>
        <time>2022-08-16T05:49:03Z</time>
      </trkpt>
      <trkpt lat="44.43167" lon="6.88622">
        <ele>1991.8</ele>
        <time>2022-08-16T05:49:04Z</time>
      </trkpt>
      <trkpt lat="44.43169" lon="6.88621">
        <ele>1991.8</ele>
        <time>2022-08-16T05:49:05Z</time>
      </trkpt>
      <trkpt lat="44.43169" lon="6.8862">
        <ele>1991.8</ele>
        <time>2022-08-16T05:49:06Z</time>
      </trkpt>
      <trkpt lat="44.4317" lon="6.88619">
        <ele>1992</ele>
        <time>2022-08-16T05:49:07Z</time>
      </trkpt>
      <trkpt lat="44.43171" lon="6.88618">
        <ele>1992.2</ele>
        <time>2022-08-16T05:49:08Z</time>
      </trkpt>
      <trkpt lat="44.43172" lon="6.88617">
        <ele>1992.4</ele>
        <time>2022-08-16T05:49:09Z</time>
      </trkpt>
      <trkpt lat="44.43174" lon="6.88617">
        <ele>1992.4</ele>
        <time>2022-08-16T05:49:10Z</time>
      </trkpt>
      <trkpt lat="44.43175" lon="6.88616">
        <ele>1992.6</ele>
        <time>2022-08-16T05:49:11Z</time>
      </trkpt>
      <trkpt lat="44.43176" lon="6.88615">
        <ele>1992.8</ele>
        <time>2022-08-16T05:49:12Z</time>
      </trkpt>
      <trkpt lat="44.43177" lon="6.88614">
        <ele>1992.8</ele>
        <time>2022-08-16T05:49:13Z</time>
      </trkpt>
      <trkpt lat="44.43178" lon="6.88614">
        <ele>1993</ele>
        <time>2022-08-16T05:49:14Z</time>
      </trkpt>
      <trkpt lat="44.43179" lon="6.88613">
        <ele>1993</ele>
        <time>2022-08-16T05:49:15Z</time>
      </trkpt>
      <trkpt lat="44.43181" lon="6.88612">
        <ele>1993.2</ele>
        <time>2022-08-16T05:49:16Z</time>
      </trkpt>
      <trkpt lat="44.43182" lon="6.88611">
        <ele>1993.2</ele>
        <time>2022-08-16T05:49:17Z</time>
      </trkpt>
      <trkpt lat="44.43183" lon="6.8861">
        <ele>1993.4</ele>
        <time>2022-08-16T05:49:18Z</time>
      </trkpt>
      <trkpt lat="44.43184" lon="6.88609">
        <ele>1993.6</ele>
        <time>2022-08-16T05:49:19Z</time>
      </trkpt>
      <trkpt lat="44.43185" lon="6.88608">
        <ele>1993.6</ele>
        <time>2022-08-16T05:49:20Z</time>
      </trkpt>
      <trkpt lat="44.43186" lon="6.88607">
        <ele>1993.8</ele>
        <time>2022-08-16T05:49:21Z</time>
      </trkpt>
      <trkpt lat="44.43187" lon="6.88606">
        <ele>1994</ele>
        <time>2022-08-16T05:49:22Z</time>
      </trkpt>
      <trkpt lat="44.43188" lon="6.88605">
        <ele>1994</ele>
        <time>2022-08-16T05:49:23Z</time>
      </trkpt>
      <trkpt lat="44.43189" lon="6.88604">
        <ele>1994</ele>
        <time>2022-08-16T05:49:24Z</time>
      </trkpt>
      <trkpt lat="44.4319" lon="6.88603">
        <ele>1994.2</ele>
        <time>2022-08-16T05:49:25Z</time>
      </trkpt>
      <trkpt lat="44.4319" lon="6.88601">
        <ele>1994.8</ele>
        <time>2022-08-16T05:49:26Z</time>
      </trkpt>
      <trkpt lat="44.43191" lon="6.886">
        <ele>1995</ele>
        <time>2022-08-16T05:49:27Z</time>
      </trkpt>
      <trkpt lat="44.43192" lon="6.88599">
        <ele>1995.2</ele>
        <time>2022-08-16T05:49:28Z</time>
      </trkpt>
      <trkpt lat="44.43192" lon="6.88597">
        <ele>1995.4</ele>
        <time>2022-08-16T05:49:29Z</time>
      </trkpt>
      <trkpt lat="44.43193" lon="6.88595">
        <ele>1995.4</ele>
        <time>2022-08-16T05:49:30Z</time>
      </trkpt>
      <trkpt lat="44.43194" lon="6.88594">
        <ele>1995.6</ele>
        <time>2022-08-16T05:49:31Z</time>
      </trkpt>
      <trkpt lat="44.43195" lon="6.88592">
        <ele>1995.6</ele>
        <time>2022-08-16T05:49:32Z</time>
      </trkpt>
      <trkpt lat="44.43196" lon="6.88591">
        <ele>1995.6</ele>
        <time>2022-08-16T05:49:33Z</time>
      </trkpt>
      <trkpt lat="44.43197" lon="6.88589">
        <ele>1995.8</ele>
        <time>2022-08-16T05:49:34Z</time>
      </trkpt>
      <trkpt lat="44.43197" lon="6.88588">
        <ele>1996</ele>
        <time>2022-08-16T05:49:35Z</time>
      </trkpt>
      <trkpt lat="44.43198" lon="6.88586">
        <ele>1996.2</ele>
        <time>2022-08-16T05:49:36Z</time>
      </trkpt>
      <trkpt lat="44.43199" lon="6.88585">
        <ele>1996.4</ele>
        <time>2022-08-16T05:49:37Z</time>
      </trkpt>
      <trkpt lat="44.432" lon="6.88583">
        <ele>1996.6</ele>
        <time>2022-08-16T05:49:38Z</time>
      </trkpt>
      <trkpt lat="44.43201" lon="6.88582">
        <ele>1996.8</ele>
        <time>2022-08-16T05:49:39Z</time>
      </trkpt>
      <trkpt lat="44.43202" lon="6.88581">
        <ele>1997</ele>
        <time>2022-08-16T05:49:40Z</time>
      </trkpt>
      <trkpt lat="44.43202" lon="6.88579">
        <ele>1997.2</ele>
        <time>2022-08-16T05:49:41Z</time>
      </trkpt>
      <trkpt lat="44.43203" lon="6.88578">
        <ele>1997.4</ele>
        <time>2022-08-16T05:49:42Z</time>
      </trkpt>
      <trkpt lat="44.43204" lon="6.88576">
        <ele>1997.6</ele>
        <time>2022-08-16T05:49:43Z</time>
      </trkpt>
      <trkpt lat="44.43205" lon="6.88574">
        <ele>1997.8</ele>
        <time>2022-08-16T05:49:44Z</time>
      </trkpt>
      <trkpt lat="44.43205" lon="6.88573">
        <ele>1998</ele>
        <time>2022-08-16T05:49:45Z</time>
      </trkpt>
      <trkpt lat="44.43206" lon="6.88571">
        <ele>1998.2</ele>
        <time>2022-08-16T05:49:46Z</time>
      </trkpt>
      <trkpt lat="44.43207" lon="6.8857">
        <ele>1998.4</ele>
        <time>2022-08-16T05:49:47Z</time>
      </trkpt>
      <trkpt lat="44.43208" lon="6.88569">
        <ele>1998.4</ele>
        <time>2022-08-16T05:49:48Z</time>
      </trkpt>
      <trkpt lat="44.43209" lon="6.88568">
        <ele>1998.4</ele>
        <time>2022-08-16T05:49:49Z</time>
      </trkpt>
      <trkpt lat="44.4321" lon="6.88566">
        <ele>1998.8</ele>
        <time>2022-08-16T05:49:50Z</time>
      </trkpt>
      <trkpt lat="44.43211" lon="6.88565">
        <ele>1998.8</ele>
        <time>2022-08-16T05:49:51Z</time>
      </trkpt>
      <trkpt lat="44.43212" lon="6.88564">
        <ele>1999</ele>
        <time>2022-08-16T05:49:52Z</time>
      </trkpt>
      <trkpt lat="44.43213" lon="6.88563">
        <ele>1999.2</ele>
        <time>2022-08-16T05:49:53Z</time>
      </trkpt>
      <trkpt lat="44.43214" lon="6.88561">
        <ele>1999.2</ele>
        <time>2022-08-16T05:49:54Z</time>
      </trkpt>
      <trkpt lat="44.43215" lon="6.8856">
        <ele>1999.2</ele>
        <time>2022-08-16T05:49:55Z</time>
      </trkpt>
      <trkpt lat="44.43216" lon="6.88559">
        <ele>1999.4</ele>
        <time>2022-08-16T05:49:56Z</time>
      </trkpt>
      <trkpt lat="44.43217" lon="6.88558">
        <ele>1999.6</ele>
        <time>2022-08-16T05:49:57Z</time>
      </trkpt>
      <trkpt lat="44.43218" lon="6.88557">
        <ele>1999.6</ele>
        <time>2022-08-16T05:49:58Z</time>
      </trkpt>
      <trkpt lat="44.43219" lon="6.88556">
        <ele>2000</ele>
        <time>2022-08-16T05:49:59Z</time>
      </trkpt>
      <trkpt lat="44.4322" lon="6.88556">
        <ele>2000</ele>
        <time>2022-08-16T05:50:00Z</time>
      </trkpt>
      <trkpt lat="44.43222" lon="6.88555">
        <ele>2000.2</ele>
        <time>2022-08-16T05:50:01Z</time>
      </trkpt>
      <trkpt lat="44.43223" lon="6.88554">
        <ele>2000.4</ele>
        <time>2022-08-16T05:50:02Z</time>
      </trkpt>
      <trkpt lat="44.43224" lon="6.88553">
        <ele>2000.4</ele>
        <time>2022-08-16T05:50:03Z</time>
      </trkpt>
      <trkpt lat="44.43226" lon="6.88552">
        <ele>2000.6</ele>
        <time>2022-08-16T05:50:04Z</time>
      </trkpt>
      <trkpt lat="44.43227" lon="6.88551">
        <ele>2000.6</ele>
        <time>2022-08-16T05:50:05Z</time>
      </trkpt>
      <trkpt lat="44.43228" lon="6.88551">
        <ele>2000.8</ele>
        <time>2022-08-16T05:50:06Z</time>
      </trkpt>
      <trkpt lat="44.43229" lon="6.8855">
        <ele>2001</ele>
        <time>2022-08-16T05:50:07Z</time>
      </trkpt>
      <trkpt lat="44.4323" lon="6.88549">
        <ele>2001.2</ele>
        <time>2022-08-16T05:50:08Z</time>
      </trkpt>
      <trkpt lat="44.43232" lon="6.88549">
        <ele>2001.2</ele>
        <time>2022-08-16T05:50:09Z</time>
      </trkpt>
      <trkpt lat="44.43233" lon="6.88548">
        <ele>2001.4</ele>
        <time>2022-08-16T05:50:10Z</time>
      </trkpt>
      <trkpt lat="44.43234" lon="6.88546">
        <ele>2001.6</ele>
        <time>2022-08-16T05:50:11Z</time>
      </trkpt>
      <trkpt lat="44.43235" lon="6.88545">
        <ele>2001.8</ele>
        <time>2022-08-16T05:50:12Z</time>
      </trkpt>
      <trkpt lat="44.43236" lon="6.88544">
        <ele>2002</ele>
        <time>2022-08-16T05:50:13Z</time>
      </trkpt>
      <trkpt lat="44.43238" lon="6.88543">
        <ele>2002.2</ele>
        <time>2022-08-16T05:50:14Z</time>
      </trkpt>
      <trkpt lat="44.43239" lon="6.88542">
        <ele>2002.4</ele>
        <time>2022-08-16T05:50:15Z</time>
      </trkpt>
      <trkpt lat="44.4324" lon="6.8854">
        <ele>2002.6</ele>
        <time>2022-08-16T05:50:16Z</time>
      </trkpt>
      <trkpt lat="44.43241" lon="6.88539">
        <ele>2002.6</ele>
        <time>2022-08-16T05:50:17Z</time>
      </trkpt>
      <trkpt lat="44.43242" lon="6.88539">
        <ele>2002.6</ele>
        <time>2022-08-16T05:50:18Z</time>
      </trkpt>
      <trkpt lat="44.43243" lon="6.88537">
        <ele>2002.8</ele>
        <time>2022-08-16T05:50:19Z</time>
      </trkpt>
      <trkpt lat="44.43244" lon="6.88536">
        <ele>2003</ele>
        <time>2022-08-16T05:50:20Z</time>
      </trkpt>
      <trkpt lat="44.43245" lon="6.88534">
        <ele>2003</ele>
        <time>2022-08-16T05:50:21Z</time>
      </trkpt>
      <trkpt lat="44.43246" lon="6.88533">
        <ele>2003.4</ele>
        <time>2022-08-16T05:50:22Z</time>
      </trkpt>
      <trkpt lat="44.43247" lon="6.88532">
        <ele>2003.4</ele>
        <time>2022-08-16T05:50:23Z</time>
      </trkpt>
      <trkpt lat="44.43248" lon="6.88531">
        <ele>2003.6</ele>
        <time>2022-08-16T05:50:24Z</time>
      </trkpt>
      <trkpt lat="44.43249" lon="6.88529">
        <ele>2003.8</ele>
        <time>2022-08-16T05:50:25Z</time>
      </trkpt>
      <trkpt lat="44.4325" lon="6.88528">
        <ele>2004</ele>
        <time>2022-08-16T05:50:26Z</time>
      </trkpt>
      <trkpt lat="44.43252" lon="6.88526">
        <ele>2004.2</ele>
        <time>2022-08-16T05:50:27Z</time>
      </trkpt>
      <trkpt lat="44.43252" lon="6.88525">
        <ele>2004.2</ele>
        <time>2022-08-16T05:50:28Z</time>
      </trkpt>
      <trkpt lat="44.43254" lon="6.88523">
        <ele>2004.6</ele>
        <time>2022-08-16T05:50:29Z</time>
      </trkpt>
      <trkpt lat="44.43255" lon="6.88522">
        <ele>2004.8</ele>
        <time>2022-08-16T05:50:30Z</time>
      </trkpt>
      <trkpt lat="44.43256" lon="6.8852">
        <ele>2005</ele>
        <time>2022-08-16T05:50:31Z</time>
      </trkpt>
      <trkpt lat="44.43257" lon="6.88519">
        <ele>2004.8</ele>
        <time>2022-08-16T05:50:32Z</time>
      </trkpt>
      <trkpt lat="44.43258" lon="6.88517">
        <ele>2005.2</ele>
        <time>2022-08-16T05:50:33Z</time>
      </trkpt>
      <trkpt lat="44.43259" lon="6.88516">
        <ele>2005.4</ele>
        <time>2022-08-16T05:50:34Z</time>
      </trkpt>
      <trkpt lat="44.4326" lon="6.88514">
        <ele>2005.4</ele>
        <time>2022-08-16T05:50:35Z</time>
      </trkpt>
      <trkpt lat="44.43261" lon="6.88513">
        <ele>2005.6</ele>
        <time>2022-08-16T05:50:36Z</time>
      </trkpt>
      <trkpt lat="44.43261" lon="6.88511">
        <ele>2005.6</ele>
        <time>2022-08-16T05:50:37Z</time>
      </trkpt>
      <trkpt lat="44.43262" lon="6.8851">
        <ele>2005.8</ele>
        <time>2022-08-16T05:50:38Z</time>
      </trkpt>
      <trkpt lat="44.43263" lon="6.88508">
        <ele>2006</ele>
        <time>2022-08-16T05:50:39Z</time>
      </trkpt>
      <trkpt lat="44.43264" lon="6.88507">
        <ele>2006.2</ele>
        <time>2022-08-16T05:50:40Z</time>
      </trkpt>
      <trkpt lat="44.43264" lon="6.88505">
        <ele>2006.4</ele>
        <time>2022-08-16T05:50:41Z</time>
      </trkpt>
      <trkpt lat="44.43265" lon="6.88504">
        <ele>2006.4</ele>
        <time>2022-08-16T05:50:42Z</time>
      </trkpt>
      <trkpt lat="44.43266" lon="6.88502">
        <ele>2006.4</ele>
        <time>2022-08-16T05:50:43Z</time>
      </trkpt>
      <trkpt lat="44.43267" lon="6.88501">
        <ele>2006.6</ele>
        <time>2022-08-16T05:50:44Z</time>
      </trkpt>
      <trkpt lat="44.43268" lon="6.88499">
        <ele>2006.6</ele>
        <time>2022-08-16T05:50:45Z</time>
      </trkpt>
      <trkpt lat="44.43269" lon="6.88498">
        <ele>2006.8</ele>
        <time>2022-08-16T05:50:46Z</time>
      </trkpt>
      <trkpt lat="44.4327" lon="6.88497">
        <ele>2006.8</ele>
        <time>2022-08-16T05:50:47Z</time>
      </trkpt>
      <trkpt lat="44.43271" lon="6.88495">
        <ele>2007.2</ele>
        <time>2022-08-16T05:50:48Z</time>
      </trkpt>
      <trkpt lat="44.43272" lon="6.88494">
        <ele>2007.2</ele>
        <time>2022-08-16T05:50:49Z</time>
      </trkpt>
      <trkpt lat="44.43273" lon="6.88493">
        <ele>2007.4</ele>
        <time>2022-08-16T05:50:50Z</time>
      </trkpt>
      <trkpt lat="44.43274" lon="6.88491">
        <ele>2007.6</ele>
        <time>2022-08-16T05:50:51Z</time>
      </trkpt>
      <trkpt lat="44.43275" lon="6.8849">
        <ele>2007.8</ele>
        <time>2022-08-16T05:50:52Z</time>
      </trkpt>
      <trkpt lat="44.43276" lon="6.88489">
        <ele>2008</ele>
        <time>2022-08-16T05:50:53Z</time>
      </trkpt>
      <trkpt lat="44.43277" lon="6.88488">
        <ele>2008.2</ele>
        <time>2022-08-16T05:50:54Z</time>
      </trkpt>
      <trkpt lat="44.43279" lon="6.88487">
        <ele>2008.2</ele>
        <time>2022-08-16T05:50:55Z</time>
      </trkpt>
      <trkpt lat="44.4328" lon="6.88486">
        <ele>2008.4</ele>
        <time>2022-08-16T05:50:56Z</time>
      </trkpt>
      <trkpt lat="44.43281" lon="6.88485">
        <ele>2008.4</ele>
        <time>2022-08-16T05:50:57Z</time>
      </trkpt>
      <trkpt lat="44.43282" lon="6.88483">
        <ele>2008.6</ele>
        <time>2022-08-16T05:50:58Z</time>
      </trkpt>
      <trkpt lat="44.43283" lon="6.88482">
        <ele>2008.8</ele>
        <time>2022-08-16T05:50:59Z</time>
      </trkpt>
      <trkpt lat="44.43284" lon="6.88481">
        <ele>2008.8</ele>
        <time>2022-08-16T05:51:00Z</time>
      </trkpt>
      <trkpt lat="44.43285" lon="6.8848">
        <ele>2009.2</ele>
        <time>2022-08-16T05:51:01Z</time>
      </trkpt>
      <trkpt lat="44.43287" lon="6.88479">
        <ele>2009.2</ele>
        <time>2022-08-16T05:51:02Z</time>
      </trkpt>
      <trkpt lat="44.43288" lon="6.88478">
        <ele>2009.4</ele>
        <time>2022-08-16T05:51:03Z</time>
      </trkpt>
      <trkpt lat="44.43289" lon="6.88477">
        <ele>2009.6</ele>
        <time>2022-08-16T05:51:04Z</time>
      </trkpt>
      <trkpt lat="44.4329" lon="6.88476">
        <ele>2009.6</ele>
        <time>2022-08-16T05:51:05Z</time>
      </trkpt>
      <trkpt lat="44.43291" lon="6.88475">
        <ele>2009.8</ele>
        <time>2022-08-16T05:51:06Z</time>
      </trkpt>
      <trkpt lat="44.43293" lon="6.88474">
        <ele>2009.8</ele>
        <time>2022-08-16T05:51:07Z</time>
      </trkpt>
      <trkpt lat="44.43294" lon="6.88473">
        <ele>2009.8</ele>
        <time>2022-08-16T05:51:08Z</time>
      </trkpt>
      <trkpt lat="44.43295" lon="6.88472">
        <ele>2010</ele>
        <time>2022-08-16T05:51:09Z</time>
      </trkpt>
      <trkpt lat="44.43296" lon="6.88471">
        <ele>2010.2</ele>
        <time>2022-08-16T05:51:10Z</time>
      </trkpt>
      <trkpt lat="44.43297" lon="6.88471">
        <ele>2010.4</ele>
        <time>2022-08-16T05:51:11Z</time>
      </trkpt>
      <trkpt lat="44.43299" lon="6.8847">
        <ele>2010.8</ele>
        <time>2022-08-16T05:51:12Z</time>
      </trkpt>
      <trkpt lat="44.433" lon="6.88469">
        <ele>2011</ele>
        <time>2022-08-16T05:51:13Z</time>
      </trkpt>
      <trkpt lat="44.43301" lon="6.88468">
        <ele>2011</ele>
        <time>2022-08-16T05:51:14Z</time>
      </trkpt>
      <trkpt lat="44.43302" lon="6.88467">
        <ele>2011</ele>
        <time>2022-08-16T05:51:15Z</time>
      </trkpt>
      <trkpt lat="44.43303" lon="6.88466">
        <ele>2011.2</ele>
        <time>2022-08-16T05:51:16Z</time>
      </trkpt>
      <trkpt lat="44.43305" lon="6.88465">
        <ele>2011.4</ele>
        <time>2022-08-16T05:51:17Z</time>
      </trkpt>
      <trkpt lat="44.43306" lon="6.88465">
        <ele>2011.6</ele>
        <time>2022-08-16T05:51:18Z</time>
      </trkpt>
      <trkpt lat="44.43307" lon="6.88465">
        <ele>2011.6</ele>
        <time>2022-08-16T05:51:19Z</time>
      </trkpt>
      <trkpt lat="44.43308" lon="6.88464">
        <ele>2011.8</ele>
        <time>2022-08-16T05:51:20Z</time>
      </trkpt>
      <trkpt lat="44.43309" lon="6.88463">
        <ele>2012</ele>
        <time>2022-08-16T05:51:21Z</time>
      </trkpt>
      <trkpt lat="44.43311" lon="6.88463">
        <ele>2012.2</ele>
        <time>2022-08-16T05:51:22Z</time>
      </trkpt>
      <trkpt lat="44.43312" lon="6.88463">
        <ele>2012.2</ele>
        <time>2022-08-16T05:51:23Z</time>
      </trkpt>
      <trkpt lat="44.43313" lon="6.88463">
        <ele>2012.4</ele>
        <time>2022-08-16T05:51:24Z</time>
      </trkpt>
      <trkpt lat="44.43314" lon="6.88463">
        <ele>2012.6</ele>
        <time>2022-08-16T05:51:25Z</time>
      </trkpt>
      <trkpt lat="44.43315" lon="6.88463">
        <ele>2012.8</ele>
        <time>2022-08-16T05:51:26Z</time>
      </trkpt>
      <trkpt lat="44.43316" lon="6.88464">
        <ele>2012.8</ele>
        <time>2022-08-16T05:51:27Z</time>
      </trkpt>
      <trkpt lat="44.43318" lon="6.88464">
        <ele>2013</ele>
        <time>2022-08-16T05:51:28Z</time>
      </trkpt>
      <trkpt lat="44.43319" lon="6.88464">
        <ele>2013</ele>
        <time>2022-08-16T05:51:29Z</time>
      </trkpt>
      <trkpt lat="44.4332" lon="6.88465">
        <ele>2013.2</ele>
        <time>2022-08-16T05:51:30Z</time>
      </trkpt>
      <trkpt lat="44.43322" lon="6.88465">
        <ele>2013.2</ele>
        <time>2022-08-16T05:51:31Z</time>
      </trkpt>
      <trkpt lat="44.43323" lon="6.88466">
        <ele>2013.6</ele>
        <time>2022-08-16T05:51:32Z</time>
      </trkpt>
      <trkpt lat="44.43324" lon="6.88466">
        <ele>2013.6</ele>
        <time>2022-08-16T05:51:33Z</time>
      </trkpt>
      <trkpt lat="44.43326" lon="6.88466">
        <ele>2013.8</ele>
        <time>2022-08-16T05:51:34Z</time>
      </trkpt>
      <trkpt lat="44.43327" lon="6.88467">
        <ele>2013.8</ele>
        <time>2022-08-16T05:51:35Z</time>
      </trkpt>
      <trkpt lat="44.43329" lon="6.88467">
        <ele>2014</ele>
        <time>2022-08-16T05:51:36Z</time>
      </trkpt>
      <trkpt lat="44.4333" lon="6.88467">
        <ele>2014.2</ele>
        <time>2022-08-16T05:51:37Z</time>
      </trkpt>
      <trkpt lat="44.43331" lon="6.88468">
        <ele>2014.2</ele>
        <time>2022-08-16T05:51:38Z</time>
      </trkpt>
      <trkpt lat="44.43333" lon="6.88468">
        <ele>2014.2</ele>
        <time>2022-08-16T05:51:39Z</time>
      </trkpt>
      <trkpt lat="44.43334" lon="6.88469">
        <ele>2014.4</ele>
        <time>2022-08-16T05:51:40Z</time>
      </trkpt>
      <trkpt lat="44.43336" lon="6.88469">
        <ele>2014.6</ele>
        <time>2022-08-16T05:51:41Z</time>
      </trkpt>
      <trkpt lat="44.43337" lon="6.8847">
        <ele>2014.6</ele>
        <time>2022-08-16T05:51:42Z</time>
      </trkpt>
      <trkpt lat="44.43339" lon="6.8847">
        <ele>2014.8</ele>
        <time>2022-08-16T05:51:43Z</time>
      </trkpt>
      <trkpt lat="44.4334" lon="6.8847">
        <ele>2015</ele>
        <time>2022-08-16T05:51:44Z</time>
      </trkpt>
      <trkpt lat="44.43342" lon="6.88471">
        <ele>2015</ele>
        <time>2022-08-16T05:51:45Z</time>
      </trkpt>
      <trkpt lat="44.43343" lon="6.88472">
        <ele>2015.2</ele>
        <time>2022-08-16T05:51:46Z</time>
      </trkpt>
      <trkpt lat="44.43345" lon="6.88472">
        <ele>2015.4</ele>
        <time>2022-08-16T05:51:47Z</time>
      </trkpt>
      <trkpt lat="44.43346" lon="6.88473">
        <ele>2015.4</ele>
        <time>2022-08-16T05:51:48Z</time>
      </trkpt>
      <trkpt lat="44.43347" lon="6.88474">
        <ele>2015.6</ele>
        <time>2022-08-16T05:51:49Z</time>
      </trkpt>
      <trkpt lat="44.43349" lon="6.88474">
        <ele>2015.6</ele>
        <time>2022-08-16T05:51:50Z</time>
      </trkpt>
      <trkpt lat="44.4335" lon="6.88475">
        <ele>2015.8</ele>
        <time>2022-08-16T05:51:51Z</time>
      </trkpt>
      <trkpt lat="44.43352" lon="6.88475">
        <ele>2016.2</ele>
        <time>2022-08-16T05:51:52Z</time>
      </trkpt>
      <trkpt lat="44.43355" lon="6.88476">
        <ele>2016.2</ele>
        <time>2022-08-16T05:51:53Z</time>
      </trkpt>
      <trkpt lat="44.43357" lon="6.88477">
        <ele>2016.4</ele>
        <time>2022-08-16T05:51:54Z</time>
      </trkpt>
      <trkpt lat="44.43359" lon="6.88477">
        <ele>2016.6</ele>
        <time>2022-08-16T05:51:55Z</time>
      </trkpt>
      <trkpt lat="44.43361" lon="6.88477">
        <ele>2016.6</ele>
        <time>2022-08-16T05:51:56Z</time>
      </trkpt>
      <trkpt lat="44.43363" lon="6.88477">
        <ele>2016.6</ele>
        <time>2022-08-16T05:51:57Z</time>
      </trkpt>
      <trkpt lat="44.43365" lon="6.88476">
        <ele>2016.6</ele>
        <time>2022-08-16T05:51:58Z</time>
      </trkpt>
      <trkpt lat="44.43366" lon="6.88476">
        <ele>2016.8</ele>
        <time>2022-08-16T05:51:59Z</time>
      </trkpt>
      <trkpt lat="44.43367" lon="6.88475">
        <ele>2017</ele>
        <time>2022-08-16T05:52:00Z</time>
      </trkpt>
      <trkpt lat="44.43369" lon="6.88474">
        <ele>2016.8</ele>
        <time>2022-08-16T05:52:01Z</time>
      </trkpt>
      <trkpt lat="44.4337" lon="6.88473">
        <ele>2016.8</ele>
        <time>2022-08-16T05:52:02Z</time>
      </trkpt>
      <trkpt lat="44.43371" lon="6.88472">
        <ele>2017</ele>
        <time>2022-08-16T05:52:03Z</time>
      </trkpt>
      <trkpt lat="44.43372" lon="6.88472">
        <ele>2017</ele>
        <time>2022-08-16T05:52:04Z</time>
      </trkpt>
      <trkpt lat="44.43374" lon="6.88471">
        <ele>2017</ele>
        <time>2022-08-16T05:52:05Z</time>
      </trkpt>
      <trkpt lat="44.43375" lon="6.8847">
        <ele>2017.2</ele>
        <time>2022-08-16T05:52:06Z</time>
      </trkpt>
      <trkpt lat="44.43376" lon="6.88469">
        <ele>2017.4</ele>
        <time>2022-08-16T05:52:07Z</time>
      </trkpt>
      <trkpt lat="44.43378" lon="6.88469">
        <ele>2017.6</ele>
        <time>2022-08-16T05:52:08Z</time>
      </trkpt>
      <trkpt lat="44.43379" lon="6.88468">
        <ele>2017.8</ele>
        <time>2022-08-16T05:52:09Z</time>
      </trkpt>
      <trkpt lat="44.43381" lon="6.88467">
        <ele>2017.8</ele>
        <time>2022-08-16T05:52:10Z</time>
      </trkpt>
      <trkpt lat="44.43382" lon="6.88467">
        <ele>2018</ele>
        <time>2022-08-16T05:52:11Z</time>
      </trkpt>
      <trkpt lat="44.43383" lon="6.88466">
        <ele>2018.2</ele>
        <time>2022-08-16T05:52:12Z</time>
      </trkpt>
      <trkpt lat="44.43385" lon="6.88465">
        <ele>2018.2</ele>
        <time>2022-08-16T05:52:13Z</time>
      </trkpt>
      <trkpt lat="44.43386" lon="6.88465">
        <ele>2018.4</ele>
        <time>2022-08-16T05:52:14Z</time>
      </trkpt>
      <trkpt lat="44.43388" lon="6.88465">
        <ele>2018.6</ele>
        <time>2022-08-16T05:52:15Z</time>
      </trkpt>
      <trkpt lat="44.43389" lon="6.88464">
        <ele>2018.6</ele>
        <time>2022-08-16T05:52:16Z</time>
      </trkpt>
      <trkpt lat="44.4339" lon="6.88464">
        <ele>2018.8</ele>
        <time>2022-08-16T05:52:17Z</time>
      </trkpt>
      <trkpt lat="44.43392" lon="6.88463">
        <ele>2018.8</ele>
        <time>2022-08-16T05:52:18Z</time>
      </trkpt>
      <trkpt lat="44.43393" lon="6.88463">
        <ele>2019</ele>
        <time>2022-08-16T05:52:19Z</time>
      </trkpt>
      <trkpt lat="44.43394" lon="6.88462">
        <ele>2019</ele>
        <time>2022-08-16T05:52:20Z</time>
      </trkpt>
      <trkpt lat="44.43396" lon="6.88462">
        <ele>2019.2</ele>
        <time>2022-08-16T05:52:21Z</time>
      </trkpt>
      <trkpt lat="44.43397" lon="6.88461">
        <ele>2019.4</ele>
        <time>2022-08-16T05:52:22Z</time>
      </trkpt>
      <trkpt lat="44.43398" lon="6.8846">
        <ele>2019.6</ele>
        <time>2022-08-16T05:52:23Z</time>
      </trkpt>
      <trkpt lat="44.434" lon="6.88459">
        <ele>2020</ele>
        <time>2022-08-16T05:52:24Z</time>
      </trkpt>
      <trkpt lat="44.43401" lon="6.88459">
        <ele>2020.2</ele>
        <time>2022-08-16T05:52:25Z</time>
      </trkpt>
      <trkpt lat="44.43402" lon="6.88458">
        <ele>2020.2</ele>
        <time>2022-08-16T05:52:26Z</time>
      </trkpt>
      <trkpt lat="44.43403" lon="6.88457">
        <ele>2020.4</ele>
        <time>2022-08-16T05:52:27Z</time>
      </trkpt>
      <trkpt lat="44.43405" lon="6.88457">
        <ele>2020.6</ele>
        <time>2022-08-16T05:52:28Z</time>
      </trkpt>
      <trkpt lat="44.43406" lon="6.88456">
        <ele>2020.8</ele>
        <time>2022-08-16T05:52:29Z</time>
      </trkpt>
      <trkpt lat="44.43407" lon="6.88455">
        <ele>2020.8</ele>
        <time>2022-08-16T05:52:30Z</time>
      </trkpt>
      <trkpt lat="44.43408" lon="6.88454">
        <ele>2021</ele>
        <time>2022-08-16T05:52:31Z</time>
      </trkpt>
      <trkpt lat="44.4341" lon="6.88453">
        <ele>2021.2</ele>
        <time>2022-08-16T05:52:32Z</time>
      </trkpt>
      <trkpt lat="44.43411" lon="6.88452">
        <ele>2021.4</ele>
        <time>2022-08-16T05:52:33Z</time>
      </trkpt>
      <trkpt lat="44.43412" lon="6.88451">
        <ele>2021.6</ele>
        <time>2022-08-16T05:52:34Z</time>
      </trkpt>
      <trkpt lat="44.43413" lon="6.88451">
        <ele>2021.6</ele>
        <time>2022-08-16T05:52:35Z</time>
      </trkpt>
      <trkpt lat="44.43415" lon="6.8845">
        <ele>2022</ele>
        <time>2022-08-16T05:52:36Z</time>
      </trkpt>
      <trkpt lat="44.43416" lon="6.88449">
        <ele>2022</ele>
        <time>2022-08-16T05:52:37Z</time>
      </trkpt>
      <trkpt lat="44.43417" lon="6.88448">
        <ele>2022.2</ele>
        <time>2022-08-16T05:52:38Z</time>
      </trkpt>
      <trkpt lat="44.43418" lon="6.88447">
        <ele>2022.4</ele>
        <time>2022-08-16T05:52:39Z</time>
      </trkpt>
      <trkpt lat="44.43419" lon="6.88447">
        <ele>2022.2</ele>
        <time>2022-08-16T05:52:40Z</time>
      </trkpt>
      <trkpt lat="44.4342" lon="6.88445">
        <ele>2022.4</ele>
        <time>2022-08-16T05:52:41Z</time>
      </trkpt>
      <trkpt lat="44.43422" lon="6.88444">
        <ele>2022.4</ele>
        <time>2022-08-16T05:52:42Z</time>
      </trkpt>
      <trkpt lat="44.43423" lon="6.88443">
        <ele>2022.6</ele>
        <time>2022-08-16T05:52:43Z</time>
      </trkpt>
      <trkpt lat="44.43424" lon="6.88441">
        <ele>2022.4</ele>
        <time>2022-08-16T05:52:44Z</time>
      </trkpt>
      <trkpt lat="44.43426" lon="6.8844">
        <ele>2022.6</ele>
        <time>2022-08-16T05:52:45Z</time>
      </trkpt>
      <trkpt lat="44.43427" lon="6.88438">
        <ele>2022.8</ele>
        <time>2022-08-16T05:52:46Z</time>
      </trkpt>
      <trkpt lat="44.43428" lon="6.88437">
        <ele>2023</ele>
        <time>2022-08-16T05:52:47Z</time>
      </trkpt>
      <trkpt lat="44.43429" lon="6.88435">
        <ele>2023</ele>
        <time>2022-08-16T05:52:48Z</time>
      </trkpt>
      <trkpt lat="44.43431" lon="6.88433">
        <ele>2023.2</ele>
        <time>2022-08-16T05:52:49Z</time>
      </trkpt>
      <trkpt lat="44.43432" lon="6.88431">
        <ele>2023.4</ele>
        <time>2022-08-16T05:52:50Z</time>
      </trkpt>
      <trkpt lat="44.43433" lon="6.88429">
        <ele>2023.8</ele>
        <time>2022-08-16T05:52:51Z</time>
      </trkpt>
      <trkpt lat="44.43434" lon="6.88428">
        <ele>2024</ele>
        <time>2022-08-16T05:52:52Z</time>
      </trkpt>
      <trkpt lat="44.43435" lon="6.88427">
        <ele>2024.2</ele>
        <time>2022-08-16T05:52:53Z</time>
      </trkpt>
      <trkpt lat="44.43437" lon="6.88425">
        <ele>2024.6</ele>
        <time>2022-08-16T05:52:54Z</time>
      </trkpt>
      <trkpt lat="44.43438" lon="6.88424">
        <ele>2024.6</ele>
        <time>2022-08-16T05:52:55Z</time>
      </trkpt>
      <trkpt lat="44.4344" lon="6.88424">
        <ele>2025</ele>
        <time>2022-08-16T05:52:56Z</time>
      </trkpt>
      <trkpt lat="44.43442" lon="6.88423">
        <ele>2024.8</ele>
        <time>2022-08-16T05:52:57Z</time>
      </trkpt>
      <trkpt lat="44.43444" lon="6.88422">
        <ele>2025</ele>
        <time>2022-08-16T05:52:58Z</time>
      </trkpt>
      <trkpt lat="44.43446" lon="6.88422">
        <ele>2025</ele>
        <time>2022-08-16T05:52:59Z</time>
      </trkpt>
      <trkpt lat="44.43448" lon="6.88422">
        <ele>2025</ele>
        <time>2022-08-16T05:53:00Z</time>
      </trkpt>
      <trkpt lat="44.43449" lon="6.88422">
        <ele>2025.2</ele>
        <time>2022-08-16T05:53:01Z</time>
      </trkpt>
      <trkpt lat="44.43451" lon="6.88423">
        <ele>2025</ele>
        <time>2022-08-16T05:53:02Z</time>
      </trkpt>
      <trkpt lat="44.43455" lon="6.88423">
        <ele>2025.2</ele>
        <time>2022-08-16T05:53:04Z</time>
      </trkpt>
      <trkpt lat="44.43457" lon="6.88423">
        <ele>2025</ele>
        <time>2022-08-16T05:53:05Z</time>
      </trkpt>
      <trkpt lat="44.43461" lon="6.88422">
        <ele>2025.2</ele>
        <time>2022-08-16T05:53:07Z</time>
      </trkpt>
      <trkpt lat="44.43463" lon="6.88421">
        <ele>2025.2</ele>
        <time>2022-08-16T05:53:08Z</time>
      </trkpt>
      <trkpt lat="44.43465" lon="6.8842">
        <ele>2025.2</ele>
        <time>2022-08-16T05:53:09Z</time>
      </trkpt>
      <trkpt lat="44.43466" lon="6.88418">
        <ele>2025.2</ele>
        <time>2022-08-16T05:53:10Z</time>
      </trkpt>
      <trkpt lat="44.43468" lon="6.88417">
        <ele>2025</ele>
        <time>2022-08-16T05:53:11Z</time>
      </trkpt>
      <trkpt lat="44.43469" lon="6.88416">
        <ele>2025.2</ele>
        <time>2022-08-16T05:53:12Z</time>
      </trkpt>
      <trkpt lat="44.4347" lon="6.88414">
        <ele>2025.4</ele>
        <time>2022-08-16T05:53:13Z</time>
      </trkpt>
      <trkpt lat="44.43472" lon="6.88412">
        <ele>2025.4</ele>
        <time>2022-08-16T05:53:14Z</time>
      </trkpt>
      <trkpt lat="44.43473" lon="6.88411">
        <ele>2025.4</ele>
        <time>2022-08-16T05:53:15Z</time>
      </trkpt>
      <trkpt lat="44.43474" lon="6.88409">
        <ele>2025.6</ele>
        <time>2022-08-16T05:53:16Z</time>
      </trkpt>
      <trkpt lat="44.43475" lon="6.88408">
        <ele>2025.6</ele>
        <time>2022-08-16T05:53:17Z</time>
      </trkpt>
      <trkpt lat="44.43476" lon="6.88407">
        <ele>2025.8</ele>
        <time>2022-08-16T05:53:18Z</time>
      </trkpt>
      <trkpt lat="44.43478" lon="6.88404">
        <ele>2026.2</ele>
        <time>2022-08-16T05:53:20Z</time>
      </trkpt>
      <trkpt lat="44.43479" lon="6.88402">
        <ele>2026.2</ele>
        <time>2022-08-16T05:53:21Z</time>
      </trkpt>
      <trkpt lat="44.43481" lon="6.88401">
        <ele>2026.4</ele>
        <time>2022-08-16T05:53:22Z</time>
      </trkpt>
      <trkpt lat="44.43481" lon="6.88399">
        <ele>2026.6</ele>
        <time>2022-08-16T05:53:23Z</time>
      </trkpt>
      <trkpt lat="44.43482" lon="6.88397">
        <ele>2026.6</ele>
        <time>2022-08-16T05:53:24Z</time>
      </trkpt>
      <trkpt lat="44.43483" lon="6.88394">
        <ele>2027</ele>
        <time>2022-08-16T05:53:25Z</time>
      </trkpt>
      <trkpt lat="44.43484" lon="6.88391">
        <ele>2026.8</ele>
        <time>2022-08-16T05:53:26Z</time>
      </trkpt>
      <trkpt lat="44.43484" lon="6.88389">
        <ele>2027.2</ele>
        <time>2022-08-16T05:53:27Z</time>
      </trkpt>
      <trkpt lat="44.43485" lon="6.88386">
        <ele>2027.2</ele>
        <time>2022-08-16T05:53:28Z</time>
      </trkpt>
      <trkpt lat="44.43486" lon="6.88384">
        <ele>2027.4</ele>
        <time>2022-08-16T05:53:29Z</time>
      </trkpt>
      <trkpt lat="44.43487" lon="6.88382">
        <ele>2027.4</ele>
        <time>2022-08-16T05:53:30Z</time>
      </trkpt>
      <trkpt lat="44.43487" lon="6.8838">
        <ele>2027.4</ele>
        <time>2022-08-16T05:53:31Z</time>
      </trkpt>
      <trkpt lat="44.43488" lon="6.88378">
        <ele>2027.4</ele>
        <time>2022-08-16T05:53:32Z</time>
      </trkpt>
      <trkpt lat="44.43489" lon="6.88376">
        <ele>2027.6</ele>
        <time>2022-08-16T05:53:33Z</time>
      </trkpt>
      <trkpt lat="44.4349" lon="6.88374">
        <ele>2027.6</ele>
        <time>2022-08-16T05:53:34Z</time>
      </trkpt>
      <trkpt lat="44.4349" lon="6.88372">
        <ele>2027.6</ele>
        <time>2022-08-16T05:53:35Z</time>
      </trkpt>
      <trkpt lat="44.43491" lon="6.8837">
        <ele>2027.8</ele>
        <time>2022-08-16T05:53:36Z</time>
      </trkpt>
      <trkpt lat="44.43492" lon="6.88368">
        <ele>2027.8</ele>
        <time>2022-08-16T05:53:37Z</time>
      </trkpt>
      <trkpt lat="44.43492" lon="6.88367">
        <ele>2027.8</ele>
        <time>2022-08-16T05:53:38Z</time>
      </trkpt>
      <trkpt lat="44.43493" lon="6.88365">
        <ele>2027.8</ele>
        <time>2022-08-16T05:53:39Z</time>
      </trkpt>
      <trkpt lat="44.43493" lon="6.88363">
        <ele>2028</ele>
        <time>2022-08-16T05:53:40Z</time>
      </trkpt>
      <trkpt lat="44.43493" lon="6.88361">
        <ele>2028.2</ele>
        <time>2022-08-16T05:53:41Z</time>
      </trkpt>
      <trkpt lat="44.43494" lon="6.88359">
        <ele>2028.6</ele>
        <time>2022-08-16T05:53:42Z</time>
      </trkpt>
      <trkpt lat="44.43494" lon="6.88357">
        <ele>2028.8</ele>
        <time>2022-08-16T05:53:43Z</time>
      </trkpt>
      <trkpt lat="44.43495" lon="6.88355">
        <ele>2029</ele>
        <time>2022-08-16T05:53:44Z</time>
      </trkpt>
      <trkpt lat="44.43495" lon="6.88353">
        <ele>2029.2</ele>
        <time>2022-08-16T05:53:45Z</time>
      </trkpt>
      <trkpt lat="44.43495" lon="6.88351">
        <ele>2029.8</ele>
        <time>2022-08-16T05:53:46Z</time>
      </trkpt>
      <trkpt lat="44.43496" lon="6.8835">
        <ele>2029.8</ele>
        <time>2022-08-16T05:53:47Z</time>
      </trkpt>
      <trkpt lat="44.43497" lon="6.88348">
        <ele>2030.2</ele>
        <time>2022-08-16T05:53:48Z</time>
      </trkpt>
      <trkpt lat="44.43498" lon="6.88346">
        <ele>2030.2</ele>
        <time>2022-08-16T05:53:49Z</time>
      </trkpt>
      <trkpt lat="44.43499" lon="6.88345">
        <ele>2030.6</ele>
        <time>2022-08-16T05:53:50Z</time>
      </trkpt>
      <trkpt lat="44.435" lon="6.88343">
        <ele>2030.6</ele>
        <time>2022-08-16T05:53:51Z</time>
      </trkpt>
      <trkpt lat="44.43502" lon="6.88342">
        <ele>2030.6</ele>
        <time>2022-08-16T05:53:52Z</time>
      </trkpt>
      <trkpt lat="44.43503" lon="6.88341">
        <ele>2030.8</ele>
        <time>2022-08-16T05:53:53Z</time>
      </trkpt>
      <trkpt lat="44.43504" lon="6.8834">
        <ele>2030.8</ele>
        <time>2022-08-16T05:53:54Z</time>
      </trkpt>
      <trkpt lat="44.43505" lon="6.88339">
        <ele>2030.8</ele>
        <time>2022-08-16T05:53:55Z</time>
      </trkpt>
      <trkpt lat="44.43507" lon="6.88337">
        <ele>2030.8</ele>
        <time>2022-08-16T05:53:56Z</time>
      </trkpt>
      <trkpt lat="44.43508" lon="6.88336">
        <ele>2030.8</ele>
        <time>2022-08-16T05:53:57Z</time>
      </trkpt>
      <trkpt lat="44.43509" lon="6.88335">
        <ele>2030.8</ele>
        <time>2022-08-16T05:53:58Z</time>
      </trkpt>
      <trkpt lat="44.4351" lon="6.88334">
        <ele>2031</ele>
        <time>2022-08-16T05:53:59Z</time>
      </trkpt>
      <trkpt lat="44.43511" lon="6.88333">
        <ele>2031</ele>
        <time>2022-08-16T05:54:00Z</time>
      </trkpt>
      <trkpt lat="44.43511" lon="6.88331">
        <ele>2031</ele>
        <time>2022-08-16T05:54:01Z</time>
      </trkpt>
      <trkpt lat="44.43512" lon="6.8833">
        <ele>2031.4</ele>
        <time>2022-08-16T05:54:02Z</time>
      </trkpt>
      <trkpt lat="44.43513" lon="6.88328">
        <ele>2032</ele>
        <time>2022-08-16T05:54:03Z</time>
      </trkpt>
      <trkpt lat="44.43513" lon="6.88327">
        <ele>2032</ele>
        <time>2022-08-16T05:54:04Z</time>
      </trkpt>
      <trkpt lat="44.43513" lon="6.88325">
        <ele>2032.4</ele>
        <time>2022-08-16T05:54:05Z</time>
      </trkpt>
      <trkpt lat="44.43514" lon="6.88323">
        <ele>2032.6</ele>
        <time>2022-08-16T05:54:06Z</time>
      </trkpt>
      <trkpt lat="44.43514" lon="6.88321">
        <ele>2032.6</ele>
        <time>2022-08-16T05:54:07Z</time>
      </trkpt>
      <trkpt lat="44.43515" lon="6.88319">
        <ele>2032.8</ele>
        <time>2022-08-16T05:54:08Z</time>
      </trkpt>
      <trkpt lat="44.43515" lon="6.88317">
        <ele>2033</ele>
        <time>2022-08-16T05:54:09Z</time>
      </trkpt>
      <trkpt lat="44.43515" lon="6.88315">
        <ele>2033.2</ele>
        <time>2022-08-16T05:54:10Z</time>
      </trkpt>
      <trkpt lat="44.43515" lon="6.88313">
        <ele>2033.4</ele>
        <time>2022-08-16T05:54:11Z</time>
      </trkpt>
      <trkpt lat="44.43516" lon="6.88311">
        <ele>2033.6</ele>
        <time>2022-08-16T05:54:12Z</time>
      </trkpt>
      <trkpt lat="44.43516" lon="6.88309">
        <ele>2033.8</ele>
        <time>2022-08-16T05:54:13Z</time>
      </trkpt>
      <trkpt lat="44.43516" lon="6.88308">
        <ele>2034</ele>
        <time>2022-08-16T05:54:14Z</time>
      </trkpt>
      <trkpt lat="44.43517" lon="6.88306">
        <ele>2034</ele>
        <time>2022-08-16T05:54:15Z</time>
      </trkpt>
      <trkpt lat="44.43518" lon="6.88305">
        <ele>2034.2</ele>
        <time>2022-08-16T05:54:16Z</time>
      </trkpt>
      <trkpt lat="44.43518" lon="6.88303">
        <ele>2034.4</ele>
        <time>2022-08-16T05:54:17Z</time>
      </trkpt>
      <trkpt lat="44.43519" lon="6.88302">
        <ele>2034.4</ele>
        <time>2022-08-16T05:54:18Z</time>
      </trkpt>
      <trkpt lat="44.43519" lon="6.883">
        <ele>2034.4</ele>
        <time>2022-08-16T05:54:19Z</time>
      </trkpt>
      <trkpt lat="44.4352" lon="6.88299">
        <ele>2034.6</ele>
        <time>2022-08-16T05:54:20Z</time>
      </trkpt>
      <trkpt lat="44.43521" lon="6.88297">
        <ele>2034.6</ele>
        <time>2022-08-16T05:54:21Z</time>
      </trkpt>
      <trkpt lat="44.43522" lon="6.88296">
        <ele>2034.8</ele>
        <time>2022-08-16T05:54:22Z</time>
      </trkpt>
      <trkpt lat="44.43523" lon="6.88295">
        <ele>2034.8</ele>
        <time>2022-08-16T05:54:23Z</time>
      </trkpt>
      <trkpt lat="44.43524" lon="6.88293">
        <ele>2035</ele>
        <time>2022-08-16T05:54:24Z</time>
      </trkpt>
      <trkpt lat="44.43525" lon="6.88292">
        <ele>2035.2</ele>
        <time>2022-08-16T05:54:25Z</time>
      </trkpt>
      <trkpt lat="44.43526" lon="6.88291">
        <ele>2035.2</ele>
        <time>2022-08-16T05:54:26Z</time>
      </trkpt>
      <trkpt lat="44.43527" lon="6.8829">
        <ele>2035.4</ele>
        <time>2022-08-16T05:54:27Z</time>
      </trkpt>
      <trkpt lat="44.43528" lon="6.8829">
        <ele>2035.6</ele>
        <time>2022-08-16T05:54:28Z</time>
      </trkpt>
      <trkpt lat="44.43529" lon="6.88289">
        <ele>2035.8</ele>
        <time>2022-08-16T05:54:29Z</time>
      </trkpt>
      <trkpt lat="44.43531" lon="6.88288">
        <ele>2035.8</ele>
        <time>2022-08-16T05:54:30Z</time>
      </trkpt>
      <trkpt lat="44.43532" lon="6.88287">
        <ele>2036</ele>
        <time>2022-08-16T05:54:31Z</time>
      </trkpt>
      <trkpt lat="44.43532" lon="6.88286">
        <ele>2036</ele>
        <time>2022-08-16T05:54:32Z</time>
      </trkpt>
      <trkpt lat="44.43534" lon="6.88285">
        <ele>2036.2</ele>
        <time>2022-08-16T05:54:33Z</time>
      </trkpt>
      <trkpt lat="44.43535" lon="6.88285">
        <ele>2036.4</ele>
        <time>2022-08-16T05:54:34Z</time>
      </trkpt>
      <trkpt lat="44.43536" lon="6.88284">
        <ele>2036.8</ele>
        <time>2022-08-16T05:54:35Z</time>
      </trkpt>
      <trkpt lat="44.43537" lon="6.88283">
        <ele>2036.8</ele>
        <time>2022-08-16T05:54:36Z</time>
      </trkpt>
      <trkpt lat="44.43538" lon="6.88282">
        <ele>2037</ele>
        <time>2022-08-16T05:54:37Z</time>
      </trkpt>
      <trkpt lat="44.43539" lon="6.88282">
        <ele>2037.2</ele>
        <time>2022-08-16T05:54:38Z</time>
      </trkpt>
      <trkpt lat="44.4354" lon="6.88281">
        <ele>2037.4</ele>
        <time>2022-08-16T05:54:39Z</time>
      </trkpt>
      <trkpt lat="44.43541" lon="6.8828">
        <ele>2037.4</ele>
        <time>2022-08-16T05:54:40Z</time>
      </trkpt>
      <trkpt lat="44.43542" lon="6.88279">
        <ele>2037.6</ele>
        <time>2022-08-16T05:54:41Z</time>
      </trkpt>
      <trkpt lat="44.43543" lon="6.88278">
        <ele>2037.8</ele>
        <time>2022-08-16T05:54:42Z</time>
      </trkpt>
      <trkpt lat="44.43545" lon="6.88277">
        <ele>2037.8</ele>
        <time>2022-08-16T05:54:43Z</time>
      </trkpt>
      <trkpt lat="44.43546" lon="6.88276">
        <ele>2037.8</ele>
        <time>2022-08-16T05:54:44Z</time>
      </trkpt>
      <trkpt lat="44.43547" lon="6.88275">
        <ele>2038</ele>
        <time>2022-08-16T05:54:45Z</time>
      </trkpt>
      <trkpt lat="44.43548" lon="6.88275">
        <ele>2038</ele>
        <time>2022-08-16T05:54:46Z</time>
      </trkpt>
      <trkpt lat="44.43549" lon="6.88274">
        <ele>2038</ele>
        <time>2022-08-16T05:54:47Z</time>
      </trkpt>
      <trkpt lat="44.4355" lon="6.88273">
        <ele>2038.2</ele>
        <time>2022-08-16T05:54:48Z</time>
      </trkpt>
      <trkpt lat="44.43551" lon="6.88273">
        <ele>2038.4</ele>
        <time>2022-08-16T05:54:49Z</time>
      </trkpt>
      <trkpt lat="44.43552" lon="6.88272">
        <ele>2038.4</ele>
        <time>2022-08-16T05:54:50Z</time>
      </trkpt>
      <trkpt lat="44.43553" lon="6.88271">
        <ele>2038.6</ele>
        <time>2022-08-16T05:54:51Z</time>
      </trkpt>
      <trkpt lat="44.43554" lon="6.8827">
        <ele>2038.6</ele>
        <time>2022-08-16T05:54:52Z</time>
      </trkpt>
      <trkpt lat="44.43555" lon="6.88269">
        <ele>2038.8</ele>
        <time>2022-08-16T05:54:53Z</time>
      </trkpt>
      <trkpt lat="44.43556" lon="6.88268">
        <ele>2038.8</ele>
        <time>2022-08-16T05:54:54Z</time>
      </trkpt>
      <trkpt lat="44.43557" lon="6.88267">
        <ele>2039.2</ele>
        <time>2022-08-16T05:54:55Z</time>
      </trkpt>
      <trkpt lat="44.43558" lon="6.88266">
        <ele>2039.2</ele>
        <time>2022-08-16T05:54:56Z</time>
      </trkpt>
      <trkpt lat="44.4356" lon="6.88265">
        <ele>2039.2</ele>
        <time>2022-08-16T05:54:57Z</time>
      </trkpt>
      <trkpt lat="44.43561" lon="6.88264">
        <ele>2039.4</ele>
        <time>2022-08-16T05:54:58Z</time>
      </trkpt>
      <trkpt lat="44.43562" lon="6.88263">
        <ele>2039.8</ele>
        <time>2022-08-16T05:54:59Z</time>
      </trkpt>
      <trkpt lat="44.43563" lon="6.88262">
        <ele>2039.6</ele>
        <time>2022-08-16T05:55:00Z</time>
      </trkpt>
      <trkpt lat="44.43564" lon="6.88262">
        <ele>2039.8</ele>
        <time>2022-08-16T05:55:01Z</time>
      </trkpt>
      <trkpt lat="44.43565" lon="6.88261">
        <ele>2040</ele>
        <time>2022-08-16T05:55:02Z</time>
      </trkpt>
      <trkpt lat="44.43566" lon="6.88259">
        <ele>2040</ele>
        <time>2022-08-16T05:55:03Z</time>
      </trkpt>
      <trkpt lat="44.43567" lon="6.88258">
        <ele>2040.2</ele>
        <time>2022-08-16T05:55:04Z</time>
      </trkpt>
      <trkpt lat="44.43568" lon="6.88257">
        <ele>2040.2</ele>
        <time>2022-08-16T05:55:05Z</time>
      </trkpt>
      <trkpt lat="44.43569" lon="6.88256">
        <ele>2040.4</ele>
        <time>2022-08-16T05:55:06Z</time>
      </trkpt>
      <trkpt lat="44.4357" lon="6.88254">
        <ele>2040.4</ele>
        <time>2022-08-16T05:55:07Z</time>
      </trkpt>
      <trkpt lat="44.43571" lon="6.88253">
        <ele>2040.6</ele>
        <time>2022-08-16T05:55:08Z</time>
      </trkpt>
      <trkpt lat="44.43572" lon="6.88252">
        <ele>2040.8</ele>
        <time>2022-08-16T05:55:09Z</time>
      </trkpt>
      <trkpt lat="44.43573" lon="6.88251">
        <ele>2041</ele>
        <time>2022-08-16T05:55:10Z</time>
      </trkpt>
      <trkpt lat="44.43574" lon="6.8825">
        <ele>2041</ele>
        <time>2022-08-16T05:55:11Z</time>
      </trkpt>
      <trkpt lat="44.43575" lon="6.88249">
        <ele>2041.2</ele>
        <time>2022-08-16T05:55:12Z</time>
      </trkpt>
      <trkpt lat="44.43576" lon="6.88247">
        <ele>2041.6</ele>
        <time>2022-08-16T05:55:13Z</time>
      </trkpt>
      <trkpt lat="44.43577" lon="6.88246">
        <ele>2041.6</ele>
        <time>2022-08-16T05:55:14Z</time>
      </trkpt>
      <trkpt lat="44.43578" lon="6.88245">
        <ele>2041.6</ele>
        <time>2022-08-16T05:55:15Z</time>
      </trkpt>
      <trkpt lat="44.43579" lon="6.88244">
        <ele>2041.8</ele>
        <time>2022-08-16T05:55:16Z</time>
      </trkpt>
      <trkpt lat="44.4358" lon="6.88243">
        <ele>2042</ele>
        <time>2022-08-16T05:55:17Z</time>
      </trkpt>
      <trkpt lat="44.43581" lon="6.88242">
        <ele>2042.2</ele>
        <time>2022-08-16T05:55:18Z</time>
      </trkpt>
      <trkpt lat="44.43582" lon="6.88241">
        <ele>2042.4</ele>
        <time>2022-08-16T05:55:19Z</time>
      </trkpt>
      <trkpt lat="44.43583" lon="6.8824">
        <ele>2042.6</ele>
        <time>2022-08-16T05:55:20Z</time>
      </trkpt>
      <trkpt lat="44.43584" lon="6.88239">
        <ele>2042.6</ele>
        <time>2022-08-16T05:55:21Z</time>
      </trkpt>
      <trkpt lat="44.43586" lon="6.88238">
        <ele>2042.8</ele>
        <time>2022-08-16T05:55:22Z</time>
      </trkpt>
      <trkpt lat="44.43587" lon="6.88237">
        <ele>2042.8</ele>
        <time>2022-08-16T05:55:23Z</time>
      </trkpt>
      <trkpt lat="44.43588" lon="6.88237">
        <ele>2043</ele>
        <time>2022-08-16T05:55:24Z</time>
      </trkpt>
      <trkpt lat="44.43589" lon="6.88236">
        <ele>2043</ele>
        <time>2022-08-16T05:55:25Z</time>
      </trkpt>
      <trkpt lat="44.4359" lon="6.88235">
        <ele>2043.2</ele>
        <time>2022-08-16T05:55:26Z</time>
      </trkpt>
      <trkpt lat="44.43591" lon="6.88234">
        <ele>2043.2</ele>
        <time>2022-08-16T05:55:27Z</time>
      </trkpt>
      <trkpt lat="44.43592" lon="6.88233">
        <ele>2043.2</ele>
        <time>2022-08-16T05:55:28Z</time>
      </trkpt>
      <trkpt lat="44.43593" lon="6.88232">
        <ele>2043.4</ele>
        <time>2022-08-16T05:55:29Z</time>
      </trkpt>
      <trkpt lat="44.43594" lon="6.88231">
        <ele>2043.6</ele>
        <time>2022-08-16T05:55:30Z</time>
      </trkpt>
      <trkpt lat="44.43595" lon="6.88231">
        <ele>2043.6</ele>
        <time>2022-08-16T05:55:31Z</time>
      </trkpt>
      <trkpt lat="44.43596" lon="6.8823">
        <ele>2043.8</ele>
        <time>2022-08-16T05:55:32Z</time>
      </trkpt>
      <trkpt lat="44.43597" lon="6.88229">
        <ele>2043.6</ele>
        <time>2022-08-16T05:55:33Z</time>
      </trkpt>
      <trkpt lat="44.43599" lon="6.88228">
        <ele>2044</ele>
        <time>2022-08-16T05:55:34Z</time>
      </trkpt>
      <trkpt lat="44.436" lon="6.88228">
        <ele>2044.2</ele>
        <time>2022-08-16T05:55:35Z</time>
      </trkpt>
      <trkpt lat="44.43601" lon="6.88227">
        <ele>2044.2</ele>
        <time>2022-08-16T05:55:36Z</time>
      </trkpt>
      <trkpt lat="44.43602" lon="6.88227">
        <ele>2044.4</ele>
        <time>2022-08-16T05:55:37Z</time>
      </trkpt>
      <trkpt lat="44.43603" lon="6.88226">
        <ele>2044.4</ele>
        <time>2022-08-16T05:55:38Z</time>
      </trkpt>
      <trkpt lat="44.43604" lon="6.88226">
        <ele>2044.8</ele>
        <time>2022-08-16T05:55:39Z</time>
      </trkpt>
      <trkpt lat="44.43605" lon="6.88225">
        <ele>2045</ele>
        <time>2022-08-16T05:55:40Z</time>
      </trkpt>
      <trkpt lat="44.43606" lon="6.88225">
        <ele>2045.2</ele>
        <time>2022-08-16T05:55:41Z</time>
      </trkpt>
      <trkpt lat="44.43608" lon="6.88225">
        <ele>2045.4</ele>
        <time>2022-08-16T05:55:42Z</time>
      </trkpt>
      <trkpt lat="44.43609" lon="6.88225">
        <ele>2045.2</ele>
        <time>2022-08-16T05:55:43Z</time>
      </trkpt>
      <trkpt lat="44.4361" lon="6.88224">
        <ele>2045.6</ele>
        <time>2022-08-16T05:55:44Z</time>
      </trkpt>
      <trkpt lat="44.43611" lon="6.88224">
        <ele>2045.6</ele>
        <time>2022-08-16T05:55:45Z</time>
      </trkpt>
      <trkpt lat="44.43612" lon="6.88223">
        <ele>2045.6</ele>
        <time>2022-08-16T05:55:46Z</time>
      </trkpt>
      <trkpt lat="44.43613" lon="6.88223">
        <ele>2045.8</ele>
        <time>2022-08-16T05:55:47Z</time>
      </trkpt>
      <trkpt lat="44.43614" lon="6.88223">
        <ele>2046</ele>
        <time>2022-08-16T05:55:48Z</time>
      </trkpt>
      <trkpt lat="44.43616" lon="6.88222">
        <ele>2046</ele>
        <time>2022-08-16T05:55:49Z</time>
      </trkpt>
      <trkpt lat="44.43617" lon="6.88222">
        <ele>2046.2</ele>
        <time>2022-08-16T05:55:50Z</time>
      </trkpt>
      <trkpt lat="44.43617" lon="6.88221">
        <ele>2046.6</ele>
        <time>2022-08-16T05:55:51Z</time>
      </trkpt>
      <trkpt lat="44.43618" lon="6.88221">
        <ele>2046.8</ele>
        <time>2022-08-16T05:55:52Z</time>
      </trkpt>
      <trkpt lat="44.43619" lon="6.8822">
        <ele>2047</ele>
        <time>2022-08-16T05:55:53Z</time>
      </trkpt>
      <trkpt lat="44.43621" lon="6.8822">
        <ele>2047</ele>
        <time>2022-08-16T05:55:54Z</time>
      </trkpt>
      <trkpt lat="44.43622" lon="6.8822">
        <ele>2047.2</ele>
        <time>2022-08-16T05:55:55Z</time>
      </trkpt>
      <trkpt lat="44.43623" lon="6.88219">
        <ele>2047.4</ele>
        <time>2022-08-16T05:55:56Z</time>
      </trkpt>
      <trkpt lat="44.43624" lon="6.88218">
        <ele>2047.2</ele>
        <time>2022-08-16T05:55:57Z</time>
      </trkpt>
      <trkpt lat="44.43625" lon="6.88217">
        <ele>2047.4</ele>
        <time>2022-08-16T05:55:58Z</time>
      </trkpt>
      <trkpt lat="44.43626" lon="6.88216">
        <ele>2047.4</ele>
        <time>2022-08-16T05:55:59Z</time>
      </trkpt>
      <trkpt lat="44.43627" lon="6.88215">
        <ele>2047.8</ele>
        <time>2022-08-16T05:56:00Z</time>
      </trkpt>
      <trkpt lat="44.43628" lon="6.88214">
        <ele>2047.8</ele>
        <time>2022-08-16T05:56:01Z</time>
      </trkpt>
      <trkpt lat="44.4363" lon="6.88213">
        <ele>2048</ele>
        <time>2022-08-16T05:56:02Z</time>
      </trkpt>
      <trkpt lat="44.43631" lon="6.88212">
        <ele>2048.2</ele>
        <time>2022-08-16T05:56:03Z</time>
      </trkpt>
      <trkpt lat="44.43632" lon="6.88212">
        <ele>2048.4</ele>
        <time>2022-08-16T05:56:04Z</time>
      </trkpt>
      <trkpt lat="44.43633" lon="6.88211">
        <ele>2048.4</ele>
        <time>2022-08-16T05:56:05Z</time>
      </trkpt>
      <trkpt lat="44.43634" lon="6.88211">
        <ele>2048.4</ele>
        <time>2022-08-16T05:56:06Z</time>
      </trkpt>
      <trkpt lat="44.43636" lon="6.88211">
        <ele>2048.6</ele>
        <time>2022-08-16T05:56:07Z</time>
      </trkpt>
      <trkpt lat="44.43637" lon="6.88211">
        <ele>2048.8</ele>
        <time>2022-08-16T05:56:08Z</time>
      </trkpt>
      <trkpt lat="44.43638" lon="6.88211">
        <ele>2049</ele>
        <time>2022-08-16T05:56:09Z</time>
      </trkpt>
      <trkpt lat="44.4364" lon="6.88211">
        <ele>2049</ele>
        <time>2022-08-16T05:56:10Z</time>
      </trkpt>
      <trkpt lat="44.43641" lon="6.88211">
        <ele>2049.2</ele>
        <time>2022-08-16T05:56:11Z</time>
      </trkpt>
      <trkpt lat="44.43642" lon="6.88211">
        <ele>2049.2</ele>
        <time>2022-08-16T05:56:12Z</time>
      </trkpt>
      <trkpt lat="44.43644" lon="6.88211">
        <ele>2049.4</ele>
        <time>2022-08-16T05:56:13Z</time>
      </trkpt>
      <trkpt lat="44.43645" lon="6.88211">
        <ele>2049.6</ele>
        <time>2022-08-16T05:56:14Z</time>
      </trkpt>
      <trkpt lat="44.43646" lon="6.88212">
        <ele>2049.8</ele>
        <time>2022-08-16T05:56:15Z</time>
      </trkpt>
      <trkpt lat="44.43648" lon="6.88212">
        <ele>2049.8</ele>
        <time>2022-08-16T05:56:16Z</time>
      </trkpt>
      <trkpt lat="44.43649" lon="6.88213">
        <ele>2049.8</ele>
        <time>2022-08-16T05:56:17Z</time>
      </trkpt>
      <trkpt lat="44.4365" lon="6.88214">
        <ele>2050</ele>
        <time>2022-08-16T05:56:18Z</time>
      </trkpt>
      <trkpt lat="44.43652" lon="6.88214">
        <ele>2050.2</ele>
        <time>2022-08-16T05:56:19Z</time>
      </trkpt>
      <trkpt lat="44.43653" lon="6.88214">
        <ele>2050.4</ele>
        <time>2022-08-16T05:56:20Z</time>
      </trkpt>
      <trkpt lat="44.43654" lon="6.88215">
        <ele>2050.4</ele>
        <time>2022-08-16T05:56:21Z</time>
      </trkpt>
      <trkpt lat="44.43655" lon="6.88215">
        <ele>2050.6</ele>
        <time>2022-08-16T05:56:22Z</time>
      </trkpt>
      <trkpt lat="44.43656" lon="6.88215">
        <ele>2050.8</ele>
        <time>2022-08-16T05:56:23Z</time>
      </trkpt>
      <trkpt lat="44.43658" lon="6.88216">
        <ele>2050.8</ele>
        <time>2022-08-16T05:56:24Z</time>
      </trkpt>
      <trkpt lat="44.43659" lon="6.88216">
        <ele>2051</ele>
        <time>2022-08-16T05:56:25Z</time>
      </trkpt>
      <trkpt lat="44.4366" lon="6.88217">
        <ele>2050.8</ele>
        <time>2022-08-16T05:56:26Z</time>
      </trkpt>
      <trkpt lat="44.43662" lon="6.88217">
        <ele>2051.2</ele>
        <time>2022-08-16T05:56:27Z</time>
      </trkpt>
      <trkpt lat="44.43663" lon="6.88218">
        <ele>2051.2</ele>
        <time>2022-08-16T05:56:28Z</time>
      </trkpt>
      <trkpt lat="44.43664" lon="6.88218">
        <ele>2051.4</ele>
        <time>2022-08-16T05:56:29Z</time>
      </trkpt>
      <trkpt lat="44.43666" lon="6.88219">
        <ele>2051.4</ele>
        <time>2022-08-16T05:56:30Z</time>
      </trkpt>
      <trkpt lat="44.43667" lon="6.88219">
        <ele>2051.6</ele>
        <time>2022-08-16T05:56:31Z</time>
      </trkpt>
      <trkpt lat="44.43668" lon="6.8822">
        <ele>2052</ele>
        <time>2022-08-16T05:56:32Z</time>
      </trkpt>
      <trkpt lat="44.4367" lon="6.8822">
        <ele>2052</ele>
        <time>2022-08-16T05:56:33Z</time>
      </trkpt>
      <trkpt lat="44.43671" lon="6.88221">
        <ele>2052</ele>
        <time>2022-08-16T05:56:34Z</time>
      </trkpt>
      <trkpt lat="44.43672" lon="6.88221">
        <ele>2052.4</ele>
        <time>2022-08-16T05:56:35Z</time>
      </trkpt>
      <trkpt lat="44.43673" lon="6.88222">
        <ele>2052.6</ele>
        <time>2022-08-16T05:56:36Z</time>
      </trkpt>
      <trkpt lat="44.43674" lon="6.88222">
        <ele>2052.6</ele>
        <time>2022-08-16T05:56:37Z</time>
      </trkpt>
      <trkpt lat="44.43676" lon="6.88223">
        <ele>2052.6</ele>
        <time>2022-08-16T05:56:38Z</time>
      </trkpt>
      <trkpt lat="44.43677" lon="6.88223">
        <ele>2052.8</ele>
        <time>2022-08-16T05:56:39Z</time>
      </trkpt>
      <trkpt lat="44.43678" lon="6.88224">
        <ele>2052.8</ele>
        <time>2022-08-16T05:56:40Z</time>
      </trkpt>
      <trkpt lat="44.43679" lon="6.88224">
        <ele>2053</ele>
        <time>2022-08-16T05:56:41Z</time>
      </trkpt>
      <trkpt lat="44.43681" lon="6.88224">
        <ele>2053.4</ele>
        <time>2022-08-16T05:56:42Z</time>
      </trkpt>
      <trkpt lat="44.43682" lon="6.88225">
        <ele>2053.6</ele>
        <time>2022-08-16T05:56:43Z</time>
      </trkpt>
      <trkpt lat="44.43683" lon="6.88225">
        <ele>2053.4</ele>
        <time>2022-08-16T05:56:44Z</time>
      </trkpt>
      <trkpt lat="44.43684" lon="6.88224">
        <ele>2053.6</ele>
        <time>2022-08-16T05:56:45Z</time>
      </trkpt>
      <trkpt lat="44.43686" lon="6.88224">
        <ele>2053.8</ele>
        <time>2022-08-16T05:56:46Z</time>
      </trkpt>
      <trkpt lat="44.43687" lon="6.88223">
        <ele>2054</ele>
        <time>2022-08-16T05:56:47Z</time>
      </trkpt>
      <trkpt lat="44.43688" lon="6.88222">
        <ele>2054.2</ele>
        <time>2022-08-16T05:56:48Z</time>
      </trkpt>
      <trkpt lat="44.4369" lon="6.88221">
        <ele>2054.4</ele>
        <time>2022-08-16T05:56:49Z</time>
      </trkpt>
      <trkpt lat="44.43691" lon="6.8822">
        <ele>2054.6</ele>
        <time>2022-08-16T05:56:50Z</time>
      </trkpt>
      <trkpt lat="44.43692" lon="6.88219">
        <ele>2054.8</ele>
        <time>2022-08-16T05:56:51Z</time>
      </trkpt>
      <trkpt lat="44.43693" lon="6.88218">
        <ele>2055.2</ele>
        <time>2022-08-16T05:56:52Z</time>
      </trkpt>
      <trkpt lat="44.43694" lon="6.88217">
        <ele>2055.4</ele>
        <time>2022-08-16T05:56:53Z</time>
      </trkpt>
      <trkpt lat="44.43695" lon="6.88217">
        <ele>2055.4</ele>
        <time>2022-08-16T05:56:54Z</time>
      </trkpt>
      <trkpt lat="44.43696" lon="6.88216">
        <ele>2055.8</ele>
        <time>2022-08-16T05:56:55Z</time>
      </trkpt>
      <trkpt lat="44.43697" lon="6.88215">
        <ele>2056</ele>
        <time>2022-08-16T05:56:56Z</time>
      </trkpt>
      <trkpt lat="44.43699" lon="6.88214">
        <ele>2056</ele>
        <time>2022-08-16T05:56:57Z</time>
      </trkpt>
      <trkpt lat="44.437" lon="6.88213">
        <ele>2056.4</ele>
        <time>2022-08-16T05:56:58Z</time>
      </trkpt>
      <trkpt lat="44.43701" lon="6.88212">
        <ele>2056.4</ele>
        <time>2022-08-16T05:56:59Z</time>
      </trkpt>
      <trkpt lat="44.43702" lon="6.88212">
        <ele>2056.6</ele>
        <time>2022-08-16T05:57:00Z</time>
      </trkpt>
      <trkpt lat="44.43703" lon="6.88211">
        <ele>2056.6</ele>
        <time>2022-08-16T05:57:01Z</time>
      </trkpt>
      <trkpt lat="44.43705" lon="6.88211">
        <ele>2056.8</ele>
        <time>2022-08-16T05:57:02Z</time>
      </trkpt>
      <trkpt lat="44.43706" lon="6.8821">
        <ele>2056.8</ele>
        <time>2022-08-16T05:57:03Z</time>
      </trkpt>
      <trkpt lat="44.43707" lon="6.8821">
        <ele>2057</ele>
        <time>2022-08-16T05:57:04Z</time>
      </trkpt>
      <trkpt lat="44.43708" lon="6.88209">
        <ele>2056.8</ele>
        <time>2022-08-16T05:57:05Z</time>
      </trkpt>
      <trkpt lat="44.4371" lon="6.88209">
        <ele>2057</ele>
        <time>2022-08-16T05:57:06Z</time>
      </trkpt>
      <trkpt lat="44.43711" lon="6.88209">
        <ele>2057.2</ele>
        <time>2022-08-16T05:57:07Z</time>
      </trkpt>
      <trkpt lat="44.43712" lon="6.88209">
        <ele>2057.6</ele>
        <time>2022-08-16T05:57:08Z</time>
      </trkpt>
      <trkpt lat="44.43713" lon="6.88208">
        <ele>2057.8</ele>
        <time>2022-08-16T05:57:09Z</time>
      </trkpt>
      <trkpt lat="44.43714" lon="6.88208">
        <ele>2057.8</ele>
        <time>2022-08-16T05:57:10Z</time>
      </trkpt>
      <trkpt lat="44.43716" lon="6.88208">
        <ele>2057.8</ele>
        <time>2022-08-16T05:57:11Z</time>
      </trkpt>
      <trkpt lat="44.43717" lon="6.88208">
        <ele>2058.2</ele>
        <time>2022-08-16T05:57:12Z</time>
      </trkpt>
      <trkpt lat="44.43718" lon="6.88208">
        <ele>2058.2</ele>
        <time>2022-08-16T05:57:13Z</time>
      </trkpt>
      <trkpt lat="44.43719" lon="6.88207">
        <ele>2058.2</ele>
        <time>2022-08-16T05:57:14Z</time>
      </trkpt>
      <trkpt lat="44.43721" lon="6.88207">
        <ele>2058.4</ele>
        <time>2022-08-16T05:57:15Z</time>
      </trkpt>
      <trkpt lat="44.43722" lon="6.88207">
        <ele>2058.6</ele>
        <time>2022-08-16T05:57:16Z</time>
      </trkpt>
      <trkpt lat="44.43723" lon="6.88207">
        <ele>2058.6</ele>
        <time>2022-08-16T05:57:17Z</time>
      </trkpt>
      <trkpt lat="44.43724" lon="6.88207">
        <ele>2058.8</ele>
        <time>2022-08-16T05:57:18Z</time>
      </trkpt>
      <trkpt lat="44.43726" lon="6.88206">
        <ele>2059</ele>
        <time>2022-08-16T05:57:19Z</time>
      </trkpt>
      <trkpt lat="44.43727" lon="6.88206">
        <ele>2059.2</ele>
        <time>2022-08-16T05:57:20Z</time>
      </trkpt>
      <trkpt lat="44.43728" lon="6.88206">
        <ele>2059.4</ele>
        <time>2022-08-16T05:57:21Z</time>
      </trkpt>
      <trkpt lat="44.43729" lon="6.88206">
        <ele>2059.6</ele>
        <time>2022-08-16T05:57:22Z</time>
      </trkpt>
      <trkpt lat="44.43731" lon="6.88206">
        <ele>2059.8</ele>
        <time>2022-08-16T05:57:23Z</time>
      </trkpt>
      <trkpt lat="44.43732" lon="6.88207">
        <ele>2059.8</ele>
        <time>2022-08-16T05:57:24Z</time>
      </trkpt>
      <trkpt lat="44.43733" lon="6.88207">
        <ele>2059.8</ele>
        <time>2022-08-16T05:57:25Z</time>
      </trkpt>
      <trkpt lat="44.43734" lon="6.88206">
        <ele>2059.8</ele>
        <time>2022-08-16T05:57:26Z</time>
      </trkpt>
      <trkpt lat="44.43735" lon="6.88206">
        <ele>2060</ele>
        <time>2022-08-16T05:57:27Z</time>
      </trkpt>
      <trkpt lat="44.43737" lon="6.88206">
        <ele>2060.2</ele>
        <time>2022-08-16T05:57:28Z</time>
      </trkpt>
      <trkpt lat="44.43738" lon="6.88206">
        <ele>2060.4</ele>
        <time>2022-08-16T05:57:29Z</time>
      </trkpt>
      <trkpt lat="44.43739" lon="6.88206">
        <ele>2060.4</ele>
        <time>2022-08-16T05:57:30Z</time>
      </trkpt>
      <trkpt lat="44.43741" lon="6.88206">
        <ele>2060.6</ele>
        <time>2022-08-16T05:57:31Z</time>
      </trkpt>
      <trkpt lat="44.43742" lon="6.88206">
        <ele>2060.6</ele>
        <time>2022-08-16T05:57:32Z</time>
      </trkpt>
      <trkpt lat="44.43743" lon="6.88205">
        <ele>2060.8</ele>
        <time>2022-08-16T05:57:33Z</time>
      </trkpt>
      <trkpt lat="44.43744" lon="6.88205">
        <ele>2061</ele>
        <time>2022-08-16T05:57:34Z</time>
      </trkpt>
      <trkpt lat="44.43746" lon="6.88205">
        <ele>2061.2</ele>
        <time>2022-08-16T05:57:35Z</time>
      </trkpt>
      <trkpt lat="44.43747" lon="6.88204">
        <ele>2061.4</ele>
        <time>2022-08-16T05:57:36Z</time>
      </trkpt>
      <trkpt lat="44.43748" lon="6.88204">
        <ele>2061.4</ele>
        <time>2022-08-16T05:57:37Z</time>
      </trkpt>
      <trkpt lat="44.43749" lon="6.88203">
        <ele>2061.4</ele>
        <time>2022-08-16T05:57:38Z</time>
      </trkpt>
      <trkpt lat="44.43751" lon="6.88202">
        <ele>2061.4</ele>
        <time>2022-08-16T05:57:39Z</time>
      </trkpt>
      <trkpt lat="44.43752" lon="6.88202">
        <ele>2061.6</ele>
        <time>2022-08-16T05:57:40Z</time>
      </trkpt>
      <trkpt lat="44.43753" lon="6.88201">
        <ele>2061.8</ele>
        <time>2022-08-16T05:57:41Z</time>
      </trkpt>
      <trkpt lat="44.43754" lon="6.882">
        <ele>2062.2</ele>
        <time>2022-08-16T05:57:42Z</time>
      </trkpt>
      <trkpt lat="44.43755" lon="6.882">
        <ele>2062.2</ele>
        <time>2022-08-16T05:57:43Z</time>
      </trkpt>
      <trkpt lat="44.43757" lon="6.88199">
        <ele>2062.4</ele>
        <time>2022-08-16T05:57:44Z</time>
      </trkpt>
      <trkpt lat="44.43758" lon="6.88198">
        <ele>2062.6</ele>
        <time>2022-08-16T05:57:45Z</time>
      </trkpt>
      <trkpt lat="44.43759" lon="6.88197">
        <ele>2062.6</ele>
        <time>2022-08-16T05:57:46Z</time>
      </trkpt>
      <trkpt lat="44.4376" lon="6.88196">
        <ele>2062.8</ele>
        <time>2022-08-16T05:57:47Z</time>
      </trkpt>
      <trkpt lat="44.43761" lon="6.88195">
        <ele>2063</ele>
        <time>2022-08-16T05:57:48Z</time>
      </trkpt>
      <trkpt lat="44.43763" lon="6.88195">
        <ele>2063</ele>
        <time>2022-08-16T05:57:49Z</time>
      </trkpt>
      <trkpt lat="44.43764" lon="6.88194">
        <ele>2063</ele>
        <time>2022-08-16T05:57:50Z</time>
      </trkpt>
      <trkpt lat="44.43765" lon="6.88194">
        <ele>2063.2</ele>
        <time>2022-08-16T05:57:51Z</time>
      </trkpt>
      <trkpt lat="44.43766" lon="6.88193">
        <ele>2063.6</ele>
        <time>2022-08-16T05:57:52Z</time>
      </trkpt>
      <trkpt lat="44.43768" lon="6.88192">
        <ele>2063.6</ele>
        <time>2022-08-16T05:57:53Z</time>
      </trkpt>
      <trkpt lat="44.43769" lon="6.88191">
        <ele>2063.8</ele>
        <time>2022-08-16T05:57:54Z</time>
      </trkpt>
      <trkpt lat="44.4377" lon="6.88191">
        <ele>2063.8</ele>
        <time>2022-08-16T05:57:55Z</time>
      </trkpt>
      <trkpt lat="44.43771" lon="6.88191">
        <ele>2064.2</ele>
        <time>2022-08-16T05:57:56Z</time>
      </trkpt>
      <trkpt lat="44.43772" lon="6.8819">
        <ele>2064.2</ele>
        <time>2022-08-16T05:57:57Z</time>
      </trkpt>
      <trkpt lat="44.43773" lon="6.88189">
        <ele>2064.4</ele>
        <time>2022-08-16T05:57:58Z</time>
      </trkpt>
      <trkpt lat="44.43775" lon="6.88188">
        <ele>2064.6</ele>
        <time>2022-08-16T05:57:59Z</time>
      </trkpt>
      <trkpt lat="44.43776" lon="6.88188">
        <ele>2064.6</ele>
        <time>2022-08-16T05:58:00Z</time>
      </trkpt>
      <trkpt lat="44.43777" lon="6.88187">
        <ele>2064.8</ele>
        <time>2022-08-16T05:58:01Z</time>
      </trkpt>
      <trkpt lat="44.43779" lon="6.88187">
        <ele>2064.8</ele>
        <time>2022-08-16T05:58:02Z</time>
      </trkpt>
      <trkpt lat="44.4378" lon="6.88186">
        <ele>2064.8</ele>
        <time>2022-08-16T05:58:03Z</time>
      </trkpt>
      <trkpt lat="44.43781" lon="6.88186">
        <ele>2065</ele>
        <time>2022-08-16T05:58:04Z</time>
      </trkpt>
      <trkpt lat="44.43782" lon="6.88185">
        <ele>2065</ele>
        <time>2022-08-16T05:58:05Z</time>
      </trkpt>
      <trkpt lat="44.43783" lon="6.88184">
        <ele>2065.2</ele>
        <time>2022-08-16T05:58:06Z</time>
      </trkpt>
      <trkpt lat="44.43784" lon="6.88183">
        <ele>2065.2</ele>
        <time>2022-08-16T05:58:07Z</time>
      </trkpt>
      <trkpt lat="44.43786" lon="6.88183">
        <ele>2065.4</ele>
        <time>2022-08-16T05:58:08Z</time>
      </trkpt>
      <trkpt lat="44.43787" lon="6.88182">
        <ele>2065.6</ele>
        <time>2022-08-16T05:58:09Z</time>
      </trkpt>
      <trkpt lat="44.43788" lon="6.88181">
        <ele>2065.6</ele>
        <time>2022-08-16T05:58:10Z</time>
      </trkpt>
      <trkpt lat="44.43789" lon="6.8818">
        <ele>2065.8</ele>
        <time>2022-08-16T05:58:11Z</time>
      </trkpt>
      <trkpt lat="44.43789" lon="6.88179">
        <ele>2065.8</ele>
        <time>2022-08-16T05:58:12Z</time>
      </trkpt>
      <trkpt lat="44.4379" lon="6.88178">
        <ele>2066</ele>
        <time>2022-08-16T05:58:13Z</time>
      </trkpt>
      <trkpt lat="44.43791" lon="6.88176">
        <ele>2066</ele>
        <time>2022-08-16T05:58:14Z</time>
      </trkpt>
      <trkpt lat="44.43791" lon="6.88175">
        <ele>2066.4</ele>
        <time>2022-08-16T05:58:15Z</time>
      </trkpt>
      <trkpt lat="44.43792" lon="6.88174">
        <ele>2066.6</ele>
        <time>2022-08-16T05:58:16Z</time>
      </trkpt>
      <trkpt lat="44.43793" lon="6.88172">
        <ele>2066.6</ele>
        <time>2022-08-16T05:58:17Z</time>
      </trkpt>
      <trkpt lat="44.43793" lon="6.88171">
        <ele>2066.8</ele>
        <time>2022-08-16T05:58:18Z</time>
      </trkpt>
      <trkpt lat="44.43794" lon="6.88169">
        <ele>2067</ele>
        <time>2022-08-16T05:58:19Z</time>
      </trkpt>
      <trkpt lat="44.43794" lon="6.88168">
        <ele>2067.2</ele>
        <time>2022-08-16T05:58:20Z</time>
      </trkpt>
      <trkpt lat="44.43795" lon="6.88166">
        <ele>2067.4</ele>
        <time>2022-08-16T05:58:21Z</time>
      </trkpt>
      <trkpt lat="44.43796" lon="6.88164">
        <ele>2067.6</ele>
        <time>2022-08-16T05:58:22Z</time>
      </trkpt>
      <trkpt lat="44.43797" lon="6.88163">
        <ele>2067.6</ele>
        <time>2022-08-16T05:58:23Z</time>
      </trkpt>
      <trkpt lat="44.43798" lon="6.88161">
        <ele>2067.6</ele>
        <time>2022-08-16T05:58:24Z</time>
      </trkpt>
      <trkpt lat="44.43798" lon="6.88159">
        <ele>2068</ele>
        <time>2022-08-16T05:58:25Z</time>
      </trkpt>
      <trkpt lat="44.43799" lon="6.88158">
        <ele>2068.2</ele>
        <time>2022-08-16T05:58:26Z</time>
      </trkpt>
      <trkpt lat="44.438" lon="6.88156">
        <ele>2068.4</ele>
        <time>2022-08-16T05:58:27Z</time>
      </trkpt>
      <trkpt lat="44.43801" lon="6.88155">
        <ele>2068.4</ele>
        <time>2022-08-16T05:58:28Z</time>
      </trkpt>
      <trkpt lat="44.43801" lon="6.88153">
        <ele>2068.6</ele>
        <time>2022-08-16T05:58:29Z</time>
      </trkpt>
      <trkpt lat="44.43802" lon="6.88152">
        <ele>2068.8</ele>
        <time>2022-08-16T05:58:30Z</time>
      </trkpt>
      <trkpt lat="44.43803" lon="6.8815">
        <ele>2068.8</ele>
        <time>2022-08-16T05:58:31Z</time>
      </trkpt>
      <trkpt lat="44.43804" lon="6.88149">
        <ele>2069</ele>
        <time>2022-08-16T05:58:32Z</time>
      </trkpt>
      <trkpt lat="44.43805" lon="6.88147">
        <ele>2069</ele>
        <time>2022-08-16T05:58:33Z</time>
      </trkpt>
      <trkpt lat="44.43805" lon="6.88146">
        <ele>2069</ele>
        <time>2022-08-16T05:58:34Z</time>
      </trkpt>
      <trkpt lat="44.43806" lon="6.88145">
        <ele>2069.2</ele>
        <time>2022-08-16T05:58:35Z</time>
      </trkpt>
      <trkpt lat="44.43807" lon="6.88143">
        <ele>2069.2</ele>
        <time>2022-08-16T05:58:36Z</time>
      </trkpt>
      <trkpt lat="44.43808" lon="6.88142">
        <ele>2069.2</ele>
        <time>2022-08-16T05:58:37Z</time>
      </trkpt>
      <trkpt lat="44.43809" lon="6.8814">
        <ele>2069.2</ele>
        <time>2022-08-16T05:58:38Z</time>
      </trkpt>
      <trkpt lat="44.4381" lon="6.88139">
        <ele>2069.4</ele>
        <time>2022-08-16T05:58:39Z</time>
      </trkpt>
      <trkpt lat="44.43811" lon="6.88138">
        <ele>2069.6</ele>
        <time>2022-08-16T05:58:40Z</time>
      </trkpt>
      <trkpt lat="44.43812" lon="6.88136">
        <ele>2069.8</ele>
        <time>2022-08-16T05:58:41Z</time>
      </trkpt>
      <trkpt lat="44.43813" lon="6.88135">
        <ele>2070</ele>
        <time>2022-08-16T05:58:42Z</time>
      </trkpt>
      <trkpt lat="44.43814" lon="6.88134">
        <ele>2070.4</ele>
        <time>2022-08-16T05:58:43Z</time>
      </trkpt>
      <trkpt lat="44.43815" lon="6.88132">
        <ele>2070.6</ele>
        <time>2022-08-16T05:58:44Z</time>
      </trkpt>
      <trkpt lat="44.43816" lon="6.88131">
        <ele>2070.6</ele>
        <time>2022-08-16T05:58:45Z</time>
      </trkpt>
      <trkpt lat="44.43817" lon="6.88129">
        <ele>2070.8</ele>
        <time>2022-08-16T05:58:46Z</time>
      </trkpt>
      <trkpt lat="44.43818" lon="6.88128">
        <ele>2071</ele>
        <time>2022-08-16T05:58:47Z</time>
      </trkpt>
      <trkpt lat="44.43819" lon="6.88127">
        <ele>2071.2</ele>
        <time>2022-08-16T05:58:48Z</time>
      </trkpt>
      <trkpt lat="44.4382" lon="6.88126">
        <ele>2071.2</ele>
        <time>2022-08-16T05:58:49Z</time>
      </trkpt>
      <trkpt lat="44.43821" lon="6.88125">
        <ele>2071.4</ele>
        <time>2022-08-16T05:58:50Z</time>
      </trkpt>
      <trkpt lat="44.43822" lon="6.88124">
        <ele>2071.2</ele>
        <time>2022-08-16T05:58:51Z</time>
      </trkpt>
      <trkpt lat="44.43823" lon="6.88123">
        <ele>2071.4</ele>
        <time>2022-08-16T05:58:52Z</time>
      </trkpt>
      <trkpt lat="44.43824" lon="6.88122">
        <ele>2071.4</ele>
        <time>2022-08-16T05:58:53Z</time>
      </trkpt>
      <trkpt lat="44.43825" lon="6.88121">
        <ele>2071.4</ele>
        <time>2022-08-16T05:58:54Z</time>
      </trkpt>
      <trkpt lat="44.43826" lon="6.8812">
        <ele>2071.6</ele>
        <time>2022-08-16T05:58:55Z</time>
      </trkpt>
      <trkpt lat="44.43827" lon="6.88119">
        <ele>2071.8</ele>
        <time>2022-08-16T05:58:56Z</time>
      </trkpt>
      <trkpt lat="44.43828" lon="6.88119">
        <ele>2072.2</ele>
        <time>2022-08-16T05:58:57Z</time>
      </trkpt>
      <trkpt lat="44.43829" lon="6.88118">
        <ele>2072</ele>
        <time>2022-08-16T05:58:58Z</time>
      </trkpt>
      <trkpt lat="44.43831" lon="6.88117">
        <ele>2072.2</ele>
        <time>2022-08-16T05:58:59Z</time>
      </trkpt>
      <trkpt lat="44.43832" lon="6.88117">
        <ele>2072.2</ele>
        <time>2022-08-16T05:59:00Z</time>
      </trkpt>
      <trkpt lat="44.43833" lon="6.88116">
        <ele>2072.4</ele>
        <time>2022-08-16T05:59:01Z</time>
      </trkpt>
      <trkpt lat="44.43834" lon="6.88115">
        <ele>2072.4</ele>
        <time>2022-08-16T05:59:02Z</time>
      </trkpt>
      <trkpt lat="44.43835" lon="6.88115">
        <ele>2072.4</ele>
        <time>2022-08-16T05:59:03Z</time>
      </trkpt>
      <trkpt lat="44.43837" lon="6.88115">
        <ele>2072.8</ele>
        <time>2022-08-16T05:59:04Z</time>
      </trkpt>
      <trkpt lat="44.43838" lon="6.88114">
        <ele>2072.8</ele>
        <time>2022-08-16T05:59:05Z</time>
      </trkpt>
      <trkpt lat="44.43839" lon="6.88114">
        <ele>2073</ele>
        <time>2022-08-16T05:59:06Z</time>
      </trkpt>
      <trkpt lat="44.4384" lon="6.88114">
        <ele>2073</ele>
        <time>2022-08-16T05:59:07Z</time>
      </trkpt>
      <trkpt lat="44.43842" lon="6.88113">
        <ele>2073.2</ele>
        <time>2022-08-16T05:59:08Z</time>
      </trkpt>
      <trkpt lat="44.43843" lon="6.88113">
        <ele>2073.2</ele>
        <time>2022-08-16T05:59:09Z</time>
      </trkpt>
      <trkpt lat="44.43844" lon="6.88113">
        <ele>2073.4</ele>
        <time>2022-08-16T05:59:10Z</time>
      </trkpt>
      <trkpt lat="44.43846" lon="6.88113">
        <ele>2073.4</ele>
        <time>2022-08-16T05:59:11Z</time>
      </trkpt>
      <trkpt lat="44.43847" lon="6.88113">
        <ele>2073.4</ele>
        <time>2022-08-16T05:59:12Z</time>
      </trkpt>
      <trkpt lat="44.43848" lon="6.88112">
        <ele>2073.6</ele>
        <time>2022-08-16T05:59:13Z</time>
      </trkpt>
      <trkpt lat="44.4385" lon="6.88112">
        <ele>2073.8</ele>
        <time>2022-08-16T05:59:14Z</time>
      </trkpt>
      <trkpt lat="44.43851" lon="6.88112">
        <ele>2074</ele>
        <time>2022-08-16T05:59:15Z</time>
      </trkpt>
      <trkpt lat="44.43852" lon="6.88111">
        <ele>2074</ele>
        <time>2022-08-16T05:59:16Z</time>
      </trkpt>
      <trkpt lat="44.43853" lon="6.88111">
        <ele>2074.2</ele>
        <time>2022-08-16T05:59:17Z</time>
      </trkpt>
      <trkpt lat="44.43855" lon="6.88111">
        <ele>2074.4</ele>
        <time>2022-08-16T05:59:18Z</time>
      </trkpt>
      <trkpt lat="44.43856" lon="6.8811">
        <ele>2074.4</ele>
        <time>2022-08-16T05:59:19Z</time>
      </trkpt>
      <trkpt lat="44.43857" lon="6.8811">
        <ele>2074.8</ele>
        <time>2022-08-16T05:59:20Z</time>
      </trkpt>
      <trkpt lat="44.43858" lon="6.8811">
        <ele>2074.8</ele>
        <time>2022-08-16T05:59:21Z</time>
      </trkpt>
      <trkpt lat="44.4386" lon="6.88109">
        <ele>2075</ele>
        <time>2022-08-16T05:59:22Z</time>
      </trkpt>
      <trkpt lat="44.43861" lon="6.88109">
        <ele>2075</ele>
        <time>2022-08-16T05:59:23Z</time>
      </trkpt>
      <trkpt lat="44.43862" lon="6.88109">
        <ele>2075</ele>
        <time>2022-08-16T05:59:24Z</time>
      </trkpt>
      <trkpt lat="44.43863" lon="6.88108">
        <ele>2075.2</ele>
        <time>2022-08-16T05:59:25Z</time>
      </trkpt>
      <trkpt lat="44.43865" lon="6.88108">
        <ele>2075.4</ele>
        <time>2022-08-16T05:59:26Z</time>
      </trkpt>
      <trkpt lat="44.43866" lon="6.88108">
        <ele>2075.4</ele>
        <time>2022-08-16T05:59:27Z</time>
      </trkpt>
      <trkpt lat="44.43867" lon="6.88107">
        <ele>2075.6</ele>
        <time>2022-08-16T05:59:28Z</time>
      </trkpt>
      <trkpt lat="44.43869" lon="6.88107">
        <ele>2075.8</ele>
        <time>2022-08-16T05:59:29Z</time>
      </trkpt>
      <trkpt lat="44.4387" lon="6.88106">
        <ele>2075.8</ele>
        <time>2022-08-16T05:59:30Z</time>
      </trkpt>
      <trkpt lat="44.43871" lon="6.88105">
        <ele>2076</ele>
        <time>2022-08-16T05:59:31Z</time>
      </trkpt>
      <trkpt lat="44.43872" lon="6.88105">
        <ele>2076</ele>
        <time>2022-08-16T05:59:32Z</time>
      </trkpt>
      <trkpt lat="44.43873" lon="6.88104">
        <ele>2076.2</ele>
        <time>2022-08-16T05:59:33Z</time>
      </trkpt>
      <trkpt lat="44.43874" lon="6.88103">
        <ele>2076.4</ele>
        <time>2022-08-16T05:59:34Z</time>
      </trkpt>
      <trkpt lat="44.43876" lon="6.88103">
        <ele>2076.6</ele>
        <time>2022-08-16T05:59:35Z</time>
      </trkpt>
      <trkpt lat="44.43877" lon="6.88102">
        <ele>2076.8</ele>
        <time>2022-08-16T05:59:36Z</time>
      </trkpt>
      <trkpt lat="44.43878" lon="6.88101">
        <ele>2076.8</ele>
        <time>2022-08-16T05:59:37Z</time>
      </trkpt>
      <trkpt lat="44.43879" lon="6.881">
        <ele>2077</ele>
        <time>2022-08-16T05:59:38Z</time>
      </trkpt>
      <trkpt lat="44.4388" lon="6.88099">
        <ele>2077.2</ele>
        <time>2022-08-16T05:59:39Z</time>
      </trkpt>
      <trkpt lat="44.43881" lon="6.88098">
        <ele>2077.2</ele>
        <time>2022-08-16T05:59:40Z</time>
      </trkpt>
      <trkpt lat="44.43882" lon="6.88097">
        <ele>2077.4</ele>
        <time>2022-08-16T05:59:41Z</time>
      </trkpt>
      <trkpt lat="44.43883" lon="6.88096">
        <ele>2077.6</ele>
        <time>2022-08-16T05:59:42Z</time>
      </trkpt>
      <trkpt lat="44.43884" lon="6.88095">
        <ele>2077.8</ele>
        <time>2022-08-16T05:59:43Z</time>
      </trkpt>
      <trkpt lat="44.43886" lon="6.88095">
        <ele>2077.8</ele>
        <time>2022-08-16T05:59:44Z</time>
      </trkpt>
      <trkpt lat="44.43887" lon="6.88094">
        <ele>2078</ele>
        <time>2022-08-16T05:59:45Z</time>
      </trkpt>
      <trkpt lat="44.43888" lon="6.88093">
        <ele>2078</ele>
        <time>2022-08-16T05:59:46Z</time>
      </trkpt>
      <trkpt lat="44.43889" lon="6.88092">
        <ele>2078</ele>
        <time>2022-08-16T05:59:47Z</time>
      </trkpt>
      <trkpt lat="44.4389" lon="6.88091">
        <ele>2078.2</ele>
        <time>2022-08-16T05:59:48Z</time>
      </trkpt>
      <trkpt lat="44.43891" lon="6.8809">
        <ele>2078.4</ele>
        <time>2022-08-16T05:59:49Z</time>
      </trkpt>
      <trkpt lat="44.43892" lon="6.88089">
        <ele>2078.6</ele>
        <time>2022-08-16T05:59:50Z</time>
      </trkpt>
      <trkpt lat="44.43894" lon="6.88089">
        <ele>2078.8</ele>
        <time>2022-08-16T05:59:51Z</time>
      </trkpt>
      <trkpt lat="44.43895" lon="6.88088">
        <ele>2078.8</ele>
        <time>2022-08-16T05:59:52Z</time>
      </trkpt>
      <trkpt lat="44.43896" lon="6.88087">
        <ele>2079</ele>
        <time>2022-08-16T05:59:53Z</time>
      </trkpt>
      <trkpt lat="44.43897" lon="6.88087">
        <ele>2079</ele>
        <time>2022-08-16T05:59:54Z</time>
      </trkpt>
      <trkpt lat="44.43898" lon="6.88086">
        <ele>2079.2</ele>
        <time>2022-08-16T05:59:55Z</time>
      </trkpt>
      <trkpt lat="44.43899" lon="6.88085">
        <ele>2079.2</ele>
        <time>2022-08-16T05:59:56Z</time>
      </trkpt>
      <trkpt lat="44.43901" lon="6.88084">
        <ele>2079.4</ele>
        <time>2022-08-16T05:59:57Z</time>
      </trkpt>
      <trkpt lat="44.43902" lon="6.88084">
        <ele>2079.4</ele>
        <time>2022-08-16T05:59:58Z</time>
      </trkpt>
      <trkpt lat="44.43903" lon="6.88083">
        <ele>2079.6</ele>
        <time>2022-08-16T05:59:59Z</time>
      </trkpt>
      <trkpt lat="44.43904" lon="6.88083">
        <ele>2079.8</ele>
        <time>2022-08-16T06:00:00Z</time>
      </trkpt>
      <trkpt lat="44.43906" lon="6.88082">
        <ele>2079.8</ele>
        <time>2022-08-16T06:00:01Z</time>
      </trkpt>
      <trkpt lat="44.43907" lon="6.88081">
        <ele>2080</ele>
        <time>2022-08-16T06:00:02Z</time>
      </trkpt>
      <trkpt lat="44.43908" lon="6.8808">
        <ele>2080</ele>
        <time>2022-08-16T06:00:03Z</time>
      </trkpt>
      <trkpt lat="44.43909" lon="6.8808">
        <ele>2080.2</ele>
        <time>2022-08-16T06:00:04Z</time>
      </trkpt>
      <trkpt lat="44.4391" lon="6.88079">
        <ele>2080.4</ele>
        <time>2022-08-16T06:00:05Z</time>
      </trkpt>
      <trkpt lat="44.43911" lon="6.88078">
        <ele>2080.4</ele>
        <time>2022-08-16T06:00:06Z</time>
      </trkpt>
      <trkpt lat="44.43913" lon="6.88077">
        <ele>2080.6</ele>
        <time>2022-08-16T06:00:07Z</time>
      </trkpt>
      <trkpt lat="44.43914" lon="6.88076">
        <ele>2080.8</ele>
        <time>2022-08-16T06:00:08Z</time>
      </trkpt>
      <trkpt lat="44.43915" lon="6.88076">
        <ele>2080.8</ele>
        <time>2022-08-16T06:00:09Z</time>
      </trkpt>
      <trkpt lat="44.43916" lon="6.88075">
        <ele>2080.8</ele>
        <time>2022-08-16T06:00:10Z</time>
      </trkpt>
      <trkpt lat="44.43917" lon="6.88075">
        <ele>2081</ele>
        <time>2022-08-16T06:00:11Z</time>
      </trkpt>
      <trkpt lat="44.43918" lon="6.88074">
        <ele>2081.2</ele>
        <time>2022-08-16T06:00:12Z</time>
      </trkpt>
      <trkpt lat="44.4392" lon="6.88074">
        <ele>2081.4</ele>
        <time>2022-08-16T06:00:13Z</time>
      </trkpt>
      <trkpt lat="44.43921" lon="6.88073">
        <ele>2081.4</ele>
        <time>2022-08-16T06:00:14Z</time>
      </trkpt>
      <trkpt lat="44.43922" lon="6.88073">
        <ele>2081.6</ele>
        <time>2022-08-16T06:00:15Z</time>
      </trkpt>
      <trkpt lat="44.43923" lon="6.88072">
        <ele>2081.8</ele>
        <time>2022-08-16T06:00:16Z</time>
      </trkpt>
      <trkpt lat="44.43924" lon="6.88071">
        <ele>2082</ele>
        <time>2022-08-16T06:00:17Z</time>
      </trkpt>
      <trkpt lat="44.43925" lon="6.8807">
        <ele>2082.2</ele>
        <time>2022-08-16T06:00:18Z</time>
      </trkpt>
      <trkpt lat="44.43926" lon="6.8807">
        <ele>2082.4</ele>
        <time>2022-08-16T06:00:19Z</time>
      </trkpt>
      <trkpt lat="44.43928" lon="6.8807">
        <ele>2082.4</ele>
        <time>2022-08-16T06:00:20Z</time>
      </trkpt>
      <trkpt lat="44.43929" lon="6.88069">
        <ele>2082.6</ele>
        <time>2022-08-16T06:00:21Z</time>
      </trkpt>
      <trkpt lat="44.4393" lon="6.88069">
        <ele>2082.8</ele>
        <time>2022-08-16T06:00:22Z</time>
      </trkpt>
      <trkpt lat="44.43931" lon="6.88068">
        <ele>2082.8</ele>
        <time>2022-08-16T06:00:23Z</time>
      </trkpt>
      <trkpt lat="44.43932" lon="6.88068">
        <ele>2082.8</ele>
        <time>2022-08-16T06:00:24Z</time>
      </trkpt>
      <trkpt lat="44.43934" lon="6.88067">
        <ele>2083.2</ele>
        <time>2022-08-16T06:00:25Z</time>
      </trkpt>
      <trkpt lat="44.43935" lon="6.88067">
        <ele>2083.4</ele>
        <time>2022-08-16T06:00:26Z</time>
      </trkpt>
      <trkpt lat="44.43936" lon="6.88066">
        <ele>2083.6</ele>
        <time>2022-08-16T06:00:27Z</time>
      </trkpt>
      <trkpt lat="44.43937" lon="6.88066">
        <ele>2084</ele>
        <time>2022-08-16T06:00:28Z</time>
      </trkpt>
      <trkpt lat="44.43938" lon="6.88065">
        <ele>2084</ele>
        <time>2022-08-16T06:00:29Z</time>
      </trkpt>
      <trkpt lat="44.43939" lon="6.88065">
        <ele>2084</ele>
        <time>2022-08-16T06:00:30Z</time>
      </trkpt>
      <trkpt lat="44.4394" lon="6.88064">
        <ele>2084.2</ele>
        <time>2022-08-16T06:00:31Z</time>
      </trkpt>
      <trkpt lat="44.43942" lon="6.88064">
        <ele>2084.4</ele>
        <time>2022-08-16T06:00:32Z</time>
      </trkpt>
      <trkpt lat="44.43943" lon="6.88063">
        <ele>2084.4</ele>
        <time>2022-08-16T06:00:33Z</time>
      </trkpt>
      <trkpt lat="44.43944" lon="6.88063">
        <ele>2084.6</ele>
        <time>2022-08-16T06:00:34Z</time>
      </trkpt>
      <trkpt lat="44.43945" lon="6.88062">
        <ele>2084.6</ele>
        <time>2022-08-16T06:00:35Z</time>
      </trkpt>
      <trkpt lat="44.43946" lon="6.88062">
        <ele>2084.8</ele>
        <time>2022-08-16T06:00:36Z</time>
      </trkpt>
      <trkpt lat="44.43947" lon="6.88061">
        <ele>2084.8</ele>
        <time>2022-08-16T06:00:37Z</time>
      </trkpt>
      <trkpt lat="44.43948" lon="6.88061">
        <ele>2085</ele>
        <time>2022-08-16T06:00:38Z</time>
      </trkpt>
      <trkpt lat="44.4395" lon="6.8806">
        <ele>2085.4</ele>
        <time>2022-08-16T06:00:39Z</time>
      </trkpt>
      <trkpt lat="44.43951" lon="6.88059">
        <ele>2085.6</ele>
        <time>2022-08-16T06:00:40Z</time>
      </trkpt>
      <trkpt lat="44.43952" lon="6.88058">
        <ele>2085.8</ele>
        <time>2022-08-16T06:00:41Z</time>
      </trkpt>
      <trkpt lat="44.43953" lon="6.88057">
        <ele>2085.8</ele>
        <time>2022-08-16T06:00:42Z</time>
      </trkpt>
      <trkpt lat="44.43954" lon="6.88056">
        <ele>2086</ele>
        <time>2022-08-16T06:00:43Z</time>
      </trkpt>
      <trkpt lat="44.43955" lon="6.88055">
        <ele>2086</ele>
        <time>2022-08-16T06:00:44Z</time>
      </trkpt>
      <trkpt lat="44.43956" lon="6.88054">
        <ele>2086.2</ele>
        <time>2022-08-16T06:00:45Z</time>
      </trkpt>
      <trkpt lat="44.43957" lon="6.88053">
        <ele>2086.4</ele>
        <time>2022-08-16T06:00:46Z</time>
      </trkpt>
      <trkpt lat="44.43958" lon="6.88052">
        <ele>2086.4</ele>
        <time>2022-08-16T06:00:47Z</time>
      </trkpt>
      <trkpt lat="44.43959" lon="6.88051">
        <ele>2086.6</ele>
        <time>2022-08-16T06:00:48Z</time>
      </trkpt>
      <trkpt lat="44.4396" lon="6.8805">
        <ele>2086.4</ele>
        <time>2022-08-16T06:00:49Z</time>
      </trkpt>
      <trkpt lat="44.43961" lon="6.88049">
        <ele>2086.6</ele>
        <time>2022-08-16T06:00:50Z</time>
      </trkpt>
      <trkpt lat="44.43962" lon="6.88048">
        <ele>2086.8</ele>
        <time>2022-08-16T06:00:51Z</time>
      </trkpt>
      <trkpt lat="44.43963" lon="6.88047">
        <ele>2087</ele>
        <time>2022-08-16T06:00:52Z</time>
      </trkpt>
      <trkpt lat="44.43965" lon="6.88046">
        <ele>2087.2</ele>
        <time>2022-08-16T06:00:53Z</time>
      </trkpt>
      <trkpt lat="44.43966" lon="6.88045">
        <ele>2087.2</ele>
        <time>2022-08-16T06:00:54Z</time>
      </trkpt>
      <trkpt lat="44.43967" lon="6.88045">
        <ele>2087.2</ele>
        <time>2022-08-16T06:00:55Z</time>
      </trkpt>
      <trkpt lat="44.43968" lon="6.88044">
        <ele>2087.2</ele>
        <time>2022-08-16T06:00:56Z</time>
      </trkpt>
      <trkpt lat="44.43969" lon="6.88043">
        <ele>2087.2</ele>
        <time>2022-08-16T06:00:57Z</time>
      </trkpt>
      <trkpt lat="44.43971" lon="6.88042">
        <ele>2087.2</ele>
        <time>2022-08-16T06:00:58Z</time>
      </trkpt>
      <trkpt lat="44.43972" lon="6.88042">
        <ele>2087.4</ele>
        <time>2022-08-16T06:00:59Z</time>
      </trkpt>
      <trkpt lat="44.43973" lon="6.88041">
        <ele>2087.4</ele>
        <time>2022-08-16T06:01:00Z</time>
      </trkpt>
      <trkpt lat="44.43974" lon="6.88041">
        <ele>2087.6</ele>
        <time>2022-08-16T06:01:01Z</time>
      </trkpt>
      <trkpt lat="44.43975" lon="6.8804">
        <ele>2087.6</ele>
        <time>2022-08-16T06:01:02Z</time>
      </trkpt>
      <trkpt lat="44.43976" lon="6.88039">
        <ele>2088</ele>
        <time>2022-08-16T06:01:03Z</time>
      </trkpt>
      <trkpt lat="44.43977" lon="6.88038">
        <ele>2088.2</ele>
        <time>2022-08-16T06:01:04Z</time>
      </trkpt>
      <trkpt lat="44.43978" lon="6.88037">
        <ele>2088.2</ele>
        <time>2022-08-16T06:01:05Z</time>
      </trkpt>
      <trkpt lat="44.43979" lon="6.88036">
        <ele>2088.4</ele>
        <time>2022-08-16T06:01:06Z</time>
      </trkpt>
      <trkpt lat="44.4398" lon="6.88035">
        <ele>2088.6</ele>
        <time>2022-08-16T06:01:07Z</time>
      </trkpt>
      <trkpt lat="44.43982" lon="6.88034">
        <ele>2088.8</ele>
        <time>2022-08-16T06:01:08Z</time>
      </trkpt>
      <trkpt lat="44.43983" lon="6.88033">
        <ele>2088.8</ele>
        <time>2022-08-16T06:01:09Z</time>
      </trkpt>
      <trkpt lat="44.43984" lon="6.88032">
        <ele>2088.8</ele>
        <time>2022-08-16T06:01:10Z</time>
      </trkpt>
      <trkpt lat="44.43985" lon="6.88031">
        <ele>2089</ele>
        <time>2022-08-16T06:01:11Z</time>
      </trkpt>
      <trkpt lat="44.43986" lon="6.8803">
        <ele>2089</ele>
        <time>2022-08-16T06:01:12Z</time>
      </trkpt>
      <trkpt lat="44.43987" lon="6.88029">
        <ele>2089</ele>
        <time>2022-08-16T06:01:13Z</time>
      </trkpt>
      <trkpt lat="44.43988" lon="6.88028">
        <ele>2089</ele>
        <time>2022-08-16T06:01:14Z</time>
      </trkpt>
      <trkpt lat="44.43989" lon="6.88026">
        <ele>2089.2</ele>
        <time>2022-08-16T06:01:15Z</time>
      </trkpt>
      <trkpt lat="44.4399" lon="6.88025">
        <ele>2089.2</ele>
        <time>2022-08-16T06:01:16Z</time>
      </trkpt>
      <trkpt lat="44.4399" lon="6.88024">
        <ele>2089.4</ele>
        <time>2022-08-16T06:01:17Z</time>
      </trkpt>
      <trkpt lat="44.43991" lon="6.88023">
        <ele>2089.6</ele>
        <time>2022-08-16T06:01:18Z</time>
      </trkpt>
      <trkpt lat="44.43992" lon="6.88022">
        <ele>2089.8</ele>
        <time>2022-08-16T06:01:19Z</time>
      </trkpt>
      <trkpt lat="44.43993" lon="6.88021">
        <ele>2089.8</ele>
        <time>2022-08-16T06:01:20Z</time>
      </trkpt>
      <trkpt lat="44.43994" lon="6.8802">
        <ele>2090.2</ele>
        <time>2022-08-16T06:01:21Z</time>
      </trkpt>
      <trkpt lat="44.43995" lon="6.88019">
        <ele>2090.2</ele>
        <time>2022-08-16T06:01:22Z</time>
      </trkpt>
      <trkpt lat="44.43997" lon="6.88018">
        <ele>2090.4</ele>
        <time>2022-08-16T06:01:23Z</time>
      </trkpt>
      <trkpt lat="44.43998" lon="6.88017">
        <ele>2090.4</ele>
        <time>2022-08-16T06:01:24Z</time>
      </trkpt>
      <trkpt lat="44.43999" lon="6.88017">
        <ele>2090.6</ele>
        <time>2022-08-16T06:01:25Z</time>
      </trkpt>
      <trkpt lat="44.44" lon="6.88016">
        <ele>2090.6</ele>
        <time>2022-08-16T06:01:26Z</time>
      </trkpt>
      <trkpt lat="44.44001" lon="6.88015">
        <ele>2090.6</ele>
        <time>2022-08-16T06:01:27Z</time>
      </trkpt>
      <trkpt lat="44.44001" lon="6.88014">
        <ele>2090.6</ele>
        <time>2022-08-16T06:01:28Z</time>
      </trkpt>
      <trkpt lat="44.44002" lon="6.88013">
        <ele>2090.6</ele>
        <time>2022-08-16T06:01:29Z</time>
      </trkpt>
      <trkpt lat="44.44004" lon="6.88013">
        <ele>2090.8</ele>
        <time>2022-08-16T06:01:30Z</time>
      </trkpt>
      <trkpt lat="44.44005" lon="6.88012">
        <ele>2090.8</ele>
        <time>2022-08-16T06:01:31Z</time>
      </trkpt>
      <trkpt lat="44.44006" lon="6.88012">
        <ele>2091.2</ele>
        <time>2022-08-16T06:01:32Z</time>
      </trkpt>
      <trkpt lat="44.44007" lon="6.88011">
        <ele>2091.4</ele>
        <time>2022-08-16T06:01:33Z</time>
      </trkpt>
      <trkpt lat="44.44008" lon="6.88011">
        <ele>2091.4</ele>
        <time>2022-08-16T06:01:34Z</time>
      </trkpt>
      <trkpt lat="44.44009" lon="6.8801">
        <ele>2091.4</ele>
        <time>2022-08-16T06:01:35Z</time>
      </trkpt>
      <trkpt lat="44.4401" lon="6.8801">
        <ele>2091.6</ele>
        <time>2022-08-16T06:01:36Z</time>
      </trkpt>
      <trkpt lat="44.44011" lon="6.88009">
        <ele>2091.6</ele>
        <time>2022-08-16T06:01:37Z</time>
      </trkpt>
      <trkpt lat="44.44012" lon="6.88008">
        <ele>2091.8</ele>
        <time>2022-08-16T06:01:38Z</time>
      </trkpt>
      <trkpt lat="44.44013" lon="6.88008">
        <ele>2092</ele>
        <time>2022-08-16T06:01:39Z</time>
      </trkpt>
      <trkpt lat="44.44014" lon="6.88008">
        <ele>2092</ele>
        <time>2022-08-16T06:01:40Z</time>
      </trkpt>
      <trkpt lat="44.44016" lon="6.88007">
        <ele>2092.2</ele>
        <time>2022-08-16T06:01:41Z</time>
      </trkpt>
      <trkpt lat="44.44017" lon="6.88007">
        <ele>2092.6</ele>
        <time>2022-08-16T06:01:42Z</time>
      </trkpt>
      <trkpt lat="44.44018" lon="6.88006">
        <ele>2092.6</ele>
        <time>2022-08-16T06:01:43Z</time>
      </trkpt>
      <trkpt lat="44.44019" lon="6.88005">
        <ele>2092.8</ele>
        <time>2022-08-16T06:01:44Z</time>
      </trkpt>
      <trkpt lat="44.4402" lon="6.88005">
        <ele>2092.8</ele>
        <time>2022-08-16T06:01:45Z</time>
      </trkpt>
      <trkpt lat="44.44021" lon="6.88004">
        <ele>2093</ele>
        <time>2022-08-16T06:01:46Z</time>
      </trkpt>
      <trkpt lat="44.44023" lon="6.88003">
        <ele>2093.2</ele>
        <time>2022-08-16T06:01:47Z</time>
      </trkpt>
      <trkpt lat="44.44024" lon="6.88002">
        <ele>2093.4</ele>
        <time>2022-08-16T06:01:48Z</time>
      </trkpt>
      <trkpt lat="44.44025" lon="6.88001">
        <ele>2093.4</ele>
        <time>2022-08-16T06:01:49Z</time>
      </trkpt>
      <trkpt lat="44.44026" lon="6.88001">
        <ele>2093.4</ele>
        <time>2022-08-16T06:01:50Z</time>
      </trkpt>
      <trkpt lat="44.44027" lon="6.88">
        <ele>2093.6</ele>
        <time>2022-08-16T06:01:51Z</time>
      </trkpt>
      <trkpt lat="44.44028" lon="6.87999">
        <ele>2093.6</ele>
        <time>2022-08-16T06:01:52Z</time>
      </trkpt>
      <trkpt lat="44.44029" lon="6.87998">
        <ele>2094</ele>
        <time>2022-08-16T06:01:53Z</time>
      </trkpt>
      <trkpt lat="44.44031" lon="6.87997">
        <ele>2094</ele>
        <time>2022-08-16T06:01:54Z</time>
      </trkpt>
      <trkpt lat="44.44032" lon="6.87996">
        <ele>2094</ele>
        <time>2022-08-16T06:01:55Z</time>
      </trkpt>
      <trkpt lat="44.44033" lon="6.87995">
        <ele>2094.2</ele>
        <time>2022-08-16T06:01:56Z</time>
      </trkpt>
      <trkpt lat="44.44034" lon="6.87994">
        <ele>2094.2</ele>
        <time>2022-08-16T06:01:57Z</time>
      </trkpt>
      <trkpt lat="44.44035" lon="6.87993">
        <ele>2094.6</ele>
        <time>2022-08-16T06:01:58Z</time>
      </trkpt>
      <trkpt lat="44.44036" lon="6.87992">
        <ele>2094.8</ele>
        <time>2022-08-16T06:01:59Z</time>
      </trkpt>
      <trkpt lat="44.44037" lon="6.87991">
        <ele>2094.8</ele>
        <time>2022-08-16T06:02:00Z</time>
      </trkpt>
      <trkpt lat="44.44038" lon="6.8799">
        <ele>2094.8</ele>
        <time>2022-08-16T06:02:01Z</time>
      </trkpt>
      <trkpt lat="44.44039" lon="6.87989">
        <ele>2094.8</ele>
        <time>2022-08-16T06:02:02Z</time>
      </trkpt>
      <trkpt lat="44.44039" lon="6.87988">
        <ele>2095.2</ele>
        <time>2022-08-16T06:02:03Z</time>
      </trkpt>
      <trkpt lat="44.4404" lon="6.87987">
        <ele>2095.4</ele>
        <time>2022-08-16T06:02:04Z</time>
      </trkpt>
      <trkpt lat="44.44041" lon="6.87986">
        <ele>2095.6</ele>
        <time>2022-08-16T06:02:05Z</time>
      </trkpt>
      <trkpt lat="44.44042" lon="6.87985">
        <ele>2095.8</ele>
        <time>2022-08-16T06:02:06Z</time>
      </trkpt>
      <trkpt lat="44.44043" lon="6.87984">
        <ele>2095.8</ele>
        <time>2022-08-16T06:02:07Z</time>
      </trkpt>
      <trkpt lat="44.44044" lon="6.87983">
        <ele>2095.8</ele>
        <time>2022-08-16T06:02:08Z</time>
      </trkpt>
      <trkpt lat="44.44045" lon="6.87982">
        <ele>2096</ele>
        <time>2022-08-16T06:02:09Z</time>
      </trkpt>
      <trkpt lat="44.44046" lon="6.87981">
        <ele>2096.2</ele>
        <time>2022-08-16T06:02:10Z</time>
      </trkpt>
      <trkpt lat="44.44047" lon="6.8798">
        <ele>2096.6</ele>
        <time>2022-08-16T06:02:11Z</time>
      </trkpt>
      <trkpt lat="44.44048" lon="6.87979">
        <ele>2096.6</ele>
        <time>2022-08-16T06:02:12Z</time>
      </trkpt>
      <trkpt lat="44.44049" lon="6.87978">
        <ele>2096.8</ele>
        <time>2022-08-16T06:02:13Z</time>
      </trkpt>
      <trkpt lat="44.4405" lon="6.87977">
        <ele>2097</ele>
        <time>2022-08-16T06:02:14Z</time>
      </trkpt>
      <trkpt lat="44.44051" lon="6.87976">
        <ele>2097</ele>
        <time>2022-08-16T06:02:15Z</time>
      </trkpt>
      <trkpt lat="44.44052" lon="6.87975">
        <ele>2097.2</ele>
        <time>2022-08-16T06:02:16Z</time>
      </trkpt>
      <trkpt lat="44.44053" lon="6.87974">
        <ele>2097.4</ele>
        <time>2022-08-16T06:02:17Z</time>
      </trkpt>
      <trkpt lat="44.44054" lon="6.87973">
        <ele>2097.4</ele>
        <time>2022-08-16T06:02:18Z</time>
      </trkpt>
      <trkpt lat="44.44055" lon="6.87972">
        <ele>2097.8</ele>
        <time>2022-08-16T06:02:19Z</time>
      </trkpt>
      <trkpt lat="44.44056" lon="6.87971">
        <ele>2097.8</ele>
        <time>2022-08-16T06:02:20Z</time>
      </trkpt>
      <trkpt lat="44.44057" lon="6.8797">
        <ele>2098</ele>
        <time>2022-08-16T06:02:21Z</time>
      </trkpt>
      <trkpt lat="44.44058" lon="6.87969">
        <ele>2098.2</ele>
        <time>2022-08-16T06:02:22Z</time>
      </trkpt>
      <trkpt lat="44.44059" lon="6.87968">
        <ele>2098.4</ele>
        <time>2022-08-16T06:02:23Z</time>
      </trkpt>
      <trkpt lat="44.4406" lon="6.87967">
        <ele>2098.4</ele>
        <time>2022-08-16T06:02:24Z</time>
      </trkpt>
      <trkpt lat="44.44061" lon="6.87966">
        <ele>2098.4</ele>
        <time>2022-08-16T06:02:25Z</time>
      </trkpt>
      <trkpt lat="44.44061" lon="6.87965">
        <ele>2098.6</ele>
        <time>2022-08-16T06:02:26Z</time>
      </trkpt>
      <trkpt lat="44.44062" lon="6.87964">
        <ele>2098.6</ele>
        <time>2022-08-16T06:02:27Z</time>
      </trkpt>
      <trkpt lat="44.44063" lon="6.87962">
        <ele>2098.8</ele>
        <time>2022-08-16T06:02:28Z</time>
      </trkpt>
      <trkpt lat="44.44064" lon="6.87961">
        <ele>2099</ele>
        <time>2022-08-16T06:02:29Z</time>
      </trkpt>
      <trkpt lat="44.44066" lon="6.8796">
        <ele>2099.2</ele>
        <time>2022-08-16T06:02:30Z</time>
      </trkpt>
      <trkpt lat="44.44066" lon="6.87959">
        <ele>2099.2</ele>
        <time>2022-08-16T06:02:31Z</time>
      </trkpt>
      <trkpt lat="44.44067" lon="6.87958">
        <ele>2099.2</ele>
        <time>2022-08-16T06:02:32Z</time>
      </trkpt>
      <trkpt lat="44.44069" lon="6.87956">
        <ele>2099.4</ele>
        <time>2022-08-16T06:02:33Z</time>
      </trkpt>
      <trkpt lat="44.4407" lon="6.87955">
        <ele>2099.4</ele>
        <time>2022-08-16T06:02:34Z</time>
      </trkpt>
      <trkpt lat="44.44071" lon="6.87953">
        <ele>2099.4</ele>
        <time>2022-08-16T06:02:35Z</time>
      </trkpt>
      <trkpt lat="44.44072" lon="6.87952">
        <ele>2099.8</ele>
        <time>2022-08-16T06:02:36Z</time>
      </trkpt>
      <trkpt lat="44.44073" lon="6.8795">
        <ele>2100</ele>
        <time>2022-08-16T06:02:37Z</time>
      </trkpt>
      <trkpt lat="44.44074" lon="6.87949">
        <ele>2100.2</ele>
        <time>2022-08-16T06:02:38Z</time>
      </trkpt>
      <trkpt lat="44.44075" lon="6.87948">
        <ele>2100.2</ele>
        <time>2022-08-16T06:02:39Z</time>
      </trkpt>
      <trkpt lat="44.44076" lon="6.87946">
        <ele>2100.4</ele>
        <time>2022-08-16T06:02:40Z</time>
      </trkpt>
      <trkpt lat="44.44077" lon="6.87945">
        <ele>2100.4</ele>
        <time>2022-08-16T06:02:41Z</time>
      </trkpt>
      <trkpt lat="44.44078" lon="6.87944">
        <ele>2100.4</ele>
        <time>2022-08-16T06:02:42Z</time>
      </trkpt>
      <trkpt lat="44.44078" lon="6.87942">
        <ele>2100.6</ele>
        <time>2022-08-16T06:02:43Z</time>
      </trkpt>
      <trkpt lat="44.44079" lon="6.87941">
        <ele>2100.6</ele>
        <time>2022-08-16T06:02:44Z</time>
      </trkpt>
      <trkpt lat="44.44081" lon="6.87939">
        <ele>2100.8</ele>
        <time>2022-08-16T06:02:45Z</time>
      </trkpt>
      <trkpt lat="44.44082" lon="6.87938">
        <ele>2101</ele>
        <time>2022-08-16T06:02:46Z</time>
      </trkpt>
      <trkpt lat="44.44083" lon="6.87936">
        <ele>2101</ele>
        <time>2022-08-16T06:02:47Z</time>
      </trkpt>
      <trkpt lat="44.44084" lon="6.87935">
        <ele>2101</ele>
        <time>2022-08-16T06:02:48Z</time>
      </trkpt>
      <trkpt lat="44.44085" lon="6.87934">
        <ele>2101.2</ele>
        <time>2022-08-16T06:02:49Z</time>
      </trkpt>
      <trkpt lat="44.44086" lon="6.87933">
        <ele>2101.2</ele>
        <time>2022-08-16T06:02:50Z</time>
      </trkpt>
      <trkpt lat="44.44087" lon="6.87932">
        <ele>2101.4</ele>
        <time>2022-08-16T06:02:51Z</time>
      </trkpt>
      <trkpt lat="44.44089" lon="6.87929">
        <ele>2101.4</ele>
        <time>2022-08-16T06:02:53Z</time>
      </trkpt>
      <trkpt lat="44.4409" lon="6.87928">
        <ele>2101.4</ele>
        <time>2022-08-16T06:02:54Z</time>
      </trkpt>
      <trkpt lat="44.44092" lon="6.87926">
        <ele>2101.4</ele>
        <time>2022-08-16T06:02:56Z</time>
      </trkpt>
      <trkpt lat="44.44093" lon="6.87925">
        <ele>2101.6</ele>
        <time>2022-08-16T06:02:57Z</time>
      </trkpt>
      <trkpt lat="44.44094" lon="6.87924">
        <ele>2101.8</ele>
        <time>2022-08-16T06:02:58Z</time>
      </trkpt>
      <trkpt lat="44.44095" lon="6.87923">
        <ele>2101.8</ele>
        <time>2022-08-16T06:02:59Z</time>
      </trkpt>
      <trkpt lat="44.44096" lon="6.87922">
        <ele>2101.8</ele>
        <time>2022-08-16T06:03:00Z</time>
      </trkpt>
      <trkpt lat="44.44097" lon="6.87921">
        <ele>2102.2</ele>
        <time>2022-08-16T06:03:01Z</time>
      </trkpt>
      <trkpt lat="44.44098" lon="6.8792">
        <ele>2102.4</ele>
        <time>2022-08-16T06:03:02Z</time>
      </trkpt>
      <trkpt lat="44.44099" lon="6.87919">
        <ele>2102.2</ele>
        <time>2022-08-16T06:03:03Z</time>
      </trkpt>
      <trkpt lat="44.441" lon="6.87917">
        <ele>2102.4</ele>
        <time>2022-08-16T06:03:04Z</time>
      </trkpt>
      <trkpt lat="44.44101" lon="6.87916">
        <ele>2102.4</ele>
        <time>2022-08-16T06:03:05Z</time>
      </trkpt>
      <trkpt lat="44.44102" lon="6.87915">
        <ele>2102.8</ele>
        <time>2022-08-16T06:03:06Z</time>
      </trkpt>
      <trkpt lat="44.44103" lon="6.87915">
        <ele>2102.8</ele>
        <time>2022-08-16T06:03:07Z</time>
      </trkpt>
      <trkpt lat="44.44104" lon="6.87914">
        <ele>2102.8</ele>
        <time>2022-08-16T06:03:08Z</time>
      </trkpt>
      <trkpt lat="44.44105" lon="6.87913">
        <ele>2103</ele>
        <time>2022-08-16T06:03:09Z</time>
      </trkpt>
      <trkpt lat="44.44106" lon="6.87913">
        <ele>2103.2</ele>
        <time>2022-08-16T06:03:10Z</time>
      </trkpt>
      <trkpt lat="44.44108" lon="6.87913">
        <ele>2103.4</ele>
        <time>2022-08-16T06:03:11Z</time>
      </trkpt>
      <trkpt lat="44.44109" lon="6.87914">
        <ele>2103.6</ele>
        <time>2022-08-16T06:03:12Z</time>
      </trkpt>
      <trkpt lat="44.4411" lon="6.87915">
        <ele>2103.6</ele>
        <time>2022-08-16T06:03:13Z</time>
      </trkpt>
      <trkpt lat="44.4411" lon="6.87917">
        <ele>2103.6</ele>
        <time>2022-08-16T06:03:14Z</time>
      </trkpt>
      <trkpt lat="44.4411" lon="6.87919">
        <ele>2104</ele>
        <time>2022-08-16T06:03:15Z</time>
      </trkpt>
      <trkpt lat="44.4411" lon="6.8792">
        <ele>2104</ele>
        <time>2022-08-16T06:03:16Z</time>
      </trkpt>
      <trkpt lat="44.44109" lon="6.87922">
        <ele>2104.2</ele>
        <time>2022-08-16T06:03:17Z</time>
      </trkpt>
      <trkpt lat="44.44108" lon="6.87924">
        <ele>2104.2</ele>
        <time>2022-08-16T06:03:18Z</time>
      </trkpt>
      <trkpt lat="44.44107" lon="6.87925">
        <ele>2104.2</ele>
        <time>2022-08-16T06:03:19Z</time>
      </trkpt>
      <trkpt lat="44.44106" lon="6.87927">
        <ele>2104.4</ele>
        <time>2022-08-16T06:03:20Z</time>
      </trkpt>
      <trkpt lat="44.44104" lon="6.87928">
        <ele>2104.6</ele>
        <time>2022-08-16T06:03:21Z</time>
      </trkpt>
      <trkpt lat="44.44103" lon="6.8793">
        <ele>2104.6</ele>
        <time>2022-08-16T06:03:22Z</time>
      </trkpt>
      <trkpt lat="44.44101" lon="6.87931">
        <ele>2105</ele>
        <time>2022-08-16T06:03:23Z</time>
      </trkpt>
      <trkpt lat="44.441" lon="6.87932">
        <ele>2105.2</ele>
        <time>2022-08-16T06:03:24Z</time>
      </trkpt>
      <trkpt lat="44.44098" lon="6.87934">
        <ele>2105.4</ele>
        <time>2022-08-16T06:03:25Z</time>
      </trkpt>
      <trkpt lat="44.44096" lon="6.87935">
        <ele>2105.2</ele>
        <time>2022-08-16T06:03:26Z</time>
      </trkpt>
      <trkpt lat="44.44095" lon="6.87937">
        <ele>2105.4</ele>
        <time>2022-08-16T06:03:27Z</time>
      </trkpt>
      <trkpt lat="44.44093" lon="6.87939">
        <ele>2105.6</ele>
        <time>2022-08-16T06:03:28Z</time>
      </trkpt>
      <trkpt lat="44.44092" lon="6.8794">
        <ele>2105.6</ele>
        <time>2022-08-16T06:03:29Z</time>
      </trkpt>
      <trkpt lat="44.44091" lon="6.87942">
        <ele>2105.8</ele>
        <time>2022-08-16T06:03:30Z</time>
      </trkpt>
      <trkpt lat="44.44089" lon="6.87944">
        <ele>2106</ele>
        <time>2022-08-16T06:03:31Z</time>
      </trkpt>
      <trkpt lat="44.44088" lon="6.87946">
        <ele>2106.2</ele>
        <time>2022-08-16T06:03:32Z</time>
      </trkpt>
      <trkpt lat="44.44087" lon="6.87948">
        <ele>2106</ele>
        <time>2022-08-16T06:03:33Z</time>
      </trkpt>
      <trkpt lat="44.44086" lon="6.87951">
        <ele>2106.2</ele>
        <time>2022-08-16T06:03:34Z</time>
      </trkpt>
      <trkpt lat="44.44085" lon="6.87953">
        <ele>2106.2</ele>
        <time>2022-08-16T06:03:35Z</time>
      </trkpt>
      <trkpt lat="44.44084" lon="6.87955">
        <ele>2106.2</ele>
        <time>2022-08-16T06:03:36Z</time>
      </trkpt>
      <trkpt lat="44.44083" lon="6.87957">
        <ele>2106.4</ele>
        <time>2022-08-16T06:03:37Z</time>
      </trkpt>
      <trkpt lat="44.44082" lon="6.8796">
        <ele>2106.6</ele>
        <time>2022-08-16T06:03:38Z</time>
      </trkpt>
      <trkpt lat="44.4408" lon="6.87964">
        <ele>2106.8</ele>
        <time>2022-08-16T06:03:40Z</time>
      </trkpt>
      <trkpt lat="44.44078" lon="6.87969">
        <ele>2107</ele>
        <time>2022-08-16T06:03:42Z</time>
      </trkpt>
      <trkpt lat="44.44077" lon="6.87971">
        <ele>2107</ele>
        <time>2022-08-16T06:03:43Z</time>
      </trkpt>
      <trkpt lat="44.44076" lon="6.87973">
        <ele>2107</ele>
        <time>2022-08-16T06:03:44Z</time>
      </trkpt>
      <trkpt lat="44.44074" lon="6.87977">
        <ele>2107.2</ele>
        <time>2022-08-16T06:03:46Z</time>
      </trkpt>
      <trkpt lat="44.44072" lon="6.87979">
        <ele>2107.2</ele>
        <time>2022-08-16T06:03:47Z</time>
      </trkpt>
      <trkpt lat="44.44072" lon="6.87981">
        <ele>2107</ele>
        <time>2022-08-16T06:03:48Z</time>
      </trkpt>
      <trkpt lat="44.44071" lon="6.87982">
        <ele>2107.2</ele>
        <time>2022-08-16T06:03:49Z</time>
      </trkpt>
      <trkpt lat="44.44068" lon="6.87988">
        <ele>2107.4</ele>
        <time>2022-08-16T06:03:52Z</time>
      </trkpt>
      <trkpt lat="44.44067" lon="6.8799">
        <ele>2107.6</ele>
        <time>2022-08-16T06:03:53Z</time>
      </trkpt>
      <trkpt lat="44.44066" lon="6.87992">
        <ele>2107.6</ele>
        <time>2022-08-16T06:03:54Z</time>
      </trkpt>
      <trkpt lat="44.44065" lon="6.87994">
        <ele>2107.8</ele>
        <time>2022-08-16T06:03:55Z</time>
      </trkpt>
      <trkpt lat="44.44064" lon="6.87996">
        <ele>2108</ele>
        <time>2022-08-16T06:03:56Z</time>
      </trkpt>
      <trkpt lat="44.44062" lon="6.88">
        <ele>2108.2</ele>
        <time>2022-08-16T06:03:58Z</time>
      </trkpt>
      <trkpt lat="44.4406" lon="6.88003">
        <ele>2108.4</ele>
        <time>2022-08-16T06:04:00Z</time>
      </trkpt>
      <trkpt lat="44.44059" lon="6.88005">
        <ele>2108.4</ele>
        <time>2022-08-16T06:04:01Z</time>
      </trkpt>
      <trkpt lat="44.44058" lon="6.88007">
        <ele>2108.4</ele>
        <time>2022-08-16T06:04:02Z</time>
      </trkpt>
      <trkpt lat="44.44057" lon="6.88009">
        <ele>2108.6</ele>
        <time>2022-08-16T06:04:03Z</time>
      </trkpt>
      <trkpt lat="44.44056" lon="6.88011">
        <ele>2108.6</ele>
        <time>2022-08-16T06:04:04Z</time>
      </trkpt>
      <trkpt lat="44.44056" lon="6.88012">
        <ele>2108.6</ele>
        <time>2022-08-16T06:04:05Z</time>
      </trkpt>
      <trkpt lat="44.44052" lon="6.88019">
        <ele>2108.8</ele>
        <time>2022-08-16T06:04:09Z</time>
      </trkpt>
      <trkpt lat="44.44051" lon="6.88021">
        <ele>2108.8</ele>
        <time>2022-08-16T06:04:10Z</time>
      </trkpt>
      <trkpt lat="44.4405" lon="6.88022">
        <ele>2109</ele>
        <time>2022-08-16T06:04:11Z</time>
      </trkpt>
      <trkpt lat="44.44049" lon="6.88024">
        <ele>2109</ele>
        <time>2022-08-16T06:04:12Z</time>
      </trkpt>
      <trkpt lat="44.44047" lon="6.88027">
        <ele>2109.2</ele>
        <time>2022-08-16T06:04:14Z</time>
      </trkpt>
      <trkpt lat="44.44047" lon="6.88028">
        <ele>2109.2</ele>
        <time>2022-08-16T06:04:15Z</time>
      </trkpt>
      <trkpt lat="44.44046" lon="6.8803">
        <ele>2109.6</ele>
        <time>2022-08-16T06:04:16Z</time>
      </trkpt>
      <trkpt lat="44.44045" lon="6.88031">
        <ele>2109.6</ele>
        <time>2022-08-16T06:04:17Z</time>
      </trkpt>
      <trkpt lat="44.44044" lon="6.88033">
        <ele>2109.8</ele>
        <time>2022-08-16T06:04:18Z</time>
      </trkpt>
      <trkpt lat="44.44044" lon="6.88034">
        <ele>2110</ele>
        <time>2022-08-16T06:04:19Z</time>
      </trkpt>
      <trkpt lat="44.44043" lon="6.88036">
        <ele>2110</ele>
        <time>2022-08-16T06:04:20Z</time>
      </trkpt>
      <trkpt lat="44.44042" lon="6.88037">
        <ele>2110.2</ele>
        <time>2022-08-16T06:04:21Z</time>
      </trkpt>
      <trkpt lat="44.44041" lon="6.88039">
        <ele>2110.2</ele>
        <time>2022-08-16T06:04:22Z</time>
      </trkpt>
      <trkpt lat="44.4404" lon="6.88041">
        <ele>2110.4</ele>
        <time>2022-08-16T06:04:23Z</time>
      </trkpt>
      <trkpt lat="44.4404" lon="6.88042">
        <ele>2110.6</ele>
        <time>2022-08-16T06:04:24Z</time>
      </trkpt>
      <trkpt lat="44.44039" lon="6.88044">
        <ele>2110.8</ele>
        <time>2022-08-16T06:04:25Z</time>
      </trkpt>
      <trkpt lat="44.44038" lon="6.88045">
        <ele>2110.8</ele>
        <time>2022-08-16T06:04:26Z</time>
      </trkpt>
      <trkpt lat="44.44037" lon="6.88047">
        <ele>2111.2</ele>
        <time>2022-08-16T06:04:27Z</time>
      </trkpt>
      <trkpt lat="44.44036" lon="6.88048">
        <ele>2111.2</ele>
        <time>2022-08-16T06:04:28Z</time>
      </trkpt>
      <trkpt lat="44.44036" lon="6.8805">
        <ele>2111.2</ele>
        <time>2022-08-16T06:04:29Z</time>
      </trkpt>
      <trkpt lat="44.44035" lon="6.88051">
        <ele>2111.4</ele>
        <time>2022-08-16T06:04:30Z</time>
      </trkpt>
      <trkpt lat="44.44034" lon="6.88052">
        <ele>2111.4</ele>
        <time>2022-08-16T06:04:31Z</time>
      </trkpt>
      <trkpt lat="44.44033" lon="6.88053">
        <ele>2111.4</ele>
        <time>2022-08-16T06:04:32Z</time>
      </trkpt>
      <trkpt lat="44.44033" lon="6.88055">
        <ele>2111.6</ele>
        <time>2022-08-16T06:04:33Z</time>
      </trkpt>
      <trkpt lat="44.44032" lon="6.88056">
        <ele>2111.8</ele>
        <time>2022-08-16T06:04:34Z</time>
      </trkpt>
      <trkpt lat="44.44032" lon="6.88058">
        <ele>2112.2</ele>
        <time>2022-08-16T06:04:35Z</time>
      </trkpt>
      <trkpt lat="44.44031" lon="6.88059">
        <ele>2112.4</ele>
        <time>2022-08-16T06:04:36Z</time>
      </trkpt>
      <trkpt lat="44.4403" lon="6.8806">
        <ele>2112.4</ele>
        <time>2022-08-16T06:04:37Z</time>
      </trkpt>
      <trkpt lat="44.44029" lon="6.88062">
        <ele>2112.4</ele>
        <time>2022-08-16T06:04:38Z</time>
      </trkpt>
      <trkpt lat="44.44029" lon="6.88063">
        <ele>2112.6</ele>
        <time>2022-08-16T06:04:39Z</time>
      </trkpt>
      <trkpt lat="44.44028" lon="6.88065">
        <ele>2113</ele>
        <time>2022-08-16T06:04:40Z</time>
      </trkpt>
      <trkpt lat="44.44027" lon="6.88066">
        <ele>2112.8</ele>
        <time>2022-08-16T06:04:41Z</time>
      </trkpt>
      <trkpt lat="44.44026" lon="6.88067">
        <ele>2113.2</ele>
        <time>2022-08-16T06:04:42Z</time>
      </trkpt>
      <trkpt lat="44.44026" lon="6.88069">
        <ele>2113.4</ele>
        <time>2022-08-16T06:04:43Z</time>
      </trkpt>
      <trkpt lat="44.44025" lon="6.8807">
        <ele>2113.2</ele>
        <time>2022-08-16T06:04:44Z</time>
      </trkpt>
      <trkpt lat="44.44024" lon="6.88072">
        <ele>2113.6</ele>
        <time>2022-08-16T06:04:45Z</time>
      </trkpt>
      <trkpt lat="44.44023" lon="6.88073">
        <ele>2113.6</ele>
        <time>2022-08-16T06:04:46Z</time>
      </trkpt>
      <trkpt lat="44.44023" lon="6.88075">
        <ele>2113.8</ele>
        <time>2022-08-16T06:04:47Z</time>
      </trkpt>
      <trkpt lat="44.44022" lon="6.88076">
        <ele>2113.8</ele>
        <time>2022-08-16T06:04:48Z</time>
      </trkpt>
      <trkpt lat="44.44021" lon="6.88078">
        <ele>2114</ele>
        <time>2022-08-16T06:04:49Z</time>
      </trkpt>
      <trkpt lat="44.4402" lon="6.88079">
        <ele>2114.2</ele>
        <time>2022-08-16T06:04:50Z</time>
      </trkpt>
      <trkpt lat="44.4402" lon="6.88081">
        <ele>2114.4</ele>
        <time>2022-08-16T06:04:51Z</time>
      </trkpt>
      <trkpt lat="44.44019" lon="6.88082">
        <ele>2114.4</ele>
        <time>2022-08-16T06:04:52Z</time>
      </trkpt>
      <trkpt lat="44.44018" lon="6.88084">
        <ele>2114.4</ele>
        <time>2022-08-16T06:04:53Z</time>
      </trkpt>
      <trkpt lat="44.44017" lon="6.88085">
        <ele>2114.4</ele>
        <time>2022-08-16T06:04:54Z</time>
      </trkpt>
      <trkpt lat="44.44016" lon="6.88086">
        <ele>2114.6</ele>
        <time>2022-08-16T06:04:55Z</time>
      </trkpt>
      <trkpt lat="44.44016" lon="6.88088">
        <ele>2114.6</ele>
        <time>2022-08-16T06:04:56Z</time>
      </trkpt>
      <trkpt lat="44.44015" lon="6.88089">
        <ele>2115</ele>
        <time>2022-08-16T06:04:57Z</time>
      </trkpt>
      <trkpt lat="44.44014" lon="6.88091">
        <ele>2115.2</ele>
        <time>2022-08-16T06:04:58Z</time>
      </trkpt>
      <trkpt lat="44.44013" lon="6.88092">
        <ele>2115.2</ele>
        <time>2022-08-16T06:04:59Z</time>
      </trkpt>
      <trkpt lat="44.44013" lon="6.88094">
        <ele>2115.4</ele>
        <time>2022-08-16T06:05:00Z</time>
      </trkpt>
      <trkpt lat="44.44012" lon="6.88096">
        <ele>2115.6</ele>
        <time>2022-08-16T06:05:01Z</time>
      </trkpt>
      <trkpt lat="44.44011" lon="6.88097">
        <ele>2115.6</ele>
        <time>2022-08-16T06:05:02Z</time>
      </trkpt>
      <trkpt lat="44.4401" lon="6.88099">
        <ele>2115.8</ele>
        <time>2022-08-16T06:05:03Z</time>
      </trkpt>
      <trkpt lat="44.4401" lon="6.881">
        <ele>2116</ele>
        <time>2022-08-16T06:05:04Z</time>
      </trkpt>
      <trkpt lat="44.44009" lon="6.88102">
        <ele>2116</ele>
        <time>2022-08-16T06:05:05Z</time>
      </trkpt>
      <trkpt lat="44.44008" lon="6.88103">
        <ele>2116.2</ele>
        <time>2022-08-16T06:05:06Z</time>
      </trkpt>
      <trkpt lat="44.44007" lon="6.88105">
        <ele>2116.4</ele>
        <time>2022-08-16T06:05:07Z</time>
      </trkpt>
      <trkpt lat="44.44007" lon="6.88107">
        <ele>2116.4</ele>
        <time>2022-08-16T06:05:08Z</time>
      </trkpt>
      <trkpt lat="44.44006" lon="6.88108">
        <ele>2116.6</ele>
        <time>2022-08-16T06:05:09Z</time>
      </trkpt>
      <trkpt lat="44.44006" lon="6.8811">
        <ele>2116.6</ele>
        <time>2022-08-16T06:05:10Z</time>
      </trkpt>
      <trkpt lat="44.44005" lon="6.88112">
        <ele>2116.8</ele>
        <time>2022-08-16T06:05:11Z</time>
      </trkpt>
      <trkpt lat="44.44005" lon="6.88114">
        <ele>2116.8</ele>
        <time>2022-08-16T06:05:12Z</time>
      </trkpt>
      <trkpt lat="44.44004" lon="6.88115">
        <ele>2116.8</ele>
        <time>2022-08-16T06:05:13Z</time>
      </trkpt>
      <trkpt lat="44.44003" lon="6.88117">
        <ele>2117</ele>
        <time>2022-08-16T06:05:14Z</time>
      </trkpt>
      <trkpt lat="44.44002" lon="6.88118">
        <ele>2117</ele>
        <time>2022-08-16T06:05:15Z</time>
      </trkpt>
      <trkpt lat="44.44001" lon="6.8812">
        <ele>2117.2</ele>
        <time>2022-08-16T06:05:16Z</time>
      </trkpt>
      <trkpt lat="44.44" lon="6.88121">
        <ele>2117.2</ele>
        <time>2022-08-16T06:05:17Z</time>
      </trkpt>
      <trkpt lat="44.43999" lon="6.88122">
        <ele>2117.4</ele>
        <time>2022-08-16T06:05:18Z</time>
      </trkpt>
      <trkpt lat="44.43998" lon="6.88124">
        <ele>2117.6</ele>
        <time>2022-08-16T06:05:19Z</time>
      </trkpt>
      <trkpt lat="44.43998" lon="6.88125">
        <ele>2117.8</ele>
        <time>2022-08-16T06:05:20Z</time>
      </trkpt>
      <trkpt lat="44.43997" lon="6.88126">
        <ele>2117.8</ele>
        <time>2022-08-16T06:05:21Z</time>
      </trkpt>
      <trkpt lat="44.43996" lon="6.88128">
        <ele>2117.8</ele>
        <time>2022-08-16T06:05:22Z</time>
      </trkpt>
      <trkpt lat="44.43994" lon="6.88129">
        <ele>2118.2</ele>
        <time>2022-08-16T06:05:23Z</time>
      </trkpt>
      <trkpt lat="44.43993" lon="6.8813">
        <ele>2118.4</ele>
        <time>2022-08-16T06:05:24Z</time>
      </trkpt>
      <trkpt lat="44.43992" lon="6.88132">
        <ele>2118.4</ele>
        <time>2022-08-16T06:05:25Z</time>
      </trkpt>
      <trkpt lat="44.43991" lon="6.88133">
        <ele>2118.4</ele>
        <time>2022-08-16T06:05:26Z</time>
      </trkpt>
      <trkpt lat="44.43991" lon="6.88135">
        <ele>2118.6</ele>
        <time>2022-08-16T06:05:27Z</time>
      </trkpt>
      <trkpt lat="44.4399" lon="6.88136">
        <ele>2118.8</ele>
        <time>2022-08-16T06:05:28Z</time>
      </trkpt>
      <trkpt lat="44.43989" lon="6.88138">
        <ele>2118.8</ele>
        <time>2022-08-16T06:05:29Z</time>
      </trkpt>
      <trkpt lat="44.43988" lon="6.88139">
        <ele>2119</ele>
        <time>2022-08-16T06:05:30Z</time>
      </trkpt>
      <trkpt lat="44.43988" lon="6.88141">
        <ele>2119.2</ele>
        <time>2022-08-16T06:05:31Z</time>
      </trkpt>
      <trkpt lat="44.43987" lon="6.88142">
        <ele>2119.2</ele>
        <time>2022-08-16T06:05:32Z</time>
      </trkpt>
      <trkpt lat="44.43986" lon="6.88144">
        <ele>2119.4</ele>
        <time>2022-08-16T06:05:33Z</time>
      </trkpt>
      <trkpt lat="44.43985" lon="6.88145">
        <ele>2119.6</ele>
        <time>2022-08-16T06:05:34Z</time>
      </trkpt>
      <trkpt lat="44.43985" lon="6.88147">
        <ele>2119.8</ele>
        <time>2022-08-16T06:05:35Z</time>
      </trkpt>
      <trkpt lat="44.43984" lon="6.88148">
        <ele>2119.8</ele>
        <time>2022-08-16T06:05:36Z</time>
      </trkpt>
      <trkpt lat="44.43983" lon="6.8815">
        <ele>2120</ele>
        <time>2022-08-16T06:05:37Z</time>
      </trkpt>
      <trkpt lat="44.43983" lon="6.88152">
        <ele>2120</ele>
        <time>2022-08-16T06:05:38Z</time>
      </trkpt>
      <trkpt lat="44.43982" lon="6.88153">
        <ele>2120.2</ele>
        <time>2022-08-16T06:05:39Z</time>
      </trkpt>
      <trkpt lat="44.43981" lon="6.88155">
        <ele>2120.2</ele>
        <time>2022-08-16T06:05:40Z</time>
      </trkpt>
      <trkpt lat="44.4398" lon="6.88156">
        <ele>2120.2</ele>
        <time>2022-08-16T06:05:41Z</time>
      </trkpt>
      <trkpt lat="44.4398" lon="6.88157">
        <ele>2120.4</ele>
        <time>2022-08-16T06:05:42Z</time>
      </trkpt>
      <trkpt lat="44.43979" lon="6.88159">
        <ele>2120.6</ele>
        <time>2022-08-16T06:05:43Z</time>
      </trkpt>
      <trkpt lat="44.43978" lon="6.8816">
        <ele>2120.6</ele>
        <time>2022-08-16T06:05:44Z</time>
      </trkpt>
      <trkpt lat="44.43977" lon="6.88161">
        <ele>2120.8</ele>
        <time>2022-08-16T06:05:45Z</time>
      </trkpt>
      <trkpt lat="44.43976" lon="6.88162">
        <ele>2120.8</ele>
        <time>2022-08-16T06:05:46Z</time>
      </trkpt>
      <trkpt lat="44.43975" lon="6.88164">
        <ele>2120.8</ele>
        <time>2022-08-16T06:05:47Z</time>
      </trkpt>
      <trkpt lat="44.43975" lon="6.88165">
        <ele>2121</ele>
        <time>2022-08-16T06:05:48Z</time>
      </trkpt>
      <trkpt lat="44.43974" lon="6.88166">
        <ele>2121.2</ele>
        <time>2022-08-16T06:05:49Z</time>
      </trkpt>
      <trkpt lat="44.43973" lon="6.88167">
        <ele>2121.4</ele>
        <time>2022-08-16T06:05:50Z</time>
      </trkpt>
      <trkpt lat="44.43972" lon="6.88169">
        <ele>2121.6</ele>
        <time>2022-08-16T06:05:51Z</time>
      </trkpt>
      <trkpt lat="44.43971" lon="6.8817">
        <ele>2121.8</ele>
        <time>2022-08-16T06:05:52Z</time>
      </trkpt>
      <trkpt lat="44.4397" lon="6.8817">
        <ele>2122</ele>
        <time>2022-08-16T06:05:53Z</time>
      </trkpt>
      <trkpt lat="44.43969" lon="6.88171">
        <ele>2122.2</ele>
        <time>2022-08-16T06:05:54Z</time>
      </trkpt>
      <trkpt lat="44.43968" lon="6.88172">
        <ele>2122.2</ele>
        <time>2022-08-16T06:05:55Z</time>
      </trkpt>
      <trkpt lat="44.43967" lon="6.88173">
        <ele>2122.4</ele>
        <time>2022-08-16T06:05:56Z</time>
      </trkpt>
      <trkpt lat="44.43966" lon="6.88174">
        <ele>2122.6</ele>
        <time>2022-08-16T06:05:57Z</time>
      </trkpt>
      <trkpt lat="44.43965" lon="6.88175">
        <ele>2122.6</ele>
        <time>2022-08-16T06:05:58Z</time>
      </trkpt>
      <trkpt lat="44.43964" lon="6.88177">
        <ele>2122.8</ele>
        <time>2022-08-16T06:05:59Z</time>
      </trkpt>
      <trkpt lat="44.43963" lon="6.88178">
        <ele>2123</ele>
        <time>2022-08-16T06:06:00Z</time>
      </trkpt>
      <trkpt lat="44.43962" lon="6.88179">
        <ele>2123</ele>
        <time>2022-08-16T06:06:01Z</time>
      </trkpt>
      <trkpt lat="44.43961" lon="6.88181">
        <ele>2123.2</ele>
        <time>2022-08-16T06:06:02Z</time>
      </trkpt>
      <trkpt lat="44.4396" lon="6.88182">
        <ele>2123.6</ele>
        <time>2022-08-16T06:06:03Z</time>
      </trkpt>
      <trkpt lat="44.43959" lon="6.88183">
        <ele>2123.4</ele>
        <time>2022-08-16T06:06:04Z</time>
      </trkpt>
      <trkpt lat="44.43958" lon="6.88184">
        <ele>2123.6</ele>
        <time>2022-08-16T06:06:05Z</time>
      </trkpt>
      <trkpt lat="44.43957" lon="6.88186">
        <ele>2123.6</ele>
        <time>2022-08-16T06:06:06Z</time>
      </trkpt>
      <trkpt lat="44.43957" lon="6.88187">
        <ele>2123.8</ele>
        <time>2022-08-16T06:06:07Z</time>
      </trkpt>
      <trkpt lat="44.43956" lon="6.88188">
        <ele>2124</ele>
        <time>2022-08-16T06:06:08Z</time>
      </trkpt>
      <trkpt lat="44.43955" lon="6.8819">
        <ele>2123.8</ele>
        <time>2022-08-16T06:06:09Z</time>
      </trkpt>
      <trkpt lat="44.43954" lon="6.88191">
        <ele>2124.2</ele>
        <time>2022-08-16T06:06:10Z</time>
      </trkpt>
      <trkpt lat="44.43953" lon="6.88192">
        <ele>2124.2</ele>
        <time>2022-08-16T06:06:11Z</time>
      </trkpt>
      <trkpt lat="44.43952" lon="6.88194">
        <ele>2124.4</ele>
        <time>2022-08-16T06:06:12Z</time>
      </trkpt>
      <trkpt lat="44.43951" lon="6.88195">
        <ele>2124.4</ele>
        <time>2022-08-16T06:06:13Z</time>
      </trkpt>
      <trkpt lat="44.4395" lon="6.88197">
        <ele>2124.6</ele>
        <time>2022-08-16T06:06:14Z</time>
      </trkpt>
      <trkpt lat="44.4395" lon="6.88198">
        <ele>2124.8</ele>
        <time>2022-08-16T06:06:15Z</time>
      </trkpt>
      <trkpt lat="44.43949" lon="6.88199">
        <ele>2125.2</ele>
        <time>2022-08-16T06:06:16Z</time>
      </trkpt>
      <trkpt lat="44.43948" lon="6.88201">
        <ele>2125.2</ele>
        <time>2022-08-16T06:06:17Z</time>
      </trkpt>
      <trkpt lat="44.43948" lon="6.88202">
        <ele>2125.4</ele>
        <time>2022-08-16T06:06:18Z</time>
      </trkpt>
      <trkpt lat="44.43947" lon="6.88204">
        <ele>2125.4</ele>
        <time>2022-08-16T06:06:19Z</time>
      </trkpt>
      <trkpt lat="44.43947" lon="6.88205">
        <ele>2125.6</ele>
        <time>2022-08-16T06:06:20Z</time>
      </trkpt>
      <trkpt lat="44.43946" lon="6.88206">
        <ele>2125.8</ele>
        <time>2022-08-16T06:06:21Z</time>
      </trkpt>
      <trkpt lat="44.43945" lon="6.88208">
        <ele>2125.8</ele>
        <time>2022-08-16T06:06:22Z</time>
      </trkpt>
      <trkpt lat="44.43945" lon="6.88209">
        <ele>2126.2</ele>
        <time>2022-08-16T06:06:23Z</time>
      </trkpt>
      <trkpt lat="44.43944" lon="6.88211">
        <ele>2126.2</ele>
        <time>2022-08-16T06:06:24Z</time>
      </trkpt>
      <trkpt lat="44.43944" lon="6.88212">
        <ele>2126.2</ele>
        <time>2022-08-16T06:06:25Z</time>
      </trkpt>
      <trkpt lat="44.43943" lon="6.88214">
        <ele>2126.4</ele>
        <time>2022-08-16T06:06:26Z</time>
      </trkpt>
      <trkpt lat="44.43943" lon="6.88216">
        <ele>2126.4</ele>
        <time>2022-08-16T06:06:27Z</time>
      </trkpt>
      <trkpt lat="44.43942" lon="6.88217">
        <ele>2126.6</ele>
        <time>2022-08-16T06:06:28Z</time>
      </trkpt>
      <trkpt lat="44.43942" lon="6.88219">
        <ele>2126.8</ele>
        <time>2022-08-16T06:06:29Z</time>
      </trkpt>
      <trkpt lat="44.43941" lon="6.8822">
        <ele>2126.8</ele>
        <time>2022-08-16T06:06:30Z</time>
      </trkpt>
      <trkpt lat="44.43941" lon="6.88222">
        <ele>2127</ele>
        <time>2022-08-16T06:06:31Z</time>
      </trkpt>
      <trkpt lat="44.43941" lon="6.88224">
        <ele>2127.2</ele>
        <time>2022-08-16T06:06:32Z</time>
      </trkpt>
      <trkpt lat="44.4394" lon="6.88225">
        <ele>2127.4</ele>
        <time>2022-08-16T06:06:33Z</time>
      </trkpt>
      <trkpt lat="44.4394" lon="6.88227">
        <ele>2127.6</ele>
        <time>2022-08-16T06:06:34Z</time>
      </trkpt>
      <trkpt lat="44.43939" lon="6.88229">
        <ele>2127.8</ele>
        <time>2022-08-16T06:06:35Z</time>
      </trkpt>
      <trkpt lat="44.43939" lon="6.8823">
        <ele>2127.8</ele>
        <time>2022-08-16T06:06:36Z</time>
      </trkpt>
      <trkpt lat="44.43938" lon="6.88232">
        <ele>2128</ele>
        <time>2022-08-16T06:06:37Z</time>
      </trkpt>
      <trkpt lat="44.43937" lon="6.88234">
        <ele>2128</ele>
        <time>2022-08-16T06:06:38Z</time>
      </trkpt>
      <trkpt lat="44.43937" lon="6.88235">
        <ele>2128.2</ele>
        <time>2022-08-16T06:06:39Z</time>
      </trkpt>
      <trkpt lat="44.43936" lon="6.88237">
        <ele>2128.2</ele>
        <time>2022-08-16T06:06:40Z</time>
      </trkpt>
      <trkpt lat="44.43935" lon="6.88239">
        <ele>2128.4</ele>
        <time>2022-08-16T06:06:41Z</time>
      </trkpt>
      <trkpt lat="44.43934" lon="6.8824">
        <ele>2128.6</ele>
        <time>2022-08-16T06:06:42Z</time>
      </trkpt>
      <trkpt lat="44.43933" lon="6.88241">
        <ele>2128.6</ele>
        <time>2022-08-16T06:06:43Z</time>
      </trkpt>
      <trkpt lat="44.43932" lon="6.88243">
        <ele>2128.8</ele>
        <time>2022-08-16T06:06:44Z</time>
      </trkpt>
      <trkpt lat="44.43931" lon="6.88244">
        <ele>2129</ele>
        <time>2022-08-16T06:06:45Z</time>
      </trkpt>
      <trkpt lat="44.4393" lon="6.88245">
        <ele>2129</ele>
        <time>2022-08-16T06:06:46Z</time>
      </trkpt>
      <trkpt lat="44.43929" lon="6.88246">
        <ele>2129</ele>
        <time>2022-08-16T06:06:47Z</time>
      </trkpt>
      <trkpt lat="44.43928" lon="6.88248">
        <ele>2129.2</ele>
        <time>2022-08-16T06:06:48Z</time>
      </trkpt>
      <trkpt lat="44.43927" lon="6.88249">
        <ele>2129.4</ele>
        <time>2022-08-16T06:06:49Z</time>
      </trkpt>
      <trkpt lat="44.43927" lon="6.8825">
        <ele>2129.6</ele>
        <time>2022-08-16T06:06:50Z</time>
      </trkpt>
      <trkpt lat="44.43926" lon="6.88252">
        <ele>2129.6</ele>
        <time>2022-08-16T06:06:51Z</time>
      </trkpt>
      <trkpt lat="44.43925" lon="6.88253">
        <ele>2129.6</ele>
        <time>2022-08-16T06:06:52Z</time>
      </trkpt>
      <trkpt lat="44.43924" lon="6.88254">
        <ele>2129.8</ele>
        <time>2022-08-16T06:06:53Z</time>
      </trkpt>
      <trkpt lat="44.43923" lon="6.88256">
        <ele>2130</ele>
        <time>2022-08-16T06:06:54Z</time>
      </trkpt>
      <trkpt lat="44.43923" lon="6.88257">
        <ele>2130</ele>
        <time>2022-08-16T06:06:55Z</time>
      </trkpt>
      <trkpt lat="44.43922" lon="6.88259">
        <ele>2130</ele>
        <time>2022-08-16T06:06:56Z</time>
      </trkpt>
      <trkpt lat="44.43921" lon="6.8826">
        <ele>2130.2</ele>
        <time>2022-08-16T06:06:57Z</time>
      </trkpt>
      <trkpt lat="44.4392" lon="6.88261">
        <ele>2130.2</ele>
        <time>2022-08-16T06:06:58Z</time>
      </trkpt>
      <trkpt lat="44.43919" lon="6.88263">
        <ele>2130.4</ele>
        <time>2022-08-16T06:06:59Z</time>
      </trkpt>
      <trkpt lat="44.43918" lon="6.88264">
        <ele>2130.6</ele>
        <time>2022-08-16T06:07:00Z</time>
      </trkpt>
      <trkpt lat="44.43918" lon="6.88266">
        <ele>2131</ele>
        <time>2022-08-16T06:07:01Z</time>
      </trkpt>
      <trkpt lat="44.43917" lon="6.88267">
        <ele>2131</ele>
        <time>2022-08-16T06:07:02Z</time>
      </trkpt>
      <trkpt lat="44.43917" lon="6.88269">
        <ele>2131.4</ele>
        <time>2022-08-16T06:07:03Z</time>
      </trkpt>
      <trkpt lat="44.43916" lon="6.88271">
        <ele>2131.4</ele>
        <time>2022-08-16T06:07:04Z</time>
      </trkpt>
      <trkpt lat="44.43916" lon="6.88272">
        <ele>2131.4</ele>
        <time>2022-08-16T06:07:05Z</time>
      </trkpt>
      <trkpt lat="44.43915" lon="6.88274">
        <ele>2131.4</ele>
        <time>2022-08-16T06:07:06Z</time>
      </trkpt>
      <trkpt lat="44.43914" lon="6.88276">
        <ele>2131.6</ele>
        <time>2022-08-16T06:07:07Z</time>
      </trkpt>
      <trkpt lat="44.43913" lon="6.88277">
        <ele>2131.8</ele>
        <time>2022-08-16T06:07:08Z</time>
      </trkpt>
      <trkpt lat="44.43912" lon="6.88278">
        <ele>2131.8</ele>
        <time>2022-08-16T06:07:09Z</time>
      </trkpt>
      <trkpt lat="44.43912" lon="6.8828">
        <ele>2131.8</ele>
        <time>2022-08-16T06:07:10Z</time>
      </trkpt>
      <trkpt lat="44.43911" lon="6.88281">
        <ele>2132</ele>
        <time>2022-08-16T06:07:11Z</time>
      </trkpt>
      <trkpt lat="44.4391" lon="6.88282">
        <ele>2132.2</ele>
        <time>2022-08-16T06:07:12Z</time>
      </trkpt>
      <trkpt lat="44.43909" lon="6.88284">
        <ele>2132.4</ele>
        <time>2022-08-16T06:07:13Z</time>
      </trkpt>
      <trkpt lat="44.43909" lon="6.88285">
        <ele>2132.6</ele>
        <time>2022-08-16T06:07:14Z</time>
      </trkpt>
      <trkpt lat="44.43908" lon="6.88287">
        <ele>2132.8</ele>
        <time>2022-08-16T06:07:15Z</time>
      </trkpt>
      <trkpt lat="44.43908" lon="6.88289">
        <ele>2133</ele>
        <time>2022-08-16T06:07:16Z</time>
      </trkpt>
      <trkpt lat="44.43907" lon="6.8829">
        <ele>2133.4</ele>
        <time>2022-08-16T06:07:17Z</time>
      </trkpt>
      <trkpt lat="44.43906" lon="6.88291">
        <ele>2133.4</ele>
        <time>2022-08-16T06:07:18Z</time>
      </trkpt>
      <trkpt lat="44.43906" lon="6.88293">
        <ele>2133.6</ele>
        <time>2022-08-16T06:07:19Z</time>
      </trkpt>
      <trkpt lat="44.43905" lon="6.88294">
        <ele>2133.8</ele>
        <time>2022-08-16T06:07:20Z</time>
      </trkpt>
      <trkpt lat="44.43905" lon="6.88296">
        <ele>2134</ele>
        <time>2022-08-16T06:07:21Z</time>
      </trkpt>
      <trkpt lat="44.43904" lon="6.88297">
        <ele>2134</ele>
        <time>2022-08-16T06:07:22Z</time>
      </trkpt>
      <trkpt lat="44.43904" lon="6.88298">
        <ele>2133.8</ele>
        <time>2022-08-16T06:07:23Z</time>
      </trkpt>
      <trkpt lat="44.43903" lon="6.883">
        <ele>2134.2</ele>
        <time>2022-08-16T06:07:24Z</time>
      </trkpt>
      <trkpt lat="44.43902" lon="6.88301">
        <ele>2134.2</ele>
        <time>2022-08-16T06:07:25Z</time>
      </trkpt>
      <trkpt lat="44.43901" lon="6.88302">
        <ele>2134.2</ele>
        <time>2022-08-16T06:07:26Z</time>
      </trkpt>
      <trkpt lat="44.43901" lon="6.88304">
        <ele>2134.2</ele>
        <time>2022-08-16T06:07:27Z</time>
      </trkpt>
      <trkpt lat="44.43901" lon="6.88305">
        <ele>2134.4</ele>
        <time>2022-08-16T06:07:28Z</time>
      </trkpt>
      <trkpt lat="44.439" lon="6.88307">
        <ele>2134.6</ele>
        <time>2022-08-16T06:07:29Z</time>
      </trkpt>
      <trkpt lat="44.439" lon="6.88309">
        <ele>2134.6</ele>
        <time>2022-08-16T06:07:30Z</time>
      </trkpt>
      <trkpt lat="44.43899" lon="6.8831">
        <ele>2134.8</ele>
        <time>2022-08-16T06:07:31Z</time>
      </trkpt>
      <trkpt lat="44.43899" lon="6.88312">
        <ele>2135.2</ele>
        <time>2022-08-16T06:07:32Z</time>
      </trkpt>
      <trkpt lat="44.43899" lon="6.88314">
        <ele>2135.2</ele>
        <time>2022-08-16T06:07:33Z</time>
      </trkpt>
      <trkpt lat="44.43898" lon="6.88316">
        <ele>2135.2</ele>
        <time>2022-08-16T06:07:34Z</time>
      </trkpt>
      <trkpt lat="44.43898" lon="6.88317">
        <ele>2135.2</ele>
        <time>2022-08-16T06:07:35Z</time>
      </trkpt>
      <trkpt lat="44.43897" lon="6.88319">
        <ele>2135.4</ele>
        <time>2022-08-16T06:07:36Z</time>
      </trkpt>
      <trkpt lat="44.43897" lon="6.88321">
        <ele>2135.4</ele>
        <time>2022-08-16T06:07:37Z</time>
      </trkpt>
      <trkpt lat="44.43896" lon="6.88323">
        <ele>2135.8</ele>
        <time>2022-08-16T06:07:38Z</time>
      </trkpt>
      <trkpt lat="44.43896" lon="6.88324">
        <ele>2135.8</ele>
        <time>2022-08-16T06:07:39Z</time>
      </trkpt>
      <trkpt lat="44.43896" lon="6.88326">
        <ele>2135.8</ele>
        <time>2022-08-16T06:07:40Z</time>
      </trkpt>
      <trkpt lat="44.43895" lon="6.88328">
        <ele>2135.8</ele>
        <time>2022-08-16T06:07:41Z</time>
      </trkpt>
      <trkpt lat="44.43895" lon="6.88329">
        <ele>2136</ele>
        <time>2022-08-16T06:07:42Z</time>
      </trkpt>
      <trkpt lat="44.43895" lon="6.88331">
        <ele>2136.2</ele>
        <time>2022-08-16T06:07:43Z</time>
      </trkpt>
      <trkpt lat="44.43894" lon="6.88332">
        <ele>2136.2</ele>
        <time>2022-08-16T06:07:44Z</time>
      </trkpt>
      <trkpt lat="44.43894" lon="6.88334">
        <ele>2136.4</ele>
        <time>2022-08-16T06:07:45Z</time>
      </trkpt>
      <trkpt lat="44.43894" lon="6.88335">
        <ele>2136.6</ele>
        <time>2022-08-16T06:07:46Z</time>
      </trkpt>
      <trkpt lat="44.43893" lon="6.88337">
        <ele>2136.8</ele>
        <time>2022-08-16T06:07:47Z</time>
      </trkpt>
      <trkpt lat="44.43893" lon="6.88338">
        <ele>2136.8</ele>
        <time>2022-08-16T06:07:48Z</time>
      </trkpt>
      <trkpt lat="44.43893" lon="6.8834">
        <ele>2137</ele>
        <time>2022-08-16T06:07:49Z</time>
      </trkpt>
      <trkpt lat="44.43892" lon="6.88342">
        <ele>2137</ele>
        <time>2022-08-16T06:07:50Z</time>
      </trkpt>
      <trkpt lat="44.43892" lon="6.88343">
        <ele>2137.4</ele>
        <time>2022-08-16T06:07:51Z</time>
      </trkpt>
      <trkpt lat="44.43891" lon="6.88345">
        <ele>2137.4</ele>
        <time>2022-08-16T06:07:52Z</time>
      </trkpt>
      <trkpt lat="44.4389" lon="6.88346">
        <ele>2137.4</ele>
        <time>2022-08-16T06:07:53Z</time>
      </trkpt>
      <trkpt lat="44.43889" lon="6.88347">
        <ele>2137.6</ele>
        <time>2022-08-16T06:07:54Z</time>
      </trkpt>
      <trkpt lat="44.43888" lon="6.88348">
        <ele>2137.8</ele>
        <time>2022-08-16T06:07:55Z</time>
      </trkpt>
      <trkpt lat="44.43887" lon="6.8835">
        <ele>2137.8</ele>
        <time>2022-08-16T06:07:56Z</time>
      </trkpt>
      <trkpt lat="44.43886" lon="6.8835">
        <ele>2137.8</ele>
        <time>2022-08-16T06:07:57Z</time>
      </trkpt>
      <trkpt lat="44.43886" lon="6.88351">
        <ele>2138</ele>
        <time>2022-08-16T06:07:58Z</time>
      </trkpt>
      <trkpt lat="44.43885" lon="6.88352">
        <ele>2138.2</ele>
        <time>2022-08-16T06:07:59Z</time>
      </trkpt>
      <trkpt lat="44.43884" lon="6.88353">
        <ele>2138.4</ele>
        <time>2022-08-16T06:08:00Z</time>
      </trkpt>
      <trkpt lat="44.43883" lon="6.88354">
        <ele>2138.4</ele>
        <time>2022-08-16T06:08:01Z</time>
      </trkpt>
      <trkpt lat="44.43883" lon="6.88355">
        <ele>2138.6</ele>
        <time>2022-08-16T06:08:02Z</time>
      </trkpt>
      <trkpt lat="44.43882" lon="6.88356">
        <ele>2138.6</ele>
        <time>2022-08-16T06:08:03Z</time>
      </trkpt>
      <trkpt lat="44.43881" lon="6.88358">
        <ele>2138.8</ele>
        <time>2022-08-16T06:08:04Z</time>
      </trkpt>
      <trkpt lat="44.43881" lon="6.88359">
        <ele>2139</ele>
        <time>2022-08-16T06:08:05Z</time>
      </trkpt>
      <trkpt lat="44.4388" lon="6.8836">
        <ele>2139</ele>
        <time>2022-08-16T06:08:06Z</time>
      </trkpt>
      <trkpt lat="44.43879" lon="6.88361">
        <ele>2139.2</ele>
        <time>2022-08-16T06:08:07Z</time>
      </trkpt>
      <trkpt lat="44.43878" lon="6.88362">
        <ele>2139.4</ele>
        <time>2022-08-16T06:08:08Z</time>
      </trkpt>
      <trkpt lat="44.43878" lon="6.88364">
        <ele>2139.4</ele>
        <time>2022-08-16T06:08:09Z</time>
      </trkpt>
      <trkpt lat="44.43877" lon="6.88365">
        <ele>2139.8</ele>
        <time>2022-08-16T06:08:10Z</time>
      </trkpt>
      <trkpt lat="44.43876" lon="6.88366">
        <ele>2139.8</ele>
        <time>2022-08-16T06:08:11Z</time>
      </trkpt>
      <trkpt lat="44.43876" lon="6.88367">
        <ele>2140.4</ele>
        <time>2022-08-16T06:08:12Z</time>
      </trkpt>
      <trkpt lat="44.43876" lon="6.88369">
        <ele>2140.4</ele>
        <time>2022-08-16T06:08:13Z</time>
      </trkpt>
      <trkpt lat="44.43875" lon="6.8837">
        <ele>2140.4</ele>
        <time>2022-08-16T06:08:14Z</time>
      </trkpt>
      <trkpt lat="44.43875" lon="6.88371">
        <ele>2140.6</ele>
        <time>2022-08-16T06:08:15Z</time>
      </trkpt>
      <trkpt lat="44.43874" lon="6.88373">
        <ele>2140.8</ele>
        <time>2022-08-16T06:08:16Z</time>
      </trkpt>
      <trkpt lat="44.43873" lon="6.88374">
        <ele>2141</ele>
        <time>2022-08-16T06:08:17Z</time>
      </trkpt>
      <trkpt lat="44.43873" lon="6.88376">
        <ele>2141.2</ele>
        <time>2022-08-16T06:08:18Z</time>
      </trkpt>
      <trkpt lat="44.43873" lon="6.88377">
        <ele>2141.2</ele>
        <time>2022-08-16T06:08:19Z</time>
      </trkpt>
      <trkpt lat="44.43872" lon="6.88378">
        <ele>2141.2</ele>
        <time>2022-08-16T06:08:20Z</time>
      </trkpt>
      <trkpt lat="44.43872" lon="6.88379">
        <ele>2141.4</ele>
        <time>2022-08-16T06:08:22Z</time>
      </trkpt>
      <trkpt lat="44.43872" lon="6.88379">
        <ele>2142.4</ele>
        <time>2022-08-16T06:08:34Z</time>
      </trkpt>
      <trkpt lat="44.43872" lon="6.88379">
        <ele>2141.8</ele>
        <time>2022-08-16T06:09:04Z</time>
      </trkpt>
      <trkpt lat="44.43871" lon="6.88379">
        <ele>2142</ele>
        <time>2022-08-16T06:09:21Z</time>
      </trkpt>
      <trkpt lat="44.43872" lon="6.88379">
        <ele>2142.2</ele>
        <time>2022-08-16T06:09:23Z</time>
      </trkpt>
      <trkpt lat="44.43869" lon="6.88383">
        <ele>2142.8</ele>
        <time>2022-08-16T06:09:31Z</time>
      </trkpt>
      <trkpt lat="44.43868" lon="6.88384">
        <ele>2142.6</ele>
        <time>2022-08-16T06:09:32Z</time>
      </trkpt>
      <trkpt lat="44.43867" lon="6.88385">
        <ele>2142.8</ele>
        <time>2022-08-16T06:09:33Z</time>
      </trkpt>
      <trkpt lat="44.43864" lon="6.88388">
        <ele>2142.8</ele>
        <time>2022-08-16T06:09:36Z</time>
      </trkpt>
      <trkpt lat="44.43863" lon="6.88389">
        <ele>2142.8</ele>
        <time>2022-08-16T06:09:37Z</time>
      </trkpt>
      <trkpt lat="44.43862" lon="6.8839">
        <ele>2142.8</ele>
        <time>2022-08-16T06:09:38Z</time>
      </trkpt>
      <trkpt lat="44.43858" lon="6.88396">
        <ele>2143.2</ele>
        <time>2022-08-16T06:09:42Z</time>
      </trkpt>
      <trkpt lat="44.43857" lon="6.88398">
        <ele>2143.4</ele>
        <time>2022-08-16T06:09:43Z</time>
      </trkpt>
      <trkpt lat="44.43855" lon="6.88402">
        <ele>2143.8</ele>
        <time>2022-08-16T06:09:46Z</time>
      </trkpt>
      <trkpt lat="44.43854" lon="6.88403">
        <ele>2143.8</ele>
        <time>2022-08-16T06:09:47Z</time>
      </trkpt>
      <trkpt lat="44.43853" lon="6.88405">
        <ele>2144</ele>
        <time>2022-08-16T06:09:48Z</time>
      </trkpt>
      <trkpt lat="44.43852" lon="6.88406">
        <ele>2144</ele>
        <time>2022-08-16T06:09:49Z</time>
      </trkpt>
      <trkpt lat="44.43852" lon="6.88408">
        <ele>2144.2</ele>
        <time>2022-08-16T06:09:50Z</time>
      </trkpt>
      <trkpt lat="44.43851" lon="6.88409">
        <ele>2144.4</ele>
        <time>2022-08-16T06:09:51Z</time>
      </trkpt>
      <trkpt lat="44.43851" lon="6.88411">
        <ele>2144.4</ele>
        <time>2022-08-16T06:09:52Z</time>
      </trkpt>
      <trkpt lat="44.4385" lon="6.88412">
        <ele>2144.4</ele>
        <time>2022-08-16T06:09:53Z</time>
      </trkpt>
      <trkpt lat="44.43849" lon="6.88413">
        <ele>2144.6</ele>
        <time>2022-08-16T06:09:54Z</time>
      </trkpt>
      <trkpt lat="44.43848" lon="6.88414">
        <ele>2144.6</ele>
        <time>2022-08-16T06:09:55Z</time>
      </trkpt>
      <trkpt lat="44.43848" lon="6.88415">
        <ele>2144.8</ele>
        <time>2022-08-16T06:09:56Z</time>
      </trkpt>
      <trkpt lat="44.43847" lon="6.88417">
        <ele>2145</ele>
        <time>2022-08-16T06:09:57Z</time>
      </trkpt>
      <trkpt lat="44.43847" lon="6.88418">
        <ele>2145.2</ele>
        <time>2022-08-16T06:09:58Z</time>
      </trkpt>
      <trkpt lat="44.43846" lon="6.8842">
        <ele>2145.4</ele>
        <time>2022-08-16T06:09:59Z</time>
      </trkpt>
      <trkpt lat="44.43846" lon="6.88421">
        <ele>2145.4</ele>
        <time>2022-08-16T06:10:00Z</time>
      </trkpt>
      <trkpt lat="44.43845" lon="6.88423">
        <ele>2145.6</ele>
        <time>2022-08-16T06:10:01Z</time>
      </trkpt>
      <trkpt lat="44.43844" lon="6.88424">
        <ele>2145.6</ele>
        <time>2022-08-16T06:10:02Z</time>
      </trkpt>
      <trkpt lat="44.43844" lon="6.88425">
        <ele>2145.8</ele>
        <time>2022-08-16T06:10:03Z</time>
      </trkpt>
      <trkpt lat="44.43843" lon="6.88427">
        <ele>2145.8</ele>
        <time>2022-08-16T06:10:04Z</time>
      </trkpt>
      <trkpt lat="44.43843" lon="6.88429">
        <ele>2146.2</ele>
        <time>2022-08-16T06:10:05Z</time>
      </trkpt>
      <trkpt lat="44.43843" lon="6.8843">
        <ele>2146.2</ele>
        <time>2022-08-16T06:10:06Z</time>
      </trkpt>
      <trkpt lat="44.43842" lon="6.88432">
        <ele>2146.2</ele>
        <time>2022-08-16T06:10:07Z</time>
      </trkpt>
      <trkpt lat="44.43842" lon="6.88434">
        <ele>2146.6</ele>
        <time>2022-08-16T06:10:08Z</time>
      </trkpt>
      <trkpt lat="44.43842" lon="6.88435">
        <ele>2146.6</ele>
        <time>2022-08-16T06:10:09Z</time>
      </trkpt>
      <trkpt lat="44.43841" lon="6.88437">
        <ele>2146.8</ele>
        <time>2022-08-16T06:10:10Z</time>
      </trkpt>
      <trkpt lat="44.43841" lon="6.88438">
        <ele>2147</ele>
        <time>2022-08-16T06:10:11Z</time>
      </trkpt>
      <trkpt lat="44.4384" lon="6.8844">
        <ele>2147</ele>
        <time>2022-08-16T06:10:12Z</time>
      </trkpt>
      <trkpt lat="44.4384" lon="6.88442">
        <ele>2147.2</ele>
        <time>2022-08-16T06:10:13Z</time>
      </trkpt>
      <trkpt lat="44.43839" lon="6.88443">
        <ele>2147.2</ele>
        <time>2022-08-16T06:10:14Z</time>
      </trkpt>
      <trkpt lat="44.43839" lon="6.88445">
        <ele>2147.2</ele>
        <time>2022-08-16T06:10:15Z</time>
      </trkpt>
      <trkpt lat="44.43839" lon="6.88447">
        <ele>2147.6</ele>
        <time>2022-08-16T06:10:16Z</time>
      </trkpt>
      <trkpt lat="44.43839" lon="6.88448">
        <ele>2147.8</ele>
        <time>2022-08-16T06:10:17Z</time>
      </trkpt>
      <trkpt lat="44.43838" lon="6.8845">
        <ele>2148</ele>
        <time>2022-08-16T06:10:18Z</time>
      </trkpt>
      <trkpt lat="44.43838" lon="6.88452">
        <ele>2148.2</ele>
        <time>2022-08-16T06:10:19Z</time>
      </trkpt>
      <trkpt lat="44.43837" lon="6.88453">
        <ele>2148.4</ele>
        <time>2022-08-16T06:10:20Z</time>
      </trkpt>
      <trkpt lat="44.43837" lon="6.88455">
        <ele>2148.6</ele>
        <time>2022-08-16T06:10:21Z</time>
      </trkpt>
      <trkpt lat="44.43836" lon="6.88457">
        <ele>2148.6</ele>
        <time>2022-08-16T06:10:22Z</time>
      </trkpt>
      <trkpt lat="44.43836" lon="6.88458">
        <ele>2148.8</ele>
        <time>2022-08-16T06:10:23Z</time>
      </trkpt>
      <trkpt lat="44.43835" lon="6.8846">
        <ele>2148.8</ele>
        <time>2022-08-16T06:10:24Z</time>
      </trkpt>
      <trkpt lat="44.43834" lon="6.88462">
        <ele>2149.2</ele>
        <time>2022-08-16T06:10:25Z</time>
      </trkpt>
      <trkpt lat="44.43834" lon="6.88464">
        <ele>2149.2</ele>
        <time>2022-08-16T06:10:26Z</time>
      </trkpt>
      <trkpt lat="44.43833" lon="6.88465">
        <ele>2149.4</ele>
        <time>2022-08-16T06:10:27Z</time>
      </trkpt>
      <trkpt lat="44.43832" lon="6.88467">
        <ele>2149.6</ele>
        <time>2022-08-16T06:10:28Z</time>
      </trkpt>
      <trkpt lat="44.43832" lon="6.88469">
        <ele>2149.8</ele>
        <time>2022-08-16T06:10:29Z</time>
      </trkpt>
      <trkpt lat="44.43831" lon="6.88471">
        <ele>2150</ele>
        <time>2022-08-16T06:10:30Z</time>
      </trkpt>
      <trkpt lat="44.4383" lon="6.88472">
        <ele>2150</ele>
        <time>2022-08-16T06:10:31Z</time>
      </trkpt>
      <trkpt lat="44.43829" lon="6.88474">
        <ele>2150</ele>
        <time>2022-08-16T06:10:32Z</time>
      </trkpt>
      <trkpt lat="44.43827" lon="6.88476">
        <ele>2150.4</ele>
        <time>2022-08-16T06:10:33Z</time>
      </trkpt>
      <trkpt lat="44.43826" lon="6.88477">
        <ele>2150.6</ele>
        <time>2022-08-16T06:10:34Z</time>
      </trkpt>
      <trkpt lat="44.43825" lon="6.88478">
        <ele>2150.6</ele>
        <time>2022-08-16T06:10:35Z</time>
      </trkpt>
      <trkpt lat="44.43824" lon="6.8848">
        <ele>2150.6</ele>
        <time>2022-08-16T06:10:36Z</time>
      </trkpt>
      <trkpt lat="44.43823" lon="6.88481">
        <ele>2150.6</ele>
        <time>2022-08-16T06:10:37Z</time>
      </trkpt>
      <trkpt lat="44.43821" lon="6.88482">
        <ele>2150.6</ele>
        <time>2022-08-16T06:10:38Z</time>
      </trkpt>
      <trkpt lat="44.4382" lon="6.88483">
        <ele>2150.6</ele>
        <time>2022-08-16T06:10:39Z</time>
      </trkpt>
      <trkpt lat="44.43819" lon="6.88484">
        <ele>2150.8</ele>
        <time>2022-08-16T06:10:40Z</time>
      </trkpt>
      <trkpt lat="44.43818" lon="6.88486">
        <ele>2151</ele>
        <time>2022-08-16T06:10:41Z</time>
      </trkpt>
      <trkpt lat="44.43817" lon="6.88487">
        <ele>2151.2</ele>
        <time>2022-08-16T06:10:42Z</time>
      </trkpt>
      <trkpt lat="44.43816" lon="6.88488">
        <ele>2151.4</ele>
        <time>2022-08-16T06:10:43Z</time>
      </trkpt>
      <trkpt lat="44.43815" lon="6.88489">
        <ele>2151.6</ele>
        <time>2022-08-16T06:10:44Z</time>
      </trkpt>
      <trkpt lat="44.43814" lon="6.8849">
        <ele>2151.6</ele>
        <time>2022-08-16T06:10:45Z</time>
      </trkpt>
      <trkpt lat="44.43813" lon="6.88491">
        <ele>2152</ele>
        <time>2022-08-16T06:10:46Z</time>
      </trkpt>
      <trkpt lat="44.43812" lon="6.88493">
        <ele>2152</ele>
        <time>2022-08-16T06:10:47Z</time>
      </trkpt>
      <trkpt lat="44.43811" lon="6.88494">
        <ele>2152.2</ele>
        <time>2022-08-16T06:10:48Z</time>
      </trkpt>
      <trkpt lat="44.4381" lon="6.88496">
        <ele>2152.4</ele>
        <time>2022-08-16T06:10:49Z</time>
      </trkpt>
      <trkpt lat="44.43809" lon="6.88497">
        <ele>2152.4</ele>
        <time>2022-08-16T06:10:50Z</time>
      </trkpt>
      <trkpt lat="44.43808" lon="6.88498">
        <ele>2152.4</ele>
        <time>2022-08-16T06:10:51Z</time>
      </trkpt>
      <trkpt lat="44.43807" lon="6.88499">
        <ele>2152.6</ele>
        <time>2022-08-16T06:10:52Z</time>
      </trkpt>
      <trkpt lat="44.43807" lon="6.88501">
        <ele>2152.6</ele>
        <time>2022-08-16T06:10:53Z</time>
      </trkpt>
      <trkpt lat="44.43806" lon="6.88502">
        <ele>2152.6</ele>
        <time>2022-08-16T06:10:54Z</time>
      </trkpt>
      <trkpt lat="44.43805" lon="6.88504">
        <ele>2152.6</ele>
        <time>2022-08-16T06:10:55Z</time>
      </trkpt>
      <trkpt lat="44.43804" lon="6.88505">
        <ele>2152.8</ele>
        <time>2022-08-16T06:10:56Z</time>
      </trkpt>
      <trkpt lat="44.43803" lon="6.88507">
        <ele>2153</ele>
        <time>2022-08-16T06:10:57Z</time>
      </trkpt>
      <trkpt lat="44.43802" lon="6.88508">
        <ele>2153</ele>
        <time>2022-08-16T06:10:58Z</time>
      </trkpt>
      <trkpt lat="44.43802" lon="6.8851">
        <ele>2153.2</ele>
        <time>2022-08-16T06:10:59Z</time>
      </trkpt>
      <trkpt lat="44.43801" lon="6.88511">
        <ele>2153.4</ele>
        <time>2022-08-16T06:11:00Z</time>
      </trkpt>
      <trkpt lat="44.438" lon="6.88513">
        <ele>2153.4</ele>
        <time>2022-08-16T06:11:01Z</time>
      </trkpt>
      <trkpt lat="44.438" lon="6.88514">
        <ele>2153.6</ele>
        <time>2022-08-16T06:11:02Z</time>
      </trkpt>
      <trkpt lat="44.43799" lon="6.88516">
        <ele>2153.6</ele>
        <time>2022-08-16T06:11:03Z</time>
      </trkpt>
      <trkpt lat="44.43798" lon="6.88518">
        <ele>2153.8</ele>
        <time>2022-08-16T06:11:04Z</time>
      </trkpt>
      <trkpt lat="44.43797" lon="6.88519">
        <ele>2153.8</ele>
        <time>2022-08-16T06:11:05Z</time>
      </trkpt>
      <trkpt lat="44.43796" lon="6.88521">
        <ele>2154.2</ele>
        <time>2022-08-16T06:11:06Z</time>
      </trkpt>
      <trkpt lat="44.43795" lon="6.88522">
        <ele>2154.2</ele>
        <time>2022-08-16T06:11:07Z</time>
      </trkpt>
      <trkpt lat="44.43795" lon="6.88524">
        <ele>2154.6</ele>
        <time>2022-08-16T06:11:08Z</time>
      </trkpt>
      <trkpt lat="44.43794" lon="6.88525">
        <ele>2154.6</ele>
        <time>2022-08-16T06:11:09Z</time>
      </trkpt>
      <trkpt lat="44.43793" lon="6.88527">
        <ele>2154.8</ele>
        <time>2022-08-16T06:11:10Z</time>
      </trkpt>
      <trkpt lat="44.43792" lon="6.88528">
        <ele>2155</ele>
        <time>2022-08-16T06:11:11Z</time>
      </trkpt>
      <trkpt lat="44.43791" lon="6.88529">
        <ele>2155.2</ele>
        <time>2022-08-16T06:11:12Z</time>
      </trkpt>
      <trkpt lat="44.4379" lon="6.88531">
        <ele>2155.2</ele>
        <time>2022-08-16T06:11:13Z</time>
      </trkpt>
      <trkpt lat="44.43789" lon="6.88532">
        <ele>2155.4</ele>
        <time>2022-08-16T06:11:14Z</time>
      </trkpt>
      <trkpt lat="44.43788" lon="6.88533">
        <ele>2155.6</ele>
        <time>2022-08-16T06:11:15Z</time>
      </trkpt>
      <trkpt lat="44.43787" lon="6.88535">
        <ele>2155.6</ele>
        <time>2022-08-16T06:11:16Z</time>
      </trkpt>
      <trkpt lat="44.43787" lon="6.88536">
        <ele>2155.8</ele>
        <time>2022-08-16T06:11:17Z</time>
      </trkpt>
      <trkpt lat="44.43786" lon="6.88538">
        <ele>2156</ele>
        <time>2022-08-16T06:11:18Z</time>
      </trkpt>
      <trkpt lat="44.43785" lon="6.88539">
        <ele>2156.2</ele>
        <time>2022-08-16T06:11:19Z</time>
      </trkpt>
      <trkpt lat="44.43784" lon="6.8854">
        <ele>2156.4</ele>
        <time>2022-08-16T06:11:20Z</time>
      </trkpt>
      <trkpt lat="44.43783" lon="6.88542">
        <ele>2156.6</ele>
        <time>2022-08-16T06:11:21Z</time>
      </trkpt>
      <trkpt lat="44.43782" lon="6.88543">
        <ele>2156.6</ele>
        <time>2022-08-16T06:11:22Z</time>
      </trkpt>
      <trkpt lat="44.43781" lon="6.88544">
        <ele>2156.6</ele>
        <time>2022-08-16T06:11:23Z</time>
      </trkpt>
      <trkpt lat="44.4378" lon="6.88545">
        <ele>2156.8</ele>
        <time>2022-08-16T06:11:24Z</time>
      </trkpt>
      <trkpt lat="44.43779" lon="6.88547">
        <ele>2156.8</ele>
        <time>2022-08-16T06:11:25Z</time>
      </trkpt>
      <trkpt lat="44.43778" lon="6.88548">
        <ele>2156.8</ele>
        <time>2022-08-16T06:11:26Z</time>
      </trkpt>
      <trkpt lat="44.43778" lon="6.8855">
        <ele>2157</ele>
        <time>2022-08-16T06:11:27Z</time>
      </trkpt>
      <trkpt lat="44.43777" lon="6.88551">
        <ele>2157</ele>
        <time>2022-08-16T06:11:28Z</time>
      </trkpt>
      <trkpt lat="44.43776" lon="6.88553">
        <ele>2157.2</ele>
        <time>2022-08-16T06:11:29Z</time>
      </trkpt>
      <trkpt lat="44.43776" lon="6.88554">
        <ele>2157.2</ele>
        <time>2022-08-16T06:11:30Z</time>
      </trkpt>
      <trkpt lat="44.43775" lon="6.88555">
        <ele>2157.4</ele>
        <time>2022-08-16T06:11:31Z</time>
      </trkpt>
      <trkpt lat="44.43774" lon="6.88557">
        <ele>2157.8</ele>
        <time>2022-08-16T06:11:32Z</time>
      </trkpt>
      <trkpt lat="44.43773" lon="6.88558">
        <ele>2157.8</ele>
        <time>2022-08-16T06:11:33Z</time>
      </trkpt>
      <trkpt lat="44.43772" lon="6.8856">
        <ele>2158</ele>
        <time>2022-08-16T06:11:34Z</time>
      </trkpt>
      <trkpt lat="44.43772" lon="6.88561">
        <ele>2158</ele>
        <time>2022-08-16T06:11:35Z</time>
      </trkpt>
      <trkpt lat="44.43771" lon="6.88562">
        <ele>2158</ele>
        <time>2022-08-16T06:11:36Z</time>
      </trkpt>
      <trkpt lat="44.4377" lon="6.88564">
        <ele>2158.2</ele>
        <time>2022-08-16T06:11:37Z</time>
      </trkpt>
      <trkpt lat="44.43769" lon="6.88565">
        <ele>2158.2</ele>
        <time>2022-08-16T06:11:38Z</time>
      </trkpt>
      <trkpt lat="44.43768" lon="6.88567">
        <ele>2158.4</ele>
        <time>2022-08-16T06:11:39Z</time>
      </trkpt>
      <trkpt lat="44.43767" lon="6.88568">
        <ele>2158.6</ele>
        <time>2022-08-16T06:11:40Z</time>
      </trkpt>
      <trkpt lat="44.43766" lon="6.88569">
        <ele>2158.6</ele>
        <time>2022-08-16T06:11:41Z</time>
      </trkpt>
      <trkpt lat="44.43765" lon="6.88571">
        <ele>2159</ele>
        <time>2022-08-16T06:11:42Z</time>
      </trkpt>
      <trkpt lat="44.43764" lon="6.88572">
        <ele>2159</ele>
        <time>2022-08-16T06:11:43Z</time>
      </trkpt>
      <trkpt lat="44.43764" lon="6.88574">
        <ele>2159</ele>
        <time>2022-08-16T06:11:44Z</time>
      </trkpt>
      <trkpt lat="44.43763" lon="6.88576">
        <ele>2159.2</ele>
        <time>2022-08-16T06:11:45Z</time>
      </trkpt>
      <trkpt lat="44.43762" lon="6.88577">
        <ele>2159.2</ele>
        <time>2022-08-16T06:11:46Z</time>
      </trkpt>
      <trkpt lat="44.43761" lon="6.88579">
        <ele>2159.4</ele>
        <time>2022-08-16T06:11:47Z</time>
      </trkpt>
      <trkpt lat="44.43761" lon="6.8858">
        <ele>2159.4</ele>
        <time>2022-08-16T06:11:48Z</time>
      </trkpt>
      <trkpt lat="44.4376" lon="6.88581">
        <ele>2159.4</ele>
        <time>2022-08-16T06:11:49Z</time>
      </trkpt>
      <trkpt lat="44.43759" lon="6.88583">
        <ele>2159.6</ele>
        <time>2022-08-16T06:11:50Z</time>
      </trkpt>
      <trkpt lat="44.43758" lon="6.88584">
        <ele>2159.8</ele>
        <time>2022-08-16T06:11:51Z</time>
      </trkpt>
      <trkpt lat="44.43758" lon="6.88586">
        <ele>2160</ele>
        <time>2022-08-16T06:11:52Z</time>
      </trkpt>
      <trkpt lat="44.43757" lon="6.88587">
        <ele>2160</ele>
        <time>2022-08-16T06:11:53Z</time>
      </trkpt>
      <trkpt lat="44.43756" lon="6.88589">
        <ele>2160</ele>
        <time>2022-08-16T06:11:54Z</time>
      </trkpt>
      <trkpt lat="44.43755" lon="6.8859">
        <ele>2160.2</ele>
        <time>2022-08-16T06:11:55Z</time>
      </trkpt>
      <trkpt lat="44.43754" lon="6.88592">
        <ele>2160.2</ele>
        <time>2022-08-16T06:11:56Z</time>
      </trkpt>
      <trkpt lat="44.43754" lon="6.88593">
        <ele>2160.8</ele>
        <time>2022-08-16T06:11:57Z</time>
      </trkpt>
      <trkpt lat="44.43753" lon="6.88594">
        <ele>2160.8</ele>
        <time>2022-08-16T06:11:58Z</time>
      </trkpt>
      <trkpt lat="44.43752" lon="6.88596">
        <ele>2161</ele>
        <time>2022-08-16T06:11:59Z</time>
      </trkpt>
      <trkpt lat="44.43752" lon="6.88598">
        <ele>2161.2</ele>
        <time>2022-08-16T06:12:00Z</time>
      </trkpt>
      <trkpt lat="44.43751" lon="6.88599">
        <ele>2161.2</ele>
        <time>2022-08-16T06:12:01Z</time>
      </trkpt>
      <trkpt lat="44.43751" lon="6.886">
        <ele>2161.2</ele>
        <time>2022-08-16T06:12:02Z</time>
      </trkpt>
      <trkpt lat="44.4375" lon="6.88602">
        <ele>2161.4</ele>
        <time>2022-08-16T06:12:03Z</time>
      </trkpt>
      <trkpt lat="44.4375" lon="6.88604">
        <ele>2161.4</ele>
        <time>2022-08-16T06:12:04Z</time>
      </trkpt>
      <trkpt lat="44.43749" lon="6.88605">
        <ele>2161.4</ele>
        <time>2022-08-16T06:12:05Z</time>
      </trkpt>
      <trkpt lat="44.43748" lon="6.88607">
        <ele>2161.6</ele>
        <time>2022-08-16T06:12:06Z</time>
      </trkpt>
      <trkpt lat="44.43748" lon="6.88608">
        <ele>2161.6</ele>
        <time>2022-08-16T06:12:07Z</time>
      </trkpt>
      <trkpt lat="44.43747" lon="6.88609">
        <ele>2161.8</ele>
        <time>2022-08-16T06:12:08Z</time>
      </trkpt>
      <trkpt lat="44.43746" lon="6.88611">
        <ele>2161.8</ele>
        <time>2022-08-16T06:12:09Z</time>
      </trkpt>
      <trkpt lat="44.43745" lon="6.88612">
        <ele>2162</ele>
        <time>2022-08-16T06:12:10Z</time>
      </trkpt>
      <trkpt lat="44.43744" lon="6.88613">
        <ele>2162.2</ele>
        <time>2022-08-16T06:12:11Z</time>
      </trkpt>
      <trkpt lat="44.43743" lon="6.88614">
        <ele>2162.2</ele>
        <time>2022-08-16T06:12:12Z</time>
      </trkpt>
      <trkpt lat="44.43742" lon="6.88615">
        <ele>2162.2</ele>
        <time>2022-08-16T06:12:13Z</time>
      </trkpt>
      <trkpt lat="44.43742" lon="6.88617">
        <ele>2162.2</ele>
        <time>2022-08-16T06:12:14Z</time>
      </trkpt>
      <trkpt lat="44.43741" lon="6.88618">
        <ele>2162.6</ele>
        <time>2022-08-16T06:12:15Z</time>
      </trkpt>
      <trkpt lat="44.4374" lon="6.88619">
        <ele>2162.8</ele>
        <time>2022-08-16T06:12:16Z</time>
      </trkpt>
      <trkpt lat="44.43739" lon="6.8862">
        <ele>2162.8</ele>
        <time>2022-08-16T06:12:17Z</time>
      </trkpt>
      <trkpt lat="44.43738" lon="6.88622">
        <ele>2163</ele>
        <time>2022-08-16T06:12:18Z</time>
      </trkpt>
      <trkpt lat="44.43737" lon="6.88623">
        <ele>2163</ele>
        <time>2022-08-16T06:12:19Z</time>
      </trkpt>
      <trkpt lat="44.43737" lon="6.88624">
        <ele>2163.4</ele>
        <time>2022-08-16T06:12:20Z</time>
      </trkpt>
      <trkpt lat="44.43736" lon="6.88625">
        <ele>2163.6</ele>
        <time>2022-08-16T06:12:21Z</time>
      </trkpt>
      <trkpt lat="44.43735" lon="6.88627">
        <ele>2163.8</ele>
        <time>2022-08-16T06:12:22Z</time>
      </trkpt>
      <trkpt lat="44.43734" lon="6.88628">
        <ele>2164</ele>
        <time>2022-08-16T06:12:23Z</time>
      </trkpt>
      <trkpt lat="44.43733" lon="6.88629">
        <ele>2164</ele>
        <time>2022-08-16T06:12:24Z</time>
      </trkpt>
      <trkpt lat="44.43733" lon="6.88631">
        <ele>2164</ele>
        <time>2022-08-16T06:12:25Z</time>
      </trkpt>
      <trkpt lat="44.43732" lon="6.88632">
        <ele>2164.2</ele>
        <time>2022-08-16T06:12:26Z</time>
      </trkpt>
      <trkpt lat="44.43731" lon="6.88633">
        <ele>2164.4</ele>
        <time>2022-08-16T06:12:27Z</time>
      </trkpt>
      <trkpt lat="44.4373" lon="6.88634">
        <ele>2164.6</ele>
        <time>2022-08-16T06:12:28Z</time>
      </trkpt>
      <trkpt lat="44.43729" lon="6.88636">
        <ele>2164.8</ele>
        <time>2022-08-16T06:12:29Z</time>
      </trkpt>
      <trkpt lat="44.43729" lon="6.88637">
        <ele>2164.8</ele>
        <time>2022-08-16T06:12:30Z</time>
      </trkpt>
      <trkpt lat="44.43728" lon="6.88639">
        <ele>2165</ele>
        <time>2022-08-16T06:12:31Z</time>
      </trkpt>
      <trkpt lat="44.43728" lon="6.88641">
        <ele>2165</ele>
        <time>2022-08-16T06:12:32Z</time>
      </trkpt>
      <trkpt lat="44.43727" lon="6.88642">
        <ele>2165.4</ele>
        <time>2022-08-16T06:12:33Z</time>
      </trkpt>
      <trkpt lat="44.43726" lon="6.88643">
        <ele>2165.6</ele>
        <time>2022-08-16T06:12:34Z</time>
      </trkpt>
      <trkpt lat="44.43725" lon="6.88645">
        <ele>2165.6</ele>
        <time>2022-08-16T06:12:35Z</time>
      </trkpt>
      <trkpt lat="44.43724" lon="6.88646">
        <ele>2165.6</ele>
        <time>2022-08-16T06:12:36Z</time>
      </trkpt>
      <trkpt lat="44.43724" lon="6.88647">
        <ele>2165.8</ele>
        <time>2022-08-16T06:12:37Z</time>
      </trkpt>
      <trkpt lat="44.43723" lon="6.88649">
        <ele>2166</ele>
        <time>2022-08-16T06:12:38Z</time>
      </trkpt>
      <trkpt lat="44.43722" lon="6.8865">
        <ele>2166.2</ele>
        <time>2022-08-16T06:12:39Z</time>
      </trkpt>
      <trkpt lat="44.43722" lon="6.88651">
        <ele>2166.4</ele>
        <time>2022-08-16T06:12:40Z</time>
      </trkpt>
      <trkpt lat="44.43721" lon="6.88653">
        <ele>2166.6</ele>
        <time>2022-08-16T06:12:41Z</time>
      </trkpt>
      <trkpt lat="44.43721" lon="6.88654">
        <ele>2166.8</ele>
        <time>2022-08-16T06:12:42Z</time>
      </trkpt>
      <trkpt lat="44.4372" lon="6.88656">
        <ele>2166.8</ele>
        <time>2022-08-16T06:12:43Z</time>
      </trkpt>
      <trkpt lat="44.4372" lon="6.88658">
        <ele>2166.8</ele>
        <time>2022-08-16T06:12:44Z</time>
      </trkpt>
      <trkpt lat="44.43719" lon="6.88659">
        <ele>2167</ele>
        <time>2022-08-16T06:12:45Z</time>
      </trkpt>
      <trkpt lat="44.43719" lon="6.88661">
        <ele>2167</ele>
        <time>2022-08-16T06:12:46Z</time>
      </trkpt>
      <trkpt lat="44.43719" lon="6.88662">
        <ele>2167.4</ele>
        <time>2022-08-16T06:12:47Z</time>
      </trkpt>
      <trkpt lat="44.43718" lon="6.88664">
        <ele>2167.4</ele>
        <time>2022-08-16T06:12:48Z</time>
      </trkpt>
      <trkpt lat="44.43717" lon="6.88666">
        <ele>2167.6</ele>
        <time>2022-08-16T06:12:49Z</time>
      </trkpt>
      <trkpt lat="44.43717" lon="6.88667">
        <ele>2167.8</ele>
        <time>2022-08-16T06:12:50Z</time>
      </trkpt>
      <trkpt lat="44.43716" lon="6.88669">
        <ele>2167.8</ele>
        <time>2022-08-16T06:12:51Z</time>
      </trkpt>
      <trkpt lat="44.43715" lon="6.8867">
        <ele>2167.8</ele>
        <time>2022-08-16T06:12:52Z</time>
      </trkpt>
      <trkpt lat="44.43714" lon="6.88671">
        <ele>2168.2</ele>
        <time>2022-08-16T06:12:53Z</time>
      </trkpt>
      <trkpt lat="44.43713" lon="6.88673">
        <ele>2168.2</ele>
        <time>2022-08-16T06:12:54Z</time>
      </trkpt>
      <trkpt lat="44.43713" lon="6.88674">
        <ele>2168.2</ele>
        <time>2022-08-16T06:12:55Z</time>
      </trkpt>
      <trkpt lat="44.43712" lon="6.88675">
        <ele>2168.4</ele>
        <time>2022-08-16T06:12:56Z</time>
      </trkpt>
      <trkpt lat="44.43711" lon="6.88676">
        <ele>2168.8</ele>
        <time>2022-08-16T06:12:57Z</time>
      </trkpt>
      <trkpt lat="44.4371" lon="6.88678">
        <ele>2168.8</ele>
        <time>2022-08-16T06:12:58Z</time>
      </trkpt>
      <trkpt lat="44.43709" lon="6.88679">
        <ele>2169.2</ele>
        <time>2022-08-16T06:12:59Z</time>
      </trkpt>
      <trkpt lat="44.43708" lon="6.8868">
        <ele>2169.2</ele>
        <time>2022-08-16T06:13:00Z</time>
      </trkpt>
      <trkpt lat="44.43707" lon="6.88682">
        <ele>2169.4</ele>
        <time>2022-08-16T06:13:01Z</time>
      </trkpt>
      <trkpt lat="44.43706" lon="6.88683">
        <ele>2169.6</ele>
        <time>2022-08-16T06:13:02Z</time>
      </trkpt>
      <trkpt lat="44.43705" lon="6.88684">
        <ele>2169.6</ele>
        <time>2022-08-16T06:13:03Z</time>
      </trkpt>
      <trkpt lat="44.43705" lon="6.88686">
        <ele>2169.8</ele>
        <time>2022-08-16T06:13:04Z</time>
      </trkpt>
      <trkpt lat="44.43704" lon="6.88687">
        <ele>2169.8</ele>
        <time>2022-08-16T06:13:05Z</time>
      </trkpt>
      <trkpt lat="44.43703" lon="6.88688">
        <ele>2170</ele>
        <time>2022-08-16T06:13:06Z</time>
      </trkpt>
      <trkpt lat="44.43703" lon="6.8869">
        <ele>2170.2</ele>
        <time>2022-08-16T06:13:07Z</time>
      </trkpt>
      <trkpt lat="44.43702" lon="6.88691">
        <ele>2170.2</ele>
        <time>2022-08-16T06:13:08Z</time>
      </trkpt>
      <trkpt lat="44.43701" lon="6.88693">
        <ele>2170.4</ele>
        <time>2022-08-16T06:13:09Z</time>
      </trkpt>
      <trkpt lat="44.437" lon="6.88694">
        <ele>2170.6</ele>
        <time>2022-08-16T06:13:10Z</time>
      </trkpt>
      <trkpt lat="44.437" lon="6.88696">
        <ele>2170.6</ele>
        <time>2022-08-16T06:13:11Z</time>
      </trkpt>
      <trkpt lat="44.43699" lon="6.88698">
        <ele>2170.8</ele>
        <time>2022-08-16T06:13:12Z</time>
      </trkpt>
      <trkpt lat="44.43698" lon="6.88699">
        <ele>2170.8</ele>
        <time>2022-08-16T06:13:13Z</time>
      </trkpt>
      <trkpt lat="44.43697" lon="6.88701">
        <ele>2171</ele>
        <time>2022-08-16T06:13:14Z</time>
      </trkpt>
      <trkpt lat="44.43696" lon="6.88703">
        <ele>2171</ele>
        <time>2022-08-16T06:13:15Z</time>
      </trkpt>
      <trkpt lat="44.43696" lon="6.88704">
        <ele>2171.4</ele>
        <time>2022-08-16T06:13:16Z</time>
      </trkpt>
      <trkpt lat="44.43695" lon="6.88706">
        <ele>2171.4</ele>
        <time>2022-08-16T06:13:17Z</time>
      </trkpt>
      <trkpt lat="44.43693" lon="6.88707">
        <ele>2171.6</ele>
        <time>2022-08-16T06:13:18Z</time>
      </trkpt>
      <trkpt lat="44.43692" lon="6.88708">
        <ele>2171.8</ele>
        <time>2022-08-16T06:13:19Z</time>
      </trkpt>
      <trkpt lat="44.43691" lon="6.8871">
        <ele>2171.8</ele>
        <time>2022-08-16T06:13:20Z</time>
      </trkpt>
      <trkpt lat="44.4369" lon="6.88711">
        <ele>2171.8</ele>
        <time>2022-08-16T06:13:21Z</time>
      </trkpt>
      <trkpt lat="44.43689" lon="6.88712">
        <ele>2171.8</ele>
        <time>2022-08-16T06:13:22Z</time>
      </trkpt>
      <trkpt lat="44.43688" lon="6.88714">
        <ele>2172</ele>
        <time>2022-08-16T06:13:23Z</time>
      </trkpt>
      <trkpt lat="44.43688" lon="6.88715">
        <ele>2172.2</ele>
        <time>2022-08-16T06:13:24Z</time>
      </trkpt>
      <trkpt lat="44.43687" lon="6.88717">
        <ele>2172.2</ele>
        <time>2022-08-16T06:13:25Z</time>
      </trkpt>
      <trkpt lat="44.43686" lon="6.88718">
        <ele>2172.4</ele>
        <time>2022-08-16T06:13:26Z</time>
      </trkpt>
      <trkpt lat="44.43685" lon="6.88719">
        <ele>2172.6</ele>
        <time>2022-08-16T06:13:27Z</time>
      </trkpt>
      <trkpt lat="44.43684" lon="6.88721">
        <ele>2172.8</ele>
        <time>2022-08-16T06:13:28Z</time>
      </trkpt>
      <trkpt lat="44.43683" lon="6.88722">
        <ele>2172.8</ele>
        <time>2022-08-16T06:13:29Z</time>
      </trkpt>
      <trkpt lat="44.43682" lon="6.88724">
        <ele>2173</ele>
        <time>2022-08-16T06:13:30Z</time>
      </trkpt>
      <trkpt lat="44.43681" lon="6.88725">
        <ele>2173.2</ele>
        <time>2022-08-16T06:13:31Z</time>
      </trkpt>
      <trkpt lat="44.4368" lon="6.88726">
        <ele>2173.2</ele>
        <time>2022-08-16T06:13:32Z</time>
      </trkpt>
      <trkpt lat="44.43679" lon="6.88728">
        <ele>2173.2</ele>
        <time>2022-08-16T06:13:33Z</time>
      </trkpt>
      <trkpt lat="44.43679" lon="6.8873">
        <ele>2173.2</ele>
        <time>2022-08-16T06:13:34Z</time>
      </trkpt>
      <trkpt lat="44.43678" lon="6.88731">
        <ele>2173.4</ele>
        <time>2022-08-16T06:13:35Z</time>
      </trkpt>
      <trkpt lat="44.43677" lon="6.88733">
        <ele>2173.6</ele>
        <time>2022-08-16T06:13:36Z</time>
      </trkpt>
      <trkpt lat="44.43676" lon="6.88734">
        <ele>2173.8</ele>
        <time>2022-08-16T06:13:37Z</time>
      </trkpt>
      <trkpt lat="44.43675" lon="6.88735">
        <ele>2174</ele>
        <time>2022-08-16T06:13:38Z</time>
      </trkpt>
      <trkpt lat="44.43675" lon="6.88737">
        <ele>2174.2</ele>
        <time>2022-08-16T06:13:39Z</time>
      </trkpt>
      <trkpt lat="44.43674" lon="6.88738">
        <ele>2174.4</ele>
        <time>2022-08-16T06:13:40Z</time>
      </trkpt>
      <trkpt lat="44.43673" lon="6.88739">
        <ele>2174.2</ele>
        <time>2022-08-16T06:13:41Z</time>
      </trkpt>
      <trkpt lat="44.43672" lon="6.8874">
        <ele>2174.4</ele>
        <time>2022-08-16T06:13:42Z</time>
      </trkpt>
      <trkpt lat="44.43671" lon="6.88742">
        <ele>2174.4</ele>
        <time>2022-08-16T06:13:43Z</time>
      </trkpt>
      <trkpt lat="44.4367" lon="6.88743">
        <ele>2174.4</ele>
        <time>2022-08-16T06:13:44Z</time>
      </trkpt>
      <trkpt lat="44.43669" lon="6.88745">
        <ele>2174.4</ele>
        <time>2022-08-16T06:13:45Z</time>
      </trkpt>
      <trkpt lat="44.43669" lon="6.88747">
        <ele>2174.8</ele>
        <time>2022-08-16T06:13:46Z</time>
      </trkpt>
      <trkpt lat="44.43668" lon="6.88748">
        <ele>2174.8</ele>
        <time>2022-08-16T06:13:47Z</time>
      </trkpt>
      <trkpt lat="44.43668" lon="6.8875">
        <ele>2175</ele>
        <time>2022-08-16T06:13:48Z</time>
      </trkpt>
      <trkpt lat="44.43668" lon="6.88752">
        <ele>2175.2</ele>
        <time>2022-08-16T06:13:49Z</time>
      </trkpt>
      <trkpt lat="44.43668" lon="6.88753">
        <ele>2175.4</ele>
        <time>2022-08-16T06:13:50Z</time>
      </trkpt>
      <trkpt lat="44.43669" lon="6.88755">
        <ele>2175.4</ele>
        <time>2022-08-16T06:13:51Z</time>
      </trkpt>
      <trkpt lat="44.43669" lon="6.88756">
        <ele>2175.6</ele>
        <time>2022-08-16T06:13:52Z</time>
      </trkpt>
      <trkpt lat="44.4367" lon="6.88757">
        <ele>2175.6</ele>
        <time>2022-08-16T06:13:53Z</time>
      </trkpt>
      <trkpt lat="44.43672" lon="6.88757">
        <ele>2176</ele>
        <time>2022-08-16T06:13:54Z</time>
      </trkpt>
      <trkpt lat="44.43673" lon="6.88757">
        <ele>2176.2</ele>
        <time>2022-08-16T06:13:55Z</time>
      </trkpt>
      <trkpt lat="44.43674" lon="6.88757">
        <ele>2176.2</ele>
        <time>2022-08-16T06:13:56Z</time>
      </trkpt>
      <trkpt lat="44.43676" lon="6.88757">
        <ele>2176.2</ele>
        <time>2022-08-16T06:13:57Z</time>
      </trkpt>
      <trkpt lat="44.43677" lon="6.88756">
        <ele>2176.4</ele>
        <time>2022-08-16T06:13:58Z</time>
      </trkpt>
      <trkpt lat="44.43679" lon="6.88755">
        <ele>2176.4</ele>
        <time>2022-08-16T06:13:59Z</time>
      </trkpt>
      <trkpt lat="44.4368" lon="6.88754">
        <ele>2176.4</ele>
        <time>2022-08-16T06:14:00Z</time>
      </trkpt>
      <trkpt lat="44.43681" lon="6.88753">
        <ele>2176.6</ele>
        <time>2022-08-16T06:14:01Z</time>
      </trkpt>
      <trkpt lat="44.43683" lon="6.88751">
        <ele>2176.8</ele>
        <time>2022-08-16T06:14:02Z</time>
      </trkpt>
      <trkpt lat="44.43684" lon="6.8875">
        <ele>2176.8</ele>
        <time>2022-08-16T06:14:03Z</time>
      </trkpt>
      <trkpt lat="44.43685" lon="6.88748">
        <ele>2177</ele>
        <time>2022-08-16T06:14:04Z</time>
      </trkpt>
      <trkpt lat="44.43686" lon="6.88747">
        <ele>2177</ele>
        <time>2022-08-16T06:14:05Z</time>
      </trkpt>
      <trkpt lat="44.43688" lon="6.88745">
        <ele>2177.2</ele>
        <time>2022-08-16T06:14:06Z</time>
      </trkpt>
      <trkpt lat="44.43689" lon="6.88744">
        <ele>2177.2</ele>
        <time>2022-08-16T06:14:07Z</time>
      </trkpt>
      <trkpt lat="44.43691" lon="6.88742">
        <ele>2177.4</ele>
        <time>2022-08-16T06:14:08Z</time>
      </trkpt>
      <trkpt lat="44.43693" lon="6.88741">
        <ele>2177.4</ele>
        <time>2022-08-16T06:14:09Z</time>
      </trkpt>
      <trkpt lat="44.43695" lon="6.88739">
        <ele>2177.6</ele>
        <time>2022-08-16T06:14:10Z</time>
      </trkpt>
      <trkpt lat="44.43697" lon="6.88738">
        <ele>2177.8</ele>
        <time>2022-08-16T06:14:11Z</time>
      </trkpt>
      <trkpt lat="44.43698" lon="6.88737">
        <ele>2177.8</ele>
        <time>2022-08-16T06:14:12Z</time>
      </trkpt>
      <trkpt lat="44.43704" lon="6.88734">
        <ele>2177.8</ele>
        <time>2022-08-16T06:14:15Z</time>
      </trkpt>
      <trkpt lat="44.4371" lon="6.88732">
        <ele>2178</ele>
        <time>2022-08-16T06:14:18Z</time>
      </trkpt>
      <trkpt lat="44.43716" lon="6.88729">
        <ele>2178</ele>
        <time>2022-08-16T06:14:21Z</time>
      </trkpt>
      <trkpt lat="44.43717" lon="6.88728">
        <ele>2178.2</ele>
        <time>2022-08-16T06:14:22Z</time>
      </trkpt>
      <trkpt lat="44.43721" lon="6.88725">
        <ele>2178.4</ele>
        <time>2022-08-16T06:14:24Z</time>
      </trkpt>
      <trkpt lat="44.43722" lon="6.88724">
        <ele>2178.2</ele>
        <time>2022-08-16T06:14:25Z</time>
      </trkpt>
      <trkpt lat="44.43724" lon="6.88723">
        <ele>2178.4</ele>
        <time>2022-08-16T06:14:26Z</time>
      </trkpt>
      <trkpt lat="44.43725" lon="6.88721">
        <ele>2178.6</ele>
        <time>2022-08-16T06:14:27Z</time>
      </trkpt>
      <trkpt lat="44.43728" lon="6.88719">
        <ele>2178.4</ele>
        <time>2022-08-16T06:14:29Z</time>
      </trkpt>
      <trkpt lat="44.4373" lon="6.88718">
        <ele>2178.6</ele>
        <time>2022-08-16T06:14:30Z</time>
      </trkpt>
      <trkpt lat="44.43734" lon="6.88714">
        <ele>2179</ele>
        <time>2022-08-16T06:14:33Z</time>
      </trkpt>
      <trkpt lat="44.43736" lon="6.88713">
        <ele>2179.2</ele>
        <time>2022-08-16T06:14:34Z</time>
      </trkpt>
      <trkpt lat="44.43738" lon="6.8871">
        <ele>2179.2</ele>
        <time>2022-08-16T06:14:36Z</time>
      </trkpt>
      <trkpt lat="44.4374" lon="6.88709">
        <ele>2179.4</ele>
        <time>2022-08-16T06:14:37Z</time>
      </trkpt>
      <trkpt lat="44.43741" lon="6.88707">
        <ele>2179.4</ele>
        <time>2022-08-16T06:14:38Z</time>
      </trkpt>
      <trkpt lat="44.43742" lon="6.88706">
        <ele>2179.8</ele>
        <time>2022-08-16T06:14:39Z</time>
      </trkpt>
      <trkpt lat="44.43745" lon="6.88704">
        <ele>2180</ele>
        <time>2022-08-16T06:14:41Z</time>
      </trkpt>
      <trkpt lat="44.43746" lon="6.88703">
        <ele>2180</ele>
        <time>2022-08-16T06:14:42Z</time>
      </trkpt>
      <trkpt lat="44.43748" lon="6.88702">
        <ele>2180.2</ele>
        <time>2022-08-16T06:14:43Z</time>
      </trkpt>
      <trkpt lat="44.43749" lon="6.88701">
        <ele>2180.2</ele>
        <time>2022-08-16T06:14:44Z</time>
      </trkpt>
      <trkpt lat="44.4375" lon="6.887">
        <ele>2180.2</ele>
        <time>2022-08-16T06:14:45Z</time>
      </trkpt>
      <trkpt lat="44.43752" lon="6.88699">
        <ele>2180.4</ele>
        <time>2022-08-16T06:14:46Z</time>
      </trkpt>
      <trkpt lat="44.43753" lon="6.88698">
        <ele>2180.6</ele>
        <time>2022-08-16T06:14:47Z</time>
      </trkpt>
      <trkpt lat="44.43754" lon="6.88697">
        <ele>2180.6</ele>
        <time>2022-08-16T06:14:48Z</time>
      </trkpt>
      <trkpt lat="44.43755" lon="6.88697">
        <ele>2180.8</ele>
        <time>2022-08-16T06:14:49Z</time>
      </trkpt>
      <trkpt lat="44.43756" lon="6.88696">
        <ele>2181</ele>
        <time>2022-08-16T06:14:50Z</time>
      </trkpt>
      <trkpt lat="44.43758" lon="6.88695">
        <ele>2181</ele>
        <time>2022-08-16T06:14:51Z</time>
      </trkpt>
      <trkpt lat="44.43759" lon="6.88695">
        <ele>2181.2</ele>
        <time>2022-08-16T06:14:52Z</time>
      </trkpt>
      <trkpt lat="44.4376" lon="6.88694">
        <ele>2181.2</ele>
        <time>2022-08-16T06:14:53Z</time>
      </trkpt>
      <trkpt lat="44.43761" lon="6.88693">
        <ele>2181.2</ele>
        <time>2022-08-16T06:14:54Z</time>
      </trkpt>
      <trkpt lat="44.43763" lon="6.88692">
        <ele>2181.2</ele>
        <time>2022-08-16T06:14:55Z</time>
      </trkpt>
      <trkpt lat="44.43764" lon="6.88691">
        <ele>2181.6</ele>
        <time>2022-08-16T06:14:56Z</time>
      </trkpt>
      <trkpt lat="44.43765" lon="6.88691">
        <ele>2181.6</ele>
        <time>2022-08-16T06:14:57Z</time>
      </trkpt>
      <trkpt lat="44.43767" lon="6.8869">
        <ele>2181.6</ele>
        <time>2022-08-16T06:14:58Z</time>
      </trkpt>
      <trkpt lat="44.43768" lon="6.88689">
        <ele>2181.8</ele>
        <time>2022-08-16T06:14:59Z</time>
      </trkpt>
      <trkpt lat="44.43769" lon="6.88689">
        <ele>2182</ele>
        <time>2022-08-16T06:15:00Z</time>
      </trkpt>
      <trkpt lat="44.4377" lon="6.88688">
        <ele>2182</ele>
        <time>2022-08-16T06:15:01Z</time>
      </trkpt>
      <trkpt lat="44.43772" lon="6.88687">
        <ele>2182.2</ele>
        <time>2022-08-16T06:15:02Z</time>
      </trkpt>
      <trkpt lat="44.43773" lon="6.88687">
        <ele>2182.2</ele>
        <time>2022-08-16T06:15:03Z</time>
      </trkpt>
      <trkpt lat="44.43774" lon="6.88686">
        <ele>2182.2</ele>
        <time>2022-08-16T06:15:04Z</time>
      </trkpt>
      <trkpt lat="44.43775" lon="6.88686">
        <ele>2182.4</ele>
        <time>2022-08-16T06:15:05Z</time>
      </trkpt>
      <trkpt lat="44.43777" lon="6.88685">
        <ele>2182.6</ele>
        <time>2022-08-16T06:15:06Z</time>
      </trkpt>
      <trkpt lat="44.43778" lon="6.88684">
        <ele>2182.8</ele>
        <time>2022-08-16T06:15:07Z</time>
      </trkpt>
      <trkpt lat="44.43779" lon="6.88684">
        <ele>2182.8</ele>
        <time>2022-08-16T06:15:08Z</time>
      </trkpt>
      <trkpt lat="44.4378" lon="6.88683">
        <ele>2183</ele>
        <time>2022-08-16T06:15:09Z</time>
      </trkpt>
      <trkpt lat="44.43782" lon="6.88682">
        <ele>2183.2</ele>
        <time>2022-08-16T06:15:10Z</time>
      </trkpt>
      <trkpt lat="44.43783" lon="6.88682">
        <ele>2183</ele>
        <time>2022-08-16T06:15:11Z</time>
      </trkpt>
      <trkpt lat="44.43784" lon="6.88681">
        <ele>2183.2</ele>
        <time>2022-08-16T06:15:12Z</time>
      </trkpt>
      <trkpt lat="44.43785" lon="6.8868">
        <ele>2183.4</ele>
        <time>2022-08-16T06:15:13Z</time>
      </trkpt>
      <trkpt lat="44.43786" lon="6.8868">
        <ele>2183.4</ele>
        <time>2022-08-16T06:15:14Z</time>
      </trkpt>
      <trkpt lat="44.43787" lon="6.88679">
        <ele>2183.4</ele>
        <time>2022-08-16T06:15:15Z</time>
      </trkpt>
      <trkpt lat="44.43788" lon="6.88678">
        <ele>2183.4</ele>
        <time>2022-08-16T06:15:16Z</time>
      </trkpt>
      <trkpt lat="44.43789" lon="6.88677">
        <ele>2183.4</ele>
        <time>2022-08-16T06:15:17Z</time>
      </trkpt>
      <trkpt lat="44.4379" lon="6.88676">
        <ele>2183.8</ele>
        <time>2022-08-16T06:15:18Z</time>
      </trkpt>
      <trkpt lat="44.43791" lon="6.88676">
        <ele>2183.8</ele>
        <time>2022-08-16T06:15:19Z</time>
      </trkpt>
      <trkpt lat="44.43792" lon="6.88675">
        <ele>2183.8</ele>
        <time>2022-08-16T06:15:20Z</time>
      </trkpt>
      <trkpt lat="44.43794" lon="6.88674">
        <ele>2184</ele>
        <time>2022-08-16T06:15:21Z</time>
      </trkpt>
      <trkpt lat="44.43795" lon="6.88674">
        <ele>2184.2</ele>
        <time>2022-08-16T06:15:22Z</time>
      </trkpt>
      <trkpt lat="44.43796" lon="6.88673">
        <ele>2184.4</ele>
        <time>2022-08-16T06:15:23Z</time>
      </trkpt>
      <trkpt lat="44.43797" lon="6.88672">
        <ele>2184.4</ele>
        <time>2022-08-16T06:15:24Z</time>
      </trkpt>
      <trkpt lat="44.43798" lon="6.88672">
        <ele>2184.8</ele>
        <time>2022-08-16T06:15:25Z</time>
      </trkpt>
      <trkpt lat="44.43799" lon="6.88671">
        <ele>2185</ele>
        <time>2022-08-16T06:15:26Z</time>
      </trkpt>
      <trkpt lat="44.438" lon="6.8867">
        <ele>2185</ele>
        <time>2022-08-16T06:15:27Z</time>
      </trkpt>
      <trkpt lat="44.43801" lon="6.8867">
        <ele>2185.2</ele>
        <time>2022-08-16T06:15:28Z</time>
      </trkpt>
      <trkpt lat="44.43802" lon="6.88669">
        <ele>2185.2</ele>
        <time>2022-08-16T06:15:29Z</time>
      </trkpt>
      <trkpt lat="44.43803" lon="6.88668">
        <ele>2185.4</ele>
        <time>2022-08-16T06:15:30Z</time>
      </trkpt>
      <trkpt lat="44.43804" lon="6.88668">
        <ele>2185.4</ele>
        <time>2022-08-16T06:15:31Z</time>
      </trkpt>
      <trkpt lat="44.43805" lon="6.88667">
        <ele>2185.6</ele>
        <time>2022-08-16T06:15:32Z</time>
      </trkpt>
      <trkpt lat="44.43807" lon="6.88666">
        <ele>2185.8</ele>
        <time>2022-08-16T06:15:33Z</time>
      </trkpt>
      <trkpt lat="44.43808" lon="6.88665">
        <ele>2186</ele>
        <time>2022-08-16T06:15:34Z</time>
      </trkpt>
      <trkpt lat="44.43809" lon="6.88664">
        <ele>2186.2</ele>
        <time>2022-08-16T06:15:35Z</time>
      </trkpt>
      <trkpt lat="44.4381" lon="6.88663">
        <ele>2186.2</ele>
        <time>2022-08-16T06:15:36Z</time>
      </trkpt>
      <trkpt lat="44.43811" lon="6.88662">
        <ele>2186.4</ele>
        <time>2022-08-16T06:15:37Z</time>
      </trkpt>
      <trkpt lat="44.43812" lon="6.88661">
        <ele>2186.6</ele>
        <time>2022-08-16T06:15:38Z</time>
      </trkpt>
      <trkpt lat="44.43813" lon="6.8866">
        <ele>2186.6</ele>
        <time>2022-08-16T06:15:39Z</time>
      </trkpt>
      <trkpt lat="44.43814" lon="6.88659">
        <ele>2186.6</ele>
        <time>2022-08-16T06:15:40Z</time>
      </trkpt>
      <trkpt lat="44.43815" lon="6.88658">
        <ele>2186.8</ele>
        <time>2022-08-16T06:15:41Z</time>
      </trkpt>
      <trkpt lat="44.43816" lon="6.88656">
        <ele>2187</ele>
        <time>2022-08-16T06:15:42Z</time>
      </trkpt>
      <trkpt lat="44.43817" lon="6.88655">
        <ele>2187.4</ele>
        <time>2022-08-16T06:15:43Z</time>
      </trkpt>
      <trkpt lat="44.43817" lon="6.88654">
        <ele>2187.4</ele>
        <time>2022-08-16T06:15:44Z</time>
      </trkpt>
      <trkpt lat="44.43818" lon="6.88653">
        <ele>2187.4</ele>
        <time>2022-08-16T06:15:45Z</time>
      </trkpt>
      <trkpt lat="44.43819" lon="6.88652">
        <ele>2187.6</ele>
        <time>2022-08-16T06:15:46Z</time>
      </trkpt>
      <trkpt lat="44.4382" lon="6.8865">
        <ele>2188</ele>
        <time>2022-08-16T06:15:47Z</time>
      </trkpt>
      <trkpt lat="44.43821" lon="6.88649">
        <ele>2188</ele>
        <time>2022-08-16T06:15:48Z</time>
      </trkpt>
      <trkpt lat="44.43822" lon="6.88648">
        <ele>2188.2</ele>
        <time>2022-08-16T06:15:49Z</time>
      </trkpt>
      <trkpt lat="44.43823" lon="6.88647">
        <ele>2188.2</ele>
        <time>2022-08-16T06:15:50Z</time>
      </trkpt>
      <trkpt lat="44.43824" lon="6.88645">
        <ele>2188.2</ele>
        <time>2022-08-16T06:15:51Z</time>
      </trkpt>
      <trkpt lat="44.43825" lon="6.88644">
        <ele>2188.6</ele>
        <time>2022-08-16T06:15:52Z</time>
      </trkpt>
      <trkpt lat="44.43826" lon="6.88643">
        <ele>2188.8</ele>
        <time>2022-08-16T06:15:53Z</time>
      </trkpt>
      <trkpt lat="44.43827" lon="6.88642">
        <ele>2189.4</ele>
        <time>2022-08-16T06:15:54Z</time>
      </trkpt>
      <trkpt lat="44.43827" lon="6.88641">
        <ele>2189.6</ele>
        <time>2022-08-16T06:15:55Z</time>
      </trkpt>
      <trkpt lat="44.43828" lon="6.8864">
        <ele>2190</ele>
        <time>2022-08-16T06:15:56Z</time>
      </trkpt>
      <trkpt lat="44.43829" lon="6.88639">
        <ele>2190</ele>
        <time>2022-08-16T06:15:57Z</time>
      </trkpt>
      <trkpt lat="44.4383" lon="6.88638">
        <ele>2190.2</ele>
        <time>2022-08-16T06:15:58Z</time>
      </trkpt>
      <trkpt lat="44.43831" lon="6.88637">
        <ele>2190.4</ele>
        <time>2022-08-16T06:15:59Z</time>
      </trkpt>
      <trkpt lat="44.43832" lon="6.88636">
        <ele>2190.8</ele>
        <time>2022-08-16T06:16:00Z</time>
      </trkpt>
      <trkpt lat="44.43833" lon="6.88635">
        <ele>2190.8</ele>
        <time>2022-08-16T06:16:01Z</time>
      </trkpt>
      <trkpt lat="44.43834" lon="6.88634">
        <ele>2190.8</ele>
        <time>2022-08-16T06:16:02Z</time>
      </trkpt>
      <trkpt lat="44.43835" lon="6.88634">
        <ele>2190.8</ele>
        <time>2022-08-16T06:16:03Z</time>
      </trkpt>
      <trkpt lat="44.43836" lon="6.88633">
        <ele>2191</ele>
        <time>2022-08-16T06:16:04Z</time>
      </trkpt>
      <trkpt lat="44.43838" lon="6.88632">
        <ele>2191</ele>
        <time>2022-08-16T06:16:05Z</time>
      </trkpt>
      <trkpt lat="44.43839" lon="6.88631">
        <ele>2191.4</ele>
        <time>2022-08-16T06:16:06Z</time>
      </trkpt>
      <trkpt lat="44.4384" lon="6.8863">
        <ele>2191.4</ele>
        <time>2022-08-16T06:16:07Z</time>
      </trkpt>
      <trkpt lat="44.43841" lon="6.88629">
        <ele>2191.6</ele>
        <time>2022-08-16T06:16:08Z</time>
      </trkpt>
      <trkpt lat="44.43842" lon="6.88628">
        <ele>2191.8</ele>
        <time>2022-08-16T06:16:09Z</time>
      </trkpt>
      <trkpt lat="44.43843" lon="6.88627">
        <ele>2191.8</ele>
        <time>2022-08-16T06:16:10Z</time>
      </trkpt>
      <trkpt lat="44.43844" lon="6.88627">
        <ele>2192</ele>
        <time>2022-08-16T06:16:11Z</time>
      </trkpt>
      <trkpt lat="44.43845" lon="6.88626">
        <ele>2192</ele>
        <time>2022-08-16T06:16:12Z</time>
      </trkpt>
      <trkpt lat="44.43846" lon="6.88625">
        <ele>2192</ele>
        <time>2022-08-16T06:16:13Z</time>
      </trkpt>
      <trkpt lat="44.43847" lon="6.88624">
        <ele>2192.2</ele>
        <time>2022-08-16T06:16:14Z</time>
      </trkpt>
      <trkpt lat="44.43849" lon="6.88623">
        <ele>2192.4</ele>
        <time>2022-08-16T06:16:15Z</time>
      </trkpt>
      <trkpt lat="44.4385" lon="6.88622">
        <ele>2192.4</ele>
        <time>2022-08-16T06:16:16Z</time>
      </trkpt>
      <trkpt lat="44.43851" lon="6.88621">
        <ele>2192.6</ele>
        <time>2022-08-16T06:16:17Z</time>
      </trkpt>
      <trkpt lat="44.43852" lon="6.8862">
        <ele>2192.8</ele>
        <time>2022-08-16T06:16:18Z</time>
      </trkpt>
      <trkpt lat="44.43853" lon="6.8862">
        <ele>2193</ele>
        <time>2022-08-16T06:16:19Z</time>
      </trkpt>
      <trkpt lat="44.43854" lon="6.88619">
        <ele>2193.2</ele>
        <time>2022-08-16T06:16:20Z</time>
      </trkpt>
      <trkpt lat="44.43855" lon="6.88618">
        <ele>2193.4</ele>
        <time>2022-08-16T06:16:21Z</time>
      </trkpt>
      <trkpt lat="44.43856" lon="6.88617">
        <ele>2193.4</ele>
        <time>2022-08-16T06:16:22Z</time>
      </trkpt>
      <trkpt lat="44.43857" lon="6.88616">
        <ele>2193.6</ele>
        <time>2022-08-16T06:16:23Z</time>
      </trkpt>
      <trkpt lat="44.43858" lon="6.88615">
        <ele>2193.8</ele>
        <time>2022-08-16T06:16:24Z</time>
      </trkpt>
      <trkpt lat="44.43859" lon="6.88614">
        <ele>2194</ele>
        <time>2022-08-16T06:16:25Z</time>
      </trkpt>
      <trkpt lat="44.4386" lon="6.88613">
        <ele>2194</ele>
        <time>2022-08-16T06:16:26Z</time>
      </trkpt>
      <trkpt lat="44.43861" lon="6.88611">
        <ele>2193.8</ele>
        <time>2022-08-16T06:16:27Z</time>
      </trkpt>
      <trkpt lat="44.43862" lon="6.8861">
        <ele>2194</ele>
        <time>2022-08-16T06:16:28Z</time>
      </trkpt>
      <trkpt lat="44.43863" lon="6.88609">
        <ele>2194</ele>
        <time>2022-08-16T06:16:29Z</time>
      </trkpt>
      <trkpt lat="44.43864" lon="6.88608">
        <ele>2194.2</ele>
        <time>2022-08-16T06:16:30Z</time>
      </trkpt>
      <trkpt lat="44.43865" lon="6.88606">
        <ele>2194.2</ele>
        <time>2022-08-16T06:16:31Z</time>
      </trkpt>
      <trkpt lat="44.43866" lon="6.88605">
        <ele>2194.4</ele>
        <time>2022-08-16T06:16:32Z</time>
      </trkpt>
      <trkpt lat="44.43867" lon="6.88604">
        <ele>2194.6</ele>
        <time>2022-08-16T06:16:33Z</time>
      </trkpt>
      <trkpt lat="44.43868" lon="6.88602">
        <ele>2194.6</ele>
        <time>2022-08-16T06:16:34Z</time>
      </trkpt>
      <trkpt lat="44.43869" lon="6.88601">
        <ele>2194.8</ele>
        <time>2022-08-16T06:16:35Z</time>
      </trkpt>
      <trkpt lat="44.4387" lon="6.886">
        <ele>2195</ele>
        <time>2022-08-16T06:16:36Z</time>
      </trkpt>
      <trkpt lat="44.43871" lon="6.88599">
        <ele>2195</ele>
        <time>2022-08-16T06:16:37Z</time>
      </trkpt>
      <trkpt lat="44.43872" lon="6.88598">
        <ele>2195.2</ele>
        <time>2022-08-16T06:16:38Z</time>
      </trkpt>
      <trkpt lat="44.43873" lon="6.88597">
        <ele>2195.4</ele>
        <time>2022-08-16T06:16:39Z</time>
      </trkpt>
      <trkpt lat="44.43874" lon="6.88596">
        <ele>2195.4</ele>
        <time>2022-08-16T06:16:40Z</time>
      </trkpt>
      <trkpt lat="44.43874" lon="6.88595">
        <ele>2195.6</ele>
        <time>2022-08-16T06:16:41Z</time>
      </trkpt>
      <trkpt lat="44.43875" lon="6.88594">
        <ele>2195.6</ele>
        <time>2022-08-16T06:16:42Z</time>
      </trkpt>
      <trkpt lat="44.43876" lon="6.88593">
        <ele>2195.8</ele>
        <time>2022-08-16T06:16:43Z</time>
      </trkpt>
      <trkpt lat="44.43877" lon="6.88592">
        <ele>2196</ele>
        <time>2022-08-16T06:16:44Z</time>
      </trkpt>
      <trkpt lat="44.43878" lon="6.88591">
        <ele>2196</ele>
        <time>2022-08-16T06:16:45Z</time>
      </trkpt>
      <trkpt lat="44.43879" lon="6.8859">
        <ele>2196.2</ele>
        <time>2022-08-16T06:16:46Z</time>
      </trkpt>
      <trkpt lat="44.4388" lon="6.88589">
        <ele>2196.4</ele>
        <time>2022-08-16T06:16:47Z</time>
      </trkpt>
      <trkpt lat="44.43881" lon="6.88588">
        <ele>2196.6</ele>
        <time>2022-08-16T06:16:48Z</time>
      </trkpt>
      <trkpt lat="44.43882" lon="6.88587">
        <ele>2196.6</ele>
        <time>2022-08-16T06:16:49Z</time>
      </trkpt>
      <trkpt lat="44.43883" lon="6.88586">
        <ele>2196.6</ele>
        <time>2022-08-16T06:16:50Z</time>
      </trkpt>
      <trkpt lat="44.43884" lon="6.88585">
        <ele>2196.8</ele>
        <time>2022-08-16T06:16:51Z</time>
      </trkpt>
      <trkpt lat="44.43885" lon="6.88584">
        <ele>2196.8</ele>
        <time>2022-08-16T06:16:52Z</time>
      </trkpt>
      <trkpt lat="44.43886" lon="6.88583">
        <ele>2197</ele>
        <time>2022-08-16T06:16:53Z</time>
      </trkpt>
      <trkpt lat="44.43887" lon="6.88581">
        <ele>2197.2</ele>
        <time>2022-08-16T06:16:54Z</time>
      </trkpt>
      <trkpt lat="44.43888" lon="6.8858">
        <ele>2197.6</ele>
        <time>2022-08-16T06:16:55Z</time>
      </trkpt>
      <trkpt lat="44.43889" lon="6.88579">
        <ele>2197.6</ele>
        <time>2022-08-16T06:16:56Z</time>
      </trkpt>
      <trkpt lat="44.4389" lon="6.88578">
        <ele>2197.8</ele>
        <time>2022-08-16T06:16:57Z</time>
      </trkpt>
      <trkpt lat="44.43891" lon="6.88577">
        <ele>2197.8</ele>
        <time>2022-08-16T06:16:58Z</time>
      </trkpt>
      <trkpt lat="44.43892" lon="6.88576">
        <ele>2198</ele>
        <time>2022-08-16T06:16:59Z</time>
      </trkpt>
      <trkpt lat="44.43893" lon="6.88575">
        <ele>2198</ele>
        <time>2022-08-16T06:17:00Z</time>
      </trkpt>
      <trkpt lat="44.43894" lon="6.88574">
        <ele>2198.2</ele>
        <time>2022-08-16T06:17:01Z</time>
      </trkpt>
      <trkpt lat="44.43895" lon="6.88573">
        <ele>2198.2</ele>
        <time>2022-08-16T06:17:02Z</time>
      </trkpt>
      <trkpt lat="44.43896" lon="6.88572">
        <ele>2198.6</ele>
        <time>2022-08-16T06:17:03Z</time>
      </trkpt>
      <trkpt lat="44.43897" lon="6.88572">
        <ele>2198.6</ele>
        <time>2022-08-16T06:17:04Z</time>
      </trkpt>
      <trkpt lat="44.43899" lon="6.88571">
        <ele>2198.8</ele>
        <time>2022-08-16T06:17:05Z</time>
      </trkpt>
      <trkpt lat="44.439" lon="6.8857">
        <ele>2198.8</ele>
        <time>2022-08-16T06:17:06Z</time>
      </trkpt>
      <trkpt lat="44.43901" lon="6.88569">
        <ele>2198.8</ele>
        <time>2022-08-16T06:17:07Z</time>
      </trkpt>
      <trkpt lat="44.43902" lon="6.88568">
        <ele>2199</ele>
        <time>2022-08-16T06:17:08Z</time>
      </trkpt>
      <trkpt lat="44.43903" lon="6.88568">
        <ele>2199.4</ele>
        <time>2022-08-16T06:17:09Z</time>
      </trkpt>
      <trkpt lat="44.43904" lon="6.88567">
        <ele>2199.4</ele>
        <time>2022-08-16T06:17:10Z</time>
      </trkpt>
      <trkpt lat="44.43905" lon="6.88566">
        <ele>2199.4</ele>
        <time>2022-08-16T06:17:11Z</time>
      </trkpt>
      <trkpt lat="44.43906" lon="6.88566">
        <ele>2199.6</ele>
        <time>2022-08-16T06:17:12Z</time>
      </trkpt>
      <trkpt lat="44.43908" lon="6.88564">
        <ele>2199.6</ele>
        <time>2022-08-16T06:17:13Z</time>
      </trkpt>
      <trkpt lat="44.43909" lon="6.88564">
        <ele>2199.8</ele>
        <time>2022-08-16T06:17:14Z</time>
      </trkpt>
      <trkpt lat="44.4391" lon="6.88563">
        <ele>2200</ele>
        <time>2022-08-16T06:17:15Z</time>
      </trkpt>
      <trkpt lat="44.43911" lon="6.88563">
        <ele>2200</ele>
        <time>2022-08-16T06:17:16Z</time>
      </trkpt>
      <trkpt lat="44.43912" lon="6.88562">
        <ele>2200.2</ele>
        <time>2022-08-16T06:17:17Z</time>
      </trkpt>
      <trkpt lat="44.43913" lon="6.88561">
        <ele>2200.4</ele>
        <time>2022-08-16T06:17:18Z</time>
      </trkpt>
      <trkpt lat="44.43914" lon="6.88561">
        <ele>2200.6</ele>
        <time>2022-08-16T06:17:19Z</time>
      </trkpt>
      <trkpt lat="44.43915" lon="6.8856">
        <ele>2200.8</ele>
        <time>2022-08-16T06:17:20Z</time>
      </trkpt>
      <trkpt lat="44.43916" lon="6.88559">
        <ele>2200.8</ele>
        <time>2022-08-16T06:17:21Z</time>
      </trkpt>
      <trkpt lat="44.43917" lon="6.88558">
        <ele>2201</ele>
        <time>2022-08-16T06:17:22Z</time>
      </trkpt>
      <trkpt lat="44.43919" lon="6.88557">
        <ele>2201</ele>
        <time>2022-08-16T06:17:23Z</time>
      </trkpt>
      <trkpt lat="44.4392" lon="6.88557">
        <ele>2201.2</ele>
        <time>2022-08-16T06:17:24Z</time>
      </trkpt>
      <trkpt lat="44.43921" lon="6.88556">
        <ele>2201.4</ele>
        <time>2022-08-16T06:17:25Z</time>
      </trkpt>
      <trkpt lat="44.43922" lon="6.88555">
        <ele>2201.6</ele>
        <time>2022-08-16T06:17:26Z</time>
      </trkpt>
      <trkpt lat="44.43923" lon="6.88555">
        <ele>2201.8</ele>
        <time>2022-08-16T06:17:27Z</time>
      </trkpt>
      <trkpt lat="44.43924" lon="6.88554">
        <ele>2201.8</ele>
        <time>2022-08-16T06:17:28Z</time>
      </trkpt>
      <trkpt lat="44.43925" lon="6.88553">
        <ele>2202</ele>
        <time>2022-08-16T06:17:29Z</time>
      </trkpt>
      <trkpt lat="44.43926" lon="6.88552">
        <ele>2202</ele>
        <time>2022-08-16T06:17:30Z</time>
      </trkpt>
      <trkpt lat="44.43927" lon="6.88551">
        <ele>2202.4</ele>
        <time>2022-08-16T06:17:31Z</time>
      </trkpt>
      <trkpt lat="44.43928" lon="6.88551">
        <ele>2202.4</ele>
        <time>2022-08-16T06:17:32Z</time>
      </trkpt>
      <trkpt lat="44.43929" lon="6.8855">
        <ele>2202.4</ele>
        <time>2022-08-16T06:17:33Z</time>
      </trkpt>
      <trkpt lat="44.4393" lon="6.8855">
        <ele>2202.6</ele>
        <time>2022-08-16T06:17:34Z</time>
      </trkpt>
      <trkpt lat="44.43931" lon="6.88549">
        <ele>2203</ele>
        <time>2022-08-16T06:17:35Z</time>
      </trkpt>
      <trkpt lat="44.43932" lon="6.88548">
        <ele>2203</ele>
        <time>2022-08-16T06:17:36Z</time>
      </trkpt>
      <trkpt lat="44.43933" lon="6.88548">
        <ele>2203</ele>
        <time>2022-08-16T06:17:37Z</time>
      </trkpt>
      <trkpt lat="44.43935" lon="6.88547">
        <ele>2203</ele>
        <time>2022-08-16T06:17:38Z</time>
      </trkpt>
      <trkpt lat="44.43936" lon="6.88546">
        <ele>2203.4</ele>
        <time>2022-08-16T06:17:39Z</time>
      </trkpt>
      <trkpt lat="44.43937" lon="6.88546">
        <ele>2203.4</ele>
        <time>2022-08-16T06:17:40Z</time>
      </trkpt>
      <trkpt lat="44.43938" lon="6.88545">
        <ele>2203.4</ele>
        <time>2022-08-16T06:17:41Z</time>
      </trkpt>
      <trkpt lat="44.43939" lon="6.88545">
        <ele>2203.6</ele>
        <time>2022-08-16T06:17:42Z</time>
      </trkpt>
      <trkpt lat="44.4394" lon="6.88544">
        <ele>2203.8</ele>
        <time>2022-08-16T06:17:43Z</time>
      </trkpt>
      <trkpt lat="44.43941" lon="6.88544">
        <ele>2204</ele>
        <time>2022-08-16T06:17:44Z</time>
      </trkpt>
      <trkpt lat="44.43942" lon="6.88543">
        <ele>2203.8</ele>
        <time>2022-08-16T06:17:45Z</time>
      </trkpt>
      <trkpt lat="44.43943" lon="6.88542">
        <ele>2204</ele>
        <time>2022-08-16T06:17:46Z</time>
      </trkpt>
      <trkpt lat="44.43944" lon="6.88541">
        <ele>2204.2</ele>
        <time>2022-08-16T06:17:47Z</time>
      </trkpt>
      <trkpt lat="44.43946" lon="6.88541">
        <ele>2204.6</ele>
        <time>2022-08-16T06:17:48Z</time>
      </trkpt>
      <trkpt lat="44.43947" lon="6.8854">
        <ele>2204.6</ele>
        <time>2022-08-16T06:17:49Z</time>
      </trkpt>
      <trkpt lat="44.43948" lon="6.88539">
        <ele>2204.8</ele>
        <time>2022-08-16T06:17:50Z</time>
      </trkpt>
      <trkpt lat="44.43949" lon="6.88539">
        <ele>2204.8</ele>
        <time>2022-08-16T06:17:51Z</time>
      </trkpt>
      <trkpt lat="44.4395" lon="6.88538">
        <ele>2205.2</ele>
        <time>2022-08-16T06:17:52Z</time>
      </trkpt>
      <trkpt lat="44.43951" lon="6.88537">
        <ele>2205.4</ele>
        <time>2022-08-16T06:17:53Z</time>
      </trkpt>
      <trkpt lat="44.43952" lon="6.88536">
        <ele>2205.6</ele>
        <time>2022-08-16T06:17:54Z</time>
      </trkpt>
      <trkpt lat="44.43953" lon="6.88536">
        <ele>2205.6</ele>
        <time>2022-08-16T06:17:55Z</time>
      </trkpt>
      <trkpt lat="44.43954" lon="6.88535">
        <ele>2205.8</ele>
        <time>2022-08-16T06:17:56Z</time>
      </trkpt>
      <trkpt lat="44.43955" lon="6.88534">
        <ele>2205.8</ele>
        <time>2022-08-16T06:17:57Z</time>
      </trkpt>
      <trkpt lat="44.43957" lon="6.88533">
        <ele>2206</ele>
        <time>2022-08-16T06:17:58Z</time>
      </trkpt>
      <trkpt lat="44.43958" lon="6.88532">
        <ele>2206</ele>
        <time>2022-08-16T06:17:59Z</time>
      </trkpt>
      <trkpt lat="44.43959" lon="6.8853">
        <ele>2206</ele>
        <time>2022-08-16T06:18:00Z</time>
      </trkpt>
      <trkpt lat="44.4396" lon="6.88529">
        <ele>2206.4</ele>
        <time>2022-08-16T06:18:01Z</time>
      </trkpt>
      <trkpt lat="44.43961" lon="6.88528">
        <ele>2206.6</ele>
        <time>2022-08-16T06:18:02Z</time>
      </trkpt>
      <trkpt lat="44.43962" lon="6.88526">
        <ele>2206.4</ele>
        <time>2022-08-16T06:18:03Z</time>
      </trkpt>
      <trkpt lat="44.43963" lon="6.88524">
        <ele>2206.8</ele>
        <time>2022-08-16T06:18:04Z</time>
      </trkpt>
      <trkpt lat="44.43964" lon="6.88523">
        <ele>2207</ele>
        <time>2022-08-16T06:18:05Z</time>
      </trkpt>
      <trkpt lat="44.43965" lon="6.88521">
        <ele>2207.2</ele>
        <time>2022-08-16T06:18:06Z</time>
      </trkpt>
      <trkpt lat="44.43966" lon="6.8852">
        <ele>2207.4</ele>
        <time>2022-08-16T06:18:07Z</time>
      </trkpt>
      <trkpt lat="44.43967" lon="6.88518">
        <ele>2207.4</ele>
        <time>2022-08-16T06:18:08Z</time>
      </trkpt>
      <trkpt lat="44.43968" lon="6.88516">
        <ele>2207.6</ele>
        <time>2022-08-16T06:18:09Z</time>
      </trkpt>
      <trkpt lat="44.43968" lon="6.88514">
        <ele>2207.6</ele>
        <time>2022-08-16T06:18:10Z</time>
      </trkpt>
      <trkpt lat="44.43969" lon="6.88513">
        <ele>2207.6</ele>
        <time>2022-08-16T06:18:11Z</time>
      </trkpt>
      <trkpt lat="44.43969" lon="6.88511">
        <ele>2207.8</ele>
        <time>2022-08-16T06:18:12Z</time>
      </trkpt>
      <trkpt lat="44.43969" lon="6.88509">
        <ele>2208</ele>
        <time>2022-08-16T06:18:13Z</time>
      </trkpt>
      <trkpt lat="44.4397" lon="6.88508">
        <ele>2208.2</ele>
        <time>2022-08-16T06:18:14Z</time>
      </trkpt>
      <trkpt lat="44.4397" lon="6.88506">
        <ele>2208.2</ele>
        <time>2022-08-16T06:18:15Z</time>
      </trkpt>
      <trkpt lat="44.4397" lon="6.88504">
        <ele>2208.6</ele>
        <time>2022-08-16T06:18:16Z</time>
      </trkpt>
      <trkpt lat="44.43971" lon="6.88503">
        <ele>2208.8</ele>
        <time>2022-08-16T06:18:17Z</time>
      </trkpt>
      <trkpt lat="44.43971" lon="6.88501">
        <ele>2209</ele>
        <time>2022-08-16T06:18:18Z</time>
      </trkpt>
      <trkpt lat="44.43971" lon="6.88499">
        <ele>2209</ele>
        <time>2022-08-16T06:18:19Z</time>
      </trkpt>
      <trkpt lat="44.43972" lon="6.88498">
        <ele>2209.4</ele>
        <time>2022-08-16T06:18:20Z</time>
      </trkpt>
      <trkpt lat="44.43972" lon="6.88496">
        <ele>2209.4</ele>
        <time>2022-08-16T06:18:21Z</time>
      </trkpt>
      <trkpt lat="44.43973" lon="6.88495">
        <ele>2209.4</ele>
        <time>2022-08-16T06:18:22Z</time>
      </trkpt>
      <trkpt lat="44.43974" lon="6.88493">
        <ele>2209.4</ele>
        <time>2022-08-16T06:18:23Z</time>
      </trkpt>
      <trkpt lat="44.43974" lon="6.88492">
        <ele>2209.8</ele>
        <time>2022-08-16T06:18:24Z</time>
      </trkpt>
      <trkpt lat="44.43975" lon="6.8849">
        <ele>2209.8</ele>
        <time>2022-08-16T06:18:25Z</time>
      </trkpt>
      <trkpt lat="44.43975" lon="6.88489">
        <ele>2210</ele>
        <time>2022-08-16T06:18:26Z</time>
      </trkpt>
      <trkpt lat="44.43976" lon="6.88487">
        <ele>2210</ele>
        <time>2022-08-16T06:18:27Z</time>
      </trkpt>
      <trkpt lat="44.43977" lon="6.88486">
        <ele>2210.2</ele>
        <time>2022-08-16T06:18:28Z</time>
      </trkpt>
      <trkpt lat="44.43977" lon="6.88484">
        <ele>2210.6</ele>
        <time>2022-08-16T06:18:29Z</time>
      </trkpt>
      <trkpt lat="44.43978" lon="6.88483">
        <ele>2210.6</ele>
        <time>2022-08-16T06:18:30Z</time>
      </trkpt>
      <trkpt lat="44.43979" lon="6.88481">
        <ele>2210.6</ele>
        <time>2022-08-16T06:18:31Z</time>
      </trkpt>
      <trkpt lat="44.4398" lon="6.8848">
        <ele>2210.8</ele>
        <time>2022-08-16T06:18:32Z</time>
      </trkpt>
      <trkpt lat="44.4398" lon="6.88478">
        <ele>2210.8</ele>
        <time>2022-08-16T06:18:33Z</time>
      </trkpt>
      <trkpt lat="44.43981" lon="6.88477">
        <ele>2211</ele>
        <time>2022-08-16T06:18:34Z</time>
      </trkpt>
      <trkpt lat="44.43982" lon="6.88475">
        <ele>2211</ele>
        <time>2022-08-16T06:18:35Z</time>
      </trkpt>
      <trkpt lat="44.43983" lon="6.88474">
        <ele>2211</ele>
        <time>2022-08-16T06:18:36Z</time>
      </trkpt>
      <trkpt lat="44.43983" lon="6.88472">
        <ele>2211.2</ele>
        <time>2022-08-16T06:18:37Z</time>
      </trkpt>
      <trkpt lat="44.43984" lon="6.88471">
        <ele>2211.2</ele>
        <time>2022-08-16T06:18:38Z</time>
      </trkpt>
      <trkpt lat="44.43985" lon="6.8847">
        <ele>2211.6</ele>
        <time>2022-08-16T06:18:39Z</time>
      </trkpt>
      <trkpt lat="44.43986" lon="6.88468">
        <ele>2211.8</ele>
        <time>2022-08-16T06:18:40Z</time>
      </trkpt>
      <trkpt lat="44.43987" lon="6.88467">
        <ele>2211.8</ele>
        <time>2022-08-16T06:18:41Z</time>
      </trkpt>
      <trkpt lat="44.43988" lon="6.88466">
        <ele>2212.2</ele>
        <time>2022-08-16T06:18:42Z</time>
      </trkpt>
      <trkpt lat="44.43988" lon="6.88464">
        <ele>2212.2</ele>
        <time>2022-08-16T06:18:43Z</time>
      </trkpt>
      <trkpt lat="44.43989" lon="6.88463">
        <ele>2212.4</ele>
        <time>2022-08-16T06:18:44Z</time>
      </trkpt>
      <trkpt lat="44.4399" lon="6.88461">
        <ele>2212.4</ele>
        <time>2022-08-16T06:18:45Z</time>
      </trkpt>
      <trkpt lat="44.43991" lon="6.8846">
        <ele>2212.6</ele>
        <time>2022-08-16T06:18:46Z</time>
      </trkpt>
      <trkpt lat="44.43992" lon="6.88459">
        <ele>2212.6</ele>
        <time>2022-08-16T06:18:47Z</time>
      </trkpt>
      <trkpt lat="44.43993" lon="6.88457">
        <ele>2212.6</ele>
        <time>2022-08-16T06:18:48Z</time>
      </trkpt>
      <trkpt lat="44.43994" lon="6.88456">
        <ele>2212.8</ele>
        <time>2022-08-16T06:18:49Z</time>
      </trkpt>
      <trkpt lat="44.43995" lon="6.88455">
        <ele>2212.8</ele>
        <time>2022-08-16T06:18:50Z</time>
      </trkpt>
      <trkpt lat="44.43996" lon="6.88454">
        <ele>2213</ele>
        <time>2022-08-16T06:18:51Z</time>
      </trkpt>
      <trkpt lat="44.43997" lon="6.88453">
        <ele>2213</ele>
        <time>2022-08-16T06:18:52Z</time>
      </trkpt>
      <trkpt lat="44.43998" lon="6.88451">
        <ele>2213.2</ele>
        <time>2022-08-16T06:18:53Z</time>
      </trkpt>
      <trkpt lat="44.43999" lon="6.8845">
        <ele>2213.4</ele>
        <time>2022-08-16T06:18:54Z</time>
      </trkpt>
      <trkpt lat="44.44" lon="6.88449">
        <ele>2213.4</ele>
        <time>2022-08-16T06:18:55Z</time>
      </trkpt>
      <trkpt lat="44.44001" lon="6.88447">
        <ele>2213.6</ele>
        <time>2022-08-16T06:18:56Z</time>
      </trkpt>
      <trkpt lat="44.44002" lon="6.88446">
        <ele>2213.8</ele>
        <time>2022-08-16T06:18:57Z</time>
      </trkpt>
      <trkpt lat="44.44003" lon="6.88445">
        <ele>2213.8</ele>
        <time>2022-08-16T06:18:58Z</time>
      </trkpt>
      <trkpt lat="44.44004" lon="6.88444">
        <ele>2214</ele>
        <time>2022-08-16T06:18:59Z</time>
      </trkpt>
      <trkpt lat="44.44005" lon="6.88443">
        <ele>2214</ele>
        <time>2022-08-16T06:19:00Z</time>
      </trkpt>
      <trkpt lat="44.44006" lon="6.88442">
        <ele>2214</ele>
        <time>2022-08-16T06:19:01Z</time>
      </trkpt>
      <trkpt lat="44.44007" lon="6.88441">
        <ele>2214.2</ele>
        <time>2022-08-16T06:19:02Z</time>
      </trkpt>
      <trkpt lat="44.44008" lon="6.8844">
        <ele>2214.4</ele>
        <time>2022-08-16T06:19:03Z</time>
      </trkpt>
      <trkpt lat="44.44009" lon="6.88439">
        <ele>2214.6</ele>
        <time>2022-08-16T06:19:04Z</time>
      </trkpt>
      <trkpt lat="44.44011" lon="6.88438">
        <ele>2214.6</ele>
        <time>2022-08-16T06:19:05Z</time>
      </trkpt>
      <trkpt lat="44.44012" lon="6.88437">
        <ele>2214.6</ele>
        <time>2022-08-16T06:19:06Z</time>
      </trkpt>
      <trkpt lat="44.44013" lon="6.88436">
        <ele>2214.8</ele>
        <time>2022-08-16T06:19:07Z</time>
      </trkpt>
      <trkpt lat="44.44015" lon="6.88436">
        <ele>2214.8</ele>
        <time>2022-08-16T06:19:08Z</time>
      </trkpt>
      <trkpt lat="44.44019" lon="6.88435">
        <ele>2214.8</ele>
        <time>2022-08-16T06:19:11Z</time>
      </trkpt>
      <trkpt lat="44.44021" lon="6.88435">
        <ele>2215</ele>
        <time>2022-08-16T06:19:13Z</time>
      </trkpt>
      <trkpt lat="44.44023" lon="6.88435">
        <ele>2215.2</ele>
        <time>2022-08-16T06:19:14Z</time>
      </trkpt>
      <trkpt lat="44.44024" lon="6.88435">
        <ele>2215.2</ele>
        <time>2022-08-16T06:19:15Z</time>
      </trkpt>
      <trkpt lat="44.44029" lon="6.88438">
        <ele>2215.4</ele>
        <time>2022-08-16T06:19:19Z</time>
      </trkpt>
      <trkpt lat="44.4403" lon="6.88438">
        <ele>2215.6</ele>
        <time>2022-08-16T06:19:20Z</time>
      </trkpt>
      <trkpt lat="44.44031" lon="6.88438">
        <ele>2215.6</ele>
        <time>2022-08-16T06:19:21Z</time>
      </trkpt>
      <trkpt lat="44.44033" lon="6.88439">
        <ele>2215.8</ele>
        <time>2022-08-16T06:19:22Z</time>
      </trkpt>
      <trkpt lat="44.44036" lon="6.88441">
        <ele>2216.2</ele>
        <time>2022-08-16T06:19:25Z</time>
      </trkpt>
      <trkpt lat="44.44037" lon="6.88442">
        <ele>2216.4</ele>
        <time>2022-08-16T06:19:26Z</time>
      </trkpt>
      <trkpt lat="44.44039" lon="6.88442">
        <ele>2216.4</ele>
        <time>2022-08-16T06:19:27Z</time>
      </trkpt>
      <trkpt lat="44.4404" lon="6.88443">
        <ele>2216.4</ele>
        <time>2022-08-16T06:19:28Z</time>
      </trkpt>
      <trkpt lat="44.44041" lon="6.88443">
        <ele>2216.6</ele>
        <time>2022-08-16T06:19:29Z</time>
      </trkpt>
      <trkpt lat="44.44042" lon="6.88444">
        <ele>2216.6</ele>
        <time>2022-08-16T06:19:30Z</time>
      </trkpt>
      <trkpt lat="44.44044" lon="6.88444">
        <ele>2217</ele>
        <time>2022-08-16T06:19:31Z</time>
      </trkpt>
      <trkpt lat="44.44045" lon="6.88445">
        <ele>2217</ele>
        <time>2022-08-16T06:19:32Z</time>
      </trkpt>
      <trkpt lat="44.44047" lon="6.88445">
        <ele>2217.2</ele>
        <time>2022-08-16T06:19:33Z</time>
      </trkpt>
      <trkpt lat="44.44048" lon="6.88446">
        <ele>2217.4</ele>
        <time>2022-08-16T06:19:34Z</time>
      </trkpt>
      <trkpt lat="44.44049" lon="6.88446">
        <ele>2217.4</ele>
        <time>2022-08-16T06:19:35Z</time>
      </trkpt>
      <trkpt lat="44.4405" lon="6.88446">
        <ele>2217.6</ele>
        <time>2022-08-16T06:19:36Z</time>
      </trkpt>
      <trkpt lat="44.44052" lon="6.88446">
        <ele>2217.6</ele>
        <time>2022-08-16T06:19:37Z</time>
      </trkpt>
      <trkpt lat="44.44053" lon="6.88446">
        <ele>2217.8</ele>
        <time>2022-08-16T06:19:38Z</time>
      </trkpt>
      <trkpt lat="44.44054" lon="6.88445">
        <ele>2217.8</ele>
        <time>2022-08-16T06:19:39Z</time>
      </trkpt>
      <trkpt lat="44.44056" lon="6.88444">
        <ele>2218</ele>
        <time>2022-08-16T06:19:40Z</time>
      </trkpt>
      <trkpt lat="44.44057" lon="6.88444">
        <ele>2218</ele>
        <time>2022-08-16T06:19:41Z</time>
      </trkpt>
      <trkpt lat="44.44058" lon="6.88443">
        <ele>2218.4</ele>
        <time>2022-08-16T06:19:42Z</time>
      </trkpt>
      <trkpt lat="44.44059" lon="6.88442">
        <ele>2218.6</ele>
        <time>2022-08-16T06:19:43Z</time>
      </trkpt>
      <trkpt lat="44.44061" lon="6.88441">
        <ele>2218.6</ele>
        <time>2022-08-16T06:19:44Z</time>
      </trkpt>
      <trkpt lat="44.44061" lon="6.88439">
        <ele>2219</ele>
        <time>2022-08-16T06:19:45Z</time>
      </trkpt>
      <trkpt lat="44.44062" lon="6.88438">
        <ele>2219.2</ele>
        <time>2022-08-16T06:19:46Z</time>
      </trkpt>
      <trkpt lat="44.44063" lon="6.88436">
        <ele>2219.2</ele>
        <time>2022-08-16T06:19:47Z</time>
      </trkpt>
      <trkpt lat="44.44064" lon="6.88434">
        <ele>2219.6</ele>
        <time>2022-08-16T06:19:48Z</time>
      </trkpt>
      <trkpt lat="44.44065" lon="6.88433">
        <ele>2219.8</ele>
        <time>2022-08-16T06:19:49Z</time>
      </trkpt>
      <trkpt lat="44.44065" lon="6.88431">
        <ele>2220.2</ele>
        <time>2022-08-16T06:19:50Z</time>
      </trkpt>
      <trkpt lat="44.44066" lon="6.88429">
        <ele>2220.4</ele>
        <time>2022-08-16T06:19:51Z</time>
      </trkpt>
      <trkpt lat="44.44066" lon="6.88427">
        <ele>2220.8</ele>
        <time>2022-08-16T06:19:52Z</time>
      </trkpt>
      <trkpt lat="44.44067" lon="6.88425">
        <ele>2220.8</ele>
        <time>2022-08-16T06:19:53Z</time>
      </trkpt>
      <trkpt lat="44.44067" lon="6.88424">
        <ele>2221</ele>
        <time>2022-08-16T06:19:54Z</time>
      </trkpt>
      <trkpt lat="44.44068" lon="6.88422">
        <ele>2221.2</ele>
        <time>2022-08-16T06:19:55Z</time>
      </trkpt>
      <trkpt lat="44.44069" lon="6.8842">
        <ele>2221.4</ele>
        <time>2022-08-16T06:19:56Z</time>
      </trkpt>
      <trkpt lat="44.44069" lon="6.88418">
        <ele>2221.6</ele>
        <time>2022-08-16T06:19:57Z</time>
      </trkpt>
      <trkpt lat="44.4407" lon="6.88416">
        <ele>2221.6</ele>
        <time>2022-08-16T06:19:58Z</time>
      </trkpt>
      <trkpt lat="44.44071" lon="6.88414">
        <ele>2221.8</ele>
        <time>2022-08-16T06:19:59Z</time>
      </trkpt>
      <trkpt lat="44.44072" lon="6.88413">
        <ele>2221.8</ele>
        <time>2022-08-16T06:20:00Z</time>
      </trkpt>
      <trkpt lat="44.44073" lon="6.88412">
        <ele>2222</ele>
        <time>2022-08-16T06:20:01Z</time>
      </trkpt>
      <trkpt lat="44.44074" lon="6.88411">
        <ele>2222.4</ele>
        <time>2022-08-16T06:20:02Z</time>
      </trkpt>
      <trkpt lat="44.44075" lon="6.8841">
        <ele>2222.4</ele>
        <time>2022-08-16T06:20:03Z</time>
      </trkpt>
      <trkpt lat="44.44077" lon="6.88409">
        <ele>2222.6</ele>
        <time>2022-08-16T06:20:04Z</time>
      </trkpt>
      <trkpt lat="44.44078" lon="6.88409">
        <ele>2222.6</ele>
        <time>2022-08-16T06:20:05Z</time>
      </trkpt>
      <trkpt lat="44.44079" lon="6.88408">
        <ele>2222.8</ele>
        <time>2022-08-16T06:20:06Z</time>
      </trkpt>
      <trkpt lat="44.4408" lon="6.88408">
        <ele>2222.8</ele>
        <time>2022-08-16T06:20:07Z</time>
      </trkpt>
      <trkpt lat="44.44081" lon="6.88408">
        <ele>2223</ele>
        <time>2022-08-16T06:20:08Z</time>
      </trkpt>
      <trkpt lat="44.44083" lon="6.88408">
        <ele>2223.2</ele>
        <time>2022-08-16T06:20:09Z</time>
      </trkpt>
      <trkpt lat="44.44084" lon="6.88407">
        <ele>2223.4</ele>
        <time>2022-08-16T06:20:10Z</time>
      </trkpt>
      <trkpt lat="44.44085" lon="6.88407">
        <ele>2223.2</ele>
        <time>2022-08-16T06:20:11Z</time>
      </trkpt>
      <trkpt lat="44.44087" lon="6.88407">
        <ele>2223.2</ele>
        <time>2022-08-16T06:20:12Z</time>
      </trkpt>
      <trkpt lat="44.44088" lon="6.88406">
        <ele>2223.4</ele>
        <time>2022-08-16T06:20:13Z</time>
      </trkpt>
      <trkpt lat="44.44089" lon="6.88406">
        <ele>2223.4</ele>
        <time>2022-08-16T06:20:14Z</time>
      </trkpt>
      <trkpt lat="44.4409" lon="6.88406">
        <ele>2223.6</ele>
        <time>2022-08-16T06:20:15Z</time>
      </trkpt>
      <trkpt lat="44.44092" lon="6.88406">
        <ele>2223.8</ele>
        <time>2022-08-16T06:20:16Z</time>
      </trkpt>
      <trkpt lat="44.44093" lon="6.88406">
        <ele>2223.8</ele>
        <time>2022-08-16T06:20:17Z</time>
      </trkpt>
      <trkpt lat="44.44094" lon="6.88406">
        <ele>2224</ele>
        <time>2022-08-16T06:20:18Z</time>
      </trkpt>
      <trkpt lat="44.44095" lon="6.88406">
        <ele>2224.4</ele>
        <time>2022-08-16T06:20:19Z</time>
      </trkpt>
      <trkpt lat="44.44097" lon="6.88405">
        <ele>2224.4</ele>
        <time>2022-08-16T06:20:20Z</time>
      </trkpt>
      <trkpt lat="44.44098" lon="6.88405">
        <ele>2224.4</ele>
        <time>2022-08-16T06:20:21Z</time>
      </trkpt>
      <trkpt lat="44.44099" lon="6.88406">
        <ele>2224.4</ele>
        <time>2022-08-16T06:20:22Z</time>
      </trkpt>
      <trkpt lat="44.44101" lon="6.88405">
        <ele>2224.8</ele>
        <time>2022-08-16T06:20:23Z</time>
      </trkpt>
      <trkpt lat="44.44102" lon="6.88405">
        <ele>2224.8</ele>
        <time>2022-08-16T06:20:24Z</time>
      </trkpt>
      <trkpt lat="44.44103" lon="6.88405">
        <ele>2225</ele>
        <time>2022-08-16T06:20:25Z</time>
      </trkpt>
      <trkpt lat="44.44105" lon="6.88405">
        <ele>2225</ele>
        <time>2022-08-16T06:20:26Z</time>
      </trkpt>
      <trkpt lat="44.44106" lon="6.88406">
        <ele>2225.2</ele>
        <time>2022-08-16T06:20:27Z</time>
      </trkpt>
      <trkpt lat="44.44107" lon="6.88406">
        <ele>2225.2</ele>
        <time>2022-08-16T06:20:28Z</time>
      </trkpt>
      <trkpt lat="44.44109" lon="6.88406">
        <ele>2225.4</ele>
        <time>2022-08-16T06:20:29Z</time>
      </trkpt>
      <trkpt lat="44.4411" lon="6.88406">
        <ele>2225.6</ele>
        <time>2022-08-16T06:20:30Z</time>
      </trkpt>
      <trkpt lat="44.44111" lon="6.88406">
        <ele>2225.8</ele>
        <time>2022-08-16T06:20:31Z</time>
      </trkpt>
      <trkpt lat="44.44113" lon="6.88406">
        <ele>2225.8</ele>
        <time>2022-08-16T06:20:32Z</time>
      </trkpt>
      <trkpt lat="44.44114" lon="6.88406">
        <ele>2225.8</ele>
        <time>2022-08-16T06:20:33Z</time>
      </trkpt>
      <trkpt lat="44.44115" lon="6.88406">
        <ele>2226</ele>
        <time>2022-08-16T06:20:34Z</time>
      </trkpt>
      <trkpt lat="44.44117" lon="6.88405">
        <ele>2226.2</ele>
        <time>2022-08-16T06:20:35Z</time>
      </trkpt>
      <trkpt lat="44.44118" lon="6.88404">
        <ele>2226.4</ele>
        <time>2022-08-16T06:20:36Z</time>
      </trkpt>
      <trkpt lat="44.44119" lon="6.88403">
        <ele>2226.4</ele>
        <time>2022-08-16T06:20:37Z</time>
      </trkpt>
      <trkpt lat="44.4412" lon="6.88402">
        <ele>2226.6</ele>
        <time>2022-08-16T06:20:38Z</time>
      </trkpt>
      <trkpt lat="44.44121" lon="6.88401">
        <ele>2226.6</ele>
        <time>2022-08-16T06:20:39Z</time>
      </trkpt>
      <trkpt lat="44.44123" lon="6.884">
        <ele>2227</ele>
        <time>2022-08-16T06:20:40Z</time>
      </trkpt>
      <trkpt lat="44.44123" lon="6.88398">
        <ele>2227.2</ele>
        <time>2022-08-16T06:20:41Z</time>
      </trkpt>
      <trkpt lat="44.44124" lon="6.88397">
        <ele>2227.4</ele>
        <time>2022-08-16T06:20:42Z</time>
      </trkpt>
      <trkpt lat="44.44125" lon="6.88396">
        <ele>2227.6</ele>
        <time>2022-08-16T06:20:43Z</time>
      </trkpt>
      <trkpt lat="44.44126" lon="6.88394">
        <ele>2227.8</ele>
        <time>2022-08-16T06:20:44Z</time>
      </trkpt>
      <trkpt lat="44.44127" lon="6.88392">
        <ele>2227.8</ele>
        <time>2022-08-16T06:20:45Z</time>
      </trkpt>
      <trkpt lat="44.44128" lon="6.88391">
        <ele>2228.2</ele>
        <time>2022-08-16T06:20:46Z</time>
      </trkpt>
      <trkpt lat="44.44129" lon="6.88389">
        <ele>2228.4</ele>
        <time>2022-08-16T06:20:47Z</time>
      </trkpt>
      <trkpt lat="44.44129" lon="6.88388">
        <ele>2228.6</ele>
        <time>2022-08-16T06:20:48Z</time>
      </trkpt>
      <trkpt lat="44.4413" lon="6.88386">
        <ele>2228.6</ele>
        <time>2022-08-16T06:20:49Z</time>
      </trkpt>
      <trkpt lat="44.44131" lon="6.88385">
        <ele>2228.6</ele>
        <time>2022-08-16T06:20:50Z</time>
      </trkpt>
      <trkpt lat="44.44132" lon="6.88383">
        <ele>2229</ele>
        <time>2022-08-16T06:20:51Z</time>
      </trkpt>
      <trkpt lat="44.44132" lon="6.88382">
        <ele>2229</ele>
        <time>2022-08-16T06:20:52Z</time>
      </trkpt>
      <trkpt lat="44.44133" lon="6.8838">
        <ele>2229</ele>
        <time>2022-08-16T06:20:53Z</time>
      </trkpt>
      <trkpt lat="44.44134" lon="6.88379">
        <ele>2229.2</ele>
        <time>2022-08-16T06:20:54Z</time>
      </trkpt>
      <trkpt lat="44.44135" lon="6.88377">
        <ele>2229.4</ele>
        <time>2022-08-16T06:20:55Z</time>
      </trkpt>
      <trkpt lat="44.44136" lon="6.88376">
        <ele>2229.4</ele>
        <time>2022-08-16T06:20:56Z</time>
      </trkpt>
      <trkpt lat="44.44136" lon="6.88374">
        <ele>2229.6</ele>
        <time>2022-08-16T06:20:57Z</time>
      </trkpt>
      <trkpt lat="44.44137" lon="6.88373">
        <ele>2229.8</ele>
        <time>2022-08-16T06:20:58Z</time>
      </trkpt>
      <trkpt lat="44.44138" lon="6.88371">
        <ele>2230</ele>
        <time>2022-08-16T06:20:59Z</time>
      </trkpt>
      <trkpt lat="44.44138" lon="6.8837">
        <ele>2230.2</ele>
        <time>2022-08-16T06:21:00Z</time>
      </trkpt>
      <trkpt lat="44.44139" lon="6.88368">
        <ele>2230</ele>
        <time>2022-08-16T06:21:01Z</time>
      </trkpt>
      <trkpt lat="44.4414" lon="6.88367">
        <ele>2230.2</ele>
        <time>2022-08-16T06:21:02Z</time>
      </trkpt>
      <trkpt lat="44.44141" lon="6.88366">
        <ele>2230.4</ele>
        <time>2022-08-16T06:21:03Z</time>
      </trkpt>
      <trkpt lat="44.44142" lon="6.88364">
        <ele>2230.4</ele>
        <time>2022-08-16T06:21:04Z</time>
      </trkpt>
      <trkpt lat="44.44143" lon="6.88363">
        <ele>2230.6</ele>
        <time>2022-08-16T06:21:05Z</time>
      </trkpt>
      <trkpt lat="44.44144" lon="6.88361">
        <ele>2230.6</ele>
        <time>2022-08-16T06:21:06Z</time>
      </trkpt>
      <trkpt lat="44.44145" lon="6.8836">
        <ele>2230.8</ele>
        <time>2022-08-16T06:21:07Z</time>
      </trkpt>
      <trkpt lat="44.44145" lon="6.88359">
        <ele>2231</ele>
        <time>2022-08-16T06:21:08Z</time>
      </trkpt>
      <trkpt lat="44.44146" lon="6.88357">
        <ele>2231</ele>
        <time>2022-08-16T06:21:09Z</time>
      </trkpt>
      <trkpt lat="44.44147" lon="6.88356">
        <ele>2231</ele>
        <time>2022-08-16T06:21:10Z</time>
      </trkpt>
      <trkpt lat="44.44148" lon="6.88354">
        <ele>2231.4</ele>
        <time>2022-08-16T06:21:11Z</time>
      </trkpt>
      <trkpt lat="44.44148" lon="6.88353">
        <ele>2231.4</ele>
        <time>2022-08-16T06:21:12Z</time>
      </trkpt>
      <trkpt lat="44.44149" lon="6.88352">
        <ele>2231.4</ele>
        <time>2022-08-16T06:21:13Z</time>
      </trkpt>
      <trkpt lat="44.4415" lon="6.8835">
        <ele>2231.8</ele>
        <time>2022-08-16T06:21:14Z</time>
      </trkpt>
      <trkpt lat="44.44151" lon="6.88349">
        <ele>2232</ele>
        <time>2022-08-16T06:21:15Z</time>
      </trkpt>
      <trkpt lat="44.44152" lon="6.88347">
        <ele>2232</ele>
        <time>2022-08-16T06:21:16Z</time>
      </trkpt>
      <trkpt lat="44.44153" lon="6.88346">
        <ele>2232</ele>
        <time>2022-08-16T06:21:17Z</time>
      </trkpt>
      <trkpt lat="44.44154" lon="6.88345">
        <ele>2232</ele>
        <time>2022-08-16T06:21:18Z</time>
      </trkpt>
      <trkpt lat="44.44155" lon="6.88343">
        <ele>2232</ele>
        <time>2022-08-16T06:21:19Z</time>
      </trkpt>
      <trkpt lat="44.44155" lon="6.88342">
        <ele>2232.4</ele>
        <time>2022-08-16T06:21:20Z</time>
      </trkpt>
      <trkpt lat="44.44156" lon="6.88341">
        <ele>2232.4</ele>
        <time>2022-08-16T06:21:21Z</time>
      </trkpt>
      <trkpt lat="44.44157" lon="6.88339">
        <ele>2232.6</ele>
        <time>2022-08-16T06:21:22Z</time>
      </trkpt>
      <trkpt lat="44.44158" lon="6.88338">
        <ele>2232.8</ele>
        <time>2022-08-16T06:21:23Z</time>
      </trkpt>
      <trkpt lat="44.44159" lon="6.88336">
        <ele>2232.8</ele>
        <time>2022-08-16T06:21:24Z</time>
      </trkpt>
      <trkpt lat="44.4416" lon="6.88335">
        <ele>2233</ele>
        <time>2022-08-16T06:21:25Z</time>
      </trkpt>
      <trkpt lat="44.44161" lon="6.88333">
        <ele>2233</ele>
        <time>2022-08-16T06:21:26Z</time>
      </trkpt>
      <trkpt lat="44.44162" lon="6.88332">
        <ele>2233</ele>
        <time>2022-08-16T06:21:27Z</time>
      </trkpt>
      <trkpt lat="44.44163" lon="6.8833">
        <ele>2233.2</ele>
        <time>2022-08-16T06:21:28Z</time>
      </trkpt>
      <trkpt lat="44.44163" lon="6.88329">
        <ele>2233.4</ele>
        <time>2022-08-16T06:21:29Z</time>
      </trkpt>
      <trkpt lat="44.44164" lon="6.88328">
        <ele>2233.4</ele>
        <time>2022-08-16T06:21:30Z</time>
      </trkpt>
      <trkpt lat="44.44165" lon="6.88327">
        <ele>2233.4</ele>
        <time>2022-08-16T06:21:31Z</time>
      </trkpt>
      <trkpt lat="44.44167" lon="6.88325">
        <ele>2233.4</ele>
        <time>2022-08-16T06:21:32Z</time>
      </trkpt>
      <trkpt lat="44.44168" lon="6.88324">
        <ele>2233.6</ele>
        <time>2022-08-16T06:21:33Z</time>
      </trkpt>
      <trkpt lat="44.44169" lon="6.88323">
        <ele>2233.8</ele>
        <time>2022-08-16T06:21:34Z</time>
      </trkpt>
      <trkpt lat="44.4417" lon="6.88322">
        <ele>2234</ele>
        <time>2022-08-16T06:21:35Z</time>
      </trkpt>
      <trkpt lat="44.44171" lon="6.8832">
        <ele>2234.2</ele>
        <time>2022-08-16T06:21:36Z</time>
      </trkpt>
      <trkpt lat="44.44172" lon="6.88319">
        <ele>2234.4</ele>
        <time>2022-08-16T06:21:37Z</time>
      </trkpt>
      <trkpt lat="44.44173" lon="6.88317">
        <ele>2234.4</ele>
        <time>2022-08-16T06:21:38Z</time>
      </trkpt>
      <trkpt lat="44.44174" lon="6.88316">
        <ele>2234.6</ele>
        <time>2022-08-16T06:21:39Z</time>
      </trkpt>
      <trkpt lat="44.44175" lon="6.88315">
        <ele>2234.8</ele>
        <time>2022-08-16T06:21:40Z</time>
      </trkpt>
      <trkpt lat="44.44176" lon="6.88313">
        <ele>2234.8</ele>
        <time>2022-08-16T06:21:41Z</time>
      </trkpt>
      <trkpt lat="44.44176" lon="6.88312">
        <ele>2235</ele>
        <time>2022-08-16T06:21:42Z</time>
      </trkpt>
      <trkpt lat="44.44177" lon="6.8831">
        <ele>2235.2</ele>
        <time>2022-08-16T06:21:43Z</time>
      </trkpt>
      <trkpt lat="44.44178" lon="6.88309">
        <ele>2235.2</ele>
        <time>2022-08-16T06:21:44Z</time>
      </trkpt>
      <trkpt lat="44.44179" lon="6.88308">
        <ele>2235.4</ele>
        <time>2022-08-16T06:21:45Z</time>
      </trkpt>
      <trkpt lat="44.4418" lon="6.88306">
        <ele>2235.4</ele>
        <time>2022-08-16T06:21:46Z</time>
      </trkpt>
      <trkpt lat="44.44181" lon="6.88305">
        <ele>2235.8</ele>
        <time>2022-08-16T06:21:47Z</time>
      </trkpt>
      <trkpt lat="44.44181" lon="6.88304">
        <ele>2236</ele>
        <time>2022-08-16T06:21:48Z</time>
      </trkpt>
      <trkpt lat="44.44182" lon="6.88302">
        <ele>2236</ele>
        <time>2022-08-16T06:21:49Z</time>
      </trkpt>
      <trkpt lat="44.44183" lon="6.88301">
        <ele>2236.2</ele>
        <time>2022-08-16T06:21:50Z</time>
      </trkpt>
      <trkpt lat="44.44184" lon="6.883">
        <ele>2236.2</ele>
        <time>2022-08-16T06:21:51Z</time>
      </trkpt>
      <trkpt lat="44.44185" lon="6.88298">
        <ele>2236.4</ele>
        <time>2022-08-16T06:21:52Z</time>
      </trkpt>
      <trkpt lat="44.44185" lon="6.88297">
        <ele>2236.8</ele>
        <time>2022-08-16T06:21:53Z</time>
      </trkpt>
      <trkpt lat="44.44186" lon="6.88296">
        <ele>2236.8</ele>
        <time>2022-08-16T06:21:54Z</time>
      </trkpt>
      <trkpt lat="44.44187" lon="6.88294">
        <ele>2236.8</ele>
        <time>2022-08-16T06:21:55Z</time>
      </trkpt>
      <trkpt lat="44.44188" lon="6.88293">
        <ele>2237</ele>
        <time>2022-08-16T06:21:56Z</time>
      </trkpt>
      <trkpt lat="44.44189" lon="6.88292">
        <ele>2237</ele>
        <time>2022-08-16T06:21:57Z</time>
      </trkpt>
      <trkpt lat="44.44189" lon="6.8829">
        <ele>2237</ele>
        <time>2022-08-16T06:21:58Z</time>
      </trkpt>
      <trkpt lat="44.4419" lon="6.88289">
        <ele>2237.4</ele>
        <time>2022-08-16T06:21:59Z</time>
      </trkpt>
      <trkpt lat="44.44191" lon="6.88288">
        <ele>2237.8</ele>
        <time>2022-08-16T06:22:00Z</time>
      </trkpt>
      <trkpt lat="44.44192" lon="6.88286">
        <ele>2238</ele>
        <time>2022-08-16T06:22:01Z</time>
      </trkpt>
      <trkpt lat="44.44193" lon="6.88285">
        <ele>2238</ele>
        <time>2022-08-16T06:22:02Z</time>
      </trkpt>
      <trkpt lat="44.44193" lon="6.88284">
        <ele>2238</ele>
        <time>2022-08-16T06:22:03Z</time>
      </trkpt>
      <trkpt lat="44.44194" lon="6.88282">
        <ele>2238.2</ele>
        <time>2022-08-16T06:22:04Z</time>
      </trkpt>
      <trkpt lat="44.44195" lon="6.88281">
        <ele>2238.2</ele>
        <time>2022-08-16T06:22:05Z</time>
      </trkpt>
      <trkpt lat="44.44196" lon="6.8828">
        <ele>2238.4</ele>
        <time>2022-08-16T06:22:06Z</time>
      </trkpt>
      <trkpt lat="44.44197" lon="6.88278">
        <ele>2238.4</ele>
        <time>2022-08-16T06:22:07Z</time>
      </trkpt>
      <trkpt lat="44.44197" lon="6.88277">
        <ele>2238.8</ele>
        <time>2022-08-16T06:22:08Z</time>
      </trkpt>
      <trkpt lat="44.44198" lon="6.88276">
        <ele>2238.8</ele>
        <time>2022-08-16T06:22:09Z</time>
      </trkpt>
      <trkpt lat="44.44199" lon="6.88274">
        <ele>2239</ele>
        <time>2022-08-16T06:22:10Z</time>
      </trkpt>
      <trkpt lat="44.442" lon="6.88273">
        <ele>2239</ele>
        <time>2022-08-16T06:22:11Z</time>
      </trkpt>
      <trkpt lat="44.44201" lon="6.88272">
        <ele>2239.4</ele>
        <time>2022-08-16T06:22:12Z</time>
      </trkpt>
      <trkpt lat="44.44201" lon="6.8827">
        <ele>2239.4</ele>
        <time>2022-08-16T06:22:13Z</time>
      </trkpt>
      <trkpt lat="44.44202" lon="6.88269">
        <ele>2239.6</ele>
        <time>2022-08-16T06:22:14Z</time>
      </trkpt>
      <trkpt lat="44.44203" lon="6.88268">
        <ele>2239.8</ele>
        <time>2022-08-16T06:22:15Z</time>
      </trkpt>
      <trkpt lat="44.44204" lon="6.88267">
        <ele>2239.8</ele>
        <time>2022-08-16T06:22:16Z</time>
      </trkpt>
      <trkpt lat="44.44205" lon="6.88265">
        <ele>2240.2</ele>
        <time>2022-08-16T06:22:17Z</time>
      </trkpt>
      <trkpt lat="44.44205" lon="6.88264">
        <ele>2240.2</ele>
        <time>2022-08-16T06:22:18Z</time>
      </trkpt>
      <trkpt lat="44.44206" lon="6.88262">
        <ele>2240.2</ele>
        <time>2022-08-16T06:22:19Z</time>
      </trkpt>
      <trkpt lat="44.44207" lon="6.88261">
        <ele>2240.4</ele>
        <time>2022-08-16T06:22:20Z</time>
      </trkpt>
      <trkpt lat="44.44208" lon="6.8826">
        <ele>2240.2</ele>
        <time>2022-08-16T06:22:21Z</time>
      </trkpt>
      <trkpt lat="44.44209" lon="6.88259">
        <ele>2240.2</ele>
        <time>2022-08-16T06:22:22Z</time>
      </trkpt>
      <trkpt lat="44.4421" lon="6.88257">
        <ele>2240.6</ele>
        <time>2022-08-16T06:22:23Z</time>
      </trkpt>
      <trkpt lat="44.44211" lon="6.88256">
        <ele>2240.8</ele>
        <time>2022-08-16T06:22:24Z</time>
      </trkpt>
      <trkpt lat="44.44212" lon="6.88254">
        <ele>2241</ele>
        <time>2022-08-16T06:22:25Z</time>
      </trkpt>
      <trkpt lat="44.44213" lon="6.88253">
        <ele>2241</ele>
        <time>2022-08-16T06:22:26Z</time>
      </trkpt>
      <trkpt lat="44.44214" lon="6.88252">
        <ele>2241</ele>
        <time>2022-08-16T06:22:27Z</time>
      </trkpt>
      <trkpt lat="44.44214" lon="6.88251">
        <ele>2241.2</ele>
        <time>2022-08-16T06:22:28Z</time>
      </trkpt>
      <trkpt lat="44.44215" lon="6.8825">
        <ele>2241.4</ele>
        <time>2022-08-16T06:22:29Z</time>
      </trkpt>
      <trkpt lat="44.44216" lon="6.88249">
        <ele>2241.4</ele>
        <time>2022-08-16T06:22:30Z</time>
      </trkpt>
      <trkpt lat="44.44217" lon="6.88248">
        <ele>2241.6</ele>
        <time>2022-08-16T06:22:31Z</time>
      </trkpt>
      <trkpt lat="44.44218" lon="6.88247">
        <ele>2241.8</ele>
        <time>2022-08-16T06:22:32Z</time>
      </trkpt>
      <trkpt lat="44.44219" lon="6.88246">
        <ele>2242</ele>
        <time>2022-08-16T06:22:33Z</time>
      </trkpt>
      <trkpt lat="44.4422" lon="6.88245">
        <ele>2242.2</ele>
        <time>2022-08-16T06:22:34Z</time>
      </trkpt>
      <trkpt lat="44.44221" lon="6.88244">
        <ele>2242.2</ele>
        <time>2022-08-16T06:22:35Z</time>
      </trkpt>
      <trkpt lat="44.44222" lon="6.88243">
        <ele>2242.2</ele>
        <time>2022-08-16T06:22:36Z</time>
      </trkpt>
      <trkpt lat="44.44223" lon="6.88242">
        <ele>2242.4</ele>
        <time>2022-08-16T06:22:37Z</time>
      </trkpt>
      <trkpt lat="44.44224" lon="6.88241">
        <ele>2242.6</ele>
        <time>2022-08-16T06:22:38Z</time>
      </trkpt>
      <trkpt lat="44.44224" lon="6.8824">
        <ele>2242.6</ele>
        <time>2022-08-16T06:22:39Z</time>
      </trkpt>
      <trkpt lat="44.44225" lon="6.88239">
        <ele>2242.8</ele>
        <time>2022-08-16T06:22:40Z</time>
      </trkpt>
      <trkpt lat="44.44226" lon="6.88238">
        <ele>2242.8</ele>
        <time>2022-08-16T06:22:41Z</time>
      </trkpt>
      <trkpt lat="44.44228" lon="6.88238">
        <ele>2243.2</ele>
        <time>2022-08-16T06:22:42Z</time>
      </trkpt>
      <trkpt lat="44.44229" lon="6.88237">
        <ele>2243.2</ele>
        <time>2022-08-16T06:22:43Z</time>
      </trkpt>
      <trkpt lat="44.4423" lon="6.88236">
        <ele>2243.2</ele>
        <time>2022-08-16T06:22:44Z</time>
      </trkpt>
      <trkpt lat="44.44231" lon="6.88235">
        <ele>2243.4</ele>
        <time>2022-08-16T06:22:45Z</time>
      </trkpt>
      <trkpt lat="44.44232" lon="6.88234">
        <ele>2243.4</ele>
        <time>2022-08-16T06:22:46Z</time>
      </trkpt>
      <trkpt lat="44.44233" lon="6.88234">
        <ele>2243.8</ele>
        <time>2022-08-16T06:22:47Z</time>
      </trkpt>
      <trkpt lat="44.44234" lon="6.88233">
        <ele>2243.8</ele>
        <time>2022-08-16T06:22:48Z</time>
      </trkpt>
      <trkpt lat="44.44235" lon="6.88232">
        <ele>2243.6</ele>
        <time>2022-08-16T06:22:49Z</time>
      </trkpt>
      <trkpt lat="44.44236" lon="6.88231">
        <ele>2243.8</ele>
        <time>2022-08-16T06:22:50Z</time>
      </trkpt>
      <trkpt lat="44.44238" lon="6.88231">
        <ele>2243.8</ele>
        <time>2022-08-16T06:22:51Z</time>
      </trkpt>
      <trkpt lat="44.44239" lon="6.8823">
        <ele>2244</ele>
        <time>2022-08-16T06:22:52Z</time>
      </trkpt>
      <trkpt lat="44.4424" lon="6.8823">
        <ele>2244</ele>
        <time>2022-08-16T06:22:53Z</time>
      </trkpt>
      <trkpt lat="44.44241" lon="6.88229">
        <ele>2244.2</ele>
        <time>2022-08-16T06:22:54Z</time>
      </trkpt>
      <trkpt lat="44.44242" lon="6.88229">
        <ele>2244.2</ele>
        <time>2022-08-16T06:22:55Z</time>
      </trkpt>
      <trkpt lat="44.44243" lon="6.88228">
        <ele>2244.4</ele>
        <time>2022-08-16T06:22:56Z</time>
      </trkpt>
      <trkpt lat="44.44244" lon="6.88228">
        <ele>2244.4</ele>
        <time>2022-08-16T06:22:57Z</time>
      </trkpt>
      <trkpt lat="44.44246" lon="6.88228">
        <ele>2244.4</ele>
        <time>2022-08-16T06:22:58Z</time>
      </trkpt>
      <trkpt lat="44.44247" lon="6.88227">
        <ele>2244.6</ele>
        <time>2022-08-16T06:22:59Z</time>
      </trkpt>
      <trkpt lat="44.44248" lon="6.88227">
        <ele>2245</ele>
        <time>2022-08-16T06:23:00Z</time>
      </trkpt>
      <trkpt lat="44.44249" lon="6.88226">
        <ele>2245.2</ele>
        <time>2022-08-16T06:23:01Z</time>
      </trkpt>
      <trkpt lat="44.4425" lon="6.88226">
        <ele>2245.4</ele>
        <time>2022-08-16T06:23:02Z</time>
      </trkpt>
      <trkpt lat="44.44251" lon="6.88226">
        <ele>2245.4</ele>
        <time>2022-08-16T06:23:03Z</time>
      </trkpt>
      <trkpt lat="44.44253" lon="6.88225">
        <ele>2245.6</ele>
        <time>2022-08-16T06:23:04Z</time>
      </trkpt>
      <trkpt lat="44.44254" lon="6.88226">
        <ele>2245.6</ele>
        <time>2022-08-16T06:23:05Z</time>
      </trkpt>
      <trkpt lat="44.44255" lon="6.88226">
        <ele>2245.8</ele>
        <time>2022-08-16T06:23:06Z</time>
      </trkpt>
      <trkpt lat="44.44256" lon="6.88225">
        <ele>2245.8</ele>
        <time>2022-08-16T06:23:07Z</time>
      </trkpt>
      <trkpt lat="44.44258" lon="6.88225">
        <ele>2246</ele>
        <time>2022-08-16T06:23:08Z</time>
      </trkpt>
      <trkpt lat="44.44259" lon="6.88224">
        <ele>2246.2</ele>
        <time>2022-08-16T06:23:09Z</time>
      </trkpt>
      <trkpt lat="44.4426" lon="6.88224">
        <ele>2246.2</ele>
        <time>2022-08-16T06:23:10Z</time>
      </trkpt>
      <trkpt lat="44.44261" lon="6.88224">
        <ele>2246.4</ele>
        <time>2022-08-16T06:23:11Z</time>
      </trkpt>
      <trkpt lat="44.44263" lon="6.88223">
        <ele>2246.4</ele>
        <time>2022-08-16T06:23:12Z</time>
      </trkpt>
      <trkpt lat="44.44264" lon="6.88223">
        <ele>2246.4</ele>
        <time>2022-08-16T06:23:13Z</time>
      </trkpt>
      <trkpt lat="44.44265" lon="6.88223">
        <ele>2246.8</ele>
        <time>2022-08-16T06:23:14Z</time>
      </trkpt>
      <trkpt lat="44.44266" lon="6.88222">
        <ele>2246.8</ele>
        <time>2022-08-16T06:23:15Z</time>
      </trkpt>
      <trkpt lat="44.44267" lon="6.88222">
        <ele>2247</ele>
        <time>2022-08-16T06:23:16Z</time>
      </trkpt>
      <trkpt lat="44.44268" lon="6.88221">
        <ele>2247.2</ele>
        <time>2022-08-16T06:23:17Z</time>
      </trkpt>
      <trkpt lat="44.44269" lon="6.88221">
        <ele>2247.2</ele>
        <time>2022-08-16T06:23:18Z</time>
      </trkpt>
      <trkpt lat="44.4427" lon="6.88221">
        <ele>2247.6</ele>
        <time>2022-08-16T06:23:19Z</time>
      </trkpt>
      <trkpt lat="44.44272" lon="6.88221">
        <ele>2247.6</ele>
        <time>2022-08-16T06:23:20Z</time>
      </trkpt>
      <trkpt lat="44.44273" lon="6.8822">
        <ele>2247.8</ele>
        <time>2022-08-16T06:23:21Z</time>
      </trkpt>
      <trkpt lat="44.44274" lon="6.8822">
        <ele>2248.2</ele>
        <time>2022-08-16T06:23:22Z</time>
      </trkpt>
      <trkpt lat="44.44275" lon="6.8822">
        <ele>2248.4</ele>
        <time>2022-08-16T06:23:23Z</time>
      </trkpt>
      <trkpt lat="44.44277" lon="6.8822">
        <ele>2248.4</ele>
        <time>2022-08-16T06:23:24Z</time>
      </trkpt>
      <trkpt lat="44.44278" lon="6.8822">
        <ele>2248.6</ele>
        <time>2022-08-16T06:23:25Z</time>
      </trkpt>
      <trkpt lat="44.44279" lon="6.88219">
        <ele>2248.6</ele>
        <time>2022-08-16T06:23:26Z</time>
      </trkpt>
      <trkpt lat="44.4428" lon="6.88219">
        <ele>2248.8</ele>
        <time>2022-08-16T06:23:27Z</time>
      </trkpt>
      <trkpt lat="44.44282" lon="6.88219">
        <ele>2249</ele>
        <time>2022-08-16T06:23:28Z</time>
      </trkpt>
      <trkpt lat="44.44283" lon="6.88219">
        <ele>2249</ele>
        <time>2022-08-16T06:23:29Z</time>
      </trkpt>
      <trkpt lat="44.44284" lon="6.88219">
        <ele>2249</ele>
        <time>2022-08-16T06:23:30Z</time>
      </trkpt>
      <trkpt lat="44.44285" lon="6.88219">
        <ele>2249.2</ele>
        <time>2022-08-16T06:23:31Z</time>
      </trkpt>
      <trkpt lat="44.44286" lon="6.88219">
        <ele>2249.2</ele>
        <time>2022-08-16T06:23:32Z</time>
      </trkpt>
      <trkpt lat="44.44288" lon="6.88219">
        <ele>2249.2</ele>
        <time>2022-08-16T06:23:33Z</time>
      </trkpt>
      <trkpt lat="44.44289" lon="6.88219">
        <ele>2249.4</ele>
        <time>2022-08-16T06:23:34Z</time>
      </trkpt>
      <trkpt lat="44.4429" lon="6.8822">
        <ele>2249.4</ele>
        <time>2022-08-16T06:23:35Z</time>
      </trkpt>
      <trkpt lat="44.44291" lon="6.88219">
        <ele>2249.8</ele>
        <time>2022-08-16T06:23:36Z</time>
      </trkpt>
      <trkpt lat="44.44293" lon="6.88219">
        <ele>2249.8</ele>
        <time>2022-08-16T06:23:37Z</time>
      </trkpt>
      <trkpt lat="44.44294" lon="6.88219">
        <ele>2250</ele>
        <time>2022-08-16T06:23:38Z</time>
      </trkpt>
      <trkpt lat="44.44295" lon="6.88219">
        <ele>2250.2</ele>
        <time>2022-08-16T06:23:39Z</time>
      </trkpt>
      <trkpt lat="44.44296" lon="6.88219">
        <ele>2250.4</ele>
        <time>2022-08-16T06:23:40Z</time>
      </trkpt>
      <trkpt lat="44.44297" lon="6.88219">
        <ele>2250.4</ele>
        <time>2022-08-16T06:23:41Z</time>
      </trkpt>
      <trkpt lat="44.44298" lon="6.88219">
        <ele>2250.6</ele>
        <time>2022-08-16T06:23:42Z</time>
      </trkpt>
      <trkpt lat="44.44299" lon="6.88219">
        <ele>2250.6</ele>
        <time>2022-08-16T06:23:43Z</time>
      </trkpt>
      <trkpt lat="44.443" lon="6.88219">
        <ele>2250.6</ele>
        <time>2022-08-16T06:23:44Z</time>
      </trkpt>
      <trkpt lat="44.44301" lon="6.88219">
        <ele>2250.6</ele>
        <time>2022-08-16T06:23:45Z</time>
      </trkpt>
      <trkpt lat="44.44303" lon="6.88219">
        <ele>2250.8</ele>
        <time>2022-08-16T06:23:46Z</time>
      </trkpt>
      <trkpt lat="44.44304" lon="6.88219">
        <ele>2250.8</ele>
        <time>2022-08-16T06:23:47Z</time>
      </trkpt>
      <trkpt lat="44.44305" lon="6.88219">
        <ele>2251</ele>
        <time>2022-08-16T06:23:48Z</time>
      </trkpt>
      <trkpt lat="44.44306" lon="6.88219">
        <ele>2251</ele>
        <time>2022-08-16T06:23:49Z</time>
      </trkpt>
      <trkpt lat="44.44307" lon="6.88219">
        <ele>2251</ele>
        <time>2022-08-16T06:23:50Z</time>
      </trkpt>
      <trkpt lat="44.44308" lon="6.88218">
        <ele>2251.2</ele>
        <time>2022-08-16T06:23:51Z</time>
      </trkpt>
      <trkpt lat="44.4431" lon="6.88218">
        <ele>2251.2</ele>
        <time>2022-08-16T06:23:52Z</time>
      </trkpt>
      <trkpt lat="44.44311" lon="6.88218">
        <ele>2251.2</ele>
        <time>2022-08-16T06:23:53Z</time>
      </trkpt>
      <trkpt lat="44.44312" lon="6.88218">
        <ele>2251.6</ele>
        <time>2022-08-16T06:23:54Z</time>
      </trkpt>
      <trkpt lat="44.44313" lon="6.88218">
        <ele>2252</ele>
        <time>2022-08-16T06:23:55Z</time>
      </trkpt>
      <trkpt lat="44.44315" lon="6.88217">
        <ele>2252.2</ele>
        <time>2022-08-16T06:23:56Z</time>
      </trkpt>
      <trkpt lat="44.44316" lon="6.88217">
        <ele>2252.4</ele>
        <time>2022-08-16T06:23:57Z</time>
      </trkpt>
      <trkpt lat="44.44317" lon="6.88216">
        <ele>2252.6</ele>
        <time>2022-08-16T06:23:58Z</time>
      </trkpt>
      <trkpt lat="44.44318" lon="6.88215">
        <ele>2252.8</ele>
        <time>2022-08-16T06:23:59Z</time>
      </trkpt>
      <trkpt lat="44.44319" lon="6.88215">
        <ele>2252.8</ele>
        <time>2022-08-16T06:24:00Z</time>
      </trkpt>
      <trkpt lat="44.4432" lon="6.88215">
        <ele>2253</ele>
        <time>2022-08-16T06:24:01Z</time>
      </trkpt>
      <trkpt lat="44.44321" lon="6.88215">
        <ele>2253</ele>
        <time>2022-08-16T06:24:02Z</time>
      </trkpt>
      <trkpt lat="44.44322" lon="6.88215">
        <ele>2253</ele>
        <time>2022-08-16T06:24:03Z</time>
      </trkpt>
      <trkpt lat="44.44324" lon="6.88215">
        <ele>2253.2</ele>
        <time>2022-08-16T06:24:04Z</time>
      </trkpt>
      <trkpt lat="44.44325" lon="6.88215">
        <ele>2253.4</ele>
        <time>2022-08-16T06:24:05Z</time>
      </trkpt>
      <trkpt lat="44.44326" lon="6.88215">
        <ele>2253.6</ele>
        <time>2022-08-16T06:24:06Z</time>
      </trkpt>
      <trkpt lat="44.44327" lon="6.88214">
        <ele>2253.8</ele>
        <time>2022-08-16T06:24:07Z</time>
      </trkpt>
      <trkpt lat="44.44328" lon="6.88214">
        <ele>2254</ele>
        <time>2022-08-16T06:24:08Z</time>
      </trkpt>
      <trkpt lat="44.4433" lon="6.88214">
        <ele>2254</ele>
        <time>2022-08-16T06:24:09Z</time>
      </trkpt>
      <trkpt lat="44.44331" lon="6.88215">
        <ele>2254.2</ele>
        <time>2022-08-16T06:24:10Z</time>
      </trkpt>
      <trkpt lat="44.44332" lon="6.88215">
        <ele>2254.2</ele>
        <time>2022-08-16T06:24:11Z</time>
      </trkpt>
      <trkpt lat="44.44333" lon="6.88215">
        <ele>2254.4</ele>
        <time>2022-08-16T06:24:12Z</time>
      </trkpt>
      <trkpt lat="44.44334" lon="6.88215">
        <ele>2254.4</ele>
        <time>2022-08-16T06:24:13Z</time>
      </trkpt>
      <trkpt lat="44.44335" lon="6.88216">
        <ele>2254.4</ele>
        <time>2022-08-16T06:24:14Z</time>
      </trkpt>
      <trkpt lat="44.44337" lon="6.88216">
        <ele>2254.4</ele>
        <time>2022-08-16T06:24:15Z</time>
      </trkpt>
      <trkpt lat="44.44338" lon="6.88217">
        <ele>2254.4</ele>
        <time>2022-08-16T06:24:16Z</time>
      </trkpt>
      <trkpt lat="44.44339" lon="6.88217">
        <ele>2254.4</ele>
        <time>2022-08-16T06:24:17Z</time>
      </trkpt>
      <trkpt lat="44.4434" lon="6.88218">
        <ele>2254.6</ele>
        <time>2022-08-16T06:24:18Z</time>
      </trkpt>
      <trkpt lat="44.44341" lon="6.88218">
        <ele>2254.6</ele>
        <time>2022-08-16T06:24:19Z</time>
      </trkpt>
      <trkpt lat="44.44342" lon="6.88219">
        <ele>2254.8</ele>
        <time>2022-08-16T06:24:20Z</time>
      </trkpt>
      <trkpt lat="44.44343" lon="6.8822">
        <ele>2255</ele>
        <time>2022-08-16T06:24:21Z</time>
      </trkpt>
      <trkpt lat="44.44344" lon="6.88221">
        <ele>2255</ele>
        <time>2022-08-16T06:24:22Z</time>
      </trkpt>
      <trkpt lat="44.44345" lon="6.88221">
        <ele>2255.2</ele>
        <time>2022-08-16T06:24:23Z</time>
      </trkpt>
      <trkpt lat="44.44346" lon="6.88222">
        <ele>2255.2</ele>
        <time>2022-08-16T06:24:24Z</time>
      </trkpt>
      <trkpt lat="44.44347" lon="6.88223">
        <ele>2255.2</ele>
        <time>2022-08-16T06:24:25Z</time>
      </trkpt>
      <trkpt lat="44.44348" lon="6.88224">
        <ele>2255.4</ele>
        <time>2022-08-16T06:24:26Z</time>
      </trkpt>
      <trkpt lat="44.4435" lon="6.88224">
        <ele>2255.6</ele>
        <time>2022-08-16T06:24:27Z</time>
      </trkpt>
      <trkpt lat="44.44351" lon="6.88225">
        <ele>2255.8</ele>
        <time>2022-08-16T06:24:28Z</time>
      </trkpt>
      <trkpt lat="44.44352" lon="6.88225">
        <ele>2255.8</ele>
        <time>2022-08-16T06:24:29Z</time>
      </trkpt>
      <trkpt lat="44.44353" lon="6.88225">
        <ele>2255.8</ele>
        <time>2022-08-16T06:24:30Z</time>
      </trkpt>
      <trkpt lat="44.44354" lon="6.88225">
        <ele>2255.8</ele>
        <time>2022-08-16T06:24:31Z</time>
      </trkpt>
      <trkpt lat="44.44356" lon="6.88225">
        <ele>2256</ele>
        <time>2022-08-16T06:24:32Z</time>
      </trkpt>
      <trkpt lat="44.44357" lon="6.88225">
        <ele>2256.2</ele>
        <time>2022-08-16T06:24:33Z</time>
      </trkpt>
      <trkpt lat="44.44358" lon="6.88225">
        <ele>2256.2</ele>
        <time>2022-08-16T06:24:34Z</time>
      </trkpt>
      <trkpt lat="44.44359" lon="6.88224">
        <ele>2256.4</ele>
        <time>2022-08-16T06:24:35Z</time>
      </trkpt>
      <trkpt lat="44.44361" lon="6.88224">
        <ele>2256.8</ele>
        <time>2022-08-16T06:24:36Z</time>
      </trkpt>
      <trkpt lat="44.44362" lon="6.88223">
        <ele>2256.8</ele>
        <time>2022-08-16T06:24:37Z</time>
      </trkpt>
      <trkpt lat="44.44363" lon="6.88222">
        <ele>2257</ele>
        <time>2022-08-16T06:24:38Z</time>
      </trkpt>
      <trkpt lat="44.44364" lon="6.88221">
        <ele>2257</ele>
        <time>2022-08-16T06:24:39Z</time>
      </trkpt>
      <trkpt lat="44.44365" lon="6.8822">
        <ele>2257</ele>
        <time>2022-08-16T06:24:40Z</time>
      </trkpt>
      <trkpt lat="44.44366" lon="6.88218">
        <ele>2257.2</ele>
        <time>2022-08-16T06:24:41Z</time>
      </trkpt>
      <trkpt lat="44.44367" lon="6.88217">
        <ele>2257.4</ele>
        <time>2022-08-16T06:24:42Z</time>
      </trkpt>
      <trkpt lat="44.44368" lon="6.88216">
        <ele>2257.4</ele>
        <time>2022-08-16T06:24:43Z</time>
      </trkpt>
      <trkpt lat="44.44369" lon="6.88214">
        <ele>2257.6</ele>
        <time>2022-08-16T06:24:44Z</time>
      </trkpt>
      <trkpt lat="44.4437" lon="6.88213">
        <ele>2257.8</ele>
        <time>2022-08-16T06:24:45Z</time>
      </trkpt>
      <trkpt lat="44.4437" lon="6.88212">
        <ele>2257.8</ele>
        <time>2022-08-16T06:24:46Z</time>
      </trkpt>
      <trkpt lat="44.44371" lon="6.8821">
        <ele>2258</ele>
        <time>2022-08-16T06:24:47Z</time>
      </trkpt>
      <trkpt lat="44.44372" lon="6.88208">
        <ele>2258</ele>
        <time>2022-08-16T06:24:48Z</time>
      </trkpt>
      <trkpt lat="44.44373" lon="6.88207">
        <ele>2258.2</ele>
        <time>2022-08-16T06:24:49Z</time>
      </trkpt>
      <trkpt lat="44.44373" lon="6.88205">
        <ele>2258.4</ele>
        <time>2022-08-16T06:24:50Z</time>
      </trkpt>
      <trkpt lat="44.44374" lon="6.88204">
        <ele>2258.6</ele>
        <time>2022-08-16T06:24:51Z</time>
      </trkpt>
      <trkpt lat="44.44375" lon="6.88202">
        <ele>2258.6</ele>
        <time>2022-08-16T06:24:52Z</time>
      </trkpt>
      <trkpt lat="44.44376" lon="6.88201">
        <ele>2259</ele>
        <time>2022-08-16T06:24:53Z</time>
      </trkpt>
      <trkpt lat="44.44377" lon="6.882">
        <ele>2259</ele>
        <time>2022-08-16T06:24:54Z</time>
      </trkpt>
      <trkpt lat="44.44378" lon="6.88199">
        <ele>2259.2</ele>
        <time>2022-08-16T06:24:55Z</time>
      </trkpt>
      <trkpt lat="44.44379" lon="6.88198">
        <ele>2259.4</ele>
        <time>2022-08-16T06:24:56Z</time>
      </trkpt>
      <trkpt lat="44.4438" lon="6.88197">
        <ele>2259.4</ele>
        <time>2022-08-16T06:24:57Z</time>
      </trkpt>
      <trkpt lat="44.44381" lon="6.88196">
        <ele>2259.4</ele>
        <time>2022-08-16T06:24:58Z</time>
      </trkpt>
      <trkpt lat="44.44382" lon="6.88195">
        <ele>2259.6</ele>
        <time>2022-08-16T06:24:59Z</time>
      </trkpt>
      <trkpt lat="44.44383" lon="6.88194">
        <ele>2259.8</ele>
        <time>2022-08-16T06:25:00Z</time>
      </trkpt>
      <trkpt lat="44.44385" lon="6.88194">
        <ele>2259.8</ele>
        <time>2022-08-16T06:25:01Z</time>
      </trkpt>
      <trkpt lat="44.44386" lon="6.88193">
        <ele>2259.8</ele>
        <time>2022-08-16T06:25:02Z</time>
      </trkpt>
      <trkpt lat="44.44387" lon="6.88193">
        <ele>2260</ele>
        <time>2022-08-16T06:25:03Z</time>
      </trkpt>
      <trkpt lat="44.44389" lon="6.88193">
        <ele>2260</ele>
        <time>2022-08-16T06:25:04Z</time>
      </trkpt>
      <trkpt lat="44.4439" lon="6.88192">
        <ele>2260.2</ele>
        <time>2022-08-16T06:25:05Z</time>
      </trkpt>
      <trkpt lat="44.44391" lon="6.88193">
        <ele>2260.4</ele>
        <time>2022-08-16T06:25:06Z</time>
      </trkpt>
      <trkpt lat="44.44393" lon="6.88193">
        <ele>2260.4</ele>
        <time>2022-08-16T06:25:07Z</time>
      </trkpt>
      <trkpt lat="44.44394" lon="6.88192">
        <ele>2260.4</ele>
        <time>2022-08-16T06:25:08Z</time>
      </trkpt>
      <trkpt lat="44.44396" lon="6.88192">
        <ele>2260.4</ele>
        <time>2022-08-16T06:25:09Z</time>
      </trkpt>
      <trkpt lat="44.44397" lon="6.88193">
        <ele>2260.8</ele>
        <time>2022-08-16T06:25:10Z</time>
      </trkpt>
      <trkpt lat="44.44398" lon="6.88193">
        <ele>2260.8</ele>
        <time>2022-08-16T06:25:11Z</time>
      </trkpt>
      <trkpt lat="44.44399" lon="6.88193">
        <ele>2261</ele>
        <time>2022-08-16T06:25:12Z</time>
      </trkpt>
      <trkpt lat="44.444" lon="6.88193">
        <ele>2261.2</ele>
        <time>2022-08-16T06:25:13Z</time>
      </trkpt>
      <trkpt lat="44.44401" lon="6.88194">
        <ele>2261.4</ele>
        <time>2022-08-16T06:25:14Z</time>
      </trkpt>
      <trkpt lat="44.44402" lon="6.88194">
        <ele>2261.4</ele>
        <time>2022-08-16T06:25:15Z</time>
      </trkpt>
      <trkpt lat="44.44403" lon="6.88195">
        <ele>2261.6</ele>
        <time>2022-08-16T06:25:16Z</time>
      </trkpt>
      <trkpt lat="44.44404" lon="6.88196">
        <ele>2261.8</ele>
        <time>2022-08-16T06:25:17Z</time>
      </trkpt>
      <trkpt lat="44.44405" lon="6.88197">
        <ele>2261.8</ele>
        <time>2022-08-16T06:25:18Z</time>
      </trkpt>
      <trkpt lat="44.44407" lon="6.88197">
        <ele>2262</ele>
        <time>2022-08-16T06:25:19Z</time>
      </trkpt>
      <trkpt lat="44.44408" lon="6.88198">
        <ele>2262.2</ele>
        <time>2022-08-16T06:25:20Z</time>
      </trkpt>
      <trkpt lat="44.44409" lon="6.88198">
        <ele>2262.4</ele>
        <time>2022-08-16T06:25:21Z</time>
      </trkpt>
      <trkpt lat="44.4441" lon="6.88199">
        <ele>2262.4</ele>
        <time>2022-08-16T06:25:22Z</time>
      </trkpt>
      <trkpt lat="44.44411" lon="6.88199">
        <ele>2262.6</ele>
        <time>2022-08-16T06:25:23Z</time>
      </trkpt>
      <trkpt lat="44.44413" lon="6.882">
        <ele>2262.8</ele>
        <time>2022-08-16T06:25:24Z</time>
      </trkpt>
      <trkpt lat="44.44414" lon="6.882">
        <ele>2263</ele>
        <time>2022-08-16T06:25:25Z</time>
      </trkpt>
      <trkpt lat="44.44415" lon="6.88201">
        <ele>2263</ele>
        <time>2022-08-16T06:25:26Z</time>
      </trkpt>
      <trkpt lat="44.44416" lon="6.88202">
        <ele>2263.2</ele>
        <time>2022-08-16T06:25:27Z</time>
      </trkpt>
      <trkpt lat="44.44417" lon="6.88202">
        <ele>2263.2</ele>
        <time>2022-08-16T06:25:28Z</time>
      </trkpt>
      <trkpt lat="44.44418" lon="6.88203">
        <ele>2263.2</ele>
        <time>2022-08-16T06:25:29Z</time>
      </trkpt>
      <trkpt lat="44.44419" lon="6.88203">
        <ele>2263.4</ele>
        <time>2022-08-16T06:25:30Z</time>
      </trkpt>
      <trkpt lat="44.4442" lon="6.88204">
        <ele>2263.6</ele>
        <time>2022-08-16T06:25:31Z</time>
      </trkpt>
      <trkpt lat="44.44422" lon="6.88204">
        <ele>2263.8</ele>
        <time>2022-08-16T06:25:32Z</time>
      </trkpt>
      <trkpt lat="44.44423" lon="6.88205">
        <ele>2263.8</ele>
        <time>2022-08-16T06:25:33Z</time>
      </trkpt>
      <trkpt lat="44.44424" lon="6.88206">
        <ele>2264</ele>
        <time>2022-08-16T06:25:34Z</time>
      </trkpt>
      <trkpt lat="44.44425" lon="6.88206">
        <ele>2264</ele>
        <time>2022-08-16T06:25:35Z</time>
      </trkpt>
      <trkpt lat="44.44426" lon="6.88207">
        <ele>2264.2</ele>
        <time>2022-08-16T06:25:36Z</time>
      </trkpt>
      <trkpt lat="44.44427" lon="6.88208">
        <ele>2264.2</ele>
        <time>2022-08-16T06:25:37Z</time>
      </trkpt>
      <trkpt lat="44.44428" lon="6.88209">
        <ele>2264.4</ele>
        <time>2022-08-16T06:25:38Z</time>
      </trkpt>
      <trkpt lat="44.44429" lon="6.8821">
        <ele>2264.6</ele>
        <time>2022-08-16T06:25:39Z</time>
      </trkpt>
      <trkpt lat="44.4443" lon="6.8821">
        <ele>2264.6</ele>
        <time>2022-08-16T06:25:40Z</time>
      </trkpt>
      <trkpt lat="44.44431" lon="6.88211">
        <ele>2264.8</ele>
        <time>2022-08-16T06:25:41Z</time>
      </trkpt>
      <trkpt lat="44.44432" lon="6.88211">
        <ele>2265</ele>
        <time>2022-08-16T06:25:42Z</time>
      </trkpt>
      <trkpt lat="44.44433" lon="6.88212">
        <ele>2265.2</ele>
        <time>2022-08-16T06:25:43Z</time>
      </trkpt>
      <trkpt lat="44.44434" lon="6.88212">
        <ele>2265.2</ele>
        <time>2022-08-16T06:25:44Z</time>
      </trkpt>
      <trkpt lat="44.44436" lon="6.88213">
        <ele>2265.4</ele>
        <time>2022-08-16T06:25:45Z</time>
      </trkpt>
      <trkpt lat="44.44437" lon="6.88213">
        <ele>2265.4</ele>
        <time>2022-08-16T06:25:46Z</time>
      </trkpt>
      <trkpt lat="44.44438" lon="6.88214">
        <ele>2265.6</ele>
        <time>2022-08-16T06:25:47Z</time>
      </trkpt>
      <trkpt lat="44.44439" lon="6.88215">
        <ele>2265.8</ele>
        <time>2022-08-16T06:25:48Z</time>
      </trkpt>
      <trkpt lat="44.4444" lon="6.88216">
        <ele>2265.8</ele>
        <time>2022-08-16T06:25:49Z</time>
      </trkpt>
      <trkpt lat="44.44441" lon="6.88217">
        <ele>2266</ele>
        <time>2022-08-16T06:25:50Z</time>
      </trkpt>
      <trkpt lat="44.44442" lon="6.88218">
        <ele>2266</ele>
        <time>2022-08-16T06:25:51Z</time>
      </trkpt>
      <trkpt lat="44.44442" lon="6.88219">
        <ele>2266.2</ele>
        <time>2022-08-16T06:25:52Z</time>
      </trkpt>
      <trkpt lat="44.44443" lon="6.8822">
        <ele>2266.4</ele>
        <time>2022-08-16T06:25:53Z</time>
      </trkpt>
      <trkpt lat="44.44444" lon="6.88221">
        <ele>2266.6</ele>
        <time>2022-08-16T06:25:54Z</time>
      </trkpt>
      <trkpt lat="44.44445" lon="6.88222">
        <ele>2266.4</ele>
        <time>2022-08-16T06:25:55Z</time>
      </trkpt>
      <trkpt lat="44.44446" lon="6.88223">
        <ele>2266.4</ele>
        <time>2022-08-16T06:25:56Z</time>
      </trkpt>
      <trkpt lat="44.44446" lon="6.88225">
        <ele>2266.6</ele>
        <time>2022-08-16T06:25:57Z</time>
      </trkpt>
      <trkpt lat="44.44447" lon="6.88226">
        <ele>2266.8</ele>
        <time>2022-08-16T06:25:58Z</time>
      </trkpt>
      <trkpt lat="44.44448" lon="6.88228">
        <ele>2266.8</ele>
        <time>2022-08-16T06:25:59Z</time>
      </trkpt>
      <trkpt lat="44.44448" lon="6.88229">
        <ele>2267.2</ele>
        <time>2022-08-16T06:26:00Z</time>
      </trkpt>
      <trkpt lat="44.44449" lon="6.88231">
        <ele>2267.4</ele>
        <time>2022-08-16T06:26:01Z</time>
      </trkpt>
      <trkpt lat="44.44449" lon="6.88232">
        <ele>2267.4</ele>
        <time>2022-08-16T06:26:02Z</time>
      </trkpt>
      <trkpt lat="44.4445" lon="6.88233">
        <ele>2267.6</ele>
        <time>2022-08-16T06:26:03Z</time>
      </trkpt>
      <trkpt lat="44.44451" lon="6.88235">
        <ele>2267.8</ele>
        <time>2022-08-16T06:26:04Z</time>
      </trkpt>
      <trkpt lat="44.44451" lon="6.88236">
        <ele>2267.8</ele>
        <time>2022-08-16T06:26:05Z</time>
      </trkpt>
      <trkpt lat="44.44452" lon="6.88238">
        <ele>2268</ele>
        <time>2022-08-16T06:26:06Z</time>
      </trkpt>
      <trkpt lat="44.44452" lon="6.88239">
        <ele>2268.4</ele>
        <time>2022-08-16T06:26:07Z</time>
      </trkpt>
      <trkpt lat="44.44453" lon="6.88241">
        <ele>2268.6</ele>
        <time>2022-08-16T06:26:08Z</time>
      </trkpt>
      <trkpt lat="44.44453" lon="6.88243">
        <ele>2268.6</ele>
        <time>2022-08-16T06:26:09Z</time>
      </trkpt>
      <trkpt lat="44.44453" lon="6.88244">
        <ele>2268.8</ele>
        <time>2022-08-16T06:26:10Z</time>
      </trkpt>
      <trkpt lat="44.44454" lon="6.88246">
        <ele>2269</ele>
        <time>2022-08-16T06:26:11Z</time>
      </trkpt>
      <trkpt lat="44.44454" lon="6.88247">
        <ele>2269</ele>
        <time>2022-08-16T06:26:12Z</time>
      </trkpt>
      <trkpt lat="44.44455" lon="6.88249">
        <ele>2269.2</ele>
        <time>2022-08-16T06:26:13Z</time>
      </trkpt>
      <trkpt lat="44.44455" lon="6.8825">
        <ele>2269.4</ele>
        <time>2022-08-16T06:26:14Z</time>
      </trkpt>
      <trkpt lat="44.44456" lon="6.88252">
        <ele>2269.4</ele>
        <time>2022-08-16T06:26:15Z</time>
      </trkpt>
      <trkpt lat="44.44456" lon="6.88253">
        <ele>2269.8</ele>
        <time>2022-08-16T06:26:16Z</time>
      </trkpt>
      <trkpt lat="44.44457" lon="6.88255">
        <ele>2270</ele>
        <time>2022-08-16T06:26:17Z</time>
      </trkpt>
      <trkpt lat="44.44457" lon="6.88256">
        <ele>2270</ele>
        <time>2022-08-16T06:26:18Z</time>
      </trkpt>
      <trkpt lat="44.44457" lon="6.88258">
        <ele>2270.2</ele>
        <time>2022-08-16T06:26:19Z</time>
      </trkpt>
      <trkpt lat="44.44457" lon="6.88259">
        <ele>2270.2</ele>
        <time>2022-08-16T06:26:20Z</time>
      </trkpt>
      <trkpt lat="44.44458" lon="6.88261">
        <ele>2270.6</ele>
        <time>2022-08-16T06:26:21Z</time>
      </trkpt>
      <trkpt lat="44.44458" lon="6.88262">
        <ele>2270.8</ele>
        <time>2022-08-16T06:26:22Z</time>
      </trkpt>
      <trkpt lat="44.44459" lon="6.88264">
        <ele>2271</ele>
        <time>2022-08-16T06:26:23Z</time>
      </trkpt>
      <trkpt lat="44.44459" lon="6.88265">
        <ele>2271.2</ele>
        <time>2022-08-16T06:26:24Z</time>
      </trkpt>
      <trkpt lat="44.4446" lon="6.88267">
        <ele>2271.4</ele>
        <time>2022-08-16T06:26:25Z</time>
      </trkpt>
      <trkpt lat="44.4446" lon="6.88268">
        <ele>2271.6</ele>
        <time>2022-08-16T06:26:26Z</time>
      </trkpt>
      <trkpt lat="44.4446" lon="6.8827">
        <ele>2271.8</ele>
        <time>2022-08-16T06:26:27Z</time>
      </trkpt>
      <trkpt lat="44.44461" lon="6.88271">
        <ele>2271.8</ele>
        <time>2022-08-16T06:26:28Z</time>
      </trkpt>
      <trkpt lat="44.44461" lon="6.88273">
        <ele>2272.2</ele>
        <time>2022-08-16T06:26:29Z</time>
      </trkpt>
      <trkpt lat="44.44462" lon="6.88274">
        <ele>2272.4</ele>
        <time>2022-08-16T06:26:30Z</time>
      </trkpt>
      <trkpt lat="44.44462" lon="6.88276">
        <ele>2272.4</ele>
        <time>2022-08-16T06:26:31Z</time>
      </trkpt>
      <trkpt lat="44.44463" lon="6.88277">
        <ele>2272.6</ele>
        <time>2022-08-16T06:26:32Z</time>
      </trkpt>
      <trkpt lat="44.44463" lon="6.88279">
        <ele>2272.8</ele>
        <time>2022-08-16T06:26:33Z</time>
      </trkpt>
      <trkpt lat="44.44464" lon="6.8828">
        <ele>2272.8</ele>
        <time>2022-08-16T06:26:34Z</time>
      </trkpt>
      <trkpt lat="44.44464" lon="6.88282">
        <ele>2272.8</ele>
        <time>2022-08-16T06:26:35Z</time>
      </trkpt>
      <trkpt lat="44.44465" lon="6.88283">
        <ele>2272.8</ele>
        <time>2022-08-16T06:26:36Z</time>
      </trkpt>
      <trkpt lat="44.44465" lon="6.88284">
        <ele>2273</ele>
        <time>2022-08-16T06:26:37Z</time>
      </trkpt>
      <trkpt lat="44.44466" lon="6.88286">
        <ele>2273.2</ele>
        <time>2022-08-16T06:26:38Z</time>
      </trkpt>
      <trkpt lat="44.44467" lon="6.88287">
        <ele>2273.4</ele>
        <time>2022-08-16T06:26:39Z</time>
      </trkpt>
      <trkpt lat="44.44468" lon="6.88288">
        <ele>2273.6</ele>
        <time>2022-08-16T06:26:40Z</time>
      </trkpt>
      <trkpt lat="44.44469" lon="6.88289">
        <ele>2273.6</ele>
        <time>2022-08-16T06:26:41Z</time>
      </trkpt>
      <trkpt lat="44.4447" lon="6.8829">
        <ele>2273.8</ele>
        <time>2022-08-16T06:26:42Z</time>
      </trkpt>
      <trkpt lat="44.4447" lon="6.88291">
        <ele>2273.8</ele>
        <time>2022-08-16T06:26:43Z</time>
      </trkpt>
      <trkpt lat="44.44471" lon="6.88292">
        <ele>2274.2</ele>
        <time>2022-08-16T06:26:44Z</time>
      </trkpt>
      <trkpt lat="44.44473" lon="6.88293">
        <ele>2274.2</ele>
        <time>2022-08-16T06:26:45Z</time>
      </trkpt>
      <trkpt lat="44.44474" lon="6.88293">
        <ele>2274.4</ele>
        <time>2022-08-16T06:26:46Z</time>
      </trkpt>
      <trkpt lat="44.44475" lon="6.88294">
        <ele>2274.6</ele>
        <time>2022-08-16T06:26:47Z</time>
      </trkpt>
      <trkpt lat="44.44476" lon="6.88294">
        <ele>2275</ele>
        <time>2022-08-16T06:26:48Z</time>
      </trkpt>
      <trkpt lat="44.44477" lon="6.88295">
        <ele>2275</ele>
        <time>2022-08-16T06:26:49Z</time>
      </trkpt>
      <trkpt lat="44.44479" lon="6.88295">
        <ele>2275.4</ele>
        <time>2022-08-16T06:26:50Z</time>
      </trkpt>
      <trkpt lat="44.4448" lon="6.88295">
        <ele>2275.4</ele>
        <time>2022-08-16T06:26:51Z</time>
      </trkpt>
      <trkpt lat="44.44481" lon="6.88296">
        <ele>2275.8</ele>
        <time>2022-08-16T06:26:52Z</time>
      </trkpt>
      <trkpt lat="44.44482" lon="6.88296">
        <ele>2276</ele>
        <time>2022-08-16T06:26:53Z</time>
      </trkpt>
      <trkpt lat="44.44483" lon="6.88296">
        <ele>2276</ele>
        <time>2022-08-16T06:26:54Z</time>
      </trkpt>
      <trkpt lat="44.44484" lon="6.88296">
        <ele>2276.2</ele>
        <time>2022-08-16T06:26:55Z</time>
      </trkpt>
      <trkpt lat="44.44485" lon="6.88296">
        <ele>2276.4</ele>
        <time>2022-08-16T06:26:56Z</time>
      </trkpt>
      <trkpt lat="44.44487" lon="6.88296">
        <ele>2276.4</ele>
        <time>2022-08-16T06:26:57Z</time>
      </trkpt>
      <trkpt lat="44.44488" lon="6.88296">
        <ele>2276.4</ele>
        <time>2022-08-16T06:26:58Z</time>
      </trkpt>
      <trkpt lat="44.44489" lon="6.88296">
        <ele>2276.8</ele>
        <time>2022-08-16T06:26:59Z</time>
      </trkpt>
      <trkpt lat="44.4449" lon="6.88296">
        <ele>2276.8</ele>
        <time>2022-08-16T06:27:00Z</time>
      </trkpt>
      <trkpt lat="44.44491" lon="6.88297">
        <ele>2276.8</ele>
        <time>2022-08-16T06:27:01Z</time>
      </trkpt>
      <trkpt lat="44.44493" lon="6.88297">
        <ele>2277</ele>
        <time>2022-08-16T06:27:02Z</time>
      </trkpt>
      <trkpt lat="44.44494" lon="6.88297">
        <ele>2277</ele>
        <time>2022-08-16T06:27:03Z</time>
      </trkpt>
      <trkpt lat="44.44495" lon="6.88297">
        <ele>2277.4</ele>
        <time>2022-08-16T06:27:04Z</time>
      </trkpt>
      <trkpt lat="44.44496" lon="6.88297">
        <ele>2277.4</ele>
        <time>2022-08-16T06:27:05Z</time>
      </trkpt>
      <trkpt lat="44.44498" lon="6.88297">
        <ele>2277.4</ele>
        <time>2022-08-16T06:27:06Z</time>
      </trkpt>
      <trkpt lat="44.44499" lon="6.88297">
        <ele>2277.8</ele>
        <time>2022-08-16T06:27:07Z</time>
      </trkpt>
      <trkpt lat="44.445" lon="6.88297">
        <ele>2277.8</ele>
        <time>2022-08-16T06:27:08Z</time>
      </trkpt>
      <trkpt lat="44.44502" lon="6.88297">
        <ele>2278</ele>
        <time>2022-08-16T06:27:09Z</time>
      </trkpt>
      <trkpt lat="44.44503" lon="6.88297">
        <ele>2278.2</ele>
        <time>2022-08-16T06:27:10Z</time>
      </trkpt>
      <trkpt lat="44.44504" lon="6.88297">
        <ele>2278.2</ele>
        <time>2022-08-16T06:27:11Z</time>
      </trkpt>
      <trkpt lat="44.44505" lon="6.88297">
        <ele>2278.4</ele>
        <time>2022-08-16T06:27:12Z</time>
      </trkpt>
      <trkpt lat="44.44507" lon="6.88297">
        <ele>2278.6</ele>
        <time>2022-08-16T06:27:13Z</time>
      </trkpt>
      <trkpt lat="44.44508" lon="6.88297">
        <ele>2278.6</ele>
        <time>2022-08-16T06:27:14Z</time>
      </trkpt>
      <trkpt lat="44.44509" lon="6.88297">
        <ele>2278.8</ele>
        <time>2022-08-16T06:27:15Z</time>
      </trkpt>
      <trkpt lat="44.4451" lon="6.88297">
        <ele>2279</ele>
        <time>2022-08-16T06:27:16Z</time>
      </trkpt>
      <trkpt lat="44.44512" lon="6.88297">
        <ele>2279</ele>
        <time>2022-08-16T06:27:17Z</time>
      </trkpt>
      <trkpt lat="44.44513" lon="6.88297">
        <ele>2279.2</ele>
        <time>2022-08-16T06:27:18Z</time>
      </trkpt>
      <trkpt lat="44.44514" lon="6.88297">
        <ele>2279.2</ele>
        <time>2022-08-16T06:27:19Z</time>
      </trkpt>
      <trkpt lat="44.44515" lon="6.88298">
        <ele>2279.4</ele>
        <time>2022-08-16T06:27:20Z</time>
      </trkpt>
      <trkpt lat="44.44517" lon="6.88298">
        <ele>2279.6</ele>
        <time>2022-08-16T06:27:21Z</time>
      </trkpt>
      <trkpt lat="44.44518" lon="6.88298">
        <ele>2279.8</ele>
        <time>2022-08-16T06:27:22Z</time>
      </trkpt>
      <trkpt lat="44.44519" lon="6.88298">
        <ele>2280.2</ele>
        <time>2022-08-16T06:27:23Z</time>
      </trkpt>
      <trkpt lat="44.4452" lon="6.88298">
        <ele>2280.2</ele>
        <time>2022-08-16T06:27:24Z</time>
      </trkpt>
      <trkpt lat="44.44522" lon="6.88298">
        <ele>2280.2</ele>
        <time>2022-08-16T06:27:25Z</time>
      </trkpt>
      <trkpt lat="44.44523" lon="6.88299">
        <ele>2280.6</ele>
        <time>2022-08-16T06:27:26Z</time>
      </trkpt>
      <trkpt lat="44.44525" lon="6.88299">
        <ele>2280.8</ele>
        <time>2022-08-16T06:27:27Z</time>
      </trkpt>
      <trkpt lat="44.44526" lon="6.88299">
        <ele>2280.8</ele>
        <time>2022-08-16T06:27:28Z</time>
      </trkpt>
      <trkpt lat="44.44527" lon="6.883">
        <ele>2281</ele>
        <time>2022-08-16T06:27:29Z</time>
      </trkpt>
      <trkpt lat="44.44528" lon="6.883">
        <ele>2281.2</ele>
        <time>2022-08-16T06:27:30Z</time>
      </trkpt>
      <trkpt lat="44.4453" lon="6.883">
        <ele>2281.2</ele>
        <time>2022-08-16T06:27:31Z</time>
      </trkpt>
      <trkpt lat="44.44531" lon="6.88301">
        <ele>2281.4</ele>
        <time>2022-08-16T06:27:32Z</time>
      </trkpt>
      <trkpt lat="44.44532" lon="6.88301">
        <ele>2281.6</ele>
        <time>2022-08-16T06:27:33Z</time>
      </trkpt>
      <trkpt lat="44.44533" lon="6.88301">
        <ele>2281.8</ele>
        <time>2022-08-16T06:27:34Z</time>
      </trkpt>
      <trkpt lat="44.44535" lon="6.88301">
        <ele>2282</ele>
        <time>2022-08-16T06:27:35Z</time>
      </trkpt>
      <trkpt lat="44.44536" lon="6.88301">
        <ele>2282</ele>
        <time>2022-08-16T06:27:36Z</time>
      </trkpt>
      <trkpt lat="44.44538" lon="6.88301">
        <ele>2282.2</ele>
        <time>2022-08-16T06:27:37Z</time>
      </trkpt>
      <trkpt lat="44.44539" lon="6.883">
        <ele>2282.4</ele>
        <time>2022-08-16T06:27:38Z</time>
      </trkpt>
      <trkpt lat="44.4454" lon="6.883">
        <ele>2282.4</ele>
        <time>2022-08-16T06:27:39Z</time>
      </trkpt>
      <trkpt lat="44.44542" lon="6.88299">
        <ele>2282.6</ele>
        <time>2022-08-16T06:27:40Z</time>
      </trkpt>
      <trkpt lat="44.44543" lon="6.88297">
        <ele>2282.6</ele>
        <time>2022-08-16T06:27:41Z</time>
      </trkpt>
      <trkpt lat="44.44544" lon="6.88295">
        <ele>2282.8</ele>
        <time>2022-08-16T06:27:42Z</time>
      </trkpt>
      <trkpt lat="44.44545" lon="6.88293">
        <ele>2283</ele>
        <time>2022-08-16T06:27:43Z</time>
      </trkpt>
      <trkpt lat="44.44546" lon="6.8829">
        <ele>2283.2</ele>
        <time>2022-08-16T06:27:44Z</time>
      </trkpt>
      <trkpt lat="44.44546" lon="6.88288">
        <ele>2283.2</ele>
        <time>2022-08-16T06:27:45Z</time>
      </trkpt>
      <trkpt lat="44.44547" lon="6.88285">
        <ele>2283.2</ele>
        <time>2022-08-16T06:27:46Z</time>
      </trkpt>
      <trkpt lat="44.44547" lon="6.88282">
        <ele>2283.2</ele>
        <time>2022-08-16T06:27:47Z</time>
      </trkpt>
      <trkpt lat="44.44547" lon="6.88279">
        <ele>2283.2</ele>
        <time>2022-08-16T06:27:48Z</time>
      </trkpt>
      <trkpt lat="44.44547" lon="6.88276">
        <ele>2283.4</ele>
        <time>2022-08-16T06:27:49Z</time>
      </trkpt>
      <trkpt lat="44.44547" lon="6.88273">
        <ele>2283.4</ele>
        <time>2022-08-16T06:27:50Z</time>
      </trkpt>
      <trkpt lat="44.44546" lon="6.8827">
        <ele>2283.4</ele>
        <time>2022-08-16T06:27:51Z</time>
      </trkpt>
      <trkpt lat="44.44545" lon="6.88263">
        <ele>2283.6</ele>
        <time>2022-08-16T06:27:53Z</time>
      </trkpt>
      <trkpt lat="44.44544" lon="6.8826">
        <ele>2283.6</ele>
        <time>2022-08-16T06:27:54Z</time>
      </trkpt>
      <trkpt lat="44.44543" lon="6.88257">
        <ele>2283.6</ele>
        <time>2022-08-16T06:27:55Z</time>
      </trkpt>
      <trkpt lat="44.44542" lon="6.88255">
        <ele>2283.8</ele>
        <time>2022-08-16T06:27:56Z</time>
      </trkpt>
      <trkpt lat="44.44541" lon="6.88252">
        <ele>2283.6</ele>
        <time>2022-08-16T06:27:57Z</time>
      </trkpt>
      <trkpt lat="44.44541" lon="6.8825">
        <ele>2283.6</ele>
        <time>2022-08-16T06:27:58Z</time>
      </trkpt>
      <trkpt lat="44.44539" lon="6.88245">
        <ele>2283.6</ele>
        <time>2022-08-16T06:28:00Z</time>
      </trkpt>
      <trkpt lat="44.44538" lon="6.88233">
        <ele>2283.6</ele>
        <time>2022-08-16T06:28:04Z</time>
      </trkpt>
      <trkpt lat="44.44539" lon="6.8823">
        <ele>2283.6</ele>
        <time>2022-08-16T06:28:05Z</time>
      </trkpt>
      <trkpt lat="44.4454" lon="6.88227">
        <ele>2283.6</ele>
        <time>2022-08-16T06:28:06Z</time>
      </trkpt>
      <trkpt lat="44.44541" lon="6.88224">
        <ele>2283.4</ele>
        <time>2022-08-16T06:28:07Z</time>
      </trkpt>
      <trkpt lat="44.44542" lon="6.88222">
        <ele>2283.4</ele>
        <time>2022-08-16T06:28:08Z</time>
      </trkpt>
      <trkpt lat="44.44544" lon="6.8822">
        <ele>2283.6</ele>
        <time>2022-08-16T06:28:09Z</time>
      </trkpt>
      <trkpt lat="44.44545" lon="6.88218">
        <ele>2283.4</ele>
        <time>2022-08-16T06:28:10Z</time>
      </trkpt>
      <trkpt lat="44.44547" lon="6.88217">
        <ele>2283.6</ele>
        <time>2022-08-16T06:28:11Z</time>
      </trkpt>
      <trkpt lat="44.44548" lon="6.88216">
        <ele>2283.6</ele>
        <time>2022-08-16T06:28:12Z</time>
      </trkpt>
      <trkpt lat="44.4455" lon="6.88215">
        <ele>2283.6</ele>
        <time>2022-08-16T06:28:13Z</time>
      </trkpt>
      <trkpt lat="44.44551" lon="6.88214">
        <ele>2283.4</ele>
        <time>2022-08-16T06:28:14Z</time>
      </trkpt>
      <trkpt lat="44.44553" lon="6.88213">
        <ele>2283.4</ele>
        <time>2022-08-16T06:28:15Z</time>
      </trkpt>
      <trkpt lat="44.44554" lon="6.88213">
        <ele>2283.6</ele>
        <time>2022-08-16T06:28:16Z</time>
      </trkpt>
      <trkpt lat="44.44556" lon="6.88213">
        <ele>2283.4</ele>
        <time>2022-08-16T06:28:17Z</time>
      </trkpt>
      <trkpt lat="44.44558" lon="6.88212">
        <ele>2283.6</ele>
        <time>2022-08-16T06:28:19Z</time>
      </trkpt>
      <trkpt lat="44.44564" lon="6.88211">
        <ele>2283.8</ele>
        <time>2022-08-16T06:28:23Z</time>
      </trkpt>
      <trkpt lat="44.44568" lon="6.88211">
        <ele>2284.4</ele>
        <time>2022-08-16T06:28:26Z</time>
      </trkpt>
      <trkpt lat="44.4457" lon="6.88211">
        <ele>2284.6</ele>
        <time>2022-08-16T06:28:27Z</time>
      </trkpt>
      <trkpt lat="44.44573" lon="6.88211">
        <ele>2284.8</ele>
        <time>2022-08-16T06:28:29Z</time>
      </trkpt>
      <trkpt lat="44.44574" lon="6.88211">
        <ele>2285</ele>
        <time>2022-08-16T06:28:30Z</time>
      </trkpt>
      <trkpt lat="44.44577" lon="6.88212">
        <ele>2285</ele>
        <time>2022-08-16T06:28:32Z</time>
      </trkpt>
      <trkpt lat="44.4458" lon="6.88212">
        <ele>2285.2</ele>
        <time>2022-08-16T06:28:34Z</time>
      </trkpt>
      <trkpt lat="44.44581" lon="6.88212">
        <ele>2285.2</ele>
        <time>2022-08-16T06:28:35Z</time>
      </trkpt>
      <trkpt lat="44.44582" lon="6.88212">
        <ele>2285.4</ele>
        <time>2022-08-16T06:28:36Z</time>
      </trkpt>
      <trkpt lat="44.44584" lon="6.88213">
        <ele>2285.6</ele>
        <time>2022-08-16T06:28:37Z</time>
      </trkpt>
      <trkpt lat="44.44585" lon="6.88213">
        <ele>2285.8</ele>
        <time>2022-08-16T06:28:38Z</time>
      </trkpt>
      <trkpt lat="44.44586" lon="6.88213">
        <ele>2286</ele>
        <time>2022-08-16T06:28:39Z</time>
      </trkpt>
      <trkpt lat="44.44588" lon="6.88213">
        <ele>2286</ele>
        <time>2022-08-16T06:28:40Z</time>
      </trkpt>
      <trkpt lat="44.44589" lon="6.88214">
        <ele>2286.2</ele>
        <time>2022-08-16T06:28:41Z</time>
      </trkpt>
      <trkpt lat="44.4459" lon="6.88214">
        <ele>2286.2</ele>
        <time>2022-08-16T06:28:42Z</time>
      </trkpt>
      <trkpt lat="44.44591" lon="6.88214">
        <ele>2286.4</ele>
        <time>2022-08-16T06:28:43Z</time>
      </trkpt>
      <trkpt lat="44.44593" lon="6.88214">
        <ele>2286.6</ele>
        <time>2022-08-16T06:28:44Z</time>
      </trkpt>
      <trkpt lat="44.44594" lon="6.88214">
        <ele>2286.8</ele>
        <time>2022-08-16T06:28:45Z</time>
      </trkpt>
      <trkpt lat="44.44595" lon="6.88213">
        <ele>2286.6</ele>
        <time>2022-08-16T06:28:46Z</time>
      </trkpt>
      <trkpt lat="44.44596" lon="6.88213">
        <ele>2287</ele>
        <time>2022-08-16T06:28:47Z</time>
      </trkpt>
      <trkpt lat="44.44597" lon="6.88213">
        <ele>2287.2</ele>
        <time>2022-08-16T06:28:48Z</time>
      </trkpt>
      <trkpt lat="44.44599" lon="6.88213">
        <ele>2287.4</ele>
        <time>2022-08-16T06:28:49Z</time>
      </trkpt>
      <trkpt lat="44.446" lon="6.88212">
        <ele>2287.4</ele>
        <time>2022-08-16T06:28:50Z</time>
      </trkpt>
      <trkpt lat="44.44601" lon="6.88212">
        <ele>2287.4</ele>
        <time>2022-08-16T06:28:51Z</time>
      </trkpt>
      <trkpt lat="44.44602" lon="6.88211">
        <ele>2287.6</ele>
        <time>2022-08-16T06:28:52Z</time>
      </trkpt>
      <trkpt lat="44.44603" lon="6.88211">
        <ele>2287.8</ele>
        <time>2022-08-16T06:28:53Z</time>
      </trkpt>
      <trkpt lat="44.44605" lon="6.8821">
        <ele>2288</ele>
        <time>2022-08-16T06:28:54Z</time>
      </trkpt>
      <trkpt lat="44.44606" lon="6.8821">
        <ele>2288.2</ele>
        <time>2022-08-16T06:28:55Z</time>
      </trkpt>
      <trkpt lat="44.44607" lon="6.8821">
        <ele>2288.2</ele>
        <time>2022-08-16T06:28:56Z</time>
      </trkpt>
      <trkpt lat="44.44609" lon="6.8821">
        <ele>2288.6</ele>
        <time>2022-08-16T06:28:57Z</time>
      </trkpt>
      <trkpt lat="44.4461" lon="6.8821">
        <ele>2288.6</ele>
        <time>2022-08-16T06:28:58Z</time>
      </trkpt>
      <trkpt lat="44.44611" lon="6.8821">
        <ele>2288.6</ele>
        <time>2022-08-16T06:28:59Z</time>
      </trkpt>
      <trkpt lat="44.44612" lon="6.8821">
        <ele>2288.8</ele>
        <time>2022-08-16T06:29:00Z</time>
      </trkpt>
      <trkpt lat="44.44614" lon="6.8821">
        <ele>2289</ele>
        <time>2022-08-16T06:29:01Z</time>
      </trkpt>
      <trkpt lat="44.44615" lon="6.8821">
        <ele>2289</ele>
        <time>2022-08-16T06:29:02Z</time>
      </trkpt>
      <trkpt lat="44.44617" lon="6.8821">
        <ele>2289.4</ele>
        <time>2022-08-16T06:29:03Z</time>
      </trkpt>
      <trkpt lat="44.44618" lon="6.8821">
        <ele>2289.6</ele>
        <time>2022-08-16T06:29:04Z</time>
      </trkpt>
      <trkpt lat="44.44619" lon="6.88211">
        <ele>2289.6</ele>
        <time>2022-08-16T06:29:05Z</time>
      </trkpt>
      <trkpt lat="44.4462" lon="6.88211">
        <ele>2289.8</ele>
        <time>2022-08-16T06:29:06Z</time>
      </trkpt>
      <trkpt lat="44.44622" lon="6.88212">
        <ele>2289.8</ele>
        <time>2022-08-16T06:29:07Z</time>
      </trkpt>
      <trkpt lat="44.44623" lon="6.88212">
        <ele>2290</ele>
        <time>2022-08-16T06:29:08Z</time>
      </trkpt>
      <trkpt lat="44.44624" lon="6.88213">
        <ele>2290.2</ele>
        <time>2022-08-16T06:29:09Z</time>
      </trkpt>
      <trkpt lat="44.44625" lon="6.88213">
        <ele>2290.2</ele>
        <time>2022-08-16T06:29:10Z</time>
      </trkpt>
      <trkpt lat="44.44627" lon="6.88214">
        <ele>2290.4</ele>
        <time>2022-08-16T06:29:11Z</time>
      </trkpt>
      <trkpt lat="44.44628" lon="6.88214">
        <ele>2290.4</ele>
        <time>2022-08-16T06:29:12Z</time>
      </trkpt>
      <trkpt lat="44.44629" lon="6.88214">
        <ele>2290.6</ele>
        <time>2022-08-16T06:29:13Z</time>
      </trkpt>
      <trkpt lat="44.4463" lon="6.88215">
        <ele>2290.6</ele>
        <time>2022-08-16T06:29:14Z</time>
      </trkpt>
      <trkpt lat="44.44632" lon="6.88215">
        <ele>2290.6</ele>
        <time>2022-08-16T06:29:15Z</time>
      </trkpt>
      <trkpt lat="44.44633" lon="6.88215">
        <ele>2290.8</ele>
        <time>2022-08-16T06:29:16Z</time>
      </trkpt>
      <trkpt lat="44.44634" lon="6.88215">
        <ele>2290.8</ele>
        <time>2022-08-16T06:29:17Z</time>
      </trkpt>
      <trkpt lat="44.44636" lon="6.88215">
        <ele>2290.8</ele>
        <time>2022-08-16T06:29:18Z</time>
      </trkpt>
      <trkpt lat="44.44637" lon="6.88215">
        <ele>2291</ele>
        <time>2022-08-16T06:29:19Z</time>
      </trkpt>
      <trkpt lat="44.44638" lon="6.88215">
        <ele>2291.2</ele>
        <time>2022-08-16T06:29:20Z</time>
      </trkpt>
      <trkpt lat="44.44639" lon="6.88215">
        <ele>2291.2</ele>
        <time>2022-08-16T06:29:21Z</time>
      </trkpt>
      <trkpt lat="44.44641" lon="6.88215">
        <ele>2291.2</ele>
        <time>2022-08-16T06:29:22Z</time>
      </trkpt>
      <trkpt lat="44.44642" lon="6.88214">
        <ele>2291.2</ele>
        <time>2022-08-16T06:29:23Z</time>
      </trkpt>
      <trkpt lat="44.44643" lon="6.88214">
        <ele>2291.2</ele>
        <time>2022-08-16T06:29:24Z</time>
      </trkpt>
      <trkpt lat="44.44644" lon="6.88213">
        <ele>2291.2</ele>
        <time>2022-08-16T06:29:25Z</time>
      </trkpt>
      <trkpt lat="44.44646" lon="6.88213">
        <ele>2291.4</ele>
        <time>2022-08-16T06:29:26Z</time>
      </trkpt>
      <trkpt lat="44.44647" lon="6.88212">
        <ele>2291.6</ele>
        <time>2022-08-16T06:29:27Z</time>
      </trkpt>
      <trkpt lat="44.44648" lon="6.88211">
        <ele>2291.8</ele>
        <time>2022-08-16T06:29:28Z</time>
      </trkpt>
      <trkpt lat="44.44649" lon="6.88211">
        <ele>2292</ele>
        <time>2022-08-16T06:29:29Z</time>
      </trkpt>
      <trkpt lat="44.44651" lon="6.8821">
        <ele>2292</ele>
        <time>2022-08-16T06:29:30Z</time>
      </trkpt>
      <trkpt lat="44.44652" lon="6.8821">
        <ele>2292</ele>
        <time>2022-08-16T06:29:31Z</time>
      </trkpt>
      <trkpt lat="44.44653" lon="6.88209">
        <ele>2292.4</ele>
        <time>2022-08-16T06:29:32Z</time>
      </trkpt>
      <trkpt lat="44.44655" lon="6.88208">
        <ele>2292.4</ele>
        <time>2022-08-16T06:29:33Z</time>
      </trkpt>
      <trkpt lat="44.44656" lon="6.88207">
        <ele>2292.8</ele>
        <time>2022-08-16T06:29:34Z</time>
      </trkpt>
      <trkpt lat="44.44657" lon="6.88207">
        <ele>2292.8</ele>
        <time>2022-08-16T06:29:35Z</time>
      </trkpt>
      <trkpt lat="44.44658" lon="6.88206">
        <ele>2293</ele>
        <time>2022-08-16T06:29:36Z</time>
      </trkpt>
      <trkpt lat="44.44659" lon="6.88205">
        <ele>2293.2</ele>
        <time>2022-08-16T06:29:37Z</time>
      </trkpt>
      <trkpt lat="44.4466" lon="6.88204">
        <ele>2293.2</ele>
        <time>2022-08-16T06:29:38Z</time>
      </trkpt>
      <trkpt lat="44.44661" lon="6.88204">
        <ele>2293.4</ele>
        <time>2022-08-16T06:29:39Z</time>
      </trkpt>
      <trkpt lat="44.44662" lon="6.88203">
        <ele>2293.6</ele>
        <time>2022-08-16T06:29:40Z</time>
      </trkpt>
      <trkpt lat="44.44664" lon="6.88202">
        <ele>2293.4</ele>
        <time>2022-08-16T06:29:41Z</time>
      </trkpt>
      <trkpt lat="44.44665" lon="6.88201">
        <ele>2293.8</ele>
        <time>2022-08-16T06:29:42Z</time>
      </trkpt>
      <trkpt lat="44.44666" lon="6.882">
        <ele>2294</ele>
        <time>2022-08-16T06:29:43Z</time>
      </trkpt>
      <trkpt lat="44.44667" lon="6.88199">
        <ele>2294</ele>
        <time>2022-08-16T06:29:44Z</time>
      </trkpt>
      <trkpt lat="44.44668" lon="6.88198">
        <ele>2294</ele>
        <time>2022-08-16T06:29:45Z</time>
      </trkpt>
      <trkpt lat="44.4467" lon="6.88197">
        <ele>2294.4</ele>
        <time>2022-08-16T06:29:46Z</time>
      </trkpt>
      <trkpt lat="44.44671" lon="6.88196">
        <ele>2294.4</ele>
        <time>2022-08-16T06:29:47Z</time>
      </trkpt>
      <trkpt lat="44.44672" lon="6.88195">
        <ele>2294.4</ele>
        <time>2022-08-16T06:29:48Z</time>
      </trkpt>
      <trkpt lat="44.44673" lon="6.88195">
        <ele>2294.6</ele>
        <time>2022-08-16T06:29:49Z</time>
      </trkpt>
      <trkpt lat="44.44674" lon="6.88194">
        <ele>2294.8</ele>
        <time>2022-08-16T06:29:50Z</time>
      </trkpt>
      <trkpt lat="44.44675" lon="6.88193">
        <ele>2294.8</ele>
        <time>2022-08-16T06:29:51Z</time>
      </trkpt>
      <trkpt lat="44.44677" lon="6.88192">
        <ele>2295.2</ele>
        <time>2022-08-16T06:29:52Z</time>
      </trkpt>
      <trkpt lat="44.44678" lon="6.88191">
        <ele>2295.2</ele>
        <time>2022-08-16T06:29:53Z</time>
      </trkpt>
      <trkpt lat="44.44679" lon="6.88191">
        <ele>2295.6</ele>
        <time>2022-08-16T06:29:54Z</time>
      </trkpt>
      <trkpt lat="44.4468" lon="6.8819">
        <ele>2295.6</ele>
        <time>2022-08-16T06:29:55Z</time>
      </trkpt>
      <trkpt lat="44.44681" lon="6.88189">
        <ele>2295.8</ele>
        <time>2022-08-16T06:29:56Z</time>
      </trkpt>
      <trkpt lat="44.44682" lon="6.88188">
        <ele>2296</ele>
        <time>2022-08-16T06:29:57Z</time>
      </trkpt>
      <trkpt lat="44.44684" lon="6.88187">
        <ele>2296</ele>
        <time>2022-08-16T06:29:58Z</time>
      </trkpt>
      <trkpt lat="44.44685" lon="6.88186">
        <ele>2296.2</ele>
        <time>2022-08-16T06:29:59Z</time>
      </trkpt>
      <trkpt lat="44.44686" lon="6.88185">
        <ele>2296.2</ele>
        <time>2022-08-16T06:30:00Z</time>
      </trkpt>
      <trkpt lat="44.44688" lon="6.88185">
        <ele>2296.4</ele>
        <time>2022-08-16T06:30:01Z</time>
      </trkpt>
      <trkpt lat="44.44689" lon="6.88184">
        <ele>2296.4</ele>
        <time>2022-08-16T06:30:02Z</time>
      </trkpt>
      <trkpt lat="44.4469" lon="6.88183">
        <ele>2296.6</ele>
        <time>2022-08-16T06:30:03Z</time>
      </trkpt>
      <trkpt lat="44.44691" lon="6.88183">
        <ele>2297</ele>
        <time>2022-08-16T06:30:04Z</time>
      </trkpt>
      <trkpt lat="44.44693" lon="6.88182">
        <ele>2297</ele>
        <time>2022-08-16T06:30:05Z</time>
      </trkpt>
      <trkpt lat="44.44694" lon="6.88181">
        <ele>2297</ele>
        <time>2022-08-16T06:30:06Z</time>
      </trkpt>
      <trkpt lat="44.44695" lon="6.88181">
        <ele>2297</ele>
        <time>2022-08-16T06:30:07Z</time>
      </trkpt>
      <trkpt lat="44.44696" lon="6.8818">
        <ele>2297.2</ele>
        <time>2022-08-16T06:30:08Z</time>
      </trkpt>
      <trkpt lat="44.44697" lon="6.88178">
        <ele>2297.4</ele>
        <time>2022-08-16T06:30:09Z</time>
      </trkpt>
      <trkpt lat="44.44698" lon="6.88177">
        <ele>2297.4</ele>
        <time>2022-08-16T06:30:10Z</time>
      </trkpt>
      <trkpt lat="44.44699" lon="6.88176">
        <ele>2297.6</ele>
        <time>2022-08-16T06:30:11Z</time>
      </trkpt>
      <trkpt lat="44.447" lon="6.88175">
        <ele>2297.8</ele>
        <time>2022-08-16T06:30:12Z</time>
      </trkpt>
      <trkpt lat="44.44701" lon="6.88175">
        <ele>2297.8</ele>
        <time>2022-08-16T06:30:13Z</time>
      </trkpt>
      <trkpt lat="44.44702" lon="6.88174">
        <ele>2298</ele>
        <time>2022-08-16T06:30:14Z</time>
      </trkpt>
      <trkpt lat="44.44703" lon="6.88173">
        <ele>2298.2</ele>
        <time>2022-08-16T06:30:15Z</time>
      </trkpt>
      <trkpt lat="44.44704" lon="6.88172">
        <ele>2298.4</ele>
        <time>2022-08-16T06:30:16Z</time>
      </trkpt>
      <trkpt lat="44.44705" lon="6.88172">
        <ele>2298.4</ele>
        <time>2022-08-16T06:30:17Z</time>
      </trkpt>
      <trkpt lat="44.44706" lon="6.88172">
        <ele>2298.8</ele>
        <time>2022-08-16T06:30:18Z</time>
      </trkpt>
      <trkpt lat="44.44707" lon="6.88171">
        <ele>2299</ele>
        <time>2022-08-16T06:30:19Z</time>
      </trkpt>
      <trkpt lat="44.44708" lon="6.8817">
        <ele>2299.2</ele>
        <time>2022-08-16T06:30:20Z</time>
      </trkpt>
      <trkpt lat="44.4471" lon="6.88169">
        <ele>2299.4</ele>
        <time>2022-08-16T06:30:21Z</time>
      </trkpt>
      <trkpt lat="44.44711" lon="6.88168">
        <ele>2299.4</ele>
        <time>2022-08-16T06:30:22Z</time>
      </trkpt>
      <trkpt lat="44.44712" lon="6.88168">
        <ele>2299.4</ele>
        <time>2022-08-16T06:30:23Z</time>
      </trkpt>
      <trkpt lat="44.44713" lon="6.88167">
        <ele>2299.6</ele>
        <time>2022-08-16T06:30:24Z</time>
      </trkpt>
      <trkpt lat="44.44714" lon="6.88166">
        <ele>2299.8</ele>
        <time>2022-08-16T06:30:25Z</time>
      </trkpt>
      <trkpt lat="44.44715" lon="6.88166">
        <ele>2299.8</ele>
        <time>2022-08-16T06:30:26Z</time>
      </trkpt>
      <trkpt lat="44.44716" lon="6.88165">
        <ele>2300</ele>
        <time>2022-08-16T06:30:27Z</time>
      </trkpt>
      <trkpt lat="44.44717" lon="6.88164">
        <ele>2300</ele>
        <time>2022-08-16T06:30:28Z</time>
      </trkpt>
      <trkpt lat="44.44718" lon="6.88163">
        <ele>2300.4</ele>
        <time>2022-08-16T06:30:29Z</time>
      </trkpt>
      <trkpt lat="44.4472" lon="6.88163">
        <ele>2300.4</ele>
        <time>2022-08-16T06:30:30Z</time>
      </trkpt>
      <trkpt lat="44.44721" lon="6.88162">
        <ele>2300.4</ele>
        <time>2022-08-16T06:30:31Z</time>
      </trkpt>
      <trkpt lat="44.44722" lon="6.88162">
        <ele>2300.6</ele>
        <time>2022-08-16T06:30:32Z</time>
      </trkpt>
      <trkpt lat="44.44723" lon="6.88161">
        <ele>2300.8</ele>
        <time>2022-08-16T06:30:33Z</time>
      </trkpt>
      <trkpt lat="44.44725" lon="6.88161">
        <ele>2300.8</ele>
        <time>2022-08-16T06:30:34Z</time>
      </trkpt>
      <trkpt lat="44.44726" lon="6.8816">
        <ele>2301</ele>
        <time>2022-08-16T06:30:35Z</time>
      </trkpt>
      <trkpt lat="44.44727" lon="6.8816">
        <ele>2301</ele>
        <time>2022-08-16T06:30:36Z</time>
      </trkpt>
      <trkpt lat="44.44729" lon="6.8816">
        <ele>2301</ele>
        <time>2022-08-16T06:30:37Z</time>
      </trkpt>
      <trkpt lat="44.4473" lon="6.8816">
        <ele>2301</ele>
        <time>2022-08-16T06:30:38Z</time>
      </trkpt>
      <trkpt lat="44.44731" lon="6.88159">
        <ele>2301.2</ele>
        <time>2022-08-16T06:30:39Z</time>
      </trkpt>
      <trkpt lat="44.44732" lon="6.88158">
        <ele>2301.2</ele>
        <time>2022-08-16T06:30:40Z</time>
      </trkpt>
      <trkpt lat="44.44734" lon="6.88156">
        <ele>2301.4</ele>
        <time>2022-08-16T06:30:41Z</time>
      </trkpt>
      <trkpt lat="44.44734" lon="6.88155">
        <ele>2301.4</ele>
        <time>2022-08-16T06:30:42Z</time>
      </trkpt>
      <trkpt lat="44.44735" lon="6.88154">
        <ele>2301.8</ele>
        <time>2022-08-16T06:30:43Z</time>
      </trkpt>
      <trkpt lat="44.44736" lon="6.88152">
        <ele>2301.8</ele>
        <time>2022-08-16T06:30:44Z</time>
      </trkpt>
      <trkpt lat="44.44737" lon="6.8815">
        <ele>2302</ele>
        <time>2022-08-16T06:30:45Z</time>
      </trkpt>
      <trkpt lat="44.44737" lon="6.88148">
        <ele>2302</ele>
        <time>2022-08-16T06:30:46Z</time>
      </trkpt>
      <trkpt lat="44.44738" lon="6.88146">
        <ele>2301.8</ele>
        <time>2022-08-16T06:30:47Z</time>
      </trkpt>
      <trkpt lat="44.44738" lon="6.88144">
        <ele>2302.2</ele>
        <time>2022-08-16T06:30:48Z</time>
      </trkpt>
      <trkpt lat="44.44739" lon="6.88143">
        <ele>2302.2</ele>
        <time>2022-08-16T06:30:49Z</time>
      </trkpt>
      <trkpt lat="44.44739" lon="6.88141">
        <ele>2302.2</ele>
        <time>2022-08-16T06:30:50Z</time>
      </trkpt>
      <trkpt lat="44.44739" lon="6.88139">
        <ele>2302.6</ele>
        <time>2022-08-16T06:30:51Z</time>
      </trkpt>
      <trkpt lat="44.44739" lon="6.88138">
        <ele>2302.6</ele>
        <time>2022-08-16T06:30:52Z</time>
      </trkpt>
      <trkpt lat="44.4474" lon="6.88136">
        <ele>2302.6</ele>
        <time>2022-08-16T06:30:53Z</time>
      </trkpt>
      <trkpt lat="44.4474" lon="6.88134">
        <ele>2302.8</ele>
        <time>2022-08-16T06:30:54Z</time>
      </trkpt>
      <trkpt lat="44.4474" lon="6.88132">
        <ele>2303</ele>
        <time>2022-08-16T06:30:55Z</time>
      </trkpt>
      <trkpt lat="44.44741" lon="6.88131">
        <ele>2303.2</ele>
        <time>2022-08-16T06:30:56Z</time>
      </trkpt>
      <trkpt lat="44.44742" lon="6.88129">
        <ele>2303.4</ele>
        <time>2022-08-16T06:30:57Z</time>
      </trkpt>
      <trkpt lat="44.44742" lon="6.88128">
        <ele>2303.4</ele>
        <time>2022-08-16T06:30:58Z</time>
      </trkpt>
      <trkpt lat="44.44743" lon="6.88126">
        <ele>2303.8</ele>
        <time>2022-08-16T06:30:59Z</time>
      </trkpt>
      <trkpt lat="44.44744" lon="6.88125">
        <ele>2303.8</ele>
        <time>2022-08-16T06:31:00Z</time>
      </trkpt>
      <trkpt lat="44.44745" lon="6.88123">
        <ele>2304</ele>
        <time>2022-08-16T06:31:01Z</time>
      </trkpt>
      <trkpt lat="44.44745" lon="6.88122">
        <ele>2304.2</ele>
        <time>2022-08-16T06:31:02Z</time>
      </trkpt>
      <trkpt lat="44.44746" lon="6.88121">
        <ele>2304.4</ele>
        <time>2022-08-16T06:31:03Z</time>
      </trkpt>
      <trkpt lat="44.44747" lon="6.88119">
        <ele>2304.6</ele>
        <time>2022-08-16T06:31:04Z</time>
      </trkpt>
      <trkpt lat="44.44748" lon="6.88118">
        <ele>2304.6</ele>
        <time>2022-08-16T06:31:05Z</time>
      </trkpt>
      <trkpt lat="44.44749" lon="6.88117">
        <ele>2304.8</ele>
        <time>2022-08-16T06:31:06Z</time>
      </trkpt>
      <trkpt lat="44.4475" lon="6.88115">
        <ele>2304.8</ele>
        <time>2022-08-16T06:31:07Z</time>
      </trkpt>
      <trkpt lat="44.44751" lon="6.88114">
        <ele>2305</ele>
        <time>2022-08-16T06:31:08Z</time>
      </trkpt>
      <trkpt lat="44.44752" lon="6.88113">
        <ele>2305.2</ele>
        <time>2022-08-16T06:31:09Z</time>
      </trkpt>
      <trkpt lat="44.44753" lon="6.88111">
        <ele>2305.4</ele>
        <time>2022-08-16T06:31:10Z</time>
      </trkpt>
      <trkpt lat="44.44755" lon="6.8811">
        <ele>2305.4</ele>
        <time>2022-08-16T06:31:11Z</time>
      </trkpt>
      <trkpt lat="44.44756" lon="6.88109">
        <ele>2305.6</ele>
        <time>2022-08-16T06:31:12Z</time>
      </trkpt>
      <trkpt lat="44.44757" lon="6.88108">
        <ele>2305.6</ele>
        <time>2022-08-16T06:31:13Z</time>
      </trkpt>
      <trkpt lat="44.44758" lon="6.88106">
        <ele>2305.8</ele>
        <time>2022-08-16T06:31:14Z</time>
      </trkpt>
      <trkpt lat="44.44759" lon="6.88105">
        <ele>2305.8</ele>
        <time>2022-08-16T06:31:15Z</time>
      </trkpt>
      <trkpt lat="44.4476" lon="6.88103">
        <ele>2305.8</ele>
        <time>2022-08-16T06:31:16Z</time>
      </trkpt>
      <trkpt lat="44.4476" lon="6.88101">
        <ele>2306</ele>
        <time>2022-08-16T06:31:17Z</time>
      </trkpt>
      <trkpt lat="44.44761" lon="6.88099">
        <ele>2306</ele>
        <time>2022-08-16T06:31:18Z</time>
      </trkpt>
      <trkpt lat="44.44761" lon="6.88097">
        <ele>2306.2</ele>
        <time>2022-08-16T06:31:19Z</time>
      </trkpt>
      <trkpt lat="44.44761" lon="6.88095">
        <ele>2306</ele>
        <time>2022-08-16T06:31:20Z</time>
      </trkpt>
      <trkpt lat="44.44761" lon="6.88093">
        <ele>2306.2</ele>
        <time>2022-08-16T06:31:21Z</time>
      </trkpt>
      <trkpt lat="44.44761" lon="6.88091">
        <ele>2306.2</ele>
        <time>2022-08-16T06:31:22Z</time>
      </trkpt>
      <trkpt lat="44.4476" lon="6.88089">
        <ele>2306.4</ele>
        <time>2022-08-16T06:31:23Z</time>
      </trkpt>
      <trkpt lat="44.4476" lon="6.88087">
        <ele>2306.4</ele>
        <time>2022-08-16T06:31:24Z</time>
      </trkpt>
      <trkpt lat="44.4476" lon="6.88085">
        <ele>2306.6</ele>
        <time>2022-08-16T06:31:25Z</time>
      </trkpt>
      <trkpt lat="44.44759" lon="6.88083">
        <ele>2306.8</ele>
        <time>2022-08-16T06:31:26Z</time>
      </trkpt>
      <trkpt lat="44.44759" lon="6.88081">
        <ele>2307</ele>
        <time>2022-08-16T06:31:27Z</time>
      </trkpt>
      <trkpt lat="44.44758" lon="6.88079">
        <ele>2307.2</ele>
        <time>2022-08-16T06:31:28Z</time>
      </trkpt>
      <trkpt lat="44.44758" lon="6.88077">
        <ele>2307.6</ele>
        <time>2022-08-16T06:31:29Z</time>
      </trkpt>
      <trkpt lat="44.44758" lon="6.88075">
        <ele>2307.8</ele>
        <time>2022-08-16T06:31:30Z</time>
      </trkpt>
      <trkpt lat="44.44757" lon="6.88073">
        <ele>2308</ele>
        <time>2022-08-16T06:31:31Z</time>
      </trkpt>
      <trkpt lat="44.44757" lon="6.88071">
        <ele>2308.2</ele>
        <time>2022-08-16T06:31:32Z</time>
      </trkpt>
      <trkpt lat="44.44757" lon="6.88069">
        <ele>2308.4</ele>
        <time>2022-08-16T06:31:33Z</time>
      </trkpt>
      <trkpt lat="44.44756" lon="6.88067">
        <ele>2308.6</ele>
        <time>2022-08-16T06:31:34Z</time>
      </trkpt>
      <trkpt lat="44.44756" lon="6.88065">
        <ele>2308.6</ele>
        <time>2022-08-16T06:31:35Z</time>
      </trkpt>
      <trkpt lat="44.44756" lon="6.88063">
        <ele>2308.8</ele>
        <time>2022-08-16T06:31:36Z</time>
      </trkpt>
      <trkpt lat="44.44755" lon="6.88061">
        <ele>2308.8</ele>
        <time>2022-08-16T06:31:37Z</time>
      </trkpt>
      <trkpt lat="44.44755" lon="6.88059">
        <ele>2308.8</ele>
        <time>2022-08-16T06:31:38Z</time>
      </trkpt>
      <trkpt lat="44.44755" lon="6.88057">
        <ele>2308.8</ele>
        <time>2022-08-16T06:31:39Z</time>
      </trkpt>
      <trkpt lat="44.44754" lon="6.88056">
        <ele>2309</ele>
        <time>2022-08-16T06:31:40Z</time>
      </trkpt>
      <trkpt lat="44.44754" lon="6.88054">
        <ele>2309.2</ele>
        <time>2022-08-16T06:31:41Z</time>
      </trkpt>
      <trkpt lat="44.44754" lon="6.88052">
        <ele>2309.2</ele>
        <time>2022-08-16T06:31:42Z</time>
      </trkpt>
      <trkpt lat="44.44753" lon="6.88051">
        <ele>2309.6</ele>
        <time>2022-08-16T06:31:43Z</time>
      </trkpt>
      <trkpt lat="44.44753" lon="6.88049">
        <ele>2309.6</ele>
        <time>2022-08-16T06:31:44Z</time>
      </trkpt>
      <trkpt lat="44.44753" lon="6.88048">
        <ele>2309.8</ele>
        <time>2022-08-16T06:31:45Z</time>
      </trkpt>
      <trkpt lat="44.44752" lon="6.88046">
        <ele>2309.8</ele>
        <time>2022-08-16T06:31:46Z</time>
      </trkpt>
      <trkpt lat="44.44752" lon="6.88044">
        <ele>2310</ele>
        <time>2022-08-16T06:31:47Z</time>
      </trkpt>
      <trkpt lat="44.44751" lon="6.88042">
        <ele>2310</ele>
        <time>2022-08-16T06:31:48Z</time>
      </trkpt>
      <trkpt lat="44.44751" lon="6.8804">
        <ele>2310</ele>
        <time>2022-08-16T06:31:49Z</time>
      </trkpt>
      <trkpt lat="44.4475" lon="6.88039">
        <ele>2310</ele>
        <time>2022-08-16T06:31:50Z</time>
      </trkpt>
      <trkpt lat="44.4475" lon="6.88037">
        <ele>2310.4</ele>
        <time>2022-08-16T06:31:51Z</time>
      </trkpt>
      <trkpt lat="44.44749" lon="6.88035">
        <ele>2310.4</ele>
        <time>2022-08-16T06:31:52Z</time>
      </trkpt>
      <trkpt lat="44.44749" lon="6.88033">
        <ele>2310.6</ele>
        <time>2022-08-16T06:31:53Z</time>
      </trkpt>
      <trkpt lat="44.44749" lon="6.88031">
        <ele>2310.6</ele>
        <time>2022-08-16T06:31:54Z</time>
      </trkpt>
      <trkpt lat="44.44748" lon="6.88029">
        <ele>2310.6</ele>
        <time>2022-08-16T06:31:55Z</time>
      </trkpt>
      <trkpt lat="44.44748" lon="6.88028">
        <ele>2310.8</ele>
        <time>2022-08-16T06:31:56Z</time>
      </trkpt>
      <trkpt lat="44.44747" lon="6.88026">
        <ele>2311</ele>
        <time>2022-08-16T06:31:57Z</time>
      </trkpt>
      <trkpt lat="44.44746" lon="6.88025">
        <ele>2311</ele>
        <time>2022-08-16T06:31:58Z</time>
      </trkpt>
      <trkpt lat="44.44745" lon="6.88023">
        <ele>2311.2</ele>
        <time>2022-08-16T06:31:59Z</time>
      </trkpt>
      <trkpt lat="44.44745" lon="6.88022">
        <ele>2311.2</ele>
        <time>2022-08-16T06:32:00Z</time>
      </trkpt>
      <trkpt lat="44.44744" lon="6.8802">
        <ele>2311.4</ele>
        <time>2022-08-16T06:32:01Z</time>
      </trkpt>
      <trkpt lat="44.44743" lon="6.88018">
        <ele>2311.4</ele>
        <time>2022-08-16T06:32:02Z</time>
      </trkpt>
      <trkpt lat="44.44743" lon="6.88017">
        <ele>2311.4</ele>
        <time>2022-08-16T06:32:03Z</time>
      </trkpt>
      <trkpt lat="44.44742" lon="6.88015">
        <ele>2311.4</ele>
        <time>2022-08-16T06:32:04Z</time>
      </trkpt>
      <trkpt lat="44.44742" lon="6.88014">
        <ele>2311.8</ele>
        <time>2022-08-16T06:32:05Z</time>
      </trkpt>
      <trkpt lat="44.44741" lon="6.88012">
        <ele>2312</ele>
        <time>2022-08-16T06:32:06Z</time>
      </trkpt>
      <trkpt lat="44.4474" lon="6.8801">
        <ele>2312.2</ele>
        <time>2022-08-16T06:32:07Z</time>
      </trkpt>
      <trkpt lat="44.4474" lon="6.88009">
        <ele>2312.2</ele>
        <time>2022-08-16T06:32:08Z</time>
      </trkpt>
      <trkpt lat="44.44739" lon="6.88007">
        <ele>2312.6</ele>
        <time>2022-08-16T06:32:09Z</time>
      </trkpt>
      <trkpt lat="44.44738" lon="6.88006">
        <ele>2312.6</ele>
        <time>2022-08-16T06:32:10Z</time>
      </trkpt>
      <trkpt lat="44.44737" lon="6.88004">
        <ele>2312.8</ele>
        <time>2022-08-16T06:32:11Z</time>
      </trkpt>
      <trkpt lat="44.44736" lon="6.88003">
        <ele>2312.8</ele>
        <time>2022-08-16T06:32:12Z</time>
      </trkpt>
      <trkpt lat="44.44735" lon="6.88002">
        <ele>2313</ele>
        <time>2022-08-16T06:32:13Z</time>
      </trkpt>
      <trkpt lat="44.44734" lon="6.88">
        <ele>2313</ele>
        <time>2022-08-16T06:32:14Z</time>
      </trkpt>
      <trkpt lat="44.44734" lon="6.87999">
        <ele>2313.2</ele>
        <time>2022-08-16T06:32:15Z</time>
      </trkpt>
      <trkpt lat="44.44733" lon="6.87997">
        <ele>2313.6</ele>
        <time>2022-08-16T06:32:16Z</time>
      </trkpt>
      <trkpt lat="44.44733" lon="6.87995">
        <ele>2313.6</ele>
        <time>2022-08-16T06:32:17Z</time>
      </trkpt>
      <trkpt lat="44.44732" lon="6.87994">
        <ele>2314</ele>
        <time>2022-08-16T06:32:18Z</time>
      </trkpt>
      <trkpt lat="44.44732" lon="6.87992">
        <ele>2314</ele>
        <time>2022-08-16T06:32:19Z</time>
      </trkpt>
      <trkpt lat="44.44732" lon="6.87991">
        <ele>2314.2</ele>
        <time>2022-08-16T06:32:20Z</time>
      </trkpt>
      <trkpt lat="44.44731" lon="6.87989">
        <ele>2314.2</ele>
        <time>2022-08-16T06:32:21Z</time>
      </trkpt>
      <trkpt lat="44.44731" lon="6.87987">
        <ele>2314.4</ele>
        <time>2022-08-16T06:32:22Z</time>
      </trkpt>
      <trkpt lat="44.4473" lon="6.87986">
        <ele>2314.4</ele>
        <time>2022-08-16T06:32:23Z</time>
      </trkpt>
      <trkpt lat="44.4473" lon="6.87984">
        <ele>2314.4</ele>
        <time>2022-08-16T06:32:24Z</time>
      </trkpt>
      <trkpt lat="44.44729" lon="6.87982">
        <ele>2314.6</ele>
        <time>2022-08-16T06:32:25Z</time>
      </trkpt>
      <trkpt lat="44.44729" lon="6.8798">
        <ele>2314.8</ele>
        <time>2022-08-16T06:32:26Z</time>
      </trkpt>
      <trkpt lat="44.44729" lon="6.87979">
        <ele>2314.8</ele>
        <time>2022-08-16T06:32:27Z</time>
      </trkpt>
      <trkpt lat="44.44728" lon="6.87977">
        <ele>2315.2</ele>
        <time>2022-08-16T06:32:28Z</time>
      </trkpt>
      <trkpt lat="44.44727" lon="6.87975">
        <ele>2315.4</ele>
        <time>2022-08-16T06:32:29Z</time>
      </trkpt>
      <trkpt lat="44.44727" lon="6.87973">
        <ele>2315.6</ele>
        <time>2022-08-16T06:32:30Z</time>
      </trkpt>
      <trkpt lat="44.44727" lon="6.87972">
        <ele>2315.6</ele>
        <time>2022-08-16T06:32:31Z</time>
      </trkpt>
      <trkpt lat="44.44726" lon="6.8797">
        <ele>2315.6</ele>
        <time>2022-08-16T06:32:32Z</time>
      </trkpt>
      <trkpt lat="44.44726" lon="6.87968">
        <ele>2315.8</ele>
        <time>2022-08-16T06:32:33Z</time>
      </trkpt>
      <trkpt lat="44.44725" lon="6.87967">
        <ele>2316</ele>
        <time>2022-08-16T06:32:34Z</time>
      </trkpt>
      <trkpt lat="44.44725" lon="6.87965">
        <ele>2316</ele>
        <time>2022-08-16T06:32:35Z</time>
      </trkpt>
      <trkpt lat="44.44725" lon="6.87963">
        <ele>2316</ele>
        <time>2022-08-16T06:32:36Z</time>
      </trkpt>
      <trkpt lat="44.44725" lon="6.87962">
        <ele>2316.2</ele>
        <time>2022-08-16T06:32:37Z</time>
      </trkpt>
      <trkpt lat="44.44724" lon="6.8796">
        <ele>2316.2</ele>
        <time>2022-08-16T06:32:38Z</time>
      </trkpt>
      <trkpt lat="44.44724" lon="6.87958">
        <ele>2316.4</ele>
        <time>2022-08-16T06:32:39Z</time>
      </trkpt>
      <trkpt lat="44.44723" lon="6.87956">
        <ele>2316.6</ele>
        <time>2022-08-16T06:32:40Z</time>
      </trkpt>
      <trkpt lat="44.44723" lon="6.87954">
        <ele>2316.6</ele>
        <time>2022-08-16T06:32:41Z</time>
      </trkpt>
      <trkpt lat="44.44722" lon="6.87953">
        <ele>2316.8</ele>
        <time>2022-08-16T06:32:42Z</time>
      </trkpt>
      <trkpt lat="44.44722" lon="6.8795">
        <ele>2317</ele>
        <time>2022-08-16T06:32:43Z</time>
      </trkpt>
      <trkpt lat="44.44721" lon="6.87948">
        <ele>2317.2</ele>
        <time>2022-08-16T06:32:44Z</time>
      </trkpt>
      <trkpt lat="44.4472" lon="6.87946">
        <ele>2317.2</ele>
        <time>2022-08-16T06:32:45Z</time>
      </trkpt>
      <trkpt lat="44.4472" lon="6.87944">
        <ele>2317.2</ele>
        <time>2022-08-16T06:32:46Z</time>
      </trkpt>
      <trkpt lat="44.44719" lon="6.87942">
        <ele>2317.2</ele>
        <time>2022-08-16T06:32:47Z</time>
      </trkpt>
      <trkpt lat="44.44719" lon="6.8794">
        <ele>2317.4</ele>
        <time>2022-08-16T06:32:48Z</time>
      </trkpt>
      <trkpt lat="44.44719" lon="6.87938">
        <ele>2317.6</ele>
        <time>2022-08-16T06:32:49Z</time>
      </trkpt>
      <trkpt lat="44.44718" lon="6.87936">
        <ele>2317.8</ele>
        <time>2022-08-16T06:32:50Z</time>
      </trkpt>
      <trkpt lat="44.44718" lon="6.87934">
        <ele>2317.8</ele>
        <time>2022-08-16T06:32:51Z</time>
      </trkpt>
      <trkpt lat="44.44718" lon="6.87932">
        <ele>2318</ele>
        <time>2022-08-16T06:32:52Z</time>
      </trkpt>
      <trkpt lat="44.44717" lon="6.87931">
        <ele>2318</ele>
        <time>2022-08-16T06:32:53Z</time>
      </trkpt>
      <trkpt lat="44.44717" lon="6.87929">
        <ele>2318.4</ele>
        <time>2022-08-16T06:32:54Z</time>
      </trkpt>
      <trkpt lat="44.44716" lon="6.87927">
        <ele>2318.4</ele>
        <time>2022-08-16T06:32:55Z</time>
      </trkpt>
      <trkpt lat="44.44716" lon="6.87925">
        <ele>2318.4</ele>
        <time>2022-08-16T06:32:56Z</time>
      </trkpt>
      <trkpt lat="44.44715" lon="6.87923">
        <ele>2318.6</ele>
        <time>2022-08-16T06:32:57Z</time>
      </trkpt>
      <trkpt lat="44.44715" lon="6.87921">
        <ele>2319</ele>
        <time>2022-08-16T06:32:58Z</time>
      </trkpt>
      <trkpt lat="44.44715" lon="6.87919">
        <ele>2319.2</ele>
        <time>2022-08-16T06:32:59Z</time>
      </trkpt>
      <trkpt lat="44.44715" lon="6.87918">
        <ele>2319.2</ele>
        <time>2022-08-16T06:33:00Z</time>
      </trkpt>
      <trkpt lat="44.44714" lon="6.87916">
        <ele>2319.6</ele>
        <time>2022-08-16T06:33:01Z</time>
      </trkpt>
      <trkpt lat="44.44714" lon="6.87913">
        <ele>2319.6</ele>
        <time>2022-08-16T06:33:02Z</time>
      </trkpt>
      <trkpt lat="44.44714" lon="6.87911">
        <ele>2319.6</ele>
        <time>2022-08-16T06:33:03Z</time>
      </trkpt>
      <trkpt lat="44.44714" lon="6.87909">
        <ele>2320</ele>
        <time>2022-08-16T06:33:04Z</time>
      </trkpt>
      <trkpt lat="44.44713" lon="6.87908">
        <ele>2320</ele>
        <time>2022-08-16T06:33:05Z</time>
      </trkpt>
      <trkpt lat="44.44713" lon="6.87906">
        <ele>2320.4</ele>
        <time>2022-08-16T06:33:06Z</time>
      </trkpt>
      <trkpt lat="44.44713" lon="6.87904">
        <ele>2320.4</ele>
        <time>2022-08-16T06:33:07Z</time>
      </trkpt>
      <trkpt lat="44.44713" lon="6.87902">
        <ele>2320.6</ele>
        <time>2022-08-16T06:33:08Z</time>
      </trkpt>
      <trkpt lat="44.44713" lon="6.879">
        <ele>2320.8</ele>
        <time>2022-08-16T06:33:09Z</time>
      </trkpt>
      <trkpt lat="44.44713" lon="6.87898">
        <ele>2320.8</ele>
        <time>2022-08-16T06:33:10Z</time>
      </trkpt>
      <trkpt lat="44.44713" lon="6.87896">
        <ele>2320.6</ele>
        <time>2022-08-16T06:33:11Z</time>
      </trkpt>
      <trkpt lat="44.44713" lon="6.87894">
        <ele>2320.8</ele>
        <time>2022-08-16T06:33:12Z</time>
      </trkpt>
      <trkpt lat="44.44713" lon="6.87892">
        <ele>2320.8</ele>
        <time>2022-08-16T06:33:13Z</time>
      </trkpt>
      <trkpt lat="44.44713" lon="6.8789">
        <ele>2321</ele>
        <time>2022-08-16T06:33:14Z</time>
      </trkpt>
      <trkpt lat="44.44713" lon="6.87889">
        <ele>2321.2</ele>
        <time>2022-08-16T06:33:15Z</time>
      </trkpt>
      <trkpt lat="44.44712" lon="6.87887">
        <ele>2321.2</ele>
        <time>2022-08-16T06:33:16Z</time>
      </trkpt>
      <trkpt lat="44.44712" lon="6.87886">
        <ele>2321.4</ele>
        <time>2022-08-16T06:33:17Z</time>
      </trkpt>
      <trkpt lat="44.44712" lon="6.87884">
        <ele>2321.4</ele>
        <time>2022-08-16T06:33:18Z</time>
      </trkpt>
      <trkpt lat="44.44712" lon="6.87883">
        <ele>2321.4</ele>
        <time>2022-08-16T06:33:19Z</time>
      </trkpt>
      <trkpt lat="44.44712" lon="6.87881">
        <ele>2321.6</ele>
        <time>2022-08-16T06:33:20Z</time>
      </trkpt>
      <trkpt lat="44.44712" lon="6.87879">
        <ele>2321.6</ele>
        <time>2022-08-16T06:33:21Z</time>
      </trkpt>
      <trkpt lat="44.44712" lon="6.87877">
        <ele>2322</ele>
        <time>2022-08-16T06:33:22Z</time>
      </trkpt>
      <trkpt lat="44.44712" lon="6.87875">
        <ele>2322</ele>
        <time>2022-08-16T06:33:23Z</time>
      </trkpt>
      <trkpt lat="44.44711" lon="6.87873">
        <ele>2322</ele>
        <time>2022-08-16T06:33:24Z</time>
      </trkpt>
      <trkpt lat="44.44711" lon="6.87871">
        <ele>2322.2</ele>
        <time>2022-08-16T06:33:25Z</time>
      </trkpt>
      <trkpt lat="44.44711" lon="6.87869">
        <ele>2322.2</ele>
        <time>2022-08-16T06:33:26Z</time>
      </trkpt>
      <trkpt lat="44.44711" lon="6.87868">
        <ele>2322.2</ele>
        <time>2022-08-16T06:33:27Z</time>
      </trkpt>
      <trkpt lat="44.4471" lon="6.87867">
        <ele>2322.4</ele>
        <time>2022-08-16T06:33:28Z</time>
      </trkpt>
      <trkpt lat="44.4471" lon="6.87865">
        <ele>2322.6</ele>
        <time>2022-08-16T06:33:29Z</time>
      </trkpt>
      <trkpt lat="44.44709" lon="6.87863">
        <ele>2322.8</ele>
        <time>2022-08-16T06:33:30Z</time>
      </trkpt>
      <trkpt lat="44.44708" lon="6.87862">
        <ele>2323</ele>
        <time>2022-08-16T06:33:31Z</time>
      </trkpt>
      <trkpt lat="44.44708" lon="6.8786">
        <ele>2323</ele>
        <time>2022-08-16T06:33:32Z</time>
      </trkpt>
      <trkpt lat="44.44707" lon="6.87858">
        <ele>2323</ele>
        <time>2022-08-16T06:33:33Z</time>
      </trkpt>
      <trkpt lat="44.44707" lon="6.87857">
        <ele>2323.2</ele>
        <time>2022-08-16T06:33:34Z</time>
      </trkpt>
      <trkpt lat="44.44706" lon="6.87855">
        <ele>2323.4</ele>
        <time>2022-08-16T06:33:35Z</time>
      </trkpt>
      <trkpt lat="44.44705" lon="6.87853">
        <ele>2323.4</ele>
        <time>2022-08-16T06:33:36Z</time>
      </trkpt>
      <trkpt lat="44.44705" lon="6.87852">
        <ele>2323.6</ele>
        <time>2022-08-16T06:33:37Z</time>
      </trkpt>
      <trkpt lat="44.44704" lon="6.8785">
        <ele>2323.8</ele>
        <time>2022-08-16T06:33:38Z</time>
      </trkpt>
      <trkpt lat="44.44704" lon="6.87849">
        <ele>2323.8</ele>
        <time>2022-08-16T06:33:39Z</time>
      </trkpt>
      <trkpt lat="44.44703" lon="6.87847">
        <ele>2324.2</ele>
        <time>2022-08-16T06:33:40Z</time>
      </trkpt>
      <trkpt lat="44.44702" lon="6.87846">
        <ele>2324.4</ele>
        <time>2022-08-16T06:33:41Z</time>
      </trkpt>
      <trkpt lat="44.44702" lon="6.87844">
        <ele>2324.6</ele>
        <time>2022-08-16T06:33:42Z</time>
      </trkpt>
      <trkpt lat="44.44701" lon="6.87842">
        <ele>2324.8</ele>
        <time>2022-08-16T06:33:43Z</time>
      </trkpt>
      <trkpt lat="44.447" lon="6.87841">
        <ele>2324.8</ele>
        <time>2022-08-16T06:33:44Z</time>
      </trkpt>
      <trkpt lat="44.447" lon="6.87839">
        <ele>2324.8</ele>
        <time>2022-08-16T06:33:45Z</time>
      </trkpt>
      <trkpt lat="44.44699" lon="6.87837">
        <ele>2325</ele>
        <time>2022-08-16T06:33:46Z</time>
      </trkpt>
      <trkpt lat="44.44699" lon="6.87836">
        <ele>2325</ele>
        <time>2022-08-16T06:33:47Z</time>
      </trkpt>
      <trkpt lat="44.44698" lon="6.87834">
        <ele>2325</ele>
        <time>2022-08-16T06:33:48Z</time>
      </trkpt>
      <trkpt lat="44.44697" lon="6.87832">
        <ele>2325.2</ele>
        <time>2022-08-16T06:33:49Z</time>
      </trkpt>
      <trkpt lat="44.44697" lon="6.87831">
        <ele>2325.2</ele>
        <time>2022-08-16T06:33:50Z</time>
      </trkpt>
      <trkpt lat="44.44696" lon="6.87829">
        <ele>2325.4</ele>
        <time>2022-08-16T06:33:51Z</time>
      </trkpt>
      <trkpt lat="44.44695" lon="6.87827">
        <ele>2325.4</ele>
        <time>2022-08-16T06:33:52Z</time>
      </trkpt>
      <trkpt lat="44.44694" lon="6.87825">
        <ele>2325.4</ele>
        <time>2022-08-16T06:33:53Z</time>
      </trkpt>
      <trkpt lat="44.44694" lon="6.87823">
        <ele>2325.6</ele>
        <time>2022-08-16T06:33:54Z</time>
      </trkpt>
      <trkpt lat="44.44693" lon="6.87822">
        <ele>2325.6</ele>
        <time>2022-08-16T06:33:55Z</time>
      </trkpt>
      <trkpt lat="44.44693" lon="6.8782">
        <ele>2325.6</ele>
        <time>2022-08-16T06:33:56Z</time>
      </trkpt>
      <trkpt lat="44.44692" lon="6.87818">
        <ele>2325.8</ele>
        <time>2022-08-16T06:33:57Z</time>
      </trkpt>
      <trkpt lat="44.44691" lon="6.87816">
        <ele>2325.8</ele>
        <time>2022-08-16T06:33:58Z</time>
      </trkpt>
      <trkpt lat="44.44691" lon="6.87815">
        <ele>2325.8</ele>
        <time>2022-08-16T06:33:59Z</time>
      </trkpt>
      <trkpt lat="44.4469" lon="6.87813">
        <ele>2326</ele>
        <time>2022-08-16T06:34:00Z</time>
      </trkpt>
      <trkpt lat="44.4469" lon="6.87811">
        <ele>2326.2</ele>
        <time>2022-08-16T06:34:01Z</time>
      </trkpt>
      <trkpt lat="44.44689" lon="6.87809">
        <ele>2326.2</ele>
        <time>2022-08-16T06:34:02Z</time>
      </trkpt>
      <trkpt lat="44.44689" lon="6.87807">
        <ele>2326.4</ele>
        <time>2022-08-16T06:34:03Z</time>
      </trkpt>
      <trkpt lat="44.44688" lon="6.87805">
        <ele>2326.4</ele>
        <time>2022-08-16T06:34:04Z</time>
      </trkpt>
      <trkpt lat="44.44687" lon="6.87802">
        <ele>2326.6</ele>
        <time>2022-08-16T06:34:06Z</time>
      </trkpt>
      <trkpt lat="44.44687" lon="6.878">
        <ele>2326.8</ele>
        <time>2022-08-16T06:34:07Z</time>
      </trkpt>
      <trkpt lat="44.44686" lon="6.87799">
        <ele>2326.8</ele>
        <time>2022-08-16T06:34:08Z</time>
      </trkpt>
      <trkpt lat="44.44686" lon="6.87797">
        <ele>2327</ele>
        <time>2022-08-16T06:34:09Z</time>
      </trkpt>
      <trkpt lat="44.44685" lon="6.87784">
        <ele>2327.2</ele>
        <time>2022-08-16T06:34:15Z</time>
      </trkpt>
      <trkpt lat="44.44684" lon="6.87781">
        <ele>2327.6</ele>
        <time>2022-08-16T06:34:16Z</time>
      </trkpt>
      <trkpt lat="44.44686" lon="6.8776">
        <ele>2327.8</ele>
        <time>2022-08-16T06:34:23Z</time>
      </trkpt>
      <trkpt lat="44.44693" lon="6.87732">
        <ele>2327.6</ele>
        <time>2022-08-16T06:34:30Z</time>
      </trkpt>
      <trkpt lat="44.44695" lon="6.87727">
        <ele>2327.6</ele>
        <time>2022-08-16T06:34:31Z</time>
      </trkpt>
      <trkpt lat="44.44704" lon="6.877">
        <ele>2327.4</ele>
        <time>2022-08-16T06:34:36Z</time>
      </trkpt>
      <trkpt lat="44.44706" lon="6.87694">
        <ele>2327.4</ele>
        <time>2022-08-16T06:34:37Z</time>
      </trkpt>
      <trkpt lat="44.44708" lon="6.87688">
        <ele>2327.2</ele>
        <time>2022-08-16T06:34:38Z</time>
      </trkpt>
      <trkpt lat="44.4472" lon="6.87654">
        <ele>2325.8</ele>
        <time>2022-08-16T06:34:43Z</time>
      </trkpt>
      <trkpt lat="44.44723" lon="6.87648">
        <ele>2325.8</ele>
        <time>2022-08-16T06:34:44Z</time>
      </trkpt>
      <trkpt lat="44.44733" lon="6.87627">
        <ele>2324.8</ele>
        <time>2022-08-16T06:34:47Z</time>
      </trkpt>
      <trkpt lat="44.44741" lon="6.87614">
        <ele>2324.2</ele>
        <time>2022-08-16T06:34:49Z</time>
      </trkpt>
      <trkpt lat="44.44744" lon="6.87607">
        <ele>2324</ele>
        <time>2022-08-16T06:34:50Z</time>
      </trkpt>
      <trkpt lat="44.44748" lon="6.87602">
        <ele>2323.4</ele>
        <time>2022-08-16T06:34:51Z</time>
      </trkpt>
      <trkpt lat="44.44752" lon="6.87597">
        <ele>2323</ele>
        <time>2022-08-16T06:34:52Z</time>
      </trkpt>
      <trkpt lat="44.44756" lon="6.87592">
        <ele>2322.4</ele>
        <time>2022-08-16T06:34:53Z</time>
      </trkpt>
      <trkpt lat="44.44759" lon="6.87586">
        <ele>2322.2</ele>
        <time>2022-08-16T06:34:54Z</time>
      </trkpt>
      <trkpt lat="44.44763" lon="6.87581">
        <ele>2322</ele>
        <time>2022-08-16T06:34:55Z</time>
      </trkpt>
      <trkpt lat="44.44766" lon="6.87576">
        <ele>2321.4</ele>
        <time>2022-08-16T06:34:56Z</time>
      </trkpt>
      <trkpt lat="44.4477" lon="6.87571">
        <ele>2321</ele>
        <time>2022-08-16T06:34:57Z</time>
      </trkpt>
      <trkpt lat="44.44773" lon="6.87566">
        <ele>2320.8</ele>
        <time>2022-08-16T06:34:58Z</time>
      </trkpt>
      <trkpt lat="44.44777" lon="6.87562">
        <ele>2320.4</ele>
        <time>2022-08-16T06:34:59Z</time>
      </trkpt>
      <trkpt lat="44.4478" lon="6.87558">
        <ele>2320.2</ele>
        <time>2022-08-16T06:35:00Z</time>
      </trkpt>
      <trkpt lat="44.44783" lon="6.87555">
        <ele>2320.2</ele>
        <time>2022-08-16T06:35:01Z</time>
      </trkpt>
      <trkpt lat="44.44785" lon="6.87553">
        <ele>2320</ele>
        <time>2022-08-16T06:35:02Z</time>
      </trkpt>
      <trkpt lat="44.44786" lon="6.87551">
        <ele>2320</ele>
        <time>2022-08-16T06:35:03Z</time>
      </trkpt>
      <trkpt lat="44.44787" lon="6.87549">
        <ele>2319.6</ele>
        <time>2022-08-16T06:35:04Z</time>
      </trkpt>
      <trkpt lat="44.44789" lon="6.87548">
        <ele>2319.2</ele>
        <time>2022-08-16T06:35:05Z</time>
      </trkpt>
      <trkpt lat="44.44789" lon="6.87547">
        <ele>2319.2</ele>
        <time>2022-08-16T06:35:06Z</time>
      </trkpt>
      <trkpt lat="44.44789" lon="6.87547">
        <ele>2318.8</ele>
        <time>2022-08-16T06:35:08Z</time>
      </trkpt>
      <trkpt lat="44.44789" lon="6.87547">
        <ele>2318.4</ele>
        <time>2022-08-16T06:35:22Z</time>
      </trkpt>
      <trkpt lat="44.44789" lon="6.87547">
        <ele>2318.2</ele>
        <time>2022-08-16T06:35:34Z</time>
      </trkpt>
      <trkpt lat="44.44789" lon="6.87547">
        <ele>2318.4</ele>
        <time>2022-08-16T06:35:42Z</time>
      </trkpt>
      <trkpt lat="44.44789" lon="6.87547">
        <ele>2318.4</ele>
        <time>2022-08-16T06:35:45Z</time>
      </trkpt>
      <trkpt lat="44.44789" lon="6.87547">
        <ele>2319</ele>
        <time>2022-08-16T06:35:58Z</time>
      </trkpt>
      <trkpt lat="44.44789" lon="6.87547">
        <ele>2319</ele>
        <time>2022-08-16T06:36:06Z</time>
      </trkpt>
      <trkpt lat="44.44789" lon="6.87547">
        <ele>2319</ele>
        <time>2022-08-16T06:36:17Z</time>
      </trkpt>
      <trkpt lat="44.44788" lon="6.87547">
        <ele>2319</ele>
        <time>2022-08-16T06:36:27Z</time>
      </trkpt>
      <trkpt lat="44.44788" lon="6.87547">
        <ele>2319</ele>
        <time>2022-08-16T06:36:44Z</time>
      </trkpt>
      <trkpt lat="44.44789" lon="6.87546">
        <ele>2318.8</ele>
        <time>2022-08-16T06:36:56Z</time>
      </trkpt>
      <trkpt lat="44.4479" lon="6.87546">
        <ele>2319</ele>
        <time>2022-08-16T06:36:57Z</time>
      </trkpt>
      <trkpt lat="44.44791" lon="6.87544">
        <ele>2318.8</ele>
        <time>2022-08-16T06:36:58Z</time>
      </trkpt>
      <trkpt lat="44.44802" lon="6.87537">
        <ele>2319</ele>
        <time>2022-08-16T06:37:02Z</time>
      </trkpt>
      <trkpt lat="44.44805" lon="6.87535">
        <ele>2318.8</ele>
        <time>2022-08-16T06:37:03Z</time>
      </trkpt>
      <trkpt lat="44.44812" lon="6.8753">
        <ele>2318.8</ele>
        <time>2022-08-16T06:37:05Z</time>
      </trkpt>
      <trkpt lat="44.44821" lon="6.87524">
        <ele>2318.8</ele>
        <time>2022-08-16T06:37:07Z</time>
      </trkpt>
      <trkpt lat="44.4483" lon="6.87519">
        <ele>2318.6</ele>
        <time>2022-08-16T06:37:09Z</time>
      </trkpt>
      <trkpt lat="44.44834" lon="6.87516">
        <ele>2318.2</ele>
        <time>2022-08-16T06:37:10Z</time>
      </trkpt>
      <trkpt lat="44.44848" lon="6.8751">
        <ele>2317.4</ele>
        <time>2022-08-16T06:37:13Z</time>
      </trkpt>
      <trkpt lat="44.44853" lon="6.87509">
        <ele>2317.2</ele>
        <time>2022-08-16T06:37:14Z</time>
      </trkpt>
      <trkpt lat="44.44857" lon="6.87508">
        <ele>2316.6</ele>
        <time>2022-08-16T06:37:15Z</time>
      </trkpt>
      <trkpt lat="44.44862" lon="6.87507">
        <ele>2316</ele>
        <time>2022-08-16T06:37:16Z</time>
      </trkpt>
      <trkpt lat="44.44871" lon="6.87506">
        <ele>2315.4</ele>
        <time>2022-08-16T06:37:18Z</time>
      </trkpt>
      <trkpt lat="44.44875" lon="6.87506">
        <ele>2315.4</ele>
        <time>2022-08-16T06:37:19Z</time>
      </trkpt>
      <trkpt lat="44.4488" lon="6.87507">
        <ele>2315.4</ele>
        <time>2022-08-16T06:37:20Z</time>
      </trkpt>
      <trkpt lat="44.44884" lon="6.87507">
        <ele>2315.2</ele>
        <time>2022-08-16T06:37:21Z</time>
      </trkpt>
      <trkpt lat="44.44893" lon="6.87507">
        <ele>2314.8</ele>
        <time>2022-08-16T06:37:23Z</time>
      </trkpt>
      <trkpt lat="44.44897" lon="6.87507">
        <ele>2314.8</ele>
        <time>2022-08-16T06:37:24Z</time>
      </trkpt>
      <trkpt lat="44.44901" lon="6.87507">
        <ele>2314.6</ele>
        <time>2022-08-16T06:37:25Z</time>
      </trkpt>
      <trkpt lat="44.44914" lon="6.87504">
        <ele>2314.6</ele>
        <time>2022-08-16T06:37:28Z</time>
      </trkpt>
      <trkpt lat="44.44923" lon="6.875">
        <ele>2314.4</ele>
        <time>2022-08-16T06:37:30Z</time>
      </trkpt>
      <trkpt lat="44.44928" lon="6.87496">
        <ele>2314.4</ele>
        <time>2022-08-16T06:37:31Z</time>
      </trkpt>
      <trkpt lat="44.44936" lon="6.87485">
        <ele>2314.4</ele>
        <time>2022-08-16T06:37:33Z</time>
      </trkpt>
      <trkpt lat="44.44939" lon="6.87478">
        <ele>2314.2</ele>
        <time>2022-08-16T06:37:34Z</time>
      </trkpt>
      <trkpt lat="44.44942" lon="6.8747">
        <ele>2314.2</ele>
        <time>2022-08-16T06:37:35Z</time>
      </trkpt>
      <trkpt lat="44.44948" lon="6.87453">
        <ele>2314</ele>
        <time>2022-08-16T06:37:37Z</time>
      </trkpt>
      <trkpt lat="44.44953" lon="6.87435">
        <ele>2313.2</ele>
        <time>2022-08-16T06:37:39Z</time>
      </trkpt>
      <trkpt lat="44.44961" lon="6.87407">
        <ele>2312.4</ele>
        <time>2022-08-16T06:37:42Z</time>
      </trkpt>
      <trkpt lat="44.44966" lon="6.87387">
        <ele>2311.2</ele>
        <time>2022-08-16T06:37:44Z</time>
      </trkpt>
      <trkpt lat="44.44969" lon="6.87377">
        <ele>2310.8</ele>
        <time>2022-08-16T06:37:45Z</time>
      </trkpt>
      <trkpt lat="44.44971" lon="6.87366">
        <ele>2310.4</ele>
        <time>2022-08-16T06:37:46Z</time>
      </trkpt>
      <trkpt lat="44.44972" lon="6.87356">
        <ele>2310</ele>
        <time>2022-08-16T06:37:47Z</time>
      </trkpt>
      <trkpt lat="44.44974" lon="6.87347">
        <ele>2310</ele>
        <time>2022-08-16T06:37:48Z</time>
      </trkpt>
      <trkpt lat="44.44977" lon="6.87327">
        <ele>2308.8</ele>
        <time>2022-08-16T06:37:50Z</time>
      </trkpt>
      <trkpt lat="44.4498" lon="6.87317">
        <ele>2308.4</ele>
        <time>2022-08-16T06:37:51Z</time>
      </trkpt>
      <trkpt lat="44.44986" lon="6.87299">
        <ele>2307.2</ele>
        <time>2022-08-16T06:37:53Z</time>
      </trkpt>
      <trkpt lat="44.44993" lon="6.87282">
        <ele>2306.2</ele>
        <time>2022-08-16T06:37:55Z</time>
      </trkpt>
      <trkpt lat="44.45003" lon="6.87267">
        <ele>2305.4</ele>
        <time>2022-08-16T06:37:57Z</time>
      </trkpt>
      <trkpt lat="44.45008" lon="6.87259">
        <ele>2305.2</ele>
        <time>2022-08-16T06:37:58Z</time>
      </trkpt>
      <trkpt lat="44.45013" lon="6.87251">
        <ele>2305</ele>
        <time>2022-08-16T06:37:59Z</time>
      </trkpt>
      <trkpt lat="44.45017" lon="6.87242">
        <ele>2304.4</ele>
        <time>2022-08-16T06:38:00Z</time>
      </trkpt>
      <trkpt lat="44.45021" lon="6.87235">
        <ele>2303.8</ele>
        <time>2022-08-16T06:38:01Z</time>
      </trkpt>
      <trkpt lat="44.45025" lon="6.87228">
        <ele>2302.8</ele>
        <time>2022-08-16T06:38:02Z</time>
      </trkpt>
      <trkpt lat="44.4503" lon="6.87222">
        <ele>2302.2</ele>
        <time>2022-08-16T06:38:03Z</time>
      </trkpt>
      <trkpt lat="44.45033" lon="6.87217">
        <ele>2302</ele>
        <time>2022-08-16T06:38:04Z</time>
      </trkpt>
      <trkpt lat="44.45034" lon="6.87215">
        <ele>2301.6</ele>
        <time>2022-08-16T06:38:05Z</time>
      </trkpt>
      <trkpt lat="44.45035" lon="6.87215">
        <ele>2300.6</ele>
        <time>2022-08-16T06:38:07Z</time>
      </trkpt>
      <trkpt lat="44.45036" lon="6.87212">
        <ele>2299.4</ele>
        <time>2022-08-16T06:38:23Z</time>
      </trkpt>
      <trkpt lat="44.45038" lon="6.8721">
        <ele>2299.4</ele>
        <time>2022-08-16T06:38:24Z</time>
      </trkpt>
      <trkpt lat="44.4504" lon="6.87208">
        <ele>2299.4</ele>
        <time>2022-08-16T06:38:25Z</time>
      </trkpt>
      <trkpt lat="44.45044" lon="6.872">
        <ele>2299.2</ele>
        <time>2022-08-16T06:38:27Z</time>
      </trkpt>
      <trkpt lat="44.45047" lon="6.87196">
        <ele>2299.4</ele>
        <time>2022-08-16T06:38:28Z</time>
      </trkpt>
      <trkpt lat="44.45056" lon="6.87183">
        <ele>2299.2</ele>
        <time>2022-08-16T06:38:31Z</time>
      </trkpt>
      <trkpt lat="44.45058" lon="6.87179">
        <ele>2299</ele>
        <time>2022-08-16T06:38:32Z</time>
      </trkpt>
      <trkpt lat="44.45061" lon="6.87174">
        <ele>2298.4</ele>
        <time>2022-08-16T06:38:33Z</time>
      </trkpt>
      <trkpt lat="44.45063" lon="6.8717">
        <ele>2298</ele>
        <time>2022-08-16T06:38:34Z</time>
      </trkpt>
      <trkpt lat="44.45065" lon="6.87167">
        <ele>2297.8</ele>
        <time>2022-08-16T06:38:35Z</time>
      </trkpt>
      <trkpt lat="44.45067" lon="6.87165">
        <ele>2297.8</ele>
        <time>2022-08-16T06:38:36Z</time>
      </trkpt>
      <trkpt lat="44.45069" lon="6.87163">
        <ele>2297.4</ele>
        <time>2022-08-16T06:38:37Z</time>
      </trkpt>
      <trkpt lat="44.45072" lon="6.87159">
        <ele>2296.8</ele>
        <time>2022-08-16T06:38:38Z</time>
      </trkpt>
      <trkpt lat="44.45078" lon="6.87152">
        <ele>2296.2</ele>
        <time>2022-08-16T06:38:40Z</time>
      </trkpt>
      <trkpt lat="44.45086" lon="6.87144">
        <ele>2295</ele>
        <time>2022-08-16T06:38:42Z</time>
      </trkpt>
      <trkpt lat="44.4509" lon="6.87139">
        <ele>2294.6</ele>
        <time>2022-08-16T06:38:43Z</time>
      </trkpt>
      <trkpt lat="44.451" lon="6.87127">
        <ele>2294</ele>
        <time>2022-08-16T06:38:45Z</time>
      </trkpt>
      <trkpt lat="44.45112" lon="6.87115">
        <ele>2293.2</ele>
        <time>2022-08-16T06:38:47Z</time>
      </trkpt>
      <trkpt lat="44.45119" lon="6.87108">
        <ele>2292.8</ele>
        <time>2022-08-16T06:38:48Z</time>
      </trkpt>
      <trkpt lat="44.45125" lon="6.87101">
        <ele>2292</ele>
        <time>2022-08-16T06:38:49Z</time>
      </trkpt>
      <trkpt lat="44.45146" lon="6.87079">
        <ele>2290.4</ele>
        <time>2022-08-16T06:38:52Z</time>
      </trkpt>
      <trkpt lat="44.4516" lon="6.87064">
        <ele>2289.2</ele>
        <time>2022-08-16T06:38:54Z</time>
      </trkpt>
      <trkpt lat="44.45167" lon="6.87055">
        <ele>2288.4</ele>
        <time>2022-08-16T06:38:55Z</time>
      </trkpt>
      <trkpt lat="44.45173" lon="6.87044">
        <ele>2287.8</ele>
        <time>2022-08-16T06:38:56Z</time>
      </trkpt>
      <trkpt lat="44.45179" lon="6.87033">
        <ele>2286.4</ele>
        <time>2022-08-16T06:38:57Z</time>
      </trkpt>
      <trkpt lat="44.45194" lon="6.86997">
        <ele>2284.2</ele>
        <time>2022-08-16T06:39:00Z</time>
      </trkpt>
      <trkpt lat="44.45199" lon="6.86983">
        <ele>2283.4</ele>
        <time>2022-08-16T06:39:01Z</time>
      </trkpt>
      <trkpt lat="44.45203" lon="6.8697">
        <ele>2282.4</ele>
        <time>2022-08-16T06:39:02Z</time>
      </trkpt>
      <trkpt lat="44.45208" lon="6.86956">
        <ele>2281.4</ele>
        <time>2022-08-16T06:39:03Z</time>
      </trkpt>
      <trkpt lat="44.45219" lon="6.86912">
        <ele>2277.8</ele>
        <time>2022-08-16T06:39:06Z</time>
      </trkpt>
      <trkpt lat="44.45222" lon="6.86897">
        <ele>2276</ele>
        <time>2022-08-16T06:39:07Z</time>
      </trkpt>
      <trkpt lat="44.45224" lon="6.86882">
        <ele>2274.8</ele>
        <time>2022-08-16T06:39:08Z</time>
      </trkpt>
      <trkpt lat="44.45225" lon="6.86868">
        <ele>2274</ele>
        <time>2022-08-16T06:39:09Z</time>
      </trkpt>
      <trkpt lat="44.45226" lon="6.86855">
        <ele>2272.2</ele>
        <time>2022-08-16T06:39:10Z</time>
      </trkpt>
      <trkpt lat="44.45227" lon="6.86841">
        <ele>2270.2</ele>
        <time>2022-08-16T06:39:11Z</time>
      </trkpt>
      <trkpt lat="44.45228" lon="6.86828">
        <ele>2268.6</ele>
        <time>2022-08-16T06:39:12Z</time>
      </trkpt>
      <trkpt lat="44.45229" lon="6.86815">
        <ele>2267.4</ele>
        <time>2022-08-16T06:39:13Z</time>
      </trkpt>
      <trkpt lat="44.45231" lon="6.86801">
        <ele>2266.8</ele>
        <time>2022-08-16T06:39:14Z</time>
      </trkpt>
      <trkpt lat="44.45233" lon="6.86787">
        <ele>2266.4</ele>
        <time>2022-08-16T06:39:15Z</time>
      </trkpt>
      <trkpt lat="44.45237" lon="6.86775">
        <ele>2265</ele>
        <time>2022-08-16T06:39:16Z</time>
      </trkpt>
      <trkpt lat="44.45241" lon="6.86762">
        <ele>2264</ele>
        <time>2022-08-16T06:39:17Z</time>
      </trkpt>
      <trkpt lat="44.45246" lon="6.86751">
        <ele>2263.4</ele>
        <time>2022-08-16T06:39:18Z</time>
      </trkpt>
      <trkpt lat="44.45252" lon="6.8674">
        <ele>2262.2</ele>
        <time>2022-08-16T06:39:19Z</time>
      </trkpt>
      <trkpt lat="44.45258" lon="6.86729">
        <ele>2260.6</ele>
        <time>2022-08-16T06:39:20Z</time>
      </trkpt>
      <trkpt lat="44.45264" lon="6.86718">
        <ele>2259.8</ele>
        <time>2022-08-16T06:39:21Z</time>
      </trkpt>
      <trkpt lat="44.45271" lon="6.86707">
        <ele>2258.4</ele>
        <time>2022-08-16T06:39:22Z</time>
      </trkpt>
      <trkpt lat="44.45293" lon="6.86675">
        <ele>2256.6</ele>
        <time>2022-08-16T06:39:25Z</time>
      </trkpt>
      <trkpt lat="44.45301" lon="6.86665">
        <ele>2255.8</ele>
        <time>2022-08-16T06:39:26Z</time>
      </trkpt>
      <trkpt lat="44.45309" lon="6.86657">
        <ele>2255</ele>
        <time>2022-08-16T06:39:27Z</time>
      </trkpt>
      <trkpt lat="44.45316" lon="6.8665">
        <ele>2253.6</ele>
        <time>2022-08-16T06:39:28Z</time>
      </trkpt>
      <trkpt lat="44.45323" lon="6.86646">
        <ele>2252.2</ele>
        <time>2022-08-16T06:39:29Z</time>
      </trkpt>
      <trkpt lat="44.4533" lon="6.86643">
        <ele>2251.2</ele>
        <time>2022-08-16T06:39:30Z</time>
      </trkpt>
      <trkpt lat="44.45337" lon="6.86641">
        <ele>2249.6</ele>
        <time>2022-08-16T06:39:31Z</time>
      </trkpt>
      <trkpt lat="44.45342" lon="6.86639">
        <ele>2248.2</ele>
        <time>2022-08-16T06:39:32Z</time>
      </trkpt>
      <trkpt lat="44.45346" lon="6.86637">
        <ele>2247</ele>
        <time>2022-08-16T06:39:33Z</time>
      </trkpt>
      <trkpt lat="44.45351" lon="6.86636">
        <ele>2246</ele>
        <time>2022-08-16T06:39:34Z</time>
      </trkpt>
      <trkpt lat="44.45367" lon="6.86631">
        <ele>2244</ele>
        <time>2022-08-16T06:39:37Z</time>
      </trkpt>
      <trkpt lat="44.45379" lon="6.86625">
        <ele>2243.6</ele>
        <time>2022-08-16T06:39:39Z</time>
      </trkpt>
      <trkpt lat="44.45391" lon="6.86617">
        <ele>2242</ele>
        <time>2022-08-16T06:39:41Z</time>
      </trkpt>
      <trkpt lat="44.45397" lon="6.86612">
        <ele>2241.4</ele>
        <time>2022-08-16T06:39:42Z</time>
      </trkpt>
      <trkpt lat="44.45402" lon="6.86608">
        <ele>2241</ele>
        <time>2022-08-16T06:39:43Z</time>
      </trkpt>
      <trkpt lat="44.45406" lon="6.86605">
        <ele>2240.4</ele>
        <time>2022-08-16T06:39:44Z</time>
      </trkpt>
      <trkpt lat="44.4541" lon="6.86602">
        <ele>2240</ele>
        <time>2022-08-16T06:39:45Z</time>
      </trkpt>
      <trkpt lat="44.45414" lon="6.866">
        <ele>2240</ele>
        <time>2022-08-16T06:39:46Z</time>
      </trkpt>
      <trkpt lat="44.45418" lon="6.86599">
        <ele>2239.4</ele>
        <time>2022-08-16T06:39:47Z</time>
      </trkpt>
      <trkpt lat="44.45422" lon="6.866">
        <ele>2238.8</ele>
        <time>2022-08-16T06:39:48Z</time>
      </trkpt>
      <trkpt lat="44.45425" lon="6.86602">
        <ele>2237.2</ele>
        <time>2022-08-16T06:39:49Z</time>
      </trkpt>
      <trkpt lat="44.45428" lon="6.86604">
        <ele>2236.2</ele>
        <time>2022-08-16T06:39:50Z</time>
      </trkpt>
      <trkpt lat="44.45431" lon="6.86606">
        <ele>2236</ele>
        <time>2022-08-16T06:39:51Z</time>
      </trkpt>
      <trkpt lat="44.45433" lon="6.86609">
        <ele>2235.8</ele>
        <time>2022-08-16T06:39:52Z</time>
      </trkpt>
      <trkpt lat="44.45435" lon="6.8661">
        <ele>2235.6</ele>
        <time>2022-08-16T06:39:53Z</time>
      </trkpt>
      <trkpt lat="44.45438" lon="6.86612">
        <ele>2235.6</ele>
        <time>2022-08-16T06:39:54Z</time>
      </trkpt>
      <trkpt lat="44.4544" lon="6.86613">
        <ele>2235.6</ele>
        <time>2022-08-16T06:39:55Z</time>
      </trkpt>
      <trkpt lat="44.45442" lon="6.86614">
        <ele>2235.6</ele>
        <time>2022-08-16T06:39:56Z</time>
      </trkpt>
      <trkpt lat="44.45445" lon="6.86615">
        <ele>2235.6</ele>
        <time>2022-08-16T06:39:57Z</time>
      </trkpt>
      <trkpt lat="44.45459" lon="6.86616">
        <ele>2236</ele>
        <time>2022-08-16T06:40:02Z</time>
      </trkpt>
      <trkpt lat="44.45481" lon="6.86612">
        <ele>2236.2</ele>
        <time>2022-08-16T06:40:08Z</time>
      </trkpt>
      <trkpt lat="44.45485" lon="6.86611">
        <ele>2236.2</ele>
        <time>2022-08-16T06:40:09Z</time>
      </trkpt>
      <trkpt lat="44.45494" lon="6.86612">
        <ele>2236.2</ele>
        <time>2022-08-16T06:40:11Z</time>
      </trkpt>
      <trkpt lat="44.45497" lon="6.86613">
        <ele>2236.4</ele>
        <time>2022-08-16T06:40:12Z</time>
      </trkpt>
      <trkpt lat="44.45501" lon="6.86613">
        <ele>2236.2</ele>
        <time>2022-08-16T06:40:13Z</time>
      </trkpt>
      <trkpt lat="44.45504" lon="6.86613">
        <ele>2236.2</ele>
        <time>2022-08-16T06:40:14Z</time>
      </trkpt>
      <trkpt lat="44.45507" lon="6.86612">
        <ele>2236.2</ele>
        <time>2022-08-16T06:40:15Z</time>
      </trkpt>
      <trkpt lat="44.4552" lon="6.86607">
        <ele>2236</ele>
        <time>2022-08-16T06:40:19Z</time>
      </trkpt>
      <trkpt lat="44.45523" lon="6.86606">
        <ele>2236</ele>
        <time>2022-08-16T06:40:20Z</time>
      </trkpt>
      <trkpt lat="44.45526" lon="6.86605">
        <ele>2236</ele>
        <time>2022-08-16T06:40:21Z</time>
      </trkpt>
      <trkpt lat="44.45529" lon="6.86604">
        <ele>2235.8</ele>
        <time>2022-08-16T06:40:22Z</time>
      </trkpt>
      <trkpt lat="44.45532" lon="6.86604">
        <ele>2236</ele>
        <time>2022-08-16T06:40:23Z</time>
      </trkpt>
      <trkpt lat="44.45535" lon="6.86603">
        <ele>2235.8</ele>
        <time>2022-08-16T06:40:24Z</time>
      </trkpt>
      <trkpt lat="44.45538" lon="6.86602">
        <ele>2236</ele>
        <time>2022-08-16T06:40:25Z</time>
      </trkpt>
      <trkpt lat="44.4554" lon="6.86602">
        <ele>2236</ele>
        <time>2022-08-16T06:40:26Z</time>
      </trkpt>
      <trkpt lat="44.45543" lon="6.86602">
        <ele>2236</ele>
        <time>2022-08-16T06:40:27Z</time>
      </trkpt>
      <trkpt lat="44.45545" lon="6.86601">
        <ele>2236</ele>
        <time>2022-08-16T06:40:28Z</time>
      </trkpt>
      <trkpt lat="44.45548" lon="6.86601">
        <ele>2236.2</ele>
        <time>2022-08-16T06:40:29Z</time>
      </trkpt>
      <trkpt lat="44.4555" lon="6.86601">
        <ele>2236.2</ele>
        <time>2022-08-16T06:40:30Z</time>
      </trkpt>
      <trkpt lat="44.45552" lon="6.866">
        <ele>2236.2</ele>
        <time>2022-08-16T06:40:31Z</time>
      </trkpt>
      <trkpt lat="44.45554" lon="6.866">
        <ele>2236.2</ele>
        <time>2022-08-16T06:40:32Z</time>
      </trkpt>
      <trkpt lat="44.45556" lon="6.866">
        <ele>2236.2</ele>
        <time>2022-08-16T06:40:33Z</time>
      </trkpt>
      <trkpt lat="44.45558" lon="6.866">
        <ele>2236.4</ele>
        <time>2022-08-16T06:40:34Z</time>
      </trkpt>
      <trkpt lat="44.4556" lon="6.86599">
        <ele>2236.4</ele>
        <time>2022-08-16T06:40:35Z</time>
      </trkpt>
      <trkpt lat="44.45564" lon="6.86598">
        <ele>2236.8</ele>
        <time>2022-08-16T06:40:37Z</time>
      </trkpt>
      <trkpt lat="44.45574" lon="6.86589">
        <ele>2237.4</ele>
        <time>2022-08-16T06:40:42Z</time>
      </trkpt>
      <trkpt lat="44.45576" lon="6.86587">
        <ele>2237.6</ele>
        <time>2022-08-16T06:40:43Z</time>
      </trkpt>
      <trkpt lat="44.4559" lon="6.86568">
        <ele>2238</ele>
        <time>2022-08-16T06:40:50Z</time>
      </trkpt>
      <trkpt lat="44.45606" lon="6.86549">
        <ele>2238</ele>
        <time>2022-08-16T06:40:56Z</time>
      </trkpt>
      <trkpt lat="44.45609" lon="6.86546">
        <ele>2238</ele>
        <time>2022-08-16T06:40:57Z</time>
      </trkpt>
      <trkpt lat="44.45613" lon="6.86545">
        <ele>2238</ele>
        <time>2022-08-16T06:40:58Z</time>
      </trkpt>
      <trkpt lat="44.45617" lon="6.86544">
        <ele>2238</ele>
        <time>2022-08-16T06:40:59Z</time>
      </trkpt>
      <trkpt lat="44.45621" lon="6.86544">
        <ele>2237.8</ele>
        <time>2022-08-16T06:41:00Z</time>
      </trkpt>
      <trkpt lat="44.45625" lon="6.86544">
        <ele>2237.6</ele>
        <time>2022-08-16T06:41:01Z</time>
      </trkpt>
      <trkpt lat="44.45636" lon="6.86543">
        <ele>2237.4</ele>
        <time>2022-08-16T06:41:03Z</time>
      </trkpt>
      <trkpt lat="44.45648" lon="6.86542">
        <ele>2236.6</ele>
        <time>2022-08-16T06:41:07Z</time>
      </trkpt>
      <trkpt lat="44.45652" lon="6.86542">
        <ele>2236.6</ele>
        <time>2022-08-16T06:41:08Z</time>
      </trkpt>
      <trkpt lat="44.45655" lon="6.86541">
        <ele>2236.6</ele>
        <time>2022-08-16T06:41:09Z</time>
      </trkpt>
      <trkpt lat="44.45662" lon="6.86539">
        <ele>2236.4</ele>
        <time>2022-08-16T06:41:11Z</time>
      </trkpt>
      <trkpt lat="44.45666" lon="6.86537">
        <ele>2236.4</ele>
        <time>2022-08-16T06:41:12Z</time>
      </trkpt>
      <trkpt lat="44.45676" lon="6.86531">
        <ele>2236.2</ele>
        <time>2022-08-16T06:41:15Z</time>
      </trkpt>
      <trkpt lat="44.45679" lon="6.86528">
        <ele>2236</ele>
        <time>2022-08-16T06:41:16Z</time>
      </trkpt>
      <trkpt lat="44.45694" lon="6.86512">
        <ele>2236</ele>
        <time>2022-08-16T06:41:20Z</time>
      </trkpt>
      <trkpt lat="44.45698" lon="6.86508">
        <ele>2235.8</ele>
        <time>2022-08-16T06:41:21Z</time>
      </trkpt>
      <trkpt lat="44.45701" lon="6.86504">
        <ele>2236</ele>
        <time>2022-08-16T06:41:22Z</time>
      </trkpt>
      <trkpt lat="44.45704" lon="6.865">
        <ele>2235.8</ele>
        <time>2022-08-16T06:41:23Z</time>
      </trkpt>
      <trkpt lat="44.45706" lon="6.86497">
        <ele>2235.8</ele>
        <time>2022-08-16T06:41:24Z</time>
      </trkpt>
      <trkpt lat="44.45708" lon="6.86493">
        <ele>2235.6</ele>
        <time>2022-08-16T06:41:25Z</time>
      </trkpt>
      <trkpt lat="44.45711" lon="6.86489">
        <ele>2235.8</ele>
        <time>2022-08-16T06:41:26Z</time>
      </trkpt>
      <trkpt lat="44.45713" lon="6.86486">
        <ele>2235.8</ele>
        <time>2022-08-16T06:41:27Z</time>
      </trkpt>
      <trkpt lat="44.45714" lon="6.86483">
        <ele>2235.6</ele>
        <time>2022-08-16T06:41:28Z</time>
      </trkpt>
      <trkpt lat="44.45716" lon="6.86479">
        <ele>2235.6</ele>
        <time>2022-08-16T06:41:29Z</time>
      </trkpt>
      <trkpt lat="44.45718" lon="6.86476">
        <ele>2235.4</ele>
        <time>2022-08-16T06:41:30Z</time>
      </trkpt>
      <trkpt lat="44.45719" lon="6.86473">
        <ele>2235.6</ele>
        <time>2022-08-16T06:41:31Z</time>
      </trkpt>
      <trkpt lat="44.45723" lon="6.86466">
        <ele>2235.6</ele>
        <time>2022-08-16T06:41:33Z</time>
      </trkpt>
      <trkpt lat="44.45727" lon="6.86459">
        <ele>2235.8</ele>
        <time>2022-08-16T06:41:35Z</time>
      </trkpt>
      <trkpt lat="44.45728" lon="6.86456">
        <ele>2235.6</ele>
        <time>2022-08-16T06:41:36Z</time>
      </trkpt>
      <trkpt lat="44.4573" lon="6.86452">
        <ele>2235.6</ele>
        <time>2022-08-16T06:41:37Z</time>
      </trkpt>
      <trkpt lat="44.45732" lon="6.8645">
        <ele>2235.8</ele>
        <time>2022-08-16T06:41:38Z</time>
      </trkpt>
      <trkpt lat="44.45734" lon="6.86447">
        <ele>2235.8</ele>
        <time>2022-08-16T06:41:39Z</time>
      </trkpt>
      <trkpt lat="44.45736" lon="6.86444">
        <ele>2235.8</ele>
        <time>2022-08-16T06:41:40Z</time>
      </trkpt>
      <trkpt lat="44.45741" lon="6.8644">
        <ele>2235.8</ele>
        <time>2022-08-16T06:41:42Z</time>
      </trkpt>
      <trkpt lat="44.45751" lon="6.86431">
        <ele>2236.2</ele>
        <time>2022-08-16T06:41:46Z</time>
      </trkpt>
      <trkpt lat="44.45753" lon="6.86429">
        <ele>2236.2</ele>
        <time>2022-08-16T06:41:47Z</time>
      </trkpt>
      <trkpt lat="44.45755" lon="6.86427">
        <ele>2236.2</ele>
        <time>2022-08-16T06:41:48Z</time>
      </trkpt>
      <trkpt lat="44.45757" lon="6.86425">
        <ele>2236</ele>
        <time>2022-08-16T06:41:49Z</time>
      </trkpt>
      <trkpt lat="44.45759" lon="6.86423">
        <ele>2236</ele>
        <time>2022-08-16T06:41:50Z</time>
      </trkpt>
      <trkpt lat="44.45762" lon="6.86421">
        <ele>2236.2</ele>
        <time>2022-08-16T06:41:51Z</time>
      </trkpt>
      <trkpt lat="44.45764" lon="6.86419">
        <ele>2236.2</ele>
        <time>2022-08-16T06:41:52Z</time>
      </trkpt>
      <trkpt lat="44.45768" lon="6.86414">
        <ele>2236.2</ele>
        <time>2022-08-16T06:41:54Z</time>
      </trkpt>
      <trkpt lat="44.45772" lon="6.8641">
        <ele>2236.4</ele>
        <time>2022-08-16T06:41:56Z</time>
      </trkpt>
      <trkpt lat="44.45784" lon="6.86402">
        <ele>2237</ele>
        <time>2022-08-16T06:42:01Z</time>
      </trkpt>
      <trkpt lat="44.45786" lon="6.86402">
        <ele>2237</ele>
        <time>2022-08-16T06:42:02Z</time>
      </trkpt>
      <trkpt lat="44.45789" lon="6.86401">
        <ele>2237</ele>
        <time>2022-08-16T06:42:03Z</time>
      </trkpt>
      <trkpt lat="44.45791" lon="6.864">
        <ele>2237.2</ele>
        <time>2022-08-16T06:42:04Z</time>
      </trkpt>
      <trkpt lat="44.45792" lon="6.864">
        <ele>2237.2</ele>
        <time>2022-08-16T06:42:05Z</time>
      </trkpt>
      <trkpt lat="44.45793" lon="6.864">
        <ele>2237.2</ele>
        <time>2022-08-16T06:42:06Z</time>
      </trkpt>
      <trkpt lat="44.45792" lon="6.864">
        <ele>2237.4</ele>
        <time>2022-08-16T06:42:16Z</time>
      </trkpt>
      <trkpt lat="44.45792" lon="6.864">
        <ele>2237.4</ele>
        <time>2022-08-16T06:42:18Z</time>
      </trkpt>
      <trkpt lat="44.45792" lon="6.864">
        <ele>2236.8</ele>
        <time>2022-08-16T06:42:52Z</time>
      </trkpt>
      <trkpt lat="44.45792" lon="6.864">
        <ele>2236.8</ele>
        <time>2022-08-16T06:43:02Z</time>
      </trkpt>
      <trkpt lat="44.45792" lon="6.864">
        <ele>2236.6</ele>
        <time>2022-08-16T06:43:05Z</time>
      </trkpt>
      <trkpt lat="44.45792" lon="6.864">
        <ele>2236.4</ele>
        <time>2022-08-16T06:43:35Z</time>
      </trkpt>
      <trkpt lat="44.45792" lon="6.864">
        <ele>2236.4</ele>
        <time>2022-08-16T06:44:19Z</time>
      </trkpt>
      <trkpt lat="44.45792" lon="6.86397">
        <ele>2236.4</ele>
        <time>2022-08-16T06:44:24Z</time>
      </trkpt>
      <trkpt lat="44.45791" lon="6.86395">
        <ele>2236.2</ele>
        <time>2022-08-16T06:44:25Z</time>
      </trkpt>
      <trkpt lat="44.4579" lon="6.86393">
        <ele>2236.4</ele>
        <time>2022-08-16T06:44:26Z</time>
      </trkpt>
      <trkpt lat="44.4579" lon="6.86391">
        <ele>2236.4</ele>
        <time>2022-08-16T06:44:27Z</time>
      </trkpt>
      <trkpt lat="44.45788" lon="6.86384">
        <ele>2236.2</ele>
        <time>2022-08-16T06:44:29Z</time>
      </trkpt>
      <trkpt lat="44.45786" lon="6.86381">
        <ele>2236.4</ele>
        <time>2022-08-16T06:44:30Z</time>
      </trkpt>
      <trkpt lat="44.45783" lon="6.86375">
        <ele>2236.4</ele>
        <time>2022-08-16T06:44:32Z</time>
      </trkpt>
      <trkpt lat="44.45781" lon="6.86372">
        <ele>2236.4</ele>
        <time>2022-08-16T06:44:33Z</time>
      </trkpt>
      <trkpt lat="44.45781" lon="6.86369">
        <ele>2236.2</ele>
        <time>2022-08-16T06:44:34Z</time>
      </trkpt>
      <trkpt lat="44.45782" lon="6.86368">
        <ele>2236.2</ele>
        <time>2022-08-16T06:44:35Z</time>
      </trkpt>
      <trkpt lat="44.45784" lon="6.86368">
        <ele>2236.2</ele>
        <time>2022-08-16T06:44:36Z</time>
      </trkpt>
      <trkpt lat="44.45787" lon="6.8637">
        <ele>2236</ele>
        <time>2022-08-16T06:44:37Z</time>
      </trkpt>
      <trkpt lat="44.45793" lon="6.86374">
        <ele>2234.8</ele>
        <time>2022-08-16T06:44:39Z</time>
      </trkpt>
      <trkpt lat="44.45797" lon="6.86377">
        <ele>2234.2</ele>
        <time>2022-08-16T06:44:40Z</time>
      </trkpt>
      <trkpt lat="44.45806" lon="6.86384">
        <ele>2232.8</ele>
        <time>2022-08-16T06:44:42Z</time>
      </trkpt>
      <trkpt lat="44.4581" lon="6.86386">
        <ele>2232.2</ele>
        <time>2022-08-16T06:44:43Z</time>
      </trkpt>
      <trkpt lat="44.45814" lon="6.86388">
        <ele>2231.6</ele>
        <time>2022-08-16T06:44:44Z</time>
      </trkpt>
      <trkpt lat="44.45824" lon="6.86392">
        <ele>2230.2</ele>
        <time>2022-08-16T06:44:46Z</time>
      </trkpt>
      <trkpt lat="44.45829" lon="6.86394">
        <ele>2229.4</ele>
        <time>2022-08-16T06:44:47Z</time>
      </trkpt>
      <trkpt lat="44.45835" lon="6.86396">
        <ele>2228.8</ele>
        <time>2022-08-16T06:44:48Z</time>
      </trkpt>
      <trkpt lat="44.45841" lon="6.86398">
        <ele>2227.6</ele>
        <time>2022-08-16T06:44:49Z</time>
      </trkpt>
      <trkpt lat="44.45848" lon="6.86399">
        <ele>2226.6</ele>
        <time>2022-08-16T06:44:50Z</time>
      </trkpt>
      <trkpt lat="44.45854" lon="6.864">
        <ele>2225.4</ele>
        <time>2022-08-16T06:44:51Z</time>
      </trkpt>
      <trkpt lat="44.45861" lon="6.86402">
        <ele>2225.4</ele>
        <time>2022-08-16T06:44:52Z</time>
      </trkpt>
      <trkpt lat="44.45867" lon="6.86403">
        <ele>2224</ele>
        <time>2022-08-16T06:44:53Z</time>
      </trkpt>
      <trkpt lat="44.45874" lon="6.86404">
        <ele>2222</ele>
        <time>2022-08-16T06:44:54Z</time>
      </trkpt>
      <trkpt lat="44.45881" lon="6.86406">
        <ele>2220.4</ele>
        <time>2022-08-16T06:44:55Z</time>
      </trkpt>
      <trkpt lat="44.45887" lon="6.86409">
        <ele>2218.8</ele>
        <time>2022-08-16T06:44:56Z</time>
      </trkpt>
      <trkpt lat="44.45893" lon="6.86414">
        <ele>2217.6</ele>
        <time>2022-08-16T06:44:57Z</time>
      </trkpt>
      <trkpt lat="44.45899" lon="6.86418">
        <ele>2215.2</ele>
        <time>2022-08-16T06:44:58Z</time>
      </trkpt>
      <trkpt lat="44.45905" lon="6.86421">
        <ele>2213.6</ele>
        <time>2022-08-16T06:44:59Z</time>
      </trkpt>
      <trkpt lat="44.45911" lon="6.86422">
        <ele>2211.8</ele>
        <time>2022-08-16T06:45:00Z</time>
      </trkpt>
      <trkpt lat="44.45918" lon="6.86422">
        <ele>2209.8</ele>
        <time>2022-08-16T06:45:01Z</time>
      </trkpt>
      <trkpt lat="44.45926" lon="6.86423">
        <ele>2208.4</ele>
        <time>2022-08-16T06:45:02Z</time>
      </trkpt>
      <trkpt lat="44.45934" lon="6.86425">
        <ele>2207</ele>
        <time>2022-08-16T06:45:03Z</time>
      </trkpt>
      <trkpt lat="44.45943" lon="6.86425">
        <ele>2205.6</ele>
        <time>2022-08-16T06:45:04Z</time>
      </trkpt>
      <trkpt lat="44.4595" lon="6.86424">
        <ele>2203.8</ele>
        <time>2022-08-16T06:45:05Z</time>
      </trkpt>
      <trkpt lat="44.45956" lon="6.86421">
        <ele>2202</ele>
        <time>2022-08-16T06:45:06Z</time>
      </trkpt>
      <trkpt lat="44.4596" lon="6.86418">
        <ele>2201</ele>
        <time>2022-08-16T06:45:07Z</time>
      </trkpt>
      <trkpt lat="44.45965" lon="6.86414">
        <ele>2200.4</ele>
        <time>2022-08-16T06:45:08Z</time>
      </trkpt>
      <trkpt lat="44.4597" lon="6.86411">
        <ele>2199.4</ele>
        <time>2022-08-16T06:45:09Z</time>
      </trkpt>
      <trkpt lat="44.45974" lon="6.86409">
        <ele>2197.6</ele>
        <time>2022-08-16T06:45:10Z</time>
      </trkpt>
      <trkpt lat="44.45976" lon="6.86409">
        <ele>2196.4</ele>
        <time>2022-08-16T06:45:11Z</time>
      </trkpt>
      <trkpt lat="44.45977" lon="6.8641">
        <ele>2194.6</ele>
        <time>2022-08-16T06:45:12Z</time>
      </trkpt>
      <trkpt lat="44.45977" lon="6.86412">
        <ele>2193.8</ele>
        <time>2022-08-16T06:45:13Z</time>
      </trkpt>
      <trkpt lat="44.45978" lon="6.86415">
        <ele>2193</ele>
        <time>2022-08-16T06:45:14Z</time>
      </trkpt>
      <trkpt lat="44.45979" lon="6.86418">
        <ele>2191.8</ele>
        <time>2022-08-16T06:45:15Z</time>
      </trkpt>
      <trkpt lat="44.45979" lon="6.86423">
        <ele>2191.8</ele>
        <time>2022-08-16T06:45:16Z</time>
      </trkpt>
      <trkpt lat="44.45979" lon="6.86429">
        <ele>2191</ele>
        <time>2022-08-16T06:45:17Z</time>
      </trkpt>
      <trkpt lat="44.4598" lon="6.86434">
        <ele>2189.8</ele>
        <time>2022-08-16T06:45:18Z</time>
      </trkpt>
      <trkpt lat="44.45981" lon="6.86439">
        <ele>2189.2</ele>
        <time>2022-08-16T06:45:19Z</time>
      </trkpt>
      <trkpt lat="44.45984" lon="6.86444">
        <ele>2188.8</ele>
        <time>2022-08-16T06:45:20Z</time>
      </trkpt>
      <trkpt lat="44.45991" lon="6.86452">
        <ele>2188.2</ele>
        <time>2022-08-16T06:45:22Z</time>
      </trkpt>
      <trkpt lat="44.45995" lon="6.86456">
        <ele>2188</ele>
        <time>2022-08-16T06:45:23Z</time>
      </trkpt>
      <trkpt lat="44.45999" lon="6.8646">
        <ele>2187.2</ele>
        <time>2022-08-16T06:45:24Z</time>
      </trkpt>
      <trkpt lat="44.46003" lon="6.86464">
        <ele>2186.8</ele>
        <time>2022-08-16T06:45:25Z</time>
      </trkpt>
      <trkpt lat="44.46007" lon="6.86468">
        <ele>2186</ele>
        <time>2022-08-16T06:45:26Z</time>
      </trkpt>
      <trkpt lat="44.46011" lon="6.86473">
        <ele>2185</ele>
        <time>2022-08-16T06:45:27Z</time>
      </trkpt>
      <trkpt lat="44.46015" lon="6.86478">
        <ele>2184.2</ele>
        <time>2022-08-16T06:45:28Z</time>
      </trkpt>
      <trkpt lat="44.46018" lon="6.86482">
        <ele>2183.6</ele>
        <time>2022-08-16T06:45:29Z</time>
      </trkpt>
      <trkpt lat="44.46026" lon="6.86491">
        <ele>2183</ele>
        <time>2022-08-16T06:45:31Z</time>
      </trkpt>
      <trkpt lat="44.46029" lon="6.86495">
        <ele>2182.6</ele>
        <time>2022-08-16T06:45:32Z</time>
      </trkpt>
      <trkpt lat="44.46033" lon="6.86498">
        <ele>2182.4</ele>
        <time>2022-08-16T06:45:33Z</time>
      </trkpt>
      <trkpt lat="44.46037" lon="6.86502">
        <ele>2181.2</ele>
        <time>2022-08-16T06:45:34Z</time>
      </trkpt>
      <trkpt lat="44.46042" lon="6.86505">
        <ele>2180.2</ele>
        <time>2022-08-16T06:45:35Z</time>
      </trkpt>
      <trkpt lat="44.46047" lon="6.86508">
        <ele>2180</ele>
        <time>2022-08-16T06:45:36Z</time>
      </trkpt>
      <trkpt lat="44.46058" lon="6.86514">
        <ele>2178.2</ele>
        <time>2022-08-16T06:45:38Z</time>
      </trkpt>
      <trkpt lat="44.46065" lon="6.86514">
        <ele>2178.2</ele>
        <time>2022-08-16T06:45:39Z</time>
      </trkpt>
      <trkpt lat="44.46071" lon="6.86512">
        <ele>2177.8</ele>
        <time>2022-08-16T06:45:40Z</time>
      </trkpt>
      <trkpt lat="44.46076" lon="6.86508">
        <ele>2176.8</ele>
        <time>2022-08-16T06:45:41Z</time>
      </trkpt>
      <trkpt lat="44.46081" lon="6.86502">
        <ele>2176.2</ele>
        <time>2022-08-16T06:45:42Z</time>
      </trkpt>
      <trkpt lat="44.46085" lon="6.86495">
        <ele>2175.8</ele>
        <time>2022-08-16T06:45:43Z</time>
      </trkpt>
      <trkpt lat="44.46089" lon="6.86489">
        <ele>2175.2</ele>
        <time>2022-08-16T06:45:44Z</time>
      </trkpt>
      <trkpt lat="44.46093" lon="6.86483">
        <ele>2174.4</ele>
        <time>2022-08-16T06:45:45Z</time>
      </trkpt>
      <trkpt lat="44.46097" lon="6.86478">
        <ele>2173.4</ele>
        <time>2022-08-16T06:45:46Z</time>
      </trkpt>
      <trkpt lat="44.46102" lon="6.86474">
        <ele>2173</ele>
        <time>2022-08-16T06:45:47Z</time>
      </trkpt>
      <trkpt lat="44.46113" lon="6.86466">
        <ele>2171.4</ele>
        <time>2022-08-16T06:45:49Z</time>
      </trkpt>
      <trkpt lat="44.46119" lon="6.86464">
        <ele>2171</ele>
        <time>2022-08-16T06:45:50Z</time>
      </trkpt>
      <trkpt lat="44.46124" lon="6.86462">
        <ele>2170</ele>
        <time>2022-08-16T06:45:51Z</time>
      </trkpt>
      <trkpt lat="44.46128" lon="6.86461">
        <ele>2169.4</ele>
        <time>2022-08-16T06:45:52Z</time>
      </trkpt>
      <trkpt lat="44.46133" lon="6.86459">
        <ele>2168.8</ele>
        <time>2022-08-16T06:45:53Z</time>
      </trkpt>
      <trkpt lat="44.46137" lon="6.86457">
        <ele>2167.2</ele>
        <time>2022-08-16T06:45:54Z</time>
      </trkpt>
      <trkpt lat="44.46142" lon="6.86457">
        <ele>2165.6</ele>
        <time>2022-08-16T06:45:55Z</time>
      </trkpt>
      <trkpt lat="44.46147" lon="6.86459">
        <ele>2163.4</ele>
        <time>2022-08-16T06:45:56Z</time>
      </trkpt>
      <trkpt lat="44.46152" lon="6.86461">
        <ele>2162.4</ele>
        <time>2022-08-16T06:45:57Z</time>
      </trkpt>
      <trkpt lat="44.46161" lon="6.86471">
        <ele>2158.8</ele>
        <time>2022-08-16T06:45:59Z</time>
      </trkpt>
      <trkpt lat="44.46165" lon="6.86474">
        <ele>2157.8</ele>
        <time>2022-08-16T06:46:00Z</time>
      </trkpt>
      <trkpt lat="44.4617" lon="6.86475">
        <ele>2156.2</ele>
        <time>2022-08-16T06:46:01Z</time>
      </trkpt>
      <trkpt lat="44.46175" lon="6.86476">
        <ele>2156.2</ele>
        <time>2022-08-16T06:46:02Z</time>
      </trkpt>
      <trkpt lat="44.4618" lon="6.86477">
        <ele>2155</ele>
        <time>2022-08-16T06:46:03Z</time>
      </trkpt>
      <trkpt lat="44.46186" lon="6.86478">
        <ele>2153.8</ele>
        <time>2022-08-16T06:46:04Z</time>
      </trkpt>
      <trkpt lat="44.46192" lon="6.86479">
        <ele>2152.8</ele>
        <time>2022-08-16T06:46:05Z</time>
      </trkpt>
      <trkpt lat="44.46198" lon="6.86482">
        <ele>2152</ele>
        <time>2022-08-16T06:46:06Z</time>
      </trkpt>
      <trkpt lat="44.46202" lon="6.86484">
        <ele>2150.4</ele>
        <time>2022-08-16T06:46:07Z</time>
      </trkpt>
      <trkpt lat="44.46206" lon="6.86484">
        <ele>2149.4</ele>
        <time>2022-08-16T06:46:08Z</time>
      </trkpt>
      <trkpt lat="44.46209" lon="6.86483">
        <ele>2148.6</ele>
        <time>2022-08-16T06:46:09Z</time>
      </trkpt>
      <trkpt lat="44.4621" lon="6.86479">
        <ele>2148.2</ele>
        <time>2022-08-16T06:46:10Z</time>
      </trkpt>
      <trkpt lat="44.46211" lon="6.86473">
        <ele>2147.2</ele>
        <time>2022-08-16T06:46:11Z</time>
      </trkpt>
      <trkpt lat="44.46211" lon="6.86469">
        <ele>2145.4</ele>
        <time>2022-08-16T06:46:12Z</time>
      </trkpt>
      <trkpt lat="44.46213" lon="6.86467">
        <ele>2143.6</ele>
        <time>2022-08-16T06:46:13Z</time>
      </trkpt>
      <trkpt lat="44.46214" lon="6.86468">
        <ele>2141.4</ele>
        <time>2022-08-16T06:46:14Z</time>
      </trkpt>
      <trkpt lat="44.4622" lon="6.86479">
        <ele>2137.8</ele>
        <time>2022-08-16T06:46:17Z</time>
      </trkpt>
      <trkpt lat="44.46222" lon="6.86485">
        <ele>2136.6</ele>
        <time>2022-08-16T06:46:18Z</time>
      </trkpt>
      <trkpt lat="44.46224" lon="6.8649">
        <ele>2135.8</ele>
        <time>2022-08-16T06:46:19Z</time>
      </trkpt>
      <trkpt lat="44.46226" lon="6.86492">
        <ele>2134.8</ele>
        <time>2022-08-16T06:46:20Z</time>
      </trkpt>
      <trkpt lat="44.46228" lon="6.86491">
        <ele>2134</ele>
        <time>2022-08-16T06:46:21Z</time>
      </trkpt>
      <trkpt lat="44.46232" lon="6.86488">
        <ele>2133.6</ele>
        <time>2022-08-16T06:46:22Z</time>
      </trkpt>
      <trkpt lat="44.46235" lon="6.86486">
        <ele>2133</ele>
        <time>2022-08-16T06:46:23Z</time>
      </trkpt>
      <trkpt lat="44.46237" lon="6.86486">
        <ele>2132.2</ele>
        <time>2022-08-16T06:46:24Z</time>
      </trkpt>
      <trkpt lat="44.46242" lon="6.86491">
        <ele>2132</ele>
        <time>2022-08-16T06:46:26Z</time>
      </trkpt>
      <trkpt lat="44.46245" lon="6.86494">
        <ele>2131</ele>
        <time>2022-08-16T06:46:27Z</time>
      </trkpt>
      <trkpt lat="44.46248" lon="6.86498">
        <ele>2130.2</ele>
        <time>2022-08-16T06:46:28Z</time>
      </trkpt>
      <trkpt lat="44.46251" lon="6.86504">
        <ele>2129.4</ele>
        <time>2022-08-16T06:46:29Z</time>
      </trkpt>
      <trkpt lat="44.46253" lon="6.8651">
        <ele>2128.8</ele>
        <time>2022-08-16T06:46:30Z</time>
      </trkpt>
      <trkpt lat="44.46256" lon="6.86516">
        <ele>2127.8</ele>
        <time>2022-08-16T06:46:31Z</time>
      </trkpt>
      <trkpt lat="44.4626" lon="6.86519">
        <ele>2126.6</ele>
        <time>2022-08-16T06:46:32Z</time>
      </trkpt>
      <trkpt lat="44.46264" lon="6.86521">
        <ele>2126</ele>
        <time>2022-08-16T06:46:33Z</time>
      </trkpt>
      <trkpt lat="44.46268" lon="6.8652">
        <ele>2125.6</ele>
        <time>2022-08-16T06:46:34Z</time>
      </trkpt>
      <trkpt lat="44.46278" lon="6.86517">
        <ele>2124.4</ele>
        <time>2022-08-16T06:46:36Z</time>
      </trkpt>
      <trkpt lat="44.46282" lon="6.86517">
        <ele>2123.8</ele>
        <time>2022-08-16T06:46:37Z</time>
      </trkpt>
      <trkpt lat="44.46285" lon="6.86518">
        <ele>2122.8</ele>
        <time>2022-08-16T06:46:38Z</time>
      </trkpt>
      <trkpt lat="44.46289" lon="6.8652">
        <ele>2121.6</ele>
        <time>2022-08-16T06:46:39Z</time>
      </trkpt>
      <trkpt lat="44.46293" lon="6.86522">
        <ele>2120.6</ele>
        <time>2022-08-16T06:46:40Z</time>
      </trkpt>
      <trkpt lat="44.46303" lon="6.86527">
        <ele>2119</ele>
        <time>2022-08-16T06:46:42Z</time>
      </trkpt>
      <trkpt lat="44.46313" lon="6.8653">
        <ele>2116.6</ele>
        <time>2022-08-16T06:46:44Z</time>
      </trkpt>
      <trkpt lat="44.46318" lon="6.86532">
        <ele>2116.2</ele>
        <time>2022-08-16T06:46:45Z</time>
      </trkpt>
      <trkpt lat="44.46322" lon="6.86533">
        <ele>2115.4</ele>
        <time>2022-08-16T06:46:46Z</time>
      </trkpt>
      <trkpt lat="44.46326" lon="6.86534">
        <ele>2115</ele>
        <time>2022-08-16T06:46:47Z</time>
      </trkpt>
      <trkpt lat="44.4633" lon="6.86533">
        <ele>2113.6</ele>
        <time>2022-08-16T06:46:48Z</time>
      </trkpt>
      <trkpt lat="44.46335" lon="6.86533">
        <ele>2113.6</ele>
        <time>2022-08-16T06:46:49Z</time>
      </trkpt>
      <trkpt lat="44.46339" lon="6.86533">
        <ele>2113</ele>
        <time>2022-08-16T06:46:50Z</time>
      </trkpt>
      <trkpt lat="44.46342" lon="6.86533">
        <ele>2112.2</ele>
        <time>2022-08-16T06:46:51Z</time>
      </trkpt>
      <trkpt lat="44.46344" lon="6.86532">
        <ele>2111.4</ele>
        <time>2022-08-16T06:46:52Z</time>
      </trkpt>
      <trkpt lat="44.46346" lon="6.86532">
        <ele>2110.8</ele>
        <time>2022-08-16T06:46:53Z</time>
      </trkpt>
      <trkpt lat="44.46347" lon="6.86531">
        <ele>2109.8</ele>
        <time>2022-08-16T06:46:54Z</time>
      </trkpt>
      <trkpt lat="44.46347" lon="6.8653">
        <ele>2109.2</ele>
        <time>2022-08-16T06:46:55Z</time>
      </trkpt>
      <trkpt lat="44.46348" lon="6.8653">
        <ele>2107.8</ele>
        <time>2022-08-16T06:46:57Z</time>
      </trkpt>
      <trkpt lat="44.46348" lon="6.8653">
        <ele>2107.2</ele>
        <time>2022-08-16T06:46:58Z</time>
      </trkpt>
      <trkpt lat="44.46348" lon="6.8653">
        <ele>2105.4</ele>
        <time>2022-08-16T06:47:00Z</time>
      </trkpt>
      <trkpt lat="44.46348" lon="6.8653">
        <ele>2105</ele>
        <time>2022-08-16T06:47:01Z</time>
      </trkpt>
      <trkpt lat="44.4635" lon="6.86532">
        <ele>2104.8</ele>
        <time>2022-08-16T06:47:02Z</time>
      </trkpt>
      <trkpt lat="44.46351" lon="6.86533">
        <ele>2104.6</ele>
        <time>2022-08-16T06:47:03Z</time>
      </trkpt>
      <trkpt lat="44.46352" lon="6.86535">
        <ele>2104.6</ele>
        <time>2022-08-16T06:47:04Z</time>
      </trkpt>
      <trkpt lat="44.46354" lon="6.86536">
        <ele>2104.4</ele>
        <time>2022-08-16T06:47:05Z</time>
      </trkpt>
      <trkpt lat="44.46355" lon="6.86537">
        <ele>2104.4</ele>
        <time>2022-08-16T06:47:06Z</time>
      </trkpt>
      <trkpt lat="44.46357" lon="6.86538">
        <ele>2104.4</ele>
        <time>2022-08-16T06:47:07Z</time>
      </trkpt>
      <trkpt lat="44.46358" lon="6.86539">
        <ele>2104.2</ele>
        <time>2022-08-16T06:47:08Z</time>
      </trkpt>
      <trkpt lat="44.46357" lon="6.86548">
        <ele>2103.8</ele>
        <time>2022-08-16T06:47:11Z</time>
      </trkpt>
      <trkpt lat="44.46357" lon="6.86552">
        <ele>2103.8</ele>
        <time>2022-08-16T06:47:12Z</time>
      </trkpt>
      <trkpt lat="44.46356" lon="6.86557">
        <ele>2103.4</ele>
        <time>2022-08-16T06:47:13Z</time>
      </trkpt>
      <trkpt lat="44.46356" lon="6.86562">
        <ele>2103</ele>
        <time>2022-08-16T06:47:14Z</time>
      </trkpt>
      <trkpt lat="44.46356" lon="6.86569">
        <ele>2102.4</ele>
        <time>2022-08-16T06:47:15Z</time>
      </trkpt>
      <trkpt lat="44.46356" lon="6.86577">
        <ele>2102</ele>
        <time>2022-08-16T06:47:16Z</time>
      </trkpt>
      <trkpt lat="44.46358" lon="6.86584">
        <ele>2101.4</ele>
        <time>2022-08-16T06:47:17Z</time>
      </trkpt>
      <trkpt lat="44.46359" lon="6.86589">
        <ele>2101</ele>
        <time>2022-08-16T06:47:18Z</time>
      </trkpt>
      <trkpt lat="44.46361" lon="6.86592">
        <ele>2100.6</ele>
        <time>2022-08-16T06:47:19Z</time>
      </trkpt>
      <trkpt lat="44.46362" lon="6.86594">
        <ele>2100.2</ele>
        <time>2022-08-16T06:47:20Z</time>
      </trkpt>
      <trkpt lat="44.46364" lon="6.86595">
        <ele>2099.8</ele>
        <time>2022-08-16T06:47:21Z</time>
      </trkpt>
      <trkpt lat="44.46365" lon="6.86595">
        <ele>2099.2</ele>
        <time>2022-08-16T06:47:22Z</time>
      </trkpt>
      <trkpt lat="44.46367" lon="6.86594">
        <ele>2098.6</ele>
        <time>2022-08-16T06:47:23Z</time>
      </trkpt>
      <trkpt lat="44.4637" lon="6.86591">
        <ele>2096.8</ele>
        <time>2022-08-16T06:47:25Z</time>
      </trkpt>
      <trkpt lat="44.46371" lon="6.86589">
        <ele>2096.6</ele>
        <time>2022-08-16T06:47:26Z</time>
      </trkpt>
      <trkpt lat="44.46372" lon="6.86587">
        <ele>2096.2</ele>
        <time>2022-08-16T06:47:27Z</time>
      </trkpt>
      <trkpt lat="44.46373" lon="6.86585">
        <ele>2096</ele>
        <time>2022-08-16T06:47:28Z</time>
      </trkpt>
      <trkpt lat="44.46374" lon="6.86584">
        <ele>2095.8</ele>
        <time>2022-08-16T06:47:29Z</time>
      </trkpt>
      <trkpt lat="44.46374" lon="6.86583">
        <ele>2095.6</ele>
        <time>2022-08-16T06:47:30Z</time>
      </trkpt>
      <trkpt lat="44.46375" lon="6.86582">
        <ele>2095.4</ele>
        <time>2022-08-16T06:47:31Z</time>
      </trkpt>
      <trkpt lat="44.46377" lon="6.86581">
        <ele>2095.2</ele>
        <time>2022-08-16T06:47:32Z</time>
      </trkpt>
      <trkpt lat="44.4638" lon="6.86578">
        <ele>2095.2</ele>
        <time>2022-08-16T06:47:34Z</time>
      </trkpt>
      <trkpt lat="44.46381" lon="6.86576">
        <ele>2095.2</ele>
        <time>2022-08-16T06:47:35Z</time>
      </trkpt>
      <trkpt lat="44.46382" lon="6.86575">
        <ele>2095.2</ele>
        <time>2022-08-16T06:47:36Z</time>
      </trkpt>
      <trkpt lat="44.46389" lon="6.86564">
        <ele>2094.8</ele>
        <time>2022-08-16T06:47:41Z</time>
      </trkpt>
      <trkpt lat="44.4639" lon="6.86561">
        <ele>2094.8</ele>
        <time>2022-08-16T06:47:42Z</time>
      </trkpt>
      <trkpt lat="44.46391" lon="6.86558">
        <ele>2094.6</ele>
        <time>2022-08-16T06:47:43Z</time>
      </trkpt>
      <trkpt lat="44.46393" lon="6.86546">
        <ele>2094.4</ele>
        <time>2022-08-16T06:47:46Z</time>
      </trkpt>
      <trkpt lat="44.46393" lon="6.86542">
        <ele>2094.4</ele>
        <time>2022-08-16T06:47:47Z</time>
      </trkpt>
      <trkpt lat="44.46393" lon="6.86539">
        <ele>2094.4</ele>
        <time>2022-08-16T06:47:48Z</time>
      </trkpt>
      <trkpt lat="44.46393" lon="6.86531">
        <ele>2094.2</ele>
        <time>2022-08-16T06:47:50Z</time>
      </trkpt>
      <trkpt lat="44.46393" lon="6.86526">
        <ele>2094</ele>
        <time>2022-08-16T06:47:51Z</time>
      </trkpt>
      <trkpt lat="44.46393" lon="6.86515">
        <ele>2093.6</ele>
        <time>2022-08-16T06:47:53Z</time>
      </trkpt>
      <trkpt lat="44.46395" lon="6.86511">
        <ele>2093.6</ele>
        <time>2022-08-16T06:47:54Z</time>
      </trkpt>
      <trkpt lat="44.46396" lon="6.86507">
        <ele>2093.4</ele>
        <time>2022-08-16T06:47:55Z</time>
      </trkpt>
      <trkpt lat="44.46398" lon="6.86504">
        <ele>2093.2</ele>
        <time>2022-08-16T06:47:56Z</time>
      </trkpt>
      <trkpt lat="44.46399" lon="6.86499">
        <ele>2093.2</ele>
        <time>2022-08-16T06:47:57Z</time>
      </trkpt>
      <trkpt lat="44.46403" lon="6.86486">
        <ele>2092.4</ele>
        <time>2022-08-16T06:48:00Z</time>
      </trkpt>
      <trkpt lat="44.46404" lon="6.8648">
        <ele>2092</ele>
        <time>2022-08-16T06:48:01Z</time>
      </trkpt>
      <trkpt lat="44.46404" lon="6.86475">
        <ele>2091.6</ele>
        <time>2022-08-16T06:48:02Z</time>
      </trkpt>
      <trkpt lat="44.46403" lon="6.86471">
        <ele>2091.4</ele>
        <time>2022-08-16T06:48:03Z</time>
      </trkpt>
      <trkpt lat="44.46403" lon="6.86466">
        <ele>2091.2</ele>
        <time>2022-08-16T06:48:04Z</time>
      </trkpt>
      <trkpt lat="44.46402" lon="6.86461">
        <ele>2091</ele>
        <time>2022-08-16T06:48:05Z</time>
      </trkpt>
      <trkpt lat="44.46402" lon="6.86455">
        <ele>2090.8</ele>
        <time>2022-08-16T06:48:06Z</time>
      </trkpt>
      <trkpt lat="44.46402" lon="6.86445">
        <ele>2090.6</ele>
        <time>2022-08-16T06:48:08Z</time>
      </trkpt>
      <trkpt lat="44.46403" lon="6.86441">
        <ele>2090.4</ele>
        <time>2022-08-16T06:48:09Z</time>
      </trkpt>
      <trkpt lat="44.46403" lon="6.86437">
        <ele>2090.2</ele>
        <time>2022-08-16T06:48:10Z</time>
      </trkpt>
      <trkpt lat="44.46404" lon="6.86433">
        <ele>2090.2</ele>
        <time>2022-08-16T06:48:11Z</time>
      </trkpt>
      <trkpt lat="44.46405" lon="6.86429">
        <ele>2089.6</ele>
        <time>2022-08-16T06:48:12Z</time>
      </trkpt>
      <trkpt lat="44.46405" lon="6.86423">
        <ele>2089.2</ele>
        <time>2022-08-16T06:48:13Z</time>
      </trkpt>
      <trkpt lat="44.46404" lon="6.86416">
        <ele>2088</ele>
        <time>2022-08-16T06:48:14Z</time>
      </trkpt>
      <trkpt lat="44.46403" lon="6.86408">
        <ele>2087</ele>
        <time>2022-08-16T06:48:15Z</time>
      </trkpt>
      <trkpt lat="44.46402" lon="6.86393">
        <ele>2085.8</ele>
        <time>2022-08-16T06:48:17Z</time>
      </trkpt>
      <trkpt lat="44.46399" lon="6.86378">
        <ele>2085.2</ele>
        <time>2022-08-16T06:48:19Z</time>
      </trkpt>
      <trkpt lat="44.46397" lon="6.86369">
        <ele>2085.2</ele>
        <time>2022-08-16T06:48:20Z</time>
      </trkpt>
      <trkpt lat="44.46396" lon="6.86359">
        <ele>2084.4</ele>
        <time>2022-08-16T06:48:21Z</time>
      </trkpt>
      <trkpt lat="44.46395" lon="6.86348">
        <ele>2083.8</ele>
        <time>2022-08-16T06:48:22Z</time>
      </trkpt>
      <trkpt lat="44.46393" lon="6.86325">
        <ele>2082</ele>
        <time>2022-08-16T06:48:24Z</time>
      </trkpt>
      <trkpt lat="44.4639" lon="6.86315">
        <ele>2081.2</ele>
        <time>2022-08-16T06:48:25Z</time>
      </trkpt>
      <trkpt lat="44.46387" lon="6.86307">
        <ele>2081</ele>
        <time>2022-08-16T06:48:26Z</time>
      </trkpt>
      <trkpt lat="44.46383" lon="6.86301">
        <ele>2080.8</ele>
        <time>2022-08-16T06:48:27Z</time>
      </trkpt>
      <trkpt lat="44.4638" lon="6.86295">
        <ele>2080.6</ele>
        <time>2022-08-16T06:48:28Z</time>
      </trkpt>
      <trkpt lat="44.46378" lon="6.8629">
        <ele>2079.6</ele>
        <time>2022-08-16T06:48:29Z</time>
      </trkpt>
      <trkpt lat="44.46377" lon="6.86284">
        <ele>2078.4</ele>
        <time>2022-08-16T06:48:30Z</time>
      </trkpt>
      <trkpt lat="44.46378" lon="6.86277">
        <ele>2077.8</ele>
        <time>2022-08-16T06:48:31Z</time>
      </trkpt>
      <trkpt lat="44.46379" lon="6.8627">
        <ele>2077.2</ele>
        <time>2022-08-16T06:48:32Z</time>
      </trkpt>
      <trkpt lat="44.46379" lon="6.86262">
        <ele>2076.8</ele>
        <time>2022-08-16T06:48:33Z</time>
      </trkpt>
      <trkpt lat="44.46377" lon="6.86256">
        <ele>2076.6</ele>
        <time>2022-08-16T06:48:34Z</time>
      </trkpt>
      <trkpt lat="44.46375" lon="6.8625">
        <ele>2076.4</ele>
        <time>2022-08-16T06:48:35Z</time>
      </trkpt>
      <trkpt lat="44.46372" lon="6.86245">
        <ele>2076.2</ele>
        <time>2022-08-16T06:48:36Z</time>
      </trkpt>
      <trkpt lat="44.4637" lon="6.8624">
        <ele>2076</ele>
        <time>2022-08-16T06:48:37Z</time>
      </trkpt>
      <trkpt lat="44.46367" lon="6.86234">
        <ele>2075.6</ele>
        <time>2022-08-16T06:48:38Z</time>
      </trkpt>
      <trkpt lat="44.46364" lon="6.86229">
        <ele>2075.4</ele>
        <time>2022-08-16T06:48:39Z</time>
      </trkpt>
      <trkpt lat="44.46362" lon="6.86223">
        <ele>2075.2</ele>
        <time>2022-08-16T06:48:40Z</time>
      </trkpt>
      <trkpt lat="44.46359" lon="6.86218">
        <ele>2074.6</ele>
        <time>2022-08-16T06:48:41Z</time>
      </trkpt>
      <trkpt lat="44.46356" lon="6.86213">
        <ele>2074.4</ele>
        <time>2022-08-16T06:48:42Z</time>
      </trkpt>
      <trkpt lat="44.46351" lon="6.86203">
        <ele>2074</ele>
        <time>2022-08-16T06:48:44Z</time>
      </trkpt>
      <trkpt lat="44.46346" lon="6.86193">
        <ele>2073.8</ele>
        <time>2022-08-16T06:48:46Z</time>
      </trkpt>
      <trkpt lat="44.46344" lon="6.86187">
        <ele>2073.8</ele>
        <time>2022-08-16T06:48:47Z</time>
      </trkpt>
      <trkpt lat="44.46343" lon="6.8618">
        <ele>2073.8</ele>
        <time>2022-08-16T06:48:48Z</time>
      </trkpt>
      <trkpt lat="44.46342" lon="6.86172">
        <ele>2073.6</ele>
        <time>2022-08-16T06:48:49Z</time>
      </trkpt>
      <trkpt lat="44.46342" lon="6.86163">
        <ele>2073.6</ele>
        <time>2022-08-16T06:48:50Z</time>
      </trkpt>
      <trkpt lat="44.46342" lon="6.86156">
        <ele>2073.4</ele>
        <time>2022-08-16T06:48:51Z</time>
      </trkpt>
      <trkpt lat="44.46342" lon="6.86149">
        <ele>2073.4</ele>
        <time>2022-08-16T06:48:52Z</time>
      </trkpt>
      <trkpt lat="44.46342" lon="6.86142">
        <ele>2073.4</ele>
        <time>2022-08-16T06:48:53Z</time>
      </trkpt>
      <trkpt lat="44.46342" lon="6.86136">
        <ele>2073.4</ele>
        <time>2022-08-16T06:48:54Z</time>
      </trkpt>
      <trkpt lat="44.46342" lon="6.86131">
        <ele>2073</ele>
        <time>2022-08-16T06:48:55Z</time>
      </trkpt>
      <trkpt lat="44.46341" lon="6.86125">
        <ele>2072</ele>
        <time>2022-08-16T06:48:56Z</time>
      </trkpt>
      <trkpt lat="44.46339" lon="6.86112">
        <ele>2071.2</ele>
        <time>2022-08-16T06:48:58Z</time>
      </trkpt>
      <trkpt lat="44.46337" lon="6.86093">
        <ele>2070.8</ele>
        <time>2022-08-16T06:49:01Z</time>
      </trkpt>
      <trkpt lat="44.46336" lon="6.86088">
        <ele>2070.6</ele>
        <time>2022-08-16T06:49:02Z</time>
      </trkpt>
      <trkpt lat="44.46336" lon="6.86083">
        <ele>2070.4</ele>
        <time>2022-08-16T06:49:03Z</time>
      </trkpt>
      <trkpt lat="44.46337" lon="6.86079">
        <ele>2070.4</ele>
        <time>2022-08-16T06:49:04Z</time>
      </trkpt>
      <trkpt lat="44.46336" lon="6.86074">
        <ele>2070.2</ele>
        <time>2022-08-16T06:49:05Z</time>
      </trkpt>
      <trkpt lat="44.46335" lon="6.86069">
        <ele>2070.2</ele>
        <time>2022-08-16T06:49:06Z</time>
      </trkpt>
      <trkpt lat="44.46334" lon="6.86064">
        <ele>2070.2</ele>
        <time>2022-08-16T06:49:07Z</time>
      </trkpt>
      <trkpt lat="44.46333" lon="6.86047">
        <ele>2070</ele>
        <time>2022-08-16T06:49:10Z</time>
      </trkpt>
      <trkpt lat="44.46333" lon="6.86041">
        <ele>2070</ele>
        <time>2022-08-16T06:49:11Z</time>
      </trkpt>
      <trkpt lat="44.46333" lon="6.86035">
        <ele>2069.8</ele>
        <time>2022-08-16T06:49:12Z</time>
      </trkpt>
      <trkpt lat="44.46332" lon="6.86029">
        <ele>2069.8</ele>
        <time>2022-08-16T06:49:13Z</time>
      </trkpt>
      <trkpt lat="44.46332" lon="6.86023">
        <ele>2069.6</ele>
        <time>2022-08-16T06:49:14Z</time>
      </trkpt>
      <trkpt lat="44.46332" lon="6.86019">
        <ele>2069.4</ele>
        <time>2022-08-16T06:49:15Z</time>
      </trkpt>
      <trkpt lat="44.46331" lon="6.86015">
        <ele>2069.4</ele>
        <time>2022-08-16T06:49:16Z</time>
      </trkpt>
      <trkpt lat="44.46331" lon="6.86011">
        <ele>2068.6</ele>
        <time>2022-08-16T06:49:17Z</time>
      </trkpt>
      <trkpt lat="44.46331" lon="6.86007">
        <ele>2068.2</ele>
        <time>2022-08-16T06:49:18Z</time>
      </trkpt>
      <trkpt lat="44.46331" lon="6.86003">
        <ele>2067.8</ele>
        <time>2022-08-16T06:49:19Z</time>
      </trkpt>
      <trkpt lat="44.46332" lon="6.85999">
        <ele>2067.8</ele>
        <time>2022-08-16T06:49:20Z</time>
      </trkpt>
      <trkpt lat="44.46334" lon="6.85991">
        <ele>2067.4</ele>
        <time>2022-08-16T06:49:22Z</time>
      </trkpt>
      <trkpt lat="44.46334" lon="6.85989">
        <ele>2067</ele>
        <time>2022-08-16T06:49:23Z</time>
      </trkpt>
      <trkpt lat="44.46334" lon="6.85989">
        <ele>2066.4</ele>
        <time>2022-08-16T06:49:25Z</time>
      </trkpt>
      <trkpt lat="44.46334" lon="6.85989">
        <ele>2064</ele>
        <time>2022-08-16T06:49:36Z</time>
      </trkpt>
      <trkpt lat="44.46334" lon="6.85988">
        <ele>2063.8</ele>
        <time>2022-08-16T06:49:39Z</time>
      </trkpt>
      <trkpt lat="44.46335" lon="6.8598">
        <ele>2063.6</ele>
        <time>2022-08-16T06:49:42Z</time>
      </trkpt>
      <trkpt lat="44.46335" lon="6.85968">
        <ele>2063.8</ele>
        <time>2022-08-16T06:49:44Z</time>
      </trkpt>
      <trkpt lat="44.46335" lon="6.85962">
        <ele>2063.8</ele>
        <time>2022-08-16T06:49:45Z</time>
      </trkpt>
      <trkpt lat="44.46333" lon="6.85956">
        <ele>2063.6</ele>
        <time>2022-08-16T06:49:46Z</time>
      </trkpt>
      <trkpt lat="44.46332" lon="6.85951">
        <ele>2063.6</ele>
        <time>2022-08-16T06:49:47Z</time>
      </trkpt>
      <trkpt lat="44.4633" lon="6.85938">
        <ele>2063.4</ele>
        <time>2022-08-16T06:49:49Z</time>
      </trkpt>
      <trkpt lat="44.46329" lon="6.85931">
        <ele>2063.4</ele>
        <time>2022-08-16T06:49:50Z</time>
      </trkpt>
      <trkpt lat="44.46329" lon="6.85923">
        <ele>2063</ele>
        <time>2022-08-16T06:49:51Z</time>
      </trkpt>
      <trkpt lat="44.46328" lon="6.85914">
        <ele>2062.6</ele>
        <time>2022-08-16T06:49:52Z</time>
      </trkpt>
      <trkpt lat="44.46326" lon="6.85903">
        <ele>2062</ele>
        <time>2022-08-16T06:49:53Z</time>
      </trkpt>
      <trkpt lat="44.46325" lon="6.8589">
        <ele>2060.8</ele>
        <time>2022-08-16T06:49:54Z</time>
      </trkpt>
      <trkpt lat="44.46324" lon="6.85879">
        <ele>2059.8</ele>
        <time>2022-08-16T06:49:55Z</time>
      </trkpt>
      <trkpt lat="44.46323" lon="6.85869">
        <ele>2059</ele>
        <time>2022-08-16T06:49:56Z</time>
      </trkpt>
      <trkpt lat="44.46323" lon="6.8586">
        <ele>2058.6</ele>
        <time>2022-08-16T06:49:57Z</time>
      </trkpt>
      <trkpt lat="44.46322" lon="6.85853">
        <ele>2058.6</ele>
        <time>2022-08-16T06:49:58Z</time>
      </trkpt>
      <trkpt lat="44.46321" lon="6.85847">
        <ele>2058.2</ele>
        <time>2022-08-16T06:49:59Z</time>
      </trkpt>
      <trkpt lat="44.4632" lon="6.85839">
        <ele>2057</ele>
        <time>2022-08-16T06:50:00Z</time>
      </trkpt>
      <trkpt lat="44.46318" lon="6.8583">
        <ele>2055.6</ele>
        <time>2022-08-16T06:50:01Z</time>
      </trkpt>
      <trkpt lat="44.46316" lon="6.85822">
        <ele>2053</ele>
        <time>2022-08-16T06:50:02Z</time>
      </trkpt>
      <trkpt lat="44.46315" lon="6.85814">
        <ele>2050.8</ele>
        <time>2022-08-16T06:50:03Z</time>
      </trkpt>
      <trkpt lat="44.46315" lon="6.85806">
        <ele>2048.4</ele>
        <time>2022-08-16T06:50:04Z</time>
      </trkpt>
      <trkpt lat="44.46316" lon="6.85799">
        <ele>2047.2</ele>
        <time>2022-08-16T06:50:05Z</time>
      </trkpt>
      <trkpt lat="44.46316" lon="6.85791">
        <ele>2046.2</ele>
        <time>2022-08-16T06:50:06Z</time>
      </trkpt>
      <trkpt lat="44.46316" lon="6.85783">
        <ele>2045.4</ele>
        <time>2022-08-16T06:50:07Z</time>
      </trkpt>
      <trkpt lat="44.46315" lon="6.85776">
        <ele>2045</ele>
        <time>2022-08-16T06:50:08Z</time>
      </trkpt>
      <trkpt lat="44.46314" lon="6.85768">
        <ele>2043.4</ele>
        <time>2022-08-16T06:50:09Z</time>
      </trkpt>
      <trkpt lat="44.46313" lon="6.85761">
        <ele>2041.8</ele>
        <time>2022-08-16T06:50:10Z</time>
      </trkpt>
      <trkpt lat="44.46312" lon="6.85755">
        <ele>2040.6</ele>
        <time>2022-08-16T06:50:11Z</time>
      </trkpt>
      <trkpt lat="44.46308" lon="6.85741">
        <ele>2038.6</ele>
        <time>2022-08-16T06:50:13Z</time>
      </trkpt>
      <trkpt lat="44.46307" lon="6.85734">
        <ele>2037</ele>
        <time>2022-08-16T06:50:14Z</time>
      </trkpt>
      <trkpt lat="44.46305" lon="6.85726">
        <ele>2035.6</ele>
        <time>2022-08-16T06:50:15Z</time>
      </trkpt>
      <trkpt lat="44.46303" lon="6.85717">
        <ele>2034.4</ele>
        <time>2022-08-16T06:50:16Z</time>
      </trkpt>
      <trkpt lat="44.46302" lon="6.85707">
        <ele>2032.8</ele>
        <time>2022-08-16T06:50:17Z</time>
      </trkpt>
      <trkpt lat="44.46301" lon="6.85697">
        <ele>2031.6</ele>
        <time>2022-08-16T06:50:18Z</time>
      </trkpt>
      <trkpt lat="44.46299" lon="6.85686">
        <ele>2030.2</ele>
        <time>2022-08-16T06:50:19Z</time>
      </trkpt>
      <trkpt lat="44.46298" lon="6.85676">
        <ele>2028.8</ele>
        <time>2022-08-16T06:50:20Z</time>
      </trkpt>
      <trkpt lat="44.46296" lon="6.85666">
        <ele>2028.2</ele>
        <time>2022-08-16T06:50:21Z</time>
      </trkpt>
      <trkpt lat="44.46295" lon="6.85658">
        <ele>2028.2</ele>
        <time>2022-08-16T06:50:22Z</time>
      </trkpt>
      <trkpt lat="44.46294" lon="6.8565">
        <ele>2026.2</ele>
        <time>2022-08-16T06:50:23Z</time>
      </trkpt>
      <trkpt lat="44.46293" lon="6.85642">
        <ele>2024</ele>
        <time>2022-08-16T06:50:24Z</time>
      </trkpt>
      <trkpt lat="44.46292" lon="6.85633">
        <ele>2021.8</ele>
        <time>2022-08-16T06:50:25Z</time>
      </trkpt>
      <trkpt lat="44.46292" lon="6.85624">
        <ele>2019.8</ele>
        <time>2022-08-16T06:50:26Z</time>
      </trkpt>
      <trkpt lat="44.46292" lon="6.85615">
        <ele>2018.2</ele>
        <time>2022-08-16T06:50:27Z</time>
      </trkpt>
      <trkpt lat="44.46293" lon="6.85606">
        <ele>2016.4</ele>
        <time>2022-08-16T06:50:28Z</time>
      </trkpt>
      <trkpt lat="44.46293" lon="6.85597">
        <ele>2014.2</ele>
        <time>2022-08-16T06:50:29Z</time>
      </trkpt>
      <trkpt lat="44.46294" lon="6.85587">
        <ele>2012.2</ele>
        <time>2022-08-16T06:50:30Z</time>
      </trkpt>
      <trkpt lat="44.46295" lon="6.85578">
        <ele>2010.6</ele>
        <time>2022-08-16T06:50:31Z</time>
      </trkpt>
      <trkpt lat="44.46294" lon="6.85571">
        <ele>2009.4</ele>
        <time>2022-08-16T06:50:32Z</time>
      </trkpt>
      <trkpt lat="44.46292" lon="6.85565">
        <ele>2008</ele>
        <time>2022-08-16T06:50:33Z</time>
      </trkpt>
      <trkpt lat="44.46289" lon="6.85557">
        <ele>2006.4</ele>
        <time>2022-08-16T06:50:34Z</time>
      </trkpt>
      <trkpt lat="44.46286" lon="6.8555">
        <ele>2005.2</ele>
        <time>2022-08-16T06:50:35Z</time>
      </trkpt>
      <trkpt lat="44.46284" lon="6.85543">
        <ele>2003.8</ele>
        <time>2022-08-16T06:50:36Z</time>
      </trkpt>
      <trkpt lat="44.46282" lon="6.85538">
        <ele>2002.6</ele>
        <time>2022-08-16T06:50:37Z</time>
      </trkpt>
      <trkpt lat="44.46279" lon="6.85535">
        <ele>2001.4</ele>
        <time>2022-08-16T06:50:38Z</time>
      </trkpt>
      <trkpt lat="44.46275" lon="6.85533">
        <ele>2000</ele>
        <time>2022-08-16T06:50:39Z</time>
      </trkpt>
      <trkpt lat="44.46272" lon="6.8553">
        <ele>1999.4</ele>
        <time>2022-08-16T06:50:40Z</time>
      </trkpt>
      <trkpt lat="44.4627" lon="6.85526">
        <ele>1998.8</ele>
        <time>2022-08-16T06:50:41Z</time>
      </trkpt>
      <trkpt lat="44.46268" lon="6.85519">
        <ele>1997.6</ele>
        <time>2022-08-16T06:50:42Z</time>
      </trkpt>
      <trkpt lat="44.46267" lon="6.85511">
        <ele>1996.2</ele>
        <time>2022-08-16T06:50:43Z</time>
      </trkpt>
      <trkpt lat="44.46265" lon="6.85502">
        <ele>1995</ele>
        <time>2022-08-16T06:50:44Z</time>
      </trkpt>
      <trkpt lat="44.46264" lon="6.85492">
        <ele>1994.2</ele>
        <time>2022-08-16T06:50:45Z</time>
      </trkpt>
      <trkpt lat="44.46262" lon="6.85482">
        <ele>1994.2</ele>
        <time>2022-08-16T06:50:46Z</time>
      </trkpt>
      <trkpt lat="44.4626" lon="6.85474">
        <ele>1993.2</ele>
        <time>2022-08-16T06:50:47Z</time>
      </trkpt>
      <trkpt lat="44.46256" lon="6.85468">
        <ele>1992</ele>
        <time>2022-08-16T06:50:48Z</time>
      </trkpt>
      <trkpt lat="44.46252" lon="6.85463">
        <ele>1991</ele>
        <time>2022-08-16T06:50:49Z</time>
      </trkpt>
      <trkpt lat="44.46248" lon="6.85457">
        <ele>1989.8</ele>
        <time>2022-08-16T06:50:50Z</time>
      </trkpt>
      <trkpt lat="44.46241" lon="6.85443">
        <ele>1986.8</ele>
        <time>2022-08-16T06:50:52Z</time>
      </trkpt>
      <trkpt lat="44.46237" lon="6.85437">
        <ele>1985</ele>
        <time>2022-08-16T06:50:53Z</time>
      </trkpt>
      <trkpt lat="44.46232" lon="6.85433">
        <ele>1983.8</ele>
        <time>2022-08-16T06:50:54Z</time>
      </trkpt>
      <trkpt lat="44.46227" lon="6.8543">
        <ele>1982.2</ele>
        <time>2022-08-16T06:50:55Z</time>
      </trkpt>
      <trkpt lat="44.46222" lon="6.85426">
        <ele>1981.4</ele>
        <time>2022-08-16T06:50:56Z</time>
      </trkpt>
      <trkpt lat="44.46217" lon="6.85421">
        <ele>1981</ele>
        <time>2022-08-16T06:50:57Z</time>
      </trkpt>
      <trkpt lat="44.46212" lon="6.85416">
        <ele>1979.8</ele>
        <time>2022-08-16T06:50:58Z</time>
      </trkpt>
      <trkpt lat="44.46208" lon="6.85409">
        <ele>1979.2</ele>
        <time>2022-08-16T06:50:59Z</time>
      </trkpt>
      <trkpt lat="44.46204" lon="6.85403">
        <ele>1978.6</ele>
        <time>2022-08-16T06:51:00Z</time>
      </trkpt>
      <trkpt lat="44.46201" lon="6.85397">
        <ele>1978</ele>
        <time>2022-08-16T06:51:01Z</time>
      </trkpt>
      <trkpt lat="44.46198" lon="6.85391">
        <ele>1977.2</ele>
        <time>2022-08-16T06:51:02Z</time>
      </trkpt>
      <trkpt lat="44.46196" lon="6.85385">
        <ele>1976.2</ele>
        <time>2022-08-16T06:51:03Z</time>
      </trkpt>
      <trkpt lat="44.46192" lon="6.8537">
        <ele>1974</ele>
        <time>2022-08-16T06:51:05Z</time>
      </trkpt>
      <trkpt lat="44.46188" lon="6.85353">
        <ele>1971.6</ele>
        <time>2022-08-16T06:51:07Z</time>
      </trkpt>
      <trkpt lat="44.46185" lon="6.85346">
        <ele>1970.6</ele>
        <time>2022-08-16T06:51:08Z</time>
      </trkpt>
      <trkpt lat="44.46181" lon="6.85341">
        <ele>1970.6</ele>
        <time>2022-08-16T06:51:09Z</time>
      </trkpt>
      <trkpt lat="44.46177" lon="6.85337">
        <ele>1970.2</ele>
        <time>2022-08-16T06:51:10Z</time>
      </trkpt>
      <trkpt lat="44.46173" lon="6.85332">
        <ele>1969.6</ele>
        <time>2022-08-16T06:51:11Z</time>
      </trkpt>
      <trkpt lat="44.4617" lon="6.85328">
        <ele>1969</ele>
        <time>2022-08-16T06:51:12Z</time>
      </trkpt>
      <trkpt lat="44.46167" lon="6.85323">
        <ele>1968</ele>
        <time>2022-08-16T06:51:13Z</time>
      </trkpt>
      <trkpt lat="44.46164" lon="6.85319">
        <ele>1967.2</ele>
        <time>2022-08-16T06:51:14Z</time>
      </trkpt>
      <trkpt lat="44.46162" lon="6.85315">
        <ele>1966</ele>
        <time>2022-08-16T06:51:15Z</time>
      </trkpt>
      <trkpt lat="44.46159" lon="6.8531">
        <ele>1965</ele>
        <time>2022-08-16T06:51:16Z</time>
      </trkpt>
      <trkpt lat="44.46156" lon="6.85307">
        <ele>1964.2</ele>
        <time>2022-08-16T06:51:17Z</time>
      </trkpt>
      <trkpt lat="44.46146" lon="6.85297">
        <ele>1963</ele>
        <time>2022-08-16T06:51:20Z</time>
      </trkpt>
      <trkpt lat="44.46143" lon="6.85293">
        <ele>1962.8</ele>
        <time>2022-08-16T06:51:21Z</time>
      </trkpt>
      <trkpt lat="44.46141" lon="6.85289">
        <ele>1962.8</ele>
        <time>2022-08-16T06:51:22Z</time>
      </trkpt>
      <trkpt lat="44.46139" lon="6.85284">
        <ele>1962.8</ele>
        <time>2022-08-16T06:51:23Z</time>
      </trkpt>
      <trkpt lat="44.46136" lon="6.85277">
        <ele>1962.4</ele>
        <time>2022-08-16T06:51:24Z</time>
      </trkpt>
      <trkpt lat="44.46133" lon="6.85269">
        <ele>1962</ele>
        <time>2022-08-16T06:51:25Z</time>
      </trkpt>
      <trkpt lat="44.46129" lon="6.8526">
        <ele>1961.6</ele>
        <time>2022-08-16T06:51:26Z</time>
      </trkpt>
      <trkpt lat="44.46124" lon="6.85251">
        <ele>1961.4</ele>
        <time>2022-08-16T06:51:27Z</time>
      </trkpt>
      <trkpt lat="44.46118" lon="6.85244">
        <ele>1961</ele>
        <time>2022-08-16T06:51:28Z</time>
      </trkpt>
      <trkpt lat="44.46112" lon="6.85238">
        <ele>1960.8</ele>
        <time>2022-08-16T06:51:29Z</time>
      </trkpt>
      <trkpt lat="44.46104" lon="6.85233">
        <ele>1960</ele>
        <time>2022-08-16T06:51:30Z</time>
      </trkpt>
      <trkpt lat="44.46096" lon="6.85228">
        <ele>1959.2</ele>
        <time>2022-08-16T06:51:31Z</time>
      </trkpt>
      <trkpt lat="44.46087" lon="6.85223">
        <ele>1957.8</ele>
        <time>2022-08-16T06:51:32Z</time>
      </trkpt>
      <trkpt lat="44.46078" lon="6.85217">
        <ele>1957</ele>
        <time>2022-08-16T06:51:33Z</time>
      </trkpt>
      <trkpt lat="44.46069" lon="6.85212">
        <ele>1957</ele>
        <time>2022-08-16T06:51:34Z</time>
      </trkpt>
      <trkpt lat="44.4606" lon="6.85206">
        <ele>1955.8</ele>
        <time>2022-08-16T06:51:35Z</time>
      </trkpt>
      <trkpt lat="44.46052" lon="6.852">
        <ele>1954.2</ele>
        <time>2022-08-16T06:51:36Z</time>
      </trkpt>
      <trkpt lat="44.46044" lon="6.85193">
        <ele>1953.6</ele>
        <time>2022-08-16T06:51:37Z</time>
      </trkpt>
      <trkpt lat="44.46036" lon="6.85185">
        <ele>1953</ele>
        <time>2022-08-16T06:51:38Z</time>
      </trkpt>
      <trkpt lat="44.46028" lon="6.85177">
        <ele>1952.2</ele>
        <time>2022-08-16T06:51:39Z</time>
      </trkpt>
      <trkpt lat="44.4602" lon="6.8517">
        <ele>1951</ele>
        <time>2022-08-16T06:51:40Z</time>
      </trkpt>
      <trkpt lat="44.46012" lon="6.85164">
        <ele>1949.6</ele>
        <time>2022-08-16T06:51:41Z</time>
      </trkpt>
      <trkpt lat="44.46005" lon="6.85159">
        <ele>1947.8</ele>
        <time>2022-08-16T06:51:42Z</time>
      </trkpt>
      <trkpt lat="44.45997" lon="6.85155">
        <ele>1946</ele>
        <time>2022-08-16T06:51:43Z</time>
      </trkpt>
      <trkpt lat="44.4599" lon="6.8515">
        <ele>1944</ele>
        <time>2022-08-16T06:51:44Z</time>
      </trkpt>
      <trkpt lat="44.45985" lon="6.85146">
        <ele>1942.2</ele>
        <time>2022-08-16T06:51:45Z</time>
      </trkpt>
      <trkpt lat="44.4598" lon="6.85142">
        <ele>1940.8</ele>
        <time>2022-08-16T06:51:46Z</time>
      </trkpt>
      <trkpt lat="44.45977" lon="6.85139">
        <ele>1939.6</ele>
        <time>2022-08-16T06:51:47Z</time>
      </trkpt>
      <trkpt lat="44.45974" lon="6.85136">
        <ele>1937.6</ele>
        <time>2022-08-16T06:51:48Z</time>
      </trkpt>
      <trkpt lat="44.45972" lon="6.85133">
        <ele>1936.2</ele>
        <time>2022-08-16T06:51:49Z</time>
      </trkpt>
      <trkpt lat="44.4597" lon="6.85131">
        <ele>1935.2</ele>
        <time>2022-08-16T06:51:50Z</time>
      </trkpt>
      <trkpt lat="44.45968" lon="6.85129">
        <ele>1934.8</ele>
        <time>2022-08-16T06:51:51Z</time>
      </trkpt>
      <trkpt lat="44.45967" lon="6.85127">
        <ele>1934.4</ele>
        <time>2022-08-16T06:51:52Z</time>
      </trkpt>
      <trkpt lat="44.45967" lon="6.85126">
        <ele>1934.2</ele>
        <time>2022-08-16T06:51:53Z</time>
      </trkpt>
      <trkpt lat="44.45966" lon="6.85124">
        <ele>1934.2</ele>
        <time>2022-08-16T06:51:54Z</time>
      </trkpt>
      <trkpt lat="44.45966" lon="6.85123">
        <ele>1934.4</ele>
        <time>2022-08-16T06:51:55Z</time>
      </trkpt>
      <trkpt lat="44.45966" lon="6.85122">
        <ele>1934.2</ele>
        <time>2022-08-16T06:51:56Z</time>
      </trkpt>
      <trkpt lat="44.45964" lon="6.85117">
        <ele>1934.2</ele>
        <time>2022-08-16T06:51:59Z</time>
      </trkpt>
      <trkpt lat="44.45961" lon="6.85112">
        <ele>1934.6</ele>
        <time>2022-08-16T06:52:02Z</time>
      </trkpt>
      <trkpt lat="44.45959" lon="6.85108">
        <ele>1934.8</ele>
        <time>2022-08-16T06:52:04Z</time>
      </trkpt>
      <trkpt lat="44.45959" lon="6.85107">
        <ele>1935.2</ele>
        <time>2022-08-16T06:52:05Z</time>
      </trkpt>
      <trkpt lat="44.45958" lon="6.85106">
        <ele>1935.2</ele>
        <time>2022-08-16T06:52:06Z</time>
      </trkpt>
      <trkpt lat="44.45957" lon="6.85105">
        <ele>1935.2</ele>
        <time>2022-08-16T06:52:07Z</time>
      </trkpt>
      <trkpt lat="44.45957" lon="6.85104">
        <ele>1935.4</ele>
        <time>2022-08-16T06:52:08Z</time>
      </trkpt>
      <trkpt lat="44.45956" lon="6.85103">
        <ele>1935.2</ele>
        <time>2022-08-16T06:52:12Z</time>
      </trkpt>
      <trkpt lat="44.45955" lon="6.85103">
        <ele>1935.6</ele>
        <time>2022-08-16T06:52:16Z</time>
      </trkpt>
      <trkpt lat="44.45954" lon="6.85101">
        <ele>1936.2</ele>
        <time>2022-08-16T06:52:32Z</time>
      </trkpt>
      <trkpt lat="44.45951" lon="6.85096">
        <ele>1936.2</ele>
        <time>2022-08-16T06:52:36Z</time>
      </trkpt>
      <trkpt lat="44.45948" lon="6.85092">
        <ele>1936.2</ele>
        <time>2022-08-16T06:52:39Z</time>
      </trkpt>
      <trkpt lat="44.45947" lon="6.85091">
        <ele>1936.2</ele>
        <time>2022-08-16T06:52:40Z</time>
      </trkpt>
      <trkpt lat="44.45943" lon="6.85087">
        <ele>1936.4</ele>
        <time>2022-08-16T06:52:43Z</time>
      </trkpt>
      <trkpt lat="44.4594" lon="6.85083">
        <ele>1936.8</ele>
        <time>2022-08-16T06:52:46Z</time>
      </trkpt>
      <trkpt lat="44.45939" lon="6.85082">
        <ele>1937</ele>
        <time>2022-08-16T06:52:47Z</time>
      </trkpt>
      <trkpt lat="44.45938" lon="6.85081">
        <ele>1937</ele>
        <time>2022-08-16T06:52:48Z</time>
      </trkpt>
      <trkpt lat="44.45934" lon="6.85076">
        <ele>1937.4</ele>
        <time>2022-08-16T06:52:51Z</time>
      </trkpt>
      <trkpt lat="44.45933" lon="6.85074">
        <ele>1937.4</ele>
        <time>2022-08-16T06:52:52Z</time>
      </trkpt>
      <trkpt lat="44.45932" lon="6.85073">
        <ele>1937.6</ele>
        <time>2022-08-16T06:52:53Z</time>
      </trkpt>
      <trkpt lat="44.45931" lon="6.85071">
        <ele>1937.8</ele>
        <time>2022-08-16T06:52:54Z</time>
      </trkpt>
      <trkpt lat="44.4593" lon="6.8507">
        <ele>1937.8</ele>
        <time>2022-08-16T06:52:55Z</time>
      </trkpt>
      <trkpt lat="44.4593" lon="6.85069">
        <ele>1938</ele>
        <time>2022-08-16T06:52:56Z</time>
      </trkpt>
      <trkpt lat="44.4593" lon="6.85068">
        <ele>1937.8</ele>
        <time>2022-08-16T06:52:57Z</time>
      </trkpt>
      <trkpt lat="44.45929" lon="6.85067">
        <ele>1938.4</ele>
        <time>2022-08-16T06:52:59Z</time>
      </trkpt>
      <trkpt lat="44.4593" lon="6.85067">
        <ele>1938.6</ele>
        <time>2022-08-16T06:53:04Z</time>
      </trkpt>
      <trkpt lat="44.45932" lon="6.85068">
        <ele>1938.6</ele>
        <time>2022-08-16T06:53:10Z</time>
      </trkpt>
      <trkpt lat="44.45934" lon="6.85069">
        <ele>1939</ele>
        <time>2022-08-16T06:53:14Z</time>
      </trkpt>
      <trkpt lat="44.45935" lon="6.8507">
        <ele>1939.2</ele>
        <time>2022-08-16T06:53:16Z</time>
      </trkpt>
      <trkpt lat="44.45935" lon="6.8507">
        <ele>1940</ele>
        <time>2022-08-16T06:53:24Z</time>
      </trkpt>
      <trkpt lat="44.45935" lon="6.8507">
        <ele>1940.4</ele>
        <time>2022-08-16T06:53:27Z</time>
      </trkpt>
      <trkpt lat="44.45937" lon="6.85071">
        <ele>1940.6</ele>
        <time>2022-08-16T06:53:31Z</time>
      </trkpt>
      <trkpt lat="44.45937" lon="6.8507">
        <ele>1940.6</ele>
        <time>2022-08-16T06:53:32Z</time>
      </trkpt>
      <trkpt lat="44.45939" lon="6.8507">
        <ele>1940.6</ele>
        <time>2022-08-16T06:53:34Z</time>
      </trkpt>
      <trkpt lat="44.45941" lon="6.8507">
        <ele>1940.8</ele>
        <time>2022-08-16T06:53:36Z</time>
      </trkpt>
      <trkpt lat="44.45941" lon="6.8507">
        <ele>1941</ele>
        <time>2022-08-16T06:53:37Z</time>
      </trkpt>
      <trkpt lat="44.45942" lon="6.8507">
        <ele>1941</ele>
        <time>2022-08-16T06:53:38Z</time>
      </trkpt>
      <trkpt lat="44.45942" lon="6.85069">
        <ele>1941</ele>
        <time>2022-08-16T06:53:39Z</time>
      </trkpt>
      <trkpt lat="44.45944" lon="6.8507">
        <ele>1941.2</ele>
        <time>2022-08-16T06:53:41Z</time>
      </trkpt>
      <trkpt lat="44.45945" lon="6.8507">
        <ele>1941.2</ele>
        <time>2022-08-16T06:53:42Z</time>
      </trkpt>
      <trkpt lat="44.45946" lon="6.8507">
        <ele>1941.2</ele>
        <time>2022-08-16T06:53:43Z</time>
      </trkpt>
      <trkpt lat="44.45947" lon="6.85071">
        <ele>1941.4</ele>
        <time>2022-08-16T06:53:44Z</time>
      </trkpt>
      <trkpt lat="44.45948" lon="6.85072">
        <ele>1941.4</ele>
        <time>2022-08-16T06:53:46Z</time>
      </trkpt>
      <trkpt lat="44.4595" lon="6.85073">
        <ele>1941.8</ele>
        <time>2022-08-16T06:53:48Z</time>
      </trkpt>
      <trkpt lat="44.4595" lon="6.85073">
        <ele>1942</ele>
        <time>2022-08-16T06:53:49Z</time>
      </trkpt>
      <trkpt lat="44.45952" lon="6.85073">
        <ele>1942.6</ele>
        <time>2022-08-16T06:53:51Z</time>
      </trkpt>
      <trkpt lat="44.45953" lon="6.85073">
        <ele>1942.6</ele>
        <time>2022-08-16T06:53:52Z</time>
      </trkpt>
      <trkpt lat="44.45954" lon="6.85073">
        <ele>1942.6</ele>
        <time>2022-08-16T06:53:53Z</time>
      </trkpt>
      <trkpt lat="44.45956" lon="6.85073">
        <ele>1942.8</ele>
        <time>2022-08-16T06:53:55Z</time>
      </trkpt>
      <trkpt lat="44.45957" lon="6.85074">
        <ele>1942.8</ele>
        <time>2022-08-16T06:53:56Z</time>
      </trkpt>
      <trkpt lat="44.45958" lon="6.85074">
        <ele>1942.8</ele>
        <time>2022-08-16T06:53:57Z</time>
      </trkpt>
      <trkpt lat="44.45958" lon="6.85075">
        <ele>1943</ele>
        <time>2022-08-16T06:53:58Z</time>
      </trkpt>
      <trkpt lat="44.45959" lon="6.85075">
        <ele>1943</ele>
        <time>2022-08-16T06:53:59Z</time>
      </trkpt>
      <trkpt lat="44.4596" lon="6.85075">
        <ele>1943.2</ele>
        <time>2022-08-16T06:54:00Z</time>
      </trkpt>
      <trkpt lat="44.45961" lon="6.85075">
        <ele>1943.4</ele>
        <time>2022-08-16T06:54:01Z</time>
      </trkpt>
      <trkpt lat="44.45961" lon="6.85075">
        <ele>1943.6</ele>
        <time>2022-08-16T06:54:02Z</time>
      </trkpt>
      <trkpt lat="44.45962" lon="6.85075">
        <ele>1943.6</ele>
        <time>2022-08-16T06:54:03Z</time>
      </trkpt>
      <trkpt lat="44.45963" lon="6.85075">
        <ele>1943.8</ele>
        <time>2022-08-16T06:54:04Z</time>
      </trkpt>
      <trkpt lat="44.45963" lon="6.85075">
        <ele>1944</ele>
        <time>2022-08-16T06:54:05Z</time>
      </trkpt>
      <trkpt lat="44.45964" lon="6.85074">
        <ele>1944.2</ele>
        <time>2022-08-16T06:54:06Z</time>
      </trkpt>
      <trkpt lat="44.45965" lon="6.85074">
        <ele>1944.2</ele>
        <time>2022-08-16T06:54:07Z</time>
      </trkpt>
      <trkpt lat="44.45965" lon="6.85074">
        <ele>1944.4</ele>
        <time>2022-08-16T06:54:08Z</time>
      </trkpt>
      <trkpt lat="44.45966" lon="6.85073">
        <ele>1944.6</ele>
        <time>2022-08-16T06:54:09Z</time>
      </trkpt>
      <trkpt lat="44.45967" lon="6.85073">
        <ele>1944.6</ele>
        <time>2022-08-16T06:54:10Z</time>
      </trkpt>
      <trkpt lat="44.45967" lon="6.85073">
        <ele>1944.8</ele>
        <time>2022-08-16T06:54:11Z</time>
      </trkpt>
      <trkpt lat="44.45968" lon="6.85073">
        <ele>1945</ele>
        <time>2022-08-16T06:54:12Z</time>
      </trkpt>
      <trkpt lat="44.45969" lon="6.85073">
        <ele>1945.2</ele>
        <time>2022-08-16T06:54:13Z</time>
      </trkpt>
      <trkpt lat="44.45969" lon="6.85073">
        <ele>1945.4</ele>
        <time>2022-08-16T06:54:14Z</time>
      </trkpt>
      <trkpt lat="44.4597" lon="6.85073">
        <ele>1945.4</ele>
        <time>2022-08-16T06:54:15Z</time>
      </trkpt>
      <trkpt lat="44.45971" lon="6.85073">
        <ele>1945.4</ele>
        <time>2022-08-16T06:54:16Z</time>
      </trkpt>
      <trkpt lat="44.45971" lon="6.85073">
        <ele>1945.8</ele>
        <time>2022-08-16T06:54:17Z</time>
      </trkpt>
      <trkpt lat="44.45972" lon="6.85073">
        <ele>1945.8</ele>
        <time>2022-08-16T06:54:18Z</time>
      </trkpt>
      <trkpt lat="44.45973" lon="6.85073">
        <ele>1946</ele>
        <time>2022-08-16T06:54:19Z</time>
      </trkpt>
      <trkpt lat="44.45973" lon="6.85073">
        <ele>1946.2</ele>
        <time>2022-08-16T06:54:20Z</time>
      </trkpt>
      <trkpt lat="44.45974" lon="6.85073">
        <ele>1946.2</ele>
        <time>2022-08-16T06:54:21Z</time>
      </trkpt>
      <trkpt lat="44.45974" lon="6.85073">
        <ele>1946.4</ele>
        <time>2022-08-16T06:54:22Z</time>
      </trkpt>
      <trkpt lat="44.45975" lon="6.85073">
        <ele>1946.6</ele>
        <time>2022-08-16T06:54:23Z</time>
      </trkpt>
      <trkpt lat="44.45976" lon="6.85074">
        <ele>1946.6</ele>
        <time>2022-08-16T06:54:24Z</time>
      </trkpt>
      <trkpt lat="44.45976" lon="6.85074">
        <ele>1947</ele>
        <time>2022-08-16T06:54:25Z</time>
      </trkpt>
      <trkpt lat="44.45977" lon="6.85073">
        <ele>1948.2</ele>
        <time>2022-08-16T06:54:31Z</time>
      </trkpt>
      <trkpt lat="44.45978" lon="6.85073">
        <ele>1948.4</ele>
        <time>2022-08-16T06:54:32Z</time>
      </trkpt>
      <trkpt lat="44.45979" lon="6.85073">
        <ele>1948.6</ele>
        <time>2022-08-16T06:54:33Z</time>
      </trkpt>
      <trkpt lat="44.45979" lon="6.85072">
        <ele>1948.6</ele>
        <time>2022-08-16T06:54:34Z</time>
      </trkpt>
      <trkpt lat="44.4598" lon="6.85072">
        <ele>1948.6</ele>
        <time>2022-08-16T06:54:35Z</time>
      </trkpt>
      <trkpt lat="44.45981" lon="6.85072">
        <ele>1948.8</ele>
        <time>2022-08-16T06:54:36Z</time>
      </trkpt>
      <trkpt lat="44.45982" lon="6.85071">
        <ele>1948.8</ele>
        <time>2022-08-16T06:54:37Z</time>
      </trkpt>
      <trkpt lat="44.45982" lon="6.85071">
        <ele>1948.8</ele>
        <time>2022-08-16T06:54:38Z</time>
      </trkpt>
      <trkpt lat="44.45983" lon="6.85071">
        <ele>1949</ele>
        <time>2022-08-16T06:54:39Z</time>
      </trkpt>
      <trkpt lat="44.45984" lon="6.8507">
        <ele>1949</ele>
        <time>2022-08-16T06:54:40Z</time>
      </trkpt>
      <trkpt lat="44.45985" lon="6.8507">
        <ele>1948.8</ele>
        <time>2022-08-16T06:54:41Z</time>
      </trkpt>
      <trkpt lat="44.45985" lon="6.8507">
        <ele>1948.8</ele>
        <time>2022-08-16T06:54:42Z</time>
      </trkpt>
      <trkpt lat="44.45986" lon="6.8507">
        <ele>1949</ele>
        <time>2022-08-16T06:54:43Z</time>
      </trkpt>
      <trkpt lat="44.45986" lon="6.8507">
        <ele>1949.2</ele>
        <time>2022-08-16T06:54:44Z</time>
      </trkpt>
      <trkpt lat="44.45987" lon="6.8507">
        <ele>1949.4</ele>
        <time>2022-08-16T06:54:45Z</time>
      </trkpt>
      <trkpt lat="44.45988" lon="6.8507">
        <ele>1949.6</ele>
        <time>2022-08-16T06:54:46Z</time>
      </trkpt>
      <trkpt lat="44.45988" lon="6.8507">
        <ele>1949.6</ele>
        <time>2022-08-16T06:54:47Z</time>
      </trkpt>
      <trkpt lat="44.45989" lon="6.8507">
        <ele>1949.6</ele>
        <time>2022-08-16T06:54:48Z</time>
      </trkpt>
      <trkpt lat="44.45989" lon="6.85069">
        <ele>1949.8</ele>
        <time>2022-08-16T06:54:49Z</time>
      </trkpt>
      <trkpt lat="44.4599" lon="6.85069">
        <ele>1950</ele>
        <time>2022-08-16T06:54:50Z</time>
      </trkpt>
      <trkpt lat="44.4599" lon="6.85069">
        <ele>1950</ele>
        <time>2022-08-16T06:54:51Z</time>
      </trkpt>
      <trkpt lat="44.45991" lon="6.85069">
        <ele>1950.4</ele>
        <time>2022-08-16T06:54:54Z</time>
      </trkpt>
      <trkpt lat="44.45992" lon="6.85068">
        <ele>1950.6</ele>
        <time>2022-08-16T06:54:55Z</time>
      </trkpt>
      <trkpt lat="44.45993" lon="6.85068">
        <ele>1951</ele>
        <time>2022-08-16T06:54:56Z</time>
      </trkpt>
      <trkpt lat="44.45993" lon="6.85068">
        <ele>1951</ele>
        <time>2022-08-16T06:54:57Z</time>
      </trkpt>
      <trkpt lat="44.45993" lon="6.85068">
        <ele>1951.2</ele>
        <time>2022-08-16T06:54:58Z</time>
      </trkpt>
      <trkpt lat="44.45994" lon="6.85068">
        <ele>1951.4</ele>
        <time>2022-08-16T06:54:59Z</time>
      </trkpt>
      <trkpt lat="44.45995" lon="6.85068">
        <ele>1951.6</ele>
        <time>2022-08-16T06:55:00Z</time>
      </trkpt>
      <trkpt lat="44.45995" lon="6.85068">
        <ele>1951.8</ele>
        <time>2022-08-16T06:55:01Z</time>
      </trkpt>
      <trkpt lat="44.45995" lon="6.85068">
        <ele>1951.8</ele>
        <time>2022-08-16T06:55:02Z</time>
      </trkpt>
      <trkpt lat="44.45996" lon="6.85069">
        <ele>1951.8</ele>
        <time>2022-08-16T06:55:03Z</time>
      </trkpt>
      <trkpt lat="44.45997" lon="6.85069">
        <ele>1952</ele>
        <time>2022-08-16T06:55:04Z</time>
      </trkpt>
      <trkpt lat="44.45997" lon="6.8507">
        <ele>1952.2</ele>
        <time>2022-08-16T06:55:05Z</time>
      </trkpt>
      <trkpt lat="44.45998" lon="6.8507">
        <ele>1952.2</ele>
        <time>2022-08-16T06:55:06Z</time>
      </trkpt>
      <trkpt lat="44.45999" lon="6.85071">
        <ele>1952.6</ele>
        <time>2022-08-16T06:55:07Z</time>
      </trkpt>
      <trkpt lat="44.45999" lon="6.85071">
        <ele>1952.6</ele>
        <time>2022-08-16T06:55:08Z</time>
      </trkpt>
      <trkpt lat="44.46" lon="6.8507">
        <ele>1952.8</ele>
        <time>2022-08-16T06:55:09Z</time>
      </trkpt>
      <trkpt lat="44.46" lon="6.85068">
        <ele>1953.2</ele>
        <time>2022-08-16T06:55:10Z</time>
      </trkpt>
      <trkpt lat="44.46" lon="6.85067">
        <ele>1953.4</ele>
        <time>2022-08-16T06:55:11Z</time>
      </trkpt>
      <trkpt lat="44.46" lon="6.85067">
        <ele>1953.6</ele>
        <time>2022-08-16T06:55:12Z</time>
      </trkpt>
      <trkpt lat="44.46" lon="6.85066">
        <ele>1953.8</ele>
        <time>2022-08-16T06:55:13Z</time>
      </trkpt>
      <trkpt lat="44.46" lon="6.85066">
        <ele>1954</ele>
        <time>2022-08-16T06:55:14Z</time>
      </trkpt>
      <trkpt lat="44.46001" lon="6.85065">
        <ele>1954.2</ele>
        <time>2022-08-16T06:55:17Z</time>
      </trkpt>
      <trkpt lat="44.46001" lon="6.85065">
        <ele>1954.2</ele>
        <time>2022-08-16T06:55:18Z</time>
      </trkpt>
      <trkpt lat="44.46002" lon="6.85065">
        <ele>1954.6</ele>
        <time>2022-08-16T06:55:19Z</time>
      </trkpt>
      <trkpt lat="44.46002" lon="6.85065">
        <ele>1954.8</ele>
        <time>2022-08-16T06:55:20Z</time>
      </trkpt>
      <trkpt lat="44.46003" lon="6.85064">
        <ele>1955</ele>
        <time>2022-08-16T06:55:21Z</time>
      </trkpt>
      <trkpt lat="44.46004" lon="6.85063">
        <ele>1954.8</ele>
        <time>2022-08-16T06:55:22Z</time>
      </trkpt>
      <trkpt lat="44.46005" lon="6.85063">
        <ele>1955</ele>
        <time>2022-08-16T06:55:23Z</time>
      </trkpt>
      <trkpt lat="44.46005" lon="6.85063">
        <ele>1955.2</ele>
        <time>2022-08-16T06:55:24Z</time>
      </trkpt>
      <trkpt lat="44.46006" lon="6.85063">
        <ele>1955.4</ele>
        <time>2022-08-16T06:55:25Z</time>
      </trkpt>
      <trkpt lat="44.46006" lon="6.85063">
        <ele>1955.4</ele>
        <time>2022-08-16T06:55:26Z</time>
      </trkpt>
      <trkpt lat="44.46007" lon="6.85062">
        <ele>1955.6</ele>
        <time>2022-08-16T06:55:27Z</time>
      </trkpt>
      <trkpt lat="44.46007" lon="6.85062">
        <ele>1955.8</ele>
        <time>2022-08-16T06:55:28Z</time>
      </trkpt>
      <trkpt lat="44.46007" lon="6.85062">
        <ele>1956</ele>
        <time>2022-08-16T06:55:29Z</time>
      </trkpt>
      <trkpt lat="44.46007" lon="6.85063">
        <ele>1956</ele>
        <time>2022-08-16T06:55:30Z</time>
      </trkpt>
      <trkpt lat="44.46007" lon="6.85063">
        <ele>1956.2</ele>
        <time>2022-08-16T06:55:31Z</time>
      </trkpt>
      <trkpt lat="44.46007" lon="6.85062">
        <ele>1956.6</ele>
        <time>2022-08-16T06:55:33Z</time>
      </trkpt>
      <trkpt lat="44.46008" lon="6.85062">
        <ele>1956.8</ele>
        <time>2022-08-16T06:55:34Z</time>
      </trkpt>
      <trkpt lat="44.46008" lon="6.85062">
        <ele>1957</ele>
        <time>2022-08-16T06:55:35Z</time>
      </trkpt>
      <trkpt lat="44.46008" lon="6.85063">
        <ele>1957.2</ele>
        <time>2022-08-16T06:55:36Z</time>
      </trkpt>
      <trkpt lat="44.46009" lon="6.85063">
        <ele>1957.2</ele>
        <time>2022-08-16T06:55:37Z</time>
      </trkpt>
      <trkpt lat="44.46009" lon="6.85063">
        <ele>1957.4</ele>
        <time>2022-08-16T06:55:38Z</time>
      </trkpt>
      <trkpt lat="44.4601" lon="6.85063">
        <ele>1957.6</ele>
        <time>2022-08-16T06:55:39Z</time>
      </trkpt>
      <trkpt lat="44.46011" lon="6.85063">
        <ele>1958</ele>
        <time>2022-08-16T06:55:40Z</time>
      </trkpt>
      <trkpt lat="44.46011" lon="6.85063">
        <ele>1958</ele>
        <time>2022-08-16T06:55:41Z</time>
      </trkpt>
      <trkpt lat="44.46011" lon="6.85062">
        <ele>1958.2</ele>
        <time>2022-08-16T06:55:42Z</time>
      </trkpt>
      <trkpt lat="44.46013" lon="6.85062">
        <ele>1958.2</ele>
        <time>2022-08-16T06:55:43Z</time>
      </trkpt>
      <trkpt lat="44.46013" lon="6.85062">
        <ele>1958.4</ele>
        <time>2022-08-16T06:55:44Z</time>
      </trkpt>
      <trkpt lat="44.46014" lon="6.85061">
        <ele>1958.6</ele>
        <time>2022-08-16T06:55:45Z</time>
      </trkpt>
      <trkpt lat="44.46015" lon="6.85061">
        <ele>1958.8</ele>
        <time>2022-08-16T06:55:46Z</time>
      </trkpt>
      <trkpt lat="44.46016" lon="6.85061">
        <ele>1959.2</ele>
        <time>2022-08-16T06:55:47Z</time>
      </trkpt>
      <trkpt lat="44.46016" lon="6.8506">
        <ele>1959.4</ele>
        <time>2022-08-16T06:55:48Z</time>
      </trkpt>
      <trkpt lat="44.46017" lon="6.85059">
        <ele>1959.4</ele>
        <time>2022-08-16T06:55:49Z</time>
      </trkpt>
      <trkpt lat="44.46018" lon="6.85059">
        <ele>1959.4</ele>
        <time>2022-08-16T06:55:50Z</time>
      </trkpt>
      <trkpt lat="44.46019" lon="6.85058">
        <ele>1959.8</ele>
        <time>2022-08-16T06:55:51Z</time>
      </trkpt>
      <trkpt lat="44.46019" lon="6.85058">
        <ele>1959.8</ele>
        <time>2022-08-16T06:55:52Z</time>
      </trkpt>
      <trkpt lat="44.4602" lon="6.85057">
        <ele>1960</ele>
        <time>2022-08-16T06:55:53Z</time>
      </trkpt>
      <trkpt lat="44.4602" lon="6.85056">
        <ele>1960.2</ele>
        <time>2022-08-16T06:55:54Z</time>
      </trkpt>
      <trkpt lat="44.46021" lon="6.85056">
        <ele>1960.2</ele>
        <time>2022-08-16T06:55:55Z</time>
      </trkpt>
      <trkpt lat="44.46021" lon="6.85055">
        <ele>1960.4</ele>
        <time>2022-08-16T06:55:56Z</time>
      </trkpt>
      <trkpt lat="44.46022" lon="6.85054">
        <ele>1960.4</ele>
        <time>2022-08-16T06:55:57Z</time>
      </trkpt>
      <trkpt lat="44.46022" lon="6.85052">
        <ele>1960.6</ele>
        <time>2022-08-16T06:55:58Z</time>
      </trkpt>
      <trkpt lat="44.46023" lon="6.85051">
        <ele>1960.8</ele>
        <time>2022-08-16T06:55:59Z</time>
      </trkpt>
      <trkpt lat="44.46023" lon="6.8505">
        <ele>1960.8</ele>
        <time>2022-08-16T06:56:00Z</time>
      </trkpt>
      <trkpt lat="44.46023" lon="6.85049">
        <ele>1961</ele>
        <time>2022-08-16T06:56:01Z</time>
      </trkpt>
      <trkpt lat="44.46023" lon="6.85047">
        <ele>1961.2</ele>
        <time>2022-08-16T06:56:02Z</time>
      </trkpt>
      <trkpt lat="44.46023" lon="6.85046">
        <ele>1961.2</ele>
        <time>2022-08-16T06:56:03Z</time>
      </trkpt>
      <trkpt lat="44.46023" lon="6.85045">
        <ele>1961.4</ele>
        <time>2022-08-16T06:56:04Z</time>
      </trkpt>
      <trkpt lat="44.46024" lon="6.85043">
        <ele>1961.6</ele>
        <time>2022-08-16T06:56:05Z</time>
      </trkpt>
      <trkpt lat="44.46024" lon="6.85042">
        <ele>1961.8</ele>
        <time>2022-08-16T06:56:06Z</time>
      </trkpt>
      <trkpt lat="44.46024" lon="6.85041">
        <ele>1961.8</ele>
        <time>2022-08-16T06:56:07Z</time>
      </trkpt>
      <trkpt lat="44.46025" lon="6.8504">
        <ele>1962</ele>
        <time>2022-08-16T06:56:08Z</time>
      </trkpt>
      <trkpt lat="44.46025" lon="6.85038">
        <ele>1962</ele>
        <time>2022-08-16T06:56:09Z</time>
      </trkpt>
      <trkpt lat="44.46026" lon="6.85037">
        <ele>1962</ele>
        <time>2022-08-16T06:56:10Z</time>
      </trkpt>
      <trkpt lat="44.46026" lon="6.85036">
        <ele>1962.2</ele>
        <time>2022-08-16T06:56:11Z</time>
      </trkpt>
      <trkpt lat="44.46026" lon="6.85035">
        <ele>1962.4</ele>
        <time>2022-08-16T06:56:12Z</time>
      </trkpt>
      <trkpt lat="44.46026" lon="6.85033">
        <ele>1962.4</ele>
        <time>2022-08-16T06:56:13Z</time>
      </trkpt>
      <trkpt lat="44.46026" lon="6.85032">
        <ele>1962.6</ele>
        <time>2022-08-16T06:56:14Z</time>
      </trkpt>
      <trkpt lat="44.46026" lon="6.85032">
        <ele>1962.6</ele>
        <time>2022-08-16T06:56:15Z</time>
      </trkpt>
      <trkpt lat="44.46027" lon="6.85031">
        <ele>1962.8</ele>
        <time>2022-08-16T06:56:16Z</time>
      </trkpt>
      <trkpt lat="44.46027" lon="6.8503">
        <ele>1963</ele>
        <time>2022-08-16T06:56:17Z</time>
      </trkpt>
      <trkpt lat="44.46027" lon="6.8503">
        <ele>1963.2</ele>
        <time>2022-08-16T06:56:18Z</time>
      </trkpt>
      <trkpt lat="44.46028" lon="6.85029">
        <ele>1963.4</ele>
        <time>2022-08-16T06:56:19Z</time>
      </trkpt>
      <trkpt lat="44.46029" lon="6.85029">
        <ele>1963.6</ele>
        <time>2022-08-16T06:56:20Z</time>
      </trkpt>
      <trkpt lat="44.46029" lon="6.85029">
        <ele>1963.6</ele>
        <time>2022-08-16T06:56:21Z</time>
      </trkpt>
      <trkpt lat="44.46029" lon="6.85028">
        <ele>1963.8</ele>
        <time>2022-08-16T06:56:22Z</time>
      </trkpt>
      <trkpt lat="44.4603" lon="6.85028">
        <ele>1964</ele>
        <time>2022-08-16T06:56:23Z</time>
      </trkpt>
      <trkpt lat="44.4603" lon="6.85027">
        <ele>1964</ele>
        <time>2022-08-16T06:56:24Z</time>
      </trkpt>
      <trkpt lat="44.4603" lon="6.85026">
        <ele>1965.4</ele>
        <time>2022-08-16T06:56:30Z</time>
      </trkpt>
      <trkpt lat="44.46032" lon="6.85025">
        <ele>1966</ele>
        <time>2022-08-16T06:56:34Z</time>
      </trkpt>
      <trkpt lat="44.46032" lon="6.85024">
        <ele>1966</ele>
        <time>2022-08-16T06:56:35Z</time>
      </trkpt>
      <trkpt lat="44.46033" lon="6.85024">
        <ele>1966</ele>
        <time>2022-08-16T06:56:36Z</time>
      </trkpt>
      <trkpt lat="44.46034" lon="6.85022">
        <ele>1966</ele>
        <time>2022-08-16T06:56:38Z</time>
      </trkpt>
      <trkpt lat="44.46034" lon="6.85021">
        <ele>1966.2</ele>
        <time>2022-08-16T06:56:39Z</time>
      </trkpt>
      <trkpt lat="44.46034" lon="6.8502">
        <ele>1966.2</ele>
        <time>2022-08-16T06:56:40Z</time>
      </trkpt>
      <trkpt lat="44.46034" lon="6.85019">
        <ele>1966.2</ele>
        <time>2022-08-16T06:56:41Z</time>
      </trkpt>
      <trkpt lat="44.46034" lon="6.85018">
        <ele>1966.4</ele>
        <time>2022-08-16T06:56:42Z</time>
      </trkpt>
      <trkpt lat="44.46034" lon="6.85017">
        <ele>1966.4</ele>
        <time>2022-08-16T06:56:43Z</time>
      </trkpt>
      <trkpt lat="44.46034" lon="6.85015">
        <ele>1966.6</ele>
        <time>2022-08-16T06:56:44Z</time>
      </trkpt>
      <trkpt lat="44.46034" lon="6.85014">
        <ele>1966.8</ele>
        <time>2022-08-16T06:56:45Z</time>
      </trkpt>
      <trkpt lat="44.46034" lon="6.85014">
        <ele>1966.8</ele>
        <time>2022-08-16T06:56:46Z</time>
      </trkpt>
      <trkpt lat="44.46034" lon="6.85013">
        <ele>1967</ele>
        <time>2022-08-16T06:56:47Z</time>
      </trkpt>
      <trkpt lat="44.46033" lon="6.85012">
        <ele>1967</ele>
        <time>2022-08-16T06:56:48Z</time>
      </trkpt>
      <trkpt lat="44.46033" lon="6.85011">
        <ele>1967</ele>
        <time>2022-08-16T06:56:49Z</time>
      </trkpt>
      <trkpt lat="44.46034" lon="6.8501">
        <ele>1967.2</ele>
        <time>2022-08-16T06:56:50Z</time>
      </trkpt>
      <trkpt lat="44.46034" lon="6.85009">
        <ele>1967.4</ele>
        <time>2022-08-16T06:56:51Z</time>
      </trkpt>
      <trkpt lat="44.46035" lon="6.85009">
        <ele>1968</ele>
        <time>2022-08-16T06:56:53Z</time>
      </trkpt>
      <trkpt lat="44.46036" lon="6.85009">
        <ele>1968.2</ele>
        <time>2022-08-16T06:56:54Z</time>
      </trkpt>
      <trkpt lat="44.46037" lon="6.85009">
        <ele>1968.6</ele>
        <time>2022-08-16T06:56:55Z</time>
      </trkpt>
      <trkpt lat="44.46038" lon="6.85009">
        <ele>1968.8</ele>
        <time>2022-08-16T06:56:56Z</time>
      </trkpt>
      <trkpt lat="44.46038" lon="6.85008">
        <ele>1968.8</ele>
        <time>2022-08-16T06:56:57Z</time>
      </trkpt>
      <trkpt lat="44.46038" lon="6.85008">
        <ele>1969</ele>
        <time>2022-08-16T06:56:58Z</time>
      </trkpt>
      <trkpt lat="44.46039" lon="6.85007">
        <ele>1969.2</ele>
        <time>2022-08-16T06:56:59Z</time>
      </trkpt>
      <trkpt lat="44.46039" lon="6.85006">
        <ele>1969.2</ele>
        <time>2022-08-16T06:57:00Z</time>
      </trkpt>
      <trkpt lat="44.4604" lon="6.85004">
        <ele>1969.6</ele>
        <time>2022-08-16T06:57:03Z</time>
      </trkpt>
      <trkpt lat="44.4604" lon="6.85004">
        <ele>1969.8</ele>
        <time>2022-08-16T06:57:04Z</time>
      </trkpt>
      <trkpt lat="44.46042" lon="6.85005">
        <ele>1970.4</ele>
        <time>2022-08-16T06:57:08Z</time>
      </trkpt>
      <trkpt lat="44.46042" lon="6.85005">
        <ele>1970.6</ele>
        <time>2022-08-16T06:57:09Z</time>
      </trkpt>
      <trkpt lat="44.46043" lon="6.85005">
        <ele>1970.8</ele>
        <time>2022-08-16T06:57:11Z</time>
      </trkpt>
      <trkpt lat="44.46043" lon="6.85005">
        <ele>1971</ele>
        <time>2022-08-16T06:57:12Z</time>
      </trkpt>
      <trkpt lat="44.46043" lon="6.85006">
        <ele>1971.6</ele>
        <time>2022-08-16T06:57:13Z</time>
      </trkpt>
      <trkpt lat="44.46044" lon="6.85006">
        <ele>1971.4</ele>
        <time>2022-08-16T06:57:14Z</time>
      </trkpt>
      <trkpt lat="44.46044" lon="6.85007">
        <ele>1971.6</ele>
        <time>2022-08-16T06:57:15Z</time>
      </trkpt>
      <trkpt lat="44.46044" lon="6.85008">
        <ele>1971.8</ele>
        <time>2022-08-16T06:57:16Z</time>
      </trkpt>
      <trkpt lat="44.46044" lon="6.8501">
        <ele>1972</ele>
        <time>2022-08-16T06:57:17Z</time>
      </trkpt>
      <trkpt lat="44.46045" lon="6.8501">
        <ele>1972.2</ele>
        <time>2022-08-16T06:57:18Z</time>
      </trkpt>
      <trkpt lat="44.46045" lon="6.85011">
        <ele>1972.4</ele>
        <time>2022-08-16T06:57:19Z</time>
      </trkpt>
      <trkpt lat="44.46046" lon="6.85011">
        <ele>1972.4</ele>
        <time>2022-08-16T06:57:20Z</time>
      </trkpt>
      <trkpt lat="44.46046" lon="6.85011">
        <ele>1972.8</ele>
        <time>2022-08-16T06:57:21Z</time>
      </trkpt>
      <trkpt lat="44.46047" lon="6.85011">
        <ele>1973</ele>
        <time>2022-08-16T06:57:22Z</time>
      </trkpt>
      <trkpt lat="44.46048" lon="6.85011">
        <ele>1973</ele>
        <time>2022-08-16T06:57:23Z</time>
      </trkpt>
      <trkpt lat="44.46048" lon="6.85012">
        <ele>1973.2</ele>
        <time>2022-08-16T06:57:24Z</time>
      </trkpt>
      <trkpt lat="44.46049" lon="6.85012">
        <ele>1973.4</ele>
        <time>2022-08-16T06:57:25Z</time>
      </trkpt>
      <trkpt lat="44.4605" lon="6.85012">
        <ele>1973.6</ele>
        <time>2022-08-16T06:57:26Z</time>
      </trkpt>
      <trkpt lat="44.4605" lon="6.85012">
        <ele>1974</ele>
        <time>2022-08-16T06:57:27Z</time>
      </trkpt>
      <trkpt lat="44.46051" lon="6.85013">
        <ele>1974</ele>
        <time>2022-08-16T06:57:28Z</time>
      </trkpt>
      <trkpt lat="44.46051" lon="6.85013">
        <ele>1974.2</ele>
        <time>2022-08-16T06:57:29Z</time>
      </trkpt>
      <trkpt lat="44.46052" lon="6.85014">
        <ele>1974.4</ele>
        <time>2022-08-16T06:57:30Z</time>
      </trkpt>
      <trkpt lat="44.46052" lon="6.85014">
        <ele>1974.6</ele>
        <time>2022-08-16T06:57:31Z</time>
      </trkpt>
      <trkpt lat="44.46053" lon="6.85015">
        <ele>1974.8</ele>
        <time>2022-08-16T06:57:32Z</time>
      </trkpt>
      <trkpt lat="44.46054" lon="6.85015">
        <ele>1975.2</ele>
        <time>2022-08-16T06:57:33Z</time>
      </trkpt>
      <trkpt lat="44.46054" lon="6.85015">
        <ele>1975.2</ele>
        <time>2022-08-16T06:57:34Z</time>
      </trkpt>
      <trkpt lat="44.46054" lon="6.85014">
        <ele>1975.4</ele>
        <time>2022-08-16T06:57:35Z</time>
      </trkpt>
      <trkpt lat="44.46055" lon="6.85013">
        <ele>1975.6</ele>
        <time>2022-08-16T06:57:37Z</time>
      </trkpt>
      <trkpt lat="44.46055" lon="6.85012">
        <ele>1975.8</ele>
        <time>2022-08-16T06:57:38Z</time>
      </trkpt>
      <trkpt lat="44.46055" lon="6.85012">
        <ele>1976.2</ele>
        <time>2022-08-16T06:57:39Z</time>
      </trkpt>
      <trkpt lat="44.46056" lon="6.8501">
        <ele>1977</ele>
        <time>2022-08-16T06:57:44Z</time>
      </trkpt>
      <trkpt lat="44.46057" lon="6.85008">
        <ele>1977.4</ele>
        <time>2022-08-16T06:57:46Z</time>
      </trkpt>
      <trkpt lat="44.46056" lon="6.85008">
        <ele>1977.6</ele>
        <time>2022-08-16T06:57:47Z</time>
      </trkpt>
      <trkpt lat="44.46056" lon="6.85007">
        <ele>1977.6</ele>
        <time>2022-08-16T06:57:48Z</time>
      </trkpt>
      <trkpt lat="44.46056" lon="6.85006">
        <ele>1977.6</ele>
        <time>2022-08-16T06:57:49Z</time>
      </trkpt>
      <trkpt lat="44.46057" lon="6.85005">
        <ele>1977.8</ele>
        <time>2022-08-16T06:57:50Z</time>
      </trkpt>
      <trkpt lat="44.46057" lon="6.85004">
        <ele>1978</ele>
        <time>2022-08-16T06:57:51Z</time>
      </trkpt>
      <trkpt lat="44.46057" lon="6.85003">
        <ele>1978</ele>
        <time>2022-08-16T06:57:52Z</time>
      </trkpt>
      <trkpt lat="44.46057" lon="6.85003">
        <ele>1978</ele>
        <time>2022-08-16T06:57:53Z</time>
      </trkpt>
      <trkpt lat="44.46058" lon="6.85003">
        <ele>1978.2</ele>
        <time>2022-08-16T06:57:54Z</time>
      </trkpt>
      <trkpt lat="44.46058" lon="6.85003">
        <ele>1978.4</ele>
        <time>2022-08-16T06:57:55Z</time>
      </trkpt>
      <trkpt lat="44.46058" lon="6.85003">
        <ele>1978.6</ele>
        <time>2022-08-16T06:57:56Z</time>
      </trkpt>
      <trkpt lat="44.46058" lon="6.85003">
        <ele>1978.8</ele>
        <time>2022-08-16T06:57:57Z</time>
      </trkpt>
      <trkpt lat="44.46059" lon="6.85004">
        <ele>1978.8</ele>
        <time>2022-08-16T06:57:58Z</time>
      </trkpt>
      <trkpt lat="44.46059" lon="6.85004">
        <ele>1979</ele>
        <time>2022-08-16T06:57:59Z</time>
      </trkpt>
      <trkpt lat="44.4606" lon="6.85004">
        <ele>1979.2</ele>
        <time>2022-08-16T06:58:00Z</time>
      </trkpt>
      <trkpt lat="44.4606" lon="6.85004">
        <ele>1979.4</ele>
        <time>2022-08-16T06:58:01Z</time>
      </trkpt>
      <trkpt lat="44.46061" lon="6.85004">
        <ele>1979.8</ele>
        <time>2022-08-16T06:58:02Z</time>
      </trkpt>
      <trkpt lat="44.46061" lon="6.85004">
        <ele>1980.4</ele>
        <time>2022-08-16T06:58:05Z</time>
      </trkpt>
      <trkpt lat="44.46062" lon="6.85004">
        <ele>1980.8</ele>
        <time>2022-08-16T06:58:07Z</time>
      </trkpt>
      <trkpt lat="44.46064" lon="6.85004">
        <ele>1981.2</ele>
        <time>2022-08-16T06:58:11Z</time>
      </trkpt>
      <trkpt lat="44.46065" lon="6.85004">
        <ele>1981.4</ele>
        <time>2022-08-16T06:58:12Z</time>
      </trkpt>
      <trkpt lat="44.46065" lon="6.85004">
        <ele>1981.4</ele>
        <time>2022-08-16T06:58:13Z</time>
      </trkpt>
      <trkpt lat="44.46065" lon="6.85004">
        <ele>1981.6</ele>
        <time>2022-08-16T06:58:14Z</time>
      </trkpt>
      <trkpt lat="44.46066" lon="6.85004">
        <ele>1981.8</ele>
        <time>2022-08-16T06:58:15Z</time>
      </trkpt>
      <trkpt lat="44.46066" lon="6.85003">
        <ele>1982.4</ele>
        <time>2022-08-16T06:58:17Z</time>
      </trkpt>
      <trkpt lat="44.46067" lon="6.85002">
        <ele>1982.6</ele>
        <time>2022-08-16T06:58:20Z</time>
      </trkpt>
      <trkpt lat="44.46066" lon="6.85001">
        <ele>1982.8</ele>
        <time>2022-08-16T06:58:22Z</time>
      </trkpt>
      <trkpt lat="44.46066" lon="6.85">
        <ele>1983</ele>
        <time>2022-08-16T06:58:23Z</time>
      </trkpt>
      <trkpt lat="44.46066" lon="6.85">
        <ele>1983</ele>
        <time>2022-08-16T06:58:24Z</time>
      </trkpt>
      <trkpt lat="44.46066" lon="6.84999">
        <ele>1983.2</ele>
        <time>2022-08-16T06:58:25Z</time>
      </trkpt>
      <trkpt lat="44.46066" lon="6.84998">
        <ele>1983.4</ele>
        <time>2022-08-16T06:58:26Z</time>
      </trkpt>
      <trkpt lat="44.46067" lon="6.84997">
        <ele>1983.4</ele>
        <time>2022-08-16T06:58:27Z</time>
      </trkpt>
      <trkpt lat="44.46067" lon="6.84996">
        <ele>1983.8</ele>
        <time>2022-08-16T06:58:28Z</time>
      </trkpt>
      <trkpt lat="44.46067" lon="6.84996">
        <ele>1983.8</ele>
        <time>2022-08-16T06:58:29Z</time>
      </trkpt>
      <trkpt lat="44.46067" lon="6.84995">
        <ele>1984</ele>
        <time>2022-08-16T06:58:30Z</time>
      </trkpt>
      <trkpt lat="44.46067" lon="6.84994">
        <ele>1984.2</ele>
        <time>2022-08-16T06:58:33Z</time>
      </trkpt>
      <trkpt lat="44.46069" lon="6.84993">
        <ele>1985</ele>
        <time>2022-08-16T06:58:37Z</time>
      </trkpt>
      <trkpt lat="44.4607" lon="6.84993">
        <ele>1985.8</ele>
        <time>2022-08-16T06:58:41Z</time>
      </trkpt>
      <trkpt lat="44.46071" lon="6.84992">
        <ele>1986.2</ele>
        <time>2022-08-16T06:58:42Z</time>
      </trkpt>
      <trkpt lat="44.46071" lon="6.84991">
        <ele>1986.4</ele>
        <time>2022-08-16T06:58:43Z</time>
      </trkpt>
      <trkpt lat="44.46071" lon="6.8499">
        <ele>1986.8</ele>
        <time>2022-08-16T06:58:44Z</time>
      </trkpt>
      <trkpt lat="44.46071" lon="6.8499">
        <ele>1986.8</ele>
        <time>2022-08-16T06:58:45Z</time>
      </trkpt>
      <trkpt lat="44.46071" lon="6.84988">
        <ele>1987.4</ele>
        <time>2022-08-16T06:58:48Z</time>
      </trkpt>
      <trkpt lat="44.46071" lon="6.84987">
        <ele>1987.4</ele>
        <time>2022-08-16T06:58:49Z</time>
      </trkpt>
      <trkpt lat="44.46072" lon="6.84986">
        <ele>1987.6</ele>
        <time>2022-08-16T06:58:50Z</time>
      </trkpt>
      <trkpt lat="44.46072" lon="6.84986">
        <ele>1987.8</ele>
        <time>2022-08-16T06:58:51Z</time>
      </trkpt>
      <trkpt lat="44.46073" lon="6.84986">
        <ele>1988.4</ele>
        <time>2022-08-16T06:58:55Z</time>
      </trkpt>
      <trkpt lat="44.46074" lon="6.84986">
        <ele>1988.6</ele>
        <time>2022-08-16T06:58:56Z</time>
      </trkpt>
      <trkpt lat="44.46075" lon="6.84985">
        <ele>1988.8</ele>
        <time>2022-08-16T06:58:57Z</time>
      </trkpt>
      <trkpt lat="44.46075" lon="6.84985">
        <ele>1989.2</ele>
        <time>2022-08-16T06:58:58Z</time>
      </trkpt>
      <trkpt lat="44.46075" lon="6.84985">
        <ele>1989.2</ele>
        <time>2022-08-16T06:58:59Z</time>
      </trkpt>
      <trkpt lat="44.46075" lon="6.84984">
        <ele>1989.4</ele>
        <time>2022-08-16T06:59:00Z</time>
      </trkpt>
      <trkpt lat="44.46076" lon="6.84983">
        <ele>1989.6</ele>
        <time>2022-08-16T06:59:01Z</time>
      </trkpt>
      <trkpt lat="44.46076" lon="6.84983">
        <ele>1989.6</ele>
        <time>2022-08-16T06:59:02Z</time>
      </trkpt>
      <trkpt lat="44.46076" lon="6.84983">
        <ele>1990.6</ele>
        <time>2022-08-16T06:59:07Z</time>
      </trkpt>
      <trkpt lat="44.46076" lon="6.84982">
        <ele>1990.6</ele>
        <time>2022-08-16T06:59:08Z</time>
      </trkpt>
      <trkpt lat="44.46077" lon="6.84982">
        <ele>1990.8</ele>
        <time>2022-08-16T06:59:09Z</time>
      </trkpt>
      <trkpt lat="44.46078" lon="6.84983">
        <ele>1991.2</ele>
        <time>2022-08-16T06:59:13Z</time>
      </trkpt>
      <trkpt lat="44.46078" lon="6.84983">
        <ele>1991.2</ele>
        <time>2022-08-16T06:59:14Z</time>
      </trkpt>
      <trkpt lat="44.46079" lon="6.84984">
        <ele>1991.4</ele>
        <time>2022-08-16T06:59:15Z</time>
      </trkpt>
      <trkpt lat="44.46079" lon="6.84983">
        <ele>1991.4</ele>
        <time>2022-08-16T06:59:16Z</time>
      </trkpt>
      <trkpt lat="44.4608" lon="6.84983">
        <ele>1991.4</ele>
        <time>2022-08-16T06:59:17Z</time>
      </trkpt>
      <trkpt lat="44.4608" lon="6.84983">
        <ele>1991.4</ele>
        <time>2022-08-16T06:59:18Z</time>
      </trkpt>
      <trkpt lat="44.46081" lon="6.84982">
        <ele>1991.6</ele>
        <time>2022-08-16T06:59:19Z</time>
      </trkpt>
      <trkpt lat="44.46081" lon="6.84981">
        <ele>1992</ele>
        <time>2022-08-16T06:59:21Z</time>
      </trkpt>
      <trkpt lat="44.46082" lon="6.8498">
        <ele>1992.2</ele>
        <time>2022-08-16T06:59:23Z</time>
      </trkpt>
      <trkpt lat="44.46082" lon="6.8498">
        <ele>1992.4</ele>
        <time>2022-08-16T06:59:24Z</time>
      </trkpt>
      <trkpt lat="44.46083" lon="6.84979">
        <ele>1992.6</ele>
        <time>2022-08-16T06:59:25Z</time>
      </trkpt>
      <trkpt lat="44.46083" lon="6.84979">
        <ele>1992.6</ele>
        <time>2022-08-16T06:59:26Z</time>
      </trkpt>
      <trkpt lat="44.46084" lon="6.84979">
        <ele>1992.8</ele>
        <time>2022-08-16T06:59:28Z</time>
      </trkpt>
      <trkpt lat="44.46084" lon="6.84979">
        <ele>1993</ele>
        <time>2022-08-16T06:59:30Z</time>
      </trkpt>
      <trkpt lat="44.46085" lon="6.84979">
        <ele>1993.4</ele>
        <time>2022-08-16T06:59:32Z</time>
      </trkpt>
      <trkpt lat="44.46085" lon="6.84979">
        <ele>1995</ele>
        <time>2022-08-16T06:59:42Z</time>
      </trkpt>
      <trkpt lat="44.46085" lon="6.8498">
        <ele>1995.4</ele>
        <time>2022-08-16T06:59:45Z</time>
      </trkpt>
      <trkpt lat="44.46087" lon="6.84981">
        <ele>1995.4</ele>
        <time>2022-08-16T06:59:48Z</time>
      </trkpt>
      <trkpt lat="44.46088" lon="6.8498">
        <ele>1995.6</ele>
        <time>2022-08-16T06:59:50Z</time>
      </trkpt>
      <trkpt lat="44.46089" lon="6.8498">
        <ele>1995.6</ele>
        <time>2022-08-16T06:59:51Z</time>
      </trkpt>
      <trkpt lat="44.46089" lon="6.8498">
        <ele>1995.6</ele>
        <time>2022-08-16T06:59:52Z</time>
      </trkpt>
      <trkpt lat="44.4609" lon="6.8498">
        <ele>1995.8</ele>
        <time>2022-08-16T06:59:53Z</time>
      </trkpt>
      <trkpt lat="44.4609" lon="6.8498">
        <ele>1996.2</ele>
        <time>2022-08-16T06:59:54Z</time>
      </trkpt>
      <trkpt lat="44.46091" lon="6.8498">
        <ele>1996.4</ele>
        <time>2022-08-16T06:59:55Z</time>
      </trkpt>
      <trkpt lat="44.46091" lon="6.8498">
        <ele>1996.6</ele>
        <time>2022-08-16T06:59:56Z</time>
      </trkpt>
      <trkpt lat="44.46092" lon="6.84979">
        <ele>1996.6</ele>
        <time>2022-08-16T06:59:57Z</time>
      </trkpt>
      <trkpt lat="44.46093" lon="6.84977">
        <ele>1997</ele>
        <time>2022-08-16T07:00:00Z</time>
      </trkpt>
      <trkpt lat="44.46093" lon="6.84976">
        <ele>1997.2</ele>
        <time>2022-08-16T07:00:02Z</time>
      </trkpt>
      <trkpt lat="44.46094" lon="6.84976">
        <ele>1997.2</ele>
        <time>2022-08-16T07:00:03Z</time>
      </trkpt>
      <trkpt lat="44.46094" lon="6.84975">
        <ele>1997.4</ele>
        <time>2022-08-16T07:00:04Z</time>
      </trkpt>
      <trkpt lat="44.46094" lon="6.84975">
        <ele>1997.6</ele>
        <time>2022-08-16T07:00:05Z</time>
      </trkpt>
      <trkpt lat="44.46095" lon="6.84975">
        <ele>1997.6</ele>
        <time>2022-08-16T07:00:06Z</time>
      </trkpt>
      <trkpt lat="44.46095" lon="6.84974">
        <ele>1997.8</ele>
        <time>2022-08-16T07:00:07Z</time>
      </trkpt>
      <trkpt lat="44.46096" lon="6.84973">
        <ele>1998.4</ele>
        <time>2022-08-16T07:00:09Z</time>
      </trkpt>
      <trkpt lat="44.46096" lon="6.84972">
        <ele>1998.4</ele>
        <time>2022-08-16T07:00:10Z</time>
      </trkpt>
      <trkpt lat="44.46096" lon="6.84971">
        <ele>1998.6</ele>
        <time>2022-08-16T07:00:11Z</time>
      </trkpt>
      <trkpt lat="44.46097" lon="6.8497">
        <ele>1998.6</ele>
        <time>2022-08-16T07:00:12Z</time>
      </trkpt>
      <trkpt lat="44.46097" lon="6.84969">
        <ele>1998.8</ele>
        <time>2022-08-16T07:00:13Z</time>
      </trkpt>
      <trkpt lat="44.46097" lon="6.84968">
        <ele>1999</ele>
        <time>2022-08-16T07:00:14Z</time>
      </trkpt>
      <trkpt lat="44.46097" lon="6.84968">
        <ele>1999.2</ele>
        <time>2022-08-16T07:00:15Z</time>
      </trkpt>
      <trkpt lat="44.46098" lon="6.84967">
        <ele>1999.4</ele>
        <time>2022-08-16T07:00:16Z</time>
      </trkpt>
      <trkpt lat="44.46098" lon="6.84966">
        <ele>1999.4</ele>
        <time>2022-08-16T07:00:17Z</time>
      </trkpt>
      <trkpt lat="44.46098" lon="6.84965">
        <ele>1999.8</ele>
        <time>2022-08-16T07:00:18Z</time>
      </trkpt>
      <trkpt lat="44.46098" lon="6.84964">
        <ele>2000.2</ele>
        <time>2022-08-16T07:00:19Z</time>
      </trkpt>
      <trkpt lat="44.46098" lon="6.84964">
        <ele>2000.4</ele>
        <time>2022-08-16T07:00:20Z</time>
      </trkpt>
      <trkpt lat="44.46099" lon="6.84963">
        <ele>2000.6</ele>
        <time>2022-08-16T07:00:21Z</time>
      </trkpt>
      <trkpt lat="44.46099" lon="6.84963">
        <ele>2000.6</ele>
        <time>2022-08-16T07:00:22Z</time>
      </trkpt>
      <trkpt lat="44.46099" lon="6.84962">
        <ele>2000.6</ele>
        <time>2022-08-16T07:00:24Z</time>
      </trkpt>
      <trkpt lat="44.461" lon="6.84961">
        <ele>2000.8</ele>
        <time>2022-08-16T07:00:25Z</time>
      </trkpt>
      <trkpt lat="44.461" lon="6.84962">
        <ele>2001</ele>
        <time>2022-08-16T07:00:26Z</time>
      </trkpt>
      <trkpt lat="44.461" lon="6.84961">
        <ele>2001</ele>
        <time>2022-08-16T07:00:27Z</time>
      </trkpt>
      <trkpt lat="44.46101" lon="6.84961">
        <ele>2001.2</ele>
        <time>2022-08-16T07:00:28Z</time>
      </trkpt>
      <trkpt lat="44.46101" lon="6.8496">
        <ele>2001.4</ele>
        <time>2022-08-16T07:00:29Z</time>
      </trkpt>
      <trkpt lat="44.46101" lon="6.8496">
        <ele>2001.8</ele>
        <time>2022-08-16T07:00:30Z</time>
      </trkpt>
      <trkpt lat="44.46101" lon="6.84959">
        <ele>2002.2</ele>
        <time>2022-08-16T07:00:32Z</time>
      </trkpt>
      <trkpt lat="44.46102" lon="6.84958">
        <ele>2003.2</ele>
        <time>2022-08-16T07:00:38Z</time>
      </trkpt>
      <trkpt lat="44.46103" lon="6.84956">
        <ele>2003.8</ele>
        <time>2022-08-16T07:00:43Z</time>
      </trkpt>
      <trkpt lat="44.46103" lon="6.84955">
        <ele>2003.8</ele>
        <time>2022-08-16T07:00:46Z</time>
      </trkpt>
      <trkpt lat="44.46103" lon="6.84953">
        <ele>2005</ele>
        <time>2022-08-16T07:00:53Z</time>
      </trkpt>
      <trkpt lat="44.46103" lon="6.84953">
        <ele>2005</ele>
        <time>2022-08-16T07:00:54Z</time>
      </trkpt>
      <trkpt lat="44.46103" lon="6.84953">
        <ele>2005.4</ele>
        <time>2022-08-16T07:00:55Z</time>
      </trkpt>
      <trkpt lat="44.46104" lon="6.84952">
        <ele>2005.6</ele>
        <time>2022-08-16T07:00:56Z</time>
      </trkpt>
      <trkpt lat="44.46104" lon="6.84952">
        <ele>2005.6</ele>
        <time>2022-08-16T07:00:57Z</time>
      </trkpt>
      <trkpt lat="44.46104" lon="6.84951">
        <ele>2005.6</ele>
        <time>2022-08-16T07:00:58Z</time>
      </trkpt>
      <trkpt lat="44.46105" lon="6.8495">
        <ele>2005.6</ele>
        <time>2022-08-16T07:00:59Z</time>
      </trkpt>
      <trkpt lat="44.46106" lon="6.8495">
        <ele>2006</ele>
        <time>2022-08-16T07:01:00Z</time>
      </trkpt>
      <trkpt lat="44.46106" lon="6.8495">
        <ele>2006.4</ele>
        <time>2022-08-16T07:01:02Z</time>
      </trkpt>
      <trkpt lat="44.46106" lon="6.84949">
        <ele>2006.6</ele>
        <time>2022-08-16T07:01:03Z</time>
      </trkpt>
      <trkpt lat="44.46107" lon="6.84949">
        <ele>2006.6</ele>
        <time>2022-08-16T07:01:04Z</time>
      </trkpt>
      <trkpt lat="44.46107" lon="6.84949">
        <ele>2006.8</ele>
        <time>2022-08-16T07:01:05Z</time>
      </trkpt>
      <trkpt lat="44.46108" lon="6.84948">
        <ele>2006.8</ele>
        <time>2022-08-16T07:01:06Z</time>
      </trkpt>
      <trkpt lat="44.46108" lon="6.84948">
        <ele>2006.8</ele>
        <time>2022-08-16T07:01:07Z</time>
      </trkpt>
      <trkpt lat="44.46109" lon="6.84947">
        <ele>2007</ele>
        <time>2022-08-16T07:01:08Z</time>
      </trkpt>
      <trkpt lat="44.46109" lon="6.84947">
        <ele>2007</ele>
        <time>2022-08-16T07:01:09Z</time>
      </trkpt>
      <trkpt lat="44.4611" lon="6.84948">
        <ele>2007.4</ele>
        <time>2022-08-16T07:01:11Z</time>
      </trkpt>
      <trkpt lat="44.4611" lon="6.84949">
        <ele>2007.6</ele>
        <time>2022-08-16T07:01:13Z</time>
      </trkpt>
      <trkpt lat="44.46111" lon="6.84949">
        <ele>2007.8</ele>
        <time>2022-08-16T07:01:14Z</time>
      </trkpt>
      <trkpt lat="44.46111" lon="6.8495">
        <ele>2008.2</ele>
        <time>2022-08-16T07:01:15Z</time>
      </trkpt>
      <trkpt lat="44.46112" lon="6.8495">
        <ele>2008.4</ele>
        <time>2022-08-16T07:01:16Z</time>
      </trkpt>
      <trkpt lat="44.46112" lon="6.84951">
        <ele>2009</ele>
        <time>2022-08-16T07:01:17Z</time>
      </trkpt>
      <trkpt lat="44.46112" lon="6.84951">
        <ele>2009</ele>
        <time>2022-08-16T07:01:18Z</time>
      </trkpt>
      <trkpt lat="44.46113" lon="6.84952">
        <ele>2009.2</ele>
        <time>2022-08-16T07:01:19Z</time>
      </trkpt>
      <trkpt lat="44.46113" lon="6.84953">
        <ele>2009.4</ele>
        <time>2022-08-16T07:01:20Z</time>
      </trkpt>
      <trkpt lat="44.46113" lon="6.84953">
        <ele>2009.6</ele>
        <time>2022-08-16T07:01:21Z</time>
      </trkpt>
      <trkpt lat="44.46114" lon="6.84954">
        <ele>2009.8</ele>
        <time>2022-08-16T07:01:22Z</time>
      </trkpt>
      <trkpt lat="44.46114" lon="6.84954">
        <ele>2010</ele>
        <time>2022-08-16T07:01:23Z</time>
      </trkpt>
      <trkpt lat="44.46114" lon="6.84954">
        <ele>2010.2</ele>
        <time>2022-08-16T07:01:24Z</time>
      </trkpt>
      <trkpt lat="44.46115" lon="6.84955">
        <ele>2010.4</ele>
        <time>2022-08-16T07:01:25Z</time>
      </trkpt>
      <trkpt lat="44.46115" lon="6.84955">
        <ele>2010.6</ele>
        <time>2022-08-16T07:01:26Z</time>
      </trkpt>
      <trkpt lat="44.46116" lon="6.84955">
        <ele>2010.6</ele>
        <time>2022-08-16T07:01:28Z</time>
      </trkpt>
      <trkpt lat="44.46117" lon="6.84955">
        <ele>2010.8</ele>
        <time>2022-08-16T07:01:29Z</time>
      </trkpt>
      <trkpt lat="44.46118" lon="6.84955">
        <ele>2011</ele>
        <time>2022-08-16T07:01:30Z</time>
      </trkpt>
      <trkpt lat="44.46118" lon="6.84955">
        <ele>2011.2</ele>
        <time>2022-08-16T07:01:31Z</time>
      </trkpt>
      <trkpt lat="44.46119" lon="6.84955">
        <ele>2011.2</ele>
        <time>2022-08-16T07:01:32Z</time>
      </trkpt>
      <trkpt lat="44.4612" lon="6.84955">
        <ele>2011.4</ele>
        <time>2022-08-16T07:01:33Z</time>
      </trkpt>
      <trkpt lat="44.46121" lon="6.84955">
        <ele>2011.4</ele>
        <time>2022-08-16T07:01:34Z</time>
      </trkpt>
      <trkpt lat="44.46121" lon="6.84955">
        <ele>2011.6</ele>
        <time>2022-08-16T07:01:35Z</time>
      </trkpt>
      <trkpt lat="44.46122" lon="6.84954">
        <ele>2011.8</ele>
        <time>2022-08-16T07:01:36Z</time>
      </trkpt>
      <trkpt lat="44.46123" lon="6.84954">
        <ele>2011.8</ele>
        <time>2022-08-16T07:01:37Z</time>
      </trkpt>
      <trkpt lat="44.46124" lon="6.84954">
        <ele>2012.2</ele>
        <time>2022-08-16T07:01:38Z</time>
      </trkpt>
      <trkpt lat="44.46125" lon="6.84954">
        <ele>2012.4</ele>
        <time>2022-08-16T07:01:39Z</time>
      </trkpt>
      <trkpt lat="44.46126" lon="6.84954">
        <ele>2012.6</ele>
        <time>2022-08-16T07:01:40Z</time>
      </trkpt>
      <trkpt lat="44.46126" lon="6.84953">
        <ele>2012.8</ele>
        <time>2022-08-16T07:01:41Z</time>
      </trkpt>
      <trkpt lat="44.46126" lon="6.84953">
        <ele>2013</ele>
        <time>2022-08-16T07:01:42Z</time>
      </trkpt>
      <trkpt lat="44.46127" lon="6.84953">
        <ele>2013</ele>
        <time>2022-08-16T07:01:43Z</time>
      </trkpt>
      <trkpt lat="44.46127" lon="6.84953">
        <ele>2013.2</ele>
        <time>2022-08-16T07:01:44Z</time>
      </trkpt>
      <trkpt lat="44.46128" lon="6.84953">
        <ele>2013.4</ele>
        <time>2022-08-16T07:01:45Z</time>
      </trkpt>
      <trkpt lat="44.46128" lon="6.84954">
        <ele>2013.4</ele>
        <time>2022-08-16T07:01:46Z</time>
      </trkpt>
      <trkpt lat="44.46129" lon="6.84954">
        <ele>2013.4</ele>
        <time>2022-08-16T07:01:47Z</time>
      </trkpt>
      <trkpt lat="44.46129" lon="6.84954">
        <ele>2013.6</ele>
        <time>2022-08-16T07:01:48Z</time>
      </trkpt>
      <trkpt lat="44.4613" lon="6.84953">
        <ele>2013.8</ele>
        <time>2022-08-16T07:01:49Z</time>
      </trkpt>
      <trkpt lat="44.4613" lon="6.84953">
        <ele>2013.8</ele>
        <time>2022-08-16T07:01:50Z</time>
      </trkpt>
      <trkpt lat="44.4613" lon="6.84952">
        <ele>2013.8</ele>
        <time>2022-08-16T07:01:51Z</time>
      </trkpt>
      <trkpt lat="44.46131" lon="6.84951">
        <ele>2014</ele>
        <time>2022-08-16T07:01:52Z</time>
      </trkpt>
      <trkpt lat="44.46131" lon="6.8495">
        <ele>2014.2</ele>
        <time>2022-08-16T07:01:53Z</time>
      </trkpt>
      <trkpt lat="44.46131" lon="6.84949">
        <ele>2014.6</ele>
        <time>2022-08-16T07:01:54Z</time>
      </trkpt>
      <trkpt lat="44.46131" lon="6.84948">
        <ele>2014.8</ele>
        <time>2022-08-16T07:01:55Z</time>
      </trkpt>
      <trkpt lat="44.46131" lon="6.84947">
        <ele>2015</ele>
        <time>2022-08-16T07:01:56Z</time>
      </trkpt>
      <trkpt lat="44.46131" lon="6.84946">
        <ele>2015</ele>
        <time>2022-08-16T07:01:57Z</time>
      </trkpt>
      <trkpt lat="44.46131" lon="6.84945">
        <ele>2015.4</ele>
        <time>2022-08-16T07:01:58Z</time>
      </trkpt>
      <trkpt lat="44.46131" lon="6.84944">
        <ele>2015.8</ele>
        <time>2022-08-16T07:01:59Z</time>
      </trkpt>
      <trkpt lat="44.46132" lon="6.84943">
        <ele>2015.6</ele>
        <time>2022-08-16T07:02:00Z</time>
      </trkpt>
      <trkpt lat="44.46132" lon="6.84943">
        <ele>2015.8</ele>
        <time>2022-08-16T07:02:01Z</time>
      </trkpt>
      <trkpt lat="44.46133" lon="6.84942">
        <ele>2016</ele>
        <time>2022-08-16T07:02:02Z</time>
      </trkpt>
      <trkpt lat="44.46133" lon="6.84942">
        <ele>2016</ele>
        <time>2022-08-16T07:02:03Z</time>
      </trkpt>
      <trkpt lat="44.46133" lon="6.84941">
        <ele>2016.2</ele>
        <time>2022-08-16T07:02:04Z</time>
      </trkpt>
      <trkpt lat="44.46134" lon="6.84941">
        <ele>2016.4</ele>
        <time>2022-08-16T07:02:05Z</time>
      </trkpt>
      <trkpt lat="44.46134" lon="6.8494">
        <ele>2016.4</ele>
        <time>2022-08-16T07:02:06Z</time>
      </trkpt>
      <trkpt lat="44.46134" lon="6.84939">
        <ele>2016.4</ele>
        <time>2022-08-16T07:02:07Z</time>
      </trkpt>
      <trkpt lat="44.46134" lon="6.84938">
        <ele>2016.6</ele>
        <time>2022-08-16T07:02:08Z</time>
      </trkpt>
      <trkpt lat="44.46134" lon="6.84937">
        <ele>2016.6</ele>
        <time>2022-08-16T07:02:09Z</time>
      </trkpt>
      <trkpt lat="44.46134" lon="6.84936">
        <ele>2017</ele>
        <time>2022-08-16T07:02:10Z</time>
      </trkpt>
      <trkpt lat="44.46134" lon="6.84934">
        <ele>2017.2</ele>
        <time>2022-08-16T07:02:11Z</time>
      </trkpt>
      <trkpt lat="44.46135" lon="6.84933">
        <ele>2017.2</ele>
        <time>2022-08-16T07:02:12Z</time>
      </trkpt>
      <trkpt lat="44.46135" lon="6.84932">
        <ele>2017.6</ele>
        <time>2022-08-16T07:02:13Z</time>
      </trkpt>
      <trkpt lat="44.46135" lon="6.84931">
        <ele>2017.8</ele>
        <time>2022-08-16T07:02:14Z</time>
      </trkpt>
      <trkpt lat="44.46136" lon="6.8493">
        <ele>2018.2</ele>
        <time>2022-08-16T07:02:15Z</time>
      </trkpt>
      <trkpt lat="44.46136" lon="6.84929">
        <ele>2018.4</ele>
        <time>2022-08-16T07:02:16Z</time>
      </trkpt>
      <trkpt lat="44.46137" lon="6.84928">
        <ele>2018.6</ele>
        <time>2022-08-16T07:02:17Z</time>
      </trkpt>
      <trkpt lat="44.46138" lon="6.84927">
        <ele>2018.8</ele>
        <time>2022-08-16T07:02:18Z</time>
      </trkpt>
      <trkpt lat="44.46138" lon="6.84926">
        <ele>2018.8</ele>
        <time>2022-08-16T07:02:19Z</time>
      </trkpt>
      <trkpt lat="44.46138" lon="6.84925">
        <ele>2018.8</ele>
        <time>2022-08-16T07:02:20Z</time>
      </trkpt>
      <trkpt lat="44.46139" lon="6.84925">
        <ele>2018.8</ele>
        <time>2022-08-16T07:02:21Z</time>
      </trkpt>
      <trkpt lat="44.4614" lon="6.84924">
        <ele>2019</ele>
        <time>2022-08-16T07:02:22Z</time>
      </trkpt>
      <trkpt lat="44.4614" lon="6.84923">
        <ele>2019.2</ele>
        <time>2022-08-16T07:02:23Z</time>
      </trkpt>
      <trkpt lat="44.4614" lon="6.84922">
        <ele>2019.2</ele>
        <time>2022-08-16T07:02:24Z</time>
      </trkpt>
      <trkpt lat="44.4614" lon="6.84921">
        <ele>2019.4</ele>
        <time>2022-08-16T07:02:25Z</time>
      </trkpt>
      <trkpt lat="44.46141" lon="6.8492">
        <ele>2019.4</ele>
        <time>2022-08-16T07:02:26Z</time>
      </trkpt>
      <trkpt lat="44.46141" lon="6.84919">
        <ele>2019.4</ele>
        <time>2022-08-16T07:02:27Z</time>
      </trkpt>
      <trkpt lat="44.46142" lon="6.84918">
        <ele>2019.8</ele>
        <time>2022-08-16T07:02:28Z</time>
      </trkpt>
      <trkpt lat="44.46143" lon="6.84918">
        <ele>2019.8</ele>
        <time>2022-08-16T07:02:29Z</time>
      </trkpt>
      <trkpt lat="44.46144" lon="6.84917">
        <ele>2020</ele>
        <time>2022-08-16T07:02:30Z</time>
      </trkpt>
      <trkpt lat="44.46145" lon="6.84916">
        <ele>2020</ele>
        <time>2022-08-16T07:02:31Z</time>
      </trkpt>
      <trkpt lat="44.46145" lon="6.84915">
        <ele>2020</ele>
        <time>2022-08-16T07:02:32Z</time>
      </trkpt>
      <trkpt lat="44.46146" lon="6.84914">
        <ele>2020</ele>
        <time>2022-08-16T07:02:33Z</time>
      </trkpt>
      <trkpt lat="44.46146" lon="6.84913">
        <ele>2020.2</ele>
        <time>2022-08-16T07:02:34Z</time>
      </trkpt>
      <trkpt lat="44.46147" lon="6.84913">
        <ele>2020.6</ele>
        <time>2022-08-16T07:02:35Z</time>
      </trkpt>
      <trkpt lat="44.46147" lon="6.84912">
        <ele>2020.6</ele>
        <time>2022-08-16T07:02:36Z</time>
      </trkpt>
      <trkpt lat="44.46147" lon="6.84911">
        <ele>2020.8</ele>
        <time>2022-08-16T07:02:37Z</time>
      </trkpt>
      <trkpt lat="44.46148" lon="6.8491">
        <ele>2021.2</ele>
        <time>2022-08-16T07:02:38Z</time>
      </trkpt>
      <trkpt lat="44.46148" lon="6.84909">
        <ele>2021.2</ele>
        <time>2022-08-16T07:02:39Z</time>
      </trkpt>
      <trkpt lat="44.46149" lon="6.84908">
        <ele>2021.2</ele>
        <time>2022-08-16T07:02:40Z</time>
      </trkpt>
      <trkpt lat="44.46149" lon="6.84906">
        <ele>2021.6</ele>
        <time>2022-08-16T07:02:41Z</time>
      </trkpt>
      <trkpt lat="44.46149" lon="6.84906">
        <ele>2021.8</ele>
        <time>2022-08-16T07:02:42Z</time>
      </trkpt>
      <trkpt lat="44.4615" lon="6.84905">
        <ele>2021.6</ele>
        <time>2022-08-16T07:02:43Z</time>
      </trkpt>
      <trkpt lat="44.4615" lon="6.84903">
        <ele>2021.8</ele>
        <time>2022-08-16T07:02:44Z</time>
      </trkpt>
      <trkpt lat="44.4615" lon="6.84902">
        <ele>2021.8</ele>
        <time>2022-08-16T07:02:45Z</time>
      </trkpt>
      <trkpt lat="44.46151" lon="6.84901">
        <ele>2022</ele>
        <time>2022-08-16T07:02:46Z</time>
      </trkpt>
      <trkpt lat="44.46151" lon="6.849">
        <ele>2022</ele>
        <time>2022-08-16T07:02:47Z</time>
      </trkpt>
      <trkpt lat="44.46151" lon="6.84899">
        <ele>2022</ele>
        <time>2022-08-16T07:02:48Z</time>
      </trkpt>
      <trkpt lat="44.46151" lon="6.84898">
        <ele>2022.4</ele>
        <time>2022-08-16T07:02:49Z</time>
      </trkpt>
      <trkpt lat="44.46152" lon="6.84897">
        <ele>2022.4</ele>
        <time>2022-08-16T07:02:50Z</time>
      </trkpt>
      <trkpt lat="44.46153" lon="6.84896">
        <ele>2022.6</ele>
        <time>2022-08-16T07:02:51Z</time>
      </trkpt>
      <trkpt lat="44.46153" lon="6.84896">
        <ele>2022.8</ele>
        <time>2022-08-16T07:02:52Z</time>
      </trkpt>
      <trkpt lat="44.46154" lon="6.84895">
        <ele>2023</ele>
        <time>2022-08-16T07:02:53Z</time>
      </trkpt>
      <trkpt lat="44.46155" lon="6.84895">
        <ele>2023</ele>
        <time>2022-08-16T07:02:54Z</time>
      </trkpt>
      <trkpt lat="44.46155" lon="6.84895">
        <ele>2023</ele>
        <time>2022-08-16T07:02:55Z</time>
      </trkpt>
      <trkpt lat="44.46155" lon="6.84895">
        <ele>2023</ele>
        <time>2022-08-16T07:02:56Z</time>
      </trkpt>
      <trkpt lat="44.46156" lon="6.84895">
        <ele>2023.2</ele>
        <time>2022-08-16T07:02:57Z</time>
      </trkpt>
      <trkpt lat="44.46156" lon="6.84894">
        <ele>2023.8</ele>
        <time>2022-08-16T07:02:59Z</time>
      </trkpt>
      <trkpt lat="44.46156" lon="6.84894">
        <ele>2023.8</ele>
        <time>2022-08-16T07:03:00Z</time>
      </trkpt>
      <trkpt lat="44.46157" lon="6.84894">
        <ele>2024.2</ele>
        <time>2022-08-16T07:03:03Z</time>
      </trkpt>
      <trkpt lat="44.46157" lon="6.84894">
        <ele>2024.2</ele>
        <time>2022-08-16T07:03:06Z</time>
      </trkpt>
      <trkpt lat="44.46157" lon="6.84893">
        <ele>2024.2</ele>
        <time>2022-08-16T07:03:08Z</time>
      </trkpt>
      <trkpt lat="44.46157" lon="6.84892">
        <ele>2024.2</ele>
        <time>2022-08-16T07:03:09Z</time>
      </trkpt>
      <trkpt lat="44.46157" lon="6.84892">
        <ele>2024.4</ele>
        <time>2022-08-16T07:03:10Z</time>
      </trkpt>
      <trkpt lat="44.46157" lon="6.84892">
        <ele>2024.2</ele>
        <time>2022-08-16T07:03:11Z</time>
      </trkpt>
      <trkpt lat="44.46157" lon="6.84891">
        <ele>2024.4</ele>
        <time>2022-08-16T07:03:14Z</time>
      </trkpt>
      <trkpt lat="44.46157" lon="6.84891">
        <ele>2024.4</ele>
        <time>2022-08-16T07:03:15Z</time>
      </trkpt>
      <trkpt lat="44.46157" lon="6.84891">
        <ele>2024.4</ele>
        <time>2022-08-16T07:03:16Z</time>
      </trkpt>
      <trkpt lat="44.46157" lon="6.84891">
        <ele>2024.4</ele>
        <time>2022-08-16T07:03:18Z</time>
      </trkpt>
      <trkpt lat="44.46157" lon="6.84891">
        <ele>2024.4</ele>
        <time>2022-08-16T07:03:22Z</time>
      </trkpt>
      <trkpt lat="44.46157" lon="6.84891">
        <ele>2024.4</ele>
        <time>2022-08-16T07:03:23Z</time>
      </trkpt>
      <trkpt lat="44.46157" lon="6.84891">
        <ele>2024.4</ele>
        <time>2022-08-16T07:03:24Z</time>
      </trkpt>
      <trkpt lat="44.46158" lon="6.8489">
        <ele>2024.4</ele>
        <time>2022-08-16T07:03:25Z</time>
      </trkpt>
      <trkpt lat="44.46162" lon="6.8488">
        <ele>2025</ele>
        <time>2022-08-16T07:03:31Z</time>
      </trkpt>
      <trkpt lat="44.46162" lon="6.84878">
        <ele>2025</ele>
        <time>2022-08-16T07:03:32Z</time>
      </trkpt>
      <trkpt lat="44.46162" lon="6.84876">
        <ele>2025.2</ele>
        <time>2022-08-16T07:03:33Z</time>
      </trkpt>
      <trkpt lat="44.46164" lon="6.8487">
        <ele>2025.4</ele>
        <time>2022-08-16T07:03:36Z</time>
      </trkpt>
      <trkpt lat="44.46164" lon="6.84868">
        <ele>2025.6</ele>
        <time>2022-08-16T07:03:37Z</time>
      </trkpt>
      <trkpt lat="44.46165" lon="6.84866">
        <ele>2025.8</ele>
        <time>2022-08-16T07:03:38Z</time>
      </trkpt>
      <trkpt lat="44.46165" lon="6.84864">
        <ele>2025.8</ele>
        <time>2022-08-16T07:03:39Z</time>
      </trkpt>
      <trkpt lat="44.46166" lon="6.84863">
        <ele>2025.8</ele>
        <time>2022-08-16T07:03:40Z</time>
      </trkpt>
      <trkpt lat="44.46167" lon="6.84861">
        <ele>2026</ele>
        <time>2022-08-16T07:03:41Z</time>
      </trkpt>
      <trkpt lat="44.46168" lon="6.8486">
        <ele>2026.2</ele>
        <time>2022-08-16T07:03:42Z</time>
      </trkpt>
      <trkpt lat="44.46169" lon="6.84859">
        <ele>2026.2</ele>
        <time>2022-08-16T07:03:43Z</time>
      </trkpt>
      <trkpt lat="44.4617" lon="6.84857">
        <ele>2026.4</ele>
        <time>2022-08-16T07:03:44Z</time>
      </trkpt>
      <trkpt lat="44.46171" lon="6.84856">
        <ele>2026.4</ele>
        <time>2022-08-16T07:03:45Z</time>
      </trkpt>
      <trkpt lat="44.46172" lon="6.84855">
        <ele>2026.6</ele>
        <time>2022-08-16T07:03:46Z</time>
      </trkpt>
      <trkpt lat="44.46173" lon="6.84854">
        <ele>2026.6</ele>
        <time>2022-08-16T07:03:47Z</time>
      </trkpt>
      <trkpt lat="44.46174" lon="6.84853">
        <ele>2026.8</ele>
        <time>2022-08-16T07:03:48Z</time>
      </trkpt>
      <trkpt lat="44.46175" lon="6.84852">
        <ele>2027</ele>
        <time>2022-08-16T07:03:49Z</time>
      </trkpt>
      <trkpt lat="44.46176" lon="6.8485">
        <ele>2027.2</ele>
        <time>2022-08-16T07:03:50Z</time>
      </trkpt>
      <trkpt lat="44.46177" lon="6.84849">
        <ele>2027.4</ele>
        <time>2022-08-16T07:03:51Z</time>
      </trkpt>
      <trkpt lat="44.46178" lon="6.84848">
        <ele>2027.8</ele>
        <time>2022-08-16T07:03:52Z</time>
      </trkpt>
      <trkpt lat="44.46179" lon="6.84847">
        <ele>2027.8</ele>
        <time>2022-08-16T07:03:53Z</time>
      </trkpt>
      <trkpt lat="44.4618" lon="6.84847">
        <ele>2028.2</ele>
        <time>2022-08-16T07:03:54Z</time>
      </trkpt>
      <trkpt lat="44.46181" lon="6.84846">
        <ele>2028.4</ele>
        <time>2022-08-16T07:03:55Z</time>
      </trkpt>
      <trkpt lat="44.46182" lon="6.84845">
        <ele>2028.6</ele>
        <time>2022-08-16T07:03:56Z</time>
      </trkpt>
      <trkpt lat="44.46183" lon="6.84845">
        <ele>2029</ele>
        <time>2022-08-16T07:03:57Z</time>
      </trkpt>
      <trkpt lat="44.46184" lon="6.84845">
        <ele>2029.2</ele>
        <time>2022-08-16T07:03:58Z</time>
      </trkpt>
      <trkpt lat="44.46185" lon="6.84845">
        <ele>2029.4</ele>
        <time>2022-08-16T07:03:59Z</time>
      </trkpt>
      <trkpt lat="44.46186" lon="6.84845">
        <ele>2029.6</ele>
        <time>2022-08-16T07:04:00Z</time>
      </trkpt>
      <trkpt lat="44.46188" lon="6.84845">
        <ele>2029.6</ele>
        <time>2022-08-16T07:04:01Z</time>
      </trkpt>
      <trkpt lat="44.46188" lon="6.84845">
        <ele>2029.6</ele>
        <time>2022-08-16T07:04:02Z</time>
      </trkpt>
      <trkpt lat="44.4619" lon="6.84845">
        <ele>2029.8</ele>
        <time>2022-08-16T07:04:03Z</time>
      </trkpt>
      <trkpt lat="44.46191" lon="6.84845">
        <ele>2030</ele>
        <time>2022-08-16T07:04:04Z</time>
      </trkpt>
      <trkpt lat="44.46191" lon="6.84844">
        <ele>2030.4</ele>
        <time>2022-08-16T07:04:05Z</time>
      </trkpt>
      <trkpt lat="44.46192" lon="6.84843">
        <ele>2030.8</ele>
        <time>2022-08-16T07:04:06Z</time>
      </trkpt>
      <trkpt lat="44.46192" lon="6.84842">
        <ele>2031</ele>
        <time>2022-08-16T07:04:07Z</time>
      </trkpt>
      <trkpt lat="44.46193" lon="6.84841">
        <ele>2031.2</ele>
        <time>2022-08-16T07:04:08Z</time>
      </trkpt>
      <trkpt lat="44.46194" lon="6.8484">
        <ele>2031.4</ele>
        <time>2022-08-16T07:04:09Z</time>
      </trkpt>
      <trkpt lat="44.46194" lon="6.84838">
        <ele>2031.6</ele>
        <time>2022-08-16T07:04:10Z</time>
      </trkpt>
      <trkpt lat="44.46195" lon="6.84837">
        <ele>2031.8</ele>
        <time>2022-08-16T07:04:11Z</time>
      </trkpt>
      <trkpt lat="44.46196" lon="6.84837">
        <ele>2032</ele>
        <time>2022-08-16T07:04:12Z</time>
      </trkpt>
      <trkpt lat="44.46197" lon="6.84837">
        <ele>2032.8</ele>
        <time>2022-08-16T07:04:15Z</time>
      </trkpt>
      <trkpt lat="44.46197" lon="6.84837">
        <ele>2033</ele>
        <time>2022-08-16T07:04:16Z</time>
      </trkpt>
      <trkpt lat="44.46198" lon="6.84837">
        <ele>2033.2</ele>
        <time>2022-08-16T07:04:17Z</time>
      </trkpt>
      <trkpt lat="44.46199" lon="6.84837">
        <ele>2033.2</ele>
        <time>2022-08-16T07:04:18Z</time>
      </trkpt>
      <trkpt lat="44.462" lon="6.84837">
        <ele>2033.2</ele>
        <time>2022-08-16T07:04:19Z</time>
      </trkpt>
      <trkpt lat="44.46201" lon="6.84837">
        <ele>2033.6</ele>
        <time>2022-08-16T07:04:20Z</time>
      </trkpt>
      <trkpt lat="44.46201" lon="6.84836">
        <ele>2033.8</ele>
        <time>2022-08-16T07:04:21Z</time>
      </trkpt>
      <trkpt lat="44.46202" lon="6.84836">
        <ele>2034</ele>
        <time>2022-08-16T07:04:22Z</time>
      </trkpt>
      <trkpt lat="44.46203" lon="6.84835">
        <ele>2034</ele>
        <time>2022-08-16T07:04:23Z</time>
      </trkpt>
      <trkpt lat="44.46203" lon="6.84835">
        <ele>2034</ele>
        <time>2022-08-16T07:04:24Z</time>
      </trkpt>
      <trkpt lat="44.46204" lon="6.84835">
        <ele>2034.2</ele>
        <time>2022-08-16T07:04:25Z</time>
      </trkpt>
      <trkpt lat="44.46205" lon="6.84835">
        <ele>2034</ele>
        <time>2022-08-16T07:04:26Z</time>
      </trkpt>
      <trkpt lat="44.46206" lon="6.84835">
        <ele>2034.2</ele>
        <time>2022-08-16T07:04:27Z</time>
      </trkpt>
      <trkpt lat="44.46206" lon="6.84835">
        <ele>2034.6</ele>
        <time>2022-08-16T07:04:28Z</time>
      </trkpt>
      <trkpt lat="44.46207" lon="6.84835">
        <ele>2034.6</ele>
        <time>2022-08-16T07:04:29Z</time>
      </trkpt>
      <trkpt lat="44.46208" lon="6.84835">
        <ele>2034.8</ele>
        <time>2022-08-16T07:04:30Z</time>
      </trkpt>
      <trkpt lat="44.46209" lon="6.84835">
        <ele>2035</ele>
        <time>2022-08-16T07:04:31Z</time>
      </trkpt>
      <trkpt lat="44.46209" lon="6.84835">
        <ele>2035</ele>
        <time>2022-08-16T07:04:32Z</time>
      </trkpt>
      <trkpt lat="44.4621" lon="6.84835">
        <ele>2035.6</ele>
        <time>2022-08-16T07:04:34Z</time>
      </trkpt>
      <trkpt lat="44.4621" lon="6.84835">
        <ele>2035.6</ele>
        <time>2022-08-16T07:04:35Z</time>
      </trkpt>
      <trkpt lat="44.46211" lon="6.84835">
        <ele>2035.8</ele>
        <time>2022-08-16T07:04:36Z</time>
      </trkpt>
      <trkpt lat="44.46211" lon="6.84835">
        <ele>2036.2</ele>
        <time>2022-08-16T07:04:37Z</time>
      </trkpt>
      <trkpt lat="44.46212" lon="6.84834">
        <ele>2036.2</ele>
        <time>2022-08-16T07:04:38Z</time>
      </trkpt>
      <trkpt lat="44.46213" lon="6.84834">
        <ele>2036.4</ele>
        <time>2022-08-16T07:04:39Z</time>
      </trkpt>
      <trkpt lat="44.46213" lon="6.84833">
        <ele>2036.6</ele>
        <time>2022-08-16T07:04:40Z</time>
      </trkpt>
      <trkpt lat="44.46214" lon="6.84833">
        <ele>2036.8</ele>
        <time>2022-08-16T07:04:41Z</time>
      </trkpt>
      <trkpt lat="44.46215" lon="6.84832">
        <ele>2036.8</ele>
        <time>2022-08-16T07:04:42Z</time>
      </trkpt>
      <trkpt lat="44.46216" lon="6.84832">
        <ele>2036.8</ele>
        <time>2022-08-16T07:04:43Z</time>
      </trkpt>
      <trkpt lat="44.46217" lon="6.84832">
        <ele>2036.8</ele>
        <time>2022-08-16T07:04:44Z</time>
      </trkpt>
      <trkpt lat="44.46217" lon="6.84831">
        <ele>2037</ele>
        <time>2022-08-16T07:04:45Z</time>
      </trkpt>
      <trkpt lat="44.46218" lon="6.84831">
        <ele>2037</ele>
        <time>2022-08-16T07:04:46Z</time>
      </trkpt>
      <trkpt lat="44.46219" lon="6.8483">
        <ele>2037.2</ele>
        <time>2022-08-16T07:04:47Z</time>
      </trkpt>
      <trkpt lat="44.46219" lon="6.84829">
        <ele>2037.4</ele>
        <time>2022-08-16T07:04:48Z</time>
      </trkpt>
      <trkpt lat="44.4622" lon="6.84829">
        <ele>2037.4</ele>
        <time>2022-08-16T07:04:49Z</time>
      </trkpt>
      <trkpt lat="44.4622" lon="6.84828">
        <ele>2037.6</ele>
        <time>2022-08-16T07:04:50Z</time>
      </trkpt>
      <trkpt lat="44.46221" lon="6.84828">
        <ele>2037.8</ele>
        <time>2022-08-16T07:04:51Z</time>
      </trkpt>
      <trkpt lat="44.46222" lon="6.84828">
        <ele>2038</ele>
        <time>2022-08-16T07:04:52Z</time>
      </trkpt>
      <trkpt lat="44.46223" lon="6.84828">
        <ele>2038</ele>
        <time>2022-08-16T07:04:53Z</time>
      </trkpt>
      <trkpt lat="44.46224" lon="6.84828">
        <ele>2038.2</ele>
        <time>2022-08-16T07:04:54Z</time>
      </trkpt>
      <trkpt lat="44.46224" lon="6.84828">
        <ele>2038.4</ele>
        <time>2022-08-16T07:04:55Z</time>
      </trkpt>
      <trkpt lat="44.46225" lon="6.84828">
        <ele>2038.8</ele>
        <time>2022-08-16T07:04:56Z</time>
      </trkpt>
      <trkpt lat="44.46226" lon="6.84828">
        <ele>2038.8</ele>
        <time>2022-08-16T07:04:57Z</time>
      </trkpt>
      <trkpt lat="44.46227" lon="6.84828">
        <ele>2039.2</ele>
        <time>2022-08-16T07:04:58Z</time>
      </trkpt>
      <trkpt lat="44.46227" lon="6.84828">
        <ele>2039.4</ele>
        <time>2022-08-16T07:04:59Z</time>
      </trkpt>
      <trkpt lat="44.46228" lon="6.84828">
        <ele>2039.4</ele>
        <time>2022-08-16T07:05:00Z</time>
      </trkpt>
      <trkpt lat="44.46228" lon="6.84828">
        <ele>2039.6</ele>
        <time>2022-08-16T07:05:01Z</time>
      </trkpt>
      <trkpt lat="44.46229" lon="6.84827">
        <ele>2039.8</ele>
        <time>2022-08-16T07:05:02Z</time>
      </trkpt>
      <trkpt lat="44.46229" lon="6.84827">
        <ele>2039.8</ele>
        <time>2022-08-16T07:05:03Z</time>
      </trkpt>
      <trkpt lat="44.4623" lon="6.84826">
        <ele>2040.2</ele>
        <time>2022-08-16T07:05:04Z</time>
      </trkpt>
      <trkpt lat="44.4623" lon="6.84825">
        <ele>2040.4</ele>
        <time>2022-08-16T07:05:05Z</time>
      </trkpt>
      <trkpt lat="44.4623" lon="6.84824">
        <ele>2040.4</ele>
        <time>2022-08-16T07:05:06Z</time>
      </trkpt>
      <trkpt lat="44.4623" lon="6.84824">
        <ele>2040.6</ele>
        <time>2022-08-16T07:05:07Z</time>
      </trkpt>
      <trkpt lat="44.46231" lon="6.84823">
        <ele>2040.8</ele>
        <time>2022-08-16T07:05:08Z</time>
      </trkpt>
      <trkpt lat="44.46231" lon="6.84822">
        <ele>2041</ele>
        <time>2022-08-16T07:05:09Z</time>
      </trkpt>
      <trkpt lat="44.46231" lon="6.84822">
        <ele>2041</ele>
        <time>2022-08-16T07:05:10Z</time>
      </trkpt>
      <trkpt lat="44.46231" lon="6.84821">
        <ele>2041.2</ele>
        <time>2022-08-16T07:05:11Z</time>
      </trkpt>
      <trkpt lat="44.46232" lon="6.8482">
        <ele>2041.4</ele>
        <time>2022-08-16T07:05:12Z</time>
      </trkpt>
      <trkpt lat="44.46232" lon="6.84819">
        <ele>2041.8</ele>
        <time>2022-08-16T07:05:14Z</time>
      </trkpt>
      <trkpt lat="44.46232" lon="6.84819">
        <ele>2042.2</ele>
        <time>2022-08-16T07:05:16Z</time>
      </trkpt>
      <trkpt lat="44.46232" lon="6.84819">
        <ele>2042.2</ele>
        <time>2022-08-16T07:05:17Z</time>
      </trkpt>
      <trkpt lat="44.46233" lon="6.84819">
        <ele>2042.4</ele>
        <time>2022-08-16T07:05:18Z</time>
      </trkpt>
      <trkpt lat="44.46233" lon="6.84818">
        <ele>2042.4</ele>
        <time>2022-08-16T07:05:19Z</time>
      </trkpt>
      <trkpt lat="44.46234" lon="6.84817">
        <ele>2042.6</ele>
        <time>2022-08-16T07:05:20Z</time>
      </trkpt>
      <trkpt lat="44.46235" lon="6.84817">
        <ele>2042.6</ele>
        <time>2022-08-16T07:05:21Z</time>
      </trkpt>
      <trkpt lat="44.46235" lon="6.84817">
        <ele>2042.6</ele>
        <time>2022-08-16T07:05:22Z</time>
      </trkpt>
      <trkpt lat="44.46236" lon="6.84816">
        <ele>2043</ele>
        <time>2022-08-16T07:05:23Z</time>
      </trkpt>
      <trkpt lat="44.46236" lon="6.84816">
        <ele>2042.8</ele>
        <time>2022-08-16T07:05:24Z</time>
      </trkpt>
      <trkpt lat="44.46237" lon="6.84816">
        <ele>2043</ele>
        <time>2022-08-16T07:05:25Z</time>
      </trkpt>
      <trkpt lat="44.46238" lon="6.84816">
        <ele>2043</ele>
        <time>2022-08-16T07:05:26Z</time>
      </trkpt>
      <trkpt lat="44.46239" lon="6.84816">
        <ele>2043</ele>
        <time>2022-08-16T07:05:27Z</time>
      </trkpt>
      <trkpt lat="44.46239" lon="6.84816">
        <ele>2043.2</ele>
        <time>2022-08-16T07:05:28Z</time>
      </trkpt>
      <trkpt lat="44.4624" lon="6.84817">
        <ele>2043.2</ele>
        <time>2022-08-16T07:05:29Z</time>
      </trkpt>
      <trkpt lat="44.46241" lon="6.84817">
        <ele>2043.4</ele>
        <time>2022-08-16T07:05:30Z</time>
      </trkpt>
      <trkpt lat="44.46241" lon="6.84817">
        <ele>2043.6</ele>
        <time>2022-08-16T07:05:31Z</time>
      </trkpt>
      <trkpt lat="44.46242" lon="6.84817">
        <ele>2043.8</ele>
        <time>2022-08-16T07:05:32Z</time>
      </trkpt>
      <trkpt lat="44.46242" lon="6.84817">
        <ele>2044</ele>
        <time>2022-08-16T07:05:33Z</time>
      </trkpt>
      <trkpt lat="44.46243" lon="6.84817">
        <ele>2044.2</ele>
        <time>2022-08-16T07:05:34Z</time>
      </trkpt>
      <trkpt lat="44.46243" lon="6.84817">
        <ele>2044.2</ele>
        <time>2022-08-16T07:05:35Z</time>
      </trkpt>
      <trkpt lat="44.46244" lon="6.84817">
        <ele>2044.6</ele>
        <time>2022-08-16T07:05:36Z</time>
      </trkpt>
      <trkpt lat="44.46244" lon="6.84816">
        <ele>2044.6</ele>
        <time>2022-08-16T07:05:37Z</time>
      </trkpt>
      <trkpt lat="44.46245" lon="6.84816">
        <ele>2045</ele>
        <time>2022-08-16T07:05:38Z</time>
      </trkpt>
      <trkpt lat="44.46246" lon="6.84815">
        <ele>2045.2</ele>
        <time>2022-08-16T07:05:39Z</time>
      </trkpt>
      <trkpt lat="44.46246" lon="6.84815">
        <ele>2045.2</ele>
        <time>2022-08-16T07:05:40Z</time>
      </trkpt>
      <trkpt lat="44.46247" lon="6.84815">
        <ele>2045.4</ele>
        <time>2022-08-16T07:05:41Z</time>
      </trkpt>
      <trkpt lat="44.46247" lon="6.84814">
        <ele>2045.6</ele>
        <time>2022-08-16T07:05:42Z</time>
      </trkpt>
      <trkpt lat="44.46248" lon="6.84814">
        <ele>2045.6</ele>
        <time>2022-08-16T07:05:43Z</time>
      </trkpt>
      <trkpt lat="44.46249" lon="6.84814">
        <ele>2045.8</ele>
        <time>2022-08-16T07:05:44Z</time>
      </trkpt>
      <trkpt lat="44.46249" lon="6.84814">
        <ele>2045.8</ele>
        <time>2022-08-16T07:05:45Z</time>
      </trkpt>
      <trkpt lat="44.4625" lon="6.84814">
        <ele>2046</ele>
        <time>2022-08-16T07:05:46Z</time>
      </trkpt>
      <trkpt lat="44.46251" lon="6.84814">
        <ele>2046</ele>
        <time>2022-08-16T07:05:47Z</time>
      </trkpt>
      <trkpt lat="44.46252" lon="6.84814">
        <ele>2046.4</ele>
        <time>2022-08-16T07:05:48Z</time>
      </trkpt>
      <trkpt lat="44.46252" lon="6.84814">
        <ele>2046.4</ele>
        <time>2022-08-16T07:05:49Z</time>
      </trkpt>
      <trkpt lat="44.46253" lon="6.84814">
        <ele>2046.6</ele>
        <time>2022-08-16T07:05:50Z</time>
      </trkpt>
      <trkpt lat="44.46254" lon="6.84814">
        <ele>2046.6</ele>
        <time>2022-08-16T07:05:51Z</time>
      </trkpt>
      <trkpt lat="44.46255" lon="6.84814">
        <ele>2046.6</ele>
        <time>2022-08-16T07:05:52Z</time>
      </trkpt>
      <trkpt lat="44.46255" lon="6.84814">
        <ele>2046.8</ele>
        <time>2022-08-16T07:05:53Z</time>
      </trkpt>
      <trkpt lat="44.46256" lon="6.84814">
        <ele>2047</ele>
        <time>2022-08-16T07:05:54Z</time>
      </trkpt>
      <trkpt lat="44.46256" lon="6.84814">
        <ele>2047.2</ele>
        <time>2022-08-16T07:05:55Z</time>
      </trkpt>
      <trkpt lat="44.46257" lon="6.84813">
        <ele>2047.4</ele>
        <time>2022-08-16T07:05:56Z</time>
      </trkpt>
      <trkpt lat="44.46257" lon="6.84812">
        <ele>2047.6</ele>
        <time>2022-08-16T07:05:57Z</time>
      </trkpt>
      <trkpt lat="44.46258" lon="6.84811">
        <ele>2047.6</ele>
        <time>2022-08-16T07:05:58Z</time>
      </trkpt>
      <trkpt lat="44.46258" lon="6.8481">
        <ele>2048</ele>
        <time>2022-08-16T07:05:59Z</time>
      </trkpt>
      <trkpt lat="44.46259" lon="6.8481">
        <ele>2048.2</ele>
        <time>2022-08-16T07:06:00Z</time>
      </trkpt>
      <trkpt lat="44.46259" lon="6.84809">
        <ele>2048.4</ele>
        <time>2022-08-16T07:06:01Z</time>
      </trkpt>
      <trkpt lat="44.4626" lon="6.84808">
        <ele>2048.4</ele>
        <time>2022-08-16T07:06:02Z</time>
      </trkpt>
      <trkpt lat="44.4626" lon="6.84808">
        <ele>2048.6</ele>
        <time>2022-08-16T07:06:03Z</time>
      </trkpt>
      <trkpt lat="44.4626" lon="6.84808">
        <ele>2049.4</ele>
        <time>2022-08-16T07:06:08Z</time>
      </trkpt>
      <trkpt lat="44.4626" lon="6.84807">
        <ele>2049.6</ele>
        <time>2022-08-16T07:06:09Z</time>
      </trkpt>
      <trkpt lat="44.4626" lon="6.84806">
        <ele>2050</ele>
        <time>2022-08-16T07:06:10Z</time>
      </trkpt>
      <trkpt lat="44.46261" lon="6.84805">
        <ele>2050</ele>
        <time>2022-08-16T07:06:11Z</time>
      </trkpt>
      <trkpt lat="44.46261" lon="6.84804">
        <ele>2050</ele>
        <time>2022-08-16T07:06:12Z</time>
      </trkpt>
      <trkpt lat="44.46261" lon="6.84802">
        <ele>2050</ele>
        <time>2022-08-16T07:06:13Z</time>
      </trkpt>
      <trkpt lat="44.46262" lon="6.84801">
        <ele>2050.2</ele>
        <time>2022-08-16T07:06:14Z</time>
      </trkpt>
      <trkpt lat="44.46262" lon="6.848">
        <ele>2050.2</ele>
        <time>2022-08-16T07:06:15Z</time>
      </trkpt>
      <trkpt lat="44.46263" lon="6.84799">
        <ele>2050.2</ele>
        <time>2022-08-16T07:06:16Z</time>
      </trkpt>
      <trkpt lat="44.46264" lon="6.84797">
        <ele>2050.2</ele>
        <time>2022-08-16T07:06:17Z</time>
      </trkpt>
      <trkpt lat="44.46264" lon="6.84796">
        <ele>2050.2</ele>
        <time>2022-08-16T07:06:18Z</time>
      </trkpt>
      <trkpt lat="44.46265" lon="6.84795">
        <ele>2050.4</ele>
        <time>2022-08-16T07:06:19Z</time>
      </trkpt>
      <trkpt lat="44.46265" lon="6.84794">
        <ele>2050.4</ele>
        <time>2022-08-16T07:06:20Z</time>
      </trkpt>
      <trkpt lat="44.46266" lon="6.84792">
        <ele>2050.4</ele>
        <time>2022-08-16T07:06:21Z</time>
      </trkpt>
      <trkpt lat="44.46267" lon="6.84791">
        <ele>2050.8</ele>
        <time>2022-08-16T07:06:22Z</time>
      </trkpt>
      <trkpt lat="44.46267" lon="6.8479">
        <ele>2051</ele>
        <time>2022-08-16T07:06:23Z</time>
      </trkpt>
      <trkpt lat="44.46268" lon="6.84789">
        <ele>2051.2</ele>
        <time>2022-08-16T07:06:24Z</time>
      </trkpt>
      <trkpt lat="44.46269" lon="6.84787">
        <ele>2051.4</ele>
        <time>2022-08-16T07:06:25Z</time>
      </trkpt>
      <trkpt lat="44.46269" lon="6.84786">
        <ele>2051.4</ele>
        <time>2022-08-16T07:06:26Z</time>
      </trkpt>
      <trkpt lat="44.4627" lon="6.84784">
        <ele>2051.6</ele>
        <time>2022-08-16T07:06:27Z</time>
      </trkpt>
      <trkpt lat="44.4627" lon="6.84782">
        <ele>2051.6</ele>
        <time>2022-08-16T07:06:28Z</time>
      </trkpt>
      <trkpt lat="44.4627" lon="6.84781">
        <ele>2051.8</ele>
        <time>2022-08-16T07:06:29Z</time>
      </trkpt>
      <trkpt lat="44.46271" lon="6.84779">
        <ele>2052</ele>
        <time>2022-08-16T07:06:30Z</time>
      </trkpt>
      <trkpt lat="44.46271" lon="6.84779">
        <ele>2052.2</ele>
        <time>2022-08-16T07:06:31Z</time>
      </trkpt>
      <trkpt lat="44.46272" lon="6.84777">
        <ele>2052.4</ele>
        <time>2022-08-16T07:06:32Z</time>
      </trkpt>
      <trkpt lat="44.46273" lon="6.84776">
        <ele>2052.6</ele>
        <time>2022-08-16T07:06:33Z</time>
      </trkpt>
      <trkpt lat="44.46273" lon="6.84774">
        <ele>2052.6</ele>
        <time>2022-08-16T07:06:34Z</time>
      </trkpt>
      <trkpt lat="44.46274" lon="6.84773">
        <ele>2052.8</ele>
        <time>2022-08-16T07:06:35Z</time>
      </trkpt>
      <trkpt lat="44.46274" lon="6.84772">
        <ele>2053</ele>
        <time>2022-08-16T07:06:36Z</time>
      </trkpt>
      <trkpt lat="44.46275" lon="6.84771">
        <ele>2053.4</ele>
        <time>2022-08-16T07:06:37Z</time>
      </trkpt>
      <trkpt lat="44.46276" lon="6.8477">
        <ele>2053.6</ele>
        <time>2022-08-16T07:06:38Z</time>
      </trkpt>
      <trkpt lat="44.46277" lon="6.84769">
        <ele>2054</ele>
        <time>2022-08-16T07:06:39Z</time>
      </trkpt>
      <trkpt lat="44.46278" lon="6.84768">
        <ele>2054</ele>
        <time>2022-08-16T07:06:40Z</time>
      </trkpt>
      <trkpt lat="44.46279" lon="6.84768">
        <ele>2054</ele>
        <time>2022-08-16T07:06:41Z</time>
      </trkpt>
      <trkpt lat="44.4628" lon="6.84767">
        <ele>2054</ele>
        <time>2022-08-16T07:06:42Z</time>
      </trkpt>
      <trkpt lat="44.46281" lon="6.84766">
        <ele>2054.4</ele>
        <time>2022-08-16T07:06:43Z</time>
      </trkpt>
      <trkpt lat="44.46282" lon="6.84765">
        <ele>2054.4</ele>
        <time>2022-08-16T07:06:44Z</time>
      </trkpt>
      <trkpt lat="44.46283" lon="6.84764">
        <ele>2054.4</ele>
        <time>2022-08-16T07:06:45Z</time>
      </trkpt>
      <trkpt lat="44.46284" lon="6.84763">
        <ele>2054.6</ele>
        <time>2022-08-16T07:06:46Z</time>
      </trkpt>
      <trkpt lat="44.46285" lon="6.84762">
        <ele>2055</ele>
        <time>2022-08-16T07:06:47Z</time>
      </trkpt>
      <trkpt lat="44.46286" lon="6.84761">
        <ele>2055.2</ele>
        <time>2022-08-16T07:06:48Z</time>
      </trkpt>
      <trkpt lat="44.46287" lon="6.8476">
        <ele>2055.4</ele>
        <time>2022-08-16T07:06:49Z</time>
      </trkpt>
      <trkpt lat="44.46288" lon="6.8476">
        <ele>2055.6</ele>
        <time>2022-08-16T07:06:50Z</time>
      </trkpt>
      <trkpt lat="44.46289" lon="6.84761">
        <ele>2055.6</ele>
        <time>2022-08-16T07:06:51Z</time>
      </trkpt>
      <trkpt lat="44.4629" lon="6.84761">
        <ele>2056</ele>
        <time>2022-08-16T07:06:52Z</time>
      </trkpt>
      <trkpt lat="44.46291" lon="6.84762">
        <ele>2056.2</ele>
        <time>2022-08-16T07:06:53Z</time>
      </trkpt>
      <trkpt lat="44.46292" lon="6.84763">
        <ele>2056.4</ele>
        <time>2022-08-16T07:06:54Z</time>
      </trkpt>
      <trkpt lat="44.46293" lon="6.84763">
        <ele>2056.6</ele>
        <time>2022-08-16T07:06:55Z</time>
      </trkpt>
      <trkpt lat="44.46294" lon="6.84764">
        <ele>2056.6</ele>
        <time>2022-08-16T07:06:56Z</time>
      </trkpt>
      <trkpt lat="44.46295" lon="6.84764">
        <ele>2057</ele>
        <time>2022-08-16T07:06:57Z</time>
      </trkpt>
      <trkpt lat="44.46296" lon="6.84764">
        <ele>2057</ele>
        <time>2022-08-16T07:06:58Z</time>
      </trkpt>
      <trkpt lat="44.46297" lon="6.84764">
        <ele>2057.4</ele>
        <time>2022-08-16T07:06:59Z</time>
      </trkpt>
      <trkpt lat="44.46298" lon="6.84763">
        <ele>2057.4</ele>
        <time>2022-08-16T07:07:00Z</time>
      </trkpt>
      <trkpt lat="44.46299" lon="6.84763">
        <ele>2057.6</ele>
        <time>2022-08-16T07:07:01Z</time>
      </trkpt>
      <trkpt lat="44.463" lon="6.84763">
        <ele>2057.8</ele>
        <time>2022-08-16T07:07:02Z</time>
      </trkpt>
      <trkpt lat="44.46302" lon="6.84762">
        <ele>2058</ele>
        <time>2022-08-16T07:07:03Z</time>
      </trkpt>
      <trkpt lat="44.46303" lon="6.84762">
        <ele>2058.2</ele>
        <time>2022-08-16T07:07:04Z</time>
      </trkpt>
      <trkpt lat="44.46304" lon="6.84762">
        <ele>2058.6</ele>
        <time>2022-08-16T07:07:05Z</time>
      </trkpt>
      <trkpt lat="44.46305" lon="6.84761">
        <ele>2058.6</ele>
        <time>2022-08-16T07:07:06Z</time>
      </trkpt>
      <trkpt lat="44.46306" lon="6.84761">
        <ele>2058.8</ele>
        <time>2022-08-16T07:07:07Z</time>
      </trkpt>
      <trkpt lat="44.46307" lon="6.84761">
        <ele>2059</ele>
        <time>2022-08-16T07:07:08Z</time>
      </trkpt>
      <trkpt lat="44.46308" lon="6.84761">
        <ele>2059</ele>
        <time>2022-08-16T07:07:09Z</time>
      </trkpt>
      <trkpt lat="44.46309" lon="6.84761">
        <ele>2059.2</ele>
        <time>2022-08-16T07:07:10Z</time>
      </trkpt>
      <trkpt lat="44.4631" lon="6.8476">
        <ele>2059.4</ele>
        <time>2022-08-16T07:07:11Z</time>
      </trkpt>
      <trkpt lat="44.46311" lon="6.84761">
        <ele>2059.6</ele>
        <time>2022-08-16T07:07:12Z</time>
      </trkpt>
      <trkpt lat="44.46312" lon="6.84761">
        <ele>2060</ele>
        <time>2022-08-16T07:07:13Z</time>
      </trkpt>
      <trkpt lat="44.46313" lon="6.84761">
        <ele>2060</ele>
        <time>2022-08-16T07:07:14Z</time>
      </trkpt>
      <trkpt lat="44.46315" lon="6.84762">
        <ele>2060.2</ele>
        <time>2022-08-16T07:07:15Z</time>
      </trkpt>
      <trkpt lat="44.46316" lon="6.84763">
        <ele>2060.4</ele>
        <time>2022-08-16T07:07:16Z</time>
      </trkpt>
      <trkpt lat="44.46318" lon="6.84763">
        <ele>2060.6</ele>
        <time>2022-08-16T07:07:17Z</time>
      </trkpt>
      <trkpt lat="44.46319" lon="6.84763">
        <ele>2060.8</ele>
        <time>2022-08-16T07:07:18Z</time>
      </trkpt>
      <trkpt lat="44.46319" lon="6.84763">
        <ele>2061</ele>
        <time>2022-08-16T07:07:19Z</time>
      </trkpt>
      <trkpt lat="44.46319" lon="6.84762">
        <ele>2061.4</ele>
        <time>2022-08-16T07:07:22Z</time>
      </trkpt>
      <trkpt lat="44.46319" lon="6.84762">
        <ele>2062.4</ele>
        <time>2022-08-16T07:07:26Z</time>
      </trkpt>
      <trkpt lat="44.46319" lon="6.84762">
        <ele>2063</ele>
        <time>2022-08-16T07:07:31Z</time>
      </trkpt>
      <trkpt lat="44.4632" lon="6.84762">
        <ele>2063.2</ele>
        <time>2022-08-16T07:07:33Z</time>
      </trkpt>
      <trkpt lat="44.4632" lon="6.84762">
        <ele>2063.2</ele>
        <time>2022-08-16T07:07:34Z</time>
      </trkpt>
      <trkpt lat="44.46321" lon="6.84762">
        <ele>2063.2</ele>
        <time>2022-08-16T07:07:35Z</time>
      </trkpt>
      <trkpt lat="44.46322" lon="6.84763">
        <ele>2063.2</ele>
        <time>2022-08-16T07:07:36Z</time>
      </trkpt>
      <trkpt lat="44.46325" lon="6.84764">
        <ele>2063.4</ele>
        <time>2022-08-16T07:07:39Z</time>
      </trkpt>
      <trkpt lat="44.46327" lon="6.84765">
        <ele>2063.2</ele>
        <time>2022-08-16T07:07:42Z</time>
      </trkpt>
      <trkpt lat="44.46328" lon="6.84765">
        <ele>2063.4</ele>
        <time>2022-08-16T07:07:43Z</time>
      </trkpt>
      <trkpt lat="44.46331" lon="6.84767">
        <ele>2063.8</ele>
        <time>2022-08-16T07:07:46Z</time>
      </trkpt>
      <trkpt lat="44.46333" lon="6.84768">
        <ele>2064</ele>
        <time>2022-08-16T07:07:48Z</time>
      </trkpt>
      <trkpt lat="44.46334" lon="6.84768">
        <ele>2064.2</ele>
        <time>2022-08-16T07:07:49Z</time>
      </trkpt>
      <trkpt lat="44.46335" lon="6.84769">
        <ele>2064.4</ele>
        <time>2022-08-16T07:07:50Z</time>
      </trkpt>
      <trkpt lat="44.46336" lon="6.84769">
        <ele>2064.4</ele>
        <time>2022-08-16T07:07:51Z</time>
      </trkpt>
      <trkpt lat="44.46338" lon="6.8477">
        <ele>2064.4</ele>
        <time>2022-08-16T07:07:52Z</time>
      </trkpt>
      <trkpt lat="44.46339" lon="6.84771">
        <ele>2064.4</ele>
        <time>2022-08-16T07:07:53Z</time>
      </trkpt>
      <trkpt lat="44.46339" lon="6.84771">
        <ele>2064.8</ele>
        <time>2022-08-16T07:07:54Z</time>
      </trkpt>
      <trkpt lat="44.4634" lon="6.84772">
        <ele>2065</ele>
        <time>2022-08-16T07:07:55Z</time>
      </trkpt>
      <trkpt lat="44.46341" lon="6.84773">
        <ele>2065.2</ele>
        <time>2022-08-16T07:07:56Z</time>
      </trkpt>
      <trkpt lat="44.46342" lon="6.84773">
        <ele>2065.6</ele>
        <time>2022-08-16T07:07:57Z</time>
      </trkpt>
      <trkpt lat="44.46343" lon="6.84774">
        <ele>2065.8</ele>
        <time>2022-08-16T07:07:58Z</time>
      </trkpt>
      <trkpt lat="44.46344" lon="6.84774">
        <ele>2066</ele>
        <time>2022-08-16T07:07:59Z</time>
      </trkpt>
      <trkpt lat="44.46345" lon="6.84775">
        <ele>2066.2</ele>
        <time>2022-08-16T07:08:00Z</time>
      </trkpt>
      <trkpt lat="44.46346" lon="6.84775">
        <ele>2066.4</ele>
        <time>2022-08-16T07:08:01Z</time>
      </trkpt>
      <trkpt lat="44.46347" lon="6.84776">
        <ele>2066.6</ele>
        <time>2022-08-16T07:08:02Z</time>
      </trkpt>
      <trkpt lat="44.46348" lon="6.84777">
        <ele>2067.2</ele>
        <time>2022-08-16T07:08:03Z</time>
      </trkpt>
      <trkpt lat="44.46349" lon="6.84777">
        <ele>2067.2</ele>
        <time>2022-08-16T07:08:04Z</time>
      </trkpt>
      <trkpt lat="44.4635" lon="6.84778">
        <ele>2067.2</ele>
        <time>2022-08-16T07:08:05Z</time>
      </trkpt>
      <trkpt lat="44.46351" lon="6.84779">
        <ele>2067.6</ele>
        <time>2022-08-16T07:08:06Z</time>
      </trkpt>
      <trkpt lat="44.46352" lon="6.84779">
        <ele>2068</ele>
        <time>2022-08-16T07:08:07Z</time>
      </trkpt>
      <trkpt lat="44.46353" lon="6.8478">
        <ele>2068</ele>
        <time>2022-08-16T07:08:08Z</time>
      </trkpt>
      <trkpt lat="44.46354" lon="6.8478">
        <ele>2068</ele>
        <time>2022-08-16T07:08:09Z</time>
      </trkpt>
      <trkpt lat="44.46355" lon="6.84781">
        <ele>2068.2</ele>
        <time>2022-08-16T07:08:10Z</time>
      </trkpt>
      <trkpt lat="44.46356" lon="6.84782">
        <ele>2068.6</ele>
        <time>2022-08-16T07:08:11Z</time>
      </trkpt>
      <trkpt lat="44.46357" lon="6.84783">
        <ele>2068.4</ele>
        <time>2022-08-16T07:08:12Z</time>
      </trkpt>
      <trkpt lat="44.46358" lon="6.84784">
        <ele>2068.8</ele>
        <time>2022-08-16T07:08:13Z</time>
      </trkpt>
      <trkpt lat="44.46359" lon="6.84784">
        <ele>2069</ele>
        <time>2022-08-16T07:08:14Z</time>
      </trkpt>
      <trkpt lat="44.4636" lon="6.84785">
        <ele>2069</ele>
        <time>2022-08-16T07:08:15Z</time>
      </trkpt>
      <trkpt lat="44.46361" lon="6.84786">
        <ele>2069</ele>
        <time>2022-08-16T07:08:16Z</time>
      </trkpt>
      <trkpt lat="44.46362" lon="6.84787">
        <ele>2069.4</ele>
        <time>2022-08-16T07:08:17Z</time>
      </trkpt>
      <trkpt lat="44.46363" lon="6.84787">
        <ele>2069.2</ele>
        <time>2022-08-16T07:08:18Z</time>
      </trkpt>
      <trkpt lat="44.46364" lon="6.84788">
        <ele>2069.4</ele>
        <time>2022-08-16T07:08:19Z</time>
      </trkpt>
      <trkpt lat="44.46365" lon="6.84789">
        <ele>2069.6</ele>
        <time>2022-08-16T07:08:20Z</time>
      </trkpt>
      <trkpt lat="44.46366" lon="6.8479">
        <ele>2070</ele>
        <time>2022-08-16T07:08:21Z</time>
      </trkpt>
      <trkpt lat="44.46366" lon="6.84791">
        <ele>2070</ele>
        <time>2022-08-16T07:08:22Z</time>
      </trkpt>
      <trkpt lat="44.46367" lon="6.84792">
        <ele>2070.2</ele>
        <time>2022-08-16T07:08:23Z</time>
      </trkpt>
      <trkpt lat="44.46368" lon="6.84792">
        <ele>2070.4</ele>
        <time>2022-08-16T07:08:24Z</time>
      </trkpt>
      <trkpt lat="44.46369" lon="6.84793">
        <ele>2070.4</ele>
        <time>2022-08-16T07:08:25Z</time>
      </trkpt>
      <trkpt lat="44.4637" lon="6.84793">
        <ele>2070.4</ele>
        <time>2022-08-16T07:08:26Z</time>
      </trkpt>
      <trkpt lat="44.4637" lon="6.84794">
        <ele>2070.8</ele>
        <time>2022-08-16T07:08:27Z</time>
      </trkpt>
      <trkpt lat="44.46371" lon="6.84794">
        <ele>2071</ele>
        <time>2022-08-16T07:08:28Z</time>
      </trkpt>
      <trkpt lat="44.46371" lon="6.84795">
        <ele>2071.2</ele>
        <time>2022-08-16T07:08:29Z</time>
      </trkpt>
      <trkpt lat="44.46372" lon="6.84796">
        <ele>2071.4</ele>
        <time>2022-08-16T07:08:30Z</time>
      </trkpt>
      <trkpt lat="44.46373" lon="6.84797">
        <ele>2071.4</ele>
        <time>2022-08-16T07:08:31Z</time>
      </trkpt>
      <trkpt lat="44.46373" lon="6.84798">
        <ele>2071.6</ele>
        <time>2022-08-16T07:08:32Z</time>
      </trkpt>
      <trkpt lat="44.46374" lon="6.84799">
        <ele>2071.8</ele>
        <time>2022-08-16T07:08:33Z</time>
      </trkpt>
      <trkpt lat="44.46375" lon="6.848">
        <ele>2071.8</ele>
        <time>2022-08-16T07:08:34Z</time>
      </trkpt>
      <trkpt lat="44.46376" lon="6.84801">
        <ele>2071.8</ele>
        <time>2022-08-16T07:08:35Z</time>
      </trkpt>
      <trkpt lat="44.46377" lon="6.84802">
        <ele>2072</ele>
        <time>2022-08-16T07:08:36Z</time>
      </trkpt>
      <trkpt lat="44.46378" lon="6.84803">
        <ele>2072.2</ele>
        <time>2022-08-16T07:08:37Z</time>
      </trkpt>
      <trkpt lat="44.46379" lon="6.84803">
        <ele>2072.4</ele>
        <time>2022-08-16T07:08:38Z</time>
      </trkpt>
      <trkpt lat="44.46379" lon="6.84804">
        <ele>2072.2</ele>
        <time>2022-08-16T07:08:39Z</time>
      </trkpt>
      <trkpt lat="44.4638" lon="6.84804">
        <ele>2072.4</ele>
        <time>2022-08-16T07:08:40Z</time>
      </trkpt>
      <trkpt lat="44.46381" lon="6.84805">
        <ele>2072.6</ele>
        <time>2022-08-16T07:08:41Z</time>
      </trkpt>
      <trkpt lat="44.46382" lon="6.84805">
        <ele>2072.8</ele>
        <time>2022-08-16T07:08:42Z</time>
      </trkpt>
      <trkpt lat="44.46383" lon="6.84806">
        <ele>2073.2</ele>
        <time>2022-08-16T07:08:43Z</time>
      </trkpt>
      <trkpt lat="44.46385" lon="6.84807">
        <ele>2073</ele>
        <time>2022-08-16T07:08:44Z</time>
      </trkpt>
      <trkpt lat="44.46386" lon="6.84807">
        <ele>2073.4</ele>
        <time>2022-08-16T07:08:45Z</time>
      </trkpt>
      <trkpt lat="44.46387" lon="6.84808">
        <ele>2073.6</ele>
        <time>2022-08-16T07:08:46Z</time>
      </trkpt>
      <trkpt lat="44.46388" lon="6.84808">
        <ele>2073.8</ele>
        <time>2022-08-16T07:08:47Z</time>
      </trkpt>
      <trkpt lat="44.46389" lon="6.84809">
        <ele>2073.8</ele>
        <time>2022-08-16T07:08:48Z</time>
      </trkpt>
      <trkpt lat="44.46389" lon="6.8481">
        <ele>2073.8</ele>
        <time>2022-08-16T07:08:49Z</time>
      </trkpt>
      <trkpt lat="44.4639" lon="6.84811">
        <ele>2074</ele>
        <time>2022-08-16T07:08:50Z</time>
      </trkpt>
      <trkpt lat="44.4639" lon="6.84812">
        <ele>2074.2</ele>
        <time>2022-08-16T07:08:51Z</time>
      </trkpt>
      <trkpt lat="44.46391" lon="6.84812">
        <ele>2076</ele>
        <time>2022-08-16T07:08:56Z</time>
      </trkpt>
      <trkpt lat="44.46391" lon="6.84812">
        <ele>2077.4</ele>
        <time>2022-08-16T07:09:06Z</time>
      </trkpt>
      <trkpt lat="44.46391" lon="6.84813">
        <ele>2077.2</ele>
        <time>2022-08-16T07:09:07Z</time>
      </trkpt>
      <trkpt lat="44.46392" lon="6.84814">
        <ele>2077.4</ele>
        <time>2022-08-16T07:09:08Z</time>
      </trkpt>
      <trkpt lat="44.46393" lon="6.84815">
        <ele>2077.4</ele>
        <time>2022-08-16T07:09:09Z</time>
      </trkpt>
      <trkpt lat="44.46394" lon="6.84816">
        <ele>2077.4</ele>
        <time>2022-08-16T07:09:10Z</time>
      </trkpt>
      <trkpt lat="44.46394" lon="6.84817">
        <ele>2077.4</ele>
        <time>2022-08-16T07:09:11Z</time>
      </trkpt>
      <trkpt lat="44.46395" lon="6.84818">
        <ele>2077.6</ele>
        <time>2022-08-16T07:09:12Z</time>
      </trkpt>
      <trkpt lat="44.46395" lon="6.84819">
        <ele>2077.6</ele>
        <time>2022-08-16T07:09:13Z</time>
      </trkpt>
      <trkpt lat="44.46396" lon="6.8482">
        <ele>2077.6</ele>
        <time>2022-08-16T07:09:14Z</time>
      </trkpt>
      <trkpt lat="44.46396" lon="6.84821">
        <ele>2077.6</ele>
        <time>2022-08-16T07:09:15Z</time>
      </trkpt>
      <trkpt lat="44.46397" lon="6.84822">
        <ele>2077.8</ele>
        <time>2022-08-16T07:09:16Z</time>
      </trkpt>
      <trkpt lat="44.46398" lon="6.84824">
        <ele>2078</ele>
        <time>2022-08-16T07:09:17Z</time>
      </trkpt>
      <trkpt lat="44.46398" lon="6.84825">
        <ele>2078.2</ele>
        <time>2022-08-16T07:09:18Z</time>
      </trkpt>
      <trkpt lat="44.46399" lon="6.84826">
        <ele>2078.2</ele>
        <time>2022-08-16T07:09:19Z</time>
      </trkpt>
      <trkpt lat="44.464" lon="6.84827">
        <ele>2078.4</ele>
        <time>2022-08-16T07:09:20Z</time>
      </trkpt>
      <trkpt lat="44.46401" lon="6.84828">
        <ele>2078.6</ele>
        <time>2022-08-16T07:09:21Z</time>
      </trkpt>
      <trkpt lat="44.46402" lon="6.84829">
        <ele>2078.8</ele>
        <time>2022-08-16T07:09:22Z</time>
      </trkpt>
      <trkpt lat="44.46403" lon="6.8483">
        <ele>2079.2</ele>
        <time>2022-08-16T07:09:23Z</time>
      </trkpt>
      <trkpt lat="44.46404" lon="6.84831">
        <ele>2079.4</ele>
        <time>2022-08-16T07:09:24Z</time>
      </trkpt>
      <trkpt lat="44.46405" lon="6.84831">
        <ele>2079.6</ele>
        <time>2022-08-16T07:09:25Z</time>
      </trkpt>
      <trkpt lat="44.46405" lon="6.84832">
        <ele>2080</ele>
        <time>2022-08-16T07:09:26Z</time>
      </trkpt>
      <trkpt lat="44.46406" lon="6.84833">
        <ele>2080</ele>
        <time>2022-08-16T07:09:27Z</time>
      </trkpt>
      <trkpt lat="44.46407" lon="6.84834">
        <ele>2080</ele>
        <time>2022-08-16T07:09:28Z</time>
      </trkpt>
      <trkpt lat="44.46408" lon="6.84834">
        <ele>2080.2</ele>
        <time>2022-08-16T07:09:29Z</time>
      </trkpt>
      <trkpt lat="44.46409" lon="6.84833">
        <ele>2080.4</ele>
        <time>2022-08-16T07:09:30Z</time>
      </trkpt>
      <trkpt lat="44.4641" lon="6.84832">
        <ele>2080.4</ele>
        <time>2022-08-16T07:09:31Z</time>
      </trkpt>
      <trkpt lat="44.4641" lon="6.8483">
        <ele>2080.8</ele>
        <time>2022-08-16T07:09:32Z</time>
      </trkpt>
      <trkpt lat="44.46411" lon="6.84828">
        <ele>2080.8</ele>
        <time>2022-08-16T07:09:33Z</time>
      </trkpt>
      <trkpt lat="44.46412" lon="6.84825">
        <ele>2081</ele>
        <time>2022-08-16T07:09:34Z</time>
      </trkpt>
      <trkpt lat="44.46412" lon="6.84822">
        <ele>2081.4</ele>
        <time>2022-08-16T07:09:35Z</time>
      </trkpt>
      <trkpt lat="44.46413" lon="6.84819">
        <ele>2081.6</ele>
        <time>2022-08-16T07:09:36Z</time>
      </trkpt>
      <trkpt lat="44.46413" lon="6.84816">
        <ele>2081.8</ele>
        <time>2022-08-16T07:09:37Z</time>
      </trkpt>
      <trkpt lat="44.46414" lon="6.84813">
        <ele>2082</ele>
        <time>2022-08-16T07:09:38Z</time>
      </trkpt>
      <trkpt lat="44.46414" lon="6.84811">
        <ele>2082</ele>
        <time>2022-08-16T07:09:39Z</time>
      </trkpt>
      <trkpt lat="44.46414" lon="6.84809">
        <ele>2082</ele>
        <time>2022-08-16T07:09:40Z</time>
      </trkpt>
      <trkpt lat="44.46414" lon="6.84807">
        <ele>2082</ele>
        <time>2022-08-16T07:09:41Z</time>
      </trkpt>
      <trkpt lat="44.46414" lon="6.84804">
        <ele>2082</ele>
        <time>2022-08-16T07:09:42Z</time>
      </trkpt>
      <trkpt lat="44.46414" lon="6.84801">
        <ele>2082.2</ele>
        <time>2022-08-16T07:09:43Z</time>
      </trkpt>
      <trkpt lat="44.46414" lon="6.84799">
        <ele>2082.2</ele>
        <time>2022-08-16T07:09:44Z</time>
      </trkpt>
      <trkpt lat="44.46414" lon="6.84796">
        <ele>2082.2</ele>
        <time>2022-08-16T07:09:45Z</time>
      </trkpt>
      <trkpt lat="44.46414" lon="6.84794">
        <ele>2082.4</ele>
        <time>2022-08-16T07:09:46Z</time>
      </trkpt>
      <trkpt lat="44.46413" lon="6.84791">
        <ele>2082.6</ele>
        <time>2022-08-16T07:09:47Z</time>
      </trkpt>
      <trkpt lat="44.46413" lon="6.84785">
        <ele>2082.6</ele>
        <time>2022-08-16T07:09:49Z</time>
      </trkpt>
      <trkpt lat="44.46413" lon="6.84775">
        <ele>2082.6</ele>
        <time>2022-08-16T07:09:52Z</time>
      </trkpt>
      <trkpt lat="44.46413" lon="6.84772">
        <ele>2082.8</ele>
        <time>2022-08-16T07:09:53Z</time>
      </trkpt>
      <trkpt lat="44.46412" lon="6.84765">
        <ele>2082.8</ele>
        <time>2022-08-16T07:09:55Z</time>
      </trkpt>
      <trkpt lat="44.46413" lon="6.84762">
        <ele>2082.8</ele>
        <time>2022-08-16T07:09:56Z</time>
      </trkpt>
      <trkpt lat="44.46414" lon="6.84756">
        <ele>2082.8</ele>
        <time>2022-08-16T07:09:58Z</time>
      </trkpt>
      <trkpt lat="44.46415" lon="6.84753">
        <ele>2082.8</ele>
        <time>2022-08-16T07:09:59Z</time>
      </trkpt>
      <trkpt lat="44.46416" lon="6.8475">
        <ele>2082.8</ele>
        <time>2022-08-16T07:10:00Z</time>
      </trkpt>
      <trkpt lat="44.46417" lon="6.84748">
        <ele>2082.8</ele>
        <time>2022-08-16T07:10:01Z</time>
      </trkpt>
      <trkpt lat="44.46418" lon="6.84746">
        <ele>2082.8</ele>
        <time>2022-08-16T07:10:02Z</time>
      </trkpt>
      <trkpt lat="44.46419" lon="6.84744">
        <ele>2082.8</ele>
        <time>2022-08-16T07:10:03Z</time>
      </trkpt>
      <trkpt lat="44.4642" lon="6.84742">
        <ele>2082.8</ele>
        <time>2022-08-16T07:10:04Z</time>
      </trkpt>
      <trkpt lat="44.46427" lon="6.84731">
        <ele>2082.6</ele>
        <time>2022-08-16T07:10:08Z</time>
      </trkpt>
      <trkpt lat="44.46429" lon="6.8473">
        <ele>2082.6</ele>
        <time>2022-08-16T07:10:09Z</time>
      </trkpt>
      <trkpt lat="44.4643" lon="6.84729">
        <ele>2082.2</ele>
        <time>2022-08-16T07:10:10Z</time>
      </trkpt>
      <trkpt lat="44.46432" lon="6.84728">
        <ele>2082.2</ele>
        <time>2022-08-16T07:10:11Z</time>
      </trkpt>
      <trkpt lat="44.46433" lon="6.84727">
        <ele>2082.2</ele>
        <time>2022-08-16T07:10:12Z</time>
      </trkpt>
      <trkpt lat="44.46434" lon="6.84726">
        <ele>2082.2</ele>
        <time>2022-08-16T07:10:13Z</time>
      </trkpt>
      <trkpt lat="44.46435" lon="6.84726">
        <ele>2082.2</ele>
        <time>2022-08-16T07:10:14Z</time>
      </trkpt>
      <trkpt lat="44.4644" lon="6.84721">
        <ele>2082</ele>
        <time>2022-08-16T07:10:18Z</time>
      </trkpt>
      <trkpt lat="44.46442" lon="6.84719">
        <ele>2082</ele>
        <time>2022-08-16T07:10:19Z</time>
      </trkpt>
      <trkpt lat="44.46447" lon="6.84716">
        <ele>2082.2</ele>
        <time>2022-08-16T07:10:21Z</time>
      </trkpt>
      <trkpt lat="44.46452" lon="6.84711">
        <ele>2082.2</ele>
        <time>2022-08-16T07:10:23Z</time>
      </trkpt>
      <trkpt lat="44.46454" lon="6.84702">
        <ele>2082.2</ele>
        <time>2022-08-16T07:10:25Z</time>
      </trkpt>
      <trkpt lat="44.46454" lon="6.84697">
        <ele>2082.2</ele>
        <time>2022-08-16T07:10:26Z</time>
      </trkpt>
      <trkpt lat="44.46454" lon="6.84692">
        <ele>2082.4</ele>
        <time>2022-08-16T07:10:27Z</time>
      </trkpt>
      <trkpt lat="44.46453" lon="6.84687">
        <ele>2082.2</ele>
        <time>2022-08-16T07:10:28Z</time>
      </trkpt>
      <trkpt lat="44.46453" lon="6.84677">
        <ele>2082.2</ele>
        <time>2022-08-16T07:10:30Z</time>
      </trkpt>
      <trkpt lat="44.46456" lon="6.84651">
        <ele>2081.6</ele>
        <time>2022-08-16T07:10:35Z</time>
      </trkpt>
      <trkpt lat="44.46457" lon="6.84646">
        <ele>2081.4</ele>
        <time>2022-08-16T07:10:36Z</time>
      </trkpt>
      <trkpt lat="44.46458" lon="6.84641">
        <ele>2081.2</ele>
        <time>2022-08-16T07:10:37Z</time>
      </trkpt>
      <trkpt lat="44.46463" lon="6.84632">
        <ele>2081</ele>
        <time>2022-08-16T07:10:39Z</time>
      </trkpt>
      <trkpt lat="44.46468" lon="6.84623">
        <ele>2080.8</ele>
        <time>2022-08-16T07:10:41Z</time>
      </trkpt>
      <trkpt lat="44.46471" lon="6.84618">
        <ele>2080.6</ele>
        <time>2022-08-16T07:10:42Z</time>
      </trkpt>
      <trkpt lat="44.46481" lon="6.84595">
        <ele>2080.2</ele>
        <time>2022-08-16T07:10:46Z</time>
      </trkpt>
      <trkpt lat="44.46483" lon="6.84589">
        <ele>2080.2</ele>
        <time>2022-08-16T07:10:47Z</time>
      </trkpt>
      <trkpt lat="44.46489" lon="6.84578">
        <ele>2080</ele>
        <time>2022-08-16T07:10:49Z</time>
      </trkpt>
      <trkpt lat="44.46492" lon="6.84571">
        <ele>2079.4</ele>
        <time>2022-08-16T07:10:50Z</time>
      </trkpt>
      <trkpt lat="44.46494" lon="6.84563">
        <ele>2078.6</ele>
        <time>2022-08-16T07:10:51Z</time>
      </trkpt>
      <trkpt lat="44.46498" lon="6.84547">
        <ele>2077.8</ele>
        <time>2022-08-16T07:10:53Z</time>
      </trkpt>
      <trkpt lat="44.465" lon="6.84539">
        <ele>2077.8</ele>
        <time>2022-08-16T07:10:54Z</time>
      </trkpt>
      <trkpt lat="44.46502" lon="6.84532">
        <ele>2077.4</ele>
        <time>2022-08-16T07:10:55Z</time>
      </trkpt>
      <trkpt lat="44.46504" lon="6.84525">
        <ele>2077</ele>
        <time>2022-08-16T07:10:56Z</time>
      </trkpt>
      <trkpt lat="44.46506" lon="6.84519">
        <ele>2076.8</ele>
        <time>2022-08-16T07:10:57Z</time>
      </trkpt>
      <trkpt lat="44.46508" lon="6.84513">
        <ele>2076.6</ele>
        <time>2022-08-16T07:10:58Z</time>
      </trkpt>
      <trkpt lat="44.46508" lon="6.84506">
        <ele>2075.8</ele>
        <time>2022-08-16T07:10:59Z</time>
      </trkpt>
      <trkpt lat="44.46509" lon="6.84501">
        <ele>2075</ele>
        <time>2022-08-16T07:11:00Z</time>
      </trkpt>
      <trkpt lat="44.46512" lon="6.84497">
        <ele>2074.8</ele>
        <time>2022-08-16T07:11:01Z</time>
      </trkpt>
      <trkpt lat="44.46516" lon="6.84493">
        <ele>2074.6</ele>
        <time>2022-08-16T07:11:02Z</time>
      </trkpt>
      <trkpt lat="44.46519" lon="6.84489">
        <ele>2074.6</ele>
        <time>2022-08-16T07:11:03Z</time>
      </trkpt>
      <trkpt lat="44.46522" lon="6.84483">
        <ele>2074.2</ele>
        <time>2022-08-16T07:11:04Z</time>
      </trkpt>
      <trkpt lat="44.46524" lon="6.84478">
        <ele>2074</ele>
        <time>2022-08-16T07:11:05Z</time>
      </trkpt>
      <trkpt lat="44.46526" lon="6.84472">
        <ele>2074.2</ele>
        <time>2022-08-16T07:11:06Z</time>
      </trkpt>
      <trkpt lat="44.46528" lon="6.84466">
        <ele>2074</ele>
        <time>2022-08-16T07:11:07Z</time>
      </trkpt>
      <trkpt lat="44.46529" lon="6.8446">
        <ele>2073.2</ele>
        <time>2022-08-16T07:11:08Z</time>
      </trkpt>
      <trkpt lat="44.46532" lon="6.84455">
        <ele>2072.4</ele>
        <time>2022-08-16T07:11:09Z</time>
      </trkpt>
      <trkpt lat="44.46534" lon="6.84451">
        <ele>2071.6</ele>
        <time>2022-08-16T07:11:10Z</time>
      </trkpt>
      <trkpt lat="44.46541" lon="6.84442">
        <ele>2070.8</ele>
        <time>2022-08-16T07:11:12Z</time>
      </trkpt>
      <trkpt lat="44.46548" lon="6.84433">
        <ele>2070.8</ele>
        <time>2022-08-16T07:11:14Z</time>
      </trkpt>
      <trkpt lat="44.46551" lon="6.84429">
        <ele>2070.6</ele>
        <time>2022-08-16T07:11:15Z</time>
      </trkpt>
      <trkpt lat="44.46553" lon="6.84424">
        <ele>2070.6</ele>
        <time>2022-08-16T07:11:16Z</time>
      </trkpt>
      <trkpt lat="44.46556" lon="6.84419">
        <ele>2070.6</ele>
        <time>2022-08-16T07:11:17Z</time>
      </trkpt>
      <trkpt lat="44.46559" lon="6.84414">
        <ele>2070.6</ele>
        <time>2022-08-16T07:11:18Z</time>
      </trkpt>
      <trkpt lat="44.46562" lon="6.84409">
        <ele>2070.4</ele>
        <time>2022-08-16T07:11:19Z</time>
      </trkpt>
      <trkpt lat="44.46564" lon="6.84404">
        <ele>2070.6</ele>
        <time>2022-08-16T07:11:20Z</time>
      </trkpt>
      <trkpt lat="44.46567" lon="6.844">
        <ele>2070.6</ele>
        <time>2022-08-16T07:11:21Z</time>
      </trkpt>
      <trkpt lat="44.4657" lon="6.84396">
        <ele>2070.4</ele>
        <time>2022-08-16T07:11:22Z</time>
      </trkpt>
      <trkpt lat="44.46573" lon="6.84393">
        <ele>2070.4</ele>
        <time>2022-08-16T07:11:23Z</time>
      </trkpt>
      <trkpt lat="44.46577" lon="6.8439">
        <ele>2070.4</ele>
        <time>2022-08-16T07:11:24Z</time>
      </trkpt>
      <trkpt lat="44.46581" lon="6.84389">
        <ele>2070.4</ele>
        <time>2022-08-16T07:11:25Z</time>
      </trkpt>
      <trkpt lat="44.46593" lon="6.84381">
        <ele>2070.4</ele>
        <time>2022-08-16T07:11:28Z</time>
      </trkpt>
      <trkpt lat="44.46605" lon="6.84373">
        <ele>2070.4</ele>
        <time>2022-08-16T07:11:31Z</time>
      </trkpt>
      <trkpt lat="44.46613" lon="6.84369">
        <ele>2070.2</ele>
        <time>2022-08-16T07:11:33Z</time>
      </trkpt>
      <trkpt lat="44.46616" lon="6.84366">
        <ele>2070</ele>
        <time>2022-08-16T07:11:34Z</time>
      </trkpt>
      <trkpt lat="44.46619" lon="6.84364">
        <ele>2069.8</ele>
        <time>2022-08-16T07:11:35Z</time>
      </trkpt>
      <trkpt lat="44.46622" lon="6.84361">
        <ele>2069.4</ele>
        <time>2022-08-16T07:11:36Z</time>
      </trkpt>
      <trkpt lat="44.46631" lon="6.84351">
        <ele>2069</ele>
        <time>2022-08-16T07:11:39Z</time>
      </trkpt>
      <trkpt lat="44.46637" lon="6.84344">
        <ele>2069</ele>
        <time>2022-08-16T07:11:41Z</time>
      </trkpt>
      <trkpt lat="44.46639" lon="6.8434">
        <ele>2068.8</ele>
        <time>2022-08-16T07:11:42Z</time>
      </trkpt>
      <trkpt lat="44.4664" lon="6.84335">
        <ele>2068.8</ele>
        <time>2022-08-16T07:11:43Z</time>
      </trkpt>
      <trkpt lat="44.46641" lon="6.84331">
        <ele>2068.8</ele>
        <time>2022-08-16T07:11:44Z</time>
      </trkpt>
      <trkpt lat="44.46642" lon="6.84327">
        <ele>2068.6</ele>
        <time>2022-08-16T07:11:45Z</time>
      </trkpt>
      <trkpt lat="44.46643" lon="6.84324">
        <ele>2068.4</ele>
        <time>2022-08-16T07:11:46Z</time>
      </trkpt>
      <trkpt lat="44.46644" lon="6.8432">
        <ele>2068.6</ele>
        <time>2022-08-16T07:11:47Z</time>
      </trkpt>
      <trkpt lat="44.46645" lon="6.84317">
        <ele>2068.6</ele>
        <time>2022-08-16T07:11:48Z</time>
      </trkpt>
      <trkpt lat="44.46646" lon="6.84313">
        <ele>2068.4</ele>
        <time>2022-08-16T07:11:49Z</time>
      </trkpt>
      <trkpt lat="44.46648" lon="6.8431">
        <ele>2068.4</ele>
        <time>2022-08-16T07:11:50Z</time>
      </trkpt>
      <trkpt lat="44.46656" lon="6.84297">
        <ele>2068.2</ele>
        <time>2022-08-16T07:11:54Z</time>
      </trkpt>
      <trkpt lat="44.46659" lon="6.84294">
        <ele>2068.2</ele>
        <time>2022-08-16T07:11:55Z</time>
      </trkpt>
      <trkpt lat="44.46676" lon="6.8428">
        <ele>2067.8</ele>
        <time>2022-08-16T07:12:00Z</time>
      </trkpt>
      <trkpt lat="44.4668" lon="6.84278">
        <ele>2067.8</ele>
        <time>2022-08-16T07:12:01Z</time>
      </trkpt>
      <trkpt lat="44.46695" lon="6.84267">
        <ele>2067.6</ele>
        <time>2022-08-16T07:12:05Z</time>
      </trkpt>
      <trkpt lat="44.46698" lon="6.84263">
        <ele>2067.4</ele>
        <time>2022-08-16T07:12:06Z</time>
      </trkpt>
      <trkpt lat="44.46701" lon="6.84259">
        <ele>2067.2</ele>
        <time>2022-08-16T07:12:07Z</time>
      </trkpt>
      <trkpt lat="44.46704" lon="6.84256">
        <ele>2067.2</ele>
        <time>2022-08-16T07:12:08Z</time>
      </trkpt>
      <trkpt lat="44.46708" lon="6.84253">
        <ele>2067</ele>
        <time>2022-08-16T07:12:09Z</time>
      </trkpt>
      <trkpt lat="44.46711" lon="6.84251">
        <ele>2067</ele>
        <time>2022-08-16T07:12:10Z</time>
      </trkpt>
      <trkpt lat="44.46714" lon="6.84249">
        <ele>2066.8</ele>
        <time>2022-08-16T07:12:11Z</time>
      </trkpt>
      <trkpt lat="44.46716" lon="6.84247">
        <ele>2066.8</ele>
        <time>2022-08-16T07:12:12Z</time>
      </trkpt>
      <trkpt lat="44.46718" lon="6.84244">
        <ele>2066.8</ele>
        <time>2022-08-16T07:12:13Z</time>
      </trkpt>
      <trkpt lat="44.4672" lon="6.84242">
        <ele>2066.6</ele>
        <time>2022-08-16T07:12:14Z</time>
      </trkpt>
      <trkpt lat="44.46723" lon="6.8424">
        <ele>2066.8</ele>
        <time>2022-08-16T07:12:15Z</time>
      </trkpt>
      <trkpt lat="44.46725" lon="6.84239">
        <ele>2066.6</ele>
        <time>2022-08-16T07:12:16Z</time>
      </trkpt>
      <trkpt lat="44.46732" lon="6.84234">
        <ele>2066.4</ele>
        <time>2022-08-16T07:12:19Z</time>
      </trkpt>
      <trkpt lat="44.46733" lon="6.84231">
        <ele>2066.6</ele>
        <time>2022-08-16T07:12:20Z</time>
      </trkpt>
      <trkpt lat="44.46742" lon="6.84217">
        <ele>2066.8</ele>
        <time>2022-08-16T07:12:24Z</time>
      </trkpt>
      <trkpt lat="44.46745" lon="6.84212">
        <ele>2066.6</ele>
        <time>2022-08-16T07:12:25Z</time>
      </trkpt>
      <trkpt lat="44.46755" lon="6.84201">
        <ele>2066.6</ele>
        <time>2022-08-16T07:12:28Z</time>
      </trkpt>
      <trkpt lat="44.46758" lon="6.84196">
        <ele>2066.6</ele>
        <time>2022-08-16T07:12:29Z</time>
      </trkpt>
      <trkpt lat="44.46761" lon="6.84191">
        <ele>2066.8</ele>
        <time>2022-08-16T07:12:30Z</time>
      </trkpt>
      <trkpt lat="44.46763" lon="6.84186">
        <ele>2066.6</ele>
        <time>2022-08-16T07:12:31Z</time>
      </trkpt>
      <trkpt lat="44.46765" lon="6.84182">
        <ele>2066.6</ele>
        <time>2022-08-16T07:12:32Z</time>
      </trkpt>
      <trkpt lat="44.46766" lon="6.84177">
        <ele>2066.6</ele>
        <time>2022-08-16T07:12:33Z</time>
      </trkpt>
      <trkpt lat="44.46768" lon="6.84173">
        <ele>2066.6</ele>
        <time>2022-08-16T07:12:34Z</time>
      </trkpt>
      <trkpt lat="44.4677" lon="6.84169">
        <ele>2066.4</ele>
        <time>2022-08-16T07:12:35Z</time>
      </trkpt>
      <trkpt lat="44.46771" lon="6.84165">
        <ele>2066.6</ele>
        <time>2022-08-16T07:12:36Z</time>
      </trkpt>
      <trkpt lat="44.46772" lon="6.84161">
        <ele>2066.4</ele>
        <time>2022-08-16T07:12:37Z</time>
      </trkpt>
      <trkpt lat="44.46774" lon="6.84157">
        <ele>2066.6</ele>
        <time>2022-08-16T07:12:38Z</time>
      </trkpt>
      <trkpt lat="44.46775" lon="6.84154">
        <ele>2066.6</ele>
        <time>2022-08-16T07:12:39Z</time>
      </trkpt>
      <trkpt lat="44.46776" lon="6.8415">
        <ele>2066.6</ele>
        <time>2022-08-16T07:12:40Z</time>
      </trkpt>
      <trkpt lat="44.46777" lon="6.84146">
        <ele>2066.4</ele>
        <time>2022-08-16T07:12:41Z</time>
      </trkpt>
      <trkpt lat="44.46778" lon="6.84143">
        <ele>2066.6</ele>
        <time>2022-08-16T07:12:42Z</time>
      </trkpt>
      <trkpt lat="44.46779" lon="6.84139">
        <ele>2066.6</ele>
        <time>2022-08-16T07:12:43Z</time>
      </trkpt>
      <trkpt lat="44.46779" lon="6.84135">
        <ele>2066.6</ele>
        <time>2022-08-16T07:12:44Z</time>
      </trkpt>
      <trkpt lat="44.4678" lon="6.84132">
        <ele>2066.6</ele>
        <time>2022-08-16T07:12:45Z</time>
      </trkpt>
      <trkpt lat="44.4678" lon="6.84129">
        <ele>2066.8</ele>
        <time>2022-08-16T07:12:46Z</time>
      </trkpt>
      <trkpt lat="44.4678" lon="6.84127">
        <ele>2067</ele>
        <time>2022-08-16T07:12:47Z</time>
      </trkpt>
      <trkpt lat="44.46781" lon="6.84124">
        <ele>2067.2</ele>
        <time>2022-08-16T07:12:48Z</time>
      </trkpt>
      <trkpt lat="44.46781" lon="6.84121">
        <ele>2067.2</ele>
        <time>2022-08-16T07:12:49Z</time>
      </trkpt>
      <trkpt lat="44.46781" lon="6.84118">
        <ele>2067.4</ele>
        <time>2022-08-16T07:12:50Z</time>
      </trkpt>
      <trkpt lat="44.46781" lon="6.84116">
        <ele>2067.4</ele>
        <time>2022-08-16T07:12:51Z</time>
      </trkpt>
      <trkpt lat="44.46781" lon="6.84113">
        <ele>2067.6</ele>
        <time>2022-08-16T07:12:52Z</time>
      </trkpt>
      <trkpt lat="44.46781" lon="6.8411">
        <ele>2067.8</ele>
        <time>2022-08-16T07:12:53Z</time>
      </trkpt>
      <trkpt lat="44.46781" lon="6.84107">
        <ele>2068.2</ele>
        <time>2022-08-16T07:12:54Z</time>
      </trkpt>
      <trkpt lat="44.46781" lon="6.84104">
        <ele>2068.2</ele>
        <time>2022-08-16T07:12:55Z</time>
      </trkpt>
      <trkpt lat="44.46781" lon="6.84101">
        <ele>2068.4</ele>
        <time>2022-08-16T07:12:56Z</time>
      </trkpt>
      <trkpt lat="44.46781" lon="6.84099">
        <ele>2068.8</ele>
        <time>2022-08-16T07:12:57Z</time>
      </trkpt>
      <trkpt lat="44.46782" lon="6.84096">
        <ele>2068.8</ele>
        <time>2022-08-16T07:12:58Z</time>
      </trkpt>
      <trkpt lat="44.46782" lon="6.84093">
        <ele>2069</ele>
        <time>2022-08-16T07:12:59Z</time>
      </trkpt>
      <trkpt lat="44.46783" lon="6.8409">
        <ele>2069.2</ele>
        <time>2022-08-16T07:13:00Z</time>
      </trkpt>
      <trkpt lat="44.46784" lon="6.84088">
        <ele>2069.4</ele>
        <time>2022-08-16T07:13:01Z</time>
      </trkpt>
      <trkpt lat="44.46785" lon="6.84085">
        <ele>2069.6</ele>
        <time>2022-08-16T07:13:02Z</time>
      </trkpt>
      <trkpt lat="44.46786" lon="6.84083">
        <ele>2069.6</ele>
        <time>2022-08-16T07:13:03Z</time>
      </trkpt>
      <trkpt lat="44.46787" lon="6.8408">
        <ele>2069.8</ele>
        <time>2022-08-16T07:13:04Z</time>
      </trkpt>
      <trkpt lat="44.46788" lon="6.84077">
        <ele>2070.2</ele>
        <time>2022-08-16T07:13:05Z</time>
      </trkpt>
      <trkpt lat="44.46789" lon="6.84074">
        <ele>2070.2</ele>
        <time>2022-08-16T07:13:06Z</time>
      </trkpt>
      <trkpt lat="44.4679" lon="6.84071">
        <ele>2070.4</ele>
        <time>2022-08-16T07:13:07Z</time>
      </trkpt>
      <trkpt lat="44.46791" lon="6.84068">
        <ele>2070.4</ele>
        <time>2022-08-16T07:13:08Z</time>
      </trkpt>
      <trkpt lat="44.46792" lon="6.84065">
        <ele>2070.6</ele>
        <time>2022-08-16T07:13:09Z</time>
      </trkpt>
      <trkpt lat="44.46793" lon="6.84062">
        <ele>2070.8</ele>
        <time>2022-08-16T07:13:10Z</time>
      </trkpt>
      <trkpt lat="44.46794" lon="6.84059">
        <ele>2070.8</ele>
        <time>2022-08-16T07:13:11Z</time>
      </trkpt>
      <trkpt lat="44.46796" lon="6.84056">
        <ele>2070.8</ele>
        <time>2022-08-16T07:13:12Z</time>
      </trkpt>
      <trkpt lat="44.46797" lon="6.84053">
        <ele>2070.8</ele>
        <time>2022-08-16T07:13:13Z</time>
      </trkpt>
      <trkpt lat="44.46799" lon="6.8405">
        <ele>2071</ele>
        <time>2022-08-16T07:13:14Z</time>
      </trkpt>
      <trkpt lat="44.46808" lon="6.84036">
        <ele>2071</ele>
        <time>2022-08-16T07:13:18Z</time>
      </trkpt>
      <trkpt lat="44.46812" lon="6.84033">
        <ele>2071</ele>
        <time>2022-08-16T07:13:19Z</time>
      </trkpt>
      <trkpt lat="44.46814" lon="6.84032">
        <ele>2070.8</ele>
        <time>2022-08-16T07:13:20Z</time>
      </trkpt>
      <trkpt lat="44.46817" lon="6.84031">
        <ele>2070.8</ele>
        <time>2022-08-16T07:13:21Z</time>
      </trkpt>
      <trkpt lat="44.4682" lon="6.8403">
        <ele>2071</ele>
        <time>2022-08-16T07:13:22Z</time>
      </trkpt>
      <trkpt lat="44.46823" lon="6.84028">
        <ele>2071</ele>
        <time>2022-08-16T07:13:23Z</time>
      </trkpt>
      <trkpt lat="44.46825" lon="6.84027">
        <ele>2070.8</ele>
        <time>2022-08-16T07:13:24Z</time>
      </trkpt>
      <trkpt lat="44.46831" lon="6.84026">
        <ele>2070.6</ele>
        <time>2022-08-16T07:13:26Z</time>
      </trkpt>
      <trkpt lat="44.46834" lon="6.84025">
        <ele>2070.6</ele>
        <time>2022-08-16T07:13:27Z</time>
      </trkpt>
      <trkpt lat="44.46841" lon="6.84024">
        <ele>2070.2</ele>
        <time>2022-08-16T07:13:29Z</time>
      </trkpt>
      <trkpt lat="44.46844" lon="6.84023">
        <ele>2069.8</ele>
        <time>2022-08-16T07:13:30Z</time>
      </trkpt>
      <trkpt lat="44.46848" lon="6.84021">
        <ele>2069.4</ele>
        <time>2022-08-16T07:13:31Z</time>
      </trkpt>
      <trkpt lat="44.46852" lon="6.84019">
        <ele>2069</ele>
        <time>2022-08-16T07:13:32Z</time>
      </trkpt>
      <trkpt lat="44.46855" lon="6.84017">
        <ele>2068.6</ele>
        <time>2022-08-16T07:13:33Z</time>
      </trkpt>
      <trkpt lat="44.46858" lon="6.84015">
        <ele>2068.4</ele>
        <time>2022-08-16T07:13:34Z</time>
      </trkpt>
      <trkpt lat="44.4686" lon="6.84013">
        <ele>2067.8</ele>
        <time>2022-08-16T07:13:35Z</time>
      </trkpt>
      <trkpt lat="44.46861" lon="6.84012">
        <ele>2067.6</ele>
        <time>2022-08-16T07:13:36Z</time>
      </trkpt>
      <trkpt lat="44.46861" lon="6.8401">
        <ele>2067.6</ele>
        <time>2022-08-16T07:13:37Z</time>
      </trkpt>
      <trkpt lat="44.4686" lon="6.84003">
        <ele>2067</ele>
        <time>2022-08-16T07:13:39Z</time>
      </trkpt>
      <trkpt lat="44.46859" lon="6.84002">
        <ele>2067</ele>
        <time>2022-08-16T07:13:40Z</time>
      </trkpt>
      <trkpt lat="44.46858" lon="6.84001">
        <ele>2066.6</ele>
        <time>2022-08-16T07:13:41Z</time>
      </trkpt>
      <trkpt lat="44.46857" lon="6.84">
        <ele>2066.6</ele>
        <time>2022-08-16T07:13:42Z</time>
      </trkpt>
      <trkpt lat="44.46855" lon="6.84">
        <ele>2066.4</ele>
        <time>2022-08-16T07:13:43Z</time>
      </trkpt>
      <trkpt lat="44.46854" lon="6.83999">
        <ele>2066.4</ele>
        <time>2022-08-16T07:13:44Z</time>
      </trkpt>
      <trkpt lat="44.4685" lon="6.83998">
        <ele>2066.4</ele>
        <time>2022-08-16T07:13:46Z</time>
      </trkpt>
      <trkpt lat="44.46842" lon="6.83996">
        <ele>2066.2</ele>
        <time>2022-08-16T07:13:50Z</time>
      </trkpt>
      <trkpt lat="44.4684" lon="6.83995">
        <ele>2066.2</ele>
        <time>2022-08-16T07:13:51Z</time>
      </trkpt>
      <trkpt lat="44.46836" lon="6.83993">
        <ele>2066</ele>
        <time>2022-08-16T07:13:53Z</time>
      </trkpt>
      <trkpt lat="44.46831" lon="6.83991">
        <ele>2066</ele>
        <time>2022-08-16T07:13:55Z</time>
      </trkpt>
      <trkpt lat="44.46829" lon="6.8399">
        <ele>2066</ele>
        <time>2022-08-16T07:13:56Z</time>
      </trkpt>
      <trkpt lat="44.46827" lon="6.83989">
        <ele>2066</ele>
        <time>2022-08-16T07:13:57Z</time>
      </trkpt>
      <trkpt lat="44.46821" lon="6.83984">
        <ele>2065.6</ele>
        <time>2022-08-16T07:14:00Z</time>
      </trkpt>
      <trkpt lat="44.46819" lon="6.83982">
        <ele>2065.6</ele>
        <time>2022-08-16T07:14:01Z</time>
      </trkpt>
      <trkpt lat="44.46817" lon="6.83981">
        <ele>2065.4</ele>
        <time>2022-08-16T07:14:02Z</time>
      </trkpt>
      <trkpt lat="44.46816" lon="6.83979">
        <ele>2065.4</ele>
        <time>2022-08-16T07:14:03Z</time>
      </trkpt>
      <trkpt lat="44.46815" lon="6.83977">
        <ele>2065.4</ele>
        <time>2022-08-16T07:14:04Z</time>
      </trkpt>
      <trkpt lat="44.46815" lon="6.83974">
        <ele>2065.4</ele>
        <time>2022-08-16T07:14:05Z</time>
      </trkpt>
      <trkpt lat="44.46814" lon="6.83971">
        <ele>2065.4</ele>
        <time>2022-08-16T07:14:06Z</time>
      </trkpt>
      <trkpt lat="44.46814" lon="6.83968">
        <ele>2065.2</ele>
        <time>2022-08-16T07:14:07Z</time>
      </trkpt>
      <trkpt lat="44.46815" lon="6.83965">
        <ele>2065.4</ele>
        <time>2022-08-16T07:14:08Z</time>
      </trkpt>
      <trkpt lat="44.46815" lon="6.83961">
        <ele>2065.4</ele>
        <time>2022-08-16T07:14:09Z</time>
      </trkpt>
      <trkpt lat="44.46814" lon="6.83952">
        <ele>2065.2</ele>
        <time>2022-08-16T07:14:12Z</time>
      </trkpt>
      <trkpt lat="44.4681" lon="6.83926">
        <ele>2065.4</ele>
        <time>2022-08-16T07:14:18Z</time>
      </trkpt>
      <trkpt lat="44.4681" lon="6.83922">
        <ele>2065.6</ele>
        <time>2022-08-16T07:14:19Z</time>
      </trkpt>
      <trkpt lat="44.4681" lon="6.83913">
        <ele>2065.6</ele>
        <time>2022-08-16T07:14:21Z</time>
      </trkpt>
      <trkpt lat="44.4681" lon="6.83908">
        <ele>2065.4</ele>
        <time>2022-08-16T07:14:22Z</time>
      </trkpt>
      <trkpt lat="44.4681" lon="6.83904">
        <ele>2065.4</ele>
        <time>2022-08-16T07:14:23Z</time>
      </trkpt>
      <trkpt lat="44.46811" lon="6.839">
        <ele>2065.2</ele>
        <time>2022-08-16T07:14:24Z</time>
      </trkpt>
      <trkpt lat="44.46811" lon="6.83896">
        <ele>2065.2</ele>
        <time>2022-08-16T07:14:25Z</time>
      </trkpt>
      <trkpt lat="44.46811" lon="6.83892">
        <ele>2065.2</ele>
        <time>2022-08-16T07:14:26Z</time>
      </trkpt>
      <trkpt lat="44.46818" lon="6.83862">
        <ele>2065</ele>
        <time>2022-08-16T07:14:33Z</time>
      </trkpt>
      <trkpt lat="44.46823" lon="6.83834">
        <ele>2065</ele>
        <time>2022-08-16T07:14:38Z</time>
      </trkpt>
      <trkpt lat="44.46824" lon="6.83828">
        <ele>2064.8</ele>
        <time>2022-08-16T07:14:39Z</time>
      </trkpt>
      <trkpt lat="44.46829" lon="6.83795">
        <ele>2064.2</ele>
        <time>2022-08-16T07:14:44Z</time>
      </trkpt>
      <trkpt lat="44.46831" lon="6.83774">
        <ele>2063.8</ele>
        <time>2022-08-16T07:14:47Z</time>
      </trkpt>
      <trkpt lat="44.46831" lon="6.83766">
        <ele>2063.8</ele>
        <time>2022-08-16T07:14:48Z</time>
      </trkpt>
      <trkpt lat="44.46833" lon="6.83752">
        <ele>2063</ele>
        <time>2022-08-16T07:14:50Z</time>
      </trkpt>
      <trkpt lat="44.46833" lon="6.83745">
        <ele>2063</ele>
        <time>2022-08-16T07:14:51Z</time>
      </trkpt>
      <trkpt lat="44.46834" lon="6.83731">
        <ele>2062.6</ele>
        <time>2022-08-16T07:14:53Z</time>
      </trkpt>
      <trkpt lat="44.46835" lon="6.83724">
        <ele>2062.2</ele>
        <time>2022-08-16T07:14:54Z</time>
      </trkpt>
      <trkpt lat="44.46835" lon="6.83717">
        <ele>2061.8</ele>
        <time>2022-08-16T07:14:55Z</time>
      </trkpt>
      <trkpt lat="44.46836" lon="6.83711">
        <ele>2061.6</ele>
        <time>2022-08-16T07:14:56Z</time>
      </trkpt>
      <trkpt lat="44.46836" lon="6.83704">
        <ele>2061.6</ele>
        <time>2022-08-16T07:14:57Z</time>
      </trkpt>
      <trkpt lat="44.46835" lon="6.83698">
        <ele>2061.6</ele>
        <time>2022-08-16T07:14:58Z</time>
      </trkpt>
      <trkpt lat="44.46834" lon="6.83692">
        <ele>2061.4</ele>
        <time>2022-08-16T07:14:59Z</time>
      </trkpt>
      <trkpt lat="44.46833" lon="6.83686">
        <ele>2061.2</ele>
        <time>2022-08-16T07:15:00Z</time>
      </trkpt>
      <trkpt lat="44.46833" lon="6.83681">
        <ele>2061</ele>
        <time>2022-08-16T07:15:01Z</time>
      </trkpt>
      <trkpt lat="44.46834" lon="6.83668">
        <ele>2060.8</ele>
        <time>2022-08-16T07:15:03Z</time>
      </trkpt>
      <trkpt lat="44.46836" lon="6.83662">
        <ele>2060.6</ele>
        <time>2022-08-16T07:15:04Z</time>
      </trkpt>
      <trkpt lat="44.46839" lon="6.83655">
        <ele>2060.6</ele>
        <time>2022-08-16T07:15:05Z</time>
      </trkpt>
      <trkpt lat="44.46845" lon="6.83641">
        <ele>2060.6</ele>
        <time>2022-08-16T07:15:07Z</time>
      </trkpt>
      <trkpt lat="44.46847" lon="6.83633">
        <ele>2060.4</ele>
        <time>2022-08-16T07:15:08Z</time>
      </trkpt>
      <trkpt lat="44.46849" lon="6.83625">
        <ele>2060.4</ele>
        <time>2022-08-16T07:15:09Z</time>
      </trkpt>
      <trkpt lat="44.46851" lon="6.83618">
        <ele>2060</ele>
        <time>2022-08-16T07:15:10Z</time>
      </trkpt>
      <trkpt lat="44.46852" lon="6.83611">
        <ele>2060</ele>
        <time>2022-08-16T07:15:11Z</time>
      </trkpt>
      <trkpt lat="44.46852" lon="6.83604">
        <ele>2059.6</ele>
        <time>2022-08-16T07:15:12Z</time>
      </trkpt>
      <trkpt lat="44.46852" lon="6.83597">
        <ele>2059.2</ele>
        <time>2022-08-16T07:15:13Z</time>
      </trkpt>
      <trkpt lat="44.4685" lon="6.83591">
        <ele>2059.2</ele>
        <time>2022-08-16T07:15:14Z</time>
      </trkpt>
      <trkpt lat="44.46848" lon="6.83586">
        <ele>2058.6</ele>
        <time>2022-08-16T07:15:15Z</time>
      </trkpt>
      <trkpt lat="44.46847" lon="6.83583">
        <ele>2058.2</ele>
        <time>2022-08-16T07:15:16Z</time>
      </trkpt>
      <trkpt lat="44.46846" lon="6.8358">
        <ele>2057.8</ele>
        <time>2022-08-16T07:15:17Z</time>
      </trkpt>
      <trkpt lat="44.46845" lon="6.83579">
        <ele>2057.6</ele>
        <time>2022-08-16T07:15:18Z</time>
      </trkpt>
      <trkpt lat="44.46845" lon="6.8358">
        <ele>2057.6</ele>
        <time>2022-08-16T07:15:32Z</time>
      </trkpt>
      <trkpt lat="44.46845" lon="6.8358">
        <ele>2057.4</ele>
        <time>2022-08-16T07:15:45Z</time>
      </trkpt>
      <trkpt lat="44.46845" lon="6.8358">
        <ele>2057.6</ele>
        <time>2022-08-16T07:15:51Z</time>
      </trkpt>
      <trkpt lat="44.46844" lon="6.83576">
        <ele>2057.6</ele>
        <time>2022-08-16T07:16:04Z</time>
      </trkpt>
      <trkpt lat="44.46842" lon="6.8356">
        <ele>2057.6</ele>
        <time>2022-08-16T07:16:09Z</time>
      </trkpt>
      <trkpt lat="44.4684" lon="6.83545">
        <ele>2057.6</ele>
        <time>2022-08-16T07:16:11Z</time>
      </trkpt>
      <trkpt lat="44.46838" lon="6.83528">
        <ele>2057.6</ele>
        <time>2022-08-16T07:16:15Z</time>
      </trkpt>
      <trkpt lat="44.46838" lon="6.83522">
        <ele>2057.4</ele>
        <time>2022-08-16T07:16:16Z</time>
      </trkpt>
      <trkpt lat="44.46837" lon="6.83517">
        <ele>2056.8</ele>
        <time>2022-08-16T07:16:17Z</time>
      </trkpt>
      <trkpt lat="44.46835" lon="6.83512">
        <ele>2056.8</ele>
        <time>2022-08-16T07:16:18Z</time>
      </trkpt>
      <trkpt lat="44.46834" lon="6.83507">
        <ele>2056.4</ele>
        <time>2022-08-16T07:16:19Z</time>
      </trkpt>
      <trkpt lat="44.46834" lon="6.83503">
        <ele>2056.4</ele>
        <time>2022-08-16T07:16:20Z</time>
      </trkpt>
      <trkpt lat="44.46833" lon="6.83494">
        <ele>2056.2</ele>
        <time>2022-08-16T07:16:21Z</time>
      </trkpt>
      <trkpt lat="44.46833" lon="6.83494">
        <ele>2056.2</ele>
        <time>2022-08-16T07:16:22Z</time>
      </trkpt>
      <trkpt lat="44.46832" lon="6.83489">
        <ele>2055.8</ele>
        <time>2022-08-16T07:16:23Z</time>
      </trkpt>
      <trkpt lat="44.46832" lon="6.83475">
        <ele>2055.4</ele>
        <time>2022-08-16T07:16:26Z</time>
      </trkpt>
      <trkpt lat="44.46833" lon="6.83471">
        <ele>2055.4</ele>
        <time>2022-08-16T07:16:27Z</time>
      </trkpt>
      <trkpt lat="44.46834" lon="6.83466">
        <ele>2055.4</ele>
        <time>2022-08-16T07:16:28Z</time>
      </trkpt>
      <trkpt lat="44.46836" lon="6.83461">
        <ele>2055.4</ele>
        <time>2022-08-16T07:16:29Z</time>
      </trkpt>
      <trkpt lat="44.46838" lon="6.83455">
        <ele>2055.2</ele>
        <time>2022-08-16T07:16:30Z</time>
      </trkpt>
      <trkpt lat="44.46841" lon="6.83449">
        <ele>2055.2</ele>
        <time>2022-08-16T07:16:31Z</time>
      </trkpt>
      <trkpt lat="44.46843" lon="6.83443">
        <ele>2055.2</ele>
        <time>2022-08-16T07:16:32Z</time>
      </trkpt>
      <trkpt lat="44.46846" lon="6.83437">
        <ele>2055</ele>
        <time>2022-08-16T07:16:33Z</time>
      </trkpt>
      <trkpt lat="44.4685" lon="6.83432">
        <ele>2055</ele>
        <time>2022-08-16T07:16:34Z</time>
      </trkpt>
      <trkpt lat="44.46854" lon="6.83426">
        <ele>2054.8</ele>
        <time>2022-08-16T07:16:35Z</time>
      </trkpt>
      <trkpt lat="44.46858" lon="6.83421">
        <ele>2054.6</ele>
        <time>2022-08-16T07:16:36Z</time>
      </trkpt>
      <trkpt lat="44.46861" lon="6.83418">
        <ele>2054.2</ele>
        <time>2022-08-16T07:16:37Z</time>
      </trkpt>
      <trkpt lat="44.46864" lon="6.83414">
        <ele>2053.2</ele>
        <time>2022-08-16T07:16:38Z</time>
      </trkpt>
      <trkpt lat="44.46867" lon="6.8341">
        <ele>2052.6</ele>
        <time>2022-08-16T07:16:39Z</time>
      </trkpt>
      <trkpt lat="44.4687" lon="6.83406">
        <ele>2051.8</ele>
        <time>2022-08-16T07:16:40Z</time>
      </trkpt>
      <trkpt lat="44.46873" lon="6.83402">
        <ele>2051.2</ele>
        <time>2022-08-16T07:16:41Z</time>
      </trkpt>
      <trkpt lat="44.46876" lon="6.83397">
        <ele>2050.6</ele>
        <time>2022-08-16T07:16:42Z</time>
      </trkpt>
      <trkpt lat="44.46878" lon="6.83392">
        <ele>2050.2</ele>
        <time>2022-08-16T07:16:43Z</time>
      </trkpt>
      <trkpt lat="44.46881" lon="6.83387">
        <ele>2049.6</ele>
        <time>2022-08-16T07:16:44Z</time>
      </trkpt>
      <trkpt lat="44.46883" lon="6.83383">
        <ele>2049.6</ele>
        <time>2022-08-16T07:16:45Z</time>
      </trkpt>
      <trkpt lat="44.46886" lon="6.83379">
        <ele>2049.2</ele>
        <time>2022-08-16T07:16:46Z</time>
      </trkpt>
      <trkpt lat="44.46888" lon="6.83374">
        <ele>2048.8</ele>
        <time>2022-08-16T07:16:47Z</time>
      </trkpt>
      <trkpt lat="44.4689" lon="6.8337">
        <ele>2048.6</ele>
        <time>2022-08-16T07:16:48Z</time>
      </trkpt>
      <trkpt lat="44.46891" lon="6.83366">
        <ele>2048.2</ele>
        <time>2022-08-16T07:16:49Z</time>
      </trkpt>
      <trkpt lat="44.46893" lon="6.83361">
        <ele>2048</ele>
        <time>2022-08-16T07:16:50Z</time>
      </trkpt>
      <trkpt lat="44.46894" lon="6.83357">
        <ele>2047.8</ele>
        <time>2022-08-16T07:16:51Z</time>
      </trkpt>
      <trkpt lat="44.46895" lon="6.83353">
        <ele>2047.6</ele>
        <time>2022-08-16T07:16:52Z</time>
      </trkpt>
      <trkpt lat="44.46897" lon="6.83349">
        <ele>2047.4</ele>
        <time>2022-08-16T07:16:53Z</time>
      </trkpt>
      <trkpt lat="44.46898" lon="6.83346">
        <ele>2047.4</ele>
        <time>2022-08-16T07:16:54Z</time>
      </trkpt>
      <trkpt lat="44.469" lon="6.83342">
        <ele>2047.4</ele>
        <time>2022-08-16T07:16:55Z</time>
      </trkpt>
      <trkpt lat="44.46902" lon="6.83335">
        <ele>2047.4</ele>
        <time>2022-08-16T07:16:57Z</time>
      </trkpt>
      <trkpt lat="44.46904" lon="6.83327">
        <ele>2047.4</ele>
        <time>2022-08-16T07:16:59Z</time>
      </trkpt>
      <trkpt lat="44.46907" lon="6.83308">
        <ele>2047.4</ele>
        <time>2022-08-16T07:17:03Z</time>
      </trkpt>
      <trkpt lat="44.46911" lon="6.83292">
        <ele>2047.2</ele>
        <time>2022-08-16T07:17:06Z</time>
      </trkpt>
      <trkpt lat="44.46917" lon="6.83274">
        <ele>2047</ele>
        <time>2022-08-16T07:17:09Z</time>
      </trkpt>
      <trkpt lat="44.4692" lon="6.83263">
        <ele>2047</ele>
        <time>2022-08-16T07:17:11Z</time>
      </trkpt>
      <trkpt lat="44.46924" lon="6.83252">
        <ele>2046.6</ele>
        <time>2022-08-16T07:17:13Z</time>
      </trkpt>
      <trkpt lat="44.46926" lon="6.83247">
        <ele>2046.4</ele>
        <time>2022-08-16T07:17:14Z</time>
      </trkpt>
      <trkpt lat="44.46929" lon="6.83236">
        <ele>2045.8</ele>
        <time>2022-08-16T07:17:16Z</time>
      </trkpt>
      <trkpt lat="44.46933" lon="6.83225">
        <ele>2045.6</ele>
        <time>2022-08-16T07:17:18Z</time>
      </trkpt>
      <trkpt lat="44.46935" lon="6.8322">
        <ele>2045.6</ele>
        <time>2022-08-16T07:17:19Z</time>
      </trkpt>
      <trkpt lat="44.46936" lon="6.83215">
        <ele>2045.6</ele>
        <time>2022-08-16T07:17:20Z</time>
      </trkpt>
      <trkpt lat="44.46949" lon="6.83182">
        <ele>2044.8</ele>
        <time>2022-08-16T07:17:26Z</time>
      </trkpt>
      <trkpt lat="44.46967" lon="6.83143">
        <ele>2044.2</ele>
        <time>2022-08-16T07:17:33Z</time>
      </trkpt>
      <trkpt lat="44.46974" lon="6.83133">
        <ele>2043.8</ele>
        <time>2022-08-16T07:17:35Z</time>
      </trkpt>
      <trkpt lat="44.46978" lon="6.83128">
        <ele>2043.6</ele>
        <time>2022-08-16T07:17:36Z</time>
      </trkpt>
      <trkpt lat="44.46981" lon="6.83123">
        <ele>2043.4</ele>
        <time>2022-08-16T07:17:37Z</time>
      </trkpt>
      <trkpt lat="44.46984" lon="6.83118">
        <ele>2043.2</ele>
        <time>2022-08-16T07:17:38Z</time>
      </trkpt>
      <trkpt lat="44.46987" lon="6.83114">
        <ele>2042.8</ele>
        <time>2022-08-16T07:17:39Z</time>
      </trkpt>
      <trkpt lat="44.4699" lon="6.8311">
        <ele>2042.8</ele>
        <time>2022-08-16T07:17:40Z</time>
      </trkpt>
      <trkpt lat="44.46993" lon="6.83107">
        <ele>2042.6</ele>
        <time>2022-08-16T07:17:41Z</time>
      </trkpt>
      <trkpt lat="44.46995" lon="6.83103">
        <ele>2042.6</ele>
        <time>2022-08-16T07:17:42Z</time>
      </trkpt>
      <trkpt lat="44.46998" lon="6.83099">
        <ele>2042.6</ele>
        <time>2022-08-16T07:17:43Z</time>
      </trkpt>
      <trkpt lat="44.47002" lon="6.8309">
        <ele>2042.4</ele>
        <time>2022-08-16T07:17:45Z</time>
      </trkpt>
      <trkpt lat="44.47006" lon="6.83079">
        <ele>2042.4</ele>
        <time>2022-08-16T07:17:46Z</time>
      </trkpt>
      <trkpt lat="44.47011" lon="6.83066">
        <ele>2042.2</ele>
        <time>2022-08-16T07:17:48Z</time>
      </trkpt>
      <trkpt lat="44.47013" lon="6.83059">
        <ele>2042.2</ele>
        <time>2022-08-16T07:17:49Z</time>
      </trkpt>
      <trkpt lat="44.47015" lon="6.83053">
        <ele>2042</ele>
        <time>2022-08-16T07:17:50Z</time>
      </trkpt>
      <trkpt lat="44.47018" lon="6.8304">
        <ele>2041.8</ele>
        <time>2022-08-16T07:17:51Z</time>
      </trkpt>
      <trkpt lat="44.4702" lon="6.83035">
        <ele>2041.4</ele>
        <time>2022-08-16T07:17:52Z</time>
      </trkpt>
      <trkpt lat="44.47021" lon="6.83031">
        <ele>2041.4</ele>
        <time>2022-08-16T07:17:53Z</time>
      </trkpt>
      <trkpt lat="44.47025" lon="6.83021">
        <ele>2041</ele>
        <time>2022-08-16T07:17:54Z</time>
      </trkpt>
      <trkpt lat="44.47034" lon="6.83001">
        <ele>2040.8</ele>
        <time>2022-08-16T07:17:55Z</time>
      </trkpt>
      <trkpt lat="44.47038" lon="6.82991">
        <ele>2040.6</ele>
        <time>2022-08-16T07:17:57Z</time>
      </trkpt>
      <trkpt lat="44.47043" lon="6.82981">
        <ele>2039.8</ele>
        <time>2022-08-16T07:17:58Z</time>
      </trkpt>
      <trkpt lat="44.47053" lon="6.82959">
        <ele>2038</ele>
        <time>2022-08-16T07:18:00Z</time>
      </trkpt>
      <trkpt lat="44.47059" lon="6.82949">
        <ele>2037.4</ele>
        <time>2022-08-16T07:18:01Z</time>
      </trkpt>
      <trkpt lat="44.47073" lon="6.82924">
        <ele>2036</ele>
        <time>2022-08-16T07:18:02Z</time>
      </trkpt>
      <trkpt lat="44.47081" lon="6.82908">
        <ele>2033.6</ele>
        <time>2022-08-16T07:18:04Z</time>
      </trkpt>
      <trkpt lat="44.47093" lon="6.82885">
        <ele>2031.6</ele>
        <time>2022-08-16T07:18:06Z</time>
      </trkpt>
      <trkpt lat="44.47096" lon="6.8288">
        <ele>2030.2</ele>
        <time>2022-08-16T07:18:07Z</time>
      </trkpt>
      <trkpt lat="44.47099" lon="6.82875">
        <ele>2029.2</ele>
        <time>2022-08-16T07:18:08Z</time>
      </trkpt>
      <trkpt lat="44.47107" lon="6.8286">
        <ele>2028</ele>
        <time>2022-08-16T07:18:09Z</time>
      </trkpt>
      <trkpt lat="44.4711" lon="6.82855">
        <ele>2027.2</ele>
        <time>2022-08-16T07:18:10Z</time>
      </trkpt>
      <trkpt lat="44.47115" lon="6.82843">
        <ele>2025.4</ele>
        <time>2022-08-16T07:18:11Z</time>
      </trkpt>
      <trkpt lat="44.47119" lon="6.82831">
        <ele>2024.6</ele>
        <time>2022-08-16T07:18:12Z</time>
      </trkpt>
      <trkpt lat="44.47123" lon="6.8282">
        <ele>2022.2</ele>
        <time>2022-08-16T07:18:13Z</time>
      </trkpt>
      <trkpt lat="44.47127" lon="6.82811">
        <ele>2020.6</ele>
        <time>2022-08-16T07:18:14Z</time>
      </trkpt>
      <trkpt lat="44.47131" lon="6.82803">
        <ele>2018.8</ele>
        <time>2022-08-16T07:18:15Z</time>
      </trkpt>
      <trkpt lat="44.47135" lon="6.82797">
        <ele>2018.8</ele>
        <time>2022-08-16T07:18:16Z</time>
      </trkpt>
      <trkpt lat="44.4714" lon="6.82791">
        <ele>2017.2</ele>
        <time>2022-08-16T07:18:17Z</time>
      </trkpt>
      <trkpt lat="44.47147" lon="6.82786">
        <ele>2015.6</ele>
        <time>2022-08-16T07:18:18Z</time>
      </trkpt>
      <trkpt lat="44.47157" lon="6.82783">
        <ele>2013.2</ele>
        <time>2022-08-16T07:18:19Z</time>
      </trkpt>
      <trkpt lat="44.47167" lon="6.8278">
        <ele>2010.8</ele>
        <time>2022-08-16T07:18:20Z</time>
      </trkpt>
      <trkpt lat="44.47176" lon="6.82775">
        <ele>2008.6</ele>
        <time>2022-08-16T07:18:21Z</time>
      </trkpt>
      <trkpt lat="44.47186" lon="6.82769">
        <ele>2007.4</ele>
        <time>2022-08-16T07:18:22Z</time>
      </trkpt>
      <trkpt lat="44.47196" lon="6.82763">
        <ele>2005.6</ele>
        <time>2022-08-16T07:18:23Z</time>
      </trkpt>
      <trkpt lat="44.47205" lon="6.82756">
        <ele>2004.4</ele>
        <time>2022-08-16T07:18:24Z</time>
      </trkpt>
      <trkpt lat="44.47214" lon="6.82749">
        <ele>2002.8</ele>
        <time>2022-08-16T07:18:25Z</time>
      </trkpt>
      <trkpt lat="44.47221" lon="6.82743">
        <ele>2001.2</ele>
        <time>2022-08-16T07:18:26Z</time>
      </trkpt>
      <trkpt lat="44.47228" lon="6.82738">
        <ele>1999</ele>
        <time>2022-08-16T07:18:27Z</time>
      </trkpt>
      <trkpt lat="44.47234" lon="6.82735">
        <ele>1997</ele>
        <time>2022-08-16T07:18:28Z</time>
      </trkpt>
      <trkpt lat="44.4724" lon="6.82732">
        <ele>1994.6</ele>
        <time>2022-08-16T07:18:29Z</time>
      </trkpt>
      <trkpt lat="44.47247" lon="6.82728">
        <ele>1992.6</ele>
        <time>2022-08-16T07:18:30Z</time>
      </trkpt>
      <trkpt lat="44.47254" lon="6.82722">
        <ele>1990.4</ele>
        <time>2022-08-16T07:18:31Z</time>
      </trkpt>
      <trkpt lat="44.4726" lon="6.82717">
        <ele>1988.6</ele>
        <time>2022-08-16T07:18:32Z</time>
      </trkpt>
      <trkpt lat="44.47267" lon="6.82712">
        <ele>1987</ele>
        <time>2022-08-16T07:18:33Z</time>
      </trkpt>
      <trkpt lat="44.47274" lon="6.82707">
        <ele>1986.2</ele>
        <time>2022-08-16T07:18:34Z</time>
      </trkpt>
      <trkpt lat="44.47281" lon="6.82703">
        <ele>1985.2</ele>
        <time>2022-08-16T07:18:35Z</time>
      </trkpt>
      <trkpt lat="44.47286" lon="6.82699">
        <ele>1984.2</ele>
        <time>2022-08-16T07:18:36Z</time>
      </trkpt>
      <trkpt lat="44.4729" lon="6.82695">
        <ele>1983.2</ele>
        <time>2022-08-16T07:18:37Z</time>
      </trkpt>
      <trkpt lat="44.47293" lon="6.82692">
        <ele>1981.6</ele>
        <time>2022-08-16T07:18:38Z</time>
      </trkpt>
      <trkpt lat="44.47295" lon="6.82689">
        <ele>1981.6</ele>
        <time>2022-08-16T07:18:39Z</time>
      </trkpt>
      <trkpt lat="44.47299" lon="6.82684">
        <ele>1979.6</ele>
        <time>2022-08-16T07:18:40Z</time>
      </trkpt>
      <trkpt lat="44.473" lon="6.82683">
        <ele>1978</ele>
        <time>2022-08-16T07:18:41Z</time>
      </trkpt>
      <trkpt lat="44.473" lon="6.82683">
        <ele>1975.6</ele>
        <time>2022-08-16T07:18:42Z</time>
      </trkpt>
      <trkpt lat="44.47302" lon="6.82682">
        <ele>1973.6</ele>
        <time>2022-08-16T07:18:43Z</time>
      </trkpt>
      <trkpt lat="44.47303" lon="6.8268">
        <ele>1972.2</ele>
        <time>2022-08-16T07:18:44Z</time>
      </trkpt>
      <trkpt lat="44.47305" lon="6.82678">
        <ele>1970.8</ele>
        <time>2022-08-16T07:18:45Z</time>
      </trkpt>
      <trkpt lat="44.4731" lon="6.82675">
        <ele>1969.4</ele>
        <time>2022-08-16T07:18:47Z</time>
      </trkpt>
      <trkpt lat="44.47314" lon="6.82674">
        <ele>1969</ele>
        <time>2022-08-16T07:18:48Z</time>
      </trkpt>
      <trkpt lat="44.47319" lon="6.82672">
        <ele>1968.6</ele>
        <time>2022-08-16T07:18:49Z</time>
      </trkpt>
      <trkpt lat="44.47324" lon="6.8267">
        <ele>1968</ele>
        <time>2022-08-16T07:18:50Z</time>
      </trkpt>
      <trkpt lat="44.4733" lon="6.82666">
        <ele>1967.8</ele>
        <time>2022-08-16T07:18:51Z</time>
      </trkpt>
      <trkpt lat="44.47337" lon="6.82663">
        <ele>1967.2</ele>
        <time>2022-08-16T07:18:52Z</time>
      </trkpt>
      <trkpt lat="44.4735" lon="6.82656">
        <ele>1966.4</ele>
        <time>2022-08-16T07:18:53Z</time>
      </trkpt>
      <trkpt lat="44.47353" lon="6.82654">
        <ele>1965.6</ele>
        <time>2022-08-16T07:18:54Z</time>
      </trkpt>
      <trkpt lat="44.47356" lon="6.82653">
        <ele>1964.6</ele>
        <time>2022-08-16T07:18:55Z</time>
      </trkpt>
      <trkpt lat="44.47362" lon="6.82649">
        <ele>1963.2</ele>
        <time>2022-08-16T07:18:56Z</time>
      </trkpt>
      <trkpt lat="44.47368" lon="6.82645">
        <ele>1962.8</ele>
        <time>2022-08-16T07:18:57Z</time>
      </trkpt>
      <trkpt lat="44.47374" lon="6.82641">
        <ele>1962.2</ele>
        <time>2022-08-16T07:18:58Z</time>
      </trkpt>
      <trkpt lat="44.47379" lon="6.82637">
        <ele>1960.6</ele>
        <time>2022-08-16T07:18:59Z</time>
      </trkpt>
      <trkpt lat="44.47383" lon="6.82634">
        <ele>1959</ele>
        <time>2022-08-16T07:19:00Z</time>
      </trkpt>
      <trkpt lat="44.47387" lon="6.82632">
        <ele>1957.4</ele>
        <time>2022-08-16T07:19:01Z</time>
      </trkpt>
      <trkpt lat="44.47391" lon="6.82633">
        <ele>1957.4</ele>
        <time>2022-08-16T07:19:02Z</time>
      </trkpt>
      <trkpt lat="44.47393" lon="6.82635">
        <ele>1956.2</ele>
        <time>2022-08-16T07:19:03Z</time>
      </trkpt>
      <trkpt lat="44.47394" lon="6.82638">
        <ele>1954.6</ele>
        <time>2022-08-16T07:19:04Z</time>
      </trkpt>
      <trkpt lat="44.47395" lon="6.82647">
        <ele>1951.8</ele>
        <time>2022-08-16T07:19:06Z</time>
      </trkpt>
      <trkpt lat="44.47396" lon="6.82651">
        <ele>1950.4</ele>
        <time>2022-08-16T07:19:07Z</time>
      </trkpt>
      <trkpt lat="44.47396" lon="6.82655">
        <ele>1949</ele>
        <time>2022-08-16T07:19:08Z</time>
      </trkpt>
      <trkpt lat="44.47396" lon="6.8266">
        <ele>1948</ele>
        <time>2022-08-16T07:19:09Z</time>
      </trkpt>
      <trkpt lat="44.47396" lon="6.82663">
        <ele>1947.2</ele>
        <time>2022-08-16T07:19:10Z</time>
      </trkpt>
      <trkpt lat="44.47396" lon="6.82667">
        <ele>1946.6</ele>
        <time>2022-08-16T07:19:11Z</time>
      </trkpt>
      <trkpt lat="44.47396" lon="6.82674">
        <ele>1946.2</ele>
        <time>2022-08-16T07:19:12Z</time>
      </trkpt>
      <trkpt lat="44.47396" lon="6.82677">
        <ele>1945.2</ele>
        <time>2022-08-16T07:19:14Z</time>
      </trkpt>
      <trkpt lat="44.47397" lon="6.82681">
        <ele>1944.6</ele>
        <time>2022-08-16T07:19:15Z</time>
      </trkpt>
      <trkpt lat="44.47398" lon="6.82685">
        <ele>1944.4</ele>
        <time>2022-08-16T07:19:16Z</time>
      </trkpt>
      <trkpt lat="44.474" lon="6.82692">
        <ele>1943</ele>
        <time>2022-08-16T07:19:18Z</time>
      </trkpt>
      <trkpt lat="44.47402" lon="6.82695">
        <ele>1942.2</ele>
        <time>2022-08-16T07:19:19Z</time>
      </trkpt>
      <trkpt lat="44.47405" lon="6.82698">
        <ele>1941.6</ele>
        <time>2022-08-16T07:19:20Z</time>
      </trkpt>
      <trkpt lat="44.47407" lon="6.82701">
        <ele>1941.2</ele>
        <time>2022-08-16T07:19:21Z</time>
      </trkpt>
      <trkpt lat="44.47412" lon="6.82705">
        <ele>1940.8</ele>
        <time>2022-08-16T07:19:22Z</time>
      </trkpt>
      <trkpt lat="44.47414" lon="6.82706">
        <ele>1940.4</ele>
        <time>2022-08-16T07:19:23Z</time>
      </trkpt>
      <trkpt lat="44.47415" lon="6.82707">
        <ele>1940.2</ele>
        <time>2022-08-16T07:19:24Z</time>
      </trkpt>
      <trkpt lat="44.47417" lon="6.82709">
        <ele>1940.2</ele>
        <time>2022-08-16T07:19:25Z</time>
      </trkpt>
      <trkpt lat="44.47426" lon="6.82723">
        <ele>1939.4</ele>
        <time>2022-08-16T07:19:27Z</time>
      </trkpt>
      <trkpt lat="44.4743" lon="6.82727">
        <ele>1939.2</ele>
        <time>2022-08-16T07:19:28Z</time>
      </trkpt>
      <trkpt lat="44.47435" lon="6.8273">
        <ele>1939</ele>
        <time>2022-08-16T07:19:29Z</time>
      </trkpt>
      <trkpt lat="44.4744" lon="6.82731">
        <ele>1938.6</ele>
        <time>2022-08-16T07:19:30Z</time>
      </trkpt>
      <trkpt lat="44.47445" lon="6.82731">
        <ele>1938.4</ele>
        <time>2022-08-16T07:19:31Z</time>
      </trkpt>
      <trkpt lat="44.47449" lon="6.8273">
        <ele>1938.2</ele>
        <time>2022-08-16T07:19:32Z</time>
      </trkpt>
      <trkpt lat="44.47454" lon="6.82729">
        <ele>1938</ele>
        <time>2022-08-16T07:19:33Z</time>
      </trkpt>
      <trkpt lat="44.4746" lon="6.82726">
        <ele>1937.8</ele>
        <time>2022-08-16T07:19:34Z</time>
      </trkpt>
      <trkpt lat="44.47478" lon="6.82714">
        <ele>1936.2</ele>
        <time>2022-08-16T07:19:37Z</time>
      </trkpt>
      <trkpt lat="44.47484" lon="6.82709">
        <ele>1935.6</ele>
        <time>2022-08-16T07:19:38Z</time>
      </trkpt>
      <trkpt lat="44.47495" lon="6.827">
        <ele>1935</ele>
        <time>2022-08-16T07:19:40Z</time>
      </trkpt>
      <trkpt lat="44.47501" lon="6.82698">
        <ele>1934.6</ele>
        <time>2022-08-16T07:19:41Z</time>
      </trkpt>
      <trkpt lat="44.47505" lon="6.82697">
        <ele>1934.2</ele>
        <time>2022-08-16T07:19:42Z</time>
      </trkpt>
      <trkpt lat="44.4751" lon="6.82696">
        <ele>1933.8</ele>
        <time>2022-08-16T07:19:43Z</time>
      </trkpt>
      <trkpt lat="44.47519" lon="6.82695">
        <ele>1933.6</ele>
        <time>2022-08-16T07:19:44Z</time>
      </trkpt>
      <trkpt lat="44.47526" lon="6.82695">
        <ele>1933</ele>
        <time>2022-08-16T07:19:45Z</time>
      </trkpt>
      <trkpt lat="44.47541" lon="6.82696">
        <ele>1931.2</ele>
        <time>2022-08-16T07:19:47Z</time>
      </trkpt>
      <trkpt lat="44.47565" lon="6.82698">
        <ele>1930</ele>
        <time>2022-08-16T07:19:50Z</time>
      </trkpt>
      <trkpt lat="44.4758" lon="6.82694">
        <ele>1928.2</ele>
        <time>2022-08-16T07:19:52Z</time>
      </trkpt>
      <trkpt lat="44.47585" lon="6.8269">
        <ele>1927.2</ele>
        <time>2022-08-16T07:19:53Z</time>
      </trkpt>
      <trkpt lat="44.4759" lon="6.82685">
        <ele>1926.6</ele>
        <time>2022-08-16T07:19:54Z</time>
      </trkpt>
      <trkpt lat="44.476" lon="6.82676">
        <ele>1925.6</ele>
        <time>2022-08-16T07:19:55Z</time>
      </trkpt>
      <trkpt lat="44.47606" lon="6.82669">
        <ele>1924.8</ele>
        <time>2022-08-16T07:19:56Z</time>
      </trkpt>
      <trkpt lat="44.4761" lon="6.82662">
        <ele>1923.8</ele>
        <time>2022-08-16T07:19:57Z</time>
      </trkpt>
      <trkpt lat="44.47613" lon="6.82655">
        <ele>1923</ele>
        <time>2022-08-16T07:19:58Z</time>
      </trkpt>
      <trkpt lat="44.47619" lon="6.8264">
        <ele>1921.8</ele>
        <time>2022-08-16T07:19:59Z</time>
      </trkpt>
      <trkpt lat="44.4762" lon="6.82631">
        <ele>1920.8</ele>
        <time>2022-08-16T07:20:00Z</time>
      </trkpt>
      <trkpt lat="44.47621" lon="6.82622">
        <ele>1920.2</ele>
        <time>2022-08-16T07:20:01Z</time>
      </trkpt>
      <trkpt lat="44.47622" lon="6.82614">
        <ele>1919.2</ele>
        <time>2022-08-16T07:20:02Z</time>
      </trkpt>
      <trkpt lat="44.47623" lon="6.82611">
        <ele>1918.6</ele>
        <time>2022-08-16T07:20:03Z</time>
      </trkpt>
      <trkpt lat="44.47624" lon="6.82607">
        <ele>1917.4</ele>
        <time>2022-08-16T07:20:04Z</time>
      </trkpt>
      <trkpt lat="44.47627" lon="6.82603">
        <ele>1916.6</ele>
        <time>2022-08-16T07:20:05Z</time>
      </trkpt>
      <trkpt lat="44.4763" lon="6.82601">
        <ele>1916.2</ele>
        <time>2022-08-16T07:20:06Z</time>
      </trkpt>
      <trkpt lat="44.47632" lon="6.826">
        <ele>1915.8</ele>
        <time>2022-08-16T07:20:07Z</time>
      </trkpt>
      <trkpt lat="44.47636" lon="6.82602">
        <ele>1915.4</ele>
        <time>2022-08-16T07:20:08Z</time>
      </trkpt>
      <trkpt lat="44.47637" lon="6.82604">
        <ele>1915</ele>
        <time>2022-08-16T07:20:09Z</time>
      </trkpt>
      <trkpt lat="44.47638" lon="6.82607">
        <ele>1915</ele>
        <time>2022-08-16T07:20:10Z</time>
      </trkpt>
      <trkpt lat="44.4764" lon="6.8261">
        <ele>1915</ele>
        <time>2022-08-16T07:20:11Z</time>
      </trkpt>
      <trkpt lat="44.47641" lon="6.82613">
        <ele>1914.6</ele>
        <time>2022-08-16T07:20:12Z</time>
      </trkpt>
      <trkpt lat="44.47642" lon="6.82615">
        <ele>1914.2</ele>
        <time>2022-08-16T07:20:14Z</time>
      </trkpt>
      <trkpt lat="44.47643" lon="6.82618">
        <ele>1914</ele>
        <time>2022-08-16T07:20:15Z</time>
      </trkpt>
      <trkpt lat="44.47643" lon="6.82619">
        <ele>1913.8</ele>
        <time>2022-08-16T07:20:16Z</time>
      </trkpt>
      <trkpt lat="44.47643" lon="6.8262">
        <ele>1913.4</ele>
        <time>2022-08-16T07:20:18Z</time>
      </trkpt>
      <trkpt lat="44.47643" lon="6.8262">
        <ele>1913</ele>
        <time>2022-08-16T07:20:30Z</time>
      </trkpt>
      <trkpt lat="44.47644" lon="6.82622">
        <ele>1912.8</ele>
        <time>2022-08-16T07:20:32Z</time>
      </trkpt>
      <trkpt lat="44.47645" lon="6.82623">
        <ele>1912.8</ele>
        <time>2022-08-16T07:20:34Z</time>
      </trkpt>
      <trkpt lat="44.47645" lon="6.82624">
        <ele>1913</ele>
        <time>2022-08-16T07:20:35Z</time>
      </trkpt>
      <trkpt lat="44.47645" lon="6.82624">
        <ele>1912.8</ele>
        <time>2022-08-16T07:20:36Z</time>
      </trkpt>
      <trkpt lat="44.47649" lon="6.82633">
        <ele>1913</ele>
        <time>2022-08-16T07:20:45Z</time>
      </trkpt>
      <trkpt lat="44.47653" lon="6.82646">
        <ele>1913</ele>
        <time>2022-08-16T07:20:52Z</time>
      </trkpt>
      <trkpt lat="44.47653" lon="6.82647">
        <ele>1913.2</ele>
        <time>2022-08-16T07:20:53Z</time>
      </trkpt>
      <trkpt lat="44.47654" lon="6.82649">
        <ele>1913.2</ele>
        <time>2022-08-16T07:20:54Z</time>
      </trkpt>
      <trkpt lat="44.47654" lon="6.8265">
        <ele>1913.6</ele>
        <time>2022-08-16T07:20:55Z</time>
      </trkpt>
      <trkpt lat="44.47655" lon="6.82652">
        <ele>1913.6</ele>
        <time>2022-08-16T07:20:56Z</time>
      </trkpt>
      <trkpt lat="44.47655" lon="6.82654">
        <ele>1913.8</ele>
        <time>2022-08-16T07:20:57Z</time>
      </trkpt>
      <trkpt lat="44.47657" lon="6.82657">
        <ele>1913.8</ele>
        <time>2022-08-16T07:20:59Z</time>
      </trkpt>
      <trkpt lat="44.47657" lon="6.82658">
        <ele>1914</ele>
        <time>2022-08-16T07:21:00Z</time>
      </trkpt>
      <trkpt lat="44.47658" lon="6.8266">
        <ele>1914.2</ele>
        <time>2022-08-16T07:21:01Z</time>
      </trkpt>
      <trkpt lat="44.47659" lon="6.82661">
        <ele>1914.2</ele>
        <time>2022-08-16T07:21:02Z</time>
      </trkpt>
      <trkpt lat="44.4766" lon="6.82663">
        <ele>1914.4</ele>
        <time>2022-08-16T07:21:03Z</time>
      </trkpt>
      <trkpt lat="44.47661" lon="6.82664">
        <ele>1914.6</ele>
        <time>2022-08-16T07:21:04Z</time>
      </trkpt>
      <trkpt lat="44.47661" lon="6.82665">
        <ele>1915</ele>
        <time>2022-08-16T07:21:05Z</time>
      </trkpt>
      <trkpt lat="44.47662" lon="6.82667">
        <ele>1915.4</ele>
        <time>2022-08-16T07:21:06Z</time>
      </trkpt>
      <trkpt lat="44.47662" lon="6.82668">
        <ele>1915.4</ele>
        <time>2022-08-16T07:21:07Z</time>
      </trkpt>
      <trkpt lat="44.47663" lon="6.8267">
        <ele>1915.6</ele>
        <time>2022-08-16T07:21:08Z</time>
      </trkpt>
      <trkpt lat="44.47664" lon="6.82671">
        <ele>1916</ele>
        <time>2022-08-16T07:21:09Z</time>
      </trkpt>
      <trkpt lat="44.47664" lon="6.82673">
        <ele>1916</ele>
        <time>2022-08-16T07:21:10Z</time>
      </trkpt>
      <trkpt lat="44.47665" lon="6.82674">
        <ele>1916.4</ele>
        <time>2022-08-16T07:21:11Z</time>
      </trkpt>
      <trkpt lat="44.47665" lon="6.82675">
        <ele>1916.6</ele>
        <time>2022-08-16T07:21:12Z</time>
      </trkpt>
      <trkpt lat="44.47665" lon="6.82677">
        <ele>1916.8</ele>
        <time>2022-08-16T07:21:13Z</time>
      </trkpt>
      <trkpt lat="44.47666" lon="6.82678">
        <ele>1917</ele>
        <time>2022-08-16T07:21:14Z</time>
      </trkpt>
      <trkpt lat="44.47667" lon="6.82679">
        <ele>1917.2</ele>
        <time>2022-08-16T07:21:15Z</time>
      </trkpt>
      <trkpt lat="44.47668" lon="6.8268">
        <ele>1917.4</ele>
        <time>2022-08-16T07:21:16Z</time>
      </trkpt>
      <trkpt lat="44.47668" lon="6.82682">
        <ele>1917.6</ele>
        <time>2022-08-16T07:21:17Z</time>
      </trkpt>
      <trkpt lat="44.47669" lon="6.82683">
        <ele>1917.8</ele>
        <time>2022-08-16T07:21:18Z</time>
      </trkpt>
      <trkpt lat="44.4767" lon="6.82684">
        <ele>1918</ele>
        <time>2022-08-16T07:21:19Z</time>
      </trkpt>
      <trkpt lat="44.4767" lon="6.82685">
        <ele>1918.2</ele>
        <time>2022-08-16T07:21:20Z</time>
      </trkpt>
      <trkpt lat="44.47671" lon="6.82687">
        <ele>1918.2</ele>
        <time>2022-08-16T07:21:21Z</time>
      </trkpt>
      <trkpt lat="44.47672" lon="6.82688">
        <ele>1918.4</ele>
        <time>2022-08-16T07:21:22Z</time>
      </trkpt>
      <trkpt lat="44.47672" lon="6.82689">
        <ele>1918.6</ele>
        <time>2022-08-16T07:21:23Z</time>
      </trkpt>
      <trkpt lat="44.47673" lon="6.8269">
        <ele>1918.8</ele>
        <time>2022-08-16T07:21:24Z</time>
      </trkpt>
      <trkpt lat="44.47674" lon="6.82691">
        <ele>1919</ele>
        <time>2022-08-16T07:21:25Z</time>
      </trkpt>
      <trkpt lat="44.47674" lon="6.82693">
        <ele>1919.2</ele>
        <time>2022-08-16T07:21:26Z</time>
      </trkpt>
      <trkpt lat="44.47675" lon="6.82694">
        <ele>1919.6</ele>
        <time>2022-08-16T07:21:27Z</time>
      </trkpt>
      <trkpt lat="44.47676" lon="6.82694">
        <ele>1919.6</ele>
        <time>2022-08-16T07:21:28Z</time>
      </trkpt>
      <trkpt lat="44.47677" lon="6.82695">
        <ele>1919.8</ele>
        <time>2022-08-16T07:21:29Z</time>
      </trkpt>
      <trkpt lat="44.47678" lon="6.82696">
        <ele>1920</ele>
        <time>2022-08-16T07:21:30Z</time>
      </trkpt>
      <trkpt lat="44.47679" lon="6.82697">
        <ele>1920.4</ele>
        <time>2022-08-16T07:21:31Z</time>
      </trkpt>
      <trkpt lat="44.47679" lon="6.82697">
        <ele>1920.8</ele>
        <time>2022-08-16T07:21:32Z</time>
      </trkpt>
      <trkpt lat="44.47679" lon="6.82698">
        <ele>1920.8</ele>
        <time>2022-08-16T07:21:33Z</time>
      </trkpt>
      <trkpt lat="44.47681" lon="6.82699">
        <ele>1921</ele>
        <time>2022-08-16T07:21:34Z</time>
      </trkpt>
      <trkpt lat="44.47683" lon="6.82699">
        <ele>1921.4</ele>
        <time>2022-08-16T07:21:35Z</time>
      </trkpt>
      <trkpt lat="44.47684" lon="6.827">
        <ele>1921.6</ele>
        <time>2022-08-16T07:21:36Z</time>
      </trkpt>
      <trkpt lat="44.47685" lon="6.827">
        <ele>1921.8</ele>
        <time>2022-08-16T07:21:37Z</time>
      </trkpt>
      <trkpt lat="44.47686" lon="6.827">
        <ele>1921.8</ele>
        <time>2022-08-16T07:21:38Z</time>
      </trkpt>
      <trkpt lat="44.47687" lon="6.82701">
        <ele>1922.2</ele>
        <time>2022-08-16T07:21:39Z</time>
      </trkpt>
      <trkpt lat="44.47688" lon="6.82701">
        <ele>1922.2</ele>
        <time>2022-08-16T07:21:40Z</time>
      </trkpt>
      <trkpt lat="44.47689" lon="6.82701">
        <ele>1922.4</ele>
        <time>2022-08-16T07:21:41Z</time>
      </trkpt>
      <trkpt lat="44.4769" lon="6.82701">
        <ele>1922.6</ele>
        <time>2022-08-16T07:21:42Z</time>
      </trkpt>
      <trkpt lat="44.4769" lon="6.82701">
        <ele>1922.8</ele>
        <time>2022-08-16T07:21:43Z</time>
      </trkpt>
      <trkpt lat="44.47692" lon="6.82702">
        <ele>1922.8</ele>
        <time>2022-08-16T07:21:44Z</time>
      </trkpt>
      <trkpt lat="44.47693" lon="6.82702">
        <ele>1923</ele>
        <time>2022-08-16T07:21:45Z</time>
      </trkpt>
      <trkpt lat="44.47694" lon="6.82702">
        <ele>1923.2</ele>
        <time>2022-08-16T07:21:46Z</time>
      </trkpt>
      <trkpt lat="44.47695" lon="6.82703">
        <ele>1923.4</ele>
        <time>2022-08-16T07:21:47Z</time>
      </trkpt>
      <trkpt lat="44.47696" lon="6.82703">
        <ele>1923.6</ele>
        <time>2022-08-16T07:21:48Z</time>
      </trkpt>
      <trkpt lat="44.47697" lon="6.82703">
        <ele>1923.6</ele>
        <time>2022-08-16T07:21:49Z</time>
      </trkpt>
      <trkpt lat="44.47698" lon="6.82704">
        <ele>1924</ele>
        <time>2022-08-16T07:21:50Z</time>
      </trkpt>
      <trkpt lat="44.47699" lon="6.82704">
        <ele>1924</ele>
        <time>2022-08-16T07:21:51Z</time>
      </trkpt>
      <trkpt lat="44.477" lon="6.82704">
        <ele>1924.2</ele>
        <time>2022-08-16T07:21:52Z</time>
      </trkpt>
      <trkpt lat="44.47701" lon="6.82705">
        <ele>1924.4</ele>
        <time>2022-08-16T07:21:53Z</time>
      </trkpt>
      <trkpt lat="44.47701" lon="6.82706">
        <ele>1924.6</ele>
        <time>2022-08-16T07:21:54Z</time>
      </trkpt>
      <trkpt lat="44.47702" lon="6.82706">
        <ele>1924.6</ele>
        <time>2022-08-16T07:21:55Z</time>
      </trkpt>
      <trkpt lat="44.47704" lon="6.82707">
        <ele>1924.8</ele>
        <time>2022-08-16T07:21:56Z</time>
      </trkpt>
      <trkpt lat="44.47705" lon="6.82707">
        <ele>1925</ele>
        <time>2022-08-16T07:21:57Z</time>
      </trkpt>
      <trkpt lat="44.47706" lon="6.82708">
        <ele>1925.2</ele>
        <time>2022-08-16T07:21:58Z</time>
      </trkpt>
      <trkpt lat="44.47707" lon="6.82709">
        <ele>1925.4</ele>
        <time>2022-08-16T07:21:59Z</time>
      </trkpt>
      <trkpt lat="44.47708" lon="6.82709">
        <ele>1925.6</ele>
        <time>2022-08-16T07:22:00Z</time>
      </trkpt>
      <trkpt lat="44.47709" lon="6.82709">
        <ele>1925.8</ele>
        <time>2022-08-16T07:22:01Z</time>
      </trkpt>
      <trkpt lat="44.4771" lon="6.8271">
        <ele>1926.2</ele>
        <time>2022-08-16T07:22:02Z</time>
      </trkpt>
      <trkpt lat="44.47711" lon="6.82711">
        <ele>1926.2</ele>
        <time>2022-08-16T07:22:03Z</time>
      </trkpt>
      <trkpt lat="44.47712" lon="6.82712">
        <ele>1926.4</ele>
        <time>2022-08-16T07:22:04Z</time>
      </trkpt>
      <trkpt lat="44.47712" lon="6.82713">
        <ele>1926.6</ele>
        <time>2022-08-16T07:22:05Z</time>
      </trkpt>
      <trkpt lat="44.47712" lon="6.82713">
        <ele>1926.8</ele>
        <time>2022-08-16T07:22:06Z</time>
      </trkpt>
      <trkpt lat="44.47713" lon="6.82716">
        <ele>1926.8</ele>
        <time>2022-08-16T07:22:07Z</time>
      </trkpt>
      <trkpt lat="44.47714" lon="6.82718">
        <ele>1926.8</ele>
        <time>2022-08-16T07:22:08Z</time>
      </trkpt>
      <trkpt lat="44.47714" lon="6.82719">
        <ele>1927.2</ele>
        <time>2022-08-16T07:22:09Z</time>
      </trkpt>
      <trkpt lat="44.47714" lon="6.82721">
        <ele>1927.2</ele>
        <time>2022-08-16T07:22:10Z</time>
      </trkpt>
      <trkpt lat="44.47714" lon="6.82723">
        <ele>1927.2</ele>
        <time>2022-08-16T07:22:11Z</time>
      </trkpt>
      <trkpt lat="44.47714" lon="6.82723">
        <ele>1927.4</ele>
        <time>2022-08-16T07:22:12Z</time>
      </trkpt>
      <trkpt lat="44.47713" lon="6.82725">
        <ele>1927.6</ele>
        <time>2022-08-16T07:22:13Z</time>
      </trkpt>
      <trkpt lat="44.47712" lon="6.82727">
        <ele>1927.6</ele>
        <time>2022-08-16T07:22:14Z</time>
      </trkpt>
      <trkpt lat="44.47711" lon="6.82729">
        <ele>1927.6</ele>
        <time>2022-08-16T07:22:15Z</time>
      </trkpt>
      <trkpt lat="44.4771" lon="6.8273">
        <ele>1927.8</ele>
        <time>2022-08-16T07:22:16Z</time>
      </trkpt>
      <trkpt lat="44.47709" lon="6.82731">
        <ele>1927.8</ele>
        <time>2022-08-16T07:22:17Z</time>
      </trkpt>
      <trkpt lat="44.47707" lon="6.82732">
        <ele>1928.2</ele>
        <time>2022-08-16T07:22:18Z</time>
      </trkpt>
      <trkpt lat="44.47706" lon="6.82734">
        <ele>1928.2</ele>
        <time>2022-08-16T07:22:19Z</time>
      </trkpt>
      <trkpt lat="44.47705" lon="6.82735">
        <ele>1928.6</ele>
        <time>2022-08-16T07:22:20Z</time>
      </trkpt>
      <trkpt lat="44.47704" lon="6.82736">
        <ele>1929</ele>
        <time>2022-08-16T07:22:21Z</time>
      </trkpt>
      <trkpt lat="44.47703" lon="6.82738">
        <ele>1929</ele>
        <time>2022-08-16T07:22:22Z</time>
      </trkpt>
      <trkpt lat="44.47702" lon="6.82739">
        <ele>1929.2</ele>
        <time>2022-08-16T07:22:23Z</time>
      </trkpt>
      <trkpt lat="44.47702" lon="6.82741">
        <ele>1929.2</ele>
        <time>2022-08-16T07:22:24Z</time>
      </trkpt>
      <trkpt lat="44.47701" lon="6.82742">
        <ele>1929.4</ele>
        <time>2022-08-16T07:22:25Z</time>
      </trkpt>
      <trkpt lat="44.477" lon="6.82744">
        <ele>1929.4</ele>
        <time>2022-08-16T07:22:26Z</time>
      </trkpt>
      <trkpt lat="44.47699" lon="6.82745">
        <ele>1929.4</ele>
        <time>2022-08-16T07:22:27Z</time>
      </trkpt>
      <trkpt lat="44.47698" lon="6.82746">
        <ele>1929.6</ele>
        <time>2022-08-16T07:22:28Z</time>
      </trkpt>
      <trkpt lat="44.47697" lon="6.82748">
        <ele>1929.8</ele>
        <time>2022-08-16T07:22:29Z</time>
      </trkpt>
      <trkpt lat="44.47696" lon="6.82749">
        <ele>1929.8</ele>
        <time>2022-08-16T07:22:30Z</time>
      </trkpt>
      <trkpt lat="44.47694" lon="6.8275">
        <ele>1930</ele>
        <time>2022-08-16T07:22:31Z</time>
      </trkpt>
      <trkpt lat="44.47693" lon="6.82752">
        <ele>1930</ele>
        <time>2022-08-16T07:22:32Z</time>
      </trkpt>
      <trkpt lat="44.47692" lon="6.82753">
        <ele>1930</ele>
        <time>2022-08-16T07:22:33Z</time>
      </trkpt>
      <trkpt lat="44.47691" lon="6.82754">
        <ele>1930.2</ele>
        <time>2022-08-16T07:22:34Z</time>
      </trkpt>
      <trkpt lat="44.4769" lon="6.82755">
        <ele>1930</ele>
        <time>2022-08-16T07:22:35Z</time>
      </trkpt>
      <trkpt lat="44.47689" lon="6.82757">
        <ele>1930.2</ele>
        <time>2022-08-16T07:22:36Z</time>
      </trkpt>
      <trkpt lat="44.47688" lon="6.82758">
        <ele>1930.4</ele>
        <time>2022-08-16T07:22:37Z</time>
      </trkpt>
      <trkpt lat="44.47687" lon="6.82759">
        <ele>1930.4</ele>
        <time>2022-08-16T07:22:38Z</time>
      </trkpt>
      <trkpt lat="44.47686" lon="6.8276">
        <ele>1930.6</ele>
        <time>2022-08-16T07:22:39Z</time>
      </trkpt>
      <trkpt lat="44.47685" lon="6.82761">
        <ele>1930.6</ele>
        <time>2022-08-16T07:22:40Z</time>
      </trkpt>
      <trkpt lat="44.47684" lon="6.82763">
        <ele>1930.8</ele>
        <time>2022-08-16T07:22:41Z</time>
      </trkpt>
      <trkpt lat="44.47683" lon="6.82764">
        <ele>1931</ele>
        <time>2022-08-16T07:22:42Z</time>
      </trkpt>
      <trkpt lat="44.47682" lon="6.82765">
        <ele>1931.2</ele>
        <time>2022-08-16T07:22:43Z</time>
      </trkpt>
      <trkpt lat="44.47681" lon="6.82766">
        <ele>1931.4</ele>
        <time>2022-08-16T07:22:44Z</time>
      </trkpt>
      <trkpt lat="44.4768" lon="6.82768">
        <ele>1931.6</ele>
        <time>2022-08-16T07:22:45Z</time>
      </trkpt>
      <trkpt lat="44.4768" lon="6.82769">
        <ele>1931.6</ele>
        <time>2022-08-16T07:22:46Z</time>
      </trkpt>
      <trkpt lat="44.47679" lon="6.82771">
        <ele>1931.8</ele>
        <time>2022-08-16T07:22:47Z</time>
      </trkpt>
      <trkpt lat="44.47679" lon="6.82773">
        <ele>1931.8</ele>
        <time>2022-08-16T07:22:48Z</time>
      </trkpt>
      <trkpt lat="44.47679" lon="6.82775">
        <ele>1932</ele>
        <time>2022-08-16T07:22:49Z</time>
      </trkpt>
      <trkpt lat="44.47679" lon="6.82777">
        <ele>1932.2</ele>
        <time>2022-08-16T07:22:50Z</time>
      </trkpt>
      <trkpt lat="44.4768" lon="6.82778">
        <ele>1932.4</ele>
        <time>2022-08-16T07:22:51Z</time>
      </trkpt>
      <trkpt lat="44.47681" lon="6.82779">
        <ele>1932.8</ele>
        <time>2022-08-16T07:22:52Z</time>
      </trkpt>
      <trkpt lat="44.47682" lon="6.82781">
        <ele>1932.8</ele>
        <time>2022-08-16T07:22:53Z</time>
      </trkpt>
      <trkpt lat="44.47683" lon="6.82782">
        <ele>1932.8</ele>
        <time>2022-08-16T07:22:54Z</time>
      </trkpt>
      <trkpt lat="44.47684" lon="6.82783">
        <ele>1933</ele>
        <time>2022-08-16T07:22:55Z</time>
      </trkpt>
      <trkpt lat="44.47685" lon="6.82784">
        <ele>1933</ele>
        <time>2022-08-16T07:22:56Z</time>
      </trkpt>
      <trkpt lat="44.47686" lon="6.82785">
        <ele>1933.2</ele>
        <time>2022-08-16T07:22:57Z</time>
      </trkpt>
      <trkpt lat="44.47688" lon="6.82786">
        <ele>1933.4</ele>
        <time>2022-08-16T07:22:58Z</time>
      </trkpt>
      <trkpt lat="44.47689" lon="6.82787">
        <ele>1933.4</ele>
        <time>2022-08-16T07:22:59Z</time>
      </trkpt>
      <trkpt lat="44.4769" lon="6.82788">
        <ele>1933.6</ele>
        <time>2022-08-16T07:23:00Z</time>
      </trkpt>
      <trkpt lat="44.47692" lon="6.82789">
        <ele>1933.8</ele>
        <time>2022-08-16T07:23:01Z</time>
      </trkpt>
      <trkpt lat="44.47693" lon="6.82789">
        <ele>1934.2</ele>
        <time>2022-08-16T07:23:02Z</time>
      </trkpt>
      <trkpt lat="44.47694" lon="6.8279">
        <ele>1934.2</ele>
        <time>2022-08-16T07:23:03Z</time>
      </trkpt>
      <trkpt lat="44.47696" lon="6.82791">
        <ele>1934.6</ele>
        <time>2022-08-16T07:23:04Z</time>
      </trkpt>
      <trkpt lat="44.47697" lon="6.82791">
        <ele>1934.8</ele>
        <time>2022-08-16T07:23:05Z</time>
      </trkpt>
      <trkpt lat="44.47699" lon="6.82792">
        <ele>1935</ele>
        <time>2022-08-16T07:23:06Z</time>
      </trkpt>
      <trkpt lat="44.477" lon="6.82792">
        <ele>1935.2</ele>
        <time>2022-08-16T07:23:07Z</time>
      </trkpt>
      <trkpt lat="44.47701" lon="6.82792">
        <ele>1935.2</ele>
        <time>2022-08-16T07:23:08Z</time>
      </trkpt>
      <trkpt lat="44.47703" lon="6.82792">
        <ele>1935.4</ele>
        <time>2022-08-16T07:23:09Z</time>
      </trkpt>
      <trkpt lat="44.47704" lon="6.82792">
        <ele>1935.4</ele>
        <time>2022-08-16T07:23:10Z</time>
      </trkpt>
      <trkpt lat="44.47705" lon="6.82792">
        <ele>1935.6</ele>
        <time>2022-08-16T07:23:11Z</time>
      </trkpt>
      <trkpt lat="44.47707" lon="6.82792">
        <ele>1936</ele>
        <time>2022-08-16T07:23:12Z</time>
      </trkpt>
      <trkpt lat="44.47708" lon="6.82792">
        <ele>1935.8</ele>
        <time>2022-08-16T07:23:13Z</time>
      </trkpt>
      <trkpt lat="44.47709" lon="6.82793">
        <ele>1936</ele>
        <time>2022-08-16T07:23:14Z</time>
      </trkpt>
      <trkpt lat="44.4771" lon="6.82793">
        <ele>1936.2</ele>
        <time>2022-08-16T07:23:15Z</time>
      </trkpt>
      <trkpt lat="44.47711" lon="6.82792">
        <ele>1936.2</ele>
        <time>2022-08-16T07:23:16Z</time>
      </trkpt>
      <trkpt lat="44.47712" lon="6.82793">
        <ele>1936.4</ele>
        <time>2022-08-16T07:23:17Z</time>
      </trkpt>
      <trkpt lat="44.47714" lon="6.82793">
        <ele>1936.6</ele>
        <time>2022-08-16T07:23:18Z</time>
      </trkpt>
      <trkpt lat="44.47715" lon="6.82793">
        <ele>1937</ele>
        <time>2022-08-16T07:23:19Z</time>
      </trkpt>
      <trkpt lat="44.47716" lon="6.82793">
        <ele>1937</ele>
        <time>2022-08-16T07:23:20Z</time>
      </trkpt>
      <trkpt lat="44.47718" lon="6.82794">
        <ele>1937.2</ele>
        <time>2022-08-16T07:23:21Z</time>
      </trkpt>
      <trkpt lat="44.47719" lon="6.82794">
        <ele>1937.2</ele>
        <time>2022-08-16T07:23:22Z</time>
      </trkpt>
      <trkpt lat="44.4772" lon="6.82794">
        <ele>1937.4</ele>
        <time>2022-08-16T07:23:23Z</time>
      </trkpt>
      <trkpt lat="44.47721" lon="6.82795">
        <ele>1937.6</ele>
        <time>2022-08-16T07:23:24Z</time>
      </trkpt>
      <trkpt lat="44.47723" lon="6.82795">
        <ele>1937.6</ele>
        <time>2022-08-16T07:23:25Z</time>
      </trkpt>
      <trkpt lat="44.47724" lon="6.82795">
        <ele>1937.8</ele>
        <time>2022-08-16T07:23:26Z</time>
      </trkpt>
      <trkpt lat="44.47725" lon="6.82796">
        <ele>1938</ele>
        <time>2022-08-16T07:23:27Z</time>
      </trkpt>
      <trkpt lat="44.47727" lon="6.82796">
        <ele>1938</ele>
        <time>2022-08-16T07:23:28Z</time>
      </trkpt>
      <trkpt lat="44.47728" lon="6.82796">
        <ele>1938.2</ele>
        <time>2022-08-16T07:23:29Z</time>
      </trkpt>
      <trkpt lat="44.47729" lon="6.82796">
        <ele>1938.2</ele>
        <time>2022-08-16T07:23:30Z</time>
      </trkpt>
      <trkpt lat="44.4773" lon="6.82796">
        <ele>1938.4</ele>
        <time>2022-08-16T07:23:31Z</time>
      </trkpt>
      <trkpt lat="44.47731" lon="6.82796">
        <ele>1938.6</ele>
        <time>2022-08-16T07:23:32Z</time>
      </trkpt>
      <trkpt lat="44.47732" lon="6.82796">
        <ele>1938.8</ele>
        <time>2022-08-16T07:23:33Z</time>
      </trkpt>
      <trkpt lat="44.47733" lon="6.82797">
        <ele>1939</ele>
        <time>2022-08-16T07:23:34Z</time>
      </trkpt>
      <trkpt lat="44.47734" lon="6.82796">
        <ele>1939</ele>
        <time>2022-08-16T07:23:35Z</time>
      </trkpt>
      <trkpt lat="44.47736" lon="6.82797">
        <ele>1939.2</ele>
        <time>2022-08-16T07:23:36Z</time>
      </trkpt>
      <trkpt lat="44.47737" lon="6.82797">
        <ele>1939.4</ele>
        <time>2022-08-16T07:23:37Z</time>
      </trkpt>
      <trkpt lat="44.47738" lon="6.82797">
        <ele>1939.6</ele>
        <time>2022-08-16T07:23:38Z</time>
      </trkpt>
      <trkpt lat="44.47739" lon="6.82797">
        <ele>1939.8</ele>
        <time>2022-08-16T07:23:39Z</time>
      </trkpt>
      <trkpt lat="44.4774" lon="6.82796">
        <ele>1939.8</ele>
        <time>2022-08-16T07:23:40Z</time>
      </trkpt>
      <trkpt lat="44.47741" lon="6.82796">
        <ele>1940.2</ele>
        <time>2022-08-16T07:23:41Z</time>
      </trkpt>
      <trkpt lat="44.47742" lon="6.82796">
        <ele>1940.4</ele>
        <time>2022-08-16T07:23:42Z</time>
      </trkpt>
      <trkpt lat="44.47743" lon="6.82796">
        <ele>1940.4</ele>
        <time>2022-08-16T07:23:43Z</time>
      </trkpt>
      <trkpt lat="44.47744" lon="6.82797">
        <ele>1940.4</ele>
        <time>2022-08-16T07:23:44Z</time>
      </trkpt>
      <trkpt lat="44.47746" lon="6.82797">
        <ele>1940.6</ele>
        <time>2022-08-16T07:23:45Z</time>
      </trkpt>
      <trkpt lat="44.47747" lon="6.82797">
        <ele>1940.8</ele>
        <time>2022-08-16T07:23:46Z</time>
      </trkpt>
      <trkpt lat="44.47748" lon="6.82798">
        <ele>1941</ele>
        <time>2022-08-16T07:23:47Z</time>
      </trkpt>
      <trkpt lat="44.47749" lon="6.82798">
        <ele>1941</ele>
        <time>2022-08-16T07:23:48Z</time>
      </trkpt>
      <trkpt lat="44.47751" lon="6.82798">
        <ele>1941.2</ele>
        <time>2022-08-16T07:23:49Z</time>
      </trkpt>
      <trkpt lat="44.47752" lon="6.82799">
        <ele>1941.6</ele>
        <time>2022-08-16T07:23:50Z</time>
      </trkpt>
      <trkpt lat="44.47753" lon="6.828">
        <ele>1941.6</ele>
        <time>2022-08-16T07:23:51Z</time>
      </trkpt>
      <trkpt lat="44.47754" lon="6.82802">
        <ele>1942</ele>
        <time>2022-08-16T07:23:52Z</time>
      </trkpt>
      <trkpt lat="44.47754" lon="6.82803">
        <ele>1942</ele>
        <time>2022-08-16T07:23:53Z</time>
      </trkpt>
      <trkpt lat="44.47754" lon="6.82805">
        <ele>1942.2</ele>
        <time>2022-08-16T07:23:54Z</time>
      </trkpt>
      <trkpt lat="44.47754" lon="6.82807">
        <ele>1942.6</ele>
        <time>2022-08-16T07:23:55Z</time>
      </trkpt>
      <trkpt lat="44.47753" lon="6.82808">
        <ele>1942.6</ele>
        <time>2022-08-16T07:23:56Z</time>
      </trkpt>
      <trkpt lat="44.47753" lon="6.8281">
        <ele>1942.8</ele>
        <time>2022-08-16T07:23:57Z</time>
      </trkpt>
      <trkpt lat="44.47752" lon="6.82811">
        <ele>1943.2</ele>
        <time>2022-08-16T07:23:58Z</time>
      </trkpt>
      <trkpt lat="44.47752" lon="6.82812">
        <ele>1943.2</ele>
        <time>2022-08-16T07:23:59Z</time>
      </trkpt>
      <trkpt lat="44.47751" lon="6.82813">
        <ele>1943.4</ele>
        <time>2022-08-16T07:24:00Z</time>
      </trkpt>
      <trkpt lat="44.4775" lon="6.82814">
        <ele>1943.4</ele>
        <time>2022-08-16T07:24:01Z</time>
      </trkpt>
      <trkpt lat="44.47749" lon="6.82815">
        <ele>1943.6</ele>
        <time>2022-08-16T07:24:02Z</time>
      </trkpt>
      <trkpt lat="44.47748" lon="6.82817">
        <ele>1943.6</ele>
        <time>2022-08-16T07:24:03Z</time>
      </trkpt>
      <trkpt lat="44.47747" lon="6.82818">
        <ele>1943.8</ele>
        <time>2022-08-16T07:24:04Z</time>
      </trkpt>
      <trkpt lat="44.47747" lon="6.82819">
        <ele>1944.4</ele>
        <time>2022-08-16T07:24:05Z</time>
      </trkpt>
      <trkpt lat="44.47746" lon="6.8282">
        <ele>1944.6</ele>
        <time>2022-08-16T07:24:06Z</time>
      </trkpt>
      <trkpt lat="44.47745" lon="6.82821">
        <ele>1944.6</ele>
        <time>2022-08-16T07:24:07Z</time>
      </trkpt>
      <trkpt lat="44.47744" lon="6.82823">
        <ele>1944.6</ele>
        <time>2022-08-16T07:24:08Z</time>
      </trkpt>
      <trkpt lat="44.47743" lon="6.82824">
        <ele>1944.8</ele>
        <time>2022-08-16T07:24:09Z</time>
      </trkpt>
      <trkpt lat="44.47741" lon="6.82825">
        <ele>1944.8</ele>
        <time>2022-08-16T07:24:10Z</time>
      </trkpt>
      <trkpt lat="44.47741" lon="6.82826">
        <ele>1944.8</ele>
        <time>2022-08-16T07:24:11Z</time>
      </trkpt>
      <trkpt lat="44.4774" lon="6.82827">
        <ele>1945</ele>
        <time>2022-08-16T07:24:12Z</time>
      </trkpt>
      <trkpt lat="44.47739" lon="6.82829">
        <ele>1945</ele>
        <time>2022-08-16T07:24:13Z</time>
      </trkpt>
      <trkpt lat="44.47738" lon="6.8283">
        <ele>1945.2</ele>
        <time>2022-08-16T07:24:14Z</time>
      </trkpt>
      <trkpt lat="44.47737" lon="6.82831">
        <ele>1945.4</ele>
        <time>2022-08-16T07:24:15Z</time>
      </trkpt>
      <trkpt lat="44.47736" lon="6.82833">
        <ele>1945.6</ele>
        <time>2022-08-16T07:24:16Z</time>
      </trkpt>
      <trkpt lat="44.47735" lon="6.82834">
        <ele>1945.8</ele>
        <time>2022-08-16T07:24:17Z</time>
      </trkpt>
      <trkpt lat="44.47734" lon="6.82835">
        <ele>1945.8</ele>
        <time>2022-08-16T07:24:18Z</time>
      </trkpt>
      <trkpt lat="44.47733" lon="6.82836">
        <ele>1945.8</ele>
        <time>2022-08-16T07:24:19Z</time>
      </trkpt>
      <trkpt lat="44.47732" lon="6.82837">
        <ele>1946</ele>
        <time>2022-08-16T07:24:20Z</time>
      </trkpt>
      <trkpt lat="44.47732" lon="6.82838">
        <ele>1946</ele>
        <time>2022-08-16T07:24:21Z</time>
      </trkpt>
      <trkpt lat="44.47731" lon="6.8284">
        <ele>1946.2</ele>
        <time>2022-08-16T07:24:22Z</time>
      </trkpt>
      <trkpt lat="44.4773" lon="6.82841">
        <ele>1946.2</ele>
        <time>2022-08-16T07:24:23Z</time>
      </trkpt>
      <trkpt lat="44.47729" lon="6.82842">
        <ele>1946.4</ele>
        <time>2022-08-16T07:24:24Z</time>
      </trkpt>
      <trkpt lat="44.47728" lon="6.82843">
        <ele>1946.6</ele>
        <time>2022-08-16T07:24:25Z</time>
      </trkpt>
      <trkpt lat="44.47727" lon="6.82844">
        <ele>1946.8</ele>
        <time>2022-08-16T07:24:26Z</time>
      </trkpt>
      <trkpt lat="44.47726" lon="6.82845">
        <ele>1946.8</ele>
        <time>2022-08-16T07:24:27Z</time>
      </trkpt>
      <trkpt lat="44.47725" lon="6.82846">
        <ele>1947.2</ele>
        <time>2022-08-16T07:24:28Z</time>
      </trkpt>
      <trkpt lat="44.47724" lon="6.82847">
        <ele>1947</ele>
        <time>2022-08-16T07:24:29Z</time>
      </trkpt>
      <trkpt lat="44.47723" lon="6.82848">
        <ele>1947.4</ele>
        <time>2022-08-16T07:24:30Z</time>
      </trkpt>
      <trkpt lat="44.47722" lon="6.82849">
        <ele>1947.4</ele>
        <time>2022-08-16T07:24:31Z</time>
      </trkpt>
      <trkpt lat="44.47721" lon="6.82849">
        <ele>1947.4</ele>
        <time>2022-08-16T07:24:32Z</time>
      </trkpt>
      <trkpt lat="44.4772" lon="6.8285">
        <ele>1947.6</ele>
        <time>2022-08-16T07:24:33Z</time>
      </trkpt>
      <trkpt lat="44.47718" lon="6.82851">
        <ele>1947.6</ele>
        <time>2022-08-16T07:24:34Z</time>
      </trkpt>
      <trkpt lat="44.47717" lon="6.82852">
        <ele>1947.8</ele>
        <time>2022-08-16T07:24:35Z</time>
      </trkpt>
      <trkpt lat="44.47716" lon="6.82852">
        <ele>1947.8</ele>
        <time>2022-08-16T07:24:36Z</time>
      </trkpt>
      <trkpt lat="44.47715" lon="6.82853">
        <ele>1947.8</ele>
        <time>2022-08-16T07:24:37Z</time>
      </trkpt>
      <trkpt lat="44.47714" lon="6.82853">
        <ele>1948.2</ele>
        <time>2022-08-16T07:24:38Z</time>
      </trkpt>
      <trkpt lat="44.47712" lon="6.82854">
        <ele>1948.2</ele>
        <time>2022-08-16T07:24:39Z</time>
      </trkpt>
      <trkpt lat="44.47711" lon="6.82855">
        <ele>1948.4</ele>
        <time>2022-08-16T07:24:40Z</time>
      </trkpt>
      <trkpt lat="44.4771" lon="6.82855">
        <ele>1948.4</ele>
        <time>2022-08-16T07:24:41Z</time>
      </trkpt>
      <trkpt lat="44.47709" lon="6.82856">
        <ele>1948.6</ele>
        <time>2022-08-16T07:24:42Z</time>
      </trkpt>
      <trkpt lat="44.47708" lon="6.82857">
        <ele>1948.8</ele>
        <time>2022-08-16T07:24:43Z</time>
      </trkpt>
      <trkpt lat="44.47706" lon="6.82857">
        <ele>1949</ele>
        <time>2022-08-16T07:24:44Z</time>
      </trkpt>
      <trkpt lat="44.47705" lon="6.82858">
        <ele>1949.2</ele>
        <time>2022-08-16T07:24:45Z</time>
      </trkpt>
      <trkpt lat="44.47703" lon="6.82858">
        <ele>1949.2</ele>
        <time>2022-08-16T07:24:46Z</time>
      </trkpt>
      <trkpt lat="44.47702" lon="6.82858">
        <ele>1949.2</ele>
        <time>2022-08-16T07:24:47Z</time>
      </trkpt>
      <trkpt lat="44.47701" lon="6.82859">
        <ele>1949.4</ele>
        <time>2022-08-16T07:24:48Z</time>
      </trkpt>
      <trkpt lat="44.477" lon="6.82859">
        <ele>1949.6</ele>
        <time>2022-08-16T07:24:49Z</time>
      </trkpt>
      <trkpt lat="44.47699" lon="6.8286">
        <ele>1949.6</ele>
        <time>2022-08-16T07:24:50Z</time>
      </trkpt>
      <trkpt lat="44.47697" lon="6.82861">
        <ele>1949.8</ele>
        <time>2022-08-16T07:24:51Z</time>
      </trkpt>
      <trkpt lat="44.47696" lon="6.82862">
        <ele>1950</ele>
        <time>2022-08-16T07:24:52Z</time>
      </trkpt>
      <trkpt lat="44.47695" lon="6.82862">
        <ele>1950</ele>
        <time>2022-08-16T07:24:53Z</time>
      </trkpt>
      <trkpt lat="44.47694" lon="6.82863">
        <ele>1950</ele>
        <time>2022-08-16T07:24:54Z</time>
      </trkpt>
      <trkpt lat="44.47693" lon="6.82864">
        <ele>1950.2</ele>
        <time>2022-08-16T07:24:55Z</time>
      </trkpt>
      <trkpt lat="44.47692" lon="6.82864">
        <ele>1950.4</ele>
        <time>2022-08-16T07:24:56Z</time>
      </trkpt>
      <trkpt lat="44.4769" lon="6.82865">
        <ele>1950.6</ele>
        <time>2022-08-16T07:24:57Z</time>
      </trkpt>
      <trkpt lat="44.47689" lon="6.82865">
        <ele>1950.6</ele>
        <time>2022-08-16T07:24:58Z</time>
      </trkpt>
      <trkpt lat="44.47688" lon="6.82866">
        <ele>1950.8</ele>
        <time>2022-08-16T07:24:59Z</time>
      </trkpt>
      <trkpt lat="44.47687" lon="6.82867">
        <ele>1951</ele>
        <time>2022-08-16T07:25:00Z</time>
      </trkpt>
      <trkpt lat="44.47686" lon="6.82868">
        <ele>1951.2</ele>
        <time>2022-08-16T07:25:01Z</time>
      </trkpt>
      <trkpt lat="44.47684" lon="6.82868">
        <ele>1951.4</ele>
        <time>2022-08-16T07:25:02Z</time>
      </trkpt>
      <trkpt lat="44.47683" lon="6.82869">
        <ele>1951.6</ele>
        <time>2022-08-16T07:25:03Z</time>
      </trkpt>
      <trkpt lat="44.47682" lon="6.8287">
        <ele>1951.6</ele>
        <time>2022-08-16T07:25:04Z</time>
      </trkpt>
      <trkpt lat="44.47681" lon="6.8287">
        <ele>1951.8</ele>
        <time>2022-08-16T07:25:05Z</time>
      </trkpt>
      <trkpt lat="44.47679" lon="6.82871">
        <ele>1951.8</ele>
        <time>2022-08-16T07:25:06Z</time>
      </trkpt>
      <trkpt lat="44.47678" lon="6.82872">
        <ele>1952.2</ele>
        <time>2022-08-16T07:25:07Z</time>
      </trkpt>
      <trkpt lat="44.47677" lon="6.82873">
        <ele>1952.2</ele>
        <time>2022-08-16T07:25:08Z</time>
      </trkpt>
      <trkpt lat="44.47676" lon="6.82874">
        <ele>1952.2</ele>
        <time>2022-08-16T07:25:09Z</time>
      </trkpt>
      <trkpt lat="44.47675" lon="6.82876">
        <ele>1952.4</ele>
        <time>2022-08-16T07:25:10Z</time>
      </trkpt>
      <trkpt lat="44.47675" lon="6.82878">
        <ele>1952.4</ele>
        <time>2022-08-16T07:25:11Z</time>
      </trkpt>
      <trkpt lat="44.47675" lon="6.8288">
        <ele>1952.6</ele>
        <time>2022-08-16T07:25:12Z</time>
      </trkpt>
      <trkpt lat="44.47675" lon="6.82882">
        <ele>1952.8</ele>
        <time>2022-08-16T07:25:13Z</time>
      </trkpt>
      <trkpt lat="44.47676" lon="6.82883">
        <ele>1952.8</ele>
        <time>2022-08-16T07:25:14Z</time>
      </trkpt>
      <trkpt lat="44.47677" lon="6.82884">
        <ele>1953</ele>
        <time>2022-08-16T07:25:15Z</time>
      </trkpt>
      <trkpt lat="44.47678" lon="6.82885">
        <ele>1953.2</ele>
        <time>2022-08-16T07:25:16Z</time>
      </trkpt>
      <trkpt lat="44.47679" lon="6.82886">
        <ele>1953.2</ele>
        <time>2022-08-16T07:25:17Z</time>
      </trkpt>
      <trkpt lat="44.4768" lon="6.82887">
        <ele>1953.4</ele>
        <time>2022-08-16T07:25:18Z</time>
      </trkpt>
      <trkpt lat="44.47681" lon="6.82887">
        <ele>1953.4</ele>
        <time>2022-08-16T07:25:19Z</time>
      </trkpt>
      <trkpt lat="44.47682" lon="6.82886">
        <ele>1953.6</ele>
        <time>2022-08-16T07:25:20Z</time>
      </trkpt>
      <trkpt lat="44.47683" lon="6.82886">
        <ele>1953.6</ele>
        <time>2022-08-16T07:25:21Z</time>
      </trkpt>
      <trkpt lat="44.47684" lon="6.82885">
        <ele>1953.6</ele>
        <time>2022-08-16T07:25:22Z</time>
      </trkpt>
      <trkpt lat="44.47685" lon="6.82884">
        <ele>1953.6</ele>
        <time>2022-08-16T07:25:23Z</time>
      </trkpt>
      <trkpt lat="44.47687" lon="6.82884">
        <ele>1953.8</ele>
        <time>2022-08-16T07:25:24Z</time>
      </trkpt>
      <trkpt lat="44.47688" lon="6.82883">
        <ele>1954.2</ele>
        <time>2022-08-16T07:25:25Z</time>
      </trkpt>
      <trkpt lat="44.47689" lon="6.82883">
        <ele>1954.2</ele>
        <time>2022-08-16T07:25:26Z</time>
      </trkpt>
      <trkpt lat="44.47691" lon="6.82882">
        <ele>1954.4</ele>
        <time>2022-08-16T07:25:27Z</time>
      </trkpt>
      <trkpt lat="44.47692" lon="6.82882">
        <ele>1954.6</ele>
        <time>2022-08-16T07:25:28Z</time>
      </trkpt>
      <trkpt lat="44.47693" lon="6.82882">
        <ele>1954.8</ele>
        <time>2022-08-16T07:25:29Z</time>
      </trkpt>
      <trkpt lat="44.47695" lon="6.82882">
        <ele>1955.2</ele>
        <time>2022-08-16T07:25:30Z</time>
      </trkpt>
      <trkpt lat="44.47696" lon="6.82882">
        <ele>1955.4</ele>
        <time>2022-08-16T07:25:31Z</time>
      </trkpt>
      <trkpt lat="44.47697" lon="6.82882">
        <ele>1955.4</ele>
        <time>2022-08-16T07:25:32Z</time>
      </trkpt>
      <trkpt lat="44.47699" lon="6.82883">
        <ele>1955.6</ele>
        <time>2022-08-16T07:25:33Z</time>
      </trkpt>
      <trkpt lat="44.477" lon="6.82883">
        <ele>1955.6</ele>
        <time>2022-08-16T07:25:34Z</time>
      </trkpt>
      <trkpt lat="44.47702" lon="6.82883">
        <ele>1955.8</ele>
        <time>2022-08-16T07:25:35Z</time>
      </trkpt>
      <trkpt lat="44.47703" lon="6.82884">
        <ele>1955.8</ele>
        <time>2022-08-16T07:25:36Z</time>
      </trkpt>
      <trkpt lat="44.47704" lon="6.82884">
        <ele>1956</ele>
        <time>2022-08-16T07:25:37Z</time>
      </trkpt>
      <trkpt lat="44.47705" lon="6.82885">
        <ele>1956.2</ele>
        <time>2022-08-16T07:25:38Z</time>
      </trkpt>
      <trkpt lat="44.47707" lon="6.82886">
        <ele>1956.2</ele>
        <time>2022-08-16T07:25:39Z</time>
      </trkpt>
      <trkpt lat="44.47708" lon="6.82886">
        <ele>1956.4</ele>
        <time>2022-08-16T07:25:40Z</time>
      </trkpt>
      <trkpt lat="44.47709" lon="6.82887">
        <ele>1956.4</ele>
        <time>2022-08-16T07:25:41Z</time>
      </trkpt>
      <trkpt lat="44.4771" lon="6.82887">
        <ele>1956.6</ele>
        <time>2022-08-16T07:25:42Z</time>
      </trkpt>
      <trkpt lat="44.47712" lon="6.82888">
        <ele>1956.6</ele>
        <time>2022-08-16T07:25:43Z</time>
      </trkpt>
      <trkpt lat="44.47713" lon="6.82889">
        <ele>1956.8</ele>
        <time>2022-08-16T07:25:44Z</time>
      </trkpt>
      <trkpt lat="44.47714" lon="6.82889">
        <ele>1957</ele>
        <time>2022-08-16T07:25:45Z</time>
      </trkpt>
      <trkpt lat="44.47715" lon="6.8289">
        <ele>1957.4</ele>
        <time>2022-08-16T07:25:46Z</time>
      </trkpt>
      <trkpt lat="44.47717" lon="6.82891">
        <ele>1957.2</ele>
        <time>2022-08-16T07:25:47Z</time>
      </trkpt>
      <trkpt lat="44.47718" lon="6.82892">
        <ele>1957.6</ele>
        <time>2022-08-16T07:25:48Z</time>
      </trkpt>
      <trkpt lat="44.47719" lon="6.82892">
        <ele>1957.6</ele>
        <time>2022-08-16T07:25:49Z</time>
      </trkpt>
      <trkpt lat="44.4772" lon="6.82893">
        <ele>1957.8</ele>
        <time>2022-08-16T07:25:50Z</time>
      </trkpt>
      <trkpt lat="44.47721" lon="6.82894">
        <ele>1957.8</ele>
        <time>2022-08-16T07:25:51Z</time>
      </trkpt>
      <trkpt lat="44.47722" lon="6.82895">
        <ele>1958.2</ele>
        <time>2022-08-16T07:25:52Z</time>
      </trkpt>
      <trkpt lat="44.47723" lon="6.82895">
        <ele>1958.4</ele>
        <time>2022-08-16T07:25:53Z</time>
      </trkpt>
      <trkpt lat="44.47725" lon="6.82895">
        <ele>1958.6</ele>
        <time>2022-08-16T07:25:54Z</time>
      </trkpt>
      <trkpt lat="44.47726" lon="6.82896">
        <ele>1958.8</ele>
        <time>2022-08-16T07:25:55Z</time>
      </trkpt>
      <trkpt lat="44.47727" lon="6.82897">
        <ele>1959</ele>
        <time>2022-08-16T07:25:56Z</time>
      </trkpt>
      <trkpt lat="44.47728" lon="6.82897">
        <ele>1959.2</ele>
        <time>2022-08-16T07:25:57Z</time>
      </trkpt>
      <trkpt lat="44.47729" lon="6.82898">
        <ele>1959.4</ele>
        <time>2022-08-16T07:25:58Z</time>
      </trkpt>
      <trkpt lat="44.4773" lon="6.82898">
        <ele>1959.6</ele>
        <time>2022-08-16T07:25:59Z</time>
      </trkpt>
      <trkpt lat="44.47732" lon="6.82899">
        <ele>1959.6</ele>
        <time>2022-08-16T07:26:00Z</time>
      </trkpt>
      <trkpt lat="44.47733" lon="6.82899">
        <ele>1959.8</ele>
        <time>2022-08-16T07:26:01Z</time>
      </trkpt>
      <trkpt lat="44.47734" lon="6.82899">
        <ele>1959.8</ele>
        <time>2022-08-16T07:26:02Z</time>
      </trkpt>
      <trkpt lat="44.47735" lon="6.829">
        <ele>1960</ele>
        <time>2022-08-16T07:26:03Z</time>
      </trkpt>
      <trkpt lat="44.47736" lon="6.829">
        <ele>1960</ele>
        <time>2022-08-16T07:26:04Z</time>
      </trkpt>
      <trkpt lat="44.47738" lon="6.82901">
        <ele>1960.2</ele>
        <time>2022-08-16T07:26:05Z</time>
      </trkpt>
      <trkpt lat="44.47739" lon="6.82901">
        <ele>1960.6</ele>
        <time>2022-08-16T07:26:06Z</time>
      </trkpt>
      <trkpt lat="44.4774" lon="6.82902">
        <ele>1960.6</ele>
        <time>2022-08-16T07:26:07Z</time>
      </trkpt>
      <trkpt lat="44.47741" lon="6.82902">
        <ele>1960.6</ele>
        <time>2022-08-16T07:26:08Z</time>
      </trkpt>
      <trkpt lat="44.47742" lon="6.82902">
        <ele>1961</ele>
        <time>2022-08-16T07:26:09Z</time>
      </trkpt>
      <trkpt lat="44.47744" lon="6.82903">
        <ele>1961</ele>
        <time>2022-08-16T07:26:10Z</time>
      </trkpt>
      <trkpt lat="44.47745" lon="6.82903">
        <ele>1961.2</ele>
        <time>2022-08-16T07:26:11Z</time>
      </trkpt>
      <trkpt lat="44.47746" lon="6.82903">
        <ele>1961.2</ele>
        <time>2022-08-16T07:26:12Z</time>
      </trkpt>
      <trkpt lat="44.47748" lon="6.82903">
        <ele>1961.4</ele>
        <time>2022-08-16T07:26:13Z</time>
      </trkpt>
      <trkpt lat="44.47749" lon="6.82903">
        <ele>1961.6</ele>
        <time>2022-08-16T07:26:14Z</time>
      </trkpt>
      <trkpt lat="44.4775" lon="6.82903">
        <ele>1961.6</ele>
        <time>2022-08-16T07:26:15Z</time>
      </trkpt>
      <trkpt lat="44.47751" lon="6.82903">
        <ele>1961.6</ele>
        <time>2022-08-16T07:26:16Z</time>
      </trkpt>
      <trkpt lat="44.47753" lon="6.82903">
        <ele>1962</ele>
        <time>2022-08-16T07:26:17Z</time>
      </trkpt>
      <trkpt lat="44.47754" lon="6.82903">
        <ele>1962</ele>
        <time>2022-08-16T07:26:18Z</time>
      </trkpt>
      <trkpt lat="44.47755" lon="6.82903">
        <ele>1962.2</ele>
        <time>2022-08-16T07:26:19Z</time>
      </trkpt>
      <trkpt lat="44.47756" lon="6.82902">
        <ele>1962.2</ele>
        <time>2022-08-16T07:26:20Z</time>
      </trkpt>
      <trkpt lat="44.47757" lon="6.82902">
        <ele>1962.2</ele>
        <time>2022-08-16T07:26:21Z</time>
      </trkpt>
      <trkpt lat="44.47759" lon="6.82902">
        <ele>1962.6</ele>
        <time>2022-08-16T07:26:22Z</time>
      </trkpt>
      <trkpt lat="44.4776" lon="6.82902">
        <ele>1962.6</ele>
        <time>2022-08-16T07:26:23Z</time>
      </trkpt>
      <trkpt lat="44.47761" lon="6.82902">
        <ele>1962.8</ele>
        <time>2022-08-16T07:26:24Z</time>
      </trkpt>
      <trkpt lat="44.47763" lon="6.82903">
        <ele>1962.8</ele>
        <time>2022-08-16T07:26:25Z</time>
      </trkpt>
      <trkpt lat="44.47764" lon="6.82903">
        <ele>1963.2</ele>
        <time>2022-08-16T07:26:26Z</time>
      </trkpt>
      <trkpt lat="44.47765" lon="6.82904">
        <ele>1963.2</ele>
        <time>2022-08-16T07:26:27Z</time>
      </trkpt>
      <trkpt lat="44.47767" lon="6.82904">
        <ele>1963.4</ele>
        <time>2022-08-16T07:26:28Z</time>
      </trkpt>
      <trkpt lat="44.47768" lon="6.82905">
        <ele>1963.4</ele>
        <time>2022-08-16T07:26:29Z</time>
      </trkpt>
      <trkpt lat="44.47769" lon="6.82905">
        <ele>1963.4</ele>
        <time>2022-08-16T07:26:30Z</time>
      </trkpt>
      <trkpt lat="44.47771" lon="6.82906">
        <ele>1963.4</ele>
        <time>2022-08-16T07:26:31Z</time>
      </trkpt>
      <trkpt lat="44.47772" lon="6.82907">
        <ele>1963.8</ele>
        <time>2022-08-16T07:26:32Z</time>
      </trkpt>
      <trkpt lat="44.47774" lon="6.82907">
        <ele>1963.8</ele>
        <time>2022-08-16T07:26:33Z</time>
      </trkpt>
      <trkpt lat="44.47775" lon="6.82908">
        <ele>1964</ele>
        <time>2022-08-16T07:26:34Z</time>
      </trkpt>
      <trkpt lat="44.47776" lon="6.82909">
        <ele>1964.2</ele>
        <time>2022-08-16T07:26:35Z</time>
      </trkpt>
      <trkpt lat="44.47778" lon="6.8291">
        <ele>1964.2</ele>
        <time>2022-08-16T07:26:36Z</time>
      </trkpt>
      <trkpt lat="44.47779" lon="6.82911">
        <ele>1964.4</ele>
        <time>2022-08-16T07:26:37Z</time>
      </trkpt>
      <trkpt lat="44.4778" lon="6.82911">
        <ele>1964.4</ele>
        <time>2022-08-16T07:26:38Z</time>
      </trkpt>
      <trkpt lat="44.47781" lon="6.82912">
        <ele>1964.6</ele>
        <time>2022-08-16T07:26:39Z</time>
      </trkpt>
      <trkpt lat="44.47783" lon="6.82913">
        <ele>1964.8</ele>
        <time>2022-08-16T07:26:40Z</time>
      </trkpt>
      <trkpt lat="44.47784" lon="6.82913">
        <ele>1965</ele>
        <time>2022-08-16T07:26:41Z</time>
      </trkpt>
      <trkpt lat="44.47785" lon="6.82914">
        <ele>1965</ele>
        <time>2022-08-16T07:26:42Z</time>
      </trkpt>
      <trkpt lat="44.47786" lon="6.82915">
        <ele>1965.2</ele>
        <time>2022-08-16T07:26:43Z</time>
      </trkpt>
      <trkpt lat="44.47788" lon="6.82916">
        <ele>1965.6</ele>
        <time>2022-08-16T07:26:44Z</time>
      </trkpt>
      <trkpt lat="44.47789" lon="6.82917">
        <ele>1965.6</ele>
        <time>2022-08-16T07:26:45Z</time>
      </trkpt>
      <trkpt lat="44.4779" lon="6.82918">
        <ele>1965.6</ele>
        <time>2022-08-16T07:26:46Z</time>
      </trkpt>
      <trkpt lat="44.47791" lon="6.82919">
        <ele>1965.6</ele>
        <time>2022-08-16T07:26:47Z</time>
      </trkpt>
      <trkpt lat="44.47793" lon="6.82919">
        <ele>1965.8</ele>
        <time>2022-08-16T07:26:48Z</time>
      </trkpt>
      <trkpt lat="44.47794" lon="6.8292">
        <ele>1966</ele>
        <time>2022-08-16T07:26:49Z</time>
      </trkpt>
      <trkpt lat="44.47795" lon="6.82922">
        <ele>1966</ele>
        <time>2022-08-16T07:26:50Z</time>
      </trkpt>
      <trkpt lat="44.47796" lon="6.82923">
        <ele>1966.2</ele>
        <time>2022-08-16T07:26:51Z</time>
      </trkpt>
      <trkpt lat="44.47798" lon="6.82924">
        <ele>1966.4</ele>
        <time>2022-08-16T07:26:52Z</time>
      </trkpt>
      <trkpt lat="44.47799" lon="6.82925">
        <ele>1966.6</ele>
        <time>2022-08-16T07:26:53Z</time>
      </trkpt>
      <trkpt lat="44.478" lon="6.82926">
        <ele>1966.8</ele>
        <time>2022-08-16T07:26:54Z</time>
      </trkpt>
      <trkpt lat="44.47801" lon="6.82928">
        <ele>1967</ele>
        <time>2022-08-16T07:26:55Z</time>
      </trkpt>
      <trkpt lat="44.47801" lon="6.82929">
        <ele>1967</ele>
        <time>2022-08-16T07:26:56Z</time>
      </trkpt>
      <trkpt lat="44.47802" lon="6.82931">
        <ele>1967</ele>
        <time>2022-08-16T07:26:57Z</time>
      </trkpt>
      <trkpt lat="44.47802" lon="6.82933">
        <ele>1967</ele>
        <time>2022-08-16T07:26:58Z</time>
      </trkpt>
      <trkpt lat="44.47802" lon="6.82936">
        <ele>1967.2</ele>
        <time>2022-08-16T07:26:59Z</time>
      </trkpt>
      <trkpt lat="44.47802" lon="6.82937">
        <ele>1967.2</ele>
        <time>2022-08-16T07:27:00Z</time>
      </trkpt>
      <trkpt lat="44.47803" lon="6.82939">
        <ele>1967.4</ele>
        <time>2022-08-16T07:27:01Z</time>
      </trkpt>
      <trkpt lat="44.47803" lon="6.82939">
        <ele>1967.6</ele>
        <time>2022-08-16T07:27:02Z</time>
      </trkpt>
      <trkpt lat="44.47803" lon="6.82943">
        <ele>1967.8</ele>
        <time>2022-08-16T07:27:03Z</time>
      </trkpt>
      <trkpt lat="44.47803" lon="6.82945">
        <ele>1967.8</ele>
        <time>2022-08-16T07:27:04Z</time>
      </trkpt>
      <trkpt lat="44.47803" lon="6.82947">
        <ele>1968</ele>
        <time>2022-08-16T07:27:05Z</time>
      </trkpt>
      <trkpt lat="44.47803" lon="6.82949">
        <ele>1968</ele>
        <time>2022-08-16T07:27:06Z</time>
      </trkpt>
      <trkpt lat="44.47803" lon="6.82951">
        <ele>1968</ele>
        <time>2022-08-16T07:27:07Z</time>
      </trkpt>
      <trkpt lat="44.47803" lon="6.82952">
        <ele>1968</ele>
        <time>2022-08-16T07:27:08Z</time>
      </trkpt>
      <trkpt lat="44.47803" lon="6.82954">
        <ele>1968.2</ele>
        <time>2022-08-16T07:27:09Z</time>
      </trkpt>
      <trkpt lat="44.47803" lon="6.82956">
        <ele>1968.4</ele>
        <time>2022-08-16T07:27:10Z</time>
      </trkpt>
      <trkpt lat="44.47804" lon="6.82958">
        <ele>1968.8</ele>
        <time>2022-08-16T07:27:11Z</time>
      </trkpt>
      <trkpt lat="44.47804" lon="6.8296">
        <ele>1968.8</ele>
        <time>2022-08-16T07:27:12Z</time>
      </trkpt>
      <trkpt lat="44.47804" lon="6.82962">
        <ele>1969</ele>
        <time>2022-08-16T07:27:13Z</time>
      </trkpt>
      <trkpt lat="44.47805" lon="6.82964">
        <ele>1969</ele>
        <time>2022-08-16T07:27:14Z</time>
      </trkpt>
      <trkpt lat="44.47805" lon="6.82967">
        <ele>1969.4</ele>
        <time>2022-08-16T07:27:15Z</time>
      </trkpt>
      <trkpt lat="44.47806" lon="6.82969">
        <ele>1969.6</ele>
        <time>2022-08-16T07:27:16Z</time>
      </trkpt>
      <trkpt lat="44.47807" lon="6.82972">
        <ele>1969.6</ele>
        <time>2022-08-16T07:27:17Z</time>
      </trkpt>
      <trkpt lat="44.47808" lon="6.82974">
        <ele>1969.8</ele>
        <time>2022-08-16T07:27:18Z</time>
      </trkpt>
      <trkpt lat="44.47809" lon="6.82976">
        <ele>1970</ele>
        <time>2022-08-16T07:27:19Z</time>
      </trkpt>
      <trkpt lat="44.47811" lon="6.82977">
        <ele>1970</ele>
        <time>2022-08-16T07:27:20Z</time>
      </trkpt>
      <trkpt lat="44.47813" lon="6.82977">
        <ele>1970</ele>
        <time>2022-08-16T07:27:21Z</time>
      </trkpt>
      <trkpt lat="44.47815" lon="6.82976">
        <ele>1970</ele>
        <time>2022-08-16T07:27:22Z</time>
      </trkpt>
      <trkpt lat="44.47818" lon="6.82974">
        <ele>1970.2</ele>
        <time>2022-08-16T07:27:24Z</time>
      </trkpt>
      <trkpt lat="44.4782" lon="6.82972">
        <ele>1970.2</ele>
        <time>2022-08-16T07:27:25Z</time>
      </trkpt>
      <trkpt lat="44.47821" lon="6.82971">
        <ele>1970.2</ele>
        <time>2022-08-16T07:27:26Z</time>
      </trkpt>
      <trkpt lat="44.47822" lon="6.82969">
        <ele>1970.2</ele>
        <time>2022-08-16T07:27:27Z</time>
      </trkpt>
      <trkpt lat="44.47823" lon="6.82968">
        <ele>1970.2</ele>
        <time>2022-08-16T07:27:28Z</time>
      </trkpt>
      <trkpt lat="44.47824" lon="6.82966">
        <ele>1970.4</ele>
        <time>2022-08-16T07:27:29Z</time>
      </trkpt>
      <trkpt lat="44.47825" lon="6.82964">
        <ele>1970.4</ele>
        <time>2022-08-16T07:27:30Z</time>
      </trkpt>
      <trkpt lat="44.47828" lon="6.82961">
        <ele>1970.4</ele>
        <time>2022-08-16T07:27:33Z</time>
      </trkpt>
      <trkpt lat="44.4783" lon="6.82959">
        <ele>1970.4</ele>
        <time>2022-08-16T07:27:34Z</time>
      </trkpt>
      <trkpt lat="44.47832" lon="6.82957">
        <ele>1970.4</ele>
        <time>2022-08-16T07:27:36Z</time>
      </trkpt>
      <trkpt lat="44.47835" lon="6.82955">
        <ele>1970.8</ele>
        <time>2022-08-16T07:27:38Z</time>
      </trkpt>
      <trkpt lat="44.47837" lon="6.82956">
        <ele>1970.8</ele>
        <time>2022-08-16T07:27:39Z</time>
      </trkpt>
      <trkpt lat="44.47838" lon="6.82956">
        <ele>1971</ele>
        <time>2022-08-16T07:27:40Z</time>
      </trkpt>
      <trkpt lat="44.4784" lon="6.82956">
        <ele>1971.2</ele>
        <time>2022-08-16T07:27:41Z</time>
      </trkpt>
      <trkpt lat="44.47841" lon="6.82957">
        <ele>1971.2</ele>
        <time>2022-08-16T07:27:42Z</time>
      </trkpt>
      <trkpt lat="44.47842" lon="6.82958">
        <ele>1971.2</ele>
        <time>2022-08-16T07:27:43Z</time>
      </trkpt>
      <trkpt lat="44.47845" lon="6.82959">
        <ele>1971.6</ele>
        <time>2022-08-16T07:27:45Z</time>
      </trkpt>
      <trkpt lat="44.47846" lon="6.8296">
        <ele>1971.6</ele>
        <time>2022-08-16T07:27:46Z</time>
      </trkpt>
      <trkpt lat="44.47848" lon="6.8296">
        <ele>1971.8</ele>
        <time>2022-08-16T07:27:47Z</time>
      </trkpt>
      <trkpt lat="44.47849" lon="6.82961">
        <ele>1972</ele>
        <time>2022-08-16T07:27:48Z</time>
      </trkpt>
      <trkpt lat="44.4785" lon="6.82961">
        <ele>1972</ele>
        <time>2022-08-16T07:27:49Z</time>
      </trkpt>
      <trkpt lat="44.47851" lon="6.82962">
        <ele>1972.2</ele>
        <time>2022-08-16T07:27:50Z</time>
      </trkpt>
      <trkpt lat="44.47852" lon="6.82963">
        <ele>1972.4</ele>
        <time>2022-08-16T07:27:51Z</time>
      </trkpt>
      <trkpt lat="44.47853" lon="6.82964">
        <ele>1972.4</ele>
        <time>2022-08-16T07:27:52Z</time>
      </trkpt>
      <trkpt lat="44.47854" lon="6.82965">
        <ele>1972.6</ele>
        <time>2022-08-16T07:27:53Z</time>
      </trkpt>
      <trkpt lat="44.47854" lon="6.82967">
        <ele>1972.8</ele>
        <time>2022-08-16T07:27:54Z</time>
      </trkpt>
      <trkpt lat="44.47854" lon="6.82969">
        <ele>1972.8</ele>
        <time>2022-08-16T07:27:55Z</time>
      </trkpt>
      <trkpt lat="44.47854" lon="6.8297">
        <ele>1973</ele>
        <time>2022-08-16T07:27:56Z</time>
      </trkpt>
      <trkpt lat="44.47854" lon="6.82972">
        <ele>1973</ele>
        <time>2022-08-16T07:27:57Z</time>
      </trkpt>
      <trkpt lat="44.47854" lon="6.82973">
        <ele>1973.4</ele>
        <time>2022-08-16T07:27:58Z</time>
      </trkpt>
      <trkpt lat="44.47854" lon="6.82975">
        <ele>1973.4</ele>
        <time>2022-08-16T07:27:59Z</time>
      </trkpt>
      <trkpt lat="44.47854" lon="6.82977">
        <ele>1973.4</ele>
        <time>2022-08-16T07:28:00Z</time>
      </trkpt>
      <trkpt lat="44.47855" lon="6.82978">
        <ele>1973.4</ele>
        <time>2022-08-16T07:28:01Z</time>
      </trkpt>
      <trkpt lat="44.47855" lon="6.8298">
        <ele>1973.6</ele>
        <time>2022-08-16T07:28:02Z</time>
      </trkpt>
      <trkpt lat="44.47855" lon="6.82981">
        <ele>1973.8</ele>
        <time>2022-08-16T07:28:03Z</time>
      </trkpt>
      <trkpt lat="44.47855" lon="6.82983">
        <ele>1973.8</ele>
        <time>2022-08-16T07:28:04Z</time>
      </trkpt>
      <trkpt lat="44.47856" lon="6.82984">
        <ele>1974</ele>
        <time>2022-08-16T07:28:05Z</time>
      </trkpt>
      <trkpt lat="44.47856" lon="6.82985">
        <ele>1974</ele>
        <time>2022-08-16T07:28:06Z</time>
      </trkpt>
      <trkpt lat="44.47857" lon="6.82986">
        <ele>1974.2</ele>
        <time>2022-08-16T07:28:07Z</time>
      </trkpt>
      <trkpt lat="44.47857" lon="6.82987">
        <ele>1974.2</ele>
        <time>2022-08-16T07:28:08Z</time>
      </trkpt>
      <trkpt lat="44.47858" lon="6.82988">
        <ele>1974.4</ele>
        <time>2022-08-16T07:28:09Z</time>
      </trkpt>
      <trkpt lat="44.47859" lon="6.82989">
        <ele>1974.6</ele>
        <time>2022-08-16T07:28:10Z</time>
      </trkpt>
      <trkpt lat="44.4786" lon="6.82989">
        <ele>1974.8</ele>
        <time>2022-08-16T07:28:11Z</time>
      </trkpt>
      <trkpt lat="44.47861" lon="6.82991">
        <ele>1974.6</ele>
        <time>2022-08-16T07:28:12Z</time>
      </trkpt>
      <trkpt lat="44.47862" lon="6.82992">
        <ele>1975</ele>
        <time>2022-08-16T07:28:13Z</time>
      </trkpt>
      <trkpt lat="44.47863" lon="6.82993">
        <ele>1975</ele>
        <time>2022-08-16T07:28:14Z</time>
      </trkpt>
      <trkpt lat="44.47863" lon="6.82994">
        <ele>1975.2</ele>
        <time>2022-08-16T07:28:15Z</time>
      </trkpt>
      <trkpt lat="44.47864" lon="6.82995">
        <ele>1975.4</ele>
        <time>2022-08-16T07:28:16Z</time>
      </trkpt>
      <trkpt lat="44.47865" lon="6.82996">
        <ele>1975.6</ele>
        <time>2022-08-16T07:28:17Z</time>
      </trkpt>
      <trkpt lat="44.47866" lon="6.82996">
        <ele>1975.8</ele>
        <time>2022-08-16T07:28:18Z</time>
      </trkpt>
      <trkpt lat="44.47866" lon="6.82997">
        <ele>1975.8</ele>
        <time>2022-08-16T07:28:19Z</time>
      </trkpt>
      <trkpt lat="44.47868" lon="6.82997">
        <ele>1975.8</ele>
        <time>2022-08-16T07:28:20Z</time>
      </trkpt>
      <trkpt lat="44.47868" lon="6.82998">
        <ele>1976</ele>
        <time>2022-08-16T07:28:21Z</time>
      </trkpt>
      <trkpt lat="44.47869" lon="6.82999">
        <ele>1976.2</ele>
        <time>2022-08-16T07:28:22Z</time>
      </trkpt>
      <trkpt lat="44.47869" lon="6.83">
        <ele>1976.4</ele>
        <time>2022-08-16T07:28:23Z</time>
      </trkpt>
      <trkpt lat="44.4787" lon="6.83002">
        <ele>1976.8</ele>
        <time>2022-08-16T07:28:24Z</time>
      </trkpt>
      <trkpt lat="44.47871" lon="6.83004">
        <ele>1977</ele>
        <time>2022-08-16T07:28:25Z</time>
      </trkpt>
      <trkpt lat="44.47872" lon="6.83005">
        <ele>1977</ele>
        <time>2022-08-16T07:28:26Z</time>
      </trkpt>
      <trkpt lat="44.47873" lon="6.83005">
        <ele>1977.2</ele>
        <time>2022-08-16T07:28:27Z</time>
      </trkpt>
      <trkpt lat="44.47874" lon="6.83006">
        <ele>1977.4</ele>
        <time>2022-08-16T07:28:28Z</time>
      </trkpt>
      <trkpt lat="44.47876" lon="6.83006">
        <ele>1977.6</ele>
        <time>2022-08-16T07:28:29Z</time>
      </trkpt>
      <trkpt lat="44.47877" lon="6.83007">
        <ele>1977.6</ele>
        <time>2022-08-16T07:28:30Z</time>
      </trkpt>
      <trkpt lat="44.47878" lon="6.83008">
        <ele>1977.8</ele>
        <time>2022-08-16T07:28:31Z</time>
      </trkpt>
      <trkpt lat="44.47878" lon="6.83009">
        <ele>1978.2</ele>
        <time>2022-08-16T07:28:32Z</time>
      </trkpt>
      <trkpt lat="44.4788" lon="6.83011">
        <ele>1978.2</ele>
        <time>2022-08-16T07:28:33Z</time>
      </trkpt>
      <trkpt lat="44.4788" lon="6.83012">
        <ele>1978.4</ele>
        <time>2022-08-16T07:28:34Z</time>
      </trkpt>
      <trkpt lat="44.47881" lon="6.83013">
        <ele>1978.6</ele>
        <time>2022-08-16T07:28:35Z</time>
      </trkpt>
      <trkpt lat="44.47882" lon="6.83014">
        <ele>1978.6</ele>
        <time>2022-08-16T07:28:36Z</time>
      </trkpt>
      <trkpt lat="44.47883" lon="6.83015">
        <ele>1978.8</ele>
        <time>2022-08-16T07:28:37Z</time>
      </trkpt>
      <trkpt lat="44.47884" lon="6.83016">
        <ele>1979</ele>
        <time>2022-08-16T07:28:38Z</time>
      </trkpt>
      <trkpt lat="44.47885" lon="6.83018">
        <ele>1979.2</ele>
        <time>2022-08-16T07:28:39Z</time>
      </trkpt>
      <trkpt lat="44.47886" lon="6.83019">
        <ele>1979.2</ele>
        <time>2022-08-16T07:28:40Z</time>
      </trkpt>
      <trkpt lat="44.47886" lon="6.8302">
        <ele>1979.4</ele>
        <time>2022-08-16T07:28:41Z</time>
      </trkpt>
      <trkpt lat="44.47887" lon="6.83021">
        <ele>1979.6</ele>
        <time>2022-08-16T07:28:42Z</time>
      </trkpt>
      <trkpt lat="44.47888" lon="6.83023">
        <ele>1979.6</ele>
        <time>2022-08-16T07:28:43Z</time>
      </trkpt>
      <trkpt lat="44.4789" lon="6.83025">
        <ele>1979.8</ele>
        <time>2022-08-16T07:28:44Z</time>
      </trkpt>
      <trkpt lat="44.47891" lon="6.83026">
        <ele>1980</ele>
        <time>2022-08-16T07:28:45Z</time>
      </trkpt>
      <trkpt lat="44.47892" lon="6.83028">
        <ele>1980</ele>
        <time>2022-08-16T07:28:46Z</time>
      </trkpt>
      <trkpt lat="44.47893" lon="6.83029">
        <ele>1980.2</ele>
        <time>2022-08-16T07:28:47Z</time>
      </trkpt>
      <trkpt lat="44.47894" lon="6.8303">
        <ele>1980.2</ele>
        <time>2022-08-16T07:28:48Z</time>
      </trkpt>
      <trkpt lat="44.47895" lon="6.83031">
        <ele>1980.4</ele>
        <time>2022-08-16T07:28:49Z</time>
      </trkpt>
      <trkpt lat="44.47895" lon="6.83032">
        <ele>1980.6</ele>
        <time>2022-08-16T07:28:50Z</time>
      </trkpt>
      <trkpt lat="44.47896" lon="6.83033">
        <ele>1980.6</ele>
        <time>2022-08-16T07:28:51Z</time>
      </trkpt>
      <trkpt lat="44.47897" lon="6.83034">
        <ele>1980.8</ele>
        <time>2022-08-16T07:28:52Z</time>
      </trkpt>
      <trkpt lat="44.47898" lon="6.83035">
        <ele>1980.8</ele>
        <time>2022-08-16T07:28:53Z</time>
      </trkpt>
      <trkpt lat="44.47899" lon="6.83036">
        <ele>1981</ele>
        <time>2022-08-16T07:28:54Z</time>
      </trkpt>
      <trkpt lat="44.479" lon="6.83037">
        <ele>1981</ele>
        <time>2022-08-16T07:28:55Z</time>
      </trkpt>
      <trkpt lat="44.47902" lon="6.83039">
        <ele>1981.2</ele>
        <time>2022-08-16T07:28:56Z</time>
      </trkpt>
      <trkpt lat="44.47903" lon="6.8304">
        <ele>1981.2</ele>
        <time>2022-08-16T07:28:57Z</time>
      </trkpt>
      <trkpt lat="44.47904" lon="6.83042">
        <ele>1981.4</ele>
        <time>2022-08-16T07:28:58Z</time>
      </trkpt>
      <trkpt lat="44.47905" lon="6.83043">
        <ele>1981.4</ele>
        <time>2022-08-16T07:28:59Z</time>
      </trkpt>
      <trkpt lat="44.47907" lon="6.83044">
        <ele>1981.6</ele>
        <time>2022-08-16T07:29:00Z</time>
      </trkpt>
      <trkpt lat="44.47908" lon="6.83045">
        <ele>1981.6</ele>
        <time>2022-08-16T07:29:01Z</time>
      </trkpt>
      <trkpt lat="44.47909" lon="6.83046">
        <ele>1981.8</ele>
        <time>2022-08-16T07:29:02Z</time>
      </trkpt>
      <trkpt lat="44.4791" lon="6.83046">
        <ele>1981.8</ele>
        <time>2022-08-16T07:29:03Z</time>
      </trkpt>
      <trkpt lat="44.47912" lon="6.83047">
        <ele>1982</ele>
        <time>2022-08-16T07:29:04Z</time>
      </trkpt>
      <trkpt lat="44.47913" lon="6.83048">
        <ele>1982.2</ele>
        <time>2022-08-16T07:29:05Z</time>
      </trkpt>
      <trkpt lat="44.47914" lon="6.83048">
        <ele>1982.4</ele>
        <time>2022-08-16T07:29:06Z</time>
      </trkpt>
      <trkpt lat="44.47915" lon="6.83049">
        <ele>1982.2</ele>
        <time>2022-08-16T07:29:07Z</time>
      </trkpt>
      <trkpt lat="44.47916" lon="6.8305">
        <ele>1982.6</ele>
        <time>2022-08-16T07:29:08Z</time>
      </trkpt>
      <trkpt lat="44.47917" lon="6.83051">
        <ele>1982.6</ele>
        <time>2022-08-16T07:29:09Z</time>
      </trkpt>
      <trkpt lat="44.47919" lon="6.83052">
        <ele>1982.8</ele>
        <time>2022-08-16T07:29:10Z</time>
      </trkpt>
      <trkpt lat="44.4792" lon="6.83054">
        <ele>1982.8</ele>
        <time>2022-08-16T07:29:11Z</time>
      </trkpt>
      <trkpt lat="44.47922" lon="6.83055">
        <ele>1982.8</ele>
        <time>2022-08-16T07:29:12Z</time>
      </trkpt>
      <trkpt lat="44.47923" lon="6.83056">
        <ele>1983</ele>
        <time>2022-08-16T07:29:13Z</time>
      </trkpt>
      <trkpt lat="44.47924" lon="6.83057">
        <ele>1983.2</ele>
        <time>2022-08-16T07:29:14Z</time>
      </trkpt>
      <trkpt lat="44.47925" lon="6.83059">
        <ele>1983.2</ele>
        <time>2022-08-16T07:29:15Z</time>
      </trkpt>
      <trkpt lat="44.47927" lon="6.83061">
        <ele>1983.4</ele>
        <time>2022-08-16T07:29:16Z</time>
      </trkpt>
      <trkpt lat="44.47928" lon="6.83063">
        <ele>1983.4</ele>
        <time>2022-08-16T07:29:17Z</time>
      </trkpt>
      <trkpt lat="44.47929" lon="6.83065">
        <ele>1983.6</ele>
        <time>2022-08-16T07:29:18Z</time>
      </trkpt>
      <trkpt lat="44.4793" lon="6.83067">
        <ele>1983.6</ele>
        <time>2022-08-16T07:29:19Z</time>
      </trkpt>
      <trkpt lat="44.47931" lon="6.8307">
        <ele>1983.8</ele>
        <time>2022-08-16T07:29:20Z</time>
      </trkpt>
      <trkpt lat="44.47932" lon="6.83073">
        <ele>1983.8</ele>
        <time>2022-08-16T07:29:21Z</time>
      </trkpt>
      <trkpt lat="44.47934" lon="6.83075">
        <ele>1984</ele>
        <time>2022-08-16T07:29:22Z</time>
      </trkpt>
      <trkpt lat="44.47935" lon="6.83078">
        <ele>1984.2</ele>
        <time>2022-08-16T07:29:23Z</time>
      </trkpt>
      <trkpt lat="44.47937" lon="6.8308">
        <ele>1984.4</ele>
        <time>2022-08-16T07:29:24Z</time>
      </trkpt>
      <trkpt lat="44.47941" lon="6.83084">
        <ele>1984.4</ele>
        <time>2022-08-16T07:29:26Z</time>
      </trkpt>
      <trkpt lat="44.47941" lon="6.83086">
        <ele>1984.4</ele>
        <time>2022-08-16T07:29:27Z</time>
      </trkpt>
      <trkpt lat="44.47943" lon="6.83087">
        <ele>1984.4</ele>
        <time>2022-08-16T07:29:28Z</time>
      </trkpt>
      <trkpt lat="44.47944" lon="6.83089">
        <ele>1984.6</ele>
        <time>2022-08-16T07:29:29Z</time>
      </trkpt>
      <trkpt lat="44.47945" lon="6.83092">
        <ele>1984.6</ele>
        <time>2022-08-16T07:29:31Z</time>
      </trkpt>
      <trkpt lat="44.47945" lon="6.83092">
        <ele>1984.6</ele>
        <time>2022-08-16T07:29:32Z</time>
      </trkpt>
      <trkpt lat="44.47946" lon="6.83093">
        <ele>1984.8</ele>
        <time>2022-08-16T07:29:35Z</time>
      </trkpt>
      <trkpt lat="44.47946" lon="6.83094">
        <ele>1984.8</ele>
        <time>2022-08-16T07:29:36Z</time>
      </trkpt>
      <trkpt lat="44.47946" lon="6.83094">
        <ele>1984.8</ele>
        <time>2022-08-16T07:29:37Z</time>
      </trkpt>
      <trkpt lat="44.47946" lon="6.83095">
        <ele>1984.8</ele>
        <time>2022-08-16T07:29:39Z</time>
      </trkpt>
      <trkpt lat="44.47946" lon="6.83096">
        <ele>1984.8</ele>
        <time>2022-08-16T07:29:44Z</time>
      </trkpt>
      <trkpt lat="44.47946" lon="6.83096">
        <ele>1985.2</ele>
        <time>2022-08-16T07:29:55Z</time>
      </trkpt>
      <trkpt lat="44.47945" lon="6.83097">
        <ele>1985.2</ele>
        <time>2022-08-16T07:30:06Z</time>
      </trkpt>
      <trkpt lat="44.47946" lon="6.83099">
        <ele>1985.2</ele>
        <time>2022-08-16T07:30:13Z</time>
      </trkpt>
      <trkpt lat="44.47948" lon="6.831">
        <ele>1985.2</ele>
        <time>2022-08-16T07:30:14Z</time>
      </trkpt>
      <trkpt lat="44.47949" lon="6.83101">
        <ele>1985.2</ele>
        <time>2022-08-16T07:30:15Z</time>
      </trkpt>
      <trkpt lat="44.47952" lon="6.83105">
        <ele>1985.2</ele>
        <time>2022-08-16T07:30:18Z</time>
      </trkpt>
      <trkpt lat="44.47954" lon="6.83106">
        <ele>1985</ele>
        <time>2022-08-16T07:30:19Z</time>
      </trkpt>
      <trkpt lat="44.47958" lon="6.8311">
        <ele>1985.2</ele>
        <time>2022-08-16T07:30:22Z</time>
      </trkpt>
      <trkpt lat="44.47962" lon="6.83111">
        <ele>1985.2</ele>
        <time>2022-08-16T07:30:24Z</time>
      </trkpt>
      <trkpt lat="44.47965" lon="6.83113">
        <ele>1985.2</ele>
        <time>2022-08-16T07:30:26Z</time>
      </trkpt>
      <trkpt lat="44.47969" lon="6.83114">
        <ele>1985.2</ele>
        <time>2022-08-16T07:30:28Z</time>
      </trkpt>
      <trkpt lat="44.47977" lon="6.83113">
        <ele>1985.2</ele>
        <time>2022-08-16T07:30:32Z</time>
      </trkpt>
      <trkpt lat="44.47978" lon="6.83111">
        <ele>1985.2</ele>
        <time>2022-08-16T07:30:33Z</time>
      </trkpt>
      <trkpt lat="44.47979" lon="6.8311">
        <ele>1985.2</ele>
        <time>2022-08-16T07:30:34Z</time>
      </trkpt>
      <trkpt lat="44.4798" lon="6.83108">
        <ele>1985.2</ele>
        <time>2022-08-16T07:30:35Z</time>
      </trkpt>
      <trkpt lat="44.47982" lon="6.83106">
        <ele>1985.2</ele>
        <time>2022-08-16T07:30:36Z</time>
      </trkpt>
      <trkpt lat="44.47984" lon="6.83102">
        <ele>1985</ele>
        <time>2022-08-16T07:30:38Z</time>
      </trkpt>
      <trkpt lat="44.47985" lon="6.831">
        <ele>1985.2</ele>
        <time>2022-08-16T07:30:39Z</time>
      </trkpt>
      <trkpt lat="44.47986" lon="6.83096">
        <ele>1985.2</ele>
        <time>2022-08-16T07:30:41Z</time>
      </trkpt>
      <trkpt lat="44.47986" lon="6.83094">
        <ele>1985.2</ele>
        <time>2022-08-16T07:30:42Z</time>
      </trkpt>
      <trkpt lat="44.47987" lon="6.83092">
        <ele>1985.4</ele>
        <time>2022-08-16T07:30:43Z</time>
      </trkpt>
      <trkpt lat="44.47987" lon="6.8309">
        <ele>1985.2</ele>
        <time>2022-08-16T07:30:44Z</time>
      </trkpt>
      <trkpt lat="44.47988" lon="6.83083">
        <ele>1985.2</ele>
        <time>2022-08-16T07:30:47Z</time>
      </trkpt>
      <trkpt lat="44.47988" lon="6.83081">
        <ele>1985.4</ele>
        <time>2022-08-16T07:30:48Z</time>
      </trkpt>
      <trkpt lat="44.47988" lon="6.83079">
        <ele>1985.4</ele>
        <time>2022-08-16T07:30:49Z</time>
      </trkpt>
      <trkpt lat="44.47987" lon="6.83064">
        <ele>1985.6</ele>
        <time>2022-08-16T07:30:55Z</time>
      </trkpt>
      <trkpt lat="44.47987" lon="6.83058">
        <ele>1985.8</ele>
        <time>2022-08-16T07:30:57Z</time>
      </trkpt>
      <trkpt lat="44.47987" lon="6.83053">
        <ele>1985.8</ele>
        <time>2022-08-16T07:30:59Z</time>
      </trkpt>
      <trkpt lat="44.47986" lon="6.83051">
        <ele>1985.8</ele>
        <time>2022-08-16T07:31:00Z</time>
      </trkpt>
      <trkpt lat="44.47986" lon="6.83049">
        <ele>1986</ele>
        <time>2022-08-16T07:31:01Z</time>
      </trkpt>
      <trkpt lat="44.47986" lon="6.83046">
        <ele>1986</ele>
        <time>2022-08-16T07:31:03Z</time>
      </trkpt>
      <trkpt lat="44.47985" lon="6.83044">
        <ele>1986.2</ele>
        <time>2022-08-16T07:31:04Z</time>
      </trkpt>
      <trkpt lat="44.47985" lon="6.8304">
        <ele>1986.4</ele>
        <time>2022-08-16T07:31:06Z</time>
      </trkpt>
      <trkpt lat="44.47985" lon="6.83038">
        <ele>1986.6</ele>
        <time>2022-08-16T07:31:07Z</time>
      </trkpt>
      <trkpt lat="44.47985" lon="6.83036">
        <ele>1986.8</ele>
        <time>2022-08-16T07:31:08Z</time>
      </trkpt>
      <trkpt lat="44.47985" lon="6.83034">
        <ele>1986.8</ele>
        <time>2022-08-16T07:31:09Z</time>
      </trkpt>
      <trkpt lat="44.47985" lon="6.83032">
        <ele>1987.2</ele>
        <time>2022-08-16T07:31:10Z</time>
      </trkpt>
      <trkpt lat="44.47984" lon="6.8303">
        <ele>1987.4</ele>
        <time>2022-08-16T07:31:11Z</time>
      </trkpt>
      <trkpt lat="44.47984" lon="6.83029">
        <ele>1987.4</ele>
        <time>2022-08-16T07:31:12Z</time>
      </trkpt>
      <trkpt lat="44.47984" lon="6.83027">
        <ele>1987.6</ele>
        <time>2022-08-16T07:31:13Z</time>
      </trkpt>
      <trkpt lat="44.47984" lon="6.83025">
        <ele>1987.6</ele>
        <time>2022-08-16T07:31:14Z</time>
      </trkpt>
      <trkpt lat="44.47984" lon="6.83023">
        <ele>1987.6</ele>
        <time>2022-08-16T07:31:15Z</time>
      </trkpt>
      <trkpt lat="44.47983" lon="6.83021">
        <ele>1987.8</ele>
        <time>2022-08-16T07:31:16Z</time>
      </trkpt>
      <trkpt lat="44.47983" lon="6.8302">
        <ele>1988</ele>
        <time>2022-08-16T07:31:17Z</time>
      </trkpt>
      <trkpt lat="44.47983" lon="6.83018">
        <ele>1988.2</ele>
        <time>2022-08-16T07:31:18Z</time>
      </trkpt>
      <trkpt lat="44.47982" lon="6.83017">
        <ele>1988.4</ele>
        <time>2022-08-16T07:31:19Z</time>
      </trkpt>
      <trkpt lat="44.47982" lon="6.83015">
        <ele>1988.8</ele>
        <time>2022-08-16T07:31:20Z</time>
      </trkpt>
      <trkpt lat="44.47982" lon="6.83013">
        <ele>1989</ele>
        <time>2022-08-16T07:31:21Z</time>
      </trkpt>
      <trkpt lat="44.47981" lon="6.83011">
        <ele>1989</ele>
        <time>2022-08-16T07:31:22Z</time>
      </trkpt>
      <trkpt lat="44.47981" lon="6.8301">
        <ele>1989.2</ele>
        <time>2022-08-16T07:31:23Z</time>
      </trkpt>
      <trkpt lat="44.47981" lon="6.83008">
        <ele>1989.4</ele>
        <time>2022-08-16T07:31:24Z</time>
      </trkpt>
      <trkpt lat="44.4798" lon="6.83006">
        <ele>1989.6</ele>
        <time>2022-08-16T07:31:25Z</time>
      </trkpt>
      <trkpt lat="44.4798" lon="6.83005">
        <ele>1989.8</ele>
        <time>2022-08-16T07:31:26Z</time>
      </trkpt>
      <trkpt lat="44.4798" lon="6.83003">
        <ele>1990</ele>
        <time>2022-08-16T07:31:27Z</time>
      </trkpt>
      <trkpt lat="44.4798" lon="6.83001">
        <ele>1990.2</ele>
        <time>2022-08-16T07:31:28Z</time>
      </trkpt>
      <trkpt lat="44.47979" lon="6.83">
        <ele>1990.4</ele>
        <time>2022-08-16T07:31:29Z</time>
      </trkpt>
      <trkpt lat="44.47979" lon="6.82998">
        <ele>1990.6</ele>
        <time>2022-08-16T07:31:30Z</time>
      </trkpt>
      <trkpt lat="44.47979" lon="6.82996">
        <ele>1990.6</ele>
        <time>2022-08-16T07:31:31Z</time>
      </trkpt>
      <trkpt lat="44.47978" lon="6.82994">
        <ele>1990.6</ele>
        <time>2022-08-16T07:31:32Z</time>
      </trkpt>
      <trkpt lat="44.47978" lon="6.82993">
        <ele>1990.8</ele>
        <time>2022-08-16T07:31:33Z</time>
      </trkpt>
      <trkpt lat="44.47978" lon="6.82991">
        <ele>1991</ele>
        <time>2022-08-16T07:31:34Z</time>
      </trkpt>
      <trkpt lat="44.47978" lon="6.82989">
        <ele>1991</ele>
        <time>2022-08-16T07:31:35Z</time>
      </trkpt>
      <trkpt lat="44.47978" lon="6.82987">
        <ele>1991.2</ele>
        <time>2022-08-16T07:31:36Z</time>
      </trkpt>
      <trkpt lat="44.47978" lon="6.82985">
        <ele>1991.4</ele>
        <time>2022-08-16T07:31:37Z</time>
      </trkpt>
      <trkpt lat="44.47978" lon="6.82983">
        <ele>1991.4</ele>
        <time>2022-08-16T07:31:38Z</time>
      </trkpt>
      <trkpt lat="44.47978" lon="6.82982">
        <ele>1991.6</ele>
        <time>2022-08-16T07:31:39Z</time>
      </trkpt>
      <trkpt lat="44.47978" lon="6.82981">
        <ele>1992</ele>
        <time>2022-08-16T07:31:40Z</time>
      </trkpt>
      <trkpt lat="44.47977" lon="6.82979">
        <ele>1992.2</ele>
        <time>2022-08-16T07:31:41Z</time>
      </trkpt>
      <trkpt lat="44.47977" lon="6.82978">
        <ele>1992.2</ele>
        <time>2022-08-16T07:31:42Z</time>
      </trkpt>
      <trkpt lat="44.47977" lon="6.82976">
        <ele>1992.4</ele>
        <time>2022-08-16T07:31:43Z</time>
      </trkpt>
      <trkpt lat="44.47977" lon="6.82975">
        <ele>1992.4</ele>
        <time>2022-08-16T07:31:44Z</time>
      </trkpt>
      <trkpt lat="44.47977" lon="6.82973">
        <ele>1992.8</ele>
        <time>2022-08-16T07:31:45Z</time>
      </trkpt>
      <trkpt lat="44.47977" lon="6.82971">
        <ele>1992.8</ele>
        <time>2022-08-16T07:31:46Z</time>
      </trkpt>
      <trkpt lat="44.47978" lon="6.8297">
        <ele>1992.8</ele>
        <time>2022-08-16T07:31:47Z</time>
      </trkpt>
      <trkpt lat="44.47978" lon="6.82968">
        <ele>1993</ele>
        <time>2022-08-16T07:31:48Z</time>
      </trkpt>
      <trkpt lat="44.47978" lon="6.82966">
        <ele>1993.2</ele>
        <time>2022-08-16T07:31:49Z</time>
      </trkpt>
      <trkpt lat="44.47978" lon="6.82964">
        <ele>1993.2</ele>
        <time>2022-08-16T07:31:50Z</time>
      </trkpt>
      <trkpt lat="44.47979" lon="6.82963">
        <ele>1993.4</ele>
        <time>2022-08-16T07:31:51Z</time>
      </trkpt>
      <trkpt lat="44.47979" lon="6.82961">
        <ele>1993.4</ele>
        <time>2022-08-16T07:31:52Z</time>
      </trkpt>
      <trkpt lat="44.4798" lon="6.8296">
        <ele>1993.4</ele>
        <time>2022-08-16T07:31:53Z</time>
      </trkpt>
      <trkpt lat="44.4798" lon="6.82958">
        <ele>1993.6</ele>
        <time>2022-08-16T07:31:54Z</time>
      </trkpt>
      <trkpt lat="44.4798" lon="6.82956">
        <ele>1993.8</ele>
        <time>2022-08-16T07:31:55Z</time>
      </trkpt>
      <trkpt lat="44.47981" lon="6.82955">
        <ele>1993.8</ele>
        <time>2022-08-16T07:31:56Z</time>
      </trkpt>
      <trkpt lat="44.47981" lon="6.82953">
        <ele>1994</ele>
        <time>2022-08-16T07:31:57Z</time>
      </trkpt>
      <trkpt lat="44.47982" lon="6.82951">
        <ele>1994</ele>
        <time>2022-08-16T07:31:58Z</time>
      </trkpt>
      <trkpt lat="44.47982" lon="6.8295">
        <ele>1994</ele>
        <time>2022-08-16T07:31:59Z</time>
      </trkpt>
      <trkpt lat="44.47983" lon="6.82948">
        <ele>1994.2</ele>
        <time>2022-08-16T07:32:00Z</time>
      </trkpt>
      <trkpt lat="44.47984" lon="6.82947">
        <ele>1994.2</ele>
        <time>2022-08-16T07:32:01Z</time>
      </trkpt>
      <trkpt lat="44.47984" lon="6.82945">
        <ele>1994.4</ele>
        <time>2022-08-16T07:32:02Z</time>
      </trkpt>
      <trkpt lat="44.47984" lon="6.82943">
        <ele>1994.4</ele>
        <time>2022-08-16T07:32:03Z</time>
      </trkpt>
      <trkpt lat="44.47985" lon="6.82942">
        <ele>1994.4</ele>
        <time>2022-08-16T07:32:04Z</time>
      </trkpt>
      <trkpt lat="44.47985" lon="6.8294">
        <ele>1994.4</ele>
        <time>2022-08-16T07:32:05Z</time>
      </trkpt>
      <trkpt lat="44.47985" lon="6.82938">
        <ele>1994.6</ele>
        <time>2022-08-16T07:32:06Z</time>
      </trkpt>
      <trkpt lat="44.47985" lon="6.82937">
        <ele>1994.8</ele>
        <time>2022-08-16T07:32:07Z</time>
      </trkpt>
      <trkpt lat="44.47986" lon="6.82925">
        <ele>1995.4</ele>
        <time>2022-08-16T07:32:13Z</time>
      </trkpt>
      <trkpt lat="44.47986" lon="6.82923">
        <ele>1995.4</ele>
        <time>2022-08-16T07:32:14Z</time>
      </trkpt>
      <trkpt lat="44.47987" lon="6.8292">
        <ele>1995.6</ele>
        <time>2022-08-16T07:32:16Z</time>
      </trkpt>
      <trkpt lat="44.4799" lon="6.82914">
        <ele>1995.8</ele>
        <time>2022-08-16T07:32:20Z</time>
      </trkpt>
      <trkpt lat="44.47991" lon="6.82913">
        <ele>1995.8</ele>
        <time>2022-08-16T07:32:21Z</time>
      </trkpt>
      <trkpt lat="44.47994" lon="6.82914">
        <ele>1996.2</ele>
        <time>2022-08-16T07:32:23Z</time>
      </trkpt>
      <trkpt lat="44.47995" lon="6.82915">
        <ele>1996.2</ele>
        <time>2022-08-16T07:32:24Z</time>
      </trkpt>
      <trkpt lat="44.47995" lon="6.82916">
        <ele>1996.2</ele>
        <time>2022-08-16T07:32:25Z</time>
      </trkpt>
      <trkpt lat="44.47995" lon="6.82918">
        <ele>1996.4</ele>
        <time>2022-08-16T07:32:26Z</time>
      </trkpt>
      <trkpt lat="44.47995" lon="6.82919">
        <ele>1996.4</ele>
        <time>2022-08-16T07:32:27Z</time>
      </trkpt>
      <trkpt lat="44.47995" lon="6.82921">
        <ele>1996.6</ele>
        <time>2022-08-16T07:32:28Z</time>
      </trkpt>
      <trkpt lat="44.47995" lon="6.82922">
        <ele>1996.8</ele>
        <time>2022-08-16T07:32:29Z</time>
      </trkpt>
      <trkpt lat="44.47994" lon="6.82924">
        <ele>1996.6</ele>
        <time>2022-08-16T07:32:30Z</time>
      </trkpt>
      <trkpt lat="44.47994" lon="6.82925">
        <ele>1997</ele>
        <time>2022-08-16T07:32:31Z</time>
      </trkpt>
      <trkpt lat="44.47994" lon="6.82927">
        <ele>1997</ele>
        <time>2022-08-16T07:32:32Z</time>
      </trkpt>
      <trkpt lat="44.47993" lon="6.82929">
        <ele>1997.2</ele>
        <time>2022-08-16T07:32:33Z</time>
      </trkpt>
      <trkpt lat="44.47993" lon="6.8293">
        <ele>1997.4</ele>
        <time>2022-08-16T07:32:34Z</time>
      </trkpt>
      <trkpt lat="44.47992" lon="6.82932">
        <ele>1997.6</ele>
        <time>2022-08-16T07:32:35Z</time>
      </trkpt>
      <trkpt lat="44.47992" lon="6.82933">
        <ele>1997.8</ele>
        <time>2022-08-16T07:32:36Z</time>
      </trkpt>
      <trkpt lat="44.47992" lon="6.82935">
        <ele>1998.2</ele>
        <time>2022-08-16T07:32:37Z</time>
      </trkpt>
      <trkpt lat="44.47992" lon="6.82936">
        <ele>1998.2</ele>
        <time>2022-08-16T07:32:38Z</time>
      </trkpt>
      <trkpt lat="44.47992" lon="6.82938">
        <ele>1998.4</ele>
        <time>2022-08-16T07:32:39Z</time>
      </trkpt>
      <trkpt lat="44.47992" lon="6.8294">
        <ele>1998.8</ele>
        <time>2022-08-16T07:32:40Z</time>
      </trkpt>
      <trkpt lat="44.47992" lon="6.82942">
        <ele>1998.8</ele>
        <time>2022-08-16T07:32:41Z</time>
      </trkpt>
      <trkpt lat="44.47993" lon="6.82943">
        <ele>1999</ele>
        <time>2022-08-16T07:32:42Z</time>
      </trkpt>
      <trkpt lat="44.47993" lon="6.82945">
        <ele>1999</ele>
        <time>2022-08-16T07:32:43Z</time>
      </trkpt>
      <trkpt lat="44.47993" lon="6.82947">
        <ele>1999.2</ele>
        <time>2022-08-16T07:32:44Z</time>
      </trkpt>
      <trkpt lat="44.47993" lon="6.82948">
        <ele>1999.4</ele>
        <time>2022-08-16T07:32:45Z</time>
      </trkpt>
      <trkpt lat="44.47993" lon="6.8295">
        <ele>1999.6</ele>
        <time>2022-08-16T07:32:46Z</time>
      </trkpt>
      <trkpt lat="44.47993" lon="6.82952">
        <ele>1999.6</ele>
        <time>2022-08-16T07:32:47Z</time>
      </trkpt>
      <trkpt lat="44.47994" lon="6.82953">
        <ele>1999.6</ele>
        <time>2022-08-16T07:32:48Z</time>
      </trkpt>
      <trkpt lat="44.47994" lon="6.82955">
        <ele>1999.6</ele>
        <time>2022-08-16T07:32:49Z</time>
      </trkpt>
      <trkpt lat="44.47994" lon="6.82957">
        <ele>2000.2</ele>
        <time>2022-08-16T07:32:50Z</time>
      </trkpt>
      <trkpt lat="44.47994" lon="6.82958">
        <ele>2000.2</ele>
        <time>2022-08-16T07:32:51Z</time>
      </trkpt>
      <trkpt lat="44.47994" lon="6.8296">
        <ele>2000.6</ele>
        <time>2022-08-16T07:32:52Z</time>
      </trkpt>
      <trkpt lat="44.47994" lon="6.82962">
        <ele>2000.6</ele>
        <time>2022-08-16T07:32:53Z</time>
      </trkpt>
      <trkpt lat="44.47994" lon="6.82963">
        <ele>2000.6</ele>
        <time>2022-08-16T07:32:54Z</time>
      </trkpt>
      <trkpt lat="44.47994" lon="6.82965">
        <ele>2000.8</ele>
        <time>2022-08-16T07:32:55Z</time>
      </trkpt>
      <trkpt lat="44.47994" lon="6.82967">
        <ele>2001.2</ele>
        <time>2022-08-16T07:32:56Z</time>
      </trkpt>
      <trkpt lat="44.47994" lon="6.82968">
        <ele>2001.4</ele>
        <time>2022-08-16T07:32:57Z</time>
      </trkpt>
      <trkpt lat="44.47994" lon="6.8297">
        <ele>2001.4</ele>
        <time>2022-08-16T07:32:58Z</time>
      </trkpt>
      <trkpt lat="44.47994" lon="6.82972">
        <ele>2001.6</ele>
        <time>2022-08-16T07:32:59Z</time>
      </trkpt>
      <trkpt lat="44.47994" lon="6.82973">
        <ele>2001.8</ele>
        <time>2022-08-16T07:33:00Z</time>
      </trkpt>
      <trkpt lat="44.47994" lon="6.82975">
        <ele>2002</ele>
        <time>2022-08-16T07:33:01Z</time>
      </trkpt>
      <trkpt lat="44.47994" lon="6.82977">
        <ele>2002</ele>
        <time>2022-08-16T07:33:02Z</time>
      </trkpt>
      <trkpt lat="44.47994" lon="6.82978">
        <ele>2002.4</ele>
        <time>2022-08-16T07:33:03Z</time>
      </trkpt>
      <trkpt lat="44.47994" lon="6.8298">
        <ele>2002.6</ele>
        <time>2022-08-16T07:33:04Z</time>
      </trkpt>
      <trkpt lat="44.47994" lon="6.82981">
        <ele>2002.8</ele>
        <time>2022-08-16T07:33:05Z</time>
      </trkpt>
      <trkpt lat="44.47995" lon="6.82983">
        <ele>2002.8</ele>
        <time>2022-08-16T07:33:06Z</time>
      </trkpt>
      <trkpt lat="44.47995" lon="6.82984">
        <ele>2003</ele>
        <time>2022-08-16T07:33:07Z</time>
      </trkpt>
      <trkpt lat="44.47995" lon="6.82986">
        <ele>2003</ele>
        <time>2022-08-16T07:33:08Z</time>
      </trkpt>
      <trkpt lat="44.47996" lon="6.82987">
        <ele>2003.4</ele>
        <time>2022-08-16T07:33:09Z</time>
      </trkpt>
      <trkpt lat="44.47997" lon="6.82989">
        <ele>2003.4</ele>
        <time>2022-08-16T07:33:10Z</time>
      </trkpt>
      <trkpt lat="44.47997" lon="6.8299">
        <ele>2003.6</ele>
        <time>2022-08-16T07:33:11Z</time>
      </trkpt>
      <trkpt lat="44.47998" lon="6.82991">
        <ele>2003.8</ele>
        <time>2022-08-16T07:33:12Z</time>
      </trkpt>
      <trkpt lat="44.47998" lon="6.82992">
        <ele>2003.8</ele>
        <time>2022-08-16T07:33:13Z</time>
      </trkpt>
      <trkpt lat="44.47999" lon="6.82993">
        <ele>2004.2</ele>
        <time>2022-08-16T07:33:14Z</time>
      </trkpt>
      <trkpt lat="44.48" lon="6.82994">
        <ele>2004.2</ele>
        <time>2022-08-16T07:33:15Z</time>
      </trkpt>
      <trkpt lat="44.48001" lon="6.82995">
        <ele>2004.2</ele>
        <time>2022-08-16T07:33:16Z</time>
      </trkpt>
      <trkpt lat="44.48002" lon="6.82996">
        <ele>2004.4</ele>
        <time>2022-08-16T07:33:17Z</time>
      </trkpt>
      <trkpt lat="44.48002" lon="6.82997">
        <ele>2004.6</ele>
        <time>2022-08-16T07:33:18Z</time>
      </trkpt>
      <trkpt lat="44.48003" lon="6.82999">
        <ele>2004.8</ele>
        <time>2022-08-16T07:33:19Z</time>
      </trkpt>
      <trkpt lat="44.48004" lon="6.83">
        <ele>2005</ele>
        <time>2022-08-16T07:33:20Z</time>
      </trkpt>
      <trkpt lat="44.48005" lon="6.83001">
        <ele>2005.2</ele>
        <time>2022-08-16T07:33:21Z</time>
      </trkpt>
      <trkpt lat="44.48006" lon="6.83002">
        <ele>2005.6</ele>
        <time>2022-08-16T07:33:22Z</time>
      </trkpt>
      <trkpt lat="44.48007" lon="6.83003">
        <ele>2005.6</ele>
        <time>2022-08-16T07:33:23Z</time>
      </trkpt>
      <trkpt lat="44.48007" lon="6.83004">
        <ele>2005.6</ele>
        <time>2022-08-16T07:33:24Z</time>
      </trkpt>
      <trkpt lat="44.48008" lon="6.83005">
        <ele>2005.8</ele>
        <time>2022-08-16T07:33:25Z</time>
      </trkpt>
      <trkpt lat="44.48009" lon="6.83006">
        <ele>2006</ele>
        <time>2022-08-16T07:33:26Z</time>
      </trkpt>
      <trkpt lat="44.4801" lon="6.83007">
        <ele>2006</ele>
        <time>2022-08-16T07:33:27Z</time>
      </trkpt>
      <trkpt lat="44.48011" lon="6.83009">
        <ele>2006.2</ele>
        <time>2022-08-16T07:33:28Z</time>
      </trkpt>
      <trkpt lat="44.48012" lon="6.8301">
        <ele>2006.2</ele>
        <time>2022-08-16T07:33:29Z</time>
      </trkpt>
      <trkpt lat="44.48012" lon="6.83011">
        <ele>2006.4</ele>
        <time>2022-08-16T07:33:30Z</time>
      </trkpt>
      <trkpt lat="44.48013" lon="6.83013">
        <ele>2006.2</ele>
        <time>2022-08-16T07:33:31Z</time>
      </trkpt>
      <trkpt lat="44.48013" lon="6.83014">
        <ele>2006.6</ele>
        <time>2022-08-16T07:33:32Z</time>
      </trkpt>
      <trkpt lat="44.48014" lon="6.83016">
        <ele>2006.6</ele>
        <time>2022-08-16T07:33:33Z</time>
      </trkpt>
      <trkpt lat="44.48015" lon="6.83017">
        <ele>2006.6</ele>
        <time>2022-08-16T07:33:34Z</time>
      </trkpt>
      <trkpt lat="44.48015" lon="6.83019">
        <ele>2007</ele>
        <time>2022-08-16T07:33:35Z</time>
      </trkpt>
      <trkpt lat="44.48016" lon="6.8302">
        <ele>2007</ele>
        <time>2022-08-16T07:33:36Z</time>
      </trkpt>
      <trkpt lat="44.48017" lon="6.83021">
        <ele>2007.2</ele>
        <time>2022-08-16T07:33:37Z</time>
      </trkpt>
      <trkpt lat="44.48017" lon="6.83023">
        <ele>2007.6</ele>
        <time>2022-08-16T07:33:38Z</time>
      </trkpt>
      <trkpt lat="44.48018" lon="6.83024">
        <ele>2007.6</ele>
        <time>2022-08-16T07:33:39Z</time>
      </trkpt>
      <trkpt lat="44.48018" lon="6.83026">
        <ele>2008</ele>
        <time>2022-08-16T07:33:40Z</time>
      </trkpt>
      <trkpt lat="44.48019" lon="6.83027">
        <ele>2008.2</ele>
        <time>2022-08-16T07:33:41Z</time>
      </trkpt>
      <trkpt lat="44.48019" lon="6.83029">
        <ele>2008.6</ele>
        <time>2022-08-16T07:33:42Z</time>
      </trkpt>
      <trkpt lat="44.48019" lon="6.8303">
        <ele>2008.8</ele>
        <time>2022-08-16T07:33:43Z</time>
      </trkpt>
      <trkpt lat="44.4802" lon="6.83032">
        <ele>2009</ele>
        <time>2022-08-16T07:33:44Z</time>
      </trkpt>
      <trkpt lat="44.48021" lon="6.83033">
        <ele>2009.2</ele>
        <time>2022-08-16T07:33:45Z</time>
      </trkpt>
      <trkpt lat="44.48022" lon="6.83033">
        <ele>2009.4</ele>
        <time>2022-08-16T07:33:46Z</time>
      </trkpt>
      <trkpt lat="44.48022" lon="6.83033">
        <ele>2009.4</ele>
        <time>2022-08-16T07:33:47Z</time>
      </trkpt>
      <trkpt lat="44.48023" lon="6.83032">
        <ele>2009.6</ele>
        <time>2022-08-16T07:33:48Z</time>
      </trkpt>
      <trkpt lat="44.48024" lon="6.83031">
        <ele>2009.8</ele>
        <time>2022-08-16T07:33:49Z</time>
      </trkpt>
      <trkpt lat="44.48024" lon="6.83029">
        <ele>2010.2</ele>
        <time>2022-08-16T07:33:50Z</time>
      </trkpt>
      <trkpt lat="44.48024" lon="6.83028">
        <ele>2010.2</ele>
        <time>2022-08-16T07:33:51Z</time>
      </trkpt>
      <trkpt lat="44.48024" lon="6.83026">
        <ele>2010.4</ele>
        <time>2022-08-16T07:33:52Z</time>
      </trkpt>
      <trkpt lat="44.48024" lon="6.83025">
        <ele>2010.6</ele>
        <time>2022-08-16T07:33:53Z</time>
      </trkpt>
      <trkpt lat="44.48024" lon="6.83023">
        <ele>2010.8</ele>
        <time>2022-08-16T07:33:54Z</time>
      </trkpt>
      <trkpt lat="44.48024" lon="6.83021">
        <ele>2011</ele>
        <time>2022-08-16T07:33:55Z</time>
      </trkpt>
      <trkpt lat="44.48024" lon="6.8302">
        <ele>2011</ele>
        <time>2022-08-16T07:33:56Z</time>
      </trkpt>
      <trkpt lat="44.48023" lon="6.83018">
        <ele>2010.8</ele>
        <time>2022-08-16T07:33:57Z</time>
      </trkpt>
      <trkpt lat="44.48023" lon="6.83016">
        <ele>2011</ele>
        <time>2022-08-16T07:33:58Z</time>
      </trkpt>
      <trkpt lat="44.48023" lon="6.83015">
        <ele>2011.2</ele>
        <time>2022-08-16T07:33:59Z</time>
      </trkpt>
      <trkpt lat="44.48023" lon="6.83013">
        <ele>2011</ele>
        <time>2022-08-16T07:34:00Z</time>
      </trkpt>
      <trkpt lat="44.48023" lon="6.83012">
        <ele>2011.2</ele>
        <time>2022-08-16T07:34:01Z</time>
      </trkpt>
      <trkpt lat="44.48023" lon="6.83011">
        <ele>2011.4</ele>
        <time>2022-08-16T07:34:02Z</time>
      </trkpt>
      <trkpt lat="44.48023" lon="6.83009">
        <ele>2011.6</ele>
        <time>2022-08-16T07:34:03Z</time>
      </trkpt>
      <trkpt lat="44.48023" lon="6.83008">
        <ele>2011.8</ele>
        <time>2022-08-16T07:34:04Z</time>
      </trkpt>
      <trkpt lat="44.48023" lon="6.83007">
        <ele>2012</ele>
        <time>2022-08-16T07:34:05Z</time>
      </trkpt>
      <trkpt lat="44.48023" lon="6.83005">
        <ele>2012.2</ele>
        <time>2022-08-16T07:34:06Z</time>
      </trkpt>
      <trkpt lat="44.48023" lon="6.83004">
        <ele>2012</ele>
        <time>2022-08-16T07:34:07Z</time>
      </trkpt>
      <trkpt lat="44.48023" lon="6.83003">
        <ele>2012.2</ele>
        <time>2022-08-16T07:34:08Z</time>
      </trkpt>
      <trkpt lat="44.48023" lon="6.83001">
        <ele>2012.4</ele>
        <time>2022-08-16T07:34:09Z</time>
      </trkpt>
      <trkpt lat="44.48023" lon="6.83">
        <ele>2012.4</ele>
        <time>2022-08-16T07:34:10Z</time>
      </trkpt>
      <trkpt lat="44.48023" lon="6.82999">
        <ele>2012.6</ele>
        <time>2022-08-16T07:34:11Z</time>
      </trkpt>
      <trkpt lat="44.48022" lon="6.82997">
        <ele>2012.6</ele>
        <time>2022-08-16T07:34:12Z</time>
      </trkpt>
      <trkpt lat="44.48022" lon="6.82996">
        <ele>2013</ele>
        <time>2022-08-16T07:34:13Z</time>
      </trkpt>
      <trkpt lat="44.48022" lon="6.82994">
        <ele>2013.2</ele>
        <time>2022-08-16T07:34:14Z</time>
      </trkpt>
      <trkpt lat="44.48021" lon="6.82994">
        <ele>2013.2</ele>
        <time>2022-08-16T07:34:15Z</time>
      </trkpt>
      <trkpt lat="44.4802" lon="6.82992">
        <ele>2013.4</ele>
        <time>2022-08-16T07:34:16Z</time>
      </trkpt>
      <trkpt lat="44.48019" lon="6.82991">
        <ele>2013.6</ele>
        <time>2022-08-16T07:34:17Z</time>
      </trkpt>
      <trkpt lat="44.48019" lon="6.82989">
        <ele>2013.8</ele>
        <time>2022-08-16T07:34:18Z</time>
      </trkpt>
      <trkpt lat="44.48018" lon="6.82987">
        <ele>2014</ele>
        <time>2022-08-16T07:34:19Z</time>
      </trkpt>
      <trkpt lat="44.48018" lon="6.82985">
        <ele>2014</ele>
        <time>2022-08-16T07:34:20Z</time>
      </trkpt>
      <trkpt lat="44.48017" lon="6.82983">
        <ele>2014</ele>
        <time>2022-08-16T07:34:21Z</time>
      </trkpt>
      <trkpt lat="44.48017" lon="6.82981">
        <ele>2014.2</ele>
        <time>2022-08-16T07:34:22Z</time>
      </trkpt>
      <trkpt lat="44.48017" lon="6.82979">
        <ele>2014.4</ele>
        <time>2022-08-16T07:34:23Z</time>
      </trkpt>
      <trkpt lat="44.48017" lon="6.82978">
        <ele>2014.6</ele>
        <time>2022-08-16T07:34:24Z</time>
      </trkpt>
      <trkpt lat="44.48017" lon="6.82976">
        <ele>2014.6</ele>
        <time>2022-08-16T07:34:25Z</time>
      </trkpt>
      <trkpt lat="44.48017" lon="6.82974">
        <ele>2014.8</ele>
        <time>2022-08-16T07:34:26Z</time>
      </trkpt>
      <trkpt lat="44.48018" lon="6.82973">
        <ele>2014.8</ele>
        <time>2022-08-16T07:34:27Z</time>
      </trkpt>
      <trkpt lat="44.48018" lon="6.82971">
        <ele>2015</ele>
        <time>2022-08-16T07:34:28Z</time>
      </trkpt>
      <trkpt lat="44.48018" lon="6.8297">
        <ele>2015</ele>
        <time>2022-08-16T07:34:29Z</time>
      </trkpt>
      <trkpt lat="44.48019" lon="6.82969">
        <ele>2015.2</ele>
        <time>2022-08-16T07:34:30Z</time>
      </trkpt>
      <trkpt lat="44.48019" lon="6.82968">
        <ele>2015.4</ele>
        <time>2022-08-16T07:34:31Z</time>
      </trkpt>
      <trkpt lat="44.4802" lon="6.82966">
        <ele>2015.6</ele>
        <time>2022-08-16T07:34:32Z</time>
      </trkpt>
      <trkpt lat="44.4802" lon="6.82964">
        <ele>2015.6</ele>
        <time>2022-08-16T07:34:33Z</time>
      </trkpt>
      <trkpt lat="44.48021" lon="6.82963">
        <ele>2015.8</ele>
        <time>2022-08-16T07:34:34Z</time>
      </trkpt>
      <trkpt lat="44.48021" lon="6.82962">
        <ele>2015.6</ele>
        <time>2022-08-16T07:34:35Z</time>
      </trkpt>
      <trkpt lat="44.48022" lon="6.82961">
        <ele>2016</ele>
        <time>2022-08-16T07:34:36Z</time>
      </trkpt>
      <trkpt lat="44.48022" lon="6.8296">
        <ele>2016.2</ele>
        <time>2022-08-16T07:34:37Z</time>
      </trkpt>
      <trkpt lat="44.48023" lon="6.82958">
        <ele>2016.2</ele>
        <time>2022-08-16T07:34:38Z</time>
      </trkpt>
      <trkpt lat="44.48024" lon="6.82957">
        <ele>2016.2</ele>
        <time>2022-08-16T07:34:39Z</time>
      </trkpt>
      <trkpt lat="44.48025" lon="6.82957">
        <ele>2016.4</ele>
        <time>2022-08-16T07:34:40Z</time>
      </trkpt>
      <trkpt lat="44.48026" lon="6.82956">
        <ele>2016.8</ele>
        <time>2022-08-16T07:34:41Z</time>
      </trkpt>
      <trkpt lat="44.48027" lon="6.82956">
        <ele>2016.8</ele>
        <time>2022-08-16T07:34:42Z</time>
      </trkpt>
      <trkpt lat="44.48028" lon="6.82957">
        <ele>2016.8</ele>
        <time>2022-08-16T07:34:43Z</time>
      </trkpt>
      <trkpt lat="44.48029" lon="6.82958">
        <ele>2016.8</ele>
        <time>2022-08-16T07:34:44Z</time>
      </trkpt>
      <trkpt lat="44.48029" lon="6.8296">
        <ele>2017</ele>
        <time>2022-08-16T07:34:45Z</time>
      </trkpt>
      <trkpt lat="44.48029" lon="6.82961">
        <ele>2017.2</ele>
        <time>2022-08-16T07:34:46Z</time>
      </trkpt>
      <trkpt lat="44.48029" lon="6.82962">
        <ele>2017.4</ele>
        <time>2022-08-16T07:34:47Z</time>
      </trkpt>
      <trkpt lat="44.48029" lon="6.82963">
        <ele>2017.6</ele>
        <time>2022-08-16T07:34:48Z</time>
      </trkpt>
      <trkpt lat="44.48029" lon="6.82965">
        <ele>2017.8</ele>
        <time>2022-08-16T07:34:49Z</time>
      </trkpt>
      <trkpt lat="44.48029" lon="6.82967">
        <ele>2018.2</ele>
        <time>2022-08-16T07:34:50Z</time>
      </trkpt>
      <trkpt lat="44.48029" lon="6.82968">
        <ele>2018.6</ele>
        <time>2022-08-16T07:34:51Z</time>
      </trkpt>
      <trkpt lat="44.48029" lon="6.82969">
        <ele>2018.8</ele>
        <time>2022-08-16T07:34:52Z</time>
      </trkpt>
      <trkpt lat="44.4803" lon="6.82971">
        <ele>2019</ele>
        <time>2022-08-16T07:34:53Z</time>
      </trkpt>
      <trkpt lat="44.4803" lon="6.82972">
        <ele>2019</ele>
        <time>2022-08-16T07:34:54Z</time>
      </trkpt>
      <trkpt lat="44.4803" lon="6.82973">
        <ele>2019.2</ele>
        <time>2022-08-16T07:34:55Z</time>
      </trkpt>
      <trkpt lat="44.4803" lon="6.82975">
        <ele>2019.4</ele>
        <time>2022-08-16T07:34:56Z</time>
      </trkpt>
      <trkpt lat="44.4803" lon="6.82977">
        <ele>2019.4</ele>
        <time>2022-08-16T07:34:57Z</time>
      </trkpt>
      <trkpt lat="44.48031" lon="6.82978">
        <ele>2019.4</ele>
        <time>2022-08-16T07:34:58Z</time>
      </trkpt>
      <trkpt lat="44.48031" lon="6.8298">
        <ele>2019.6</ele>
        <time>2022-08-16T07:34:59Z</time>
      </trkpt>
      <trkpt lat="44.48032" lon="6.82981">
        <ele>2019.8</ele>
        <time>2022-08-16T07:35:00Z</time>
      </trkpt>
      <trkpt lat="44.48032" lon="6.82982">
        <ele>2019.8</ele>
        <time>2022-08-16T07:35:01Z</time>
      </trkpt>
      <trkpt lat="44.48033" lon="6.82984">
        <ele>2020.2</ele>
        <time>2022-08-16T07:35:02Z</time>
      </trkpt>
      <trkpt lat="44.48033" lon="6.82985">
        <ele>2020.2</ele>
        <time>2022-08-16T07:35:03Z</time>
      </trkpt>
      <trkpt lat="44.48034" lon="6.82986">
        <ele>2020.4</ele>
        <time>2022-08-16T07:35:04Z</time>
      </trkpt>
      <trkpt lat="44.48034" lon="6.82988">
        <ele>2020.4</ele>
        <time>2022-08-16T07:35:05Z</time>
      </trkpt>
      <trkpt lat="44.48035" lon="6.82989">
        <ele>2020.4</ele>
        <time>2022-08-16T07:35:06Z</time>
      </trkpt>
      <trkpt lat="44.48036" lon="6.8299">
        <ele>2020.6</ele>
        <time>2022-08-16T07:35:07Z</time>
      </trkpt>
      <trkpt lat="44.48037" lon="6.82991">
        <ele>2020.8</ele>
        <time>2022-08-16T07:35:08Z</time>
      </trkpt>
      <trkpt lat="44.48038" lon="6.82992">
        <ele>2021</ele>
        <time>2022-08-16T07:35:09Z</time>
      </trkpt>
      <trkpt lat="44.48039" lon="6.82993">
        <ele>2021</ele>
        <time>2022-08-16T07:35:10Z</time>
      </trkpt>
      <trkpt lat="44.4804" lon="6.82994">
        <ele>2021.2</ele>
        <time>2022-08-16T07:35:11Z</time>
      </trkpt>
      <trkpt lat="44.4804" lon="6.82996">
        <ele>2021.4</ele>
        <time>2022-08-16T07:35:12Z</time>
      </trkpt>
      <trkpt lat="44.48041" lon="6.82997">
        <ele>2021.6</ele>
        <time>2022-08-16T07:35:13Z</time>
      </trkpt>
      <trkpt lat="44.48042" lon="6.82998">
        <ele>2021.6</ele>
        <time>2022-08-16T07:35:14Z</time>
      </trkpt>
      <trkpt lat="44.48042" lon="6.82999">
        <ele>2021.6</ele>
        <time>2022-08-16T07:35:15Z</time>
      </trkpt>
      <trkpt lat="44.48043" lon="6.83001">
        <ele>2021.8</ele>
        <time>2022-08-16T07:35:16Z</time>
      </trkpt>
      <trkpt lat="44.48044" lon="6.83002">
        <ele>2022</ele>
        <time>2022-08-16T07:35:17Z</time>
      </trkpt>
      <trkpt lat="44.48044" lon="6.83003">
        <ele>2022.2</ele>
        <time>2022-08-16T07:35:18Z</time>
      </trkpt>
      <trkpt lat="44.48045" lon="6.83005">
        <ele>2022.2</ele>
        <time>2022-08-16T07:35:19Z</time>
      </trkpt>
      <trkpt lat="44.48045" lon="6.83006">
        <ele>2022.6</ele>
        <time>2022-08-16T07:35:20Z</time>
      </trkpt>
      <trkpt lat="44.48046" lon="6.83008">
        <ele>2022.4</ele>
        <time>2022-08-16T07:35:21Z</time>
      </trkpt>
      <trkpt lat="44.48047" lon="6.83009">
        <ele>2022.8</ele>
        <time>2022-08-16T07:35:22Z</time>
      </trkpt>
      <trkpt lat="44.48047" lon="6.83011">
        <ele>2022.8</ele>
        <time>2022-08-16T07:35:23Z</time>
      </trkpt>
      <trkpt lat="44.48048" lon="6.83012">
        <ele>2023.2</ele>
        <time>2022-08-16T07:35:24Z</time>
      </trkpt>
      <trkpt lat="44.48048" lon="6.83014">
        <ele>2023.2</ele>
        <time>2022-08-16T07:35:25Z</time>
      </trkpt>
      <trkpt lat="44.48049" lon="6.83015">
        <ele>2023.4</ele>
        <time>2022-08-16T07:35:26Z</time>
      </trkpt>
      <trkpt lat="44.48049" lon="6.83017">
        <ele>2023.6</ele>
        <time>2022-08-16T07:35:27Z</time>
      </trkpt>
      <trkpt lat="44.48049" lon="6.83018">
        <ele>2024</ele>
        <time>2022-08-16T07:35:28Z</time>
      </trkpt>
      <trkpt lat="44.4805" lon="6.8302">
        <ele>2024</ele>
        <time>2022-08-16T07:35:29Z</time>
      </trkpt>
      <trkpt lat="44.4805" lon="6.83021">
        <ele>2024</ele>
        <time>2022-08-16T07:35:30Z</time>
      </trkpt>
      <trkpt lat="44.48051" lon="6.83023">
        <ele>2024.2</ele>
        <time>2022-08-16T07:35:31Z</time>
      </trkpt>
      <trkpt lat="44.48052" lon="6.83024">
        <ele>2024.4</ele>
        <time>2022-08-16T07:35:32Z</time>
      </trkpt>
      <trkpt lat="44.48052" lon="6.83026">
        <ele>2024.6</ele>
        <time>2022-08-16T07:35:33Z</time>
      </trkpt>
      <trkpt lat="44.48053" lon="6.83027">
        <ele>2024.8</ele>
        <time>2022-08-16T07:35:34Z</time>
      </trkpt>
      <trkpt lat="44.48054" lon="6.83028">
        <ele>2025.2</ele>
        <time>2022-08-16T07:35:35Z</time>
      </trkpt>
      <trkpt lat="44.48054" lon="6.8303">
        <ele>2025.4</ele>
        <time>2022-08-16T07:35:36Z</time>
      </trkpt>
      <trkpt lat="44.48055" lon="6.83031">
        <ele>2025.6</ele>
        <time>2022-08-16T07:35:37Z</time>
      </trkpt>
      <trkpt lat="44.48055" lon="6.83032">
        <ele>2025.8</ele>
        <time>2022-08-16T07:35:38Z</time>
      </trkpt>
      <trkpt lat="44.48056" lon="6.83033">
        <ele>2026</ele>
        <time>2022-08-16T07:35:39Z</time>
      </trkpt>
      <trkpt lat="44.48057" lon="6.83034">
        <ele>2026</ele>
        <time>2022-08-16T07:35:40Z</time>
      </trkpt>
      <trkpt lat="44.48057" lon="6.83036">
        <ele>2026.2</ele>
        <time>2022-08-16T07:35:41Z</time>
      </trkpt>
      <trkpt lat="44.48058" lon="6.83037">
        <ele>2026.2</ele>
        <time>2022-08-16T07:35:42Z</time>
      </trkpt>
      <trkpt lat="44.48059" lon="6.83038">
        <ele>2026.4</ele>
        <time>2022-08-16T07:35:43Z</time>
      </trkpt>
      <trkpt lat="44.4806" lon="6.8304">
        <ele>2026.6</ele>
        <time>2022-08-16T07:35:44Z</time>
      </trkpt>
      <trkpt lat="44.48061" lon="6.83041">
        <ele>2026.6</ele>
        <time>2022-08-16T07:35:45Z</time>
      </trkpt>
      <trkpt lat="44.48061" lon="6.83042">
        <ele>2026.8</ele>
        <time>2022-08-16T07:35:46Z</time>
      </trkpt>
      <trkpt lat="44.48062" lon="6.83043">
        <ele>2027.2</ele>
        <time>2022-08-16T07:35:47Z</time>
      </trkpt>
      <trkpt lat="44.48063" lon="6.83044">
        <ele>2027.2</ele>
        <time>2022-08-16T07:35:48Z</time>
      </trkpt>
      <trkpt lat="44.48063" lon="6.83045">
        <ele>2027.6</ele>
        <time>2022-08-16T07:35:49Z</time>
      </trkpt>
      <trkpt lat="44.48064" lon="6.83046">
        <ele>2027.8</ele>
        <time>2022-08-16T07:35:50Z</time>
      </trkpt>
      <trkpt lat="44.48065" lon="6.83048">
        <ele>2028</ele>
        <time>2022-08-16T07:35:51Z</time>
      </trkpt>
      <trkpt lat="44.48066" lon="6.83049">
        <ele>2028</ele>
        <time>2022-08-16T07:35:52Z</time>
      </trkpt>
      <trkpt lat="44.48067" lon="6.8305">
        <ele>2028</ele>
        <time>2022-08-16T07:35:53Z</time>
      </trkpt>
      <trkpt lat="44.48067" lon="6.83051">
        <ele>2028.2</ele>
        <time>2022-08-16T07:35:54Z</time>
      </trkpt>
      <trkpt lat="44.48068" lon="6.83052">
        <ele>2028.4</ele>
        <time>2022-08-16T07:35:55Z</time>
      </trkpt>
      <trkpt lat="44.48069" lon="6.83053">
        <ele>2028.4</ele>
        <time>2022-08-16T07:35:56Z</time>
      </trkpt>
      <trkpt lat="44.4807" lon="6.83054">
        <ele>2028.6</ele>
        <time>2022-08-16T07:35:57Z</time>
      </trkpt>
      <trkpt lat="44.48071" lon="6.83056">
        <ele>2028.6</ele>
        <time>2022-08-16T07:35:58Z</time>
      </trkpt>
      <trkpt lat="44.48072" lon="6.83057">
        <ele>2028.8</ele>
        <time>2022-08-16T07:35:59Z</time>
      </trkpt>
      <trkpt lat="44.48073" lon="6.83058">
        <ele>2028.8</ele>
        <time>2022-08-16T07:36:00Z</time>
      </trkpt>
      <trkpt lat="44.48074" lon="6.83059">
        <ele>2029</ele>
        <time>2022-08-16T07:36:01Z</time>
      </trkpt>
      <trkpt lat="44.48074" lon="6.8306">
        <ele>2029</ele>
        <time>2022-08-16T07:36:02Z</time>
      </trkpt>
      <trkpt lat="44.48075" lon="6.83061">
        <ele>2029.2</ele>
        <time>2022-08-16T07:36:03Z</time>
      </trkpt>
      <trkpt lat="44.48076" lon="6.83063">
        <ele>2029.4</ele>
        <time>2022-08-16T07:36:04Z</time>
      </trkpt>
      <trkpt lat="44.48076" lon="6.83064">
        <ele>2029.6</ele>
        <time>2022-08-16T07:36:05Z</time>
      </trkpt>
      <trkpt lat="44.48077" lon="6.83066">
        <ele>2029.6</ele>
        <time>2022-08-16T07:36:06Z</time>
      </trkpt>
      <trkpt lat="44.48078" lon="6.83067">
        <ele>2029.6</ele>
        <time>2022-08-16T07:36:07Z</time>
      </trkpt>
      <trkpt lat="44.48078" lon="6.83068">
        <ele>2029.8</ele>
        <time>2022-08-16T07:36:08Z</time>
      </trkpt>
      <trkpt lat="44.48079" lon="6.8307">
        <ele>2030</ele>
        <time>2022-08-16T07:36:09Z</time>
      </trkpt>
      <trkpt lat="44.48079" lon="6.83072">
        <ele>2030.2</ele>
        <time>2022-08-16T07:36:10Z</time>
      </trkpt>
      <trkpt lat="44.48079" lon="6.83073">
        <ele>2030.4</ele>
        <time>2022-08-16T07:36:11Z</time>
      </trkpt>
      <trkpt lat="44.48079" lon="6.83075">
        <ele>2030.6</ele>
        <time>2022-08-16T07:36:12Z</time>
      </trkpt>
      <trkpt lat="44.48079" lon="6.83076">
        <ele>2030.8</ele>
        <time>2022-08-16T07:36:13Z</time>
      </trkpt>
      <trkpt lat="44.4808" lon="6.83078">
        <ele>2031</ele>
        <time>2022-08-16T07:36:14Z</time>
      </trkpt>
      <trkpt lat="44.4808" lon="6.8308">
        <ele>2031</ele>
        <time>2022-08-16T07:36:15Z</time>
      </trkpt>
      <trkpt lat="44.4808" lon="6.83081">
        <ele>2031</ele>
        <time>2022-08-16T07:36:16Z</time>
      </trkpt>
      <trkpt lat="44.4808" lon="6.83083">
        <ele>2031.2</ele>
        <time>2022-08-16T07:36:17Z</time>
      </trkpt>
      <trkpt lat="44.48081" lon="6.83084">
        <ele>2031.4</ele>
        <time>2022-08-16T07:36:18Z</time>
      </trkpt>
      <trkpt lat="44.48081" lon="6.83086">
        <ele>2031.8</ele>
        <time>2022-08-16T07:36:19Z</time>
      </trkpt>
      <trkpt lat="44.48081" lon="6.83087">
        <ele>2031.8</ele>
        <time>2022-08-16T07:36:20Z</time>
      </trkpt>
      <trkpt lat="44.48081" lon="6.83089">
        <ele>2032</ele>
        <time>2022-08-16T07:36:21Z</time>
      </trkpt>
      <trkpt lat="44.48082" lon="6.83091">
        <ele>2032</ele>
        <time>2022-08-16T07:36:22Z</time>
      </trkpt>
      <trkpt lat="44.48082" lon="6.83092">
        <ele>2032.2</ele>
        <time>2022-08-16T07:36:23Z</time>
      </trkpt>
      <trkpt lat="44.48083" lon="6.83093">
        <ele>2032.4</ele>
        <time>2022-08-16T07:36:24Z</time>
      </trkpt>
      <trkpt lat="44.48083" lon="6.83095">
        <ele>2032.6</ele>
        <time>2022-08-16T07:36:25Z</time>
      </trkpt>
      <trkpt lat="44.48084" lon="6.83096">
        <ele>2032.6</ele>
        <time>2022-08-16T07:36:26Z</time>
      </trkpt>
      <trkpt lat="44.48085" lon="6.83097">
        <ele>2032.8</ele>
        <time>2022-08-16T07:36:27Z</time>
      </trkpt>
      <trkpt lat="44.48086" lon="6.83098">
        <ele>2033</ele>
        <time>2022-08-16T07:36:28Z</time>
      </trkpt>
      <trkpt lat="44.48087" lon="6.83099">
        <ele>2033.2</ele>
        <time>2022-08-16T07:36:29Z</time>
      </trkpt>
      <trkpt lat="44.48087" lon="6.831">
        <ele>2033.4</ele>
        <time>2022-08-16T07:36:30Z</time>
      </trkpt>
      <trkpt lat="44.48089" lon="6.83101">
        <ele>2033.4</ele>
        <time>2022-08-16T07:36:31Z</time>
      </trkpt>
      <trkpt lat="44.4809" lon="6.83102">
        <ele>2033.6</ele>
        <time>2022-08-16T07:36:32Z</time>
      </trkpt>
      <trkpt lat="44.4809" lon="6.83101">
        <ele>2033.8</ele>
        <time>2022-08-16T07:36:33Z</time>
      </trkpt>
      <trkpt lat="44.48091" lon="6.831">
        <ele>2033.8</ele>
        <time>2022-08-16T07:36:34Z</time>
      </trkpt>
      <trkpt lat="44.48092" lon="6.83099">
        <ele>2034.2</ele>
        <time>2022-08-16T07:36:35Z</time>
      </trkpt>
      <trkpt lat="44.48093" lon="6.83098">
        <ele>2034.4</ele>
        <time>2022-08-16T07:36:36Z</time>
      </trkpt>
      <trkpt lat="44.48093" lon="6.83097">
        <ele>2034.6</ele>
        <time>2022-08-16T07:36:37Z</time>
      </trkpt>
      <trkpt lat="44.48093" lon="6.83095">
        <ele>2034.6</ele>
        <time>2022-08-16T07:36:38Z</time>
      </trkpt>
      <trkpt lat="44.48093" lon="6.83094">
        <ele>2034.6</ele>
        <time>2022-08-16T07:36:39Z</time>
      </trkpt>
      <trkpt lat="44.48093" lon="6.83092">
        <ele>2034.8</ele>
        <time>2022-08-16T07:36:40Z</time>
      </trkpt>
      <trkpt lat="44.48092" lon="6.83091">
        <ele>2035</ele>
        <time>2022-08-16T07:36:41Z</time>
      </trkpt>
      <trkpt lat="44.48092" lon="6.83089">
        <ele>2035.2</ele>
        <time>2022-08-16T07:36:42Z</time>
      </trkpt>
      <trkpt lat="44.48092" lon="6.83088">
        <ele>2035.4</ele>
        <time>2022-08-16T07:36:43Z</time>
      </trkpt>
      <trkpt lat="44.48091" lon="6.83087">
        <ele>2035.4</ele>
        <time>2022-08-16T07:36:44Z</time>
      </trkpt>
      <trkpt lat="44.48091" lon="6.83085">
        <ele>2035.6</ele>
        <time>2022-08-16T07:36:45Z</time>
      </trkpt>
      <trkpt lat="44.48091" lon="6.83084">
        <ele>2035.8</ele>
        <time>2022-08-16T07:36:46Z</time>
      </trkpt>
      <trkpt lat="44.48091" lon="6.83083">
        <ele>2036</ele>
        <time>2022-08-16T07:36:47Z</time>
      </trkpt>
      <trkpt lat="44.48092" lon="6.83081">
        <ele>2036</ele>
        <time>2022-08-16T07:36:48Z</time>
      </trkpt>
      <trkpt lat="44.48092" lon="6.8308">
        <ele>2036.2</ele>
        <time>2022-08-16T07:36:49Z</time>
      </trkpt>
      <trkpt lat="44.48093" lon="6.83079">
        <ele>2036.4</ele>
        <time>2022-08-16T07:36:50Z</time>
      </trkpt>
      <trkpt lat="44.48093" lon="6.83077">
        <ele>2036.6</ele>
        <time>2022-08-16T07:36:51Z</time>
      </trkpt>
      <trkpt lat="44.48093" lon="6.83076">
        <ele>2036.8</ele>
        <time>2022-08-16T07:36:52Z</time>
      </trkpt>
      <trkpt lat="44.48093" lon="6.83074">
        <ele>2036.8</ele>
        <time>2022-08-16T07:36:53Z</time>
      </trkpt>
      <trkpt lat="44.48093" lon="6.83073">
        <ele>2037</ele>
        <time>2022-08-16T07:36:54Z</time>
      </trkpt>
      <trkpt lat="44.48093" lon="6.83071">
        <ele>2037</ele>
        <time>2022-08-16T07:36:55Z</time>
      </trkpt>
      <trkpt lat="44.48094" lon="6.8307">
        <ele>2037.2</ele>
        <time>2022-08-16T07:36:56Z</time>
      </trkpt>
      <trkpt lat="44.48094" lon="6.83068">
        <ele>2037.4</ele>
        <time>2022-08-16T07:36:57Z</time>
      </trkpt>
      <trkpt lat="44.48094" lon="6.83067">
        <ele>2037.4</ele>
        <time>2022-08-16T07:36:58Z</time>
      </trkpt>
      <trkpt lat="44.48093" lon="6.83065">
        <ele>2037.6</ele>
        <time>2022-08-16T07:36:59Z</time>
      </trkpt>
      <trkpt lat="44.48093" lon="6.83064">
        <ele>2037.8</ele>
        <time>2022-08-16T07:37:00Z</time>
      </trkpt>
      <trkpt lat="44.48093" lon="6.83062">
        <ele>2038</ele>
        <time>2022-08-16T07:37:01Z</time>
      </trkpt>
      <trkpt lat="44.48093" lon="6.83061">
        <ele>2038</ele>
        <time>2022-08-16T07:37:02Z</time>
      </trkpt>
      <trkpt lat="44.48093" lon="6.83059">
        <ele>2038</ele>
        <time>2022-08-16T07:37:03Z</time>
      </trkpt>
      <trkpt lat="44.48093" lon="6.83057">
        <ele>2038.2</ele>
        <time>2022-08-16T07:37:04Z</time>
      </trkpt>
      <trkpt lat="44.48092" lon="6.83055">
        <ele>2038.2</ele>
        <time>2022-08-16T07:37:05Z</time>
      </trkpt>
      <trkpt lat="44.48092" lon="6.83053">
        <ele>2038.4</ele>
        <time>2022-08-16T07:37:06Z</time>
      </trkpt>
      <trkpt lat="44.48092" lon="6.83051">
        <ele>2038.6</ele>
        <time>2022-08-16T07:37:07Z</time>
      </trkpt>
      <trkpt lat="44.48091" lon="6.8305">
        <ele>2038.8</ele>
        <time>2022-08-16T07:37:08Z</time>
      </trkpt>
      <trkpt lat="44.48091" lon="6.83048">
        <ele>2038.8</ele>
        <time>2022-08-16T07:37:09Z</time>
      </trkpt>
      <trkpt lat="44.4809" lon="6.83046">
        <ele>2039.4</ele>
        <time>2022-08-16T07:37:10Z</time>
      </trkpt>
      <trkpt lat="44.4809" lon="6.83044">
        <ele>2039.6</ele>
        <time>2022-08-16T07:37:11Z</time>
      </trkpt>
      <trkpt lat="44.4809" lon="6.83043">
        <ele>2039.8</ele>
        <time>2022-08-16T07:37:12Z</time>
      </trkpt>
      <trkpt lat="44.48089" lon="6.83042">
        <ele>2039.8</ele>
        <time>2022-08-16T07:37:13Z</time>
      </trkpt>
      <trkpt lat="44.48089" lon="6.83041">
        <ele>2040</ele>
        <time>2022-08-16T07:37:14Z</time>
      </trkpt>
      <trkpt lat="44.48088" lon="6.83039">
        <ele>2040</ele>
        <time>2022-08-16T07:37:15Z</time>
      </trkpt>
      <trkpt lat="44.48088" lon="6.83038">
        <ele>2040.2</ele>
        <time>2022-08-16T07:37:16Z</time>
      </trkpt>
      <trkpt lat="44.48087" lon="6.83036">
        <ele>2040.2</ele>
        <time>2022-08-16T07:37:17Z</time>
      </trkpt>
      <trkpt lat="44.48087" lon="6.83034">
        <ele>2040.6</ele>
        <time>2022-08-16T07:37:18Z</time>
      </trkpt>
      <trkpt lat="44.48087" lon="6.83032">
        <ele>2040.8</ele>
        <time>2022-08-16T07:37:19Z</time>
      </trkpt>
      <trkpt lat="44.48087" lon="6.83031">
        <ele>2040.8</ele>
        <time>2022-08-16T07:37:20Z</time>
      </trkpt>
      <trkpt lat="44.48088" lon="6.83029">
        <ele>2041</ele>
        <time>2022-08-16T07:37:21Z</time>
      </trkpt>
      <trkpt lat="44.48089" lon="6.83029">
        <ele>2041.2</ele>
        <time>2022-08-16T07:37:22Z</time>
      </trkpt>
      <trkpt lat="44.4809" lon="6.8303">
        <ele>2041.2</ele>
        <time>2022-08-16T07:37:23Z</time>
      </trkpt>
      <trkpt lat="44.48091" lon="6.83031">
        <ele>2041.4</ele>
        <time>2022-08-16T07:37:24Z</time>
      </trkpt>
      <trkpt lat="44.48092" lon="6.83032">
        <ele>2041.4</ele>
        <time>2022-08-16T07:37:25Z</time>
      </trkpt>
      <trkpt lat="44.48093" lon="6.83033">
        <ele>2041.2</ele>
        <time>2022-08-16T07:37:26Z</time>
      </trkpt>
      <trkpt lat="44.48094" lon="6.83034">
        <ele>2041.6</ele>
        <time>2022-08-16T07:37:27Z</time>
      </trkpt>
      <trkpt lat="44.48095" lon="6.83034">
        <ele>2041.8</ele>
        <time>2022-08-16T07:37:28Z</time>
      </trkpt>
      <trkpt lat="44.48095" lon="6.83036">
        <ele>2042</ele>
        <time>2022-08-16T07:37:29Z</time>
      </trkpt>
      <trkpt lat="44.48096" lon="6.83037">
        <ele>2042.2</ele>
        <time>2022-08-16T07:37:30Z</time>
      </trkpt>
      <trkpt lat="44.48097" lon="6.83038">
        <ele>2042.2</ele>
        <time>2022-08-16T07:37:31Z</time>
      </trkpt>
      <trkpt lat="44.48098" lon="6.83039">
        <ele>2042.4</ele>
        <time>2022-08-16T07:37:32Z</time>
      </trkpt>
      <trkpt lat="44.48098" lon="6.8304">
        <ele>2042.8</ele>
        <time>2022-08-16T07:37:33Z</time>
      </trkpt>
      <trkpt lat="44.48099" lon="6.83041">
        <ele>2043</ele>
        <time>2022-08-16T07:37:34Z</time>
      </trkpt>
      <trkpt lat="44.481" lon="6.83043">
        <ele>2043</ele>
        <time>2022-08-16T07:37:35Z</time>
      </trkpt>
      <trkpt lat="44.481" lon="6.83044">
        <ele>2043.2</ele>
        <time>2022-08-16T07:37:36Z</time>
      </trkpt>
      <trkpt lat="44.48101" lon="6.83045">
        <ele>2043.4</ele>
        <time>2022-08-16T07:37:37Z</time>
      </trkpt>
      <trkpt lat="44.48102" lon="6.83047">
        <ele>2043.4</ele>
        <time>2022-08-16T07:37:38Z</time>
      </trkpt>
      <trkpt lat="44.48102" lon="6.83048">
        <ele>2043.6</ele>
        <time>2022-08-16T07:37:39Z</time>
      </trkpt>
      <trkpt lat="44.48103" lon="6.83049">
        <ele>2043.8</ele>
        <time>2022-08-16T07:37:40Z</time>
      </trkpt>
      <trkpt lat="44.48103" lon="6.8305">
        <ele>2044</ele>
        <time>2022-08-16T07:37:41Z</time>
      </trkpt>
      <trkpt lat="44.48103" lon="6.83051">
        <ele>2044.2</ele>
        <time>2022-08-16T07:37:42Z</time>
      </trkpt>
      <trkpt lat="44.48104" lon="6.83052">
        <ele>2044.2</ele>
        <time>2022-08-16T07:37:43Z</time>
      </trkpt>
      <trkpt lat="44.48105" lon="6.83054">
        <ele>2044.4</ele>
        <time>2022-08-16T07:37:44Z</time>
      </trkpt>
      <trkpt lat="44.48105" lon="6.83055">
        <ele>2044.6</ele>
        <time>2022-08-16T07:37:45Z</time>
      </trkpt>
      <trkpt lat="44.48106" lon="6.83056">
        <ele>2044.6</ele>
        <time>2022-08-16T07:37:46Z</time>
      </trkpt>
      <trkpt lat="44.48107" lon="6.83057">
        <ele>2045</ele>
        <time>2022-08-16T07:37:47Z</time>
      </trkpt>
      <trkpt lat="44.48107" lon="6.83058">
        <ele>2045</ele>
        <time>2022-08-16T07:37:48Z</time>
      </trkpt>
      <trkpt lat="44.48108" lon="6.83059">
        <ele>2045</ele>
        <time>2022-08-16T07:37:49Z</time>
      </trkpt>
      <trkpt lat="44.48108" lon="6.83059">
        <ele>2045.2</ele>
        <time>2022-08-16T07:37:50Z</time>
      </trkpt>
      <trkpt lat="44.48109" lon="6.8306">
        <ele>2045.4</ele>
        <time>2022-08-16T07:37:51Z</time>
      </trkpt>
      <trkpt lat="44.4811" lon="6.83061">
        <ele>2045.4</ele>
        <time>2022-08-16T07:37:52Z</time>
      </trkpt>
      <trkpt lat="44.48111" lon="6.83062">
        <ele>2045.4</ele>
        <time>2022-08-16T07:37:53Z</time>
      </trkpt>
      <trkpt lat="44.48111" lon="6.83063">
        <ele>2045.4</ele>
        <time>2022-08-16T07:37:54Z</time>
      </trkpt>
      <trkpt lat="44.48112" lon="6.83064">
        <ele>2045.6</ele>
        <time>2022-08-16T07:37:55Z</time>
      </trkpt>
      <trkpt lat="44.48112" lon="6.83065">
        <ele>2045.8</ele>
        <time>2022-08-16T07:37:56Z</time>
      </trkpt>
      <trkpt lat="44.48113" lon="6.83065">
        <ele>2045.8</ele>
        <time>2022-08-16T07:37:57Z</time>
      </trkpt>
      <trkpt lat="44.48114" lon="6.83067">
        <ele>2046</ele>
        <time>2022-08-16T07:37:58Z</time>
      </trkpt>
      <trkpt lat="44.48114" lon="6.83068">
        <ele>2046.2</ele>
        <time>2022-08-16T07:37:59Z</time>
      </trkpt>
      <trkpt lat="44.48116" lon="6.83068">
        <ele>2046.2</ele>
        <time>2022-08-16T07:38:00Z</time>
      </trkpt>
      <trkpt lat="44.48117" lon="6.83069">
        <ele>2046.6</ele>
        <time>2022-08-16T07:38:01Z</time>
      </trkpt>
      <trkpt lat="44.48118" lon="6.83069">
        <ele>2046.6</ele>
        <time>2022-08-16T07:38:02Z</time>
      </trkpt>
      <trkpt lat="44.48119" lon="6.83069">
        <ele>2047</ele>
        <time>2022-08-16T07:38:03Z</time>
      </trkpt>
      <trkpt lat="44.4812" lon="6.8307">
        <ele>2047.2</ele>
        <time>2022-08-16T07:38:04Z</time>
      </trkpt>
      <trkpt lat="44.48121" lon="6.83071">
        <ele>2047.2</ele>
        <time>2022-08-16T07:38:05Z</time>
      </trkpt>
      <trkpt lat="44.48123" lon="6.83072">
        <ele>2047.4</ele>
        <time>2022-08-16T07:38:06Z</time>
      </trkpt>
      <trkpt lat="44.48124" lon="6.83072">
        <ele>2047.4</ele>
        <time>2022-08-16T07:38:07Z</time>
      </trkpt>
      <trkpt lat="44.48125" lon="6.83073">
        <ele>2047.8</ele>
        <time>2022-08-16T07:38:08Z</time>
      </trkpt>
      <trkpt lat="44.48126" lon="6.83074">
        <ele>2047.8</ele>
        <time>2022-08-16T07:38:09Z</time>
      </trkpt>
      <trkpt lat="44.48127" lon="6.83075">
        <ele>2047.8</ele>
        <time>2022-08-16T07:38:10Z</time>
      </trkpt>
      <trkpt lat="44.48128" lon="6.83077">
        <ele>2048.2</ele>
        <time>2022-08-16T07:38:11Z</time>
      </trkpt>
      <trkpt lat="44.48129" lon="6.83078">
        <ele>2048.2</ele>
        <time>2022-08-16T07:38:12Z</time>
      </trkpt>
      <trkpt lat="44.4813" lon="6.83078">
        <ele>2048.4</ele>
        <time>2022-08-16T07:38:13Z</time>
      </trkpt>
      <trkpt lat="44.48131" lon="6.83079">
        <ele>2048.6</ele>
        <time>2022-08-16T07:38:14Z</time>
      </trkpt>
      <trkpt lat="44.48132" lon="6.83081">
        <ele>2048.6</ele>
        <time>2022-08-16T07:38:15Z</time>
      </trkpt>
      <trkpt lat="44.48133" lon="6.83082">
        <ele>2048.6</ele>
        <time>2022-08-16T07:38:16Z</time>
      </trkpt>
      <trkpt lat="44.48134" lon="6.83083">
        <ele>2049</ele>
        <time>2022-08-16T07:38:17Z</time>
      </trkpt>
      <trkpt lat="44.48135" lon="6.83084">
        <ele>2049</ele>
        <time>2022-08-16T07:38:18Z</time>
      </trkpt>
      <trkpt lat="44.48136" lon="6.83086">
        <ele>2049</ele>
        <time>2022-08-16T07:38:19Z</time>
      </trkpt>
      <trkpt lat="44.48137" lon="6.83087">
        <ele>2049.2</ele>
        <time>2022-08-16T07:38:20Z</time>
      </trkpt>
      <trkpt lat="44.48137" lon="6.83089">
        <ele>2049.2</ele>
        <time>2022-08-16T07:38:21Z</time>
      </trkpt>
      <trkpt lat="44.48138" lon="6.8309">
        <ele>2049.4</ele>
        <time>2022-08-16T07:38:22Z</time>
      </trkpt>
      <trkpt lat="44.48138" lon="6.83091">
        <ele>2049.6</ele>
        <time>2022-08-16T07:38:23Z</time>
      </trkpt>
      <trkpt lat="44.48139" lon="6.83092">
        <ele>2049.6</ele>
        <time>2022-08-16T07:38:24Z</time>
      </trkpt>
      <trkpt lat="44.4814" lon="6.83093">
        <ele>2049.6</ele>
        <time>2022-08-16T07:38:25Z</time>
      </trkpt>
      <trkpt lat="44.48141" lon="6.83094">
        <ele>2050</ele>
        <time>2022-08-16T07:38:26Z</time>
      </trkpt>
      <trkpt lat="44.48141" lon="6.83094">
        <ele>2050</ele>
        <time>2022-08-16T07:38:27Z</time>
      </trkpt>
      <trkpt lat="44.48142" lon="6.83095">
        <ele>2050.2</ele>
        <time>2022-08-16T07:38:28Z</time>
      </trkpt>
      <trkpt lat="44.48144" lon="6.83096">
        <ele>2050.6</ele>
        <time>2022-08-16T07:38:29Z</time>
      </trkpt>
      <trkpt lat="44.48145" lon="6.83097">
        <ele>2050.6</ele>
        <time>2022-08-16T07:38:30Z</time>
      </trkpt>
      <trkpt lat="44.48146" lon="6.83097">
        <ele>2050.8</ele>
        <time>2022-08-16T07:38:31Z</time>
      </trkpt>
      <trkpt lat="44.48146" lon="6.83098">
        <ele>2051</ele>
        <time>2022-08-16T07:38:32Z</time>
      </trkpt>
      <trkpt lat="44.48148" lon="6.83099">
        <ele>2051</ele>
        <time>2022-08-16T07:38:33Z</time>
      </trkpt>
      <trkpt lat="44.48149" lon="6.831">
        <ele>2051.2</ele>
        <time>2022-08-16T07:38:34Z</time>
      </trkpt>
      <trkpt lat="44.4815" lon="6.83101">
        <ele>2051.4</ele>
        <time>2022-08-16T07:38:35Z</time>
      </trkpt>
      <trkpt lat="44.48151" lon="6.83102">
        <ele>2051.4</ele>
        <time>2022-08-16T07:38:36Z</time>
      </trkpt>
      <trkpt lat="44.48152" lon="6.83103">
        <ele>2051.4</ele>
        <time>2022-08-16T07:38:37Z</time>
      </trkpt>
      <trkpt lat="44.48154" lon="6.83105">
        <ele>2051.6</ele>
        <time>2022-08-16T07:38:38Z</time>
      </trkpt>
      <trkpt lat="44.48155" lon="6.83106">
        <ele>2051.8</ele>
        <time>2022-08-16T07:38:39Z</time>
      </trkpt>
      <trkpt lat="44.48156" lon="6.83107">
        <ele>2052</ele>
        <time>2022-08-16T07:38:40Z</time>
      </trkpt>
      <trkpt lat="44.48157" lon="6.83109">
        <ele>2052.2</ele>
        <time>2022-08-16T07:38:41Z</time>
      </trkpt>
      <trkpt lat="44.48158" lon="6.8311">
        <ele>2052.4</ele>
        <time>2022-08-16T07:38:42Z</time>
      </trkpt>
      <trkpt lat="44.48159" lon="6.8311">
        <ele>2052.6</ele>
        <time>2022-08-16T07:38:43Z</time>
      </trkpt>
      <trkpt lat="44.4816" lon="6.83111">
        <ele>2052.8</ele>
        <time>2022-08-16T07:38:44Z</time>
      </trkpt>
      <trkpt lat="44.48161" lon="6.83111">
        <ele>2053</ele>
        <time>2022-08-16T07:38:45Z</time>
      </trkpt>
      <trkpt lat="44.48162" lon="6.83112">
        <ele>2053.2</ele>
        <time>2022-08-16T07:38:46Z</time>
      </trkpt>
      <trkpt lat="44.48163" lon="6.83113">
        <ele>2053.2</ele>
        <time>2022-08-16T07:38:47Z</time>
      </trkpt>
      <trkpt lat="44.48164" lon="6.83114">
        <ele>2053.4</ele>
        <time>2022-08-16T07:38:48Z</time>
      </trkpt>
      <trkpt lat="44.48165" lon="6.83115">
        <ele>2053.6</ele>
        <time>2022-08-16T07:38:49Z</time>
      </trkpt>
      <trkpt lat="44.48166" lon="6.83115">
        <ele>2053.6</ele>
        <time>2022-08-16T07:38:50Z</time>
      </trkpt>
      <trkpt lat="44.48168" lon="6.83116">
        <ele>2053.8</ele>
        <time>2022-08-16T07:38:51Z</time>
      </trkpt>
      <trkpt lat="44.48169" lon="6.83116">
        <ele>2054</ele>
        <time>2022-08-16T07:38:52Z</time>
      </trkpt>
      <trkpt lat="44.4817" lon="6.83117">
        <ele>2054.2</ele>
        <time>2022-08-16T07:38:53Z</time>
      </trkpt>
      <trkpt lat="44.48171" lon="6.83117">
        <ele>2054.4</ele>
        <time>2022-08-16T07:38:54Z</time>
      </trkpt>
      <trkpt lat="44.48171" lon="6.83118">
        <ele>2054.4</ele>
        <time>2022-08-16T07:38:55Z</time>
      </trkpt>
      <trkpt lat="44.48172" lon="6.83118">
        <ele>2054.6</ele>
        <time>2022-08-16T07:38:56Z</time>
      </trkpt>
      <trkpt lat="44.48174" lon="6.83119">
        <ele>2054.6</ele>
        <time>2022-08-16T07:38:57Z</time>
      </trkpt>
      <trkpt lat="44.48174" lon="6.8312">
        <ele>2055</ele>
        <time>2022-08-16T07:38:58Z</time>
      </trkpt>
      <trkpt lat="44.48175" lon="6.8312">
        <ele>2055</ele>
        <time>2022-08-16T07:38:59Z</time>
      </trkpt>
      <trkpt lat="44.48176" lon="6.83121">
        <ele>2055</ele>
        <time>2022-08-16T07:39:00Z</time>
      </trkpt>
      <trkpt lat="44.48177" lon="6.83121">
        <ele>2055.2</ele>
        <time>2022-08-16T07:39:01Z</time>
      </trkpt>
      <trkpt lat="44.48178" lon="6.83122">
        <ele>2055.4</ele>
        <time>2022-08-16T07:39:02Z</time>
      </trkpt>
      <trkpt lat="44.48179" lon="6.83122">
        <ele>2055.8</ele>
        <time>2022-08-16T07:39:03Z</time>
      </trkpt>
      <trkpt lat="44.4818" lon="6.83123">
        <ele>2056</ele>
        <time>2022-08-16T07:39:04Z</time>
      </trkpt>
      <trkpt lat="44.48181" lon="6.83125">
        <ele>2056</ele>
        <time>2022-08-16T07:39:05Z</time>
      </trkpt>
      <trkpt lat="44.48182" lon="6.83125">
        <ele>2056.4</ele>
        <time>2022-08-16T07:39:06Z</time>
      </trkpt>
      <trkpt lat="44.48183" lon="6.83126">
        <ele>2056.4</ele>
        <time>2022-08-16T07:39:07Z</time>
      </trkpt>
      <trkpt lat="44.48184" lon="6.83127">
        <ele>2056.8</ele>
        <time>2022-08-16T07:39:08Z</time>
      </trkpt>
      <trkpt lat="44.48185" lon="6.83127">
        <ele>2057</ele>
        <time>2022-08-16T07:39:09Z</time>
      </trkpt>
      <trkpt lat="44.48187" lon="6.83128">
        <ele>2057.2</ele>
        <time>2022-08-16T07:39:10Z</time>
      </trkpt>
      <trkpt lat="44.48188" lon="6.8313">
        <ele>2057.4</ele>
        <time>2022-08-16T07:39:11Z</time>
      </trkpt>
      <trkpt lat="44.48188" lon="6.83132">
        <ele>2057.4</ele>
        <time>2022-08-16T07:39:12Z</time>
      </trkpt>
      <trkpt lat="44.48189" lon="6.83133">
        <ele>2057.6</ele>
        <time>2022-08-16T07:39:13Z</time>
      </trkpt>
      <trkpt lat="44.4819" lon="6.83134">
        <ele>2057.8</ele>
        <time>2022-08-16T07:39:14Z</time>
      </trkpt>
      <trkpt lat="44.48191" lon="6.83135">
        <ele>2058</ele>
        <time>2022-08-16T07:39:15Z</time>
      </trkpt>
      <trkpt lat="44.48192" lon="6.83136">
        <ele>2058.2</ele>
        <time>2022-08-16T07:39:16Z</time>
      </trkpt>
      <trkpt lat="44.48193" lon="6.83137">
        <ele>2058.2</ele>
        <time>2022-08-16T07:39:17Z</time>
      </trkpt>
      <trkpt lat="44.48195" lon="6.83139">
        <ele>2058.6</ele>
        <time>2022-08-16T07:39:18Z</time>
      </trkpt>
      <trkpt lat="44.48196" lon="6.8314">
        <ele>2058.6</ele>
        <time>2022-08-16T07:39:19Z</time>
      </trkpt>
      <trkpt lat="44.48197" lon="6.83141">
        <ele>2058.8</ele>
        <time>2022-08-16T07:39:20Z</time>
      </trkpt>
      <trkpt lat="44.48198" lon="6.83142">
        <ele>2059</ele>
        <time>2022-08-16T07:39:21Z</time>
      </trkpt>
      <trkpt lat="44.48198" lon="6.83143">
        <ele>2059.2</ele>
        <time>2022-08-16T07:39:22Z</time>
      </trkpt>
      <trkpt lat="44.48199" lon="6.83144">
        <ele>2059.2</ele>
        <time>2022-08-16T07:39:23Z</time>
      </trkpt>
      <trkpt lat="44.48201" lon="6.83145">
        <ele>2059.4</ele>
        <time>2022-08-16T07:39:24Z</time>
      </trkpt>
      <trkpt lat="44.48202" lon="6.83146">
        <ele>2059.6</ele>
        <time>2022-08-16T07:39:25Z</time>
      </trkpt>
      <trkpt lat="44.48202" lon="6.83147">
        <ele>2059.6</ele>
        <time>2022-08-16T07:39:26Z</time>
      </trkpt>
      <trkpt lat="44.48203" lon="6.83148">
        <ele>2059.8</ele>
        <time>2022-08-16T07:39:27Z</time>
      </trkpt>
      <trkpt lat="44.48204" lon="6.8315">
        <ele>2060</ele>
        <time>2022-08-16T07:39:28Z</time>
      </trkpt>
      <trkpt lat="44.48205" lon="6.83151">
        <ele>2060.2</ele>
        <time>2022-08-16T07:39:29Z</time>
      </trkpt>
      <trkpt lat="44.48206" lon="6.83152">
        <ele>2060.4</ele>
        <time>2022-08-16T07:39:30Z</time>
      </trkpt>
      <trkpt lat="44.48207" lon="6.83154">
        <ele>2060.4</ele>
        <time>2022-08-16T07:39:31Z</time>
      </trkpt>
      <trkpt lat="44.48208" lon="6.83155">
        <ele>2060.6</ele>
        <time>2022-08-16T07:39:32Z</time>
      </trkpt>
      <trkpt lat="44.48208" lon="6.83156">
        <ele>2060.8</ele>
        <time>2022-08-16T07:39:33Z</time>
      </trkpt>
      <trkpt lat="44.48209" lon="6.83157">
        <ele>2060.6</ele>
        <time>2022-08-16T07:39:34Z</time>
      </trkpt>
      <trkpt lat="44.4821" lon="6.83158">
        <ele>2061</ele>
        <time>2022-08-16T07:39:35Z</time>
      </trkpt>
      <trkpt lat="44.48211" lon="6.83159">
        <ele>2061.2</ele>
        <time>2022-08-16T07:39:36Z</time>
      </trkpt>
      <trkpt lat="44.48212" lon="6.8316">
        <ele>2061.4</ele>
        <time>2022-08-16T07:39:37Z</time>
      </trkpt>
      <trkpt lat="44.48213" lon="6.83161">
        <ele>2061.4</ele>
        <time>2022-08-16T07:39:38Z</time>
      </trkpt>
      <trkpt lat="44.48214" lon="6.83162">
        <ele>2061.8</ele>
        <time>2022-08-16T07:39:39Z</time>
      </trkpt>
      <trkpt lat="44.48215" lon="6.83164">
        <ele>2061.8</ele>
        <time>2022-08-16T07:39:40Z</time>
      </trkpt>
      <trkpt lat="44.48215" lon="6.83165">
        <ele>2062</ele>
        <time>2022-08-16T07:39:41Z</time>
      </trkpt>
      <trkpt lat="44.48216" lon="6.83167">
        <ele>2062.2</ele>
        <time>2022-08-16T07:39:42Z</time>
      </trkpt>
      <trkpt lat="44.48217" lon="6.83168">
        <ele>2062.4</ele>
        <time>2022-08-16T07:39:43Z</time>
      </trkpt>
      <trkpt lat="44.48217" lon="6.83169">
        <ele>2062.6</ele>
        <time>2022-08-16T07:39:44Z</time>
      </trkpt>
      <trkpt lat="44.48218" lon="6.83171">
        <ele>2062.6</ele>
        <time>2022-08-16T07:39:45Z</time>
      </trkpt>
      <trkpt lat="44.48218" lon="6.83173">
        <ele>2062.6</ele>
        <time>2022-08-16T07:39:46Z</time>
      </trkpt>
      <trkpt lat="44.48218" lon="6.83175">
        <ele>2063</ele>
        <time>2022-08-16T07:39:47Z</time>
      </trkpt>
      <trkpt lat="44.48218" lon="6.83177">
        <ele>2063.2</ele>
        <time>2022-08-16T07:39:48Z</time>
      </trkpt>
      <trkpt lat="44.48218" lon="6.83179">
        <ele>2063.2</ele>
        <time>2022-08-16T07:39:49Z</time>
      </trkpt>
      <trkpt lat="44.48219" lon="6.83181">
        <ele>2063.4</ele>
        <time>2022-08-16T07:39:50Z</time>
      </trkpt>
      <trkpt lat="44.48219" lon="6.83183">
        <ele>2063.6</ele>
        <time>2022-08-16T07:39:51Z</time>
      </trkpt>
      <trkpt lat="44.48219" lon="6.83185">
        <ele>2064</ele>
        <time>2022-08-16T07:39:52Z</time>
      </trkpt>
      <trkpt lat="44.4822" lon="6.83187">
        <ele>2064</ele>
        <time>2022-08-16T07:39:53Z</time>
      </trkpt>
      <trkpt lat="44.4822" lon="6.83188">
        <ele>2064.2</ele>
        <time>2022-08-16T07:39:54Z</time>
      </trkpt>
      <trkpt lat="44.4822" lon="6.83189">
        <ele>2064.4</ele>
        <time>2022-08-16T07:39:55Z</time>
      </trkpt>
      <trkpt lat="44.4822" lon="6.8319">
        <ele>2064.6</ele>
        <time>2022-08-16T07:39:56Z</time>
      </trkpt>
      <trkpt lat="44.4822" lon="6.83191">
        <ele>2064.6</ele>
        <time>2022-08-16T07:39:57Z</time>
      </trkpt>
      <trkpt lat="44.48221" lon="6.83193">
        <ele>2064.8</ele>
        <time>2022-08-16T07:39:58Z</time>
      </trkpt>
      <trkpt lat="44.48221" lon="6.83194">
        <ele>2065</ele>
        <time>2022-08-16T07:39:59Z</time>
      </trkpt>
      <trkpt lat="44.48221" lon="6.83196">
        <ele>2065.2</ele>
        <time>2022-08-16T07:40:00Z</time>
      </trkpt>
      <trkpt lat="44.48221" lon="6.83197">
        <ele>2065.2</ele>
        <time>2022-08-16T07:40:01Z</time>
      </trkpt>
      <trkpt lat="44.48222" lon="6.83199">
        <ele>2065.4</ele>
        <time>2022-08-16T07:40:02Z</time>
      </trkpt>
      <trkpt lat="44.48222" lon="6.832">
        <ele>2065.4</ele>
        <time>2022-08-16T07:40:03Z</time>
      </trkpt>
      <trkpt lat="44.48223" lon="6.83202">
        <ele>2065.6</ele>
        <time>2022-08-16T07:40:04Z</time>
      </trkpt>
      <trkpt lat="44.48223" lon="6.83204">
        <ele>2065.8</ele>
        <time>2022-08-16T07:40:05Z</time>
      </trkpt>
      <trkpt lat="44.48223" lon="6.83206">
        <ele>2066</ele>
        <time>2022-08-16T07:40:06Z</time>
      </trkpt>
      <trkpt lat="44.48224" lon="6.83207">
        <ele>2066.2</ele>
        <time>2022-08-16T07:40:07Z</time>
      </trkpt>
      <trkpt lat="44.48224" lon="6.83209">
        <ele>2066.2</ele>
        <time>2022-08-16T07:40:08Z</time>
      </trkpt>
      <trkpt lat="44.48225" lon="6.83211">
        <ele>2066.2</ele>
        <time>2022-08-16T07:40:09Z</time>
      </trkpt>
      <trkpt lat="44.48226" lon="6.83212">
        <ele>2066.4</ele>
        <time>2022-08-16T07:40:10Z</time>
      </trkpt>
      <trkpt lat="44.48226" lon="6.83214">
        <ele>2066.4</ele>
        <time>2022-08-16T07:40:11Z</time>
      </trkpt>
      <trkpt lat="44.48227" lon="6.83216">
        <ele>2066.6</ele>
        <time>2022-08-16T07:40:12Z</time>
      </trkpt>
      <trkpt lat="44.48227" lon="6.83217">
        <ele>2066.6</ele>
        <time>2022-08-16T07:40:13Z</time>
      </trkpt>
      <trkpt lat="44.48228" lon="6.83219">
        <ele>2066.8</ele>
        <time>2022-08-16T07:40:14Z</time>
      </trkpt>
      <trkpt lat="44.48228" lon="6.8322">
        <ele>2067</ele>
        <time>2022-08-16T07:40:15Z</time>
      </trkpt>
      <trkpt lat="44.48229" lon="6.83222">
        <ele>2067.2</ele>
        <time>2022-08-16T07:40:16Z</time>
      </trkpt>
      <trkpt lat="44.4823" lon="6.83223">
        <ele>2067.4</ele>
        <time>2022-08-16T07:40:17Z</time>
      </trkpt>
      <trkpt lat="44.4823" lon="6.83225">
        <ele>2067.6</ele>
        <time>2022-08-16T07:40:18Z</time>
      </trkpt>
      <trkpt lat="44.4823" lon="6.83227">
        <ele>2067.8</ele>
        <time>2022-08-16T07:40:19Z</time>
      </trkpt>
      <trkpt lat="44.48231" lon="6.83229">
        <ele>2067.8</ele>
        <time>2022-08-16T07:40:20Z</time>
      </trkpt>
      <trkpt lat="44.48231" lon="6.83231">
        <ele>2068</ele>
        <time>2022-08-16T07:40:21Z</time>
      </trkpt>
      <trkpt lat="44.48231" lon="6.83232">
        <ele>2068.2</ele>
        <time>2022-08-16T07:40:22Z</time>
      </trkpt>
      <trkpt lat="44.48231" lon="6.83234">
        <ele>2068.2</ele>
        <time>2022-08-16T07:40:23Z</time>
      </trkpt>
      <trkpt lat="44.48231" lon="6.83236">
        <ele>2068.4</ele>
        <time>2022-08-16T07:40:24Z</time>
      </trkpt>
      <trkpt lat="44.48232" lon="6.83237">
        <ele>2068.6</ele>
        <time>2022-08-16T07:40:25Z</time>
      </trkpt>
      <trkpt lat="44.48232" lon="6.83239">
        <ele>2068.8</ele>
        <time>2022-08-16T07:40:26Z</time>
      </trkpt>
      <trkpt lat="44.48232" lon="6.83241">
        <ele>2068.8</ele>
        <time>2022-08-16T07:40:27Z</time>
      </trkpt>
      <trkpt lat="44.48232" lon="6.83242">
        <ele>2068.8</ele>
        <time>2022-08-16T07:40:28Z</time>
      </trkpt>
      <trkpt lat="44.48232" lon="6.83244">
        <ele>2069</ele>
        <time>2022-08-16T07:40:29Z</time>
      </trkpt>
      <trkpt lat="44.48232" lon="6.83246">
        <ele>2069.2</ele>
        <time>2022-08-16T07:40:30Z</time>
      </trkpt>
      <trkpt lat="44.48232" lon="6.83247">
        <ele>2069.6</ele>
        <time>2022-08-16T07:40:31Z</time>
      </trkpt>
      <trkpt lat="44.48232" lon="6.83249">
        <ele>2069.6</ele>
        <time>2022-08-16T07:40:32Z</time>
      </trkpt>
      <trkpt lat="44.48232" lon="6.83251">
        <ele>2069.8</ele>
        <time>2022-08-16T07:40:33Z</time>
      </trkpt>
      <trkpt lat="44.48233" lon="6.83253">
        <ele>2070</ele>
        <time>2022-08-16T07:40:34Z</time>
      </trkpt>
      <trkpt lat="44.48233" lon="6.83254">
        <ele>2070.2</ele>
        <time>2022-08-16T07:40:35Z</time>
      </trkpt>
      <trkpt lat="44.48233" lon="6.83256">
        <ele>2070.2</ele>
        <time>2022-08-16T07:40:36Z</time>
      </trkpt>
      <trkpt lat="44.48233" lon="6.83258">
        <ele>2070.4</ele>
        <time>2022-08-16T07:40:37Z</time>
      </trkpt>
      <trkpt lat="44.48234" lon="6.83259">
        <ele>2070.6</ele>
        <time>2022-08-16T07:40:38Z</time>
      </trkpt>
      <trkpt lat="44.48234" lon="6.83261">
        <ele>2070.8</ele>
        <time>2022-08-16T07:40:39Z</time>
      </trkpt>
      <trkpt lat="44.48234" lon="6.83263">
        <ele>2071</ele>
        <time>2022-08-16T07:40:40Z</time>
      </trkpt>
      <trkpt lat="44.48234" lon="6.83264">
        <ele>2071.2</ele>
        <time>2022-08-16T07:40:41Z</time>
      </trkpt>
      <trkpt lat="44.48234" lon="6.83266">
        <ele>2071.2</ele>
        <time>2022-08-16T07:40:42Z</time>
      </trkpt>
      <trkpt lat="44.48234" lon="6.83267">
        <ele>2071.4</ele>
        <time>2022-08-16T07:40:43Z</time>
      </trkpt>
      <trkpt lat="44.48234" lon="6.83269">
        <ele>2071.4</ele>
        <time>2022-08-16T07:40:44Z</time>
      </trkpt>
      <trkpt lat="44.48234" lon="6.83271">
        <ele>2071.8</ele>
        <time>2022-08-16T07:40:45Z</time>
      </trkpt>
      <trkpt lat="44.48234" lon="6.83273">
        <ele>2071.8</ele>
        <time>2022-08-16T07:40:46Z</time>
      </trkpt>
      <trkpt lat="44.48234" lon="6.83274">
        <ele>2072</ele>
        <time>2022-08-16T07:40:47Z</time>
      </trkpt>
      <trkpt lat="44.48234" lon="6.83276">
        <ele>2072.2</ele>
        <time>2022-08-16T07:40:48Z</time>
      </trkpt>
      <trkpt lat="44.48234" lon="6.83278">
        <ele>2072.2</ele>
        <time>2022-08-16T07:40:49Z</time>
      </trkpt>
      <trkpt lat="44.48234" lon="6.83279">
        <ele>2072.4</ele>
        <time>2022-08-16T07:40:50Z</time>
      </trkpt>
      <trkpt lat="44.48234" lon="6.83281">
        <ele>2072.6</ele>
        <time>2022-08-16T07:40:51Z</time>
      </trkpt>
      <trkpt lat="44.48234" lon="6.83282">
        <ele>2072.6</ele>
        <time>2022-08-16T07:40:52Z</time>
      </trkpt>
      <trkpt lat="44.48234" lon="6.83284">
        <ele>2072.8</ele>
        <time>2022-08-16T07:40:53Z</time>
      </trkpt>
      <trkpt lat="44.48234" lon="6.83286">
        <ele>2072.8</ele>
        <time>2022-08-16T07:40:54Z</time>
      </trkpt>
      <trkpt lat="44.48234" lon="6.83287">
        <ele>2073</ele>
        <time>2022-08-16T07:40:55Z</time>
      </trkpt>
      <trkpt lat="44.48235" lon="6.83289">
        <ele>2073</ele>
        <time>2022-08-16T07:40:56Z</time>
      </trkpt>
      <trkpt lat="44.48235" lon="6.8329">
        <ele>2073.2</ele>
        <time>2022-08-16T07:40:57Z</time>
      </trkpt>
      <trkpt lat="44.48235" lon="6.83292">
        <ele>2073.6</ele>
        <time>2022-08-16T07:40:58Z</time>
      </trkpt>
      <trkpt lat="44.48235" lon="6.83294">
        <ele>2073.6</ele>
        <time>2022-08-16T07:40:59Z</time>
      </trkpt>
      <trkpt lat="44.48235" lon="6.83296">
        <ele>2073.8</ele>
        <time>2022-08-16T07:41:00Z</time>
      </trkpt>
      <trkpt lat="44.48235" lon="6.83297">
        <ele>2074</ele>
        <time>2022-08-16T07:41:01Z</time>
      </trkpt>
      <trkpt lat="44.48235" lon="6.83299">
        <ele>2074.2</ele>
        <time>2022-08-16T07:41:02Z</time>
      </trkpt>
      <trkpt lat="44.48235" lon="6.83301">
        <ele>2074.4</ele>
        <time>2022-08-16T07:41:03Z</time>
      </trkpt>
      <trkpt lat="44.48234" lon="6.83302">
        <ele>2074.4</ele>
        <time>2022-08-16T07:41:04Z</time>
      </trkpt>
      <trkpt lat="44.48234" lon="6.83304">
        <ele>2074.6</ele>
        <time>2022-08-16T07:41:05Z</time>
      </trkpt>
      <trkpt lat="44.48234" lon="6.83306">
        <ele>2074.6</ele>
        <time>2022-08-16T07:41:06Z</time>
      </trkpt>
      <trkpt lat="44.48235" lon="6.83308">
        <ele>2074.8</ele>
        <time>2022-08-16T07:41:07Z</time>
      </trkpt>
      <trkpt lat="44.48236" lon="6.83309">
        <ele>2074.8</ele>
        <time>2022-08-16T07:41:08Z</time>
      </trkpt>
      <trkpt lat="44.48237" lon="6.8331">
        <ele>2075.2</ele>
        <time>2022-08-16T07:41:09Z</time>
      </trkpt>
      <trkpt lat="44.48238" lon="6.83311">
        <ele>2075.4</ele>
        <time>2022-08-16T07:41:10Z</time>
      </trkpt>
      <trkpt lat="44.48239" lon="6.8331">
        <ele>2075.6</ele>
        <time>2022-08-16T07:41:11Z</time>
      </trkpt>
      <trkpt lat="44.4824" lon="6.83309">
        <ele>2075.8</ele>
        <time>2022-08-16T07:41:12Z</time>
      </trkpt>
      <trkpt lat="44.4824" lon="6.83308">
        <ele>2076</ele>
        <time>2022-08-16T07:41:13Z</time>
      </trkpt>
      <trkpt lat="44.4824" lon="6.83306">
        <ele>2076.2</ele>
        <time>2022-08-16T07:41:14Z</time>
      </trkpt>
      <trkpt lat="44.4824" lon="6.83304">
        <ele>2076.2</ele>
        <time>2022-08-16T07:41:15Z</time>
      </trkpt>
      <trkpt lat="44.48241" lon="6.83303">
        <ele>2076.4</ele>
        <time>2022-08-16T07:41:16Z</time>
      </trkpt>
      <trkpt lat="44.48241" lon="6.83301">
        <ele>2076.6</ele>
        <time>2022-08-16T07:41:17Z</time>
      </trkpt>
      <trkpt lat="44.48242" lon="6.833">
        <ele>2076.8</ele>
        <time>2022-08-16T07:41:18Z</time>
      </trkpt>
      <trkpt lat="44.48242" lon="6.83298">
        <ele>2076.8</ele>
        <time>2022-08-16T07:41:19Z</time>
      </trkpt>
      <trkpt lat="44.48243" lon="6.83296">
        <ele>2076.8</ele>
        <time>2022-08-16T07:41:20Z</time>
      </trkpt>
      <trkpt lat="44.48243" lon="6.83295">
        <ele>2077.2</ele>
        <time>2022-08-16T07:41:21Z</time>
      </trkpt>
      <trkpt lat="44.48244" lon="6.83294">
        <ele>2077.4</ele>
        <time>2022-08-16T07:41:22Z</time>
      </trkpt>
      <trkpt lat="44.48245" lon="6.83292">
        <ele>2077.4</ele>
        <time>2022-08-16T07:41:23Z</time>
      </trkpt>
      <trkpt lat="44.48245" lon="6.83291">
        <ele>2077.6</ele>
        <time>2022-08-16T07:41:24Z</time>
      </trkpt>
      <trkpt lat="44.48246" lon="6.8329">
        <ele>2077.8</ele>
        <time>2022-08-16T07:41:25Z</time>
      </trkpt>
      <trkpt lat="44.48247" lon="6.83288">
        <ele>2078</ele>
        <time>2022-08-16T07:41:26Z</time>
      </trkpt>
      <trkpt lat="44.48247" lon="6.83287">
        <ele>2078.2</ele>
        <time>2022-08-16T07:41:27Z</time>
      </trkpt>
      <trkpt lat="44.48248" lon="6.83286">
        <ele>2078.2</ele>
        <time>2022-08-16T07:41:28Z</time>
      </trkpt>
      <trkpt lat="44.48249" lon="6.83284">
        <ele>2078.6</ele>
        <time>2022-08-16T07:41:29Z</time>
      </trkpt>
      <trkpt lat="44.4825" lon="6.83283">
        <ele>2078.8</ele>
        <time>2022-08-16T07:41:30Z</time>
      </trkpt>
      <trkpt lat="44.48251" lon="6.83282">
        <ele>2078.8</ele>
        <time>2022-08-16T07:41:31Z</time>
      </trkpt>
      <trkpt lat="44.48251" lon="6.83281">
        <ele>2079</ele>
        <time>2022-08-16T07:41:32Z</time>
      </trkpt>
      <trkpt lat="44.48252" lon="6.8328">
        <ele>2079.2</ele>
        <time>2022-08-16T07:41:33Z</time>
      </trkpt>
      <trkpt lat="44.48253" lon="6.83278">
        <ele>2079.4</ele>
        <time>2022-08-16T07:41:34Z</time>
      </trkpt>
      <trkpt lat="44.48253" lon="6.83277">
        <ele>2079.4</ele>
        <time>2022-08-16T07:41:35Z</time>
      </trkpt>
      <trkpt lat="44.48254" lon="6.83276">
        <ele>2079.6</ele>
        <time>2022-08-16T07:41:36Z</time>
      </trkpt>
      <trkpt lat="44.48255" lon="6.83274">
        <ele>2079.4</ele>
        <time>2022-08-16T07:41:37Z</time>
      </trkpt>
      <trkpt lat="44.48256" lon="6.83273">
        <ele>2079.6</ele>
        <time>2022-08-16T07:41:38Z</time>
      </trkpt>
      <trkpt lat="44.48256" lon="6.83272">
        <ele>2080</ele>
        <time>2022-08-16T07:41:39Z</time>
      </trkpt>
      <trkpt lat="44.48257" lon="6.8327">
        <ele>2080</ele>
        <time>2022-08-16T07:41:40Z</time>
      </trkpt>
      <trkpt lat="44.48258" lon="6.83269">
        <ele>2080.2</ele>
        <time>2022-08-16T07:41:41Z</time>
      </trkpt>
      <trkpt lat="44.48259" lon="6.83267">
        <ele>2080.2</ele>
        <time>2022-08-16T07:41:42Z</time>
      </trkpt>
      <trkpt lat="44.48259" lon="6.83265">
        <ele>2080.6</ele>
        <time>2022-08-16T07:41:43Z</time>
      </trkpt>
      <trkpt lat="44.4826" lon="6.83264">
        <ele>2080.6</ele>
        <time>2022-08-16T07:41:44Z</time>
      </trkpt>
      <trkpt lat="44.4826" lon="6.83262">
        <ele>2080.6</ele>
        <time>2022-08-16T07:41:45Z</time>
      </trkpt>
      <trkpt lat="44.48261" lon="6.83261">
        <ele>2080.8</ele>
        <time>2022-08-16T07:41:46Z</time>
      </trkpt>
      <trkpt lat="44.48261" lon="6.83259">
        <ele>2081</ele>
        <time>2022-08-16T07:41:47Z</time>
      </trkpt>
      <trkpt lat="44.48261" lon="6.83257">
        <ele>2081.2</ele>
        <time>2022-08-16T07:41:48Z</time>
      </trkpt>
      <trkpt lat="44.48262" lon="6.83256">
        <ele>2081.4</ele>
        <time>2022-08-16T07:41:49Z</time>
      </trkpt>
      <trkpt lat="44.48262" lon="6.83254">
        <ele>2081.6</ele>
        <time>2022-08-16T07:41:50Z</time>
      </trkpt>
      <trkpt lat="44.48263" lon="6.83253">
        <ele>2081.8</ele>
        <time>2022-08-16T07:41:51Z</time>
      </trkpt>
      <trkpt lat="44.48263" lon="6.83251">
        <ele>2081.8</ele>
        <time>2022-08-16T07:41:52Z</time>
      </trkpt>
      <trkpt lat="44.48263" lon="6.83249">
        <ele>2082</ele>
        <time>2022-08-16T07:41:53Z</time>
      </trkpt>
      <trkpt lat="44.48264" lon="6.83248">
        <ele>2082.2</ele>
        <time>2022-08-16T07:41:54Z</time>
      </trkpt>
      <trkpt lat="44.48265" lon="6.83247">
        <ele>2082.4</ele>
        <time>2022-08-16T07:41:55Z</time>
      </trkpt>
      <trkpt lat="44.48266" lon="6.83248">
        <ele>2082.6</ele>
        <time>2022-08-16T07:41:56Z</time>
      </trkpt>
      <trkpt lat="44.48267" lon="6.83249">
        <ele>2082.6</ele>
        <time>2022-08-16T07:41:57Z</time>
      </trkpt>
      <trkpt lat="44.48268" lon="6.83251">
        <ele>2082.6</ele>
        <time>2022-08-16T07:41:58Z</time>
      </trkpt>
      <trkpt lat="44.48268" lon="6.83252">
        <ele>2082.8</ele>
        <time>2022-08-16T07:41:59Z</time>
      </trkpt>
      <trkpt lat="44.48268" lon="6.83254">
        <ele>2083</ele>
        <time>2022-08-16T07:42:00Z</time>
      </trkpt>
      <trkpt lat="44.48268" lon="6.83256">
        <ele>2083.2</ele>
        <time>2022-08-16T07:42:01Z</time>
      </trkpt>
      <trkpt lat="44.48268" lon="6.83257">
        <ele>2083.4</ele>
        <time>2022-08-16T07:42:02Z</time>
      </trkpt>
      <trkpt lat="44.48268" lon="6.83259">
        <ele>2083.4</ele>
        <time>2022-08-16T07:42:03Z</time>
      </trkpt>
      <trkpt lat="44.48268" lon="6.8326">
        <ele>2083.6</ele>
        <time>2022-08-16T07:42:04Z</time>
      </trkpt>
      <trkpt lat="44.48268" lon="6.83262">
        <ele>2083.8</ele>
        <time>2022-08-16T07:42:05Z</time>
      </trkpt>
      <trkpt lat="44.48268" lon="6.83263">
        <ele>2083.8</ele>
        <time>2022-08-16T07:42:06Z</time>
      </trkpt>
      <trkpt lat="44.48269" lon="6.83265">
        <ele>2083.8</ele>
        <time>2022-08-16T07:42:07Z</time>
      </trkpt>
      <trkpt lat="44.48269" lon="6.83266">
        <ele>2084.2</ele>
        <time>2022-08-16T07:42:08Z</time>
      </trkpt>
      <trkpt lat="44.48269" lon="6.83268">
        <ele>2084.4</ele>
        <time>2022-08-16T07:42:09Z</time>
      </trkpt>
      <trkpt lat="44.48269" lon="6.83269">
        <ele>2084.8</ele>
        <time>2022-08-16T07:42:10Z</time>
      </trkpt>
      <trkpt lat="44.48268" lon="6.83271">
        <ele>2085</ele>
        <time>2022-08-16T07:42:11Z</time>
      </trkpt>
      <trkpt lat="44.48268" lon="6.83272">
        <ele>2085.2</ele>
        <time>2022-08-16T07:42:12Z</time>
      </trkpt>
      <trkpt lat="44.48268" lon="6.83274">
        <ele>2085.2</ele>
        <time>2022-08-16T07:42:13Z</time>
      </trkpt>
      <trkpt lat="44.48268" lon="6.83276">
        <ele>2085.4</ele>
        <time>2022-08-16T07:42:14Z</time>
      </trkpt>
      <trkpt lat="44.48268" lon="6.83277">
        <ele>2085.4</ele>
        <time>2022-08-16T07:42:15Z</time>
      </trkpt>
      <trkpt lat="44.48268" lon="6.83279">
        <ele>2085.6</ele>
        <time>2022-08-16T07:42:16Z</time>
      </trkpt>
      <trkpt lat="44.48268" lon="6.8328">
        <ele>2085.6</ele>
        <time>2022-08-16T07:42:17Z</time>
      </trkpt>
      <trkpt lat="44.48268" lon="6.83282">
        <ele>2085.8</ele>
        <time>2022-08-16T07:42:18Z</time>
      </trkpt>
      <trkpt lat="44.48268" lon="6.83283">
        <ele>2086</ele>
        <time>2022-08-16T07:42:19Z</time>
      </trkpt>
      <trkpt lat="44.48267" lon="6.83285">
        <ele>2086.2</ele>
        <time>2022-08-16T07:42:20Z</time>
      </trkpt>
      <trkpt lat="44.48267" lon="6.83286">
        <ele>2086.6</ele>
        <time>2022-08-16T07:42:21Z</time>
      </trkpt>
      <trkpt lat="44.48267" lon="6.83288">
        <ele>2086.6</ele>
        <time>2022-08-16T07:42:22Z</time>
      </trkpt>
      <trkpt lat="44.48267" lon="6.83289">
        <ele>2086.6</ele>
        <time>2022-08-16T07:42:23Z</time>
      </trkpt>
      <trkpt lat="44.48267" lon="6.83291">
        <ele>2086.6</ele>
        <time>2022-08-16T07:42:24Z</time>
      </trkpt>
      <trkpt lat="44.48266" lon="6.83293">
        <ele>2086.8</ele>
        <time>2022-08-16T07:42:25Z</time>
      </trkpt>
      <trkpt lat="44.48266" lon="6.83294">
        <ele>2087</ele>
        <time>2022-08-16T07:42:26Z</time>
      </trkpt>
      <trkpt lat="44.48266" lon="6.83296">
        <ele>2087</ele>
        <time>2022-08-16T07:42:27Z</time>
      </trkpt>
      <trkpt lat="44.48266" lon="6.83297">
        <ele>2087.4</ele>
        <time>2022-08-16T07:42:28Z</time>
      </trkpt>
      <trkpt lat="44.48266" lon="6.83299">
        <ele>2087.4</ele>
        <time>2022-08-16T07:42:29Z</time>
      </trkpt>
      <trkpt lat="44.48266" lon="6.83301">
        <ele>2087.6</ele>
        <time>2022-08-16T07:42:30Z</time>
      </trkpt>
      <trkpt lat="44.48266" lon="6.83302">
        <ele>2087.6</ele>
        <time>2022-08-16T07:42:31Z</time>
      </trkpt>
      <trkpt lat="44.48266" lon="6.83304">
        <ele>2087.6</ele>
        <time>2022-08-16T07:42:32Z</time>
      </trkpt>
      <trkpt lat="44.48266" lon="6.83305">
        <ele>2087.6</ele>
        <time>2022-08-16T07:42:33Z</time>
      </trkpt>
      <trkpt lat="44.48266" lon="6.83307">
        <ele>2087.8</ele>
        <time>2022-08-16T07:42:34Z</time>
      </trkpt>
      <trkpt lat="44.48267" lon="6.83309">
        <ele>2088</ele>
        <time>2022-08-16T07:42:35Z</time>
      </trkpt>
      <trkpt lat="44.48267" lon="6.8331">
        <ele>2088.2</ele>
        <time>2022-08-16T07:42:36Z</time>
      </trkpt>
      <trkpt lat="44.48267" lon="6.83312">
        <ele>2088.4</ele>
        <time>2022-08-16T07:42:37Z</time>
      </trkpt>
      <trkpt lat="44.48267" lon="6.83313">
        <ele>2088.6</ele>
        <time>2022-08-16T07:42:38Z</time>
      </trkpt>
      <trkpt lat="44.48267" lon="6.83315">
        <ele>2088.8</ele>
        <time>2022-08-16T07:42:39Z</time>
      </trkpt>
      <trkpt lat="44.48267" lon="6.83317">
        <ele>2089</ele>
        <time>2022-08-16T07:42:40Z</time>
      </trkpt>
      <trkpt lat="44.48267" lon="6.83318">
        <ele>2089.2</ele>
        <time>2022-08-16T07:42:41Z</time>
      </trkpt>
      <trkpt lat="44.48267" lon="6.8332">
        <ele>2089.2</ele>
        <time>2022-08-16T07:42:42Z</time>
      </trkpt>
      <trkpt lat="44.48267" lon="6.83321">
        <ele>2089.2</ele>
        <time>2022-08-16T07:42:43Z</time>
      </trkpt>
      <trkpt lat="44.48268" lon="6.83322">
        <ele>2089.6</ele>
        <time>2022-08-16T07:42:44Z</time>
      </trkpt>
      <trkpt lat="44.48269" lon="6.83323">
        <ele>2089.6</ele>
        <time>2022-08-16T07:42:45Z</time>
      </trkpt>
      <trkpt lat="44.4827" lon="6.83323">
        <ele>2089.6</ele>
        <time>2022-08-16T07:42:46Z</time>
      </trkpt>
      <trkpt lat="44.48271" lon="6.83322">
        <ele>2089.6</ele>
        <time>2022-08-16T07:42:47Z</time>
      </trkpt>
      <trkpt lat="44.48272" lon="6.83321">
        <ele>2089.8</ele>
        <time>2022-08-16T07:42:48Z</time>
      </trkpt>
      <trkpt lat="44.48272" lon="6.83319">
        <ele>2090</ele>
        <time>2022-08-16T07:42:49Z</time>
      </trkpt>
      <trkpt lat="44.48272" lon="6.83317">
        <ele>2090</ele>
        <time>2022-08-16T07:42:50Z</time>
      </trkpt>
      <trkpt lat="44.48273" lon="6.83316">
        <ele>2090.2</ele>
        <time>2022-08-16T07:42:51Z</time>
      </trkpt>
      <trkpt lat="44.48273" lon="6.83314">
        <ele>2090.2</ele>
        <time>2022-08-16T07:42:52Z</time>
      </trkpt>
      <trkpt lat="44.48274" lon="6.83313">
        <ele>2090.4</ele>
        <time>2022-08-16T07:42:53Z</time>
      </trkpt>
      <trkpt lat="44.48274" lon="6.83311">
        <ele>2090.6</ele>
        <time>2022-08-16T07:42:54Z</time>
      </trkpt>
      <trkpt lat="44.48275" lon="6.8331">
        <ele>2090.6</ele>
        <time>2022-08-16T07:42:55Z</time>
      </trkpt>
      <trkpt lat="44.48276" lon="6.83309">
        <ele>2090.8</ele>
        <time>2022-08-16T07:42:56Z</time>
      </trkpt>
      <trkpt lat="44.48276" lon="6.83308">
        <ele>2091.2</ele>
        <time>2022-08-16T07:42:57Z</time>
      </trkpt>
      <trkpt lat="44.48277" lon="6.83306">
        <ele>2091.2</ele>
        <time>2022-08-16T07:42:58Z</time>
      </trkpt>
      <trkpt lat="44.48278" lon="6.83305">
        <ele>2091.4</ele>
        <time>2022-08-16T07:42:59Z</time>
      </trkpt>
      <trkpt lat="44.48278" lon="6.83304">
        <ele>2091.6</ele>
        <time>2022-08-16T07:43:00Z</time>
      </trkpt>
      <trkpt lat="44.48279" lon="6.83302">
        <ele>2092</ele>
        <time>2022-08-16T07:43:01Z</time>
      </trkpt>
      <trkpt lat="44.48279" lon="6.83301">
        <ele>2092</ele>
        <time>2022-08-16T07:43:02Z</time>
      </trkpt>
      <trkpt lat="44.4828" lon="6.83299">
        <ele>2092.4</ele>
        <time>2022-08-16T07:43:03Z</time>
      </trkpt>
      <trkpt lat="44.48281" lon="6.83298">
        <ele>2092.6</ele>
        <time>2022-08-16T07:43:04Z</time>
      </trkpt>
      <trkpt lat="44.48281" lon="6.83296">
        <ele>2092.6</ele>
        <time>2022-08-16T07:43:05Z</time>
      </trkpt>
      <trkpt lat="44.48282" lon="6.83295">
        <ele>2092.8</ele>
        <time>2022-08-16T07:43:06Z</time>
      </trkpt>
      <trkpt lat="44.48282" lon="6.83294">
        <ele>2093</ele>
        <time>2022-08-16T07:43:07Z</time>
      </trkpt>
      <trkpt lat="44.48283" lon="6.83292">
        <ele>2093</ele>
        <time>2022-08-16T07:43:08Z</time>
      </trkpt>
      <trkpt lat="44.48283" lon="6.83291">
        <ele>2093.2</ele>
        <time>2022-08-16T07:43:09Z</time>
      </trkpt>
      <trkpt lat="44.48284" lon="6.8329">
        <ele>2093.6</ele>
        <time>2022-08-16T07:43:10Z</time>
      </trkpt>
      <trkpt lat="44.48285" lon="6.83289">
        <ele>2093.6</ele>
        <time>2022-08-16T07:43:11Z</time>
      </trkpt>
      <trkpt lat="44.48285" lon="6.83288">
        <ele>2093.8</ele>
        <time>2022-08-16T07:43:12Z</time>
      </trkpt>
      <trkpt lat="44.48286" lon="6.83286">
        <ele>2094.2</ele>
        <time>2022-08-16T07:43:13Z</time>
      </trkpt>
      <trkpt lat="44.48287" lon="6.83285">
        <ele>2094.4</ele>
        <time>2022-08-16T07:43:14Z</time>
      </trkpt>
      <trkpt lat="44.48288" lon="6.83284">
        <ele>2094.4</ele>
        <time>2022-08-16T07:43:15Z</time>
      </trkpt>
      <trkpt lat="44.48288" lon="6.83283">
        <ele>2094.8</ele>
        <time>2022-08-16T07:43:16Z</time>
      </trkpt>
      <trkpt lat="44.48289" lon="6.83282">
        <ele>2094.8</ele>
        <time>2022-08-16T07:43:17Z</time>
      </trkpt>
      <trkpt lat="44.4829" lon="6.8328">
        <ele>2094.8</ele>
        <time>2022-08-16T07:43:18Z</time>
      </trkpt>
      <trkpt lat="44.4829" lon="6.83279">
        <ele>2094.8</ele>
        <time>2022-08-16T07:43:19Z</time>
      </trkpt>
      <trkpt lat="44.48291" lon="6.83278">
        <ele>2095</ele>
        <time>2022-08-16T07:43:20Z</time>
      </trkpt>
      <trkpt lat="44.48292" lon="6.83277">
        <ele>2095</ele>
        <time>2022-08-16T07:43:21Z</time>
      </trkpt>
      <trkpt lat="44.48293" lon="6.83276">
        <ele>2095.2</ele>
        <time>2022-08-16T07:43:22Z</time>
      </trkpt>
      <trkpt lat="44.48293" lon="6.83275">
        <ele>2095.4</ele>
        <time>2022-08-16T07:43:23Z</time>
      </trkpt>
      <trkpt lat="44.48294" lon="6.83274">
        <ele>2095.6</ele>
        <time>2022-08-16T07:43:24Z</time>
      </trkpt>
      <trkpt lat="44.48294" lon="6.83272">
        <ele>2095.8</ele>
        <time>2022-08-16T07:43:25Z</time>
      </trkpt>
      <trkpt lat="44.48295" lon="6.83271">
        <ele>2096</ele>
        <time>2022-08-16T07:43:26Z</time>
      </trkpt>
      <trkpt lat="44.48295" lon="6.83269">
        <ele>2096</ele>
        <time>2022-08-16T07:43:27Z</time>
      </trkpt>
      <trkpt lat="44.48296" lon="6.83268">
        <ele>2096.2</ele>
        <time>2022-08-16T07:43:28Z</time>
      </trkpt>
      <trkpt lat="44.48296" lon="6.83266">
        <ele>2096.4</ele>
        <time>2022-08-16T07:43:29Z</time>
      </trkpt>
      <trkpt lat="44.48296" lon="6.83264">
        <ele>2096.4</ele>
        <time>2022-08-16T07:43:30Z</time>
      </trkpt>
      <trkpt lat="44.48297" lon="6.83263">
        <ele>2096.6</ele>
        <time>2022-08-16T07:43:31Z</time>
      </trkpt>
      <trkpt lat="44.48297" lon="6.83261">
        <ele>2096.8</ele>
        <time>2022-08-16T07:43:32Z</time>
      </trkpt>
      <trkpt lat="44.48297" lon="6.83259">
        <ele>2097</ele>
        <time>2022-08-16T07:43:33Z</time>
      </trkpt>
      <trkpt lat="44.48298" lon="6.83258">
        <ele>2097.2</ele>
        <time>2022-08-16T07:43:34Z</time>
      </trkpt>
      <trkpt lat="44.48298" lon="6.83257">
        <ele>2097.2</ele>
        <time>2022-08-16T07:43:35Z</time>
      </trkpt>
      <trkpt lat="44.48299" lon="6.83256">
        <ele>2097.4</ele>
        <time>2022-08-16T07:43:36Z</time>
      </trkpt>
      <trkpt lat="44.48301" lon="6.83255">
        <ele>2097.6</ele>
        <time>2022-08-16T07:43:37Z</time>
      </trkpt>
      <trkpt lat="44.48302" lon="6.83256">
        <ele>2097.8</ele>
        <time>2022-08-16T07:43:38Z</time>
      </trkpt>
      <trkpt lat="44.48303" lon="6.83257">
        <ele>2097.8</ele>
        <time>2022-08-16T07:43:39Z</time>
      </trkpt>
      <trkpt lat="44.48304" lon="6.83258">
        <ele>2098.2</ele>
        <time>2022-08-16T07:43:40Z</time>
      </trkpt>
      <trkpt lat="44.48304" lon="6.83259">
        <ele>2098.4</ele>
        <time>2022-08-16T07:43:41Z</time>
      </trkpt>
      <trkpt lat="44.48305" lon="6.83261">
        <ele>2098.4</ele>
        <time>2022-08-16T07:43:42Z</time>
      </trkpt>
      <trkpt lat="44.48305" lon="6.83263">
        <ele>2098.4</ele>
        <time>2022-08-16T07:43:43Z</time>
      </trkpt>
      <trkpt lat="44.48306" lon="6.83264">
        <ele>2098.6</ele>
        <time>2022-08-16T07:43:44Z</time>
      </trkpt>
      <trkpt lat="44.48306" lon="6.83266">
        <ele>2098.8</ele>
        <time>2022-08-16T07:43:45Z</time>
      </trkpt>
      <trkpt lat="44.48305" lon="6.83268">
        <ele>2098.8</ele>
        <time>2022-08-16T07:43:46Z</time>
      </trkpt>
      <trkpt lat="44.48305" lon="6.83269">
        <ele>2099.2</ele>
        <time>2022-08-16T07:43:47Z</time>
      </trkpt>
      <trkpt lat="44.48305" lon="6.83271">
        <ele>2099.2</ele>
        <time>2022-08-16T07:43:48Z</time>
      </trkpt>
      <trkpt lat="44.48304" lon="6.83271">
        <ele>2099.4</ele>
        <time>2022-08-16T07:43:49Z</time>
      </trkpt>
      <trkpt lat="44.48304" lon="6.83273">
        <ele>2099.6</ele>
        <time>2022-08-16T07:43:50Z</time>
      </trkpt>
      <trkpt lat="44.48304" lon="6.83274">
        <ele>2100</ele>
        <time>2022-08-16T07:43:51Z</time>
      </trkpt>
      <trkpt lat="44.48303" lon="6.83275">
        <ele>2100.2</ele>
        <time>2022-08-16T07:43:52Z</time>
      </trkpt>
      <trkpt lat="44.48303" lon="6.83277">
        <ele>2100.4</ele>
        <time>2022-08-16T07:43:53Z</time>
      </trkpt>
      <trkpt lat="44.48303" lon="6.83279">
        <ele>2100.8</ele>
        <time>2022-08-16T07:43:54Z</time>
      </trkpt>
      <trkpt lat="44.48302" lon="6.8328">
        <ele>2100.8</ele>
        <time>2022-08-16T07:43:55Z</time>
      </trkpt>
      <trkpt lat="44.48302" lon="6.83282">
        <ele>2101</ele>
        <time>2022-08-16T07:43:56Z</time>
      </trkpt>
      <trkpt lat="44.48302" lon="6.83284">
        <ele>2101.2</ele>
        <time>2022-08-16T07:43:57Z</time>
      </trkpt>
      <trkpt lat="44.48302" lon="6.83286">
        <ele>2101.2</ele>
        <time>2022-08-16T07:43:58Z</time>
      </trkpt>
      <trkpt lat="44.48301" lon="6.83287">
        <ele>2101.6</ele>
        <time>2022-08-16T07:43:59Z</time>
      </trkpt>
      <trkpt lat="44.48301" lon="6.83289">
        <ele>2101.6</ele>
        <time>2022-08-16T07:44:00Z</time>
      </trkpt>
      <trkpt lat="44.48301" lon="6.83291">
        <ele>2101.8</ele>
        <time>2022-08-16T07:44:01Z</time>
      </trkpt>
      <trkpt lat="44.48302" lon="6.83292">
        <ele>2101.8</ele>
        <time>2022-08-16T07:44:02Z</time>
      </trkpt>
      <trkpt lat="44.48302" lon="6.83294">
        <ele>2101.8</ele>
        <time>2022-08-16T07:44:03Z</time>
      </trkpt>
      <trkpt lat="44.48302" lon="6.83296">
        <ele>2102</ele>
        <time>2022-08-16T07:44:04Z</time>
      </trkpt>
      <trkpt lat="44.48303" lon="6.83297">
        <ele>2102</ele>
        <time>2022-08-16T07:44:05Z</time>
      </trkpt>
      <trkpt lat="44.48303" lon="6.83299">
        <ele>2102.2</ele>
        <time>2022-08-16T07:44:06Z</time>
      </trkpt>
      <trkpt lat="44.48303" lon="6.83301">
        <ele>2102.2</ele>
        <time>2022-08-16T07:44:07Z</time>
      </trkpt>
      <trkpt lat="44.48304" lon="6.83302">
        <ele>2102.2</ele>
        <time>2022-08-16T07:44:08Z</time>
      </trkpt>
      <trkpt lat="44.48304" lon="6.83304">
        <ele>2102.2</ele>
        <time>2022-08-16T07:44:09Z</time>
      </trkpt>
      <trkpt lat="44.48305" lon="6.83305">
        <ele>2102.2</ele>
        <time>2022-08-16T07:44:10Z</time>
      </trkpt>
      <trkpt lat="44.48305" lon="6.83307">
        <ele>2102.4</ele>
        <time>2022-08-16T07:44:11Z</time>
      </trkpt>
      <trkpt lat="44.48306" lon="6.83308">
        <ele>2102.4</ele>
        <time>2022-08-16T07:44:12Z</time>
      </trkpt>
      <trkpt lat="44.48306" lon="6.8331">
        <ele>2102.4</ele>
        <time>2022-08-16T07:44:13Z</time>
      </trkpt>
      <trkpt lat="44.48307" lon="6.83311">
        <ele>2102.6</ele>
        <time>2022-08-16T07:44:14Z</time>
      </trkpt>
      <trkpt lat="44.48307" lon="6.83313">
        <ele>2102.8</ele>
        <time>2022-08-16T07:44:15Z</time>
      </trkpt>
      <trkpt lat="44.48307" lon="6.83315">
        <ele>2103</ele>
        <time>2022-08-16T07:44:16Z</time>
      </trkpt>
      <trkpt lat="44.48307" lon="6.83316">
        <ele>2102.8</ele>
        <time>2022-08-16T07:44:17Z</time>
      </trkpt>
      <trkpt lat="44.48307" lon="6.83318">
        <ele>2103.2</ele>
        <time>2022-08-16T07:44:18Z</time>
      </trkpt>
      <trkpt lat="44.48307" lon="6.83319">
        <ele>2103.4</ele>
        <time>2022-08-16T07:44:19Z</time>
      </trkpt>
      <trkpt lat="44.48307" lon="6.83321">
        <ele>2103.6</ele>
        <time>2022-08-16T07:44:20Z</time>
      </trkpt>
      <trkpt lat="44.48306" lon="6.83322">
        <ele>2103.6</ele>
        <time>2022-08-16T07:44:21Z</time>
      </trkpt>
      <trkpt lat="44.48306" lon="6.83324">
        <ele>2103.8</ele>
        <time>2022-08-16T07:44:22Z</time>
      </trkpt>
      <trkpt lat="44.48306" lon="6.83325">
        <ele>2104</ele>
        <time>2022-08-16T07:44:23Z</time>
      </trkpt>
      <trkpt lat="44.48305" lon="6.83326">
        <ele>2104.2</ele>
        <time>2022-08-16T07:44:24Z</time>
      </trkpt>
      <trkpt lat="44.48305" lon="6.83327">
        <ele>2104.4</ele>
        <time>2022-08-16T07:44:25Z</time>
      </trkpt>
      <trkpt lat="44.48305" lon="6.83329">
        <ele>2104.6</ele>
        <time>2022-08-16T07:44:26Z</time>
      </trkpt>
      <trkpt lat="44.48304" lon="6.8333">
        <ele>2104.8</ele>
        <time>2022-08-16T07:44:27Z</time>
      </trkpt>
      <trkpt lat="44.48304" lon="6.83331">
        <ele>2104.8</ele>
        <time>2022-08-16T07:44:28Z</time>
      </trkpt>
      <trkpt lat="44.48304" lon="6.83333">
        <ele>2105.2</ele>
        <time>2022-08-16T07:44:29Z</time>
      </trkpt>
      <trkpt lat="44.48304" lon="6.83334">
        <ele>2105.2</ele>
        <time>2022-08-16T07:44:30Z</time>
      </trkpt>
      <trkpt lat="44.48304" lon="6.83335">
        <ele>2105</ele>
        <time>2022-08-16T07:44:31Z</time>
      </trkpt>
      <trkpt lat="44.48304" lon="6.83337">
        <ele>2105.2</ele>
        <time>2022-08-16T07:44:32Z</time>
      </trkpt>
      <trkpt lat="44.48304" lon="6.83338">
        <ele>2105.4</ele>
        <time>2022-08-16T07:44:33Z</time>
      </trkpt>
      <trkpt lat="44.48305" lon="6.8334">
        <ele>2105.2</ele>
        <time>2022-08-16T07:44:34Z</time>
      </trkpt>
      <trkpt lat="44.48305" lon="6.83341">
        <ele>2105.4</ele>
        <time>2022-08-16T07:44:35Z</time>
      </trkpt>
      <trkpt lat="44.48305" lon="6.83343">
        <ele>2105.6</ele>
        <time>2022-08-16T07:44:36Z</time>
      </trkpt>
      <trkpt lat="44.48305" lon="6.83344">
        <ele>2105.8</ele>
        <time>2022-08-16T07:44:37Z</time>
      </trkpt>
      <trkpt lat="44.48306" lon="6.83346">
        <ele>2105.8</ele>
        <time>2022-08-16T07:44:38Z</time>
      </trkpt>
      <trkpt lat="44.48306" lon="6.83348">
        <ele>2106</ele>
        <time>2022-08-16T07:44:39Z</time>
      </trkpt>
      <trkpt lat="44.48306" lon="6.83349">
        <ele>2106</ele>
        <time>2022-08-16T07:44:40Z</time>
      </trkpt>
      <trkpt lat="44.48306" lon="6.83351">
        <ele>2106</ele>
        <time>2022-08-16T07:44:41Z</time>
      </trkpt>
      <trkpt lat="44.48306" lon="6.83352">
        <ele>2106.4</ele>
        <time>2022-08-16T07:44:42Z</time>
      </trkpt>
      <trkpt lat="44.48306" lon="6.83353">
        <ele>2106.6</ele>
        <time>2022-08-16T07:44:43Z</time>
      </trkpt>
      <trkpt lat="44.48306" lon="6.83355">
        <ele>2106.8</ele>
        <time>2022-08-16T07:44:44Z</time>
      </trkpt>
      <trkpt lat="44.48306" lon="6.83356">
        <ele>2107</ele>
        <time>2022-08-16T07:44:45Z</time>
      </trkpt>
      <trkpt lat="44.48306" lon="6.83358">
        <ele>2107</ele>
        <time>2022-08-16T07:44:46Z</time>
      </trkpt>
      <trkpt lat="44.48305" lon="6.83359">
        <ele>2107.2</ele>
        <time>2022-08-16T07:44:47Z</time>
      </trkpt>
      <trkpt lat="44.48305" lon="6.83361">
        <ele>2107.2</ele>
        <time>2022-08-16T07:44:48Z</time>
      </trkpt>
      <trkpt lat="44.48305" lon="6.83362">
        <ele>2107.2</ele>
        <time>2022-08-16T07:44:49Z</time>
      </trkpt>
      <trkpt lat="44.48305" lon="6.83364">
        <ele>2107.4</ele>
        <time>2022-08-16T07:44:50Z</time>
      </trkpt>
      <trkpt lat="44.48306" lon="6.83365">
        <ele>2107.6</ele>
        <time>2022-08-16T07:44:51Z</time>
      </trkpt>
      <trkpt lat="44.48306" lon="6.83367">
        <ele>2107.6</ele>
        <time>2022-08-16T07:44:52Z</time>
      </trkpt>
      <trkpt lat="44.48306" lon="6.83368">
        <ele>2108</ele>
        <time>2022-08-16T07:44:53Z</time>
      </trkpt>
      <trkpt lat="44.48306" lon="6.8337">
        <ele>2108</ele>
        <time>2022-08-16T07:44:54Z</time>
      </trkpt>
      <trkpt lat="44.48306" lon="6.83371">
        <ele>2108</ele>
        <time>2022-08-16T07:44:55Z</time>
      </trkpt>
      <trkpt lat="44.48307" lon="6.83372">
        <ele>2108.2</ele>
        <time>2022-08-16T07:44:56Z</time>
      </trkpt>
      <trkpt lat="44.48307" lon="6.83374">
        <ele>2108.2</ele>
        <time>2022-08-16T07:44:57Z</time>
      </trkpt>
      <trkpt lat="44.48307" lon="6.83375">
        <ele>2108.4</ele>
        <time>2022-08-16T07:44:58Z</time>
      </trkpt>
      <trkpt lat="44.48307" lon="6.83377">
        <ele>2108.4</ele>
        <time>2022-08-16T07:44:59Z</time>
      </trkpt>
      <trkpt lat="44.48308" lon="6.83378">
        <ele>2108.6</ele>
        <time>2022-08-16T07:45:00Z</time>
      </trkpt>
      <trkpt lat="44.48308" lon="6.83379">
        <ele>2108.6</ele>
        <time>2022-08-16T07:45:01Z</time>
      </trkpt>
      <trkpt lat="44.48309" lon="6.83379">
        <ele>2108.8</ele>
        <time>2022-08-16T07:45:02Z</time>
      </trkpt>
      <trkpt lat="44.4831" lon="6.83378">
        <ele>2109</ele>
        <time>2022-08-16T07:45:03Z</time>
      </trkpt>
      <trkpt lat="44.48311" lon="6.83377">
        <ele>2109.2</ele>
        <time>2022-08-16T07:45:04Z</time>
      </trkpt>
      <trkpt lat="44.48312" lon="6.83376">
        <ele>2109.4</ele>
        <time>2022-08-16T07:45:05Z</time>
      </trkpt>
      <trkpt lat="44.48312" lon="6.83375">
        <ele>2109.6</ele>
        <time>2022-08-16T07:45:06Z</time>
      </trkpt>
      <trkpt lat="44.48312" lon="6.83373">
        <ele>2110</ele>
        <time>2022-08-16T07:45:07Z</time>
      </trkpt>
      <trkpt lat="44.48312" lon="6.83372">
        <ele>2110</ele>
        <time>2022-08-16T07:45:08Z</time>
      </trkpt>
      <trkpt lat="44.48313" lon="6.8337">
        <ele>2110.2</ele>
        <time>2022-08-16T07:45:09Z</time>
      </trkpt>
      <trkpt lat="44.48313" lon="6.83368">
        <ele>2110.2</ele>
        <time>2022-08-16T07:45:10Z</time>
      </trkpt>
      <trkpt lat="44.48313" lon="6.83367">
        <ele>2110.4</ele>
        <time>2022-08-16T07:45:11Z</time>
      </trkpt>
      <trkpt lat="44.48313" lon="6.83365">
        <ele>2110.4</ele>
        <time>2022-08-16T07:45:12Z</time>
      </trkpt>
      <trkpt lat="44.48313" lon="6.83363">
        <ele>2110.6</ele>
        <time>2022-08-16T07:45:13Z</time>
      </trkpt>
      <trkpt lat="44.48314" lon="6.83362">
        <ele>2110.6</ele>
        <time>2022-08-16T07:45:14Z</time>
      </trkpt>
      <trkpt lat="44.48314" lon="6.83361">
        <ele>2110.8</ele>
        <time>2022-08-16T07:45:15Z</time>
      </trkpt>
      <trkpt lat="44.48315" lon="6.83359">
        <ele>2111</ele>
        <time>2022-08-16T07:45:16Z</time>
      </trkpt>
      <trkpt lat="44.48315" lon="6.83358">
        <ele>2111</ele>
        <time>2022-08-16T07:45:17Z</time>
      </trkpt>
      <trkpt lat="44.48316" lon="6.83357">
        <ele>2111</ele>
        <time>2022-08-16T07:45:18Z</time>
      </trkpt>
      <trkpt lat="44.48317" lon="6.83356">
        <ele>2111.2</ele>
        <time>2022-08-16T07:45:19Z</time>
      </trkpt>
      <trkpt lat="44.48317" lon="6.83354">
        <ele>2111.4</ele>
        <time>2022-08-16T07:45:20Z</time>
      </trkpt>
      <trkpt lat="44.48318" lon="6.83353">
        <ele>2111.6</ele>
        <time>2022-08-16T07:45:21Z</time>
      </trkpt>
      <trkpt lat="44.48318" lon="6.83352">
        <ele>2111.8</ele>
        <time>2022-08-16T07:45:22Z</time>
      </trkpt>
      <trkpt lat="44.48319" lon="6.83351">
        <ele>2111.8</ele>
        <time>2022-08-16T07:45:23Z</time>
      </trkpt>
      <trkpt lat="44.48319" lon="6.8335">
        <ele>2112.2</ele>
        <time>2022-08-16T07:45:24Z</time>
      </trkpt>
      <trkpt lat="44.4832" lon="6.83348">
        <ele>2112.4</ele>
        <time>2022-08-16T07:45:25Z</time>
      </trkpt>
      <trkpt lat="44.4832" lon="6.83347">
        <ele>2112.6</ele>
        <time>2022-08-16T07:45:26Z</time>
      </trkpt>
      <trkpt lat="44.48321" lon="6.83346">
        <ele>2112.8</ele>
        <time>2022-08-16T07:45:27Z</time>
      </trkpt>
      <trkpt lat="44.48321" lon="6.83344">
        <ele>2112.8</ele>
        <time>2022-08-16T07:45:28Z</time>
      </trkpt>
      <trkpt lat="44.48322" lon="6.83343">
        <ele>2113.2</ele>
        <time>2022-08-16T07:45:29Z</time>
      </trkpt>
      <trkpt lat="44.48323" lon="6.83342">
        <ele>2113.2</ele>
        <time>2022-08-16T07:45:30Z</time>
      </trkpt>
      <trkpt lat="44.48323" lon="6.83341">
        <ele>2113.2</ele>
        <time>2022-08-16T07:45:31Z</time>
      </trkpt>
      <trkpt lat="44.48324" lon="6.8334">
        <ele>2113.4</ele>
        <time>2022-08-16T07:45:32Z</time>
      </trkpt>
      <trkpt lat="44.48324" lon="6.83339">
        <ele>2113.6</ele>
        <time>2022-08-16T07:45:33Z</time>
      </trkpt>
      <trkpt lat="44.48325" lon="6.83338">
        <ele>2113.6</ele>
        <time>2022-08-16T07:45:34Z</time>
      </trkpt>
      <trkpt lat="44.48326" lon="6.83337">
        <ele>2113.6</ele>
        <time>2022-08-16T07:45:35Z</time>
      </trkpt>
      <trkpt lat="44.48327" lon="6.83335">
        <ele>2113.6</ele>
        <time>2022-08-16T07:45:36Z</time>
      </trkpt>
      <trkpt lat="44.48327" lon="6.83334">
        <ele>2114</ele>
        <time>2022-08-16T07:45:37Z</time>
      </trkpt>
      <trkpt lat="44.48328" lon="6.83332">
        <ele>2114.2</ele>
        <time>2022-08-16T07:45:38Z</time>
      </trkpt>
      <trkpt lat="44.48328" lon="6.83331">
        <ele>2114.4</ele>
        <time>2022-08-16T07:45:39Z</time>
      </trkpt>
      <trkpt lat="44.48329" lon="6.8333">
        <ele>2114.4</ele>
        <time>2022-08-16T07:45:40Z</time>
      </trkpt>
      <trkpt lat="44.48329" lon="6.83329">
        <ele>2114.4</ele>
        <time>2022-08-16T07:45:41Z</time>
      </trkpt>
      <trkpt lat="44.48329" lon="6.83327">
        <ele>2114.4</ele>
        <time>2022-08-16T07:45:42Z</time>
      </trkpt>
      <trkpt lat="44.4833" lon="6.83325">
        <ele>2114.6</ele>
        <time>2022-08-16T07:45:43Z</time>
      </trkpt>
      <trkpt lat="44.4833" lon="6.83324">
        <ele>2114.8</ele>
        <time>2022-08-16T07:45:44Z</time>
      </trkpt>
      <trkpt lat="44.48331" lon="6.83323">
        <ele>2115</ele>
        <time>2022-08-16T07:45:45Z</time>
      </trkpt>
      <trkpt lat="44.48331" lon="6.83321">
        <ele>2115.2</ele>
        <time>2022-08-16T07:45:46Z</time>
      </trkpt>
      <trkpt lat="44.48332" lon="6.8332">
        <ele>2115.4</ele>
        <time>2022-08-16T07:45:47Z</time>
      </trkpt>
      <trkpt lat="44.48332" lon="6.83319">
        <ele>2115.8</ele>
        <time>2022-08-16T07:45:48Z</time>
      </trkpt>
      <trkpt lat="44.48332" lon="6.83317">
        <ele>2115.8</ele>
        <time>2022-08-16T07:45:49Z</time>
      </trkpt>
      <trkpt lat="44.48332" lon="6.83316">
        <ele>2116</ele>
        <time>2022-08-16T07:45:50Z</time>
      </trkpt>
      <trkpt lat="44.48333" lon="6.83315">
        <ele>2116.2</ele>
        <time>2022-08-16T07:45:51Z</time>
      </trkpt>
      <trkpt lat="44.48333" lon="6.83313">
        <ele>2116.6</ele>
        <time>2022-08-16T07:45:52Z</time>
      </trkpt>
      <trkpt lat="44.48333" lon="6.83312">
        <ele>2116.8</ele>
        <time>2022-08-16T07:45:53Z</time>
      </trkpt>
      <trkpt lat="44.48334" lon="6.8331">
        <ele>2116.8</ele>
        <time>2022-08-16T07:45:54Z</time>
      </trkpt>
      <trkpt lat="44.48334" lon="6.83309">
        <ele>2117</ele>
        <time>2022-08-16T07:45:55Z</time>
      </trkpt>
      <trkpt lat="44.48334" lon="6.83307">
        <ele>2117</ele>
        <time>2022-08-16T07:45:56Z</time>
      </trkpt>
      <trkpt lat="44.48334" lon="6.83305">
        <ele>2117</ele>
        <time>2022-08-16T07:45:57Z</time>
      </trkpt>
      <trkpt lat="44.48334" lon="6.83303">
        <ele>2117.2</ele>
        <time>2022-08-16T07:45:58Z</time>
      </trkpt>
      <trkpt lat="44.48334" lon="6.83302">
        <ele>2117.4</ele>
        <time>2022-08-16T07:45:59Z</time>
      </trkpt>
      <trkpt lat="44.48334" lon="6.83301">
        <ele>2117.4</ele>
        <time>2022-08-16T07:46:00Z</time>
      </trkpt>
      <trkpt lat="44.48334" lon="6.83299">
        <ele>2117.6</ele>
        <time>2022-08-16T07:46:01Z</time>
      </trkpt>
      <trkpt lat="44.48334" lon="6.83298">
        <ele>2117.6</ele>
        <time>2022-08-16T07:46:02Z</time>
      </trkpt>
      <trkpt lat="44.48334" lon="6.83296">
        <ele>2117.6</ele>
        <time>2022-08-16T07:46:03Z</time>
      </trkpt>
      <trkpt lat="44.48334" lon="6.83294">
        <ele>2118.2</ele>
        <time>2022-08-16T07:46:04Z</time>
      </trkpt>
      <trkpt lat="44.48334" lon="6.83293">
        <ele>2118.2</ele>
        <time>2022-08-16T07:46:05Z</time>
      </trkpt>
      <trkpt lat="44.48335" lon="6.83291">
        <ele>2118.2</ele>
        <time>2022-08-16T07:46:06Z</time>
      </trkpt>
      <trkpt lat="44.48335" lon="6.83289">
        <ele>2118.4</ele>
        <time>2022-08-16T07:46:07Z</time>
      </trkpt>
      <trkpt lat="44.48335" lon="6.83287">
        <ele>2118.4</ele>
        <time>2022-08-16T07:46:08Z</time>
      </trkpt>
      <trkpt lat="44.48334" lon="6.83285">
        <ele>2118.6</ele>
        <time>2022-08-16T07:46:09Z</time>
      </trkpt>
      <trkpt lat="44.48334" lon="6.83283">
        <ele>2118.6</ele>
        <time>2022-08-16T07:46:10Z</time>
      </trkpt>
      <trkpt lat="44.48334" lon="6.83282">
        <ele>2118.8</ele>
        <time>2022-08-16T07:46:11Z</time>
      </trkpt>
      <trkpt lat="44.48335" lon="6.83281">
        <ele>2119</ele>
        <time>2022-08-16T07:46:12Z</time>
      </trkpt>
      <trkpt lat="44.48336" lon="6.8328">
        <ele>2119.2</ele>
        <time>2022-08-16T07:46:13Z</time>
      </trkpt>
      <trkpt lat="44.48337" lon="6.83279">
        <ele>2119.4</ele>
        <time>2022-08-16T07:46:14Z</time>
      </trkpt>
      <trkpt lat="44.48338" lon="6.8328">
        <ele>2119.6</ele>
        <time>2022-08-16T07:46:15Z</time>
      </trkpt>
      <trkpt lat="44.48339" lon="6.83281">
        <ele>2119.6</ele>
        <time>2022-08-16T07:46:16Z</time>
      </trkpt>
      <trkpt lat="44.4834" lon="6.83282">
        <ele>2119.8</ele>
        <time>2022-08-16T07:46:17Z</time>
      </trkpt>
      <trkpt lat="44.4834" lon="6.83283">
        <ele>2119.8</ele>
        <time>2022-08-16T07:46:18Z</time>
      </trkpt>
      <trkpt lat="44.48341" lon="6.83285">
        <ele>2120</ele>
        <time>2022-08-16T07:46:19Z</time>
      </trkpt>
      <trkpt lat="44.48341" lon="6.83287">
        <ele>2120.2</ele>
        <time>2022-08-16T07:46:20Z</time>
      </trkpt>
      <trkpt lat="44.48341" lon="6.83288">
        <ele>2120.2</ele>
        <time>2022-08-16T07:46:21Z</time>
      </trkpt>
      <trkpt lat="44.48341" lon="6.8329">
        <ele>2120.2</ele>
        <time>2022-08-16T07:46:22Z</time>
      </trkpt>
      <trkpt lat="44.48341" lon="6.83291">
        <ele>2120.4</ele>
        <time>2022-08-16T07:46:23Z</time>
      </trkpt>
      <trkpt lat="44.48341" lon="6.83293">
        <ele>2120.6</ele>
        <time>2022-08-16T07:46:24Z</time>
      </trkpt>
      <trkpt lat="44.48342" lon="6.83295">
        <ele>2120.8</ele>
        <time>2022-08-16T07:46:25Z</time>
      </trkpt>
      <trkpt lat="44.48342" lon="6.83296">
        <ele>2120.8</ele>
        <time>2022-08-16T07:46:26Z</time>
      </trkpt>
      <trkpt lat="44.48342" lon="6.83298">
        <ele>2121</ele>
        <time>2022-08-16T07:46:27Z</time>
      </trkpt>
      <trkpt lat="44.48342" lon="6.83299">
        <ele>2121.2</ele>
        <time>2022-08-16T07:46:28Z</time>
      </trkpt>
      <trkpt lat="44.48343" lon="6.83301">
        <ele>2121.2</ele>
        <time>2022-08-16T07:46:29Z</time>
      </trkpt>
      <trkpt lat="44.48343" lon="6.83303">
        <ele>2121.2</ele>
        <time>2022-08-16T07:46:30Z</time>
      </trkpt>
      <trkpt lat="44.48343" lon="6.83304">
        <ele>2121.4</ele>
        <time>2022-08-16T07:46:31Z</time>
      </trkpt>
      <trkpt lat="44.48344" lon="6.83306">
        <ele>2121.6</ele>
        <time>2022-08-16T07:46:32Z</time>
      </trkpt>
      <trkpt lat="44.48344" lon="6.83308">
        <ele>2121.8</ele>
        <time>2022-08-16T07:46:33Z</time>
      </trkpt>
      <trkpt lat="44.48344" lon="6.83309">
        <ele>2121.8</ele>
        <time>2022-08-16T07:46:34Z</time>
      </trkpt>
      <trkpt lat="44.48345" lon="6.83311">
        <ele>2122</ele>
        <time>2022-08-16T07:46:35Z</time>
      </trkpt>
      <trkpt lat="44.48345" lon="6.83313">
        <ele>2122.2</ele>
        <time>2022-08-16T07:46:36Z</time>
      </trkpt>
      <trkpt lat="44.48345" lon="6.83314">
        <ele>2122.4</ele>
        <time>2022-08-16T07:46:37Z</time>
      </trkpt>
      <trkpt lat="44.48345" lon="6.83316">
        <ele>2122.6</ele>
        <time>2022-08-16T07:46:38Z</time>
      </trkpt>
      <trkpt lat="44.48345" lon="6.83318">
        <ele>2122.6</ele>
        <time>2022-08-16T07:46:39Z</time>
      </trkpt>
      <trkpt lat="44.48345" lon="6.83319">
        <ele>2122.8</ele>
        <time>2022-08-16T07:46:40Z</time>
      </trkpt>
      <trkpt lat="44.48345" lon="6.83321">
        <ele>2123</ele>
        <time>2022-08-16T07:46:41Z</time>
      </trkpt>
      <trkpt lat="44.48346" lon="6.83322">
        <ele>2123</ele>
        <time>2022-08-16T07:46:42Z</time>
      </trkpt>
      <trkpt lat="44.48346" lon="6.83324">
        <ele>2123.2</ele>
        <time>2022-08-16T07:46:43Z</time>
      </trkpt>
      <trkpt lat="44.48346" lon="6.83325">
        <ele>2123.4</ele>
        <time>2022-08-16T07:46:44Z</time>
      </trkpt>
      <trkpt lat="44.48346" lon="6.83327">
        <ele>2123.8</ele>
        <time>2022-08-16T07:46:45Z</time>
      </trkpt>
      <trkpt lat="44.48346" lon="6.83329">
        <ele>2124</ele>
        <time>2022-08-16T07:46:46Z</time>
      </trkpt>
      <trkpt lat="44.48346" lon="6.8333">
        <ele>2124</ele>
        <time>2022-08-16T07:46:47Z</time>
      </trkpt>
      <trkpt lat="44.48346" lon="6.83332">
        <ele>2124.2</ele>
        <time>2022-08-16T07:46:48Z</time>
      </trkpt>
      <trkpt lat="44.48346" lon="6.83333">
        <ele>2124.2</ele>
        <time>2022-08-16T07:46:49Z</time>
      </trkpt>
      <trkpt lat="44.48346" lon="6.83335">
        <ele>2124.2</ele>
        <time>2022-08-16T07:46:50Z</time>
      </trkpt>
      <trkpt lat="44.48346" lon="6.83337">
        <ele>2124.6</ele>
        <time>2022-08-16T07:46:51Z</time>
      </trkpt>
      <trkpt lat="44.48346" lon="6.83338">
        <ele>2124.6</ele>
        <time>2022-08-16T07:46:52Z</time>
      </trkpt>
      <trkpt lat="44.48347" lon="6.8334">
        <ele>2124.6</ele>
        <time>2022-08-16T07:46:53Z</time>
      </trkpt>
      <trkpt lat="44.48347" lon="6.83341">
        <ele>2124.8</ele>
        <time>2022-08-16T07:46:54Z</time>
      </trkpt>
      <trkpt lat="44.48347" lon="6.83343">
        <ele>2125</ele>
        <time>2022-08-16T07:46:55Z</time>
      </trkpt>
      <trkpt lat="44.48347" lon="6.83344">
        <ele>2125</ele>
        <time>2022-08-16T07:46:56Z</time>
      </trkpt>
      <trkpt lat="44.48347" lon="6.83346">
        <ele>2125.2</ele>
        <time>2022-08-16T07:46:57Z</time>
      </trkpt>
      <trkpt lat="44.48347" lon="6.83348">
        <ele>2125.6</ele>
        <time>2022-08-16T07:46:58Z</time>
      </trkpt>
      <trkpt lat="44.48347" lon="6.83349">
        <ele>2125.6</ele>
        <time>2022-08-16T07:46:59Z</time>
      </trkpt>
      <trkpt lat="44.48347" lon="6.83351">
        <ele>2125.8</ele>
        <time>2022-08-16T07:47:00Z</time>
      </trkpt>
      <trkpt lat="44.48347" lon="6.83352">
        <ele>2126</ele>
        <time>2022-08-16T07:47:01Z</time>
      </trkpt>
      <trkpt lat="44.48347" lon="6.83354">
        <ele>2126.2</ele>
        <time>2022-08-16T07:47:02Z</time>
      </trkpt>
      <trkpt lat="44.48347" lon="6.83356">
        <ele>2126.2</ele>
        <time>2022-08-16T07:47:03Z</time>
      </trkpt>
      <trkpt lat="44.48347" lon="6.83357">
        <ele>2126.4</ele>
        <time>2022-08-16T07:47:04Z</time>
      </trkpt>
      <trkpt lat="44.48347" lon="6.83359">
        <ele>2126.4</ele>
        <time>2022-08-16T07:47:05Z</time>
      </trkpt>
      <trkpt lat="44.48347" lon="6.8336">
        <ele>2126.4</ele>
        <time>2022-08-16T07:47:06Z</time>
      </trkpt>
      <trkpt lat="44.48347" lon="6.83362">
        <ele>2126.4</ele>
        <time>2022-08-16T07:47:07Z</time>
      </trkpt>
      <trkpt lat="44.48347" lon="6.83364">
        <ele>2126.6</ele>
        <time>2022-08-16T07:47:08Z</time>
      </trkpt>
      <trkpt lat="44.48347" lon="6.83365">
        <ele>2126.8</ele>
        <time>2022-08-16T07:47:09Z</time>
      </trkpt>
      <trkpt lat="44.48348" lon="6.83367">
        <ele>2127</ele>
        <time>2022-08-16T07:47:10Z</time>
      </trkpt>
      <trkpt lat="44.48348" lon="6.83368">
        <ele>2127</ele>
        <time>2022-08-16T07:47:11Z</time>
      </trkpt>
      <trkpt lat="44.48348" lon="6.8337">
        <ele>2127.2</ele>
        <time>2022-08-16T07:47:12Z</time>
      </trkpt>
      <trkpt lat="44.48348" lon="6.83372">
        <ele>2127.6</ele>
        <time>2022-08-16T07:47:13Z</time>
      </trkpt>
      <trkpt lat="44.48348" lon="6.83374">
        <ele>2127.6</ele>
        <time>2022-08-16T07:47:14Z</time>
      </trkpt>
      <trkpt lat="44.48348" lon="6.83375">
        <ele>2127.6</ele>
        <time>2022-08-16T07:47:15Z</time>
      </trkpt>
      <trkpt lat="44.48348" lon="6.83377">
        <ele>2127.8</ele>
        <time>2022-08-16T07:47:16Z</time>
      </trkpt>
      <trkpt lat="44.48348" lon="6.83378">
        <ele>2127.8</ele>
        <time>2022-08-16T07:47:17Z</time>
      </trkpt>
      <trkpt lat="44.48348" lon="6.8338">
        <ele>2128</ele>
        <time>2022-08-16T07:47:18Z</time>
      </trkpt>
      <trkpt lat="44.48348" lon="6.83381">
        <ele>2128</ele>
        <time>2022-08-16T07:47:19Z</time>
      </trkpt>
      <trkpt lat="44.48348" lon="6.83383">
        <ele>2128</ele>
        <time>2022-08-16T07:47:20Z</time>
      </trkpt>
      <trkpt lat="44.48348" lon="6.83384">
        <ele>2128.2</ele>
        <time>2022-08-16T07:47:21Z</time>
      </trkpt>
      <trkpt lat="44.48348" lon="6.83386">
        <ele>2128.2</ele>
        <time>2022-08-16T07:47:22Z</time>
      </trkpt>
      <trkpt lat="44.48348" lon="6.83387">
        <ele>2128.6</ele>
        <time>2022-08-16T07:47:23Z</time>
      </trkpt>
      <trkpt lat="44.48348" lon="6.83389">
        <ele>2128.6</ele>
        <time>2022-08-16T07:47:24Z</time>
      </trkpt>
      <trkpt lat="44.48348" lon="6.8339">
        <ele>2128.8</ele>
        <time>2022-08-16T07:47:25Z</time>
      </trkpt>
      <trkpt lat="44.48348" lon="6.83392">
        <ele>2129.2</ele>
        <time>2022-08-16T07:47:26Z</time>
      </trkpt>
      <trkpt lat="44.48348" lon="6.83393">
        <ele>2129.4</ele>
        <time>2022-08-16T07:47:27Z</time>
      </trkpt>
      <trkpt lat="44.48348" lon="6.83395">
        <ele>2129.6</ele>
        <time>2022-08-16T07:47:28Z</time>
      </trkpt>
      <trkpt lat="44.48348" lon="6.83397">
        <ele>2129.8</ele>
        <time>2022-08-16T07:47:29Z</time>
      </trkpt>
      <trkpt lat="44.48348" lon="6.83399">
        <ele>2130</ele>
        <time>2022-08-16T07:47:30Z</time>
      </trkpt>
      <trkpt lat="44.48349" lon="6.834">
        <ele>2130.2</ele>
        <time>2022-08-16T07:47:31Z</time>
      </trkpt>
      <trkpt lat="44.48349" lon="6.83402">
        <ele>2130.2</ele>
        <time>2022-08-16T07:47:32Z</time>
      </trkpt>
      <trkpt lat="44.48349" lon="6.83403">
        <ele>2130.2</ele>
        <time>2022-08-16T07:47:33Z</time>
      </trkpt>
      <trkpt lat="44.4835" lon="6.83404">
        <ele>2130.4</ele>
        <time>2022-08-16T07:47:34Z</time>
      </trkpt>
      <trkpt lat="44.4835" lon="6.83406">
        <ele>2130.6</ele>
        <time>2022-08-16T07:47:35Z</time>
      </trkpt>
      <trkpt lat="44.48351" lon="6.83407">
        <ele>2130.6</ele>
        <time>2022-08-16T07:47:36Z</time>
      </trkpt>
      <trkpt lat="44.48351" lon="6.83409">
        <ele>2131</ele>
        <time>2022-08-16T07:47:37Z</time>
      </trkpt>
      <trkpt lat="44.48352" lon="6.8341">
        <ele>2130.8</ele>
        <time>2022-08-16T07:47:38Z</time>
      </trkpt>
      <trkpt lat="44.48352" lon="6.83411">
        <ele>2130.8</ele>
        <time>2022-08-16T07:47:39Z</time>
      </trkpt>
      <trkpt lat="44.48353" lon="6.83413">
        <ele>2130.8</ele>
        <time>2022-08-16T07:47:40Z</time>
      </trkpt>
      <trkpt lat="44.48353" lon="6.83414">
        <ele>2131</ele>
        <time>2022-08-16T07:47:41Z</time>
      </trkpt>
      <trkpt lat="44.48354" lon="6.83416">
        <ele>2131.2</ele>
        <time>2022-08-16T07:47:42Z</time>
      </trkpt>
      <trkpt lat="44.48354" lon="6.83417">
        <ele>2131.4</ele>
        <time>2022-08-16T07:47:43Z</time>
      </trkpt>
      <trkpt lat="44.48355" lon="6.83419">
        <ele>2131.6</ele>
        <time>2022-08-16T07:47:44Z</time>
      </trkpt>
      <trkpt lat="44.48356" lon="6.8342">
        <ele>2131.8</ele>
        <time>2022-08-16T07:47:45Z</time>
      </trkpt>
      <trkpt lat="44.48356" lon="6.83422">
        <ele>2132.2</ele>
        <time>2022-08-16T07:47:46Z</time>
      </trkpt>
      <trkpt lat="44.48357" lon="6.83423">
        <ele>2132.4</ele>
        <time>2022-08-16T07:47:47Z</time>
      </trkpt>
      <trkpt lat="44.48358" lon="6.83424">
        <ele>2132.4</ele>
        <time>2022-08-16T07:47:48Z</time>
      </trkpt>
      <trkpt lat="44.48358" lon="6.83425">
        <ele>2132.6</ele>
        <time>2022-08-16T07:47:49Z</time>
      </trkpt>
      <trkpt lat="44.48359" lon="6.83426">
        <ele>2132.6</ele>
        <time>2022-08-16T07:47:50Z</time>
      </trkpt>
      <trkpt lat="44.4836" lon="6.83428">
        <ele>2132.6</ele>
        <time>2022-08-16T07:47:51Z</time>
      </trkpt>
      <trkpt lat="44.48361" lon="6.83429">
        <ele>2132.8</ele>
        <time>2022-08-16T07:47:52Z</time>
      </trkpt>
      <trkpt lat="44.48361" lon="6.8343">
        <ele>2133</ele>
        <time>2022-08-16T07:47:53Z</time>
      </trkpt>
      <trkpt lat="44.48362" lon="6.83431">
        <ele>2133</ele>
        <time>2022-08-16T07:47:54Z</time>
      </trkpt>
      <trkpt lat="44.48363" lon="6.83432">
        <ele>2133.2</ele>
        <time>2022-08-16T07:47:55Z</time>
      </trkpt>
      <trkpt lat="44.48364" lon="6.83433">
        <ele>2133.4</ele>
        <time>2022-08-16T07:47:56Z</time>
      </trkpt>
      <trkpt lat="44.48365" lon="6.83434">
        <ele>2133.6</ele>
        <time>2022-08-16T07:47:57Z</time>
      </trkpt>
      <trkpt lat="44.48366" lon="6.83435">
        <ele>2133.8</ele>
        <time>2022-08-16T07:47:58Z</time>
      </trkpt>
      <trkpt lat="44.48366" lon="6.83436">
        <ele>2133.8</ele>
        <time>2022-08-16T07:47:59Z</time>
      </trkpt>
      <trkpt lat="44.48367" lon="6.83437">
        <ele>2134</ele>
        <time>2022-08-16T07:48:00Z</time>
      </trkpt>
      <trkpt lat="44.48368" lon="6.83438">
        <ele>2134.2</ele>
        <time>2022-08-16T07:48:01Z</time>
      </trkpt>
      <trkpt lat="44.48369" lon="6.83439">
        <ele>2134.2</ele>
        <time>2022-08-16T07:48:02Z</time>
      </trkpt>
      <trkpt lat="44.4837" lon="6.8344">
        <ele>2134.2</ele>
        <time>2022-08-16T07:48:03Z</time>
      </trkpt>
      <trkpt lat="44.48371" lon="6.83441">
        <ele>2134.2</ele>
        <time>2022-08-16T07:48:04Z</time>
      </trkpt>
      <trkpt lat="44.48372" lon="6.83441">
        <ele>2134.4</ele>
        <time>2022-08-16T07:48:05Z</time>
      </trkpt>
      <trkpt lat="44.48373" lon="6.83442">
        <ele>2134.6</ele>
        <time>2022-08-16T07:48:06Z</time>
      </trkpt>
      <trkpt lat="44.48374" lon="6.83443">
        <ele>2134.8</ele>
        <time>2022-08-16T07:48:07Z</time>
      </trkpt>
      <trkpt lat="44.48375" lon="6.83444">
        <ele>2135</ele>
        <time>2022-08-16T07:48:08Z</time>
      </trkpt>
      <trkpt lat="44.48376" lon="6.83445">
        <ele>2135.2</ele>
        <time>2022-08-16T07:48:09Z</time>
      </trkpt>
      <trkpt lat="44.48377" lon="6.83446">
        <ele>2135.2</ele>
        <time>2022-08-16T07:48:10Z</time>
      </trkpt>
      <trkpt lat="44.48377" lon="6.83447">
        <ele>2135.4</ele>
        <time>2022-08-16T07:48:11Z</time>
      </trkpt>
      <trkpt lat="44.48378" lon="6.83448">
        <ele>2135.6</ele>
        <time>2022-08-16T07:48:12Z</time>
      </trkpt>
      <trkpt lat="44.48379" lon="6.83449">
        <ele>2135.8</ele>
        <time>2022-08-16T07:48:13Z</time>
      </trkpt>
      <trkpt lat="44.4838" lon="6.8345">
        <ele>2135.8</ele>
        <time>2022-08-16T07:48:14Z</time>
      </trkpt>
      <trkpt lat="44.48381" lon="6.83451">
        <ele>2136</ele>
        <time>2022-08-16T07:48:15Z</time>
      </trkpt>
      <trkpt lat="44.48382" lon="6.83451">
        <ele>2136.2</ele>
        <time>2022-08-16T07:48:16Z</time>
      </trkpt>
      <trkpt lat="44.48383" lon="6.83452">
        <ele>2136.4</ele>
        <time>2022-08-16T07:48:17Z</time>
      </trkpt>
      <trkpt lat="44.48384" lon="6.83453">
        <ele>2136.6</ele>
        <time>2022-08-16T07:48:18Z</time>
      </trkpt>
      <trkpt lat="44.48385" lon="6.83454">
        <ele>2136.8</ele>
        <time>2022-08-16T07:48:19Z</time>
      </trkpt>
      <trkpt lat="44.48386" lon="6.83456">
        <ele>2136.8</ele>
        <time>2022-08-16T07:48:20Z</time>
      </trkpt>
      <trkpt lat="44.48386" lon="6.83457">
        <ele>2137.2</ele>
        <time>2022-08-16T07:48:21Z</time>
      </trkpt>
      <trkpt lat="44.48387" lon="6.83458">
        <ele>2137</ele>
        <time>2022-08-16T07:48:22Z</time>
      </trkpt>
      <trkpt lat="44.48388" lon="6.8346">
        <ele>2137.2</ele>
        <time>2022-08-16T07:48:23Z</time>
      </trkpt>
      <trkpt lat="44.48388" lon="6.83461">
        <ele>2137.4</ele>
        <time>2022-08-16T07:48:24Z</time>
      </trkpt>
      <trkpt lat="44.48389" lon="6.83462">
        <ele>2137.6</ele>
        <time>2022-08-16T07:48:25Z</time>
      </trkpt>
      <trkpt lat="44.4839" lon="6.83464">
        <ele>2137.8</ele>
        <time>2022-08-16T07:48:26Z</time>
      </trkpt>
      <trkpt lat="44.4839" lon="6.83465">
        <ele>2138</ele>
        <time>2022-08-16T07:48:27Z</time>
      </trkpt>
      <trkpt lat="44.48391" lon="6.83466">
        <ele>2138</ele>
        <time>2022-08-16T07:48:28Z</time>
      </trkpt>
      <trkpt lat="44.48391" lon="6.83467">
        <ele>2138</ele>
        <time>2022-08-16T07:48:29Z</time>
      </trkpt>
      <trkpt lat="44.48392" lon="6.83469">
        <ele>2138.2</ele>
        <time>2022-08-16T07:48:30Z</time>
      </trkpt>
      <trkpt lat="44.48392" lon="6.8347">
        <ele>2138.2</ele>
        <time>2022-08-16T07:48:31Z</time>
      </trkpt>
      <trkpt lat="44.48393" lon="6.83471">
        <ele>2138.4</ele>
        <time>2022-08-16T07:48:32Z</time>
      </trkpt>
      <trkpt lat="44.48393" lon="6.83473">
        <ele>2138.6</ele>
        <time>2022-08-16T07:48:33Z</time>
      </trkpt>
      <trkpt lat="44.48394" lon="6.83474">
        <ele>2138.8</ele>
        <time>2022-08-16T07:48:34Z</time>
      </trkpt>
      <trkpt lat="44.48394" lon="6.83476">
        <ele>2139</ele>
        <time>2022-08-16T07:48:35Z</time>
      </trkpt>
      <trkpt lat="44.48395" lon="6.83477">
        <ele>2139.2</ele>
        <time>2022-08-16T07:48:36Z</time>
      </trkpt>
      <trkpt lat="44.48396" lon="6.83478">
        <ele>2139</ele>
        <time>2022-08-16T07:48:37Z</time>
      </trkpt>
      <trkpt lat="44.48397" lon="6.83478">
        <ele>2139.2</ele>
        <time>2022-08-16T07:48:38Z</time>
      </trkpt>
      <trkpt lat="44.48398" lon="6.83478">
        <ele>2139.2</ele>
        <time>2022-08-16T07:48:39Z</time>
      </trkpt>
      <trkpt lat="44.48398" lon="6.83477">
        <ele>2139.4</ele>
        <time>2022-08-16T07:48:40Z</time>
      </trkpt>
      <trkpt lat="44.48399" lon="6.83475">
        <ele>2139.6</ele>
        <time>2022-08-16T07:48:41Z</time>
      </trkpt>
      <trkpt lat="44.48399" lon="6.83473">
        <ele>2139.8</ele>
        <time>2022-08-16T07:48:42Z</time>
      </trkpt>
      <trkpt lat="44.48399" lon="6.83471">
        <ele>2140</ele>
        <time>2022-08-16T07:48:43Z</time>
      </trkpt>
      <trkpt lat="44.48399" lon="6.8347">
        <ele>2140.4</ele>
        <time>2022-08-16T07:48:44Z</time>
      </trkpt>
      <trkpt lat="44.48398" lon="6.83468">
        <ele>2140.6</ele>
        <time>2022-08-16T07:48:45Z</time>
      </trkpt>
      <trkpt lat="44.48398" lon="6.83467">
        <ele>2140.6</ele>
        <time>2022-08-16T07:48:46Z</time>
      </trkpt>
      <trkpt lat="44.48397" lon="6.83465">
        <ele>2141</ele>
        <time>2022-08-16T07:48:47Z</time>
      </trkpt>
      <trkpt lat="44.48397" lon="6.83463">
        <ele>2141</ele>
        <time>2022-08-16T07:48:48Z</time>
      </trkpt>
      <trkpt lat="44.48397" lon="6.83462">
        <ele>2141</ele>
        <time>2022-08-16T07:48:49Z</time>
      </trkpt>
      <trkpt lat="44.48397" lon="6.8346">
        <ele>2141.2</ele>
        <time>2022-08-16T07:48:50Z</time>
      </trkpt>
      <trkpt lat="44.48397" lon="6.83459">
        <ele>2141.2</ele>
        <time>2022-08-16T07:48:51Z</time>
      </trkpt>
      <trkpt lat="44.48396" lon="6.83457">
        <ele>2141.2</ele>
        <time>2022-08-16T07:48:52Z</time>
      </trkpt>
      <trkpt lat="44.48396" lon="6.83456">
        <ele>2141.6</ele>
        <time>2022-08-16T07:48:53Z</time>
      </trkpt>
      <trkpt lat="44.48396" lon="6.83454">
        <ele>2141.6</ele>
        <time>2022-08-16T07:48:54Z</time>
      </trkpt>
      <trkpt lat="44.48395" lon="6.83452">
        <ele>2141.8</ele>
        <time>2022-08-16T07:48:55Z</time>
      </trkpt>
      <trkpt lat="44.48395" lon="6.8345">
        <ele>2142.2</ele>
        <time>2022-08-16T07:48:56Z</time>
      </trkpt>
      <trkpt lat="44.48395" lon="6.83449">
        <ele>2142.2</ele>
        <time>2022-08-16T07:48:57Z</time>
      </trkpt>
      <trkpt lat="44.48394" lon="6.83448">
        <ele>2142.6</ele>
        <time>2022-08-16T07:48:58Z</time>
      </trkpt>
      <trkpt lat="44.48394" lon="6.83447">
        <ele>2142.8</ele>
        <time>2022-08-16T07:48:59Z</time>
      </trkpt>
      <trkpt lat="44.48394" lon="6.83446">
        <ele>2143</ele>
        <time>2022-08-16T07:49:00Z</time>
      </trkpt>
      <trkpt lat="44.48393" lon="6.83444">
        <ele>2143.2</ele>
        <time>2022-08-16T07:49:01Z</time>
      </trkpt>
      <trkpt lat="44.48393" lon="6.83443">
        <ele>2143.4</ele>
        <time>2022-08-16T07:49:02Z</time>
      </trkpt>
      <trkpt lat="44.48393" lon="6.83441">
        <ele>2143.4</ele>
        <time>2022-08-16T07:49:03Z</time>
      </trkpt>
      <trkpt lat="44.48392" lon="6.8344">
        <ele>2143.6</ele>
        <time>2022-08-16T07:49:04Z</time>
      </trkpt>
      <trkpt lat="44.48392" lon="6.83438">
        <ele>2143.6</ele>
        <time>2022-08-16T07:49:05Z</time>
      </trkpt>
      <trkpt lat="44.48391" lon="6.83437">
        <ele>2144</ele>
        <time>2022-08-16T07:49:06Z</time>
      </trkpt>
      <trkpt lat="44.4839" lon="6.83436">
        <ele>2144</ele>
        <time>2022-08-16T07:49:07Z</time>
      </trkpt>
      <trkpt lat="44.4839" lon="6.83434">
        <ele>2144.2</ele>
        <time>2022-08-16T07:49:08Z</time>
      </trkpt>
      <trkpt lat="44.48389" lon="6.83433">
        <ele>2144.4</ele>
        <time>2022-08-16T07:49:09Z</time>
      </trkpt>
      <trkpt lat="44.48388" lon="6.83431">
        <ele>2144.4</ele>
        <time>2022-08-16T07:49:10Z</time>
      </trkpt>
      <trkpt lat="44.48388" lon="6.8343">
        <ele>2144.4</ele>
        <time>2022-08-16T07:49:11Z</time>
      </trkpt>
      <trkpt lat="44.48387" lon="6.83429">
        <ele>2144.8</ele>
        <time>2022-08-16T07:49:12Z</time>
      </trkpt>
      <trkpt lat="44.48386" lon="6.83428">
        <ele>2144.8</ele>
        <time>2022-08-16T07:49:13Z</time>
      </trkpt>
      <trkpt lat="44.48385" lon="6.83427">
        <ele>2145</ele>
        <time>2022-08-16T07:49:14Z</time>
      </trkpt>
      <trkpt lat="44.48385" lon="6.83425">
        <ele>2145.2</ele>
        <time>2022-08-16T07:49:15Z</time>
      </trkpt>
      <trkpt lat="44.48384" lon="6.83424">
        <ele>2145.2</ele>
        <time>2022-08-16T07:49:16Z</time>
      </trkpt>
      <trkpt lat="44.48384" lon="6.83422">
        <ele>2145.2</ele>
        <time>2022-08-16T07:49:17Z</time>
      </trkpt>
      <trkpt lat="44.48384" lon="6.83421">
        <ele>2145.4</ele>
        <time>2022-08-16T07:49:18Z</time>
      </trkpt>
      <trkpt lat="44.48385" lon="6.83419">
        <ele>2145.6</ele>
        <time>2022-08-16T07:49:19Z</time>
      </trkpt>
      <trkpt lat="44.48386" lon="6.83418">
        <ele>2145.8</ele>
        <time>2022-08-16T07:49:20Z</time>
      </trkpt>
      <trkpt lat="44.48387" lon="6.83418">
        <ele>2146</ele>
        <time>2022-08-16T07:49:21Z</time>
      </trkpt>
      <trkpt lat="44.48388" lon="6.83418">
        <ele>2146.2</ele>
        <time>2022-08-16T07:49:22Z</time>
      </trkpt>
      <trkpt lat="44.48389" lon="6.83418">
        <ele>2146.2</ele>
        <time>2022-08-16T07:49:23Z</time>
      </trkpt>
      <trkpt lat="44.4839" lon="6.8342">
        <ele>2146.2</ele>
        <time>2022-08-16T07:49:24Z</time>
      </trkpt>
      <trkpt lat="44.4839" lon="6.83421">
        <ele>2146.4</ele>
        <time>2022-08-16T07:49:25Z</time>
      </trkpt>
      <trkpt lat="44.48391" lon="6.83422">
        <ele>2146.4</ele>
        <time>2022-08-16T07:49:26Z</time>
      </trkpt>
      <trkpt lat="44.48392" lon="6.83424">
        <ele>2146.4</ele>
        <time>2022-08-16T07:49:27Z</time>
      </trkpt>
      <trkpt lat="44.48393" lon="6.83425">
        <ele>2146.4</ele>
        <time>2022-08-16T07:49:28Z</time>
      </trkpt>
      <trkpt lat="44.48394" lon="6.83426">
        <ele>2146.6</ele>
        <time>2022-08-16T07:49:29Z</time>
      </trkpt>
      <trkpt lat="44.48395" lon="6.83428">
        <ele>2146.6</ele>
        <time>2022-08-16T07:49:30Z</time>
      </trkpt>
      <trkpt lat="44.48396" lon="6.83429">
        <ele>2146.8</ele>
        <time>2022-08-16T07:49:31Z</time>
      </trkpt>
      <trkpt lat="44.48397" lon="6.8343">
        <ele>2147</ele>
        <time>2022-08-16T07:49:32Z</time>
      </trkpt>
      <trkpt lat="44.48398" lon="6.83431">
        <ele>2147.2</ele>
        <time>2022-08-16T07:49:33Z</time>
      </trkpt>
      <trkpt lat="44.48399" lon="6.83432">
        <ele>2147.4</ele>
        <time>2022-08-16T07:49:34Z</time>
      </trkpt>
      <trkpt lat="44.484" lon="6.83433">
        <ele>2147.4</ele>
        <time>2022-08-16T07:49:35Z</time>
      </trkpt>
      <trkpt lat="44.48401" lon="6.83435">
        <ele>2147.6</ele>
        <time>2022-08-16T07:49:36Z</time>
      </trkpt>
      <trkpt lat="44.48402" lon="6.83436">
        <ele>2147.6</ele>
        <time>2022-08-16T07:49:37Z</time>
      </trkpt>
      <trkpt lat="44.48403" lon="6.83437">
        <ele>2147.6</ele>
        <time>2022-08-16T07:49:38Z</time>
      </trkpt>
      <trkpt lat="44.48404" lon="6.83438">
        <ele>2147.8</ele>
        <time>2022-08-16T07:49:39Z</time>
      </trkpt>
      <trkpt lat="44.48404" lon="6.8344">
        <ele>2148.2</ele>
        <time>2022-08-16T07:49:40Z</time>
      </trkpt>
      <trkpt lat="44.48405" lon="6.83441">
        <ele>2148.2</ele>
        <time>2022-08-16T07:49:41Z</time>
      </trkpt>
      <trkpt lat="44.48406" lon="6.83442">
        <ele>2148.2</ele>
        <time>2022-08-16T07:49:42Z</time>
      </trkpt>
      <trkpt lat="44.48407" lon="6.83443">
        <ele>2148.4</ele>
        <time>2022-08-16T07:49:43Z</time>
      </trkpt>
      <trkpt lat="44.48408" lon="6.83444">
        <ele>2148.6</ele>
        <time>2022-08-16T07:49:44Z</time>
      </trkpt>
      <trkpt lat="44.48409" lon="6.83446">
        <ele>2148.6</ele>
        <time>2022-08-16T07:49:45Z</time>
      </trkpt>
      <trkpt lat="44.4841" lon="6.83447">
        <ele>2148.8</ele>
        <time>2022-08-16T07:49:46Z</time>
      </trkpt>
      <trkpt lat="44.4841" lon="6.83448">
        <ele>2148.8</ele>
        <time>2022-08-16T07:49:47Z</time>
      </trkpt>
      <trkpt lat="44.48411" lon="6.83449">
        <ele>2149</ele>
        <time>2022-08-16T07:49:48Z</time>
      </trkpt>
      <trkpt lat="44.48412" lon="6.83451">
        <ele>2149.2</ele>
        <time>2022-08-16T07:49:49Z</time>
      </trkpt>
      <trkpt lat="44.48413" lon="6.83452">
        <ele>2149.4</ele>
        <time>2022-08-16T07:49:50Z</time>
      </trkpt>
      <trkpt lat="44.48414" lon="6.83454">
        <ele>2149.6</ele>
        <time>2022-08-16T07:49:51Z</time>
      </trkpt>
      <trkpt lat="44.48414" lon="6.83455">
        <ele>2149.8</ele>
        <time>2022-08-16T07:49:52Z</time>
      </trkpt>
      <trkpt lat="44.48415" lon="6.83456">
        <ele>2150.2</ele>
        <time>2022-08-16T07:49:53Z</time>
      </trkpt>
      <trkpt lat="44.48416" lon="6.83458">
        <ele>2150.2</ele>
        <time>2022-08-16T07:49:54Z</time>
      </trkpt>
      <trkpt lat="44.48417" lon="6.83459">
        <ele>2150.4</ele>
        <time>2022-08-16T07:49:55Z</time>
      </trkpt>
      <trkpt lat="44.48418" lon="6.8346">
        <ele>2150.6</ele>
        <time>2022-08-16T07:49:56Z</time>
      </trkpt>
      <trkpt lat="44.48418" lon="6.83462">
        <ele>2150.6</ele>
        <time>2022-08-16T07:49:57Z</time>
      </trkpt>
      <trkpt lat="44.48419" lon="6.83463">
        <ele>2150.8</ele>
        <time>2022-08-16T07:49:58Z</time>
      </trkpt>
      <trkpt lat="44.4842" lon="6.83464">
        <ele>2150.8</ele>
        <time>2022-08-16T07:49:59Z</time>
      </trkpt>
      <trkpt lat="44.48421" lon="6.83466">
        <ele>2151.2</ele>
        <time>2022-08-16T07:50:00Z</time>
      </trkpt>
      <trkpt lat="44.48422" lon="6.83467">
        <ele>2151.4</ele>
        <time>2022-08-16T07:50:01Z</time>
      </trkpt>
      <trkpt lat="44.48422" lon="6.83469">
        <ele>2151.4</ele>
        <time>2022-08-16T07:50:02Z</time>
      </trkpt>
      <trkpt lat="44.48423" lon="6.8347">
        <ele>2151.6</ele>
        <time>2022-08-16T07:50:03Z</time>
      </trkpt>
      <trkpt lat="44.48424" lon="6.83471">
        <ele>2151.6</ele>
        <time>2022-08-16T07:50:04Z</time>
      </trkpt>
      <trkpt lat="44.48425" lon="6.83472">
        <ele>2151.6</ele>
        <time>2022-08-16T07:50:05Z</time>
      </trkpt>
      <trkpt lat="44.48425" lon="6.83474">
        <ele>2151.8</ele>
        <time>2022-08-16T07:50:06Z</time>
      </trkpt>
      <trkpt lat="44.48426" lon="6.83475">
        <ele>2152</ele>
        <time>2022-08-16T07:50:07Z</time>
      </trkpt>
      <trkpt lat="44.48427" lon="6.83477">
        <ele>2152.2</ele>
        <time>2022-08-16T07:50:08Z</time>
      </trkpt>
      <trkpt lat="44.48428" lon="6.83478">
        <ele>2152.4</ele>
        <time>2022-08-16T07:50:09Z</time>
      </trkpt>
      <trkpt lat="44.48429" lon="6.83479">
        <ele>2152.6</ele>
        <time>2022-08-16T07:50:10Z</time>
      </trkpt>
      <trkpt lat="44.48429" lon="6.83481">
        <ele>2152.8</ele>
        <time>2022-08-16T07:50:11Z</time>
      </trkpt>
      <trkpt lat="44.4843" lon="6.83482">
        <ele>2153</ele>
        <time>2022-08-16T07:50:12Z</time>
      </trkpt>
      <trkpt lat="44.48431" lon="6.83483">
        <ele>2153</ele>
        <time>2022-08-16T07:50:13Z</time>
      </trkpt>
      <trkpt lat="44.48431" lon="6.83485">
        <ele>2153</ele>
        <time>2022-08-16T07:50:14Z</time>
      </trkpt>
      <trkpt lat="44.48432" lon="6.83486">
        <ele>2153.4</ele>
        <time>2022-08-16T07:50:15Z</time>
      </trkpt>
      <trkpt lat="44.48433" lon="6.83487">
        <ele>2153.6</ele>
        <time>2022-08-16T07:50:16Z</time>
      </trkpt>
      <trkpt lat="44.48434" lon="6.83489">
        <ele>2153.6</ele>
        <time>2022-08-16T07:50:17Z</time>
      </trkpt>
      <trkpt lat="44.48435" lon="6.8349">
        <ele>2153.8</ele>
        <time>2022-08-16T07:50:18Z</time>
      </trkpt>
      <trkpt lat="44.48435" lon="6.83492">
        <ele>2154</ele>
        <time>2022-08-16T07:50:19Z</time>
      </trkpt>
      <trkpt lat="44.48436" lon="6.83493">
        <ele>2154.2</ele>
        <time>2022-08-16T07:50:20Z</time>
      </trkpt>
      <trkpt lat="44.48437" lon="6.83495">
        <ele>2154.4</ele>
        <time>2022-08-16T07:50:21Z</time>
      </trkpt>
      <trkpt lat="44.48438" lon="6.83496">
        <ele>2154.4</ele>
        <time>2022-08-16T07:50:22Z</time>
      </trkpt>
      <trkpt lat="44.48438" lon="6.83497">
        <ele>2154.6</ele>
        <time>2022-08-16T07:50:23Z</time>
      </trkpt>
      <trkpt lat="44.48439" lon="6.83499">
        <ele>2154.8</ele>
        <time>2022-08-16T07:50:24Z</time>
      </trkpt>
      <trkpt lat="44.4844" lon="6.835">
        <ele>2154.8</ele>
        <time>2022-08-16T07:50:25Z</time>
      </trkpt>
      <trkpt lat="44.4844" lon="6.83501">
        <ele>2155</ele>
        <time>2022-08-16T07:50:26Z</time>
      </trkpt>
      <trkpt lat="44.48441" lon="6.83503">
        <ele>2155.2</ele>
        <time>2022-08-16T07:50:27Z</time>
      </trkpt>
      <trkpt lat="44.48442" lon="6.83504">
        <ele>2155.2</ele>
        <time>2022-08-16T07:50:28Z</time>
      </trkpt>
      <trkpt lat="44.48442" lon="6.83506">
        <ele>2155.4</ele>
        <time>2022-08-16T07:50:29Z</time>
      </trkpt>
      <trkpt lat="44.48443" lon="6.83507">
        <ele>2155.6</ele>
        <time>2022-08-16T07:50:30Z</time>
      </trkpt>
      <trkpt lat="44.48444" lon="6.83509">
        <ele>2155.8</ele>
        <time>2022-08-16T07:50:31Z</time>
      </trkpt>
      <trkpt lat="44.48444" lon="6.8351">
        <ele>2155.8</ele>
        <time>2022-08-16T07:50:32Z</time>
      </trkpt>
      <trkpt lat="44.48445" lon="6.83512">
        <ele>2155.8</ele>
        <time>2022-08-16T07:50:33Z</time>
      </trkpt>
      <trkpt lat="44.48446" lon="6.83514">
        <ele>2156</ele>
        <time>2022-08-16T07:50:34Z</time>
      </trkpt>
      <trkpt lat="44.48446" lon="6.83515">
        <ele>2156.2</ele>
        <time>2022-08-16T07:50:35Z</time>
      </trkpt>
      <trkpt lat="44.48446" lon="6.83517">
        <ele>2156.2</ele>
        <time>2022-08-16T07:50:36Z</time>
      </trkpt>
      <trkpt lat="44.48447" lon="6.83518">
        <ele>2156.4</ele>
        <time>2022-08-16T07:50:37Z</time>
      </trkpt>
      <trkpt lat="44.48447" lon="6.8352">
        <ele>2156.8</ele>
        <time>2022-08-16T07:50:38Z</time>
      </trkpt>
      <trkpt lat="44.48448" lon="6.83522">
        <ele>2157</ele>
        <time>2022-08-16T07:50:39Z</time>
      </trkpt>
      <trkpt lat="44.48448" lon="6.83523">
        <ele>2157.2</ele>
        <time>2022-08-16T07:50:40Z</time>
      </trkpt>
      <trkpt lat="44.48449" lon="6.83525">
        <ele>2157.4</ele>
        <time>2022-08-16T07:50:41Z</time>
      </trkpt>
      <trkpt lat="44.48449" lon="6.83527">
        <ele>2157.6</ele>
        <time>2022-08-16T07:50:42Z</time>
      </trkpt>
      <trkpt lat="44.48449" lon="6.83529">
        <ele>2157.6</ele>
        <time>2022-08-16T07:50:43Z</time>
      </trkpt>
      <trkpt lat="44.48449" lon="6.8353">
        <ele>2157.8</ele>
        <time>2022-08-16T07:50:44Z</time>
      </trkpt>
      <trkpt lat="44.48449" lon="6.83532">
        <ele>2158</ele>
        <time>2022-08-16T07:50:45Z</time>
      </trkpt>
      <trkpt lat="44.48449" lon="6.83534">
        <ele>2158.2</ele>
        <time>2022-08-16T07:50:46Z</time>
      </trkpt>
      <trkpt lat="44.4845" lon="6.83535">
        <ele>2158.4</ele>
        <time>2022-08-16T07:50:47Z</time>
      </trkpt>
      <trkpt lat="44.4845" lon="6.83537">
        <ele>2158.8</ele>
        <time>2022-08-16T07:50:48Z</time>
      </trkpt>
      <trkpt lat="44.4845" lon="6.83539">
        <ele>2159</ele>
        <time>2022-08-16T07:50:49Z</time>
      </trkpt>
      <trkpt lat="44.4845" lon="6.8354">
        <ele>2159.2</ele>
        <time>2022-08-16T07:50:50Z</time>
      </trkpt>
      <trkpt lat="44.48451" lon="6.83542">
        <ele>2159.6</ele>
        <time>2022-08-16T07:50:51Z</time>
      </trkpt>
      <trkpt lat="44.48451" lon="6.83544">
        <ele>2159.6</ele>
        <time>2022-08-16T07:50:52Z</time>
      </trkpt>
      <trkpt lat="44.48452" lon="6.83545">
        <ele>2159.8</ele>
        <time>2022-08-16T07:50:53Z</time>
      </trkpt>
      <trkpt lat="44.48452" lon="6.83547">
        <ele>2160</ele>
        <time>2022-08-16T07:50:54Z</time>
      </trkpt>
      <trkpt lat="44.48452" lon="6.83549">
        <ele>2160.2</ele>
        <time>2022-08-16T07:50:55Z</time>
      </trkpt>
      <trkpt lat="44.48453" lon="6.8355">
        <ele>2160.4</ele>
        <time>2022-08-16T07:50:56Z</time>
      </trkpt>
      <trkpt lat="44.48453" lon="6.83552">
        <ele>2160.4</ele>
        <time>2022-08-16T07:50:57Z</time>
      </trkpt>
      <trkpt lat="44.48454" lon="6.83553">
        <ele>2160.6</ele>
        <time>2022-08-16T07:50:58Z</time>
      </trkpt>
      <trkpt lat="44.48454" lon="6.83555">
        <ele>2160.6</ele>
        <time>2022-08-16T07:50:59Z</time>
      </trkpt>
      <trkpt lat="44.48455" lon="6.83556">
        <ele>2160.6</ele>
        <time>2022-08-16T07:51:00Z</time>
      </trkpt>
      <trkpt lat="44.48455" lon="6.83558">
        <ele>2160.8</ele>
        <time>2022-08-16T07:51:01Z</time>
      </trkpt>
      <trkpt lat="44.48456" lon="6.8356">
        <ele>2161.2</ele>
        <time>2022-08-16T07:51:02Z</time>
      </trkpt>
      <trkpt lat="44.48456" lon="6.83561">
        <ele>2161.2</ele>
        <time>2022-08-16T07:51:03Z</time>
      </trkpt>
      <trkpt lat="44.48457" lon="6.83563">
        <ele>2161.4</ele>
        <time>2022-08-16T07:51:04Z</time>
      </trkpt>
      <trkpt lat="44.48457" lon="6.83564">
        <ele>2161.4</ele>
        <time>2022-08-16T07:51:05Z</time>
      </trkpt>
      <trkpt lat="44.48458" lon="6.83565">
        <ele>2161.6</ele>
        <time>2022-08-16T07:51:06Z</time>
      </trkpt>
      <trkpt lat="44.48459" lon="6.83566">
        <ele>2161.6</ele>
        <time>2022-08-16T07:51:07Z</time>
      </trkpt>
      <trkpt lat="44.4846" lon="6.83568">
        <ele>2161.8</ele>
        <time>2022-08-16T07:51:08Z</time>
      </trkpt>
      <trkpt lat="44.48461" lon="6.83569">
        <ele>2162</ele>
        <time>2022-08-16T07:51:09Z</time>
      </trkpt>
      <trkpt lat="44.48461" lon="6.83571">
        <ele>2162.6</ele>
        <time>2022-08-16T07:51:10Z</time>
      </trkpt>
      <trkpt lat="44.48462" lon="6.83572">
        <ele>2162.8</ele>
        <time>2022-08-16T07:51:11Z</time>
      </trkpt>
      <trkpt lat="44.48463" lon="6.83573">
        <ele>2163.2</ele>
        <time>2022-08-16T07:51:12Z</time>
      </trkpt>
      <trkpt lat="44.48464" lon="6.83575">
        <ele>2163.2</ele>
        <time>2022-08-16T07:51:13Z</time>
      </trkpt>
      <trkpt lat="44.48464" lon="6.83576">
        <ele>2163.4</ele>
        <time>2022-08-16T07:51:14Z</time>
      </trkpt>
      <trkpt lat="44.48465" lon="6.83577">
        <ele>2163.4</ele>
        <time>2022-08-16T07:51:15Z</time>
      </trkpt>
      <trkpt lat="44.48466" lon="6.83579">
        <ele>2163.4</ele>
        <time>2022-08-16T07:51:16Z</time>
      </trkpt>
      <trkpt lat="44.48467" lon="6.8358">
        <ele>2163.6</ele>
        <time>2022-08-16T07:51:17Z</time>
      </trkpt>
      <trkpt lat="44.48468" lon="6.83582">
        <ele>2163.6</ele>
        <time>2022-08-16T07:51:18Z</time>
      </trkpt>
      <trkpt lat="44.48469" lon="6.83583">
        <ele>2163.8</ele>
        <time>2022-08-16T07:51:19Z</time>
      </trkpt>
      <trkpt lat="44.48469" lon="6.83585">
        <ele>2163.8</ele>
        <time>2022-08-16T07:51:20Z</time>
      </trkpt>
      <trkpt lat="44.4847" lon="6.83586">
        <ele>2164</ele>
        <time>2022-08-16T07:51:21Z</time>
      </trkpt>
      <trkpt lat="44.48471" lon="6.83587">
        <ele>2164.2</ele>
        <time>2022-08-16T07:51:22Z</time>
      </trkpt>
      <trkpt lat="44.48472" lon="6.83589">
        <ele>2164.6</ele>
        <time>2022-08-16T07:51:23Z</time>
      </trkpt>
      <trkpt lat="44.48472" lon="6.8359">
        <ele>2165</ele>
        <time>2022-08-16T07:51:24Z</time>
      </trkpt>
      <trkpt lat="44.48473" lon="6.83591">
        <ele>2165.2</ele>
        <time>2022-08-16T07:51:25Z</time>
      </trkpt>
      <trkpt lat="44.48474" lon="6.83593">
        <ele>2165.4</ele>
        <time>2022-08-16T07:51:26Z</time>
      </trkpt>
      <trkpt lat="44.48475" lon="6.83594">
        <ele>2165.4</ele>
        <time>2022-08-16T07:51:27Z</time>
      </trkpt>
      <trkpt lat="44.48476" lon="6.83596">
        <ele>2165.4</ele>
        <time>2022-08-16T07:51:28Z</time>
      </trkpt>
      <trkpt lat="44.48477" lon="6.83597">
        <ele>2165.6</ele>
        <time>2022-08-16T07:51:29Z</time>
      </trkpt>
      <trkpt lat="44.48477" lon="6.83598">
        <ele>2165.8</ele>
        <time>2022-08-16T07:51:30Z</time>
      </trkpt>
      <trkpt lat="44.48478" lon="6.83599">
        <ele>2166</ele>
        <time>2022-08-16T07:51:31Z</time>
      </trkpt>
      <trkpt lat="44.48479" lon="6.83601">
        <ele>2166.2</ele>
        <time>2022-08-16T07:51:32Z</time>
      </trkpt>
      <trkpt lat="44.4848" lon="6.83602">
        <ele>2166.4</ele>
        <time>2022-08-16T07:51:33Z</time>
      </trkpt>
      <trkpt lat="44.48481" lon="6.83603">
        <ele>2166.6</ele>
        <time>2022-08-16T07:51:34Z</time>
      </trkpt>
      <trkpt lat="44.48482" lon="6.83604">
        <ele>2166.8</ele>
        <time>2022-08-16T07:51:35Z</time>
      </trkpt>
      <trkpt lat="44.48482" lon="6.83606">
        <ele>2166.8</ele>
        <time>2022-08-16T07:51:36Z</time>
      </trkpt>
      <trkpt lat="44.48483" lon="6.83607">
        <ele>2167</ele>
        <time>2022-08-16T07:51:37Z</time>
      </trkpt>
      <trkpt lat="44.48483" lon="6.83608">
        <ele>2167</ele>
        <time>2022-08-16T07:51:38Z</time>
      </trkpt>
      <trkpt lat="44.48484" lon="6.83608">
        <ele>2167</ele>
        <time>2022-08-16T07:51:39Z</time>
      </trkpt>
      <trkpt lat="44.48484" lon="6.83608">
        <ele>2167.6</ele>
        <time>2022-08-16T07:51:43Z</time>
      </trkpt>
      <trkpt lat="44.48484" lon="6.83608">
        <ele>2168.4</ele>
        <time>2022-08-16T07:51:48Z</time>
      </trkpt>
      <trkpt lat="44.48484" lon="6.83608">
        <ele>2168.6</ele>
        <time>2022-08-16T07:51:56Z</time>
      </trkpt>
      <trkpt lat="44.48484" lon="6.83609">
        <ele>2168.6</ele>
        <time>2022-08-16T07:52:09Z</time>
      </trkpt>
      <trkpt lat="44.48484" lon="6.8361">
        <ele>2168.6</ele>
        <time>2022-08-16T07:52:10Z</time>
      </trkpt>
      <trkpt lat="44.48485" lon="6.83611">
        <ele>2168.4</ele>
        <time>2022-08-16T07:52:11Z</time>
      </trkpt>
      <trkpt lat="44.48486" lon="6.83612">
        <ele>2168.6</ele>
        <time>2022-08-16T07:52:12Z</time>
      </trkpt>
      <trkpt lat="44.48487" lon="6.83615">
        <ele>2168.6</ele>
        <time>2022-08-16T07:52:14Z</time>
      </trkpt>
      <trkpt lat="44.48491" lon="6.8362">
        <ele>2168.6</ele>
        <time>2022-08-16T07:52:18Z</time>
      </trkpt>
      <trkpt lat="44.48492" lon="6.83623">
        <ele>2168.6</ele>
        <time>2022-08-16T07:52:20Z</time>
      </trkpt>
      <trkpt lat="44.48493" lon="6.83624">
        <ele>2168.6</ele>
        <time>2022-08-16T07:52:21Z</time>
      </trkpt>
      <trkpt lat="44.48494" lon="6.83625">
        <ele>2168.8</ele>
        <time>2022-08-16T07:52:22Z</time>
      </trkpt>
      <trkpt lat="44.48495" lon="6.83627">
        <ele>2169</ele>
        <time>2022-08-16T07:52:23Z</time>
      </trkpt>
      <trkpt lat="44.48496" lon="6.83629">
        <ele>2169.2</ele>
        <time>2022-08-16T07:52:25Z</time>
      </trkpt>
      <trkpt lat="44.48498" lon="6.83632">
        <ele>2169.4</ele>
        <time>2022-08-16T07:52:27Z</time>
      </trkpt>
      <trkpt lat="44.48499" lon="6.83633">
        <ele>2169.4</ele>
        <time>2022-08-16T07:52:28Z</time>
      </trkpt>
      <trkpt lat="44.485" lon="6.83634">
        <ele>2169.8</ele>
        <time>2022-08-16T07:52:29Z</time>
      </trkpt>
      <trkpt lat="44.485" lon="6.83635">
        <ele>2169.8</ele>
        <time>2022-08-16T07:52:30Z</time>
      </trkpt>
      <trkpt lat="44.48501" lon="6.83636">
        <ele>2170</ele>
        <time>2022-08-16T07:52:31Z</time>
      </trkpt>
      <trkpt lat="44.48502" lon="6.83637">
        <ele>2170.2</ele>
        <time>2022-08-16T07:52:32Z</time>
      </trkpt>
      <trkpt lat="44.48503" lon="6.83637">
        <ele>2170.2</ele>
        <time>2022-08-16T07:52:33Z</time>
      </trkpt>
      <trkpt lat="44.48504" lon="6.83638">
        <ele>2170.4</ele>
        <time>2022-08-16T07:52:34Z</time>
      </trkpt>
      <trkpt lat="44.48504" lon="6.83639">
        <ele>2170.4</ele>
        <time>2022-08-16T07:52:35Z</time>
      </trkpt>
      <trkpt lat="44.48505" lon="6.8364">
        <ele>2170.6</ele>
        <time>2022-08-16T07:52:36Z</time>
      </trkpt>
      <trkpt lat="44.48506" lon="6.83641">
        <ele>2170.6</ele>
        <time>2022-08-16T07:52:37Z</time>
      </trkpt>
      <trkpt lat="44.48506" lon="6.83643">
        <ele>2170.6</ele>
        <time>2022-08-16T07:52:38Z</time>
      </trkpt>
      <trkpt lat="44.48507" lon="6.83644">
        <ele>2170.8</ele>
        <time>2022-08-16T07:52:39Z</time>
      </trkpt>
      <trkpt lat="44.48508" lon="6.83645">
        <ele>2171</ele>
        <time>2022-08-16T07:52:40Z</time>
      </trkpt>
      <trkpt lat="44.48509" lon="6.83647">
        <ele>2171.4</ele>
        <time>2022-08-16T07:52:41Z</time>
      </trkpt>
      <trkpt lat="44.48509" lon="6.83648">
        <ele>2171.6</ele>
        <time>2022-08-16T07:52:42Z</time>
      </trkpt>
      <trkpt lat="44.4851" lon="6.8365">
        <ele>2171.8</ele>
        <time>2022-08-16T07:52:43Z</time>
      </trkpt>
      <trkpt lat="44.4851" lon="6.83651">
        <ele>2171.8</ele>
        <time>2022-08-16T07:52:44Z</time>
      </trkpt>
      <trkpt lat="44.4851" lon="6.83653">
        <ele>2172.2</ele>
        <time>2022-08-16T07:52:45Z</time>
      </trkpt>
      <trkpt lat="44.48511" lon="6.83654">
        <ele>2172.2</ele>
        <time>2022-08-16T07:52:46Z</time>
      </trkpt>
      <trkpt lat="44.48511" lon="6.83656">
        <ele>2172.4</ele>
        <time>2022-08-16T07:52:47Z</time>
      </trkpt>
      <trkpt lat="44.48512" lon="6.83657">
        <ele>2172.6</ele>
        <time>2022-08-16T07:52:48Z</time>
      </trkpt>
      <trkpt lat="44.48512" lon="6.83659">
        <ele>2172.8</ele>
        <time>2022-08-16T07:52:49Z</time>
      </trkpt>
      <trkpt lat="44.48513" lon="6.8366">
        <ele>2172.8</ele>
        <time>2022-08-16T07:52:50Z</time>
      </trkpt>
      <trkpt lat="44.48513" lon="6.83662">
        <ele>2172.8</ele>
        <time>2022-08-16T07:52:51Z</time>
      </trkpt>
      <trkpt lat="44.48514" lon="6.83664">
        <ele>2173</ele>
        <time>2022-08-16T07:52:52Z</time>
      </trkpt>
      <trkpt lat="44.48514" lon="6.83665">
        <ele>2173.4</ele>
        <time>2022-08-16T07:52:53Z</time>
      </trkpt>
      <trkpt lat="44.48514" lon="6.83667">
        <ele>2173.6</ele>
        <time>2022-08-16T07:52:54Z</time>
      </trkpt>
      <trkpt lat="44.48514" lon="6.83668">
        <ele>2173.6</ele>
        <time>2022-08-16T07:52:55Z</time>
      </trkpt>
      <trkpt lat="44.48515" lon="6.8367">
        <ele>2174</ele>
        <time>2022-08-16T07:52:56Z</time>
      </trkpt>
      <trkpt lat="44.48515" lon="6.83672">
        <ele>2174</ele>
        <time>2022-08-16T07:52:57Z</time>
      </trkpt>
      <trkpt lat="44.48515" lon="6.83674">
        <ele>2174</ele>
        <time>2022-08-16T07:52:58Z</time>
      </trkpt>
      <trkpt lat="44.48516" lon="6.83675">
        <ele>2174.2</ele>
        <time>2022-08-16T07:52:59Z</time>
      </trkpt>
      <trkpt lat="44.48516" lon="6.83677">
        <ele>2174.2</ele>
        <time>2022-08-16T07:53:00Z</time>
      </trkpt>
      <trkpt lat="44.48516" lon="6.83679">
        <ele>2174.4</ele>
        <time>2022-08-16T07:53:01Z</time>
      </trkpt>
      <trkpt lat="44.48516" lon="6.8368">
        <ele>2174.4</ele>
        <time>2022-08-16T07:53:02Z</time>
      </trkpt>
      <trkpt lat="44.48516" lon="6.83682">
        <ele>2174.8</ele>
        <time>2022-08-16T07:53:03Z</time>
      </trkpt>
      <trkpt lat="44.48516" lon="6.83684">
        <ele>2174.8</ele>
        <time>2022-08-16T07:53:04Z</time>
      </trkpt>
      <trkpt lat="44.48517" lon="6.83685">
        <ele>2175</ele>
        <time>2022-08-16T07:53:05Z</time>
      </trkpt>
      <trkpt lat="44.48517" lon="6.83687">
        <ele>2175</ele>
        <time>2022-08-16T07:53:06Z</time>
      </trkpt>
      <trkpt lat="44.48517" lon="6.83689">
        <ele>2175.4</ele>
        <time>2022-08-16T07:53:07Z</time>
      </trkpt>
      <trkpt lat="44.48517" lon="6.83691">
        <ele>2175.6</ele>
        <time>2022-08-16T07:53:08Z</time>
      </trkpt>
      <trkpt lat="44.48517" lon="6.83692">
        <ele>2175.6</ele>
        <time>2022-08-16T07:53:09Z</time>
      </trkpt>
      <trkpt lat="44.48517" lon="6.83694">
        <ele>2175.8</ele>
        <time>2022-08-16T07:53:10Z</time>
      </trkpt>
      <trkpt lat="44.48517" lon="6.83696">
        <ele>2176</ele>
        <time>2022-08-16T07:53:11Z</time>
      </trkpt>
      <trkpt lat="44.48517" lon="6.83697">
        <ele>2176</ele>
        <time>2022-08-16T07:53:12Z</time>
      </trkpt>
      <trkpt lat="44.48517" lon="6.83699">
        <ele>2176</ele>
        <time>2022-08-16T07:53:13Z</time>
      </trkpt>
      <trkpt lat="44.48517" lon="6.83701">
        <ele>2176.2</ele>
        <time>2022-08-16T07:53:14Z</time>
      </trkpt>
      <trkpt lat="44.48517" lon="6.83702">
        <ele>2176.2</ele>
        <time>2022-08-16T07:53:15Z</time>
      </trkpt>
      <trkpt lat="44.48517" lon="6.83704">
        <ele>2176.4</ele>
        <time>2022-08-16T07:53:16Z</time>
      </trkpt>
      <trkpt lat="44.48517" lon="6.83706">
        <ele>2176.6</ele>
        <time>2022-08-16T07:53:17Z</time>
      </trkpt>
      <trkpt lat="44.48517" lon="6.83708">
        <ele>2176.8</ele>
        <time>2022-08-16T07:53:18Z</time>
      </trkpt>
      <trkpt lat="44.48517" lon="6.83709">
        <ele>2177</ele>
        <time>2022-08-16T07:53:19Z</time>
      </trkpt>
      <trkpt lat="44.48517" lon="6.83711">
        <ele>2177.2</ele>
        <time>2022-08-16T07:53:20Z</time>
      </trkpt>
      <trkpt lat="44.48517" lon="6.83713">
        <ele>2177.4</ele>
        <time>2022-08-16T07:53:21Z</time>
      </trkpt>
      <trkpt lat="44.48517" lon="6.83715">
        <ele>2177.6</ele>
        <time>2022-08-16T07:53:22Z</time>
      </trkpt>
      <trkpt lat="44.48517" lon="6.83716">
        <ele>2177.6</ele>
        <time>2022-08-16T07:53:23Z</time>
      </trkpt>
      <trkpt lat="44.48517" lon="6.83718">
        <ele>2177.8</ele>
        <time>2022-08-16T07:53:24Z</time>
      </trkpt>
      <trkpt lat="44.48517" lon="6.8372">
        <ele>2177.8</ele>
        <time>2022-08-16T07:53:25Z</time>
      </trkpt>
      <trkpt lat="44.48517" lon="6.83722">
        <ele>2178.2</ele>
        <time>2022-08-16T07:53:26Z</time>
      </trkpt>
      <trkpt lat="44.48517" lon="6.83723">
        <ele>2178.2</ele>
        <time>2022-08-16T07:53:27Z</time>
      </trkpt>
      <trkpt lat="44.48516" lon="6.83725">
        <ele>2178.4</ele>
        <time>2022-08-16T07:53:28Z</time>
      </trkpt>
      <trkpt lat="44.48516" lon="6.83726">
        <ele>2178.8</ele>
        <time>2022-08-16T07:53:29Z</time>
      </trkpt>
      <trkpt lat="44.48516" lon="6.83728">
        <ele>2179</ele>
        <time>2022-08-16T07:53:30Z</time>
      </trkpt>
      <trkpt lat="44.48516" lon="6.8373">
        <ele>2179.4</ele>
        <time>2022-08-16T07:53:31Z</time>
      </trkpt>
      <trkpt lat="44.48516" lon="6.83731">
        <ele>2179.4</ele>
        <time>2022-08-16T07:53:32Z</time>
      </trkpt>
      <trkpt lat="44.48517" lon="6.83733">
        <ele>2179.6</ele>
        <time>2022-08-16T07:53:33Z</time>
      </trkpt>
      <trkpt lat="44.48517" lon="6.83734">
        <ele>2179.8</ele>
        <time>2022-08-16T07:53:34Z</time>
      </trkpt>
      <trkpt lat="44.48517" lon="6.83736">
        <ele>2180</ele>
        <time>2022-08-16T07:53:35Z</time>
      </trkpt>
      <trkpt lat="44.48517" lon="6.83738">
        <ele>2180</ele>
        <time>2022-08-16T07:53:36Z</time>
      </trkpt>
      <trkpt lat="44.48517" lon="6.83739">
        <ele>2180.2</ele>
        <time>2022-08-16T07:53:37Z</time>
      </trkpt>
      <trkpt lat="44.48517" lon="6.83741">
        <ele>2180.4</ele>
        <time>2022-08-16T07:53:38Z</time>
      </trkpt>
      <trkpt lat="44.48517" lon="6.83743">
        <ele>2180.6</ele>
        <time>2022-08-16T07:53:39Z</time>
      </trkpt>
      <trkpt lat="44.48517" lon="6.83744">
        <ele>2180.8</ele>
        <time>2022-08-16T07:53:40Z</time>
      </trkpt>
      <trkpt lat="44.48517" lon="6.83746">
        <ele>2180.8</ele>
        <time>2022-08-16T07:53:41Z</time>
      </trkpt>
      <trkpt lat="44.48517" lon="6.83747">
        <ele>2181</ele>
        <time>2022-08-16T07:53:42Z</time>
      </trkpt>
      <trkpt lat="44.48518" lon="6.83749">
        <ele>2181</ele>
        <time>2022-08-16T07:53:43Z</time>
      </trkpt>
      <trkpt lat="44.48518" lon="6.83751">
        <ele>2181.2</ele>
        <time>2022-08-16T07:53:44Z</time>
      </trkpt>
      <trkpt lat="44.48518" lon="6.83752">
        <ele>2181.2</ele>
        <time>2022-08-16T07:53:45Z</time>
      </trkpt>
      <trkpt lat="44.48518" lon="6.83754">
        <ele>2181.4</ele>
        <time>2022-08-16T07:53:46Z</time>
      </trkpt>
      <trkpt lat="44.48518" lon="6.83756">
        <ele>2181.8</ele>
        <time>2022-08-16T07:53:47Z</time>
      </trkpt>
      <trkpt lat="44.48518" lon="6.83758">
        <ele>2181.8</ele>
        <time>2022-08-16T07:53:48Z</time>
      </trkpt>
      <trkpt lat="44.48518" lon="6.83759">
        <ele>2182.2</ele>
        <time>2022-08-16T07:53:49Z</time>
      </trkpt>
      <trkpt lat="44.48518" lon="6.83761">
        <ele>2182</ele>
        <time>2022-08-16T07:53:50Z</time>
      </trkpt>
      <trkpt lat="44.48519" lon="6.83763">
        <ele>2182.4</ele>
        <time>2022-08-16T07:53:51Z</time>
      </trkpt>
      <trkpt lat="44.48519" lon="6.83764">
        <ele>2182.2</ele>
        <time>2022-08-16T07:53:52Z</time>
      </trkpt>
      <trkpt lat="44.48519" lon="6.83766">
        <ele>2182.4</ele>
        <time>2022-08-16T07:53:53Z</time>
      </trkpt>
      <trkpt lat="44.4852" lon="6.83767">
        <ele>2182.6</ele>
        <time>2022-08-16T07:53:54Z</time>
      </trkpt>
      <trkpt lat="44.4852" lon="6.83769">
        <ele>2182.6</ele>
        <time>2022-08-16T07:53:55Z</time>
      </trkpt>
      <trkpt lat="44.48521" lon="6.83771">
        <ele>2183</ele>
        <time>2022-08-16T07:53:56Z</time>
      </trkpt>
      <trkpt lat="44.48522" lon="6.83772">
        <ele>2183.2</ele>
        <time>2022-08-16T07:53:57Z</time>
      </trkpt>
      <trkpt lat="44.48522" lon="6.83774">
        <ele>2183.4</ele>
        <time>2022-08-16T07:53:58Z</time>
      </trkpt>
      <trkpt lat="44.48523" lon="6.83775">
        <ele>2183.4</ele>
        <time>2022-08-16T07:53:59Z</time>
      </trkpt>
      <trkpt lat="44.48524" lon="6.83777">
        <ele>2183.6</ele>
        <time>2022-08-16T07:54:00Z</time>
      </trkpt>
      <trkpt lat="44.48524" lon="6.83778">
        <ele>2183.6</ele>
        <time>2022-08-16T07:54:01Z</time>
      </trkpt>
      <trkpt lat="44.48525" lon="6.8378">
        <ele>2183.8</ele>
        <time>2022-08-16T07:54:02Z</time>
      </trkpt>
      <trkpt lat="44.48526" lon="6.83781">
        <ele>2183.8</ele>
        <time>2022-08-16T07:54:03Z</time>
      </trkpt>
      <trkpt lat="44.48527" lon="6.83782">
        <ele>2183.8</ele>
        <time>2022-08-16T07:54:04Z</time>
      </trkpt>
      <trkpt lat="44.48528" lon="6.83784">
        <ele>2184</ele>
        <time>2022-08-16T07:54:05Z</time>
      </trkpt>
      <trkpt lat="44.48528" lon="6.83785">
        <ele>2184.2</ele>
        <time>2022-08-16T07:54:06Z</time>
      </trkpt>
      <trkpt lat="44.48529" lon="6.83787">
        <ele>2184.2</ele>
        <time>2022-08-16T07:54:07Z</time>
      </trkpt>
      <trkpt lat="44.4853" lon="6.83788">
        <ele>2184.4</ele>
        <time>2022-08-16T07:54:08Z</time>
      </trkpt>
      <trkpt lat="44.4853" lon="6.8379">
        <ele>2184.6</ele>
        <time>2022-08-16T07:54:09Z</time>
      </trkpt>
      <trkpt lat="44.48531" lon="6.83791">
        <ele>2184.8</ele>
        <time>2022-08-16T07:54:10Z</time>
      </trkpt>
      <trkpt lat="44.48532" lon="6.83792">
        <ele>2185</ele>
        <time>2022-08-16T07:54:11Z</time>
      </trkpt>
      <trkpt lat="44.48533" lon="6.83794">
        <ele>2185.2</ele>
        <time>2022-08-16T07:54:12Z</time>
      </trkpt>
      <trkpt lat="44.48534" lon="6.83795">
        <ele>2185.4</ele>
        <time>2022-08-16T07:54:13Z</time>
      </trkpt>
      <trkpt lat="44.48534" lon="6.83796">
        <ele>2185.6</ele>
        <time>2022-08-16T07:54:14Z</time>
      </trkpt>
      <trkpt lat="44.48535" lon="6.83798">
        <ele>2185.8</ele>
        <time>2022-08-16T07:54:15Z</time>
      </trkpt>
      <trkpt lat="44.48536" lon="6.838">
        <ele>2186</ele>
        <time>2022-08-16T07:54:16Z</time>
      </trkpt>
      <trkpt lat="44.48536" lon="6.83801">
        <ele>2186.2</ele>
        <time>2022-08-16T07:54:17Z</time>
      </trkpt>
      <trkpt lat="44.48538" lon="6.83803">
        <ele>2186.4</ele>
        <time>2022-08-16T07:54:18Z</time>
      </trkpt>
      <trkpt lat="44.48539" lon="6.83805">
        <ele>2186.6</ele>
        <time>2022-08-16T07:54:19Z</time>
      </trkpt>
      <trkpt lat="44.4854" lon="6.83807">
        <ele>2186.8</ele>
        <time>2022-08-16T07:54:20Z</time>
      </trkpt>
      <trkpt lat="44.48541" lon="6.83808">
        <ele>2186.8</ele>
        <time>2022-08-16T07:54:21Z</time>
      </trkpt>
      <trkpt lat="44.48542" lon="6.8381">
        <ele>2186.8</ele>
        <time>2022-08-16T07:54:22Z</time>
      </trkpt>
      <trkpt lat="44.48543" lon="6.83812">
        <ele>2186.8</ele>
        <time>2022-08-16T07:54:23Z</time>
      </trkpt>
      <trkpt lat="44.48544" lon="6.83813">
        <ele>2187.2</ele>
        <time>2022-08-16T07:54:24Z</time>
      </trkpt>
      <trkpt lat="44.48545" lon="6.83815">
        <ele>2187.2</ele>
        <time>2022-08-16T07:54:25Z</time>
      </trkpt>
      <trkpt lat="44.48546" lon="6.83817">
        <ele>2187.4</ele>
        <time>2022-08-16T07:54:26Z</time>
      </trkpt>
      <trkpt lat="44.48547" lon="6.83818">
        <ele>2187.4</ele>
        <time>2022-08-16T07:54:27Z</time>
      </trkpt>
      <trkpt lat="44.48548" lon="6.8382">
        <ele>2187.2</ele>
        <time>2022-08-16T07:54:28Z</time>
      </trkpt>
      <trkpt lat="44.48549" lon="6.83822">
        <ele>2187.4</ele>
        <time>2022-08-16T07:54:29Z</time>
      </trkpt>
      <trkpt lat="44.4855" lon="6.83824">
        <ele>2187.4</ele>
        <time>2022-08-16T07:54:30Z</time>
      </trkpt>
      <trkpt lat="44.48551" lon="6.83825">
        <ele>2187.4</ele>
        <time>2022-08-16T07:54:31Z</time>
      </trkpt>
      <trkpt lat="44.48552" lon="6.83827">
        <ele>2187.6</ele>
        <time>2022-08-16T07:54:32Z</time>
      </trkpt>
      <trkpt lat="44.48553" lon="6.83829">
        <ele>2187.6</ele>
        <time>2022-08-16T07:54:33Z</time>
      </trkpt>
      <trkpt lat="44.48554" lon="6.83831">
        <ele>2187.8</ele>
        <time>2022-08-16T07:54:34Z</time>
      </trkpt>
      <trkpt lat="44.48555" lon="6.83833">
        <ele>2187.8</ele>
        <time>2022-08-16T07:54:35Z</time>
      </trkpt>
      <trkpt lat="44.48556" lon="6.83835">
        <ele>2187.8</ele>
        <time>2022-08-16T07:54:36Z</time>
      </trkpt>
      <trkpt lat="44.48557" lon="6.83837">
        <ele>2188</ele>
        <time>2022-08-16T07:54:37Z</time>
      </trkpt>
      <trkpt lat="44.48557" lon="6.83838">
        <ele>2188</ele>
        <time>2022-08-16T07:54:38Z</time>
      </trkpt>
      <trkpt lat="44.48561" lon="6.83845">
        <ele>2188.4</ele>
        <time>2022-08-16T07:54:42Z</time>
      </trkpt>
      <trkpt lat="44.48562" lon="6.83847">
        <ele>2188.4</ele>
        <time>2022-08-16T07:54:43Z</time>
      </trkpt>
      <trkpt lat="44.48563" lon="6.83848">
        <ele>2188.6</ele>
        <time>2022-08-16T07:54:44Z</time>
      </trkpt>
      <trkpt lat="44.48564" lon="6.8385">
        <ele>2188.4</ele>
        <time>2022-08-16T07:54:45Z</time>
      </trkpt>
      <trkpt lat="44.48567" lon="6.83855">
        <ele>2188.8</ele>
        <time>2022-08-16T07:54:48Z</time>
      </trkpt>
      <trkpt lat="44.48569" lon="6.83859">
        <ele>2188.8</ele>
        <time>2022-08-16T07:54:50Z</time>
      </trkpt>
      <trkpt lat="44.4857" lon="6.83865">
        <ele>2189</ele>
        <time>2022-08-16T07:54:53Z</time>
      </trkpt>
      <trkpt lat="44.48571" lon="6.83874">
        <ele>2189.6</ele>
        <time>2022-08-16T07:54:57Z</time>
      </trkpt>
      <trkpt lat="44.48571" lon="6.83877">
        <ele>2189.6</ele>
        <time>2022-08-16T07:54:58Z</time>
      </trkpt>
      <trkpt lat="44.48571" lon="6.83879">
        <ele>2189.8</ele>
        <time>2022-08-16T07:54:59Z</time>
      </trkpt>
      <trkpt lat="44.48571" lon="6.83881">
        <ele>2189.8</ele>
        <time>2022-08-16T07:55:00Z</time>
      </trkpt>
      <trkpt lat="44.48571" lon="6.83883">
        <ele>2189.8</ele>
        <time>2022-08-16T07:55:01Z</time>
      </trkpt>
      <trkpt lat="44.48571" lon="6.83884">
        <ele>2190</ele>
        <time>2022-08-16T07:55:02Z</time>
      </trkpt>
      <trkpt lat="44.48571" lon="6.83886">
        <ele>2190</ele>
        <time>2022-08-16T07:55:03Z</time>
      </trkpt>
      <trkpt lat="44.48571" lon="6.83887">
        <ele>2190</ele>
        <time>2022-08-16T07:55:04Z</time>
      </trkpt>
      <trkpt lat="44.48571" lon="6.83888">
        <ele>2190</ele>
        <time>2022-08-16T07:55:05Z</time>
      </trkpt>
      <trkpt lat="44.48572" lon="6.83889">
        <ele>2190</ele>
        <time>2022-08-16T07:55:06Z</time>
      </trkpt>
      <trkpt lat="44.48572" lon="6.8389">
        <ele>2191.4</ele>
        <time>2022-08-16T07:55:20Z</time>
      </trkpt>
      <trkpt lat="44.48574" lon="6.83896">
        <ele>2191.4</ele>
        <time>2022-08-16T07:55:24Z</time>
      </trkpt>
      <trkpt lat="44.48574" lon="6.83899">
        <ele>2191.6</ele>
        <time>2022-08-16T07:55:25Z</time>
      </trkpt>
      <trkpt lat="44.48575" lon="6.83901">
        <ele>2191.6</ele>
        <time>2022-08-16T07:55:26Z</time>
      </trkpt>
      <trkpt lat="44.48575" lon="6.83904">
        <ele>2191.6</ele>
        <time>2022-08-16T07:55:27Z</time>
      </trkpt>
      <trkpt lat="44.48575" lon="6.83906">
        <ele>2191.6</ele>
        <time>2022-08-16T07:55:28Z</time>
      </trkpt>
      <trkpt lat="44.48574" lon="6.83909">
        <ele>2191.6</ele>
        <time>2022-08-16T07:55:29Z</time>
      </trkpt>
      <trkpt lat="44.48572" lon="6.83911">
        <ele>2191.6</ele>
        <time>2022-08-16T07:55:30Z</time>
      </trkpt>
      <trkpt lat="44.4857" lon="6.83912">
        <ele>2191.6</ele>
        <time>2022-08-16T07:55:31Z</time>
      </trkpt>
      <trkpt lat="44.48568" lon="6.83913">
        <ele>2191.6</ele>
        <time>2022-08-16T07:55:32Z</time>
      </trkpt>
      <trkpt lat="44.48566" lon="6.83913">
        <ele>2191.6</ele>
        <time>2022-08-16T07:55:33Z</time>
      </trkpt>
      <trkpt lat="44.48565" lon="6.83912">
        <ele>2191.6</ele>
        <time>2022-08-16T07:55:34Z</time>
      </trkpt>
      <trkpt lat="44.48563" lon="6.83912">
        <ele>2191.6</ele>
        <time>2022-08-16T07:55:35Z</time>
      </trkpt>
      <trkpt lat="44.48562" lon="6.83911">
        <ele>2191.6</ele>
        <time>2022-08-16T07:55:36Z</time>
      </trkpt>
      <trkpt lat="44.48561" lon="6.8391">
        <ele>2191.8</ele>
        <time>2022-08-16T07:55:37Z</time>
      </trkpt>
      <trkpt lat="44.4856" lon="6.83909">
        <ele>2191.8</ele>
        <time>2022-08-16T07:55:38Z</time>
      </trkpt>
      <trkpt lat="44.48559" lon="6.83907">
        <ele>2192</ele>
        <time>2022-08-16T07:55:39Z</time>
      </trkpt>
      <trkpt lat="44.48558" lon="6.83905">
        <ele>2192</ele>
        <time>2022-08-16T07:55:40Z</time>
      </trkpt>
      <trkpt lat="44.48557" lon="6.83902">
        <ele>2192</ele>
        <time>2022-08-16T07:55:41Z</time>
      </trkpt>
      <trkpt lat="44.48555" lon="6.83896">
        <ele>2192.2</ele>
        <time>2022-08-16T07:55:43Z</time>
      </trkpt>
      <trkpt lat="44.48553" lon="6.83893">
        <ele>2192</ele>
        <time>2022-08-16T07:55:44Z</time>
      </trkpt>
      <trkpt lat="44.48552" lon="6.83891">
        <ele>2192.2</ele>
        <time>2022-08-16T07:55:45Z</time>
      </trkpt>
      <trkpt lat="44.48551" lon="6.8389">
        <ele>2192.2</ele>
        <time>2022-08-16T07:55:46Z</time>
      </trkpt>
      <trkpt lat="44.4855" lon="6.83889">
        <ele>2192.4</ele>
        <time>2022-08-16T07:55:47Z</time>
      </trkpt>
      <trkpt lat="44.48549" lon="6.83888">
        <ele>2192.4</ele>
        <time>2022-08-16T07:55:48Z</time>
      </trkpt>
      <trkpt lat="44.48547" lon="6.83888">
        <ele>2192.4</ele>
        <time>2022-08-16T07:55:49Z</time>
      </trkpt>
      <trkpt lat="44.48546" lon="6.83887">
        <ele>2192.4</ele>
        <time>2022-08-16T07:55:50Z</time>
      </trkpt>
      <trkpt lat="44.48545" lon="6.83887">
        <ele>2192.6</ele>
        <time>2022-08-16T07:55:51Z</time>
      </trkpt>
      <trkpt lat="44.48544" lon="6.83886">
        <ele>2192.6</ele>
        <time>2022-08-16T07:55:52Z</time>
      </trkpt>
      <trkpt lat="44.48543" lon="6.83886">
        <ele>2192.6</ele>
        <time>2022-08-16T07:55:53Z</time>
      </trkpt>
      <trkpt lat="44.48541" lon="6.83885">
        <ele>2192.6</ele>
        <time>2022-08-16T07:55:54Z</time>
      </trkpt>
      <trkpt lat="44.48537" lon="6.83885">
        <ele>2193</ele>
        <time>2022-08-16T07:55:57Z</time>
      </trkpt>
      <trkpt lat="44.48536" lon="6.83884">
        <ele>2193.2</ele>
        <time>2022-08-16T07:55:58Z</time>
      </trkpt>
      <trkpt lat="44.48535" lon="6.83884">
        <ele>2193.2</ele>
        <time>2022-08-16T07:55:59Z</time>
      </trkpt>
      <trkpt lat="44.48534" lon="6.83884">
        <ele>2193.4</ele>
        <time>2022-08-16T07:56:00Z</time>
      </trkpt>
      <trkpt lat="44.48533" lon="6.83883">
        <ele>2193.6</ele>
        <time>2022-08-16T07:56:01Z</time>
      </trkpt>
      <trkpt lat="44.48531" lon="6.83883">
        <ele>2193.8</ele>
        <time>2022-08-16T07:56:02Z</time>
      </trkpt>
      <trkpt lat="44.4853" lon="6.83882">
        <ele>2194</ele>
        <time>2022-08-16T07:56:03Z</time>
      </trkpt>
      <trkpt lat="44.48529" lon="6.83882">
        <ele>2194.2</ele>
        <time>2022-08-16T07:56:04Z</time>
      </trkpt>
      <trkpt lat="44.48528" lon="6.83881">
        <ele>2194.4</ele>
        <time>2022-08-16T07:56:05Z</time>
      </trkpt>
      <trkpt lat="44.48527" lon="6.8388">
        <ele>2194.4</ele>
        <time>2022-08-16T07:56:06Z</time>
      </trkpt>
      <trkpt lat="44.48526" lon="6.8388">
        <ele>2194.8</ele>
        <time>2022-08-16T07:56:07Z</time>
      </trkpt>
      <trkpt lat="44.48525" lon="6.83879">
        <ele>2194.8</ele>
        <time>2022-08-16T07:56:08Z</time>
      </trkpt>
      <trkpt lat="44.48524" lon="6.83879">
        <ele>2195</ele>
        <time>2022-08-16T07:56:09Z</time>
      </trkpt>
      <trkpt lat="44.48523" lon="6.83878">
        <ele>2195.2</ele>
        <time>2022-08-16T07:56:10Z</time>
      </trkpt>
      <trkpt lat="44.48522" lon="6.83877">
        <ele>2195.2</ele>
        <time>2022-08-16T07:56:11Z</time>
      </trkpt>
      <trkpt lat="44.48521" lon="6.83877">
        <ele>2195.6</ele>
        <time>2022-08-16T07:56:12Z</time>
      </trkpt>
      <trkpt lat="44.4852" lon="6.83876">
        <ele>2195.6</ele>
        <time>2022-08-16T07:56:13Z</time>
      </trkpt>
      <trkpt lat="44.48519" lon="6.83876">
        <ele>2196</ele>
        <time>2022-08-16T07:56:14Z</time>
      </trkpt>
      <trkpt lat="44.48517" lon="6.83875">
        <ele>2195.8</ele>
        <time>2022-08-16T07:56:15Z</time>
      </trkpt>
      <trkpt lat="44.48516" lon="6.83875">
        <ele>2196</ele>
        <time>2022-08-16T07:56:16Z</time>
      </trkpt>
      <trkpt lat="44.48515" lon="6.83874">
        <ele>2196</ele>
        <time>2022-08-16T07:56:17Z</time>
      </trkpt>
      <trkpt lat="44.48514" lon="6.83874">
        <ele>2196.2</ele>
        <time>2022-08-16T07:56:18Z</time>
      </trkpt>
      <trkpt lat="44.48513" lon="6.83874">
        <ele>2196.2</ele>
        <time>2022-08-16T07:56:19Z</time>
      </trkpt>
      <trkpt lat="44.48512" lon="6.83873">
        <ele>2196.4</ele>
        <time>2022-08-16T07:56:20Z</time>
      </trkpt>
      <trkpt lat="44.48511" lon="6.83872">
        <ele>2196.6</ele>
        <time>2022-08-16T07:56:21Z</time>
      </trkpt>
      <trkpt lat="44.48509" lon="6.83872">
        <ele>2196.6</ele>
        <time>2022-08-16T07:56:22Z</time>
      </trkpt>
      <trkpt lat="44.48508" lon="6.83871">
        <ele>2196.8</ele>
        <time>2022-08-16T07:56:23Z</time>
      </trkpt>
      <trkpt lat="44.48507" lon="6.8387">
        <ele>2197</ele>
        <time>2022-08-16T07:56:24Z</time>
      </trkpt>
      <trkpt lat="44.48506" lon="6.83869">
        <ele>2197.2</ele>
        <time>2022-08-16T07:56:25Z</time>
      </trkpt>
      <trkpt lat="44.48505" lon="6.83868">
        <ele>2197.4</ele>
        <time>2022-08-16T07:56:26Z</time>
      </trkpt>
      <trkpt lat="44.48504" lon="6.83868">
        <ele>2197.6</ele>
        <time>2022-08-16T07:56:27Z</time>
      </trkpt>
      <trkpt lat="44.48503" lon="6.83867">
        <ele>2197.6</ele>
        <time>2022-08-16T07:56:28Z</time>
      </trkpt>
      <trkpt lat="44.48502" lon="6.83865">
        <ele>2197.8</ele>
        <time>2022-08-16T07:56:29Z</time>
      </trkpt>
      <trkpt lat="44.48501" lon="6.83864">
        <ele>2198</ele>
        <time>2022-08-16T07:56:30Z</time>
      </trkpt>
      <trkpt lat="44.485" lon="6.83863">
        <ele>2198</ele>
        <time>2022-08-16T07:56:31Z</time>
      </trkpt>
      <trkpt lat="44.48499" lon="6.83862">
        <ele>2198.2</ele>
        <time>2022-08-16T07:56:32Z</time>
      </trkpt>
      <trkpt lat="44.48498" lon="6.83861">
        <ele>2198.4</ele>
        <time>2022-08-16T07:56:33Z</time>
      </trkpt>
      <trkpt lat="44.48496" lon="6.8386">
        <ele>2198.6</ele>
        <time>2022-08-16T07:56:34Z</time>
      </trkpt>
      <trkpt lat="44.48495" lon="6.83859">
        <ele>2198.8</ele>
        <time>2022-08-16T07:56:35Z</time>
      </trkpt>
      <trkpt lat="44.48494" lon="6.83857">
        <ele>2199</ele>
        <time>2022-08-16T07:56:36Z</time>
      </trkpt>
      <trkpt lat="44.48493" lon="6.83856">
        <ele>2199</ele>
        <time>2022-08-16T07:56:37Z</time>
      </trkpt>
      <trkpt lat="44.48492" lon="6.83855">
        <ele>2199.2</ele>
        <time>2022-08-16T07:56:38Z</time>
      </trkpt>
      <trkpt lat="44.48491" lon="6.83854">
        <ele>2199.4</ele>
        <time>2022-08-16T07:56:39Z</time>
      </trkpt>
      <trkpt lat="44.4849" lon="6.83853">
        <ele>2199.4</ele>
        <time>2022-08-16T07:56:40Z</time>
      </trkpt>
      <trkpt lat="44.48489" lon="6.83852">
        <ele>2199.6</ele>
        <time>2022-08-16T07:56:41Z</time>
      </trkpt>
      <trkpt lat="44.48488" lon="6.8385">
        <ele>2199.8</ele>
        <time>2022-08-16T07:56:42Z</time>
      </trkpt>
      <trkpt lat="44.48486" lon="6.83849">
        <ele>2200</ele>
        <time>2022-08-16T07:56:43Z</time>
      </trkpt>
      <trkpt lat="44.48486" lon="6.83848">
        <ele>2200.2</ele>
        <time>2022-08-16T07:56:44Z</time>
      </trkpt>
      <trkpt lat="44.48485" lon="6.83847">
        <ele>2200.4</ele>
        <time>2022-08-16T07:56:45Z</time>
      </trkpt>
      <trkpt lat="44.48483" lon="6.83846">
        <ele>2200.6</ele>
        <time>2022-08-16T07:56:46Z</time>
      </trkpt>
      <trkpt lat="44.48482" lon="6.83845">
        <ele>2200.8</ele>
        <time>2022-08-16T07:56:47Z</time>
      </trkpt>
      <trkpt lat="44.48481" lon="6.83844">
        <ele>2201.2</ele>
        <time>2022-08-16T07:56:48Z</time>
      </trkpt>
      <trkpt lat="44.4848" lon="6.83843">
        <ele>2201.2</ele>
        <time>2022-08-16T07:56:49Z</time>
      </trkpt>
      <trkpt lat="44.48479" lon="6.83841">
        <ele>2201.4</ele>
        <time>2022-08-16T07:56:50Z</time>
      </trkpt>
      <trkpt lat="44.48478" lon="6.8384">
        <ele>2201.4</ele>
        <time>2022-08-16T07:56:51Z</time>
      </trkpt>
      <trkpt lat="44.48477" lon="6.83839">
        <ele>2201.4</ele>
        <time>2022-08-16T07:56:52Z</time>
      </trkpt>
      <trkpt lat="44.48476" lon="6.83838">
        <ele>2201.6</ele>
        <time>2022-08-16T07:56:53Z</time>
      </trkpt>
      <trkpt lat="44.48476" lon="6.83837">
        <ele>2201.8</ele>
        <time>2022-08-16T07:56:54Z</time>
      </trkpt>
      <trkpt lat="44.48475" lon="6.83837">
        <ele>2202</ele>
        <time>2022-08-16T07:56:55Z</time>
      </trkpt>
      <trkpt lat="44.48473" lon="6.83836">
        <ele>2202.2</ele>
        <time>2022-08-16T07:56:56Z</time>
      </trkpt>
      <trkpt lat="44.48472" lon="6.83836">
        <ele>2202.4</ele>
        <time>2022-08-16T07:56:57Z</time>
      </trkpt>
      <trkpt lat="44.48471" lon="6.83836">
        <ele>2202.6</ele>
        <time>2022-08-16T07:56:58Z</time>
      </trkpt>
      <trkpt lat="44.48469" lon="6.83835">
        <ele>2202.8</ele>
        <time>2022-08-16T07:56:59Z</time>
      </trkpt>
      <trkpt lat="44.48468" lon="6.83834">
        <ele>2202.8</ele>
        <time>2022-08-16T07:57:00Z</time>
      </trkpt>
      <trkpt lat="44.48467" lon="6.83835">
        <ele>2203</ele>
        <time>2022-08-16T07:57:01Z</time>
      </trkpt>
      <trkpt lat="44.48466" lon="6.83836">
        <ele>2203.2</ele>
        <time>2022-08-16T07:57:02Z</time>
      </trkpt>
      <trkpt lat="44.48466" lon="6.83837">
        <ele>2203.2</ele>
        <time>2022-08-16T07:57:03Z</time>
      </trkpt>
      <trkpt lat="44.48466" lon="6.83838">
        <ele>2203.6</ele>
        <time>2022-08-16T07:57:04Z</time>
      </trkpt>
      <trkpt lat="44.48466" lon="6.8384">
        <ele>2203.6</ele>
        <time>2022-08-16T07:57:05Z</time>
      </trkpt>
      <trkpt lat="44.48467" lon="6.83842">
        <ele>2203.8</ele>
        <time>2022-08-16T07:57:06Z</time>
      </trkpt>
      <trkpt lat="44.48467" lon="6.83843">
        <ele>2204</ele>
        <time>2022-08-16T07:57:07Z</time>
      </trkpt>
      <trkpt lat="44.48468" lon="6.83845">
        <ele>2204.2</ele>
        <time>2022-08-16T07:57:08Z</time>
      </trkpt>
      <trkpt lat="44.48469" lon="6.83846">
        <ele>2204.4</ele>
        <time>2022-08-16T07:57:09Z</time>
      </trkpt>
      <trkpt lat="44.48469" lon="6.83848">
        <ele>2204.4</ele>
        <time>2022-08-16T07:57:10Z</time>
      </trkpt>
      <trkpt lat="44.4847" lon="6.83849">
        <ele>2204.6</ele>
        <time>2022-08-16T07:57:11Z</time>
      </trkpt>
      <trkpt lat="44.4847" lon="6.83851">
        <ele>2204.8</ele>
        <time>2022-08-16T07:57:12Z</time>
      </trkpt>
      <trkpt lat="44.4847" lon="6.83853">
        <ele>2205</ele>
        <time>2022-08-16T07:57:13Z</time>
      </trkpt>
      <trkpt lat="44.4847" lon="6.83854">
        <ele>2205</ele>
        <time>2022-08-16T07:57:14Z</time>
      </trkpt>
      <trkpt lat="44.4847" lon="6.83856">
        <ele>2205.2</ele>
        <time>2022-08-16T07:57:15Z</time>
      </trkpt>
      <trkpt lat="44.48471" lon="6.83858">
        <ele>2205.4</ele>
        <time>2022-08-16T07:57:16Z</time>
      </trkpt>
      <trkpt lat="44.48471" lon="6.83859">
        <ele>2205.6</ele>
        <time>2022-08-16T07:57:17Z</time>
      </trkpt>
      <trkpt lat="44.48471" lon="6.83861">
        <ele>2205.8</ele>
        <time>2022-08-16T07:57:18Z</time>
      </trkpt>
      <trkpt lat="44.48472" lon="6.83863">
        <ele>2206</ele>
        <time>2022-08-16T07:57:19Z</time>
      </trkpt>
      <trkpt lat="44.48472" lon="6.83865">
        <ele>2206.2</ele>
        <time>2022-08-16T07:57:20Z</time>
      </trkpt>
      <trkpt lat="44.48472" lon="6.83866">
        <ele>2206.2</ele>
        <time>2022-08-16T07:57:21Z</time>
      </trkpt>
      <trkpt lat="44.48472" lon="6.83868">
        <ele>2206.4</ele>
        <time>2022-08-16T07:57:22Z</time>
      </trkpt>
      <trkpt lat="44.48472" lon="6.8387">
        <ele>2206.6</ele>
        <time>2022-08-16T07:57:23Z</time>
      </trkpt>
      <trkpt lat="44.48473" lon="6.83872">
        <ele>2206.6</ele>
        <time>2022-08-16T07:57:24Z</time>
      </trkpt>
      <trkpt lat="44.48473" lon="6.83873">
        <ele>2206.8</ele>
        <time>2022-08-16T07:57:25Z</time>
      </trkpt>
      <trkpt lat="44.48473" lon="6.83875">
        <ele>2206.8</ele>
        <time>2022-08-16T07:57:26Z</time>
      </trkpt>
      <trkpt lat="44.48473" lon="6.83876">
        <ele>2207</ele>
        <time>2022-08-16T07:57:27Z</time>
      </trkpt>
      <trkpt lat="44.48474" lon="6.83878">
        <ele>2207.2</ele>
        <time>2022-08-16T07:57:28Z</time>
      </trkpt>
      <trkpt lat="44.48474" lon="6.8388">
        <ele>2207.2</ele>
        <time>2022-08-16T07:57:29Z</time>
      </trkpt>
      <trkpt lat="44.48474" lon="6.83882">
        <ele>2207.4</ele>
        <time>2022-08-16T07:57:30Z</time>
      </trkpt>
      <trkpt lat="44.48474" lon="6.83883">
        <ele>2207.4</ele>
        <time>2022-08-16T07:57:31Z</time>
      </trkpt>
      <trkpt lat="44.48474" lon="6.83885">
        <ele>2207.6</ele>
        <time>2022-08-16T07:57:32Z</time>
      </trkpt>
      <trkpt lat="44.48474" lon="6.83887">
        <ele>2207.8</ele>
        <time>2022-08-16T07:57:33Z</time>
      </trkpt>
      <trkpt lat="44.48474" lon="6.83888">
        <ele>2208</ele>
        <time>2022-08-16T07:57:34Z</time>
      </trkpt>
      <trkpt lat="44.48474" lon="6.8389">
        <ele>2208.2</ele>
        <time>2022-08-16T07:57:35Z</time>
      </trkpt>
      <trkpt lat="44.48474" lon="6.83892">
        <ele>2208.4</ele>
        <time>2022-08-16T07:57:36Z</time>
      </trkpt>
      <trkpt lat="44.48474" lon="6.83893">
        <ele>2208.6</ele>
        <time>2022-08-16T07:57:37Z</time>
      </trkpt>
      <trkpt lat="44.48474" lon="6.83895">
        <ele>2208.8</ele>
        <time>2022-08-16T07:57:38Z</time>
      </trkpt>
      <trkpt lat="44.48474" lon="6.83897">
        <ele>2209.2</ele>
        <time>2022-08-16T07:57:39Z</time>
      </trkpt>
      <trkpt lat="44.48474" lon="6.83899">
        <ele>2209.6</ele>
        <time>2022-08-16T07:57:40Z</time>
      </trkpt>
      <trkpt lat="44.48474" lon="6.839">
        <ele>2209.8</ele>
        <time>2022-08-16T07:57:41Z</time>
      </trkpt>
      <trkpt lat="44.48474" lon="6.83902">
        <ele>2210.2</ele>
        <time>2022-08-16T07:57:42Z</time>
      </trkpt>
      <trkpt lat="44.48474" lon="6.83903">
        <ele>2210.4</ele>
        <time>2022-08-16T07:57:43Z</time>
      </trkpt>
      <trkpt lat="44.48474" lon="6.83905">
        <ele>2210.4</ele>
        <time>2022-08-16T07:57:44Z</time>
      </trkpt>
      <trkpt lat="44.48474" lon="6.83906">
        <ele>2210.6</ele>
        <time>2022-08-16T07:57:45Z</time>
      </trkpt>
      <trkpt lat="44.48474" lon="6.83908">
        <ele>2210.8</ele>
        <time>2022-08-16T07:57:46Z</time>
      </trkpt>
      <trkpt lat="44.48474" lon="6.8391">
        <ele>2210.8</ele>
        <time>2022-08-16T07:57:47Z</time>
      </trkpt>
      <trkpt lat="44.48474" lon="6.83912">
        <ele>2210.8</ele>
        <time>2022-08-16T07:57:48Z</time>
      </trkpt>
      <trkpt lat="44.48474" lon="6.83913">
        <ele>2211.2</ele>
        <time>2022-08-16T07:57:49Z</time>
      </trkpt>
      <trkpt lat="44.48474" lon="6.83915">
        <ele>2211.4</ele>
        <time>2022-08-16T07:57:50Z</time>
      </trkpt>
      <trkpt lat="44.48474" lon="6.83917">
        <ele>2211.4</ele>
        <time>2022-08-16T07:57:51Z</time>
      </trkpt>
      <trkpt lat="44.48474" lon="6.83918">
        <ele>2211.6</ele>
        <time>2022-08-16T07:57:52Z</time>
      </trkpt>
      <trkpt lat="44.48474" lon="6.8392">
        <ele>2211.8</ele>
        <time>2022-08-16T07:57:53Z</time>
      </trkpt>
      <trkpt lat="44.48475" lon="6.83922">
        <ele>2212</ele>
        <time>2022-08-16T07:57:54Z</time>
      </trkpt>
      <trkpt lat="44.48475" lon="6.83924">
        <ele>2212</ele>
        <time>2022-08-16T07:57:55Z</time>
      </trkpt>
      <trkpt lat="44.48475" lon="6.83926">
        <ele>2212.2</ele>
        <time>2022-08-16T07:57:56Z</time>
      </trkpt>
      <trkpt lat="44.48476" lon="6.83927">
        <ele>2212.4</ele>
        <time>2022-08-16T07:57:57Z</time>
      </trkpt>
      <trkpt lat="44.48476" lon="6.83929">
        <ele>2212.6</ele>
        <time>2022-08-16T07:57:58Z</time>
      </trkpt>
      <trkpt lat="44.48476" lon="6.83931">
        <ele>2212.6</ele>
        <time>2022-08-16T07:57:59Z</time>
      </trkpt>
      <trkpt lat="44.48476" lon="6.83932">
        <ele>2212.8</ele>
        <time>2022-08-16T07:58:00Z</time>
      </trkpt>
      <trkpt lat="44.48476" lon="6.83934">
        <ele>2213</ele>
        <time>2022-08-16T07:58:01Z</time>
      </trkpt>
      <trkpt lat="44.48476" lon="6.83936">
        <ele>2213.2</ele>
        <time>2022-08-16T07:58:02Z</time>
      </trkpt>
      <trkpt lat="44.48477" lon="6.83937">
        <ele>2213.4</ele>
        <time>2022-08-16T07:58:03Z</time>
      </trkpt>
      <trkpt lat="44.48477" lon="6.83939">
        <ele>2213.2</ele>
        <time>2022-08-16T07:58:04Z</time>
      </trkpt>
      <trkpt lat="44.48477" lon="6.8394">
        <ele>2213.4</ele>
        <time>2022-08-16T07:58:05Z</time>
      </trkpt>
      <trkpt lat="44.48478" lon="6.83942">
        <ele>2213.8</ele>
        <time>2022-08-16T07:58:06Z</time>
      </trkpt>
      <trkpt lat="44.48478" lon="6.83944">
        <ele>2213.8</ele>
        <time>2022-08-16T07:58:07Z</time>
      </trkpt>
      <trkpt lat="44.48478" lon="6.83946">
        <ele>2214</ele>
        <time>2022-08-16T07:58:08Z</time>
      </trkpt>
      <trkpt lat="44.48479" lon="6.83947">
        <ele>2214</ele>
        <time>2022-08-16T07:58:09Z</time>
      </trkpt>
      <trkpt lat="44.48479" lon="6.83949">
        <ele>2214.4</ele>
        <time>2022-08-16T07:58:10Z</time>
      </trkpt>
      <trkpt lat="44.48479" lon="6.83951">
        <ele>2214.4</ele>
        <time>2022-08-16T07:58:11Z</time>
      </trkpt>
      <trkpt lat="44.48479" lon="6.83952">
        <ele>2214.4</ele>
        <time>2022-08-16T07:58:12Z</time>
      </trkpt>
      <trkpt lat="44.48479" lon="6.83954">
        <ele>2214.6</ele>
        <time>2022-08-16T07:58:13Z</time>
      </trkpt>
      <trkpt lat="44.4848" lon="6.83956">
        <ele>2214.8</ele>
        <time>2022-08-16T07:58:14Z</time>
      </trkpt>
      <trkpt lat="44.4848" lon="6.83957">
        <ele>2215.2</ele>
        <time>2022-08-16T07:58:15Z</time>
      </trkpt>
      <trkpt lat="44.48481" lon="6.83959">
        <ele>2215.2</ele>
        <time>2022-08-16T07:58:16Z</time>
      </trkpt>
      <trkpt lat="44.48481" lon="6.8396">
        <ele>2215.6</ele>
        <time>2022-08-16T07:58:17Z</time>
      </trkpt>
      <trkpt lat="44.48482" lon="6.83962">
        <ele>2215.8</ele>
        <time>2022-08-16T07:58:18Z</time>
      </trkpt>
      <trkpt lat="44.48482" lon="6.83964">
        <ele>2215.8</ele>
        <time>2022-08-16T07:58:19Z</time>
      </trkpt>
      <trkpt lat="44.48483" lon="6.83966">
        <ele>2215.8</ele>
        <time>2022-08-16T07:58:20Z</time>
      </trkpt>
      <trkpt lat="44.48483" lon="6.83968">
        <ele>2216.2</ele>
        <time>2022-08-16T07:58:21Z</time>
      </trkpt>
      <trkpt lat="44.48484" lon="6.8397">
        <ele>2216.4</ele>
        <time>2022-08-16T07:58:22Z</time>
      </trkpt>
      <trkpt lat="44.48484" lon="6.83972">
        <ele>2216.6</ele>
        <time>2022-08-16T07:58:23Z</time>
      </trkpt>
      <trkpt lat="44.48485" lon="6.83973">
        <ele>2216.8</ele>
        <time>2022-08-16T07:58:24Z</time>
      </trkpt>
      <trkpt lat="44.48485" lon="6.83975">
        <ele>2217</ele>
        <time>2022-08-16T07:58:25Z</time>
      </trkpt>
      <trkpt lat="44.48486" lon="6.83976">
        <ele>2217.2</ele>
        <time>2022-08-16T07:58:26Z</time>
      </trkpt>
      <trkpt lat="44.48487" lon="6.83978">
        <ele>2217.2</ele>
        <time>2022-08-16T07:58:27Z</time>
      </trkpt>
      <trkpt lat="44.48488" lon="6.8398">
        <ele>2217.4</ele>
        <time>2022-08-16T07:58:28Z</time>
      </trkpt>
      <trkpt lat="44.48488" lon="6.83982">
        <ele>2217.6</ele>
        <time>2022-08-16T07:58:29Z</time>
      </trkpt>
      <trkpt lat="44.48489" lon="6.83983">
        <ele>2217.6</ele>
        <time>2022-08-16T07:58:30Z</time>
      </trkpt>
      <trkpt lat="44.48489" lon="6.83985">
        <ele>2217.8</ele>
        <time>2022-08-16T07:58:31Z</time>
      </trkpt>
      <trkpt lat="44.4849" lon="6.83987">
        <ele>2218</ele>
        <time>2022-08-16T07:58:32Z</time>
      </trkpt>
      <trkpt lat="44.4849" lon="6.83988">
        <ele>2218</ele>
        <time>2022-08-16T07:58:33Z</time>
      </trkpt>
      <trkpt lat="44.48491" lon="6.8399">
        <ele>2218</ele>
        <time>2022-08-16T07:58:34Z</time>
      </trkpt>
      <trkpt lat="44.48491" lon="6.83991">
        <ele>2218.2</ele>
        <time>2022-08-16T07:58:35Z</time>
      </trkpt>
      <trkpt lat="44.48492" lon="6.83993">
        <ele>2218.2</ele>
        <time>2022-08-16T07:58:36Z</time>
      </trkpt>
      <trkpt lat="44.48492" lon="6.83995">
        <ele>2218.2</ele>
        <time>2022-08-16T07:58:37Z</time>
      </trkpt>
      <trkpt lat="44.48493" lon="6.83996">
        <ele>2218.4</ele>
        <time>2022-08-16T07:58:38Z</time>
      </trkpt>
      <trkpt lat="44.48492" lon="6.83998">
        <ele>2218.4</ele>
        <time>2022-08-16T07:58:39Z</time>
      </trkpt>
      <trkpt lat="44.48492" lon="6.84">
        <ele>2218.4</ele>
        <time>2022-08-16T07:58:40Z</time>
      </trkpt>
      <trkpt lat="44.48492" lon="6.84002">
        <ele>2218.6</ele>
        <time>2022-08-16T07:58:41Z</time>
      </trkpt>
      <trkpt lat="44.48492" lon="6.84004">
        <ele>2218.8</ele>
        <time>2022-08-16T07:58:42Z</time>
      </trkpt>
      <trkpt lat="44.48493" lon="6.84005">
        <ele>2218.8</ele>
        <time>2022-08-16T07:58:43Z</time>
      </trkpt>
      <trkpt lat="44.48493" lon="6.84007">
        <ele>2219</ele>
        <time>2022-08-16T07:58:44Z</time>
      </trkpt>
      <trkpt lat="44.48493" lon="6.84009">
        <ele>2219.4</ele>
        <time>2022-08-16T07:58:45Z</time>
      </trkpt>
      <trkpt lat="44.48493" lon="6.8401">
        <ele>2219.8</ele>
        <time>2022-08-16T07:58:46Z</time>
      </trkpt>
      <trkpt lat="44.48494" lon="6.84012">
        <ele>2219.8</ele>
        <time>2022-08-16T07:58:47Z</time>
      </trkpt>
      <trkpt lat="44.48494" lon="6.84014">
        <ele>2220</ele>
        <time>2022-08-16T07:58:48Z</time>
      </trkpt>
      <trkpt lat="44.48494" lon="6.84016">
        <ele>2220.2</ele>
        <time>2022-08-16T07:58:49Z</time>
      </trkpt>
      <trkpt lat="44.48494" lon="6.84018">
        <ele>2220.2</ele>
        <time>2022-08-16T07:58:50Z</time>
      </trkpt>
      <trkpt lat="44.48494" lon="6.84019">
        <ele>2220.4</ele>
        <time>2022-08-16T07:58:51Z</time>
      </trkpt>
      <trkpt lat="44.48495" lon="6.84021">
        <ele>2220.4</ele>
        <time>2022-08-16T07:58:52Z</time>
      </trkpt>
      <trkpt lat="44.48495" lon="6.84023">
        <ele>2220.4</ele>
        <time>2022-08-16T07:58:53Z</time>
      </trkpt>
      <trkpt lat="44.48495" lon="6.84024">
        <ele>2220.6</ele>
        <time>2022-08-16T07:58:54Z</time>
      </trkpt>
      <trkpt lat="44.48496" lon="6.84026">
        <ele>2221</ele>
        <time>2022-08-16T07:58:55Z</time>
      </trkpt>
      <trkpt lat="44.48496" lon="6.84028">
        <ele>2221</ele>
        <time>2022-08-16T07:58:56Z</time>
      </trkpt>
      <trkpt lat="44.48497" lon="6.8403">
        <ele>2221</ele>
        <time>2022-08-16T07:58:57Z</time>
      </trkpt>
      <trkpt lat="44.48497" lon="6.84031">
        <ele>2221.2</ele>
        <time>2022-08-16T07:58:58Z</time>
      </trkpt>
      <trkpt lat="44.48497" lon="6.84033">
        <ele>2221.4</ele>
        <time>2022-08-16T07:58:59Z</time>
      </trkpt>
      <trkpt lat="44.48498" lon="6.84035">
        <ele>2221.6</ele>
        <time>2022-08-16T07:59:00Z</time>
      </trkpt>
      <trkpt lat="44.48498" lon="6.84036">
        <ele>2221.8</ele>
        <time>2022-08-16T07:59:01Z</time>
      </trkpt>
      <trkpt lat="44.48498" lon="6.84038">
        <ele>2222</ele>
        <time>2022-08-16T07:59:02Z</time>
      </trkpt>
      <trkpt lat="44.48499" lon="6.84039">
        <ele>2222.2</ele>
        <time>2022-08-16T07:59:03Z</time>
      </trkpt>
      <trkpt lat="44.48499" lon="6.84041">
        <ele>2222.4</ele>
        <time>2022-08-16T07:59:04Z</time>
      </trkpt>
      <trkpt lat="44.485" lon="6.84042">
        <ele>2222.6</ele>
        <time>2022-08-16T07:59:05Z</time>
      </trkpt>
      <trkpt lat="44.48501" lon="6.84044">
        <ele>2222.8</ele>
        <time>2022-08-16T07:59:06Z</time>
      </trkpt>
      <trkpt lat="44.48502" lon="6.84045">
        <ele>2223</ele>
        <time>2022-08-16T07:59:07Z</time>
      </trkpt>
      <trkpt lat="44.48503" lon="6.84046">
        <ele>2223.2</ele>
        <time>2022-08-16T07:59:08Z</time>
      </trkpt>
      <trkpt lat="44.48504" lon="6.84047">
        <ele>2223.4</ele>
        <time>2022-08-16T07:59:09Z</time>
      </trkpt>
      <trkpt lat="44.48505" lon="6.84049">
        <ele>2223.6</ele>
        <time>2022-08-16T07:59:10Z</time>
      </trkpt>
      <trkpt lat="44.48505" lon="6.8405">
        <ele>2223.8</ele>
        <time>2022-08-16T07:59:11Z</time>
      </trkpt>
      <trkpt lat="44.48506" lon="6.84051">
        <ele>2224</ele>
        <time>2022-08-16T07:59:12Z</time>
      </trkpt>
      <trkpt lat="44.48506" lon="6.84053">
        <ele>2224</ele>
        <time>2022-08-16T07:59:13Z</time>
      </trkpt>
      <trkpt lat="44.48507" lon="6.84054">
        <ele>2224.2</ele>
        <time>2022-08-16T07:59:14Z</time>
      </trkpt>
      <trkpt lat="44.48508" lon="6.84055">
        <ele>2224.2</ele>
        <time>2022-08-16T07:59:15Z</time>
      </trkpt>
      <trkpt lat="44.48509" lon="6.84057">
        <ele>2224.4</ele>
        <time>2022-08-16T07:59:16Z</time>
      </trkpt>
      <trkpt lat="44.48509" lon="6.84058">
        <ele>2224.6</ele>
        <time>2022-08-16T07:59:17Z</time>
      </trkpt>
      <trkpt lat="44.4851" lon="6.8406">
        <ele>2224.8</ele>
        <time>2022-08-16T07:59:18Z</time>
      </trkpt>
      <trkpt lat="44.48511" lon="6.84061">
        <ele>2224.8</ele>
        <time>2022-08-16T07:59:19Z</time>
      </trkpt>
      <trkpt lat="44.48512" lon="6.84062">
        <ele>2225</ele>
        <time>2022-08-16T07:59:20Z</time>
      </trkpt>
      <trkpt lat="44.48512" lon="6.84064">
        <ele>2225</ele>
        <time>2022-08-16T07:59:21Z</time>
      </trkpt>
      <trkpt lat="44.48513" lon="6.84065">
        <ele>2225</ele>
        <time>2022-08-16T07:59:22Z</time>
      </trkpt>
      <trkpt lat="44.48514" lon="6.84067">
        <ele>2225.4</ele>
        <time>2022-08-16T07:59:23Z</time>
      </trkpt>
      <trkpt lat="44.48514" lon="6.84068">
        <ele>2225.6</ele>
        <time>2022-08-16T07:59:24Z</time>
      </trkpt>
      <trkpt lat="44.48514" lon="6.84069">
        <ele>2225.8</ele>
        <time>2022-08-16T07:59:25Z</time>
      </trkpt>
      <trkpt lat="44.48515" lon="6.84071">
        <ele>2226</ele>
        <time>2022-08-16T07:59:26Z</time>
      </trkpt>
      <trkpt lat="44.48516" lon="6.84072">
        <ele>2226</ele>
        <time>2022-08-16T07:59:27Z</time>
      </trkpt>
      <trkpt lat="44.48517" lon="6.84073">
        <ele>2226.2</ele>
        <time>2022-08-16T07:59:28Z</time>
      </trkpt>
      <trkpt lat="44.48518" lon="6.84074">
        <ele>2226.4</ele>
        <time>2022-08-16T07:59:29Z</time>
      </trkpt>
      <trkpt lat="44.48519" lon="6.84075">
        <ele>2226.6</ele>
        <time>2022-08-16T07:59:30Z</time>
      </trkpt>
      <trkpt lat="44.4852" lon="6.84076">
        <ele>2226.8</ele>
        <time>2022-08-16T07:59:31Z</time>
      </trkpt>
      <trkpt lat="44.48521" lon="6.84077">
        <ele>2227.2</ele>
        <time>2022-08-16T07:59:32Z</time>
      </trkpt>
      <trkpt lat="44.48522" lon="6.84078">
        <ele>2227.4</ele>
        <time>2022-08-16T07:59:33Z</time>
      </trkpt>
      <trkpt lat="44.48523" lon="6.84079">
        <ele>2227.4</ele>
        <time>2022-08-16T07:59:34Z</time>
      </trkpt>
      <trkpt lat="44.48524" lon="6.8408">
        <ele>2227.8</ele>
        <time>2022-08-16T07:59:35Z</time>
      </trkpt>
      <trkpt lat="44.48525" lon="6.84081">
        <ele>2227.8</ele>
        <time>2022-08-16T07:59:36Z</time>
      </trkpt>
      <trkpt lat="44.48526" lon="6.84082">
        <ele>2227.8</ele>
        <time>2022-08-16T07:59:37Z</time>
      </trkpt>
      <trkpt lat="44.48527" lon="6.84083">
        <ele>2227.8</ele>
        <time>2022-08-16T07:59:38Z</time>
      </trkpt>
      <trkpt lat="44.48529" lon="6.84084">
        <ele>2228</ele>
        <time>2022-08-16T07:59:39Z</time>
      </trkpt>
      <trkpt lat="44.4853" lon="6.84085">
        <ele>2228</ele>
        <time>2022-08-16T07:59:40Z</time>
      </trkpt>
      <trkpt lat="44.4853" lon="6.84087">
        <ele>2228.2</ele>
        <time>2022-08-16T07:59:41Z</time>
      </trkpt>
      <trkpt lat="44.48531" lon="6.84088">
        <ele>2228.4</ele>
        <time>2022-08-16T07:59:42Z</time>
      </trkpt>
      <trkpt lat="44.48532" lon="6.84089">
        <ele>2228.4</ele>
        <time>2022-08-16T07:59:43Z</time>
      </trkpt>
      <trkpt lat="44.48533" lon="6.8409">
        <ele>2228.4</ele>
        <time>2022-08-16T07:59:44Z</time>
      </trkpt>
      <trkpt lat="44.48534" lon="6.84092">
        <ele>2228.6</ele>
        <time>2022-08-16T07:59:45Z</time>
      </trkpt>
      <trkpt lat="44.48534" lon="6.84093">
        <ele>2228.6</ele>
        <time>2022-08-16T07:59:46Z</time>
      </trkpt>
      <trkpt lat="44.48535" lon="6.84094">
        <ele>2229</ele>
        <time>2022-08-16T07:59:47Z</time>
      </trkpt>
      <trkpt lat="44.48536" lon="6.84095">
        <ele>2229.2</ele>
        <time>2022-08-16T07:59:48Z</time>
      </trkpt>
      <trkpt lat="44.48536" lon="6.84096">
        <ele>2229.4</ele>
        <time>2022-08-16T07:59:49Z</time>
      </trkpt>
      <trkpt lat="44.48537" lon="6.84097">
        <ele>2229.6</ele>
        <time>2022-08-16T07:59:50Z</time>
      </trkpt>
      <trkpt lat="44.48538" lon="6.84098">
        <ele>2229.6</ele>
        <time>2022-08-16T07:59:51Z</time>
      </trkpt>
      <trkpt lat="44.48539" lon="6.841">
        <ele>2229.8</ele>
        <time>2022-08-16T07:59:52Z</time>
      </trkpt>
      <trkpt lat="44.4854" lon="6.84101">
        <ele>2230</ele>
        <time>2022-08-16T07:59:53Z</time>
      </trkpt>
      <trkpt lat="44.48541" lon="6.84102">
        <ele>2230.2</ele>
        <time>2022-08-16T07:59:54Z</time>
      </trkpt>
      <trkpt lat="44.48542" lon="6.84102">
        <ele>2230.2</ele>
        <time>2022-08-16T07:59:55Z</time>
      </trkpt>
      <trkpt lat="44.48543" lon="6.84103">
        <ele>2230.4</ele>
        <time>2022-08-16T07:59:56Z</time>
      </trkpt>
      <trkpt lat="44.48544" lon="6.84104">
        <ele>2230.8</ele>
        <time>2022-08-16T07:59:57Z</time>
      </trkpt>
      <trkpt lat="44.48545" lon="6.84104">
        <ele>2231</ele>
        <time>2022-08-16T07:59:58Z</time>
      </trkpt>
      <trkpt lat="44.48546" lon="6.84105">
        <ele>2231.2</ele>
        <time>2022-08-16T07:59:59Z</time>
      </trkpt>
      <trkpt lat="44.48547" lon="6.84106">
        <ele>2231.2</ele>
        <time>2022-08-16T08:00:00Z</time>
      </trkpt>
      <trkpt lat="44.48548" lon="6.84107">
        <ele>2231.4</ele>
        <time>2022-08-16T08:00:01Z</time>
      </trkpt>
      <trkpt lat="44.48549" lon="6.84108">
        <ele>2231.4</ele>
        <time>2022-08-16T08:00:02Z</time>
      </trkpt>
      <trkpt lat="44.4855" lon="6.84109">
        <ele>2231.6</ele>
        <time>2022-08-16T08:00:03Z</time>
      </trkpt>
      <trkpt lat="44.48551" lon="6.8411">
        <ele>2231.6</ele>
        <time>2022-08-16T08:00:04Z</time>
      </trkpt>
      <trkpt lat="44.48552" lon="6.84112">
        <ele>2231.6</ele>
        <time>2022-08-16T08:00:05Z</time>
      </trkpt>
      <trkpt lat="44.48552" lon="6.84113">
        <ele>2231.8</ele>
        <time>2022-08-16T08:00:06Z</time>
      </trkpt>
      <trkpt lat="44.48553" lon="6.84114">
        <ele>2232.2</ele>
        <time>2022-08-16T08:00:07Z</time>
      </trkpt>
      <trkpt lat="44.48553" lon="6.84116">
        <ele>2232.2</ele>
        <time>2022-08-16T08:00:08Z</time>
      </trkpt>
      <trkpt lat="44.48553" lon="6.84117">
        <ele>2232.6</ele>
        <time>2022-08-16T08:00:09Z</time>
      </trkpt>
      <trkpt lat="44.48554" lon="6.84119">
        <ele>2232.6</ele>
        <time>2022-08-16T08:00:10Z</time>
      </trkpt>
      <trkpt lat="44.48554" lon="6.84121">
        <ele>2232.6</ele>
        <time>2022-08-16T08:00:11Z</time>
      </trkpt>
      <trkpt lat="44.48554" lon="6.84122">
        <ele>2232.8</ele>
        <time>2022-08-16T08:00:12Z</time>
      </trkpt>
      <trkpt lat="44.48554" lon="6.84124">
        <ele>2233</ele>
        <time>2022-08-16T08:00:13Z</time>
      </trkpt>
      <trkpt lat="44.48554" lon="6.84126">
        <ele>2233</ele>
        <time>2022-08-16T08:00:14Z</time>
      </trkpt>
      <trkpt lat="44.48554" lon="6.84127">
        <ele>2233.2</ele>
        <time>2022-08-16T08:00:15Z</time>
      </trkpt>
      <trkpt lat="44.48554" lon="6.84129">
        <ele>2233.4</ele>
        <time>2022-08-16T08:00:16Z</time>
      </trkpt>
      <trkpt lat="44.48554" lon="6.84131">
        <ele>2233.6</ele>
        <time>2022-08-16T08:00:17Z</time>
      </trkpt>
      <trkpt lat="44.48554" lon="6.84132">
        <ele>2233.6</ele>
        <time>2022-08-16T08:00:18Z</time>
      </trkpt>
      <trkpt lat="44.48554" lon="6.84134">
        <ele>2234</ele>
        <time>2022-08-16T08:00:19Z</time>
      </trkpt>
      <trkpt lat="44.48554" lon="6.84136">
        <ele>2234.2</ele>
        <time>2022-08-16T08:00:20Z</time>
      </trkpt>
      <trkpt lat="44.48554" lon="6.84137">
        <ele>2234.2</ele>
        <time>2022-08-16T08:00:21Z</time>
      </trkpt>
      <trkpt lat="44.48554" lon="6.84139">
        <ele>2234.2</ele>
        <time>2022-08-16T08:00:22Z</time>
      </trkpt>
      <trkpt lat="44.48554" lon="6.84141">
        <ele>2234.2</ele>
        <time>2022-08-16T08:00:23Z</time>
      </trkpt>
      <trkpt lat="44.48554" lon="6.84142">
        <ele>2234.4</ele>
        <time>2022-08-16T08:00:24Z</time>
      </trkpt>
      <trkpt lat="44.48555" lon="6.84144">
        <ele>2234.6</ele>
        <time>2022-08-16T08:00:25Z</time>
      </trkpt>
      <trkpt lat="44.48555" lon="6.84145">
        <ele>2234.6</ele>
        <time>2022-08-16T08:00:26Z</time>
      </trkpt>
      <trkpt lat="44.48555" lon="6.84147">
        <ele>2234.8</ele>
        <time>2022-08-16T08:00:27Z</time>
      </trkpt>
      <trkpt lat="44.48555" lon="6.84149">
        <ele>2235</ele>
        <time>2022-08-16T08:00:28Z</time>
      </trkpt>
      <trkpt lat="44.48555" lon="6.84151">
        <ele>2235.2</ele>
        <time>2022-08-16T08:00:29Z</time>
      </trkpt>
      <trkpt lat="44.48555" lon="6.84152">
        <ele>2235.2</ele>
        <time>2022-08-16T08:00:30Z</time>
      </trkpt>
      <trkpt lat="44.48555" lon="6.84154">
        <ele>2235.4</ele>
        <time>2022-08-16T08:00:31Z</time>
      </trkpt>
      <trkpt lat="44.48555" lon="6.84156">
        <ele>2235.6</ele>
        <time>2022-08-16T08:00:32Z</time>
      </trkpt>
      <trkpt lat="44.48555" lon="6.84158">
        <ele>2235.8</ele>
        <time>2022-08-16T08:00:33Z</time>
      </trkpt>
      <trkpt lat="44.48555" lon="6.84159">
        <ele>2235.8</ele>
        <time>2022-08-16T08:00:34Z</time>
      </trkpt>
      <trkpt lat="44.48555" lon="6.84161">
        <ele>2236.2</ele>
        <time>2022-08-16T08:00:35Z</time>
      </trkpt>
      <trkpt lat="44.48555" lon="6.84162">
        <ele>2236.4</ele>
        <time>2022-08-16T08:00:36Z</time>
      </trkpt>
      <trkpt lat="44.48555" lon="6.84164">
        <ele>2236.4</ele>
        <time>2022-08-16T08:00:37Z</time>
      </trkpt>
      <trkpt lat="44.48555" lon="6.84165">
        <ele>2236.4</ele>
        <time>2022-08-16T08:00:38Z</time>
      </trkpt>
      <trkpt lat="44.48555" lon="6.84167">
        <ele>2236.6</ele>
        <time>2022-08-16T08:00:39Z</time>
      </trkpt>
      <trkpt lat="44.48556" lon="6.84168">
        <ele>2237</ele>
        <time>2022-08-16T08:00:40Z</time>
      </trkpt>
      <trkpt lat="44.48556" lon="6.8417">
        <ele>2237</ele>
        <time>2022-08-16T08:00:41Z</time>
      </trkpt>
      <trkpt lat="44.48556" lon="6.84172">
        <ele>2237.2</ele>
        <time>2022-08-16T08:00:42Z</time>
      </trkpt>
      <trkpt lat="44.48556" lon="6.84173">
        <ele>2237.4</ele>
        <time>2022-08-16T08:00:43Z</time>
      </trkpt>
      <trkpt lat="44.48556" lon="6.84175">
        <ele>2237.6</ele>
        <time>2022-08-16T08:00:44Z</time>
      </trkpt>
      <trkpt lat="44.48556" lon="6.84177">
        <ele>2237.6</ele>
        <time>2022-08-16T08:00:45Z</time>
      </trkpt>
      <trkpt lat="44.48556" lon="6.84178">
        <ele>2237.8</ele>
        <time>2022-08-16T08:00:46Z</time>
      </trkpt>
      <trkpt lat="44.48556" lon="6.8418">
        <ele>2237.8</ele>
        <time>2022-08-16T08:00:47Z</time>
      </trkpt>
      <trkpt lat="44.48556" lon="6.84181">
        <ele>2238</ele>
        <time>2022-08-16T08:00:48Z</time>
      </trkpt>
      <trkpt lat="44.48556" lon="6.84183">
        <ele>2238.4</ele>
        <time>2022-08-16T08:00:49Z</time>
      </trkpt>
      <trkpt lat="44.48556" lon="6.84185">
        <ele>2238.4</ele>
        <time>2022-08-16T08:00:50Z</time>
      </trkpt>
      <trkpt lat="44.48556" lon="6.84186">
        <ele>2238.6</ele>
        <time>2022-08-16T08:00:51Z</time>
      </trkpt>
      <trkpt lat="44.48556" lon="6.84188">
        <ele>2238.8</ele>
        <time>2022-08-16T08:00:52Z</time>
      </trkpt>
      <trkpt lat="44.48556" lon="6.84189">
        <ele>2238.8</ele>
        <time>2022-08-16T08:00:53Z</time>
      </trkpt>
      <trkpt lat="44.48556" lon="6.84191">
        <ele>2239</ele>
        <time>2022-08-16T08:00:54Z</time>
      </trkpt>
      <trkpt lat="44.48556" lon="6.84193">
        <ele>2239.2</ele>
        <time>2022-08-16T08:00:55Z</time>
      </trkpt>
      <trkpt lat="44.48556" lon="6.84194">
        <ele>2239.4</ele>
        <time>2022-08-16T08:00:56Z</time>
      </trkpt>
      <trkpt lat="44.48557" lon="6.84196">
        <ele>2239.8</ele>
        <time>2022-08-16T08:00:57Z</time>
      </trkpt>
      <trkpt lat="44.48556" lon="6.84198">
        <ele>2239.6</ele>
        <time>2022-08-16T08:00:58Z</time>
      </trkpt>
      <trkpt lat="44.48556" lon="6.84199">
        <ele>2240</ele>
        <time>2022-08-16T08:00:59Z</time>
      </trkpt>
      <trkpt lat="44.48556" lon="6.84201">
        <ele>2240</ele>
        <time>2022-08-16T08:01:00Z</time>
      </trkpt>
      <trkpt lat="44.48556" lon="6.84203">
        <ele>2240.2</ele>
        <time>2022-08-16T08:01:01Z</time>
      </trkpt>
      <trkpt lat="44.48557" lon="6.84204">
        <ele>2240.4</ele>
        <time>2022-08-16T08:01:02Z</time>
      </trkpt>
      <trkpt lat="44.48557" lon="6.84206">
        <ele>2240.4</ele>
        <time>2022-08-16T08:01:03Z</time>
      </trkpt>
      <trkpt lat="44.48557" lon="6.84208">
        <ele>2240.6</ele>
        <time>2022-08-16T08:01:04Z</time>
      </trkpt>
      <trkpt lat="44.48556" lon="6.84209">
        <ele>2240.8</ele>
        <time>2022-08-16T08:01:05Z</time>
      </trkpt>
      <trkpt lat="44.48556" lon="6.8421">
        <ele>2240.8</ele>
        <time>2022-08-16T08:01:06Z</time>
      </trkpt>
      <trkpt lat="44.48556" lon="6.84212">
        <ele>2241</ele>
        <time>2022-08-16T08:01:07Z</time>
      </trkpt>
      <trkpt lat="44.48555" lon="6.84213">
        <ele>2241</ele>
        <time>2022-08-16T08:01:08Z</time>
      </trkpt>
      <trkpt lat="44.48555" lon="6.84215">
        <ele>2241.2</ele>
        <time>2022-08-16T08:01:09Z</time>
      </trkpt>
      <trkpt lat="44.48554" lon="6.84216">
        <ele>2241.4</ele>
        <time>2022-08-16T08:01:10Z</time>
      </trkpt>
      <trkpt lat="44.48553" lon="6.84217">
        <ele>2241.6</ele>
        <time>2022-08-16T08:01:11Z</time>
      </trkpt>
      <trkpt lat="44.48552" lon="6.84219">
        <ele>2241.6</ele>
        <time>2022-08-16T08:01:12Z</time>
      </trkpt>
      <trkpt lat="44.48551" lon="6.8422">
        <ele>2241.8</ele>
        <time>2022-08-16T08:01:13Z</time>
      </trkpt>
      <trkpt lat="44.4855" lon="6.8422">
        <ele>2241.8</ele>
        <time>2022-08-16T08:01:14Z</time>
      </trkpt>
      <trkpt lat="44.48549" lon="6.84221">
        <ele>2242</ele>
        <time>2022-08-16T08:01:15Z</time>
      </trkpt>
      <trkpt lat="44.48548" lon="6.84221">
        <ele>2242.2</ele>
        <time>2022-08-16T08:01:16Z</time>
      </trkpt>
      <trkpt lat="44.48547" lon="6.84222">
        <ele>2242.2</ele>
        <time>2022-08-16T08:01:17Z</time>
      </trkpt>
      <trkpt lat="44.48546" lon="6.84222">
        <ele>2242.4</ele>
        <time>2022-08-16T08:01:18Z</time>
      </trkpt>
      <trkpt lat="44.48545" lon="6.84223">
        <ele>2242.4</ele>
        <time>2022-08-16T08:01:19Z</time>
      </trkpt>
      <trkpt lat="44.48544" lon="6.84223">
        <ele>2242.6</ele>
        <time>2022-08-16T08:01:20Z</time>
      </trkpt>
      <trkpt lat="44.48543" lon="6.84223">
        <ele>2242.6</ele>
        <time>2022-08-16T08:01:21Z</time>
      </trkpt>
      <trkpt lat="44.48541" lon="6.84223">
        <ele>2242.8</ele>
        <time>2022-08-16T08:01:22Z</time>
      </trkpt>
      <trkpt lat="44.4854" lon="6.84223">
        <ele>2243</ele>
        <time>2022-08-16T08:01:23Z</time>
      </trkpt>
      <trkpt lat="44.48539" lon="6.84223">
        <ele>2243.2</ele>
        <time>2022-08-16T08:01:24Z</time>
      </trkpt>
      <trkpt lat="44.48537" lon="6.84223">
        <ele>2243.4</ele>
        <time>2022-08-16T08:01:25Z</time>
      </trkpt>
      <trkpt lat="44.48536" lon="6.84224">
        <ele>2243.4</ele>
        <time>2022-08-16T08:01:26Z</time>
      </trkpt>
      <trkpt lat="44.48535" lon="6.84224">
        <ele>2243.6</ele>
        <time>2022-08-16T08:01:27Z</time>
      </trkpt>
      <trkpt lat="44.48534" lon="6.84224">
        <ele>2243.8</ele>
        <time>2022-08-16T08:01:28Z</time>
      </trkpt>
      <trkpt lat="44.48533" lon="6.84224">
        <ele>2244.2</ele>
        <time>2022-08-16T08:01:29Z</time>
      </trkpt>
      <trkpt lat="44.48532" lon="6.84224">
        <ele>2244.2</ele>
        <time>2022-08-16T08:01:30Z</time>
      </trkpt>
      <trkpt lat="44.48531" lon="6.84225">
        <ele>2244.2</ele>
        <time>2022-08-16T08:01:31Z</time>
      </trkpt>
      <trkpt lat="44.4853" lon="6.84226">
        <ele>2244.6</ele>
        <time>2022-08-16T08:01:32Z</time>
      </trkpt>
      <trkpt lat="44.48529" lon="6.84226">
        <ele>2244.8</ele>
        <time>2022-08-16T08:01:33Z</time>
      </trkpt>
      <trkpt lat="44.48527" lon="6.84226">
        <ele>2245</ele>
        <time>2022-08-16T08:01:34Z</time>
      </trkpt>
      <trkpt lat="44.48526" lon="6.84227">
        <ele>2245.4</ele>
        <time>2022-08-16T08:01:35Z</time>
      </trkpt>
      <trkpt lat="44.48525" lon="6.84226">
        <ele>2245.6</ele>
        <time>2022-08-16T08:01:36Z</time>
      </trkpt>
      <trkpt lat="44.48524" lon="6.84226">
        <ele>2245.8</ele>
        <time>2022-08-16T08:01:37Z</time>
      </trkpt>
      <trkpt lat="44.48523" lon="6.84227">
        <ele>2246</ele>
        <time>2022-08-16T08:01:38Z</time>
      </trkpt>
      <trkpt lat="44.48522" lon="6.84227">
        <ele>2246</ele>
        <time>2022-08-16T08:01:39Z</time>
      </trkpt>
      <trkpt lat="44.48521" lon="6.84227">
        <ele>2246.2</ele>
        <time>2022-08-16T08:01:40Z</time>
      </trkpt>
      <trkpt lat="44.4852" lon="6.84227">
        <ele>2246.4</ele>
        <time>2022-08-16T08:01:41Z</time>
      </trkpt>
      <trkpt lat="44.48519" lon="6.84227">
        <ele>2246.4</ele>
        <time>2022-08-16T08:01:42Z</time>
      </trkpt>
      <trkpt lat="44.48518" lon="6.84227">
        <ele>2246.8</ele>
        <time>2022-08-16T08:01:43Z</time>
      </trkpt>
      <trkpt lat="44.48517" lon="6.84226">
        <ele>2246.8</ele>
        <time>2022-08-16T08:01:44Z</time>
      </trkpt>
      <trkpt lat="44.48516" lon="6.84226">
        <ele>2247.2</ele>
        <time>2022-08-16T08:01:45Z</time>
      </trkpt>
      <trkpt lat="44.48515" lon="6.84226">
        <ele>2247.2</ele>
        <time>2022-08-16T08:01:46Z</time>
      </trkpt>
      <trkpt lat="44.48514" lon="6.84225">
        <ele>2247.2</ele>
        <time>2022-08-16T08:01:47Z</time>
      </trkpt>
      <trkpt lat="44.48513" lon="6.84224">
        <ele>2247.6</ele>
        <time>2022-08-16T08:01:48Z</time>
      </trkpt>
      <trkpt lat="44.48513" lon="6.84223">
        <ele>2247.6</ele>
        <time>2022-08-16T08:01:49Z</time>
      </trkpt>
      <trkpt lat="44.48512" lon="6.84222">
        <ele>2248</ele>
        <time>2022-08-16T08:01:50Z</time>
      </trkpt>
      <trkpt lat="44.48511" lon="6.84221">
        <ele>2248.4</ele>
        <time>2022-08-16T08:01:51Z</time>
      </trkpt>
      <trkpt lat="44.4851" lon="6.8422">
        <ele>2248.4</ele>
        <time>2022-08-16T08:01:52Z</time>
      </trkpt>
      <trkpt lat="44.48509" lon="6.84219">
        <ele>2248.4</ele>
        <time>2022-08-16T08:01:53Z</time>
      </trkpt>
      <trkpt lat="44.48508" lon="6.84218">
        <ele>2248.4</ele>
        <time>2022-08-16T08:01:54Z</time>
      </trkpt>
      <trkpt lat="44.48508" lon="6.84217">
        <ele>2248.6</ele>
        <time>2022-08-16T08:01:55Z</time>
      </trkpt>
      <trkpt lat="44.48507" lon="6.84215">
        <ele>2248.8</ele>
        <time>2022-08-16T08:01:56Z</time>
      </trkpt>
      <trkpt lat="44.48506" lon="6.84214">
        <ele>2249.2</ele>
        <time>2022-08-16T08:01:57Z</time>
      </trkpt>
      <trkpt lat="44.48505" lon="6.84212">
        <ele>2249.2</ele>
        <time>2022-08-16T08:01:58Z</time>
      </trkpt>
      <trkpt lat="44.48504" lon="6.84211">
        <ele>2249.4</ele>
        <time>2022-08-16T08:01:59Z</time>
      </trkpt>
      <trkpt lat="44.48504" lon="6.84209">
        <ele>2249.4</ele>
        <time>2022-08-16T08:02:00Z</time>
      </trkpt>
      <trkpt lat="44.48503" lon="6.84208">
        <ele>2249.6</ele>
        <time>2022-08-16T08:02:01Z</time>
      </trkpt>
      <trkpt lat="44.48502" lon="6.84207">
        <ele>2249.8</ele>
        <time>2022-08-16T08:02:02Z</time>
      </trkpt>
      <trkpt lat="44.48501" lon="6.84206">
        <ele>2249.6</ele>
        <time>2022-08-16T08:02:03Z</time>
      </trkpt>
      <trkpt lat="44.485" lon="6.84206">
        <ele>2249.8</ele>
        <time>2022-08-16T08:02:04Z</time>
      </trkpt>
      <trkpt lat="44.48499" lon="6.84206">
        <ele>2249.8</ele>
        <time>2022-08-16T08:02:05Z</time>
      </trkpt>
      <trkpt lat="44.48498" lon="6.84207">
        <ele>2250.2</ele>
        <time>2022-08-16T08:02:06Z</time>
      </trkpt>
      <trkpt lat="44.48497" lon="6.84208">
        <ele>2250.2</ele>
        <time>2022-08-16T08:02:07Z</time>
      </trkpt>
      <trkpt lat="44.48496" lon="6.84209">
        <ele>2250.4</ele>
        <time>2022-08-16T08:02:08Z</time>
      </trkpt>
      <trkpt lat="44.48496" lon="6.84211">
        <ele>2250.6</ele>
        <time>2022-08-16T08:02:09Z</time>
      </trkpt>
      <trkpt lat="44.48496" lon="6.84213">
        <ele>2250.8</ele>
        <time>2022-08-16T08:02:10Z</time>
      </trkpt>
      <trkpt lat="44.48496" lon="6.84215">
        <ele>2250.6</ele>
        <time>2022-08-16T08:02:11Z</time>
      </trkpt>
      <trkpt lat="44.48496" lon="6.84216">
        <ele>2251</ele>
        <time>2022-08-16T08:02:12Z</time>
      </trkpt>
      <trkpt lat="44.48496" lon="6.84218">
        <ele>2251</ele>
        <time>2022-08-16T08:02:13Z</time>
      </trkpt>
      <trkpt lat="44.48495" lon="6.84219">
        <ele>2251.2</ele>
        <time>2022-08-16T08:02:14Z</time>
      </trkpt>
      <trkpt lat="44.48494" lon="6.84221">
        <ele>2251.6</ele>
        <time>2022-08-16T08:02:15Z</time>
      </trkpt>
      <trkpt lat="44.48494" lon="6.84223">
        <ele>2251.6</ele>
        <time>2022-08-16T08:02:16Z</time>
      </trkpt>
      <trkpt lat="44.48494" lon="6.84225">
        <ele>2251.6</ele>
        <time>2022-08-16T08:02:17Z</time>
      </trkpt>
      <trkpt lat="44.48493" lon="6.84226">
        <ele>2251.8</ele>
        <time>2022-08-16T08:02:18Z</time>
      </trkpt>
      <trkpt lat="44.48493" lon="6.84228">
        <ele>2252</ele>
        <time>2022-08-16T08:02:19Z</time>
      </trkpt>
      <trkpt lat="44.48493" lon="6.84229">
        <ele>2252.2</ele>
        <time>2022-08-16T08:02:20Z</time>
      </trkpt>
      <trkpt lat="44.48493" lon="6.84231">
        <ele>2252.4</ele>
        <time>2022-08-16T08:02:21Z</time>
      </trkpt>
      <trkpt lat="44.48493" lon="6.84233">
        <ele>2252.4</ele>
        <time>2022-08-16T08:02:22Z</time>
      </trkpt>
      <trkpt lat="44.48493" lon="6.84235">
        <ele>2253</ele>
        <time>2022-08-16T08:02:23Z</time>
      </trkpt>
      <trkpt lat="44.48493" lon="6.84236">
        <ele>2253</ele>
        <time>2022-08-16T08:02:24Z</time>
      </trkpt>
      <trkpt lat="44.48493" lon="6.84238">
        <ele>2253.2</ele>
        <time>2022-08-16T08:02:25Z</time>
      </trkpt>
      <trkpt lat="44.48493" lon="6.8424">
        <ele>2253.4</ele>
        <time>2022-08-16T08:02:26Z</time>
      </trkpt>
      <trkpt lat="44.48493" lon="6.84242">
        <ele>2253.6</ele>
        <time>2022-08-16T08:02:27Z</time>
      </trkpt>
      <trkpt lat="44.48493" lon="6.84244">
        <ele>2253.8</ele>
        <time>2022-08-16T08:02:28Z</time>
      </trkpt>
      <trkpt lat="44.48493" lon="6.84246">
        <ele>2254</ele>
        <time>2022-08-16T08:02:29Z</time>
      </trkpt>
      <trkpt lat="44.48493" lon="6.84248">
        <ele>2254.2</ele>
        <time>2022-08-16T08:02:30Z</time>
      </trkpt>
      <trkpt lat="44.48494" lon="6.84249">
        <ele>2254.2</ele>
        <time>2022-08-16T08:02:31Z</time>
      </trkpt>
      <trkpt lat="44.48494" lon="6.84251">
        <ele>2254.4</ele>
        <time>2022-08-16T08:02:32Z</time>
      </trkpt>
      <trkpt lat="44.48494" lon="6.84253">
        <ele>2254.4</ele>
        <time>2022-08-16T08:02:33Z</time>
      </trkpt>
      <trkpt lat="44.48495" lon="6.84255">
        <ele>2254.8</ele>
        <time>2022-08-16T08:02:34Z</time>
      </trkpt>
      <trkpt lat="44.48496" lon="6.84256">
        <ele>2255</ele>
        <time>2022-08-16T08:02:35Z</time>
      </trkpt>
      <trkpt lat="44.48496" lon="6.84258">
        <ele>2255.4</ele>
        <time>2022-08-16T08:02:36Z</time>
      </trkpt>
      <trkpt lat="44.48497" lon="6.8426">
        <ele>2255.4</ele>
        <time>2022-08-16T08:02:37Z</time>
      </trkpt>
      <trkpt lat="44.48497" lon="6.84261">
        <ele>2255.6</ele>
        <time>2022-08-16T08:02:38Z</time>
      </trkpt>
      <trkpt lat="44.48498" lon="6.84263">
        <ele>2255.6</ele>
        <time>2022-08-16T08:02:39Z</time>
      </trkpt>
      <trkpt lat="44.48498" lon="6.84264">
        <ele>2255.6</ele>
        <time>2022-08-16T08:02:40Z</time>
      </trkpt>
      <trkpt lat="44.48499" lon="6.84266">
        <ele>2256</ele>
        <time>2022-08-16T08:02:41Z</time>
      </trkpt>
      <trkpt lat="44.485" lon="6.84267">
        <ele>2256</ele>
        <time>2022-08-16T08:02:42Z</time>
      </trkpt>
      <trkpt lat="44.485" lon="6.84268">
        <ele>2256.4</ele>
        <time>2022-08-16T08:02:43Z</time>
      </trkpt>
      <trkpt lat="44.48501" lon="6.8427">
        <ele>2256.4</ele>
        <time>2022-08-16T08:02:44Z</time>
      </trkpt>
      <trkpt lat="44.48502" lon="6.84271">
        <ele>2256.4</ele>
        <time>2022-08-16T08:02:45Z</time>
      </trkpt>
      <trkpt lat="44.48502" lon="6.84273">
        <ele>2256.6</ele>
        <time>2022-08-16T08:02:46Z</time>
      </trkpt>
      <trkpt lat="44.48503" lon="6.84274">
        <ele>2256.8</ele>
        <time>2022-08-16T08:02:47Z</time>
      </trkpt>
      <trkpt lat="44.48504" lon="6.84276">
        <ele>2257</ele>
        <time>2022-08-16T08:02:48Z</time>
      </trkpt>
      <trkpt lat="44.48504" lon="6.84277">
        <ele>2257.2</ele>
        <time>2022-08-16T08:02:49Z</time>
      </trkpt>
      <trkpt lat="44.48505" lon="6.84279">
        <ele>2257.4</ele>
        <time>2022-08-16T08:02:50Z</time>
      </trkpt>
      <trkpt lat="44.48506" lon="6.8428">
        <ele>2257.4</ele>
        <time>2022-08-16T08:02:51Z</time>
      </trkpt>
      <trkpt lat="44.48507" lon="6.84282">
        <ele>2257.6</ele>
        <time>2022-08-16T08:02:52Z</time>
      </trkpt>
      <trkpt lat="44.48507" lon="6.84283">
        <ele>2257.6</ele>
        <time>2022-08-16T08:02:53Z</time>
      </trkpt>
      <trkpt lat="44.48508" lon="6.84285">
        <ele>2257.8</ele>
        <time>2022-08-16T08:02:54Z</time>
      </trkpt>
      <trkpt lat="44.48508" lon="6.84286">
        <ele>2258</ele>
        <time>2022-08-16T08:02:55Z</time>
      </trkpt>
      <trkpt lat="44.48509" lon="6.84288">
        <ele>2258</ele>
        <time>2022-08-16T08:02:56Z</time>
      </trkpt>
      <trkpt lat="44.4851" lon="6.84289">
        <ele>2258.2</ele>
        <time>2022-08-16T08:02:57Z</time>
      </trkpt>
      <trkpt lat="44.4851" lon="6.84291">
        <ele>2258.6</ele>
        <time>2022-08-16T08:02:58Z</time>
      </trkpt>
      <trkpt lat="44.48511" lon="6.84293">
        <ele>2258.6</ele>
        <time>2022-08-16T08:02:59Z</time>
      </trkpt>
      <trkpt lat="44.48511" lon="6.84294">
        <ele>2258.8</ele>
        <time>2022-08-16T08:03:00Z</time>
      </trkpt>
      <trkpt lat="44.48512" lon="6.84296">
        <ele>2258.8</ele>
        <time>2022-08-16T08:03:01Z</time>
      </trkpt>
      <trkpt lat="44.48513" lon="6.84297">
        <ele>2259</ele>
        <time>2022-08-16T08:03:02Z</time>
      </trkpt>
      <trkpt lat="44.48513" lon="6.84299">
        <ele>2259</ele>
        <time>2022-08-16T08:03:03Z</time>
      </trkpt>
      <trkpt lat="44.48514" lon="6.843">
        <ele>2259.2</ele>
        <time>2022-08-16T08:03:04Z</time>
      </trkpt>
      <trkpt lat="44.48515" lon="6.84301">
        <ele>2259.2</ele>
        <time>2022-08-16T08:03:05Z</time>
      </trkpt>
      <trkpt lat="44.48516" lon="6.84303">
        <ele>2259.6</ele>
        <time>2022-08-16T08:03:06Z</time>
      </trkpt>
      <trkpt lat="44.48516" lon="6.84304">
        <ele>2259.6</ele>
        <time>2022-08-16T08:03:07Z</time>
      </trkpt>
      <trkpt lat="44.48517" lon="6.84306">
        <ele>2259.8</ele>
        <time>2022-08-16T08:03:08Z</time>
      </trkpt>
      <trkpt lat="44.48517" lon="6.84307">
        <ele>2259.8</ele>
        <time>2022-08-16T08:03:09Z</time>
      </trkpt>
      <trkpt lat="44.48518" lon="6.84309">
        <ele>2260</ele>
        <time>2022-08-16T08:03:10Z</time>
      </trkpt>
      <trkpt lat="44.48518" lon="6.8431">
        <ele>2260.2</ele>
        <time>2022-08-16T08:03:11Z</time>
      </trkpt>
      <trkpt lat="44.48519" lon="6.84312">
        <ele>2260.4</ele>
        <time>2022-08-16T08:03:12Z</time>
      </trkpt>
      <trkpt lat="44.48519" lon="6.84314">
        <ele>2260.6</ele>
        <time>2022-08-16T08:03:13Z</time>
      </trkpt>
      <trkpt lat="44.4852" lon="6.84315">
        <ele>2260.8</ele>
        <time>2022-08-16T08:03:14Z</time>
      </trkpt>
      <trkpt lat="44.48521" lon="6.84317">
        <ele>2261</ele>
        <time>2022-08-16T08:03:15Z</time>
      </trkpt>
      <trkpt lat="44.48521" lon="6.84318">
        <ele>2261.2</ele>
        <time>2022-08-16T08:03:16Z</time>
      </trkpt>
      <trkpt lat="44.48522" lon="6.8432">
        <ele>2261.2</ele>
        <time>2022-08-16T08:03:17Z</time>
      </trkpt>
      <trkpt lat="44.48523" lon="6.84321">
        <ele>2261.4</ele>
        <time>2022-08-16T08:03:18Z</time>
      </trkpt>
      <trkpt lat="44.48524" lon="6.84322">
        <ele>2261.4</ele>
        <time>2022-08-16T08:03:19Z</time>
      </trkpt>
      <trkpt lat="44.48525" lon="6.84323">
        <ele>2261.6</ele>
        <time>2022-08-16T08:03:20Z</time>
      </trkpt>
      <trkpt lat="44.48526" lon="6.84324">
        <ele>2261.8</ele>
        <time>2022-08-16T08:03:21Z</time>
      </trkpt>
      <trkpt lat="44.48527" lon="6.84324">
        <ele>2261.8</ele>
        <time>2022-08-16T08:03:22Z</time>
      </trkpt>
      <trkpt lat="44.48529" lon="6.84325">
        <ele>2262.2</ele>
        <time>2022-08-16T08:03:23Z</time>
      </trkpt>
      <trkpt lat="44.4853" lon="6.84325">
        <ele>2262.2</ele>
        <time>2022-08-16T08:03:24Z</time>
      </trkpt>
      <trkpt lat="44.48531" lon="6.84325">
        <ele>2262.4</ele>
        <time>2022-08-16T08:03:25Z</time>
      </trkpt>
      <trkpt lat="44.48532" lon="6.84325">
        <ele>2262.4</ele>
        <time>2022-08-16T08:03:26Z</time>
      </trkpt>
      <trkpt lat="44.48534" lon="6.84325">
        <ele>2262.6</ele>
        <time>2022-08-16T08:03:27Z</time>
      </trkpt>
      <trkpt lat="44.48535" lon="6.84325">
        <ele>2262.6</ele>
        <time>2022-08-16T08:03:28Z</time>
      </trkpt>
      <trkpt lat="44.48536" lon="6.84325">
        <ele>2263</ele>
        <time>2022-08-16T08:03:29Z</time>
      </trkpt>
      <trkpt lat="44.48537" lon="6.84326">
        <ele>2263</ele>
        <time>2022-08-16T08:03:30Z</time>
      </trkpt>
      <trkpt lat="44.48538" lon="6.84327">
        <ele>2263.2</ele>
        <time>2022-08-16T08:03:31Z</time>
      </trkpt>
      <trkpt lat="44.48539" lon="6.84328">
        <ele>2263.4</ele>
        <time>2022-08-16T08:03:32Z</time>
      </trkpt>
      <trkpt lat="44.4854" lon="6.84328">
        <ele>2263.4</ele>
        <time>2022-08-16T08:03:33Z</time>
      </trkpt>
      <trkpt lat="44.48541" lon="6.84329">
        <ele>2263.6</ele>
        <time>2022-08-16T08:03:34Z</time>
      </trkpt>
      <trkpt lat="44.48542" lon="6.8433">
        <ele>2263.8</ele>
        <time>2022-08-16T08:03:35Z</time>
      </trkpt>
      <trkpt lat="44.48543" lon="6.84331">
        <ele>2264</ele>
        <time>2022-08-16T08:03:36Z</time>
      </trkpt>
      <trkpt lat="44.48544" lon="6.84332">
        <ele>2264</ele>
        <time>2022-08-16T08:03:37Z</time>
      </trkpt>
      <trkpt lat="44.48545" lon="6.84333">
        <ele>2264.2</ele>
        <time>2022-08-16T08:03:38Z</time>
      </trkpt>
      <trkpt lat="44.48546" lon="6.84334">
        <ele>2264.2</ele>
        <time>2022-08-16T08:03:39Z</time>
      </trkpt>
      <trkpt lat="44.48548" lon="6.84335">
        <ele>2264.4</ele>
        <time>2022-08-16T08:03:40Z</time>
      </trkpt>
      <trkpt lat="44.48549" lon="6.84336">
        <ele>2264.8</ele>
        <time>2022-08-16T08:03:41Z</time>
      </trkpt>
      <trkpt lat="44.4855" lon="6.84337">
        <ele>2264.8</ele>
        <time>2022-08-16T08:03:42Z</time>
      </trkpt>
      <trkpt lat="44.48551" lon="6.84338">
        <ele>2265</ele>
        <time>2022-08-16T08:03:43Z</time>
      </trkpt>
      <trkpt lat="44.48552" lon="6.84339">
        <ele>2265.2</ele>
        <time>2022-08-16T08:03:44Z</time>
      </trkpt>
      <trkpt lat="44.48552" lon="6.84341">
        <ele>2265.2</ele>
        <time>2022-08-16T08:03:45Z</time>
      </trkpt>
      <trkpt lat="44.48553" lon="6.84342">
        <ele>2265.6</ele>
        <time>2022-08-16T08:03:46Z</time>
      </trkpt>
      <trkpt lat="44.48553" lon="6.84343">
        <ele>2265.6</ele>
        <time>2022-08-16T08:03:47Z</time>
      </trkpt>
      <trkpt lat="44.48554" lon="6.84345">
        <ele>2265.6</ele>
        <time>2022-08-16T08:03:48Z</time>
      </trkpt>
      <trkpt lat="44.48554" lon="6.84347">
        <ele>2265.8</ele>
        <time>2022-08-16T08:03:49Z</time>
      </trkpt>
      <trkpt lat="44.48554" lon="6.84348">
        <ele>2266</ele>
        <time>2022-08-16T08:03:50Z</time>
      </trkpt>
      <trkpt lat="44.48554" lon="6.8435">
        <ele>2266.4</ele>
        <time>2022-08-16T08:03:51Z</time>
      </trkpt>
      <trkpt lat="44.48554" lon="6.84352">
        <ele>2266.4</ele>
        <time>2022-08-16T08:03:52Z</time>
      </trkpt>
      <trkpt lat="44.48554" lon="6.84353">
        <ele>2266.8</ele>
        <time>2022-08-16T08:03:53Z</time>
      </trkpt>
      <trkpt lat="44.48554" lon="6.84355">
        <ele>2267</ele>
        <time>2022-08-16T08:03:54Z</time>
      </trkpt>
      <trkpt lat="44.48553" lon="6.84357">
        <ele>2267.2</ele>
        <time>2022-08-16T08:03:55Z</time>
      </trkpt>
      <trkpt lat="44.48553" lon="6.84358">
        <ele>2267.4</ele>
        <time>2022-08-16T08:03:56Z</time>
      </trkpt>
      <trkpt lat="44.48552" lon="6.8436">
        <ele>2267.6</ele>
        <time>2022-08-16T08:03:57Z</time>
      </trkpt>
      <trkpt lat="44.48552" lon="6.84361">
        <ele>2268</ele>
        <time>2022-08-16T08:03:58Z</time>
      </trkpt>
      <trkpt lat="44.48551" lon="6.84362">
        <ele>2268</ele>
        <time>2022-08-16T08:03:59Z</time>
      </trkpt>
      <trkpt lat="44.4855" lon="6.84363">
        <ele>2268.4</ele>
        <time>2022-08-16T08:04:00Z</time>
      </trkpt>
      <trkpt lat="44.48549" lon="6.84365">
        <ele>2268.4</ele>
        <time>2022-08-16T08:04:01Z</time>
      </trkpt>
      <trkpt lat="44.48549" lon="6.84366">
        <ele>2268.6</ele>
        <time>2022-08-16T08:04:02Z</time>
      </trkpt>
      <trkpt lat="44.48548" lon="6.84368">
        <ele>2268.6</ele>
        <time>2022-08-16T08:04:03Z</time>
      </trkpt>
      <trkpt lat="44.48547" lon="6.84369">
        <ele>2268.8</ele>
        <time>2022-08-16T08:04:04Z</time>
      </trkpt>
      <trkpt lat="44.48547" lon="6.84371">
        <ele>2269.2</ele>
        <time>2022-08-16T08:04:05Z</time>
      </trkpt>
      <trkpt lat="44.48546" lon="6.84373">
        <ele>2269.2</ele>
        <time>2022-08-16T08:04:06Z</time>
      </trkpt>
      <trkpt lat="44.48545" lon="6.84374">
        <ele>2269.4</ele>
        <time>2022-08-16T08:04:07Z</time>
      </trkpt>
      <trkpt lat="44.48545" lon="6.84376">
        <ele>2269.6</ele>
        <time>2022-08-16T08:04:08Z</time>
      </trkpt>
      <trkpt lat="44.48544" lon="6.84377">
        <ele>2269.8</ele>
        <time>2022-08-16T08:04:09Z</time>
      </trkpt>
      <trkpt lat="44.48544" lon="6.84379">
        <ele>2269.8</ele>
        <time>2022-08-16T08:04:10Z</time>
      </trkpt>
      <trkpt lat="44.48543" lon="6.8438">
        <ele>2270</ele>
        <time>2022-08-16T08:04:11Z</time>
      </trkpt>
      <trkpt lat="44.48543" lon="6.84382">
        <ele>2270.2</ele>
        <time>2022-08-16T08:04:12Z</time>
      </trkpt>
      <trkpt lat="44.48543" lon="6.84383">
        <ele>2270.4</ele>
        <time>2022-08-16T08:04:13Z</time>
      </trkpt>
      <trkpt lat="44.48542" lon="6.84385">
        <ele>2270.4</ele>
        <time>2022-08-16T08:04:14Z</time>
      </trkpt>
      <trkpt lat="44.48542" lon="6.84386">
        <ele>2270.6</ele>
        <time>2022-08-16T08:04:15Z</time>
      </trkpt>
      <trkpt lat="44.48541" lon="6.84388">
        <ele>2270.8</ele>
        <time>2022-08-16T08:04:16Z</time>
      </trkpt>
      <trkpt lat="44.48541" lon="6.84389">
        <ele>2271</ele>
        <time>2022-08-16T08:04:17Z</time>
      </trkpt>
      <trkpt lat="44.48541" lon="6.84391">
        <ele>2271.2</ele>
        <time>2022-08-16T08:04:18Z</time>
      </trkpt>
      <trkpt lat="44.48541" lon="6.84393">
        <ele>2271.6</ele>
        <time>2022-08-16T08:04:19Z</time>
      </trkpt>
      <trkpt lat="44.4854" lon="6.84394">
        <ele>2271.6</ele>
        <time>2022-08-16T08:04:20Z</time>
      </trkpt>
      <trkpt lat="44.4854" lon="6.84396">
        <ele>2272</ele>
        <time>2022-08-16T08:04:21Z</time>
      </trkpt>
      <trkpt lat="44.4854" lon="6.84397">
        <ele>2271.8</ele>
        <time>2022-08-16T08:04:22Z</time>
      </trkpt>
      <trkpt lat="44.48539" lon="6.84399">
        <ele>2272.2</ele>
        <time>2022-08-16T08:04:23Z</time>
      </trkpt>
      <trkpt lat="44.48539" lon="6.84401">
        <ele>2272.2</ele>
        <time>2022-08-16T08:04:24Z</time>
      </trkpt>
      <trkpt lat="44.48539" lon="6.84402">
        <ele>2272.4</ele>
        <time>2022-08-16T08:04:25Z</time>
      </trkpt>
      <trkpt lat="44.48538" lon="6.84404">
        <ele>2272.6</ele>
        <time>2022-08-16T08:04:26Z</time>
      </trkpt>
      <trkpt lat="44.48538" lon="6.84405">
        <ele>2272.6</ele>
        <time>2022-08-16T08:04:27Z</time>
      </trkpt>
      <trkpt lat="44.48538" lon="6.84407">
        <ele>2273</ele>
        <time>2022-08-16T08:04:28Z</time>
      </trkpt>
      <trkpt lat="44.48538" lon="6.84408">
        <ele>2272.8</ele>
        <time>2022-08-16T08:04:29Z</time>
      </trkpt>
      <trkpt lat="44.48538" lon="6.84409">
        <ele>2273</ele>
        <time>2022-08-16T08:04:30Z</time>
      </trkpt>
      <trkpt lat="44.48538" lon="6.84411">
        <ele>2273.2</ele>
        <time>2022-08-16T08:04:31Z</time>
      </trkpt>
      <trkpt lat="44.48538" lon="6.84413">
        <ele>2273.4</ele>
        <time>2022-08-16T08:04:32Z</time>
      </trkpt>
      <trkpt lat="44.48538" lon="6.84414">
        <ele>2273.4</ele>
        <time>2022-08-16T08:04:33Z</time>
      </trkpt>
      <trkpt lat="44.48538" lon="6.84416">
        <ele>2273.4</ele>
        <time>2022-08-16T08:04:34Z</time>
      </trkpt>
      <trkpt lat="44.48538" lon="6.84418">
        <ele>2273.6</ele>
        <time>2022-08-16T08:04:35Z</time>
      </trkpt>
      <trkpt lat="44.48538" lon="6.84419">
        <ele>2273.6</ele>
        <time>2022-08-16T08:04:36Z</time>
      </trkpt>
      <trkpt lat="44.48538" lon="6.84421">
        <ele>2273.8</ele>
        <time>2022-08-16T08:04:37Z</time>
      </trkpt>
      <trkpt lat="44.48538" lon="6.84423">
        <ele>2274.2</ele>
        <time>2022-08-16T08:04:38Z</time>
      </trkpt>
      <trkpt lat="44.48539" lon="6.84424">
        <ele>2274.6</ele>
        <time>2022-08-16T08:04:39Z</time>
      </trkpt>
      <trkpt lat="44.48539" lon="6.84426">
        <ele>2274.8</ele>
        <time>2022-08-16T08:04:40Z</time>
      </trkpt>
      <trkpt lat="44.48539" lon="6.84428">
        <ele>2275</ele>
        <time>2022-08-16T08:04:41Z</time>
      </trkpt>
      <trkpt lat="44.48539" lon="6.84429">
        <ele>2275.2</ele>
        <time>2022-08-16T08:04:42Z</time>
      </trkpt>
      <trkpt lat="44.48539" lon="6.84431">
        <ele>2275.2</ele>
        <time>2022-08-16T08:04:43Z</time>
      </trkpt>
      <trkpt lat="44.48539" lon="6.84432">
        <ele>2275.6</ele>
        <time>2022-08-16T08:04:44Z</time>
      </trkpt>
      <trkpt lat="44.48539" lon="6.84434">
        <ele>2275.6</ele>
        <time>2022-08-16T08:04:45Z</time>
      </trkpt>
      <trkpt lat="44.48539" lon="6.84436">
        <ele>2275.6</ele>
        <time>2022-08-16T08:04:46Z</time>
      </trkpt>
      <trkpt lat="44.48539" lon="6.84437">
        <ele>2275.8</ele>
        <time>2022-08-16T08:04:47Z</time>
      </trkpt>
      <trkpt lat="44.4854" lon="6.84439">
        <ele>2275.8</ele>
        <time>2022-08-16T08:04:48Z</time>
      </trkpt>
      <trkpt lat="44.4854" lon="6.84441">
        <ele>2276</ele>
        <time>2022-08-16T08:04:49Z</time>
      </trkpt>
      <trkpt lat="44.4854" lon="6.84442">
        <ele>2276.2</ele>
        <time>2022-08-16T08:04:50Z</time>
      </trkpt>
      <trkpt lat="44.4854" lon="6.84444">
        <ele>2276.4</ele>
        <time>2022-08-16T08:04:51Z</time>
      </trkpt>
      <trkpt lat="44.4854" lon="6.84446">
        <ele>2276.6</ele>
        <time>2022-08-16T08:04:52Z</time>
      </trkpt>
      <trkpt lat="44.48541" lon="6.84447">
        <ele>2276.6</ele>
        <time>2022-08-16T08:04:53Z</time>
      </trkpt>
      <trkpt lat="44.48541" lon="6.84449">
        <ele>2276.8</ele>
        <time>2022-08-16T08:04:54Z</time>
      </trkpt>
      <trkpt lat="44.48541" lon="6.84451">
        <ele>2277</ele>
        <time>2022-08-16T08:04:55Z</time>
      </trkpt>
      <trkpt lat="44.48542" lon="6.84452">
        <ele>2277</ele>
        <time>2022-08-16T08:04:56Z</time>
      </trkpt>
      <trkpt lat="44.48542" lon="6.84454">
        <ele>2277.2</ele>
        <time>2022-08-16T08:04:57Z</time>
      </trkpt>
      <trkpt lat="44.48542" lon="6.84456">
        <ele>2277.4</ele>
        <time>2022-08-16T08:04:58Z</time>
      </trkpt>
      <trkpt lat="44.48541" lon="6.84457">
        <ele>2277.4</ele>
        <time>2022-08-16T08:04:59Z</time>
      </trkpt>
      <trkpt lat="44.48541" lon="6.84459">
        <ele>2277.4</ele>
        <time>2022-08-16T08:05:00Z</time>
      </trkpt>
      <trkpt lat="44.48541" lon="6.84461">
        <ele>2277.6</ele>
        <time>2022-08-16T08:05:01Z</time>
      </trkpt>
      <trkpt lat="44.48541" lon="6.84462">
        <ele>2277.8</ele>
        <time>2022-08-16T08:05:02Z</time>
      </trkpt>
      <trkpt lat="44.48541" lon="6.84464">
        <ele>2278</ele>
        <time>2022-08-16T08:05:03Z</time>
      </trkpt>
      <trkpt lat="44.4854" lon="6.84465">
        <ele>2278.2</ele>
        <time>2022-08-16T08:05:05Z</time>
      </trkpt>
      <trkpt lat="44.4854" lon="6.84467">
        <ele>2278.4</ele>
        <time>2022-08-16T08:05:06Z</time>
      </trkpt>
      <trkpt lat="44.4854" lon="6.84468">
        <ele>2278.4</ele>
        <time>2022-08-16T08:05:07Z</time>
      </trkpt>
      <trkpt lat="44.4854" lon="6.8447">
        <ele>2278.8</ele>
        <time>2022-08-16T08:05:08Z</time>
      </trkpt>
      <trkpt lat="44.4854" lon="6.84472">
        <ele>2279</ele>
        <time>2022-08-16T08:05:09Z</time>
      </trkpt>
      <trkpt lat="44.4854" lon="6.84474">
        <ele>2279.2</ele>
        <time>2022-08-16T08:05:10Z</time>
      </trkpt>
      <trkpt lat="44.4854" lon="6.84475">
        <ele>2279.4</ele>
        <time>2022-08-16T08:05:11Z</time>
      </trkpt>
      <trkpt lat="44.48541" lon="6.84477">
        <ele>2279.4</ele>
        <time>2022-08-16T08:05:12Z</time>
      </trkpt>
      <trkpt lat="44.48541" lon="6.84479">
        <ele>2279.6</ele>
        <time>2022-08-16T08:05:13Z</time>
      </trkpt>
      <trkpt lat="44.48541" lon="6.84481">
        <ele>2279.6</ele>
        <time>2022-08-16T08:05:14Z</time>
      </trkpt>
      <trkpt lat="44.48541" lon="6.84482">
        <ele>2279.8</ele>
        <time>2022-08-16T08:05:15Z</time>
      </trkpt>
      <trkpt lat="44.48541" lon="6.84484">
        <ele>2279.6</ele>
        <time>2022-08-16T08:05:16Z</time>
      </trkpt>
      <trkpt lat="44.48541" lon="6.84486">
        <ele>2280</ele>
        <time>2022-08-16T08:05:17Z</time>
      </trkpt>
      <trkpt lat="44.48541" lon="6.84488">
        <ele>2280.2</ele>
        <time>2022-08-16T08:05:18Z</time>
      </trkpt>
      <trkpt lat="44.48541" lon="6.8449">
        <ele>2280.2</ele>
        <time>2022-08-16T08:05:19Z</time>
      </trkpt>
      <trkpt lat="44.48541" lon="6.84492">
        <ele>2280.4</ele>
        <time>2022-08-16T08:05:20Z</time>
      </trkpt>
      <trkpt lat="44.4854" lon="6.84493">
        <ele>2280.6</ele>
        <time>2022-08-16T08:05:21Z</time>
      </trkpt>
      <trkpt lat="44.4854" lon="6.84495">
        <ele>2280.8</ele>
        <time>2022-08-16T08:05:22Z</time>
      </trkpt>
      <trkpt lat="44.4854" lon="6.84497">
        <ele>2280.8</ele>
        <time>2022-08-16T08:05:23Z</time>
      </trkpt>
      <trkpt lat="44.4854" lon="6.84499">
        <ele>2280.8</ele>
        <time>2022-08-16T08:05:24Z</time>
      </trkpt>
      <trkpt lat="44.4854" lon="6.84501">
        <ele>2281</ele>
        <time>2022-08-16T08:05:25Z</time>
      </trkpt>
      <trkpt lat="44.48539" lon="6.84503">
        <ele>2281</ele>
        <time>2022-08-16T08:05:26Z</time>
      </trkpt>
      <trkpt lat="44.48539" lon="6.84505">
        <ele>2281.2</ele>
        <time>2022-08-16T08:05:27Z</time>
      </trkpt>
      <trkpt lat="44.48539" lon="6.84507">
        <ele>2281.4</ele>
        <time>2022-08-16T08:05:28Z</time>
      </trkpt>
      <trkpt lat="44.48538" lon="6.84509">
        <ele>2281.6</ele>
        <time>2022-08-16T08:05:29Z</time>
      </trkpt>
      <trkpt lat="44.48538" lon="6.84511">
        <ele>2281.6</ele>
        <time>2022-08-16T08:05:30Z</time>
      </trkpt>
      <trkpt lat="44.48538" lon="6.84513">
        <ele>2281.8</ele>
        <time>2022-08-16T08:05:31Z</time>
      </trkpt>
      <trkpt lat="44.48537" lon="6.84515">
        <ele>2282</ele>
        <time>2022-08-16T08:05:32Z</time>
      </trkpt>
      <trkpt lat="44.48537" lon="6.84517">
        <ele>2282</ele>
        <time>2022-08-16T08:05:33Z</time>
      </trkpt>
      <trkpt lat="44.48537" lon="6.84519">
        <ele>2282.2</ele>
        <time>2022-08-16T08:05:34Z</time>
      </trkpt>
      <trkpt lat="44.48537" lon="6.84521">
        <ele>2282.6</ele>
        <time>2022-08-16T08:05:35Z</time>
      </trkpt>
      <trkpt lat="44.48537" lon="6.84523">
        <ele>2282.6</ele>
        <time>2022-08-16T08:05:36Z</time>
      </trkpt>
      <trkpt lat="44.48536" lon="6.84525">
        <ele>2282.8</ele>
        <time>2022-08-16T08:05:37Z</time>
      </trkpt>
      <trkpt lat="44.48536" lon="6.84527">
        <ele>2283.2</ele>
        <time>2022-08-16T08:05:38Z</time>
      </trkpt>
      <trkpt lat="44.48536" lon="6.84528">
        <ele>2283.4</ele>
        <time>2022-08-16T08:05:39Z</time>
      </trkpt>
      <trkpt lat="44.48536" lon="6.8453">
        <ele>2283.2</ele>
        <time>2022-08-16T08:05:40Z</time>
      </trkpt>
      <trkpt lat="44.48535" lon="6.84532">
        <ele>2283.2</ele>
        <time>2022-08-16T08:05:41Z</time>
      </trkpt>
      <trkpt lat="44.48535" lon="6.84534">
        <ele>2283.4</ele>
        <time>2022-08-16T08:05:42Z</time>
      </trkpt>
      <trkpt lat="44.48535" lon="6.84535">
        <ele>2283.6</ele>
        <time>2022-08-16T08:05:43Z</time>
      </trkpt>
      <trkpt lat="44.48534" lon="6.84537">
        <ele>2283.6</ele>
        <time>2022-08-16T08:05:44Z</time>
      </trkpt>
      <trkpt lat="44.48534" lon="6.84539">
        <ele>2283.8</ele>
        <time>2022-08-16T08:05:45Z</time>
      </trkpt>
      <trkpt lat="44.48534" lon="6.84541">
        <ele>2283.8</ele>
        <time>2022-08-16T08:05:46Z</time>
      </trkpt>
      <trkpt lat="44.48534" lon="6.84543">
        <ele>2284</ele>
        <time>2022-08-16T08:05:47Z</time>
      </trkpt>
      <trkpt lat="44.48534" lon="6.84544">
        <ele>2284</ele>
        <time>2022-08-16T08:05:48Z</time>
      </trkpt>
      <trkpt lat="44.48534" lon="6.84546">
        <ele>2284</ele>
        <time>2022-08-16T08:05:49Z</time>
      </trkpt>
      <trkpt lat="44.48533" lon="6.84548">
        <ele>2284.2</ele>
        <time>2022-08-16T08:05:50Z</time>
      </trkpt>
      <trkpt lat="44.48533" lon="6.84549">
        <ele>2284.2</ele>
        <time>2022-08-16T08:05:51Z</time>
      </trkpt>
      <trkpt lat="44.48533" lon="6.84551">
        <ele>2284.4</ele>
        <time>2022-08-16T08:05:52Z</time>
      </trkpt>
      <trkpt lat="44.48532" lon="6.84553">
        <ele>2284.6</ele>
        <time>2022-08-16T08:05:53Z</time>
      </trkpt>
      <trkpt lat="44.48532" lon="6.84554">
        <ele>2284.6</ele>
        <time>2022-08-16T08:05:54Z</time>
      </trkpt>
      <trkpt lat="44.48532" lon="6.84556">
        <ele>2284.6</ele>
        <time>2022-08-16T08:05:55Z</time>
      </trkpt>
      <trkpt lat="44.48531" lon="6.84558">
        <ele>2284.8</ele>
        <time>2022-08-16T08:05:56Z</time>
      </trkpt>
      <trkpt lat="44.4853" lon="6.84559">
        <ele>2284.8</ele>
        <time>2022-08-16T08:05:57Z</time>
      </trkpt>
      <trkpt lat="44.48529" lon="6.84559">
        <ele>2285</ele>
        <time>2022-08-16T08:05:58Z</time>
      </trkpt>
      <trkpt lat="44.48528" lon="6.84559">
        <ele>2285.2</ele>
        <time>2022-08-16T08:05:59Z</time>
      </trkpt>
      <trkpt lat="44.48528" lon="6.84558">
        <ele>2285.2</ele>
        <time>2022-08-16T08:06:00Z</time>
      </trkpt>
      <trkpt lat="44.48528" lon="6.84556">
        <ele>2285.4</ele>
        <time>2022-08-16T08:06:01Z</time>
      </trkpt>
      <trkpt lat="44.48528" lon="6.84553">
        <ele>2285.6</ele>
        <time>2022-08-16T08:06:02Z</time>
      </trkpt>
      <trkpt lat="44.48528" lon="6.84551">
        <ele>2285.6</ele>
        <time>2022-08-16T08:06:03Z</time>
      </trkpt>
      <trkpt lat="44.48527" lon="6.84549">
        <ele>2285.6</ele>
        <time>2022-08-16T08:06:04Z</time>
      </trkpt>
      <trkpt lat="44.48527" lon="6.84547">
        <ele>2285.8</ele>
        <time>2022-08-16T08:06:05Z</time>
      </trkpt>
      <trkpt lat="44.48527" lon="6.84545">
        <ele>2286</ele>
        <time>2022-08-16T08:06:06Z</time>
      </trkpt>
      <trkpt lat="44.48527" lon="6.84544">
        <ele>2286</ele>
        <time>2022-08-16T08:06:07Z</time>
      </trkpt>
      <trkpt lat="44.48526" lon="6.84542">
        <ele>2286</ele>
        <time>2022-08-16T08:06:08Z</time>
      </trkpt>
      <trkpt lat="44.48526" lon="6.84541">
        <ele>2286</ele>
        <time>2022-08-16T08:06:09Z</time>
      </trkpt>
      <trkpt lat="44.48525" lon="6.84539">
        <ele>2286.2</ele>
        <time>2022-08-16T08:06:10Z</time>
      </trkpt>
      <trkpt lat="44.48525" lon="6.84538">
        <ele>2286.4</ele>
        <time>2022-08-16T08:06:11Z</time>
      </trkpt>
      <trkpt lat="44.48525" lon="6.84536">
        <ele>2286.6</ele>
        <time>2022-08-16T08:06:12Z</time>
      </trkpt>
      <trkpt lat="44.48524" lon="6.84535">
        <ele>2286.8</ele>
        <time>2022-08-16T08:06:13Z</time>
      </trkpt>
      <trkpt lat="44.48524" lon="6.84533">
        <ele>2287</ele>
        <time>2022-08-16T08:06:14Z</time>
      </trkpt>
      <trkpt lat="44.48523" lon="6.84532">
        <ele>2287.2</ele>
        <time>2022-08-16T08:06:15Z</time>
      </trkpt>
      <trkpt lat="44.48523" lon="6.8453">
        <ele>2287.4</ele>
        <time>2022-08-16T08:06:16Z</time>
      </trkpt>
      <trkpt lat="44.48523" lon="6.84528">
        <ele>2287.4</ele>
        <time>2022-08-16T08:06:17Z</time>
      </trkpt>
      <trkpt lat="44.48522" lon="6.84527">
        <ele>2287.4</ele>
        <time>2022-08-16T08:06:18Z</time>
      </trkpt>
      <trkpt lat="44.48522" lon="6.84525">
        <ele>2287.4</ele>
        <time>2022-08-16T08:06:19Z</time>
      </trkpt>
      <trkpt lat="44.48522" lon="6.84524">
        <ele>2287.8</ele>
        <time>2022-08-16T08:06:20Z</time>
      </trkpt>
      <trkpt lat="44.48522" lon="6.84522">
        <ele>2288.2</ele>
        <time>2022-08-16T08:06:21Z</time>
      </trkpt>
      <trkpt lat="44.48521" lon="6.8452">
        <ele>2288.4</ele>
        <time>2022-08-16T08:06:22Z</time>
      </trkpt>
      <trkpt lat="44.48521" lon="6.84519">
        <ele>2288.4</ele>
        <time>2022-08-16T08:06:23Z</time>
      </trkpt>
      <trkpt lat="44.48521" lon="6.84517">
        <ele>2288.8</ele>
        <time>2022-08-16T08:06:24Z</time>
      </trkpt>
      <trkpt lat="44.4852" lon="6.84515">
        <ele>2289</ele>
        <time>2022-08-16T08:06:25Z</time>
      </trkpt>
      <trkpt lat="44.48519" lon="6.84514">
        <ele>2289</ele>
        <time>2022-08-16T08:06:26Z</time>
      </trkpt>
      <trkpt lat="44.48519" lon="6.84513">
        <ele>2289.2</ele>
        <time>2022-08-16T08:06:27Z</time>
      </trkpt>
      <trkpt lat="44.48518" lon="6.84511">
        <ele>2289.6</ele>
        <time>2022-08-16T08:06:28Z</time>
      </trkpt>
      <trkpt lat="44.48517" lon="6.84511">
        <ele>2289.6</ele>
        <time>2022-08-16T08:06:29Z</time>
      </trkpt>
      <trkpt lat="44.48516" lon="6.8451">
        <ele>2289.8</ele>
        <time>2022-08-16T08:06:30Z</time>
      </trkpt>
      <trkpt lat="44.48515" lon="6.84509">
        <ele>2290</ele>
        <time>2022-08-16T08:06:31Z</time>
      </trkpt>
      <trkpt lat="44.48514" lon="6.84508">
        <ele>2290</ele>
        <time>2022-08-16T08:06:32Z</time>
      </trkpt>
      <trkpt lat="44.48514" lon="6.84508">
        <ele>2290.2</ele>
        <time>2022-08-16T08:06:33Z</time>
      </trkpt>
      <trkpt lat="44.48513" lon="6.84507">
        <ele>2290.4</ele>
        <time>2022-08-16T08:06:34Z</time>
      </trkpt>
      <trkpt lat="44.48512" lon="6.84507">
        <ele>2290.4</ele>
        <time>2022-08-16T08:06:35Z</time>
      </trkpt>
      <trkpt lat="44.48511" lon="6.84506">
        <ele>2290.4</ele>
        <time>2022-08-16T08:06:36Z</time>
      </trkpt>
      <trkpt lat="44.4851" lon="6.84506">
        <ele>2290.6</ele>
        <time>2022-08-16T08:06:37Z</time>
      </trkpt>
      <trkpt lat="44.48508" lon="6.84505">
        <ele>2290.8</ele>
        <time>2022-08-16T08:06:38Z</time>
      </trkpt>
      <trkpt lat="44.48507" lon="6.84504">
        <ele>2291</ele>
        <time>2022-08-16T08:06:39Z</time>
      </trkpt>
      <trkpt lat="44.48507" lon="6.84504">
        <ele>2291.2</ele>
        <time>2022-08-16T08:06:40Z</time>
      </trkpt>
      <trkpt lat="44.48506" lon="6.84502">
        <ele>2291.4</ele>
        <time>2022-08-16T08:06:41Z</time>
      </trkpt>
      <trkpt lat="44.48505" lon="6.84501">
        <ele>2291.4</ele>
        <time>2022-08-16T08:06:42Z</time>
      </trkpt>
      <trkpt lat="44.48505" lon="6.845">
        <ele>2291.6</ele>
        <time>2022-08-16T08:06:43Z</time>
      </trkpt>
      <trkpt lat="44.48504" lon="6.84499">
        <ele>2291.8</ele>
        <time>2022-08-16T08:06:44Z</time>
      </trkpt>
      <trkpt lat="44.48503" lon="6.84498">
        <ele>2292.2</ele>
        <time>2022-08-16T08:06:45Z</time>
      </trkpt>
      <trkpt lat="44.48503" lon="6.84496">
        <ele>2292.4</ele>
        <time>2022-08-16T08:06:46Z</time>
      </trkpt>
      <trkpt lat="44.48503" lon="6.84495">
        <ele>2292.6</ele>
        <time>2022-08-16T08:06:47Z</time>
      </trkpt>
      <trkpt lat="44.48502" lon="6.84493">
        <ele>2292.6</ele>
        <time>2022-08-16T08:06:48Z</time>
      </trkpt>
      <trkpt lat="44.48502" lon="6.84492">
        <ele>2292.6</ele>
        <time>2022-08-16T08:06:49Z</time>
      </trkpt>
      <trkpt lat="44.48501" lon="6.84491">
        <ele>2292.8</ele>
        <time>2022-08-16T08:06:50Z</time>
      </trkpt>
      <trkpt lat="44.485" lon="6.8449">
        <ele>2293</ele>
        <time>2022-08-16T08:06:51Z</time>
      </trkpt>
      <trkpt lat="44.48499" lon="6.84489">
        <ele>2293</ele>
        <time>2022-08-16T08:06:52Z</time>
      </trkpt>
      <trkpt lat="44.48498" lon="6.84488">
        <ele>2293.2</ele>
        <time>2022-08-16T08:06:53Z</time>
      </trkpt>
      <trkpt lat="44.48497" lon="6.84487">
        <ele>2293.6</ele>
        <time>2022-08-16T08:06:54Z</time>
      </trkpt>
      <trkpt lat="44.48496" lon="6.84487">
        <ele>2293.6</ele>
        <time>2022-08-16T08:06:55Z</time>
      </trkpt>
      <trkpt lat="44.48495" lon="6.84486">
        <ele>2293.8</ele>
        <time>2022-08-16T08:06:56Z</time>
      </trkpt>
      <trkpt lat="44.48494" lon="6.84486">
        <ele>2294</ele>
        <time>2022-08-16T08:06:57Z</time>
      </trkpt>
      <trkpt lat="44.48493" lon="6.84485">
        <ele>2294</ele>
        <time>2022-08-16T08:06:58Z</time>
      </trkpt>
      <trkpt lat="44.48492" lon="6.84484">
        <ele>2294</ele>
        <time>2022-08-16T08:06:59Z</time>
      </trkpt>
      <trkpt lat="44.48491" lon="6.84483">
        <ele>2294.2</ele>
        <time>2022-08-16T08:07:00Z</time>
      </trkpt>
      <trkpt lat="44.4849" lon="6.84481">
        <ele>2294.4</ele>
        <time>2022-08-16T08:07:01Z</time>
      </trkpt>
      <trkpt lat="44.48489" lon="6.8448">
        <ele>2294.4</ele>
        <time>2022-08-16T08:07:02Z</time>
      </trkpt>
      <trkpt lat="44.48489" lon="6.84479">
        <ele>2294.2</ele>
        <time>2022-08-16T08:07:03Z</time>
      </trkpt>
      <trkpt lat="44.48488" lon="6.84477">
        <ele>2294.6</ele>
        <time>2022-08-16T08:07:04Z</time>
      </trkpt>
      <trkpt lat="44.48488" lon="6.84476">
        <ele>2294.6</ele>
        <time>2022-08-16T08:07:05Z</time>
      </trkpt>
      <trkpt lat="44.48487" lon="6.84474">
        <ele>2294.8</ele>
        <time>2022-08-16T08:07:06Z</time>
      </trkpt>
      <trkpt lat="44.48487" lon="6.84473">
        <ele>2295</ele>
        <time>2022-08-16T08:07:07Z</time>
      </trkpt>
      <trkpt lat="44.48486" lon="6.84471">
        <ele>2295.2</ele>
        <time>2022-08-16T08:07:08Z</time>
      </trkpt>
      <trkpt lat="44.48486" lon="6.8447">
        <ele>2295.4</ele>
        <time>2022-08-16T08:07:09Z</time>
      </trkpt>
      <trkpt lat="44.48485" lon="6.84469">
        <ele>2295.6</ele>
        <time>2022-08-16T08:07:10Z</time>
      </trkpt>
      <trkpt lat="44.48485" lon="6.84467">
        <ele>2295.6</ele>
        <time>2022-08-16T08:07:11Z</time>
      </trkpt>
      <trkpt lat="44.48485" lon="6.84466">
        <ele>2295.6</ele>
        <time>2022-08-16T08:07:12Z</time>
      </trkpt>
      <trkpt lat="44.48485" lon="6.84464">
        <ele>2295.8</ele>
        <time>2022-08-16T08:07:13Z</time>
      </trkpt>
      <trkpt lat="44.48484" lon="6.84462">
        <ele>2295.8</ele>
        <time>2022-08-16T08:07:14Z</time>
      </trkpt>
      <trkpt lat="44.48484" lon="6.84461">
        <ele>2296.2</ele>
        <time>2022-08-16T08:07:15Z</time>
      </trkpt>
      <trkpt lat="44.48484" lon="6.84459">
        <ele>2296</ele>
        <time>2022-08-16T08:07:16Z</time>
      </trkpt>
      <trkpt lat="44.48484" lon="6.84458">
        <ele>2296.2</ele>
        <time>2022-08-16T08:07:17Z</time>
      </trkpt>
      <trkpt lat="44.48484" lon="6.84456">
        <ele>2296.4</ele>
        <time>2022-08-16T08:07:18Z</time>
      </trkpt>
      <trkpt lat="44.48484" lon="6.84455">
        <ele>2296.6</ele>
        <time>2022-08-16T08:07:19Z</time>
      </trkpt>
      <trkpt lat="44.48484" lon="6.84453">
        <ele>2296.6</ele>
        <time>2022-08-16T08:07:20Z</time>
      </trkpt>
      <trkpt lat="44.48484" lon="6.84452">
        <ele>2296.8</ele>
        <time>2022-08-16T08:07:21Z</time>
      </trkpt>
      <trkpt lat="44.48483" lon="6.8445">
        <ele>2297</ele>
        <time>2022-08-16T08:07:22Z</time>
      </trkpt>
      <trkpt lat="44.48483" lon="6.84448">
        <ele>2297.2</ele>
        <time>2022-08-16T08:07:23Z</time>
      </trkpt>
      <trkpt lat="44.48483" lon="6.84447">
        <ele>2297.2</ele>
        <time>2022-08-16T08:07:24Z</time>
      </trkpt>
      <trkpt lat="44.48482" lon="6.84445">
        <ele>2297.4</ele>
        <time>2022-08-16T08:07:25Z</time>
      </trkpt>
      <trkpt lat="44.48482" lon="6.84444">
        <ele>2297.6</ele>
        <time>2022-08-16T08:07:26Z</time>
      </trkpt>
      <trkpt lat="44.48482" lon="6.84442">
        <ele>2297.6</ele>
        <time>2022-08-16T08:07:27Z</time>
      </trkpt>
      <trkpt lat="44.48482" lon="6.84441">
        <ele>2298</ele>
        <time>2022-08-16T08:07:28Z</time>
      </trkpt>
      <trkpt lat="44.48482" lon="6.84439">
        <ele>2298.2</ele>
        <time>2022-08-16T08:07:29Z</time>
      </trkpt>
      <trkpt lat="44.48481" lon="6.84437">
        <ele>2298.4</ele>
        <time>2022-08-16T08:07:30Z</time>
      </trkpt>
      <trkpt lat="44.48481" lon="6.84435">
        <ele>2298.6</ele>
        <time>2022-08-16T08:07:31Z</time>
      </trkpt>
      <trkpt lat="44.48481" lon="6.84434">
        <ele>2298.8</ele>
        <time>2022-08-16T08:07:32Z</time>
      </trkpt>
      <trkpt lat="44.48481" lon="6.84432">
        <ele>2299</ele>
        <time>2022-08-16T08:07:33Z</time>
      </trkpt>
      <trkpt lat="44.4848" lon="6.8443">
        <ele>2299</ele>
        <time>2022-08-16T08:07:34Z</time>
      </trkpt>
      <trkpt lat="44.4848" lon="6.84429">
        <ele>2299.2</ele>
        <time>2022-08-16T08:07:35Z</time>
      </trkpt>
      <trkpt lat="44.48479" lon="6.84427">
        <ele>2299.6</ele>
        <time>2022-08-16T08:07:36Z</time>
      </trkpt>
      <trkpt lat="44.48479" lon="6.84426">
        <ele>2299.6</ele>
        <time>2022-08-16T08:07:37Z</time>
      </trkpt>
      <trkpt lat="44.48479" lon="6.84424">
        <ele>2299.6</ele>
        <time>2022-08-16T08:07:38Z</time>
      </trkpt>
      <trkpt lat="44.48478" lon="6.84422">
        <ele>2299.6</ele>
        <time>2022-08-16T08:07:39Z</time>
      </trkpt>
      <trkpt lat="44.48478" lon="6.84421">
        <ele>2299.8</ele>
        <time>2022-08-16T08:07:40Z</time>
      </trkpt>
      <trkpt lat="44.48477" lon="6.84419">
        <ele>2300</ele>
        <time>2022-08-16T08:07:41Z</time>
      </trkpt>
      <trkpt lat="44.48477" lon="6.84418">
        <ele>2300.4</ele>
        <time>2022-08-16T08:07:42Z</time>
      </trkpt>
      <trkpt lat="44.48477" lon="6.84416">
        <ele>2300.4</ele>
        <time>2022-08-16T08:07:43Z</time>
      </trkpt>
      <trkpt lat="44.48476" lon="6.84414">
        <ele>2300.6</ele>
        <time>2022-08-16T08:07:44Z</time>
      </trkpt>
      <trkpt lat="44.48476" lon="6.84412">
        <ele>2300.6</ele>
        <time>2022-08-16T08:07:45Z</time>
      </trkpt>
      <trkpt lat="44.48475" lon="6.8441">
        <ele>2300.8</ele>
        <time>2022-08-16T08:07:46Z</time>
      </trkpt>
      <trkpt lat="44.48475" lon="6.84409">
        <ele>2301</ele>
        <time>2022-08-16T08:07:47Z</time>
      </trkpt>
      <trkpt lat="44.48474" lon="6.84407">
        <ele>2301.2</ele>
        <time>2022-08-16T08:07:48Z</time>
      </trkpt>
      <trkpt lat="44.48474" lon="6.84405">
        <ele>2301.4</ele>
        <time>2022-08-16T08:07:49Z</time>
      </trkpt>
      <trkpt lat="44.48473" lon="6.84404">
        <ele>2301.6</ele>
        <time>2022-08-16T08:07:50Z</time>
      </trkpt>
      <trkpt lat="44.48472" lon="6.84403">
        <ele>2302</ele>
        <time>2022-08-16T08:07:51Z</time>
      </trkpt>
      <trkpt lat="44.48471" lon="6.84402">
        <ele>2302</ele>
        <time>2022-08-16T08:07:52Z</time>
      </trkpt>
      <trkpt lat="44.48469" lon="6.84402">
        <ele>2302.2</ele>
        <time>2022-08-16T08:07:53Z</time>
      </trkpt>
      <trkpt lat="44.48468" lon="6.84403">
        <ele>2302.4</ele>
        <time>2022-08-16T08:07:54Z</time>
      </trkpt>
      <trkpt lat="44.48468" lon="6.84405">
        <ele>2302.4</ele>
        <time>2022-08-16T08:07:55Z</time>
      </trkpt>
      <trkpt lat="44.48468" lon="6.84407">
        <ele>2302.4</ele>
        <time>2022-08-16T08:07:56Z</time>
      </trkpt>
      <trkpt lat="44.48468" lon="6.84409">
        <ele>2302.6</ele>
        <time>2022-08-16T08:07:57Z</time>
      </trkpt>
      <trkpt lat="44.48468" lon="6.84411">
        <ele>2302.8</ele>
        <time>2022-08-16T08:07:58Z</time>
      </trkpt>
      <trkpt lat="44.48468" lon="6.84413">
        <ele>2302.8</ele>
        <time>2022-08-16T08:07:59Z</time>
      </trkpt>
      <trkpt lat="44.48468" lon="6.84415">
        <ele>2302.8</ele>
        <time>2022-08-16T08:08:00Z</time>
      </trkpt>
      <trkpt lat="44.48468" lon="6.84416">
        <ele>2303</ele>
        <time>2022-08-16T08:08:01Z</time>
      </trkpt>
      <trkpt lat="44.48468" lon="6.84418">
        <ele>2303</ele>
        <time>2022-08-16T08:08:02Z</time>
      </trkpt>
      <trkpt lat="44.48468" lon="6.8442">
        <ele>2303.4</ele>
        <time>2022-08-16T08:08:03Z</time>
      </trkpt>
      <trkpt lat="44.48468" lon="6.84422">
        <ele>2303.8</ele>
        <time>2022-08-16T08:08:04Z</time>
      </trkpt>
      <trkpt lat="44.48467" lon="6.84423">
        <ele>2304.2</ele>
        <time>2022-08-16T08:08:05Z</time>
      </trkpt>
      <trkpt lat="44.48467" lon="6.84425">
        <ele>2304.2</ele>
        <time>2022-08-16T08:08:06Z</time>
      </trkpt>
      <trkpt lat="44.48467" lon="6.84426">
        <ele>2304.4</ele>
        <time>2022-08-16T08:08:07Z</time>
      </trkpt>
      <trkpt lat="44.48466" lon="6.84428">
        <ele>2304.6</ele>
        <time>2022-08-16T08:08:08Z</time>
      </trkpt>
      <trkpt lat="44.48466" lon="6.8443">
        <ele>2304.8</ele>
        <time>2022-08-16T08:08:09Z</time>
      </trkpt>
      <trkpt lat="44.48466" lon="6.84431">
        <ele>2304.8</ele>
        <time>2022-08-16T08:08:10Z</time>
      </trkpt>
      <trkpt lat="44.48465" lon="6.84433">
        <ele>2305</ele>
        <time>2022-08-16T08:08:11Z</time>
      </trkpt>
      <trkpt lat="44.48464" lon="6.84434">
        <ele>2305.2</ele>
        <time>2022-08-16T08:08:12Z</time>
      </trkpt>
      <trkpt lat="44.48464" lon="6.84436">
        <ele>2305.4</ele>
        <time>2022-08-16T08:08:13Z</time>
      </trkpt>
      <trkpt lat="44.48464" lon="6.84437">
        <ele>2305.6</ele>
        <time>2022-08-16T08:08:14Z</time>
      </trkpt>
      <trkpt lat="44.48463" lon="6.84439">
        <ele>2305.8</ele>
        <time>2022-08-16T08:08:15Z</time>
      </trkpt>
      <trkpt lat="44.48463" lon="6.84441">
        <ele>2306</ele>
        <time>2022-08-16T08:08:16Z</time>
      </trkpt>
      <trkpt lat="44.48462" lon="6.84442">
        <ele>2306</ele>
        <time>2022-08-16T08:08:17Z</time>
      </trkpt>
      <trkpt lat="44.48461" lon="6.84444">
        <ele>2306</ele>
        <time>2022-08-16T08:08:18Z</time>
      </trkpt>
      <trkpt lat="44.4846" lon="6.84445">
        <ele>2306.2</ele>
        <time>2022-08-16T08:08:19Z</time>
      </trkpt>
      <trkpt lat="44.48459" lon="6.84446">
        <ele>2306.4</ele>
        <time>2022-08-16T08:08:20Z</time>
      </trkpt>
      <trkpt lat="44.48459" lon="6.84447">
        <ele>2306.4</ele>
        <time>2022-08-16T08:08:21Z</time>
      </trkpt>
      <trkpt lat="44.48458" lon="6.84449">
        <ele>2306.6</ele>
        <time>2022-08-16T08:08:22Z</time>
      </trkpt>
      <trkpt lat="44.48457" lon="6.8445">
        <ele>2306.8</ele>
        <time>2022-08-16T08:08:23Z</time>
      </trkpt>
      <trkpt lat="44.48456" lon="6.84451">
        <ele>2306.8</ele>
        <time>2022-08-16T08:08:24Z</time>
      </trkpt>
      <trkpt lat="44.48456" lon="6.84452">
        <ele>2307.2</ele>
        <time>2022-08-16T08:08:25Z</time>
      </trkpt>
      <trkpt lat="44.48455" lon="6.84453">
        <ele>2307.4</ele>
        <time>2022-08-16T08:08:26Z</time>
      </trkpt>
      <trkpt lat="44.48454" lon="6.84454">
        <ele>2307.4</ele>
        <time>2022-08-16T08:08:27Z</time>
      </trkpt>
      <trkpt lat="44.48453" lon="6.84455">
        <ele>2307.6</ele>
        <time>2022-08-16T08:08:28Z</time>
      </trkpt>
      <trkpt lat="44.48452" lon="6.84456">
        <ele>2307.8</ele>
        <time>2022-08-16T08:08:29Z</time>
      </trkpt>
      <trkpt lat="44.48452" lon="6.84458">
        <ele>2308.2</ele>
        <time>2022-08-16T08:08:30Z</time>
      </trkpt>
      <trkpt lat="44.48451" lon="6.84459">
        <ele>2308.2</ele>
        <time>2022-08-16T08:08:31Z</time>
      </trkpt>
      <trkpt lat="44.4845" lon="6.8446">
        <ele>2308.4</ele>
        <time>2022-08-16T08:08:32Z</time>
      </trkpt>
      <trkpt lat="44.4845" lon="6.84461">
        <ele>2308.6</ele>
        <time>2022-08-16T08:08:33Z</time>
      </trkpt>
      <trkpt lat="44.48449" lon="6.84463">
        <ele>2308.8</ele>
        <time>2022-08-16T08:08:34Z</time>
      </trkpt>
      <trkpt lat="44.48448" lon="6.84464">
        <ele>2308.8</ele>
        <time>2022-08-16T08:08:35Z</time>
      </trkpt>
      <trkpt lat="44.48448" lon="6.84466">
        <ele>2309</ele>
        <time>2022-08-16T08:08:36Z</time>
      </trkpt>
      <trkpt lat="44.48447" lon="6.84467">
        <ele>2309</ele>
        <time>2022-08-16T08:08:37Z</time>
      </trkpt>
      <trkpt lat="44.48447" lon="6.84469">
        <ele>2308.8</ele>
        <time>2022-08-16T08:08:38Z</time>
      </trkpt>
      <trkpt lat="44.48447" lon="6.8447">
        <ele>2309.2</ele>
        <time>2022-08-16T08:08:39Z</time>
      </trkpt>
      <trkpt lat="44.48446" lon="6.84472">
        <ele>2309.4</ele>
        <time>2022-08-16T08:08:40Z</time>
      </trkpt>
      <trkpt lat="44.48446" lon="6.84474">
        <ele>2309.4</ele>
        <time>2022-08-16T08:08:41Z</time>
      </trkpt>
      <trkpt lat="44.48446" lon="6.84476">
        <ele>2309.6</ele>
        <time>2022-08-16T08:08:42Z</time>
      </trkpt>
      <trkpt lat="44.48446" lon="6.84478">
        <ele>2309.6</ele>
        <time>2022-08-16T08:08:43Z</time>
      </trkpt>
      <trkpt lat="44.48446" lon="6.84479">
        <ele>2309.8</ele>
        <time>2022-08-16T08:08:44Z</time>
      </trkpt>
      <trkpt lat="44.48446" lon="6.84481">
        <ele>2310</ele>
        <time>2022-08-16T08:08:45Z</time>
      </trkpt>
      <trkpt lat="44.48446" lon="6.84483">
        <ele>2310.2</ele>
        <time>2022-08-16T08:08:46Z</time>
      </trkpt>
      <trkpt lat="44.48446" lon="6.84484">
        <ele>2310.2</ele>
        <time>2022-08-16T08:08:47Z</time>
      </trkpt>
      <trkpt lat="44.48447" lon="6.84486">
        <ele>2310.2</ele>
        <time>2022-08-16T08:08:48Z</time>
      </trkpt>
      <trkpt lat="44.48447" lon="6.84488">
        <ele>2310.4</ele>
        <time>2022-08-16T08:08:49Z</time>
      </trkpt>
      <trkpt lat="44.48447" lon="6.8449">
        <ele>2310.6</ele>
        <time>2022-08-16T08:08:50Z</time>
      </trkpt>
      <trkpt lat="44.48448" lon="6.84491">
        <ele>2310.8</ele>
        <time>2022-08-16T08:08:51Z</time>
      </trkpt>
      <trkpt lat="44.48448" lon="6.84493">
        <ele>2311</ele>
        <time>2022-08-16T08:08:52Z</time>
      </trkpt>
      <trkpt lat="44.48449" lon="6.84495">
        <ele>2311.4</ele>
        <time>2022-08-16T08:08:53Z</time>
      </trkpt>
      <trkpt lat="44.48449" lon="6.84496">
        <ele>2311.4</ele>
        <time>2022-08-16T08:08:54Z</time>
      </trkpt>
      <trkpt lat="44.4845" lon="6.84498">
        <ele>2311.6</ele>
        <time>2022-08-16T08:08:55Z</time>
      </trkpt>
      <trkpt lat="44.4845" lon="6.845">
        <ele>2311.8</ele>
        <time>2022-08-16T08:08:56Z</time>
      </trkpt>
      <trkpt lat="44.4845" lon="6.84501">
        <ele>2312</ele>
        <time>2022-08-16T08:08:57Z</time>
      </trkpt>
      <trkpt lat="44.4845" lon="6.84503">
        <ele>2312.2</ele>
        <time>2022-08-16T08:08:58Z</time>
      </trkpt>
      <trkpt lat="44.4845" lon="6.84505">
        <ele>2312.2</ele>
        <time>2022-08-16T08:08:59Z</time>
      </trkpt>
      <trkpt lat="44.48451" lon="6.84506">
        <ele>2312.4</ele>
        <time>2022-08-16T08:09:00Z</time>
      </trkpt>
      <trkpt lat="44.48451" lon="6.84508">
        <ele>2312.6</ele>
        <time>2022-08-16T08:09:01Z</time>
      </trkpt>
      <trkpt lat="44.48451" lon="6.8451">
        <ele>2312.8</ele>
        <time>2022-08-16T08:09:02Z</time>
      </trkpt>
      <trkpt lat="44.48451" lon="6.84511">
        <ele>2313</ele>
        <time>2022-08-16T08:09:03Z</time>
      </trkpt>
      <trkpt lat="44.48451" lon="6.84513">
        <ele>2313</ele>
        <time>2022-08-16T08:09:04Z</time>
      </trkpt>
      <trkpt lat="44.48451" lon="6.84515">
        <ele>2313</ele>
        <time>2022-08-16T08:09:05Z</time>
      </trkpt>
      <trkpt lat="44.48451" lon="6.84517">
        <ele>2313.4</ele>
        <time>2022-08-16T08:09:06Z</time>
      </trkpt>
      <trkpt lat="44.48451" lon="6.84518">
        <ele>2313.4</ele>
        <time>2022-08-16T08:09:07Z</time>
      </trkpt>
      <trkpt lat="44.48451" lon="6.8452">
        <ele>2313.6</ele>
        <time>2022-08-16T08:09:08Z</time>
      </trkpt>
      <trkpt lat="44.48451" lon="6.84522">
        <ele>2313.6</ele>
        <time>2022-08-16T08:09:09Z</time>
      </trkpt>
      <trkpt lat="44.48451" lon="6.84523">
        <ele>2313.6</ele>
        <time>2022-08-16T08:09:10Z</time>
      </trkpt>
      <trkpt lat="44.48451" lon="6.84525">
        <ele>2313.8</ele>
        <time>2022-08-16T08:09:11Z</time>
      </trkpt>
      <trkpt lat="44.48451" lon="6.84526">
        <ele>2313.8</ele>
        <time>2022-08-16T08:09:12Z</time>
      </trkpt>
      <trkpt lat="44.48451" lon="6.84527">
        <ele>2313.8</ele>
        <time>2022-08-16T08:09:13Z</time>
      </trkpt>
      <trkpt lat="44.48451" lon="6.84529">
        <ele>2314</ele>
        <time>2022-08-16T08:09:14Z</time>
      </trkpt>
      <trkpt lat="44.48451" lon="6.84531">
        <ele>2314.2</ele>
        <time>2022-08-16T08:09:15Z</time>
      </trkpt>
      <trkpt lat="44.48451" lon="6.84532">
        <ele>2314.4</ele>
        <time>2022-08-16T08:09:16Z</time>
      </trkpt>
      <trkpt lat="44.48451" lon="6.84534">
        <ele>2314.6</ele>
        <time>2022-08-16T08:09:17Z</time>
      </trkpt>
      <trkpt lat="44.48451" lon="6.84535">
        <ele>2314.6</ele>
        <time>2022-08-16T08:09:18Z</time>
      </trkpt>
      <trkpt lat="44.48451" lon="6.84537">
        <ele>2314.8</ele>
        <time>2022-08-16T08:09:19Z</time>
      </trkpt>
      <trkpt lat="44.48451" lon="6.84539">
        <ele>2314.8</ele>
        <time>2022-08-16T08:09:20Z</time>
      </trkpt>
      <trkpt lat="44.48451" lon="6.84541">
        <ele>2315</ele>
        <time>2022-08-16T08:09:21Z</time>
      </trkpt>
      <trkpt lat="44.48451" lon="6.84542">
        <ele>2315.2</ele>
        <time>2022-08-16T08:09:22Z</time>
      </trkpt>
      <trkpt lat="44.48451" lon="6.84544">
        <ele>2315.2</ele>
        <time>2022-08-16T08:09:23Z</time>
      </trkpt>
      <trkpt lat="44.48451" lon="6.84546">
        <ele>2315.4</ele>
        <time>2022-08-16T08:09:24Z</time>
      </trkpt>
      <trkpt lat="44.48451" lon="6.84548">
        <ele>2315.4</ele>
        <time>2022-08-16T08:09:25Z</time>
      </trkpt>
      <trkpt lat="44.4845" lon="6.84549">
        <ele>2315.4</ele>
        <time>2022-08-16T08:09:26Z</time>
      </trkpt>
      <trkpt lat="44.4845" lon="6.84551">
        <ele>2315.6</ele>
        <time>2022-08-16T08:09:27Z</time>
      </trkpt>
      <trkpt lat="44.4845" lon="6.84553">
        <ele>2315.6</ele>
        <time>2022-08-16T08:09:28Z</time>
      </trkpt>
      <trkpt lat="44.4845" lon="6.84554">
        <ele>2315.8</ele>
        <time>2022-08-16T08:09:29Z</time>
      </trkpt>
      <trkpt lat="44.48449" lon="6.84556">
        <ele>2316.2</ele>
        <time>2022-08-16T08:09:30Z</time>
      </trkpt>
      <trkpt lat="44.48449" lon="6.84558">
        <ele>2316.2</ele>
        <time>2022-08-16T08:09:31Z</time>
      </trkpt>
      <trkpt lat="44.48448" lon="6.8456">
        <ele>2316.4</ele>
        <time>2022-08-16T08:09:32Z</time>
      </trkpt>
      <trkpt lat="44.48448" lon="6.84561">
        <ele>2316.6</ele>
        <time>2022-08-16T08:09:33Z</time>
      </trkpt>
      <trkpt lat="44.48447" lon="6.84562">
        <ele>2316.8</ele>
        <time>2022-08-16T08:09:34Z</time>
      </trkpt>
      <trkpt lat="44.48447" lon="6.84564">
        <ele>2317</ele>
        <time>2022-08-16T08:09:35Z</time>
      </trkpt>
      <trkpt lat="44.48446" lon="6.84565">
        <ele>2317</ele>
        <time>2022-08-16T08:09:36Z</time>
      </trkpt>
      <trkpt lat="44.48445" lon="6.84566">
        <ele>2317.2</ele>
        <time>2022-08-16T08:09:37Z</time>
      </trkpt>
      <trkpt lat="44.48445" lon="6.84568">
        <ele>2317.6</ele>
        <time>2022-08-16T08:09:38Z</time>
      </trkpt>
      <trkpt lat="44.48444" lon="6.84569">
        <ele>2317.6</ele>
        <time>2022-08-16T08:09:39Z</time>
      </trkpt>
      <trkpt lat="44.48444" lon="6.84571">
        <ele>2317.6</ele>
        <time>2022-08-16T08:09:40Z</time>
      </trkpt>
      <trkpt lat="44.48443" lon="6.84572">
        <ele>2318</ele>
        <time>2022-08-16T08:09:41Z</time>
      </trkpt>
      <trkpt lat="44.48443" lon="6.84574">
        <ele>2318.2</ele>
        <time>2022-08-16T08:09:42Z</time>
      </trkpt>
      <trkpt lat="44.48442" lon="6.84575">
        <ele>2318.4</ele>
        <time>2022-08-16T08:09:43Z</time>
      </trkpt>
      <trkpt lat="44.48442" lon="6.84576">
        <ele>2318.4</ele>
        <time>2022-08-16T08:09:44Z</time>
      </trkpt>
      <trkpt lat="44.48441" lon="6.84577">
        <ele>2318.6</ele>
        <time>2022-08-16T08:09:45Z</time>
      </trkpt>
      <trkpt lat="44.48441" lon="6.84579">
        <ele>2318.6</ele>
        <time>2022-08-16T08:09:46Z</time>
      </trkpt>
      <trkpt lat="44.4844" lon="6.8458">
        <ele>2318.6</ele>
        <time>2022-08-16T08:09:47Z</time>
      </trkpt>
      <trkpt lat="44.48439" lon="6.84581">
        <ele>2318.8</ele>
        <time>2022-08-16T08:09:48Z</time>
      </trkpt>
      <trkpt lat="44.48439" lon="6.84583">
        <ele>2318.8</ele>
        <time>2022-08-16T08:09:49Z</time>
      </trkpt>
      <trkpt lat="44.48438" lon="6.84584">
        <ele>2319</ele>
        <time>2022-08-16T08:09:50Z</time>
      </trkpt>
      <trkpt lat="44.48437" lon="6.84586">
        <ele>2319.2</ele>
        <time>2022-08-16T08:09:51Z</time>
      </trkpt>
      <trkpt lat="44.48436" lon="6.84587">
        <ele>2319.2</ele>
        <time>2022-08-16T08:09:52Z</time>
      </trkpt>
      <trkpt lat="44.48436" lon="6.84588">
        <ele>2319.2</ele>
        <time>2022-08-16T08:09:53Z</time>
      </trkpt>
      <trkpt lat="44.48435" lon="6.8459">
        <ele>2319.2</ele>
        <time>2022-08-16T08:09:54Z</time>
      </trkpt>
      <trkpt lat="44.48434" lon="6.84591">
        <ele>2319.6</ele>
        <time>2022-08-16T08:09:55Z</time>
      </trkpt>
      <trkpt lat="44.48433" lon="6.84592">
        <ele>2319.8</ele>
        <time>2022-08-16T08:09:56Z</time>
      </trkpt>
      <trkpt lat="44.48432" lon="6.84593">
        <ele>2320</ele>
        <time>2022-08-16T08:09:57Z</time>
      </trkpt>
      <trkpt lat="44.48432" lon="6.84594">
        <ele>2320.2</ele>
        <time>2022-08-16T08:09:58Z</time>
      </trkpt>
      <trkpt lat="44.48431" lon="6.84596">
        <ele>2320.4</ele>
        <time>2022-08-16T08:09:59Z</time>
      </trkpt>
      <trkpt lat="44.4843" lon="6.84597">
        <ele>2320.6</ele>
        <time>2022-08-16T08:10:00Z</time>
      </trkpt>
      <trkpt lat="44.48429" lon="6.84599">
        <ele>2320.8</ele>
        <time>2022-08-16T08:10:01Z</time>
      </trkpt>
      <trkpt lat="44.48429" lon="6.846">
        <ele>2321</ele>
        <time>2022-08-16T08:10:02Z</time>
      </trkpt>
      <trkpt lat="44.48428" lon="6.84602">
        <ele>2321.2</ele>
        <time>2022-08-16T08:10:03Z</time>
      </trkpt>
      <trkpt lat="44.48427" lon="6.84604">
        <ele>2321.4</ele>
        <time>2022-08-16T08:10:04Z</time>
      </trkpt>
      <trkpt lat="44.48426" lon="6.84606">
        <ele>2321.4</ele>
        <time>2022-08-16T08:10:05Z</time>
      </trkpt>
      <trkpt lat="44.48425" lon="6.84607">
        <ele>2321.4</ele>
        <time>2022-08-16T08:10:06Z</time>
      </trkpt>
      <trkpt lat="44.48425" lon="6.84608">
        <ele>2321.6</ele>
        <time>2022-08-16T08:10:07Z</time>
      </trkpt>
      <trkpt lat="44.48424" lon="6.8461">
        <ele>2321.8</ele>
        <time>2022-08-16T08:10:08Z</time>
      </trkpt>
      <trkpt lat="44.48424" lon="6.84611">
        <ele>2321.8</ele>
        <time>2022-08-16T08:10:09Z</time>
      </trkpt>
      <trkpt lat="44.48423" lon="6.84613">
        <ele>2322</ele>
        <time>2022-08-16T08:10:10Z</time>
      </trkpt>
      <trkpt lat="44.48423" lon="6.84614">
        <ele>2322</ele>
        <time>2022-08-16T08:10:11Z</time>
      </trkpt>
      <trkpt lat="44.48422" lon="6.84615">
        <ele>2322</ele>
        <time>2022-08-16T08:10:12Z</time>
      </trkpt>
      <trkpt lat="44.48421" lon="6.84617">
        <ele>2322.4</ele>
        <time>2022-08-16T08:10:13Z</time>
      </trkpt>
      <trkpt lat="44.4842" lon="6.84618">
        <ele>2322.6</ele>
        <time>2022-08-16T08:10:14Z</time>
      </trkpt>
      <trkpt lat="44.48419" lon="6.84619">
        <ele>2322.6</ele>
        <time>2022-08-16T08:10:15Z</time>
      </trkpt>
      <trkpt lat="44.48419" lon="6.84621">
        <ele>2322.6</ele>
        <time>2022-08-16T08:10:16Z</time>
      </trkpt>
      <trkpt lat="44.48418" lon="6.84622">
        <ele>2322.6</ele>
        <time>2022-08-16T08:10:17Z</time>
      </trkpt>
      <trkpt lat="44.48417" lon="6.84624">
        <ele>2322.8</ele>
        <time>2022-08-16T08:10:18Z</time>
      </trkpt>
      <trkpt lat="44.48416" lon="6.84625">
        <ele>2322.8</ele>
        <time>2022-08-16T08:10:19Z</time>
      </trkpt>
      <trkpt lat="44.48416" lon="6.84627">
        <ele>2323</ele>
        <time>2022-08-16T08:10:20Z</time>
      </trkpt>
      <trkpt lat="44.48415" lon="6.84628">
        <ele>2323.2</ele>
        <time>2022-08-16T08:10:21Z</time>
      </trkpt>
      <trkpt lat="44.48414" lon="6.8463">
        <ele>2323.2</ele>
        <time>2022-08-16T08:10:22Z</time>
      </trkpt>
      <trkpt lat="44.48414" lon="6.84631">
        <ele>2323.4</ele>
        <time>2022-08-16T08:10:23Z</time>
      </trkpt>
      <trkpt lat="44.48413" lon="6.84633">
        <ele>2323.4</ele>
        <time>2022-08-16T08:10:24Z</time>
      </trkpt>
      <trkpt lat="44.48412" lon="6.84634">
        <ele>2323.6</ele>
        <time>2022-08-16T08:10:25Z</time>
      </trkpt>
      <trkpt lat="44.48411" lon="6.84635">
        <ele>2323.4</ele>
        <time>2022-08-16T08:10:26Z</time>
      </trkpt>
      <trkpt lat="44.48411" lon="6.84637">
        <ele>2323.4</ele>
        <time>2022-08-16T08:10:27Z</time>
      </trkpt>
      <trkpt lat="44.4841" lon="6.84638">
        <ele>2323.8</ele>
        <time>2022-08-16T08:10:28Z</time>
      </trkpt>
      <trkpt lat="44.48409" lon="6.8464">
        <ele>2323.8</ele>
        <time>2022-08-16T08:10:29Z</time>
      </trkpt>
      <trkpt lat="44.48409" lon="6.84641">
        <ele>2324</ele>
        <time>2022-08-16T08:10:30Z</time>
      </trkpt>
      <trkpt lat="44.48408" lon="6.84642">
        <ele>2324</ele>
        <time>2022-08-16T08:10:31Z</time>
      </trkpt>
      <trkpt lat="44.48407" lon="6.84644">
        <ele>2324.2</ele>
        <time>2022-08-16T08:10:32Z</time>
      </trkpt>
      <trkpt lat="44.48407" lon="6.84645">
        <ele>2324.4</ele>
        <time>2022-08-16T08:10:33Z</time>
      </trkpt>
      <trkpt lat="44.48406" lon="6.84647">
        <ele>2324.4</ele>
        <time>2022-08-16T08:10:34Z</time>
      </trkpt>
      <trkpt lat="44.48406" lon="6.84648">
        <ele>2324.4</ele>
        <time>2022-08-16T08:10:35Z</time>
      </trkpt>
      <trkpt lat="44.48405" lon="6.84649">
        <ele>2324.6</ele>
        <time>2022-08-16T08:10:36Z</time>
      </trkpt>
      <trkpt lat="44.48405" lon="6.84651">
        <ele>2324.8</ele>
        <time>2022-08-16T08:10:37Z</time>
      </trkpt>
      <trkpt lat="44.48404" lon="6.84652">
        <ele>2324.8</ele>
        <time>2022-08-16T08:10:38Z</time>
      </trkpt>
      <trkpt lat="44.48403" lon="6.84654">
        <ele>2324.8</ele>
        <time>2022-08-16T08:10:39Z</time>
      </trkpt>
      <trkpt lat="44.48403" lon="6.84655">
        <ele>2325.2</ele>
        <time>2022-08-16T08:10:40Z</time>
      </trkpt>
      <trkpt lat="44.48402" lon="6.84657">
        <ele>2325.2</ele>
        <time>2022-08-16T08:10:41Z</time>
      </trkpt>
      <trkpt lat="44.48401" lon="6.84658">
        <ele>2325.4</ele>
        <time>2022-08-16T08:10:42Z</time>
      </trkpt>
      <trkpt lat="44.484" lon="6.8466">
        <ele>2325.6</ele>
        <time>2022-08-16T08:10:43Z</time>
      </trkpt>
      <trkpt lat="44.484" lon="6.84661">
        <ele>2325.8</ele>
        <time>2022-08-16T08:10:44Z</time>
      </trkpt>
      <trkpt lat="44.48399" lon="6.84663">
        <ele>2325.8</ele>
        <time>2022-08-16T08:10:45Z</time>
      </trkpt>
      <trkpt lat="44.48398" lon="6.84664">
        <ele>2326</ele>
        <time>2022-08-16T08:10:46Z</time>
      </trkpt>
      <trkpt lat="44.48397" lon="6.84665">
        <ele>2326.2</ele>
        <time>2022-08-16T08:10:47Z</time>
      </trkpt>
      <trkpt lat="44.48396" lon="6.84666">
        <ele>2326.4</ele>
        <time>2022-08-16T08:10:48Z</time>
      </trkpt>
      <trkpt lat="44.48396" lon="6.84668">
        <ele>2326.4</ele>
        <time>2022-08-16T08:10:49Z</time>
      </trkpt>
      <trkpt lat="44.48395" lon="6.84669">
        <ele>2326.6</ele>
        <time>2022-08-16T08:10:50Z</time>
      </trkpt>
      <trkpt lat="44.48394" lon="6.8467">
        <ele>2326.8</ele>
        <time>2022-08-16T08:10:51Z</time>
      </trkpt>
      <trkpt lat="44.48393" lon="6.84671">
        <ele>2326.8</ele>
        <time>2022-08-16T08:10:52Z</time>
      </trkpt>
      <trkpt lat="44.48392" lon="6.84672">
        <ele>2326.8</ele>
        <time>2022-08-16T08:10:53Z</time>
      </trkpt>
      <trkpt lat="44.48391" lon="6.84673">
        <ele>2327</ele>
        <time>2022-08-16T08:10:54Z</time>
      </trkpt>
      <trkpt lat="44.48391" lon="6.84675">
        <ele>2327.2</ele>
        <time>2022-08-16T08:10:55Z</time>
      </trkpt>
      <trkpt lat="44.4839" lon="6.84676">
        <ele>2327.2</ele>
        <time>2022-08-16T08:10:56Z</time>
      </trkpt>
      <trkpt lat="44.48389" lon="6.84677">
        <ele>2327.2</ele>
        <time>2022-08-16T08:10:57Z</time>
      </trkpt>
      <trkpt lat="44.48388" lon="6.84679">
        <ele>2327.6</ele>
        <time>2022-08-16T08:10:58Z</time>
      </trkpt>
      <trkpt lat="44.48387" lon="6.8468">
        <ele>2327.4</ele>
        <time>2022-08-16T08:10:59Z</time>
      </trkpt>
      <trkpt lat="44.48387" lon="6.84682">
        <ele>2327.6</ele>
        <time>2022-08-16T08:11:00Z</time>
      </trkpt>
      <trkpt lat="44.48386" lon="6.84683">
        <ele>2327.8</ele>
        <time>2022-08-16T08:11:01Z</time>
      </trkpt>
      <trkpt lat="44.48385" lon="6.84684">
        <ele>2328</ele>
        <time>2022-08-16T08:11:02Z</time>
      </trkpt>
      <trkpt lat="44.48384" lon="6.84685">
        <ele>2328.4</ele>
        <time>2022-08-16T08:11:03Z</time>
      </trkpt>
      <trkpt lat="44.48383" lon="6.84686">
        <ele>2328.2</ele>
        <time>2022-08-16T08:11:04Z</time>
      </trkpt>
      <trkpt lat="44.48382" lon="6.84687">
        <ele>2328.4</ele>
        <time>2022-08-16T08:11:05Z</time>
      </trkpt>
      <trkpt lat="44.48381" lon="6.84689">
        <ele>2328.6</ele>
        <time>2022-08-16T08:11:06Z</time>
      </trkpt>
      <trkpt lat="44.4838" lon="6.8469">
        <ele>2328.8</ele>
        <time>2022-08-16T08:11:07Z</time>
      </trkpt>
      <trkpt lat="44.48379" lon="6.84691">
        <ele>2328.8</ele>
        <time>2022-08-16T08:11:08Z</time>
      </trkpt>
      <trkpt lat="44.48378" lon="6.84692">
        <ele>2329</ele>
        <time>2022-08-16T08:11:09Z</time>
      </trkpt>
      <trkpt lat="44.48378" lon="6.84693">
        <ele>2329.4</ele>
        <time>2022-08-16T08:11:10Z</time>
      </trkpt>
      <trkpt lat="44.48377" lon="6.84694">
        <ele>2329.4</ele>
        <time>2022-08-16T08:11:11Z</time>
      </trkpt>
      <trkpt lat="44.48376" lon="6.84696">
        <ele>2329.4</ele>
        <time>2022-08-16T08:11:12Z</time>
      </trkpt>
      <trkpt lat="44.48375" lon="6.84697">
        <ele>2329.6</ele>
        <time>2022-08-16T08:11:13Z</time>
      </trkpt>
      <trkpt lat="44.48374" lon="6.84698">
        <ele>2330</ele>
        <time>2022-08-16T08:11:14Z</time>
      </trkpt>
      <trkpt lat="44.48373" lon="6.84699">
        <ele>2330.2</ele>
        <time>2022-08-16T08:11:15Z</time>
      </trkpt>
      <trkpt lat="44.48372" lon="6.84701">
        <ele>2330.2</ele>
        <time>2022-08-16T08:11:16Z</time>
      </trkpt>
      <trkpt lat="44.48371" lon="6.84702">
        <ele>2330.4</ele>
        <time>2022-08-16T08:11:17Z</time>
      </trkpt>
      <trkpt lat="44.4837" lon="6.84703">
        <ele>2330.4</ele>
        <time>2022-08-16T08:11:18Z</time>
      </trkpt>
      <trkpt lat="44.48369" lon="6.84704">
        <ele>2330.4</ele>
        <time>2022-08-16T08:11:19Z</time>
      </trkpt>
      <trkpt lat="44.48368" lon="6.84705">
        <ele>2330.6</ele>
        <time>2022-08-16T08:11:20Z</time>
      </trkpt>
      <trkpt lat="44.48367" lon="6.84707">
        <ele>2330.8</ele>
        <time>2022-08-16T08:11:21Z</time>
      </trkpt>
      <trkpt lat="44.48367" lon="6.84707">
        <ele>2330.8</ele>
        <time>2022-08-16T08:11:22Z</time>
      </trkpt>
      <trkpt lat="44.48366" lon="6.84707">
        <ele>2331.2</ele>
        <time>2022-08-16T08:11:24Z</time>
      </trkpt>
      <trkpt lat="44.48367" lon="6.84707">
        <ele>2332</ele>
        <time>2022-08-16T08:11:28Z</time>
      </trkpt>
      <trkpt lat="44.48367" lon="6.84707">
        <ele>2332.4</ele>
        <time>2022-08-16T08:11:50Z</time>
      </trkpt>
      <trkpt lat="44.48367" lon="6.84707">
        <ele>2332.6</ele>
        <time>2022-08-16T08:11:58Z</time>
      </trkpt>
      <trkpt lat="44.48367" lon="6.84706">
        <ele>2332.8</ele>
        <time>2022-08-16T08:12:06Z</time>
      </trkpt>
      <trkpt lat="44.48367" lon="6.84706">
        <ele>2332.6</ele>
        <time>2022-08-16T08:12:07Z</time>
      </trkpt>
      <trkpt lat="44.48367" lon="6.84707">
        <ele>2332.6</ele>
        <time>2022-08-16T08:12:17Z</time>
      </trkpt>
      <trkpt lat="44.48366" lon="6.84707">
        <ele>2333</ele>
        <time>2022-08-16T08:12:31Z</time>
      </trkpt>
      <trkpt lat="44.48366" lon="6.84708">
        <ele>2332.8</ele>
        <time>2022-08-16T08:12:45Z</time>
      </trkpt>
      <trkpt lat="44.48365" lon="6.84709">
        <ele>2333</ele>
        <time>2022-08-16T08:12:46Z</time>
      </trkpt>
      <trkpt lat="44.48364" lon="6.84712">
        <ele>2332.8</ele>
        <time>2022-08-16T08:12:48Z</time>
      </trkpt>
      <trkpt lat="44.48363" lon="6.84713">
        <ele>2333</ele>
        <time>2022-08-16T08:12:49Z</time>
      </trkpt>
      <trkpt lat="44.48361" lon="6.84717">
        <ele>2333</ele>
        <time>2022-08-16T08:12:52Z</time>
      </trkpt>
      <trkpt lat="44.48358" lon="6.84721">
        <ele>2333</ele>
        <time>2022-08-16T08:12:55Z</time>
      </trkpt>
      <trkpt lat="44.48355" lon="6.84724">
        <ele>2333.2</ele>
        <time>2022-08-16T08:12:58Z</time>
      </trkpt>
      <trkpt lat="44.48353" lon="6.84725">
        <ele>2333.2</ele>
        <time>2022-08-16T08:12:59Z</time>
      </trkpt>
      <trkpt lat="44.48352" lon="6.84726">
        <ele>2333.2</ele>
        <time>2022-08-16T08:13:00Z</time>
      </trkpt>
      <trkpt lat="44.48352" lon="6.84728">
        <ele>2333.2</ele>
        <time>2022-08-16T08:13:01Z</time>
      </trkpt>
      <trkpt lat="44.4835" lon="6.84729">
        <ele>2333.4</ele>
        <time>2022-08-16T08:13:03Z</time>
      </trkpt>
      <trkpt lat="44.48345" lon="6.84733">
        <ele>2334.2</ele>
        <time>2022-08-16T08:13:07Z</time>
      </trkpt>
      <trkpt lat="44.48344" lon="6.84734">
        <ele>2334.4</ele>
        <time>2022-08-16T08:13:08Z</time>
      </trkpt>
      <trkpt lat="44.48343" lon="6.84734">
        <ele>2334.6</ele>
        <time>2022-08-16T08:13:09Z</time>
      </trkpt>
      <trkpt lat="44.48343" lon="6.84735">
        <ele>2334.6</ele>
        <time>2022-08-16T08:13:10Z</time>
      </trkpt>
      <trkpt lat="44.48342" lon="6.84736">
        <ele>2334.8</ele>
        <time>2022-08-16T08:13:11Z</time>
      </trkpt>
      <trkpt lat="44.48341" lon="6.84736">
        <ele>2335</ele>
        <time>2022-08-16T08:13:12Z</time>
      </trkpt>
      <trkpt lat="44.4834" lon="6.84737">
        <ele>2335</ele>
        <time>2022-08-16T08:13:13Z</time>
      </trkpt>
      <trkpt lat="44.48339" lon="6.84738">
        <ele>2335.2</ele>
        <time>2022-08-16T08:13:14Z</time>
      </trkpt>
      <trkpt lat="44.48338" lon="6.84739">
        <ele>2335.2</ele>
        <time>2022-08-16T08:13:15Z</time>
      </trkpt>
      <trkpt lat="44.48337" lon="6.84739">
        <ele>2335.4</ele>
        <time>2022-08-16T08:13:16Z</time>
      </trkpt>
      <trkpt lat="44.48336" lon="6.8474">
        <ele>2335.4</ele>
        <time>2022-08-16T08:13:17Z</time>
      </trkpt>
      <trkpt lat="44.48335" lon="6.8474">
        <ele>2335.6</ele>
        <time>2022-08-16T08:13:18Z</time>
      </trkpt>
      <trkpt lat="44.48334" lon="6.84741">
        <ele>2335.8</ele>
        <time>2022-08-16T08:13:19Z</time>
      </trkpt>
      <trkpt lat="44.48333" lon="6.84742">
        <ele>2336</ele>
        <time>2022-08-16T08:13:20Z</time>
      </trkpt>
      <trkpt lat="44.48332" lon="6.84742">
        <ele>2336.2</ele>
        <time>2022-08-16T08:13:21Z</time>
      </trkpt>
      <trkpt lat="44.4833" lon="6.84743">
        <ele>2336.4</ele>
        <time>2022-08-16T08:13:22Z</time>
      </trkpt>
      <trkpt lat="44.48329" lon="6.84743">
        <ele>2336.6</ele>
        <time>2022-08-16T08:13:23Z</time>
      </trkpt>
      <trkpt lat="44.48328" lon="6.84744">
        <ele>2336.6</ele>
        <time>2022-08-16T08:13:24Z</time>
      </trkpt>
      <trkpt lat="44.48327" lon="6.84745">
        <ele>2336.8</ele>
        <time>2022-08-16T08:13:25Z</time>
      </trkpt>
      <trkpt lat="44.48326" lon="6.84746">
        <ele>2337</ele>
        <time>2022-08-16T08:13:26Z</time>
      </trkpt>
      <trkpt lat="44.48324" lon="6.84746">
        <ele>2337</ele>
        <time>2022-08-16T08:13:27Z</time>
      </trkpt>
      <trkpt lat="44.48323" lon="6.84747">
        <ele>2337.2</ele>
        <time>2022-08-16T08:13:28Z</time>
      </trkpt>
      <trkpt lat="44.48322" lon="6.84748">
        <ele>2337.4</ele>
        <time>2022-08-16T08:13:29Z</time>
      </trkpt>
      <trkpt lat="44.48321" lon="6.84748">
        <ele>2337.6</ele>
        <time>2022-08-16T08:13:30Z</time>
      </trkpt>
      <trkpt lat="44.4832" lon="6.84749">
        <ele>2337.8</ele>
        <time>2022-08-16T08:13:31Z</time>
      </trkpt>
      <trkpt lat="44.48319" lon="6.8475">
        <ele>2338</ele>
        <time>2022-08-16T08:13:32Z</time>
      </trkpt>
      <trkpt lat="44.48318" lon="6.84751">
        <ele>2338</ele>
        <time>2022-08-16T08:13:33Z</time>
      </trkpt>
      <trkpt lat="44.48317" lon="6.84751">
        <ele>2338.2</ele>
        <time>2022-08-16T08:13:34Z</time>
      </trkpt>
      <trkpt lat="44.48316" lon="6.84752">
        <ele>2338.2</ele>
        <time>2022-08-16T08:13:35Z</time>
      </trkpt>
      <trkpt lat="44.48315" lon="6.84753">
        <ele>2338.4</ele>
        <time>2022-08-16T08:13:36Z</time>
      </trkpt>
      <trkpt lat="44.48314" lon="6.84753">
        <ele>2338.8</ele>
        <time>2022-08-16T08:13:37Z</time>
      </trkpt>
      <trkpt lat="44.48313" lon="6.84754">
        <ele>2339</ele>
        <time>2022-08-16T08:13:38Z</time>
      </trkpt>
      <trkpt lat="44.48311" lon="6.84754">
        <ele>2339.2</ele>
        <time>2022-08-16T08:13:39Z</time>
      </trkpt>
      <trkpt lat="44.4831" lon="6.84755">
        <ele>2339.4</ele>
        <time>2022-08-16T08:13:40Z</time>
      </trkpt>
      <trkpt lat="44.48309" lon="6.84756">
        <ele>2339.6</ele>
        <time>2022-08-16T08:13:41Z</time>
      </trkpt>
      <trkpt lat="44.48308" lon="6.84756">
        <ele>2339.8</ele>
        <time>2022-08-16T08:13:42Z</time>
      </trkpt>
      <trkpt lat="44.48307" lon="6.84757">
        <ele>2340</ele>
        <time>2022-08-16T08:13:43Z</time>
      </trkpt>
      <trkpt lat="44.48306" lon="6.84757">
        <ele>2340.2</ele>
        <time>2022-08-16T08:13:44Z</time>
      </trkpt>
      <trkpt lat="44.48305" lon="6.84758">
        <ele>2340.6</ele>
        <time>2022-08-16T08:13:45Z</time>
      </trkpt>
      <trkpt lat="44.48304" lon="6.84759">
        <ele>2340.8</ele>
        <time>2022-08-16T08:13:46Z</time>
      </trkpt>
      <trkpt lat="44.48303" lon="6.8476">
        <ele>2340.6</ele>
        <time>2022-08-16T08:13:47Z</time>
      </trkpt>
      <trkpt lat="44.48302" lon="6.8476">
        <ele>2340.8</ele>
        <time>2022-08-16T08:13:48Z</time>
      </trkpt>
      <trkpt lat="44.48301" lon="6.84761">
        <ele>2341</ele>
        <time>2022-08-16T08:13:49Z</time>
      </trkpt>
      <trkpt lat="44.483" lon="6.84761">
        <ele>2341.2</ele>
        <time>2022-08-16T08:13:50Z</time>
      </trkpt>
      <trkpt lat="44.48299" lon="6.84762">
        <ele>2341.2</ele>
        <time>2022-08-16T08:13:51Z</time>
      </trkpt>
      <trkpt lat="44.48298" lon="6.84763">
        <ele>2341.4</ele>
        <time>2022-08-16T08:13:52Z</time>
      </trkpt>
      <trkpt lat="44.48297" lon="6.84764">
        <ele>2341.8</ele>
        <time>2022-08-16T08:13:53Z</time>
      </trkpt>
      <trkpt lat="44.48296" lon="6.84764">
        <ele>2341.8</ele>
        <time>2022-08-16T08:13:54Z</time>
      </trkpt>
      <trkpt lat="44.48295" lon="6.84765">
        <ele>2342</ele>
        <time>2022-08-16T08:13:55Z</time>
      </trkpt>
      <trkpt lat="44.48294" lon="6.84766">
        <ele>2342</ele>
        <time>2022-08-16T08:13:56Z</time>
      </trkpt>
      <trkpt lat="44.48293" lon="6.84767">
        <ele>2342.2</ele>
        <time>2022-08-16T08:13:57Z</time>
      </trkpt>
      <trkpt lat="44.48292" lon="6.84768">
        <ele>2342.2</ele>
        <time>2022-08-16T08:13:58Z</time>
      </trkpt>
      <trkpt lat="44.48291" lon="6.84769">
        <ele>2342.6</ele>
        <time>2022-08-16T08:13:59Z</time>
      </trkpt>
      <trkpt lat="44.4829" lon="6.8477">
        <ele>2342.4</ele>
        <time>2022-08-16T08:14:00Z</time>
      </trkpt>
      <trkpt lat="44.4829" lon="6.84771">
        <ele>2342.6</ele>
        <time>2022-08-16T08:14:01Z</time>
      </trkpt>
      <trkpt lat="44.48289" lon="6.84772">
        <ele>2342.8</ele>
        <time>2022-08-16T08:14:02Z</time>
      </trkpt>
      <trkpt lat="44.48288" lon="6.84773">
        <ele>2343</ele>
        <time>2022-08-16T08:14:03Z</time>
      </trkpt>
      <trkpt lat="44.48287" lon="6.84773">
        <ele>2343.2</ele>
        <time>2022-08-16T08:14:04Z</time>
      </trkpt>
      <trkpt lat="44.48286" lon="6.84774">
        <ele>2343.4</ele>
        <time>2022-08-16T08:14:05Z</time>
      </trkpt>
      <trkpt lat="44.48285" lon="6.84775">
        <ele>2343.6</ele>
        <time>2022-08-16T08:14:06Z</time>
      </trkpt>
      <trkpt lat="44.48284" lon="6.84776">
        <ele>2343.6</ele>
        <time>2022-08-16T08:14:07Z</time>
      </trkpt>
      <trkpt lat="44.48283" lon="6.84776">
        <ele>2343.8</ele>
        <time>2022-08-16T08:14:08Z</time>
      </trkpt>
      <trkpt lat="44.48282" lon="6.84777">
        <ele>2344</ele>
        <time>2022-08-16T08:14:09Z</time>
      </trkpt>
      <trkpt lat="44.48281" lon="6.84777">
        <ele>2344.2</ele>
        <time>2022-08-16T08:14:10Z</time>
      </trkpt>
      <trkpt lat="44.4828" lon="6.84778">
        <ele>2344.2</ele>
        <time>2022-08-16T08:14:11Z</time>
      </trkpt>
      <trkpt lat="44.48279" lon="6.84779">
        <ele>2344.4</ele>
        <time>2022-08-16T08:14:12Z</time>
      </trkpt>
      <trkpt lat="44.48278" lon="6.8478">
        <ele>2344.6</ele>
        <time>2022-08-16T08:14:13Z</time>
      </trkpt>
      <trkpt lat="44.48277" lon="6.84781">
        <ele>2344.8</ele>
        <time>2022-08-16T08:14:14Z</time>
      </trkpt>
      <trkpt lat="44.48276" lon="6.84781">
        <ele>2345</ele>
        <time>2022-08-16T08:14:15Z</time>
      </trkpt>
      <trkpt lat="44.48274" lon="6.84782">
        <ele>2345</ele>
        <time>2022-08-16T08:14:16Z</time>
      </trkpt>
      <trkpt lat="44.48273" lon="6.84783">
        <ele>2345.2</ele>
        <time>2022-08-16T08:14:17Z</time>
      </trkpt>
      <trkpt lat="44.48272" lon="6.84784">
        <ele>2345.4</ele>
        <time>2022-08-16T08:14:18Z</time>
      </trkpt>
      <trkpt lat="44.48271" lon="6.84785">
        <ele>2345.6</ele>
        <time>2022-08-16T08:14:19Z</time>
      </trkpt>
      <trkpt lat="44.4827" lon="6.84785">
        <ele>2345.6</ele>
        <time>2022-08-16T08:14:20Z</time>
      </trkpt>
      <trkpt lat="44.48269" lon="6.84786">
        <ele>2345.4</ele>
        <time>2022-08-16T08:14:21Z</time>
      </trkpt>
      <trkpt lat="44.48269" lon="6.84786">
        <ele>2345.8</ele>
        <time>2022-08-16T08:14:22Z</time>
      </trkpt>
      <trkpt lat="44.48268" lon="6.84787">
        <ele>2345.8</ele>
        <time>2022-08-16T08:14:23Z</time>
      </trkpt>
      <trkpt lat="44.48267" lon="6.84788">
        <ele>2346.2</ele>
        <time>2022-08-16T08:14:24Z</time>
      </trkpt>
      <trkpt lat="44.48266" lon="6.84789">
        <ele>2346</ele>
        <time>2022-08-16T08:14:25Z</time>
      </trkpt>
      <trkpt lat="44.48265" lon="6.8479">
        <ele>2346.2</ele>
        <time>2022-08-16T08:14:26Z</time>
      </trkpt>
      <trkpt lat="44.48264" lon="6.8479">
        <ele>2346.6</ele>
        <time>2022-08-16T08:14:27Z</time>
      </trkpt>
      <trkpt lat="44.48263" lon="6.84791">
        <ele>2346.6</ele>
        <time>2022-08-16T08:14:28Z</time>
      </trkpt>
      <trkpt lat="44.48263" lon="6.84792">
        <ele>2346.6</ele>
        <time>2022-08-16T08:14:29Z</time>
      </trkpt>
      <trkpt lat="44.48262" lon="6.84793">
        <ele>2346.8</ele>
        <time>2022-08-16T08:14:30Z</time>
      </trkpt>
      <trkpt lat="44.48261" lon="6.84793">
        <ele>2346.8</ele>
        <time>2022-08-16T08:14:31Z</time>
      </trkpt>
      <trkpt lat="44.4826" lon="6.84794">
        <ele>2347.2</ele>
        <time>2022-08-16T08:14:32Z</time>
      </trkpt>
      <trkpt lat="44.48259" lon="6.84795">
        <ele>2347.4</ele>
        <time>2022-08-16T08:14:33Z</time>
      </trkpt>
      <trkpt lat="44.48258" lon="6.84796">
        <ele>2347.6</ele>
        <time>2022-08-16T08:14:34Z</time>
      </trkpt>
      <trkpt lat="44.48257" lon="6.84797">
        <ele>2347.6</ele>
        <time>2022-08-16T08:14:35Z</time>
      </trkpt>
      <trkpt lat="44.48256" lon="6.84797">
        <ele>2347.6</ele>
        <time>2022-08-16T08:14:36Z</time>
      </trkpt>
      <trkpt lat="44.48255" lon="6.84798">
        <ele>2347.8</ele>
        <time>2022-08-16T08:14:37Z</time>
      </trkpt>
      <trkpt lat="44.48254" lon="6.84799">
        <ele>2348</ele>
        <time>2022-08-16T08:14:38Z</time>
      </trkpt>
      <trkpt lat="44.48253" lon="6.848">
        <ele>2348.2</ele>
        <time>2022-08-16T08:14:39Z</time>
      </trkpt>
      <trkpt lat="44.48252" lon="6.848">
        <ele>2348.4</ele>
        <time>2022-08-16T08:14:40Z</time>
      </trkpt>
      <trkpt lat="44.48251" lon="6.84801">
        <ele>2348.4</ele>
        <time>2022-08-16T08:14:41Z</time>
      </trkpt>
      <trkpt lat="44.4825" lon="6.84802">
        <ele>2348.6</ele>
        <time>2022-08-16T08:14:42Z</time>
      </trkpt>
      <trkpt lat="44.48249" lon="6.84803">
        <ele>2348.6</ele>
        <time>2022-08-16T08:14:43Z</time>
      </trkpt>
      <trkpt lat="44.48248" lon="6.84804">
        <ele>2348.6</ele>
        <time>2022-08-16T08:14:44Z</time>
      </trkpt>
      <trkpt lat="44.48247" lon="6.84804">
        <ele>2348.6</ele>
        <time>2022-08-16T08:14:45Z</time>
      </trkpt>
      <trkpt lat="44.48246" lon="6.84805">
        <ele>2348.8</ele>
        <time>2022-08-16T08:14:46Z</time>
      </trkpt>
      <trkpt lat="44.48245" lon="6.84805">
        <ele>2349.2</ele>
        <time>2022-08-16T08:14:47Z</time>
      </trkpt>
      <trkpt lat="44.48245" lon="6.84806">
        <ele>2349.4</ele>
        <time>2022-08-16T08:14:48Z</time>
      </trkpt>
      <trkpt lat="44.48244" lon="6.84807">
        <ele>2349.4</ele>
        <time>2022-08-16T08:14:49Z</time>
      </trkpt>
      <trkpt lat="44.48243" lon="6.84808">
        <ele>2349.4</ele>
        <time>2022-08-16T08:14:50Z</time>
      </trkpt>
      <trkpt lat="44.48242" lon="6.84809">
        <ele>2349.6</ele>
        <time>2022-08-16T08:14:51Z</time>
      </trkpt>
      <trkpt lat="44.48242" lon="6.8481">
        <ele>2350</ele>
        <time>2022-08-16T08:14:52Z</time>
      </trkpt>
      <trkpt lat="44.48241" lon="6.84811">
        <ele>2350</ele>
        <time>2022-08-16T08:14:53Z</time>
      </trkpt>
      <trkpt lat="44.4824" lon="6.84811">
        <ele>2350.2</ele>
        <time>2022-08-16T08:14:54Z</time>
      </trkpt>
      <trkpt lat="44.48239" lon="6.84812">
        <ele>2350.4</ele>
        <time>2022-08-16T08:14:55Z</time>
      </trkpt>
      <trkpt lat="44.48238" lon="6.84813">
        <ele>2350.6</ele>
        <time>2022-08-16T08:14:56Z</time>
      </trkpt>
      <trkpt lat="44.48237" lon="6.84814">
        <ele>2350.8</ele>
        <time>2022-08-16T08:14:57Z</time>
      </trkpt>
      <trkpt lat="44.48236" lon="6.84815">
        <ele>2350.8</ele>
        <time>2022-08-16T08:14:58Z</time>
      </trkpt>
      <trkpt lat="44.48235" lon="6.84816">
        <ele>2350.8</ele>
        <time>2022-08-16T08:14:59Z</time>
      </trkpt>
      <trkpt lat="44.48234" lon="6.84817">
        <ele>2351</ele>
        <time>2022-08-16T08:15:00Z</time>
      </trkpt>
      <trkpt lat="44.48233" lon="6.84818">
        <ele>2351.2</ele>
        <time>2022-08-16T08:15:01Z</time>
      </trkpt>
      <trkpt lat="44.48232" lon="6.84818">
        <ele>2351.4</ele>
        <time>2022-08-16T08:15:02Z</time>
      </trkpt>
      <trkpt lat="44.48231" lon="6.84819">
        <ele>2351.6</ele>
        <time>2022-08-16T08:15:03Z</time>
      </trkpt>
      <trkpt lat="44.4823" lon="6.84819">
        <ele>2352</ele>
        <time>2022-08-16T08:15:04Z</time>
      </trkpt>
      <trkpt lat="44.48229" lon="6.84819">
        <ele>2352</ele>
        <time>2022-08-16T08:15:05Z</time>
      </trkpt>
      <trkpt lat="44.48228" lon="6.84819">
        <ele>2352.2</ele>
        <time>2022-08-16T08:15:06Z</time>
      </trkpt>
      <trkpt lat="44.48226" lon="6.84819">
        <ele>2352.6</ele>
        <time>2022-08-16T08:15:07Z</time>
      </trkpt>
      <trkpt lat="44.48225" lon="6.84819">
        <ele>2352.6</ele>
        <time>2022-08-16T08:15:08Z</time>
      </trkpt>
      <trkpt lat="44.48224" lon="6.84819">
        <ele>2352.6</ele>
        <time>2022-08-16T08:15:09Z</time>
      </trkpt>
      <trkpt lat="44.48223" lon="6.84818">
        <ele>2353</ele>
        <time>2022-08-16T08:15:10Z</time>
      </trkpt>
      <trkpt lat="44.48222" lon="6.84818">
        <ele>2353</ele>
        <time>2022-08-16T08:15:11Z</time>
      </trkpt>
      <trkpt lat="44.48221" lon="6.84817">
        <ele>2353.2</ele>
        <time>2022-08-16T08:15:12Z</time>
      </trkpt>
      <trkpt lat="44.4822" lon="6.84817">
        <ele>2353.4</ele>
        <time>2022-08-16T08:15:13Z</time>
      </trkpt>
      <trkpt lat="44.4822" lon="6.84817">
        <ele>2353.4</ele>
        <time>2022-08-16T08:15:14Z</time>
      </trkpt>
      <trkpt lat="44.48219" lon="6.84816">
        <ele>2353.6</ele>
        <time>2022-08-16T08:15:15Z</time>
      </trkpt>
      <trkpt lat="44.48218" lon="6.84816">
        <ele>2353.4</ele>
        <time>2022-08-16T08:15:16Z</time>
      </trkpt>
      <trkpt lat="44.48217" lon="6.84816">
        <ele>2353.8</ele>
        <time>2022-08-16T08:15:17Z</time>
      </trkpt>
      <trkpt lat="44.48216" lon="6.84815">
        <ele>2354</ele>
        <time>2022-08-16T08:15:18Z</time>
      </trkpt>
      <trkpt lat="44.48215" lon="6.84815">
        <ele>2354.2</ele>
        <time>2022-08-16T08:15:19Z</time>
      </trkpt>
      <trkpt lat="44.48213" lon="6.84815">
        <ele>2354.2</ele>
        <time>2022-08-16T08:15:20Z</time>
      </trkpt>
      <trkpt lat="44.48212" lon="6.84815">
        <ele>2354.2</ele>
        <time>2022-08-16T08:15:21Z</time>
      </trkpt>
      <trkpt lat="44.48211" lon="6.84815">
        <ele>2354.2</ele>
        <time>2022-08-16T08:15:22Z</time>
      </trkpt>
      <trkpt lat="44.4821" lon="6.84816">
        <ele>2354.4</ele>
        <time>2022-08-16T08:15:23Z</time>
      </trkpt>
      <trkpt lat="44.48209" lon="6.84816">
        <ele>2354.6</ele>
        <time>2022-08-16T08:15:24Z</time>
      </trkpt>
      <trkpt lat="44.48208" lon="6.84816">
        <ele>2354.6</ele>
        <time>2022-08-16T08:15:25Z</time>
      </trkpt>
      <trkpt lat="44.48207" lon="6.84817">
        <ele>2354.8</ele>
        <time>2022-08-16T08:15:26Z</time>
      </trkpt>
      <trkpt lat="44.48206" lon="6.84817">
        <ele>2354.8</ele>
        <time>2022-08-16T08:15:27Z</time>
      </trkpt>
      <trkpt lat="44.48205" lon="6.84817">
        <ele>2355</ele>
        <time>2022-08-16T08:15:28Z</time>
      </trkpt>
      <trkpt lat="44.48204" lon="6.84818">
        <ele>2355.2</ele>
        <time>2022-08-16T08:15:29Z</time>
      </trkpt>
      <trkpt lat="44.48203" lon="6.84818">
        <ele>2355.4</ele>
        <time>2022-08-16T08:15:30Z</time>
      </trkpt>
      <trkpt lat="44.48202" lon="6.84819">
        <ele>2355.4</ele>
        <time>2022-08-16T08:15:31Z</time>
      </trkpt>
      <trkpt lat="44.48201" lon="6.84819">
        <ele>2355.6</ele>
        <time>2022-08-16T08:15:32Z</time>
      </trkpt>
      <trkpt lat="44.482" lon="6.8482">
        <ele>2355.8</ele>
        <time>2022-08-16T08:15:33Z</time>
      </trkpt>
      <trkpt lat="44.48198" lon="6.84821">
        <ele>2356</ele>
        <time>2022-08-16T08:15:34Z</time>
      </trkpt>
      <trkpt lat="44.48197" lon="6.84821">
        <ele>2356.4</ele>
        <time>2022-08-16T08:15:35Z</time>
      </trkpt>
      <trkpt lat="44.48196" lon="6.84822">
        <ele>2356.6</ele>
        <time>2022-08-16T08:15:36Z</time>
      </trkpt>
      <trkpt lat="44.48195" lon="6.84822">
        <ele>2357</ele>
        <time>2022-08-16T08:15:37Z</time>
      </trkpt>
      <trkpt lat="44.48194" lon="6.84823">
        <ele>2357</ele>
        <time>2022-08-16T08:15:38Z</time>
      </trkpt>
      <trkpt lat="44.48193" lon="6.84823">
        <ele>2357</ele>
        <time>2022-08-16T08:15:39Z</time>
      </trkpt>
      <trkpt lat="44.48192" lon="6.84824">
        <ele>2357.2</ele>
        <time>2022-08-16T08:15:40Z</time>
      </trkpt>
      <trkpt lat="44.48191" lon="6.84825">
        <ele>2357.2</ele>
        <time>2022-08-16T08:15:41Z</time>
      </trkpt>
      <trkpt lat="44.4819" lon="6.84825">
        <ele>2357.4</ele>
        <time>2022-08-16T08:15:42Z</time>
      </trkpt>
      <trkpt lat="44.48189" lon="6.84826">
        <ele>2357.6</ele>
        <time>2022-08-16T08:15:43Z</time>
      </trkpt>
      <trkpt lat="44.48188" lon="6.84827">
        <ele>2357.6</ele>
        <time>2022-08-16T08:15:44Z</time>
      </trkpt>
      <trkpt lat="44.48188" lon="6.84828">
        <ele>2357.8</ele>
        <time>2022-08-16T08:15:45Z</time>
      </trkpt>
      <trkpt lat="44.48187" lon="6.84829">
        <ele>2358</ele>
        <time>2022-08-16T08:15:46Z</time>
      </trkpt>
      <trkpt lat="44.48185" lon="6.84829">
        <ele>2358.4</ele>
        <time>2022-08-16T08:15:47Z</time>
      </trkpt>
      <trkpt lat="44.48184" lon="6.8483">
        <ele>2358.4</ele>
        <time>2022-08-16T08:15:48Z</time>
      </trkpt>
      <trkpt lat="44.48183" lon="6.8483">
        <ele>2358.4</ele>
        <time>2022-08-16T08:15:49Z</time>
      </trkpt>
      <trkpt lat="44.48182" lon="6.84831">
        <ele>2358.4</ele>
        <time>2022-08-16T08:15:50Z</time>
      </trkpt>
      <trkpt lat="44.48181" lon="6.84832">
        <ele>2358.6</ele>
        <time>2022-08-16T08:15:51Z</time>
      </trkpt>
      <trkpt lat="44.4818" lon="6.84832">
        <ele>2358.8</ele>
        <time>2022-08-16T08:15:52Z</time>
      </trkpt>
      <trkpt lat="44.48179" lon="6.84832">
        <ele>2358.8</ele>
        <time>2022-08-16T08:15:53Z</time>
      </trkpt>
      <trkpt lat="44.48178" lon="6.84832">
        <ele>2359</ele>
        <time>2022-08-16T08:15:54Z</time>
      </trkpt>
      <trkpt lat="44.48177" lon="6.84833">
        <ele>2359.2</ele>
        <time>2022-08-16T08:15:55Z</time>
      </trkpt>
      <trkpt lat="44.48176" lon="6.84833">
        <ele>2359.4</ele>
        <time>2022-08-16T08:15:56Z</time>
      </trkpt>
      <trkpt lat="44.48175" lon="6.84833">
        <ele>2359.4</ele>
        <time>2022-08-16T08:15:57Z</time>
      </trkpt>
      <trkpt lat="44.48174" lon="6.84833">
        <ele>2359.6</ele>
        <time>2022-08-16T08:15:58Z</time>
      </trkpt>
      <trkpt lat="44.48173" lon="6.84832">
        <ele>2359.8</ele>
        <time>2022-08-16T08:15:59Z</time>
      </trkpt>
      <trkpt lat="44.48172" lon="6.84832">
        <ele>2360</ele>
        <time>2022-08-16T08:16:00Z</time>
      </trkpt>
      <trkpt lat="44.48171" lon="6.84833">
        <ele>2360</ele>
        <time>2022-08-16T08:16:01Z</time>
      </trkpt>
      <trkpt lat="44.4817" lon="6.84833">
        <ele>2360.2</ele>
        <time>2022-08-16T08:16:02Z</time>
      </trkpt>
      <trkpt lat="44.48169" lon="6.84833">
        <ele>2360.4</ele>
        <time>2022-08-16T08:16:03Z</time>
      </trkpt>
      <trkpt lat="44.48168" lon="6.84833">
        <ele>2360.4</ele>
        <time>2022-08-16T08:16:04Z</time>
      </trkpt>
      <trkpt lat="44.48167" lon="6.84834">
        <ele>2360.4</ele>
        <time>2022-08-16T08:16:05Z</time>
      </trkpt>
      <trkpt lat="44.48165" lon="6.84834">
        <ele>2360.6</ele>
        <time>2022-08-16T08:16:06Z</time>
      </trkpt>
      <trkpt lat="44.48164" lon="6.84835">
        <ele>2360.6</ele>
        <time>2022-08-16T08:16:07Z</time>
      </trkpt>
      <trkpt lat="44.48163" lon="6.84835">
        <ele>2360.8</ele>
        <time>2022-08-16T08:16:08Z</time>
      </trkpt>
      <trkpt lat="44.48162" lon="6.84835">
        <ele>2360.8</ele>
        <time>2022-08-16T08:16:09Z</time>
      </trkpt>
      <trkpt lat="44.48161" lon="6.84836">
        <ele>2361.2</ele>
        <time>2022-08-16T08:16:10Z</time>
      </trkpt>
      <trkpt lat="44.4816" lon="6.84836">
        <ele>2361.4</ele>
        <time>2022-08-16T08:16:11Z</time>
      </trkpt>
      <trkpt lat="44.48159" lon="6.84836">
        <ele>2361.6</ele>
        <time>2022-08-16T08:16:12Z</time>
      </trkpt>
      <trkpt lat="44.48158" lon="6.84836">
        <ele>2361.6</ele>
        <time>2022-08-16T08:16:13Z</time>
      </trkpt>
      <trkpt lat="44.48157" lon="6.84836">
        <ele>2361.6</ele>
        <time>2022-08-16T08:16:14Z</time>
      </trkpt>
      <trkpt lat="44.48156" lon="6.84836">
        <ele>2361.8</ele>
        <time>2022-08-16T08:16:15Z</time>
      </trkpt>
      <trkpt lat="44.48154" lon="6.84837">
        <ele>2362</ele>
        <time>2022-08-16T08:16:16Z</time>
      </trkpt>
      <trkpt lat="44.48153" lon="6.84837">
        <ele>2362</ele>
        <time>2022-08-16T08:16:17Z</time>
      </trkpt>
      <trkpt lat="44.48152" lon="6.84838">
        <ele>2362</ele>
        <time>2022-08-16T08:16:18Z</time>
      </trkpt>
      <trkpt lat="44.48152" lon="6.84839">
        <ele>2362.2</ele>
        <time>2022-08-16T08:16:19Z</time>
      </trkpt>
      <trkpt lat="44.48151" lon="6.8484">
        <ele>2362.2</ele>
        <time>2022-08-16T08:16:20Z</time>
      </trkpt>
      <trkpt lat="44.4815" lon="6.84841">
        <ele>2362.4</ele>
        <time>2022-08-16T08:16:21Z</time>
      </trkpt>
      <trkpt lat="44.48149" lon="6.84842">
        <ele>2362.4</ele>
        <time>2022-08-16T08:16:22Z</time>
      </trkpt>
      <trkpt lat="44.48148" lon="6.84843">
        <ele>2362.6</ele>
        <time>2022-08-16T08:16:23Z</time>
      </trkpt>
      <trkpt lat="44.48147" lon="6.84844">
        <ele>2363</ele>
        <time>2022-08-16T08:16:24Z</time>
      </trkpt>
      <trkpt lat="44.48147" lon="6.84845">
        <ele>2363</ele>
        <time>2022-08-16T08:16:25Z</time>
      </trkpt>
      <trkpt lat="44.48145" lon="6.84846">
        <ele>2363</ele>
        <time>2022-08-16T08:16:26Z</time>
      </trkpt>
      <trkpt lat="44.48144" lon="6.84847">
        <ele>2363.2</ele>
        <time>2022-08-16T08:16:27Z</time>
      </trkpt>
      <trkpt lat="44.48143" lon="6.84848">
        <ele>2363.2</ele>
        <time>2022-08-16T08:16:28Z</time>
      </trkpt>
      <trkpt lat="44.48142" lon="6.84849">
        <ele>2363.4</ele>
        <time>2022-08-16T08:16:29Z</time>
      </trkpt>
      <trkpt lat="44.4814" lon="6.84849">
        <ele>2363.6</ele>
        <time>2022-08-16T08:16:30Z</time>
      </trkpt>
      <trkpt lat="44.48139" lon="6.8485">
        <ele>2363.6</ele>
        <time>2022-08-16T08:16:31Z</time>
      </trkpt>
      <trkpt lat="44.48138" lon="6.84851">
        <ele>2364</ele>
        <time>2022-08-16T08:16:32Z</time>
      </trkpt>
      <trkpt lat="44.48137" lon="6.84851">
        <ele>2364.2</ele>
        <time>2022-08-16T08:16:33Z</time>
      </trkpt>
      <trkpt lat="44.48136" lon="6.84852">
        <ele>2364.4</ele>
        <time>2022-08-16T08:16:34Z</time>
      </trkpt>
      <trkpt lat="44.48135" lon="6.84852">
        <ele>2364.4</ele>
        <time>2022-08-16T08:16:35Z</time>
      </trkpt>
      <trkpt lat="44.48133" lon="6.84853">
        <ele>2364.6</ele>
        <time>2022-08-16T08:16:36Z</time>
      </trkpt>
      <trkpt lat="44.48132" lon="6.84853">
        <ele>2364.6</ele>
        <time>2022-08-16T08:16:37Z</time>
      </trkpt>
      <trkpt lat="44.48131" lon="6.84853">
        <ele>2364.8</ele>
        <time>2022-08-16T08:16:38Z</time>
      </trkpt>
      <trkpt lat="44.4813" lon="6.84853">
        <ele>2364.6</ele>
        <time>2022-08-16T08:16:39Z</time>
      </trkpt>
      <trkpt lat="44.48128" lon="6.84853">
        <ele>2365</ele>
        <time>2022-08-16T08:16:40Z</time>
      </trkpt>
      <trkpt lat="44.48127" lon="6.84853">
        <ele>2365</ele>
        <time>2022-08-16T08:16:41Z</time>
      </trkpt>
      <trkpt lat="44.48126" lon="6.84853">
        <ele>2365</ele>
        <time>2022-08-16T08:16:42Z</time>
      </trkpt>
      <trkpt lat="44.48125" lon="6.84853">
        <ele>2365.4</ele>
        <time>2022-08-16T08:16:43Z</time>
      </trkpt>
      <trkpt lat="44.48123" lon="6.84853">
        <ele>2365.6</ele>
        <time>2022-08-16T08:16:44Z</time>
      </trkpt>
      <trkpt lat="44.48122" lon="6.84854">
        <ele>2365.6</ele>
        <time>2022-08-16T08:16:45Z</time>
      </trkpt>
      <trkpt lat="44.48121" lon="6.84854">
        <ele>2365.6</ele>
        <time>2022-08-16T08:16:46Z</time>
      </trkpt>
      <trkpt lat="44.4812" lon="6.84854">
        <ele>2365.8</ele>
        <time>2022-08-16T08:16:47Z</time>
      </trkpt>
      <trkpt lat="44.48119" lon="6.84854">
        <ele>2365.8</ele>
        <time>2022-08-16T08:16:48Z</time>
      </trkpt>
      <trkpt lat="44.48118" lon="6.84855">
        <ele>2366</ele>
        <time>2022-08-16T08:16:49Z</time>
      </trkpt>
      <trkpt lat="44.48117" lon="6.84855">
        <ele>2366</ele>
        <time>2022-08-16T08:16:50Z</time>
      </trkpt>
      <trkpt lat="44.48115" lon="6.84855">
        <ele>2366.2</ele>
        <time>2022-08-16T08:16:51Z</time>
      </trkpt>
      <trkpt lat="44.48114" lon="6.84855">
        <ele>2366.4</ele>
        <time>2022-08-16T08:16:52Z</time>
      </trkpt>
      <trkpt lat="44.48113" lon="6.84856">
        <ele>2366.6</ele>
        <time>2022-08-16T08:16:53Z</time>
      </trkpt>
      <trkpt lat="44.48112" lon="6.84856">
        <ele>2366.6</ele>
        <time>2022-08-16T08:16:54Z</time>
      </trkpt>
      <trkpt lat="44.4811" lon="6.84856">
        <ele>2366.8</ele>
        <time>2022-08-16T08:16:55Z</time>
      </trkpt>
      <trkpt lat="44.48109" lon="6.84856">
        <ele>2366.8</ele>
        <time>2022-08-16T08:16:56Z</time>
      </trkpt>
      <trkpt lat="44.48108" lon="6.84857">
        <ele>2367</ele>
        <time>2022-08-16T08:16:57Z</time>
      </trkpt>
      <trkpt lat="44.48107" lon="6.84858">
        <ele>2367</ele>
        <time>2022-08-16T08:16:58Z</time>
      </trkpt>
      <trkpt lat="44.48106" lon="6.84859">
        <ele>2367.2</ele>
        <time>2022-08-16T08:16:59Z</time>
      </trkpt>
      <trkpt lat="44.48105" lon="6.84859">
        <ele>2367.4</ele>
        <time>2022-08-16T08:17:00Z</time>
      </trkpt>
      <trkpt lat="44.48104" lon="6.8486">
        <ele>2367.6</ele>
        <time>2022-08-16T08:17:01Z</time>
      </trkpt>
      <trkpt lat="44.48102" lon="6.84861">
        <ele>2367.6</ele>
        <time>2022-08-16T08:17:02Z</time>
      </trkpt>
      <trkpt lat="44.48101" lon="6.84862">
        <ele>2367.8</ele>
        <time>2022-08-16T08:17:03Z</time>
      </trkpt>
      <trkpt lat="44.481" lon="6.84863">
        <ele>2367.8</ele>
        <time>2022-08-16T08:17:04Z</time>
      </trkpt>
      <trkpt lat="44.48099" lon="6.84863">
        <ele>2368</ele>
        <time>2022-08-16T08:17:05Z</time>
      </trkpt>
      <trkpt lat="44.48098" lon="6.84864">
        <ele>2368.2</ele>
        <time>2022-08-16T08:17:06Z</time>
      </trkpt>
      <trkpt lat="44.48097" lon="6.84865">
        <ele>2368.2</ele>
        <time>2022-08-16T08:17:07Z</time>
      </trkpt>
      <trkpt lat="44.48095" lon="6.84866">
        <ele>2368.4</ele>
        <time>2022-08-16T08:17:08Z</time>
      </trkpt>
      <trkpt lat="44.48094" lon="6.84866">
        <ele>2368.6</ele>
        <time>2022-08-16T08:17:09Z</time>
      </trkpt>
      <trkpt lat="44.48093" lon="6.84867">
        <ele>2368.8</ele>
        <time>2022-08-16T08:17:10Z</time>
      </trkpt>
      <trkpt lat="44.48091" lon="6.84868">
        <ele>2368.8</ele>
        <time>2022-08-16T08:17:11Z</time>
      </trkpt>
      <trkpt lat="44.48089" lon="6.84868">
        <ele>2369</ele>
        <time>2022-08-16T08:17:12Z</time>
      </trkpt>
      <trkpt lat="44.48088" lon="6.84869">
        <ele>2369</ele>
        <time>2022-08-16T08:17:13Z</time>
      </trkpt>
      <trkpt lat="44.48086" lon="6.8487">
        <ele>2369.2</ele>
        <time>2022-08-16T08:17:14Z</time>
      </trkpt>
      <trkpt lat="44.48084" lon="6.8487">
        <ele>2369.2</ele>
        <time>2022-08-16T08:17:15Z</time>
      </trkpt>
      <trkpt lat="44.48083" lon="6.84871">
        <ele>2369.4</ele>
        <time>2022-08-16T08:17:16Z</time>
      </trkpt>
      <trkpt lat="44.48082" lon="6.84873">
        <ele>2369.6</ele>
        <time>2022-08-16T08:17:17Z</time>
      </trkpt>
      <trkpt lat="44.4808" lon="6.84874">
        <ele>2369.8</ele>
        <time>2022-08-16T08:17:18Z</time>
      </trkpt>
      <trkpt lat="44.48079" lon="6.84875">
        <ele>2369.6</ele>
        <time>2022-08-16T08:17:19Z</time>
      </trkpt>
      <trkpt lat="44.48077" lon="6.84876">
        <ele>2369.6</ele>
        <time>2022-08-16T08:17:20Z</time>
      </trkpt>
      <trkpt lat="44.48076" lon="6.84877">
        <ele>2369.6</ele>
        <time>2022-08-16T08:17:21Z</time>
      </trkpt>
      <trkpt lat="44.48075" lon="6.84878">
        <ele>2369.8</ele>
        <time>2022-08-16T08:17:22Z</time>
      </trkpt>
      <trkpt lat="44.48074" lon="6.8488">
        <ele>2369.8</ele>
        <time>2022-08-16T08:17:23Z</time>
      </trkpt>
      <trkpt lat="44.48073" lon="6.8488">
        <ele>2369.8</ele>
        <time>2022-08-16T08:17:24Z</time>
      </trkpt>
      <trkpt lat="44.48072" lon="6.84881">
        <ele>2370</ele>
        <time>2022-08-16T08:17:25Z</time>
      </trkpt>
      <trkpt lat="44.48071" lon="6.84883">
        <ele>2370.2</ele>
        <time>2022-08-16T08:17:26Z</time>
      </trkpt>
      <trkpt lat="44.4807" lon="6.84884">
        <ele>2370.2</ele>
        <time>2022-08-16T08:17:27Z</time>
      </trkpt>
      <trkpt lat="44.48069" lon="6.84885">
        <ele>2370.2</ele>
        <time>2022-08-16T08:17:28Z</time>
      </trkpt>
      <trkpt lat="44.48068" lon="6.84886">
        <ele>2370.2</ele>
        <time>2022-08-16T08:17:29Z</time>
      </trkpt>
      <trkpt lat="44.48067" lon="6.84887">
        <ele>2370.8</ele>
        <time>2022-08-16T08:17:30Z</time>
      </trkpt>
      <trkpt lat="44.48066" lon="6.84888">
        <ele>2371.2</ele>
        <time>2022-08-16T08:17:31Z</time>
      </trkpt>
      <trkpt lat="44.48065" lon="6.84889">
        <ele>2371.4</ele>
        <time>2022-08-16T08:17:32Z</time>
      </trkpt>
      <trkpt lat="44.48064" lon="6.8489">
        <ele>2371.4</ele>
        <time>2022-08-16T08:17:33Z</time>
      </trkpt>
      <trkpt lat="44.48062" lon="6.84891">
        <ele>2371.6</ele>
        <time>2022-08-16T08:17:34Z</time>
      </trkpt>
      <trkpt lat="44.48061" lon="6.84891">
        <ele>2371.6</ele>
        <time>2022-08-16T08:17:35Z</time>
      </trkpt>
      <trkpt lat="44.4806" lon="6.84892">
        <ele>2371.8</ele>
        <time>2022-08-16T08:17:36Z</time>
      </trkpt>
      <trkpt lat="44.48059" lon="6.84893">
        <ele>2372</ele>
        <time>2022-08-16T08:17:37Z</time>
      </trkpt>
      <trkpt lat="44.48058" lon="6.84894">
        <ele>2372.2</ele>
        <time>2022-08-16T08:17:38Z</time>
      </trkpt>
      <trkpt lat="44.48057" lon="6.84895">
        <ele>2372.2</ele>
        <time>2022-08-16T08:17:39Z</time>
      </trkpt>
      <trkpt lat="44.48056" lon="6.84896">
        <ele>2372.4</ele>
        <time>2022-08-16T08:17:40Z</time>
      </trkpt>
      <trkpt lat="44.48054" lon="6.84897">
        <ele>2372.4</ele>
        <time>2022-08-16T08:17:41Z</time>
      </trkpt>
      <trkpt lat="44.48053" lon="6.84897">
        <ele>2372.4</ele>
        <time>2022-08-16T08:17:42Z</time>
      </trkpt>
      <trkpt lat="44.48052" lon="6.84898">
        <ele>2372.6</ele>
        <time>2022-08-16T08:17:43Z</time>
      </trkpt>
      <trkpt lat="44.48051" lon="6.84899">
        <ele>2372.6</ele>
        <time>2022-08-16T08:17:44Z</time>
      </trkpt>
      <trkpt lat="44.4805" lon="6.849">
        <ele>2373</ele>
        <time>2022-08-16T08:17:45Z</time>
      </trkpt>
      <trkpt lat="44.48049" lon="6.84901">
        <ele>2373</ele>
        <time>2022-08-16T08:17:46Z</time>
      </trkpt>
      <trkpt lat="44.48048" lon="6.84902">
        <ele>2373.4</ele>
        <time>2022-08-16T08:17:47Z</time>
      </trkpt>
      <trkpt lat="44.48047" lon="6.84903">
        <ele>2373.4</ele>
        <time>2022-08-16T08:17:48Z</time>
      </trkpt>
      <trkpt lat="44.48046" lon="6.84904">
        <ele>2373.6</ele>
        <time>2022-08-16T08:17:49Z</time>
      </trkpt>
      <trkpt lat="44.48045" lon="6.84905">
        <ele>2373.8</ele>
        <time>2022-08-16T08:17:50Z</time>
      </trkpt>
      <trkpt lat="44.48044" lon="6.84906">
        <ele>2373.8</ele>
        <time>2022-08-16T08:17:51Z</time>
      </trkpt>
      <trkpt lat="44.48043" lon="6.84906">
        <ele>2374</ele>
        <time>2022-08-16T08:17:52Z</time>
      </trkpt>
      <trkpt lat="44.48042" lon="6.84907">
        <ele>2374</ele>
        <time>2022-08-16T08:17:53Z</time>
      </trkpt>
      <trkpt lat="44.48041" lon="6.84908">
        <ele>2374.2</ele>
        <time>2022-08-16T08:17:54Z</time>
      </trkpt>
      <trkpt lat="44.4804" lon="6.84909">
        <ele>2374.2</ele>
        <time>2022-08-16T08:17:55Z</time>
      </trkpt>
      <trkpt lat="44.48039" lon="6.8491">
        <ele>2374.4</ele>
        <time>2022-08-16T08:17:56Z</time>
      </trkpt>
      <trkpt lat="44.48038" lon="6.84911">
        <ele>2374.6</ele>
        <time>2022-08-16T08:17:57Z</time>
      </trkpt>
      <trkpt lat="44.48038" lon="6.84913">
        <ele>2375</ele>
        <time>2022-08-16T08:17:58Z</time>
      </trkpt>
      <trkpt lat="44.48037" lon="6.84914">
        <ele>2374.8</ele>
        <time>2022-08-16T08:17:59Z</time>
      </trkpt>
      <trkpt lat="44.48036" lon="6.84915">
        <ele>2375</ele>
        <time>2022-08-16T08:18:00Z</time>
      </trkpt>
      <trkpt lat="44.48036" lon="6.84916">
        <ele>2375.2</ele>
        <time>2022-08-16T08:18:01Z</time>
      </trkpt>
      <trkpt lat="44.48035" lon="6.84918">
        <ele>2375.4</ele>
        <time>2022-08-16T08:18:02Z</time>
      </trkpt>
      <trkpt lat="44.48035" lon="6.84919">
        <ele>2375.6</ele>
        <time>2022-08-16T08:18:03Z</time>
      </trkpt>
      <trkpt lat="44.48034" lon="6.8492">
        <ele>2375.8</ele>
        <time>2022-08-16T08:18:04Z</time>
      </trkpt>
      <trkpt lat="44.48033" lon="6.84921">
        <ele>2375.8</ele>
        <time>2022-08-16T08:18:05Z</time>
      </trkpt>
      <trkpt lat="44.48033" lon="6.84922">
        <ele>2376</ele>
        <time>2022-08-16T08:18:06Z</time>
      </trkpt>
      <trkpt lat="44.48032" lon="6.84924">
        <ele>2376</ele>
        <time>2022-08-16T08:18:07Z</time>
      </trkpt>
      <trkpt lat="44.48031" lon="6.84925">
        <ele>2376</ele>
        <time>2022-08-16T08:18:08Z</time>
      </trkpt>
      <trkpt lat="44.4803" lon="6.84926">
        <ele>2376.2</ele>
        <time>2022-08-16T08:18:09Z</time>
      </trkpt>
      <trkpt lat="44.4803" lon="6.84927">
        <ele>2376.6</ele>
        <time>2022-08-16T08:18:10Z</time>
      </trkpt>
      <trkpt lat="44.4803" lon="6.84928">
        <ele>2376.6</ele>
        <time>2022-08-16T08:18:11Z</time>
      </trkpt>
      <trkpt lat="44.48029" lon="6.8493">
        <ele>2376.6</ele>
        <time>2022-08-16T08:18:12Z</time>
      </trkpt>
      <trkpt lat="44.48029" lon="6.84931">
        <ele>2376.8</ele>
        <time>2022-08-16T08:18:13Z</time>
      </trkpt>
      <trkpt lat="44.48028" lon="6.84932">
        <ele>2376.8</ele>
        <time>2022-08-16T08:18:14Z</time>
      </trkpt>
      <trkpt lat="44.48028" lon="6.84934">
        <ele>2377.2</ele>
        <time>2022-08-16T08:18:15Z</time>
      </trkpt>
      <trkpt lat="44.48027" lon="6.84935">
        <ele>2377.4</ele>
        <time>2022-08-16T08:18:16Z</time>
      </trkpt>
      <trkpt lat="44.48027" lon="6.84936">
        <ele>2377.4</ele>
        <time>2022-08-16T08:18:17Z</time>
      </trkpt>
      <trkpt lat="44.48027" lon="6.84937">
        <ele>2377.6</ele>
        <time>2022-08-16T08:18:18Z</time>
      </trkpt>
      <trkpt lat="44.48026" lon="6.84939">
        <ele>2378</ele>
        <time>2022-08-16T08:18:19Z</time>
      </trkpt>
      <trkpt lat="44.48026" lon="6.8494">
        <ele>2378</ele>
        <time>2022-08-16T08:18:20Z</time>
      </trkpt>
      <trkpt lat="44.48025" lon="6.84942">
        <ele>2378.2</ele>
        <time>2022-08-16T08:18:21Z</time>
      </trkpt>
      <trkpt lat="44.48025" lon="6.84943">
        <ele>2378.4</ele>
        <time>2022-08-16T08:18:22Z</time>
      </trkpt>
      <trkpt lat="44.48024" lon="6.84944">
        <ele>2378.6</ele>
        <time>2022-08-16T08:18:23Z</time>
      </trkpt>
      <trkpt lat="44.48023" lon="6.84945">
        <ele>2378.8</ele>
        <time>2022-08-16T08:18:24Z</time>
      </trkpt>
      <trkpt lat="44.48023" lon="6.84946">
        <ele>2379</ele>
        <time>2022-08-16T08:18:25Z</time>
      </trkpt>
      <trkpt lat="44.48022" lon="6.84947">
        <ele>2379</ele>
        <time>2022-08-16T08:18:26Z</time>
      </trkpt>
      <trkpt lat="44.48021" lon="6.84949">
        <ele>2379</ele>
        <time>2022-08-16T08:18:27Z</time>
      </trkpt>
      <trkpt lat="44.48021" lon="6.84949">
        <ele>2379.2</ele>
        <time>2022-08-16T08:18:28Z</time>
      </trkpt>
      <trkpt lat="44.4802" lon="6.8495">
        <ele>2379.4</ele>
        <time>2022-08-16T08:18:29Z</time>
      </trkpt>
      <trkpt lat="44.4802" lon="6.84952">
        <ele>2379.6</ele>
        <time>2022-08-16T08:18:30Z</time>
      </trkpt>
      <trkpt lat="44.48019" lon="6.84953">
        <ele>2379.8</ele>
        <time>2022-08-16T08:18:31Z</time>
      </trkpt>
      <trkpt lat="44.48018" lon="6.84954">
        <ele>2380</ele>
        <time>2022-08-16T08:18:32Z</time>
      </trkpt>
      <trkpt lat="44.48018" lon="6.84955">
        <ele>2380.2</ele>
        <time>2022-08-16T08:18:33Z</time>
      </trkpt>
      <trkpt lat="44.48017" lon="6.84956">
        <ele>2380.4</ele>
        <time>2022-08-16T08:18:34Z</time>
      </trkpt>
      <trkpt lat="44.48017" lon="6.84957">
        <ele>2381</ele>
        <time>2022-08-16T08:18:37Z</time>
      </trkpt>
      <trkpt lat="44.48017" lon="6.84957">
        <ele>2382.6</ele>
        <time>2022-08-16T08:18:48Z</time>
      </trkpt>
      <trkpt lat="44.48017" lon="6.84957">
        <ele>2382.6</ele>
        <time>2022-08-16T08:18:49Z</time>
      </trkpt>
      <trkpt lat="44.48016" lon="6.84958">
        <ele>2382.6</ele>
        <time>2022-08-16T08:18:50Z</time>
      </trkpt>
      <trkpt lat="44.48014" lon="6.84963">
        <ele>2382.8</ele>
        <time>2022-08-16T08:18:54Z</time>
      </trkpt>
      <trkpt lat="44.48013" lon="6.84964">
        <ele>2382.8</ele>
        <time>2022-08-16T08:18:55Z</time>
      </trkpt>
      <trkpt lat="44.48013" lon="6.84965">
        <ele>2382.8</ele>
        <time>2022-08-16T08:18:56Z</time>
      </trkpt>
      <trkpt lat="44.48012" lon="6.84968">
        <ele>2382.8</ele>
        <time>2022-08-16T08:18:58Z</time>
      </trkpt>
      <trkpt lat="44.48011" lon="6.84969">
        <ele>2382.8</ele>
        <time>2022-08-16T08:18:59Z</time>
      </trkpt>
      <trkpt lat="44.48008" lon="6.84972">
        <ele>2382.8</ele>
        <time>2022-08-16T08:19:02Z</time>
      </trkpt>
      <trkpt lat="44.48007" lon="6.84973">
        <ele>2383</ele>
        <time>2022-08-16T08:19:03Z</time>
      </trkpt>
      <trkpt lat="44.48006" lon="6.84973">
        <ele>2383</ele>
        <time>2022-08-16T08:19:04Z</time>
      </trkpt>
      <trkpt lat="44.48004" lon="6.84975">
        <ele>2383.4</ele>
        <time>2022-08-16T08:19:06Z</time>
      </trkpt>
      <trkpt lat="44.48003" lon="6.84976">
        <ele>2383.4</ele>
        <time>2022-08-16T08:19:07Z</time>
      </trkpt>
      <trkpt lat="44.48001" lon="6.84978">
        <ele>2383.8</ele>
        <time>2022-08-16T08:19:09Z</time>
      </trkpt>
      <trkpt lat="44.48" lon="6.84979">
        <ele>2383.8</ele>
        <time>2022-08-16T08:19:10Z</time>
      </trkpt>
      <trkpt lat="44.47999" lon="6.8498">
        <ele>2384</ele>
        <time>2022-08-16T08:19:11Z</time>
      </trkpt>
      <trkpt lat="44.47998" lon="6.84981">
        <ele>2384</ele>
        <time>2022-08-16T08:19:12Z</time>
      </trkpt>
      <trkpt lat="44.47997" lon="6.84981">
        <ele>2384</ele>
        <time>2022-08-16T08:19:13Z</time>
      </trkpt>
      <trkpt lat="44.47996" lon="6.84982">
        <ele>2384.4</ele>
        <time>2022-08-16T08:19:14Z</time>
      </trkpt>
      <trkpt lat="44.47995" lon="6.84983">
        <ele>2384.2</ele>
        <time>2022-08-16T08:19:15Z</time>
      </trkpt>
      <trkpt lat="44.47994" lon="6.84984">
        <ele>2384.4</ele>
        <time>2022-08-16T08:19:16Z</time>
      </trkpt>
      <trkpt lat="44.47993" lon="6.84985">
        <ele>2384.8</ele>
        <time>2022-08-16T08:19:17Z</time>
      </trkpt>
      <trkpt lat="44.47992" lon="6.84985">
        <ele>2385</ele>
        <time>2022-08-16T08:19:18Z</time>
      </trkpt>
      <trkpt lat="44.47991" lon="6.84986">
        <ele>2385</ele>
        <time>2022-08-16T08:19:19Z</time>
      </trkpt>
      <trkpt lat="44.4799" lon="6.84987">
        <ele>2385.2</ele>
        <time>2022-08-16T08:19:20Z</time>
      </trkpt>
      <trkpt lat="44.47989" lon="6.84988">
        <ele>2385.4</ele>
        <time>2022-08-16T08:19:21Z</time>
      </trkpt>
      <trkpt lat="44.47988" lon="6.84989">
        <ele>2385.6</ele>
        <time>2022-08-16T08:19:22Z</time>
      </trkpt>
      <trkpt lat="44.47987" lon="6.8499">
        <ele>2385.8</ele>
        <time>2022-08-16T08:19:23Z</time>
      </trkpt>
      <trkpt lat="44.47986" lon="6.8499">
        <ele>2385.8</ele>
        <time>2022-08-16T08:19:24Z</time>
      </trkpt>
      <trkpt lat="44.47985" lon="6.84991">
        <ele>2386</ele>
        <time>2022-08-16T08:19:25Z</time>
      </trkpt>
      <trkpt lat="44.47984" lon="6.84993">
        <ele>2386.2</ele>
        <time>2022-08-16T08:19:26Z</time>
      </trkpt>
      <trkpt lat="44.47983" lon="6.84994">
        <ele>2386.2</ele>
        <time>2022-08-16T08:19:27Z</time>
      </trkpt>
      <trkpt lat="44.47981" lon="6.84995">
        <ele>2386.4</ele>
        <time>2022-08-16T08:19:28Z</time>
      </trkpt>
      <trkpt lat="44.4798" lon="6.84995">
        <ele>2386.6</ele>
        <time>2022-08-16T08:19:29Z</time>
      </trkpt>
      <trkpt lat="44.47979" lon="6.84996">
        <ele>2386.6</ele>
        <time>2022-08-16T08:19:30Z</time>
      </trkpt>
      <trkpt lat="44.47978" lon="6.84997">
        <ele>2386.8</ele>
        <time>2022-08-16T08:19:31Z</time>
      </trkpt>
      <trkpt lat="44.47977" lon="6.84998">
        <ele>2387</ele>
        <time>2022-08-16T08:19:32Z</time>
      </trkpt>
      <trkpt lat="44.47976" lon="6.84999">
        <ele>2387.2</ele>
        <time>2022-08-16T08:19:33Z</time>
      </trkpt>
      <trkpt lat="44.47975" lon="6.85">
        <ele>2387.2</ele>
        <time>2022-08-16T08:19:34Z</time>
      </trkpt>
      <trkpt lat="44.47974" lon="6.85001">
        <ele>2387.2</ele>
        <time>2022-08-16T08:19:35Z</time>
      </trkpt>
      <trkpt lat="44.47973" lon="6.85002">
        <ele>2387.2</ele>
        <time>2022-08-16T08:19:36Z</time>
      </trkpt>
      <trkpt lat="44.47971" lon="6.85003">
        <ele>2387.4</ele>
        <time>2022-08-16T08:19:37Z</time>
      </trkpt>
      <trkpt lat="44.4797" lon="6.85003">
        <ele>2387.6</ele>
        <time>2022-08-16T08:19:38Z</time>
      </trkpt>
      <trkpt lat="44.47969" lon="6.85004">
        <ele>2387.6</ele>
        <time>2022-08-16T08:19:39Z</time>
      </trkpt>
      <trkpt lat="44.47968" lon="6.85004">
        <ele>2387.6</ele>
        <time>2022-08-16T08:19:40Z</time>
      </trkpt>
      <trkpt lat="44.47967" lon="6.85005">
        <ele>2387.6</ele>
        <time>2022-08-16T08:19:41Z</time>
      </trkpt>
      <trkpt lat="44.47965" lon="6.85006">
        <ele>2387.8</ele>
        <time>2022-08-16T08:19:42Z</time>
      </trkpt>
      <trkpt lat="44.47964" lon="6.85007">
        <ele>2387.8</ele>
        <time>2022-08-16T08:19:43Z</time>
      </trkpt>
      <trkpt lat="44.47963" lon="6.85008">
        <ele>2388</ele>
        <time>2022-08-16T08:19:44Z</time>
      </trkpt>
      <trkpt lat="44.47962" lon="6.85008">
        <ele>2388</ele>
        <time>2022-08-16T08:19:45Z</time>
      </trkpt>
      <trkpt lat="44.4796" lon="6.85008">
        <ele>2388</ele>
        <time>2022-08-16T08:19:46Z</time>
      </trkpt>
      <trkpt lat="44.47959" lon="6.85009">
        <ele>2388.2</ele>
        <time>2022-08-16T08:19:47Z</time>
      </trkpt>
      <trkpt lat="44.47958" lon="6.85009">
        <ele>2388.4</ele>
        <time>2022-08-16T08:19:48Z</time>
      </trkpt>
      <trkpt lat="44.47957" lon="6.8501">
        <ele>2388.8</ele>
        <time>2022-08-16T08:19:49Z</time>
      </trkpt>
      <trkpt lat="44.47956" lon="6.8501">
        <ele>2388.8</ele>
        <time>2022-08-16T08:19:50Z</time>
      </trkpt>
      <trkpt lat="44.47954" lon="6.85011">
        <ele>2389</ele>
        <time>2022-08-16T08:19:51Z</time>
      </trkpt>
      <trkpt lat="44.47953" lon="6.85011">
        <ele>2389</ele>
        <time>2022-08-16T08:19:52Z</time>
      </trkpt>
      <trkpt lat="44.47951" lon="6.85011">
        <ele>2389.2</ele>
        <time>2022-08-16T08:19:53Z</time>
      </trkpt>
      <trkpt lat="44.4795" lon="6.85011">
        <ele>2389.2</ele>
        <time>2022-08-16T08:19:54Z</time>
      </trkpt>
      <trkpt lat="44.47949" lon="6.85011">
        <ele>2389.4</ele>
        <time>2022-08-16T08:19:55Z</time>
      </trkpt>
      <trkpt lat="44.47948" lon="6.85011">
        <ele>2389.6</ele>
        <time>2022-08-16T08:19:56Z</time>
      </trkpt>
      <trkpt lat="44.47946" lon="6.8501">
        <ele>2389.6</ele>
        <time>2022-08-16T08:19:57Z</time>
      </trkpt>
      <trkpt lat="44.47945" lon="6.85009">
        <ele>2389.8</ele>
        <time>2022-08-16T08:19:58Z</time>
      </trkpt>
      <trkpt lat="44.47944" lon="6.85009">
        <ele>2389.8</ele>
        <time>2022-08-16T08:19:59Z</time>
      </trkpt>
      <trkpt lat="44.47942" lon="6.85009">
        <ele>2389.8</ele>
        <time>2022-08-16T08:20:00Z</time>
      </trkpt>
      <trkpt lat="44.47941" lon="6.85008">
        <ele>2389.8</ele>
        <time>2022-08-16T08:20:01Z</time>
      </trkpt>
      <trkpt lat="44.4794" lon="6.85008">
        <ele>2389.8</ele>
        <time>2022-08-16T08:20:02Z</time>
      </trkpt>
      <trkpt lat="44.47939" lon="6.85007">
        <ele>2390</ele>
        <time>2022-08-16T08:20:03Z</time>
      </trkpt>
      <trkpt lat="44.47938" lon="6.85006">
        <ele>2390</ele>
        <time>2022-08-16T08:20:04Z</time>
      </trkpt>
      <trkpt lat="44.47937" lon="6.85005">
        <ele>2390</ele>
        <time>2022-08-16T08:20:05Z</time>
      </trkpt>
      <trkpt lat="44.47936" lon="6.85004">
        <ele>2390.2</ele>
        <time>2022-08-16T08:20:06Z</time>
      </trkpt>
      <trkpt lat="44.47935" lon="6.85003">
        <ele>2390.2</ele>
        <time>2022-08-16T08:20:07Z</time>
      </trkpt>
      <trkpt lat="44.47934" lon="6.85002">
        <ele>2390.4</ele>
        <time>2022-08-16T08:20:08Z</time>
      </trkpt>
      <trkpt lat="44.47934" lon="6.85001">
        <ele>2390.4</ele>
        <time>2022-08-16T08:20:09Z</time>
      </trkpt>
      <trkpt lat="44.47933" lon="6.85">
        <ele>2390.6</ele>
        <time>2022-08-16T08:20:10Z</time>
      </trkpt>
      <trkpt lat="44.47933" lon="6.84999">
        <ele>2390.8</ele>
        <time>2022-08-16T08:20:11Z</time>
      </trkpt>
      <trkpt lat="44.47932" lon="6.84997">
        <ele>2391</ele>
        <time>2022-08-16T08:20:12Z</time>
      </trkpt>
      <trkpt lat="44.47931" lon="6.84996">
        <ele>2391.2</ele>
        <time>2022-08-16T08:20:13Z</time>
      </trkpt>
      <trkpt lat="44.4793" lon="6.84995">
        <ele>2391.2</ele>
        <time>2022-08-16T08:20:14Z</time>
      </trkpt>
      <trkpt lat="44.4793" lon="6.84994">
        <ele>2391.2</ele>
        <time>2022-08-16T08:20:15Z</time>
      </trkpt>
      <trkpt lat="44.47929" lon="6.84993">
        <ele>2391.6</ele>
        <time>2022-08-16T08:20:16Z</time>
      </trkpt>
      <trkpt lat="44.47928" lon="6.84992">
        <ele>2391.6</ele>
        <time>2022-08-16T08:20:17Z</time>
      </trkpt>
      <trkpt lat="44.47927" lon="6.84991">
        <ele>2391.6</ele>
        <time>2022-08-16T08:20:18Z</time>
      </trkpt>
      <trkpt lat="44.47926" lon="6.8499">
        <ele>2392</ele>
        <time>2022-08-16T08:20:19Z</time>
      </trkpt>
      <trkpt lat="44.47925" lon="6.84989">
        <ele>2392</ele>
        <time>2022-08-16T08:20:20Z</time>
      </trkpt>
      <trkpt lat="44.47924" lon="6.84989">
        <ele>2392.2</ele>
        <time>2022-08-16T08:20:21Z</time>
      </trkpt>
      <trkpt lat="44.47923" lon="6.84988">
        <ele>2392.2</ele>
        <time>2022-08-16T08:20:22Z</time>
      </trkpt>
      <trkpt lat="44.47922" lon="6.84987">
        <ele>2392.4</ele>
        <time>2022-08-16T08:20:23Z</time>
      </trkpt>
      <trkpt lat="44.47921" lon="6.84986">
        <ele>2392.4</ele>
        <time>2022-08-16T08:20:24Z</time>
      </trkpt>
      <trkpt lat="44.4792" lon="6.84984">
        <ele>2392.6</ele>
        <time>2022-08-16T08:20:25Z</time>
      </trkpt>
      <trkpt lat="44.4792" lon="6.84982">
        <ele>2392.8</ele>
        <time>2022-08-16T08:20:26Z</time>
      </trkpt>
      <trkpt lat="44.47919" lon="6.8498">
        <ele>2392.8</ele>
        <time>2022-08-16T08:20:27Z</time>
      </trkpt>
      <trkpt lat="44.47919" lon="6.84979">
        <ele>2393</ele>
        <time>2022-08-16T08:20:28Z</time>
      </trkpt>
      <trkpt lat="44.47919" lon="6.84977">
        <ele>2393.2</ele>
        <time>2022-08-16T08:20:29Z</time>
      </trkpt>
      <trkpt lat="44.47919" lon="6.84975">
        <ele>2393.4</ele>
        <time>2022-08-16T08:20:30Z</time>
      </trkpt>
      <trkpt lat="44.47919" lon="6.84973">
        <ele>2393.6</ele>
        <time>2022-08-16T08:20:31Z</time>
      </trkpt>
      <trkpt lat="44.47919" lon="6.84972">
        <ele>2393.8</ele>
        <time>2022-08-16T08:20:32Z</time>
      </trkpt>
      <trkpt lat="44.47919" lon="6.8497">
        <ele>2393.8</ele>
        <time>2022-08-16T08:20:33Z</time>
      </trkpt>
      <trkpt lat="44.4792" lon="6.84969">
        <ele>2394</ele>
        <time>2022-08-16T08:20:34Z</time>
      </trkpt>
      <trkpt lat="44.4792" lon="6.84967">
        <ele>2394.2</ele>
        <time>2022-08-16T08:20:35Z</time>
      </trkpt>
      <trkpt lat="44.47921" lon="6.84966">
        <ele>2394.2</ele>
        <time>2022-08-16T08:20:36Z</time>
      </trkpt>
      <trkpt lat="44.47922" lon="6.84964">
        <ele>2394.4</ele>
        <time>2022-08-16T08:20:37Z</time>
      </trkpt>
      <trkpt lat="44.47923" lon="6.84963">
        <ele>2394.4</ele>
        <time>2022-08-16T08:20:38Z</time>
      </trkpt>
      <trkpt lat="44.47923" lon="6.84962">
        <ele>2394.8</ele>
        <time>2022-08-16T08:20:39Z</time>
      </trkpt>
      <trkpt lat="44.47924" lon="6.84961">
        <ele>2395</ele>
        <time>2022-08-16T08:20:40Z</time>
      </trkpt>
      <trkpt lat="44.47925" lon="6.84959">
        <ele>2395</ele>
        <time>2022-08-16T08:20:41Z</time>
      </trkpt>
      <trkpt lat="44.47926" lon="6.84958">
        <ele>2395.4</ele>
        <time>2022-08-16T08:20:42Z</time>
      </trkpt>
      <trkpt lat="44.47927" lon="6.84957">
        <ele>2395.6</ele>
        <time>2022-08-16T08:20:43Z</time>
      </trkpt>
      <trkpt lat="44.47927" lon="6.84955">
        <ele>2395.6</ele>
        <time>2022-08-16T08:20:44Z</time>
      </trkpt>
      <trkpt lat="44.47928" lon="6.84954">
        <ele>2395.6</ele>
        <time>2022-08-16T08:20:45Z</time>
      </trkpt>
      <trkpt lat="44.47928" lon="6.84953">
        <ele>2395.8</ele>
        <time>2022-08-16T08:20:46Z</time>
      </trkpt>
      <trkpt lat="44.47929" lon="6.84951">
        <ele>2396</ele>
        <time>2022-08-16T08:20:47Z</time>
      </trkpt>
      <trkpt lat="44.47929" lon="6.84949">
        <ele>2396.2</ele>
        <time>2022-08-16T08:20:48Z</time>
      </trkpt>
      <trkpt lat="44.47929" lon="6.84947">
        <ele>2396.4</ele>
        <time>2022-08-16T08:20:49Z</time>
      </trkpt>
      <trkpt lat="44.47929" lon="6.84946">
        <ele>2396.6</ele>
        <time>2022-08-16T08:20:50Z</time>
      </trkpt>
      <trkpt lat="44.47929" lon="6.84944">
        <ele>2396.6</ele>
        <time>2022-08-16T08:20:51Z</time>
      </trkpt>
      <trkpt lat="44.4793" lon="6.84943">
        <ele>2396.8</ele>
        <time>2022-08-16T08:20:52Z</time>
      </trkpt>
      <trkpt lat="44.4793" lon="6.84941">
        <ele>2397</ele>
        <time>2022-08-16T08:20:53Z</time>
      </trkpt>
      <trkpt lat="44.4793" lon="6.8494">
        <ele>2397</ele>
        <time>2022-08-16T08:20:54Z</time>
      </trkpt>
      <trkpt lat="44.4793" lon="6.84938">
        <ele>2397.2</ele>
        <time>2022-08-16T08:20:55Z</time>
      </trkpt>
      <trkpt lat="44.47929" lon="6.84936">
        <ele>2397.4</ele>
        <time>2022-08-16T08:20:56Z</time>
      </trkpt>
      <trkpt lat="44.47929" lon="6.84935">
        <ele>2397.4</ele>
        <time>2022-08-16T08:20:57Z</time>
      </trkpt>
      <trkpt lat="44.47928" lon="6.84933">
        <ele>2397.8</ele>
        <time>2022-08-16T08:20:58Z</time>
      </trkpt>
      <trkpt lat="44.47927" lon="6.84932">
        <ele>2398.2</ele>
        <time>2022-08-16T08:20:59Z</time>
      </trkpt>
      <trkpt lat="44.47926" lon="6.84931">
        <ele>2398.4</ele>
        <time>2022-08-16T08:21:00Z</time>
      </trkpt>
      <trkpt lat="44.47926" lon="6.8493">
        <ele>2398.4</ele>
        <time>2022-08-16T08:21:01Z</time>
      </trkpt>
      <trkpt lat="44.47925" lon="6.84929">
        <ele>2398.8</ele>
        <time>2022-08-16T08:21:02Z</time>
      </trkpt>
      <trkpt lat="44.47924" lon="6.84928">
        <ele>2399.2</ele>
        <time>2022-08-16T08:21:03Z</time>
      </trkpt>
      <trkpt lat="44.47923" lon="6.84927">
        <ele>2399.4</ele>
        <time>2022-08-16T08:21:04Z</time>
      </trkpt>
      <trkpt lat="44.47922" lon="6.84926">
        <ele>2399.6</ele>
        <time>2022-08-16T08:21:05Z</time>
      </trkpt>
      <trkpt lat="44.47921" lon="6.84926">
        <ele>2399.6</ele>
        <time>2022-08-16T08:21:06Z</time>
      </trkpt>
      <trkpt lat="44.4792" lon="6.84925">
        <ele>2399.8</ele>
        <time>2022-08-16T08:21:07Z</time>
      </trkpt>
      <trkpt lat="44.47919" lon="6.84925">
        <ele>2399.8</ele>
        <time>2022-08-16T08:21:08Z</time>
      </trkpt>
      <trkpt lat="44.47918" lon="6.84925">
        <ele>2400</ele>
        <time>2022-08-16T08:21:09Z</time>
      </trkpt>
      <trkpt lat="44.47917" lon="6.84925">
        <ele>2400</ele>
        <time>2022-08-16T08:21:10Z</time>
      </trkpt>
      <trkpt lat="44.47916" lon="6.84925">
        <ele>2400</ele>
        <time>2022-08-16T08:21:11Z</time>
      </trkpt>
      <trkpt lat="44.47915" lon="6.84925">
        <ele>2400.2</ele>
        <time>2022-08-16T08:21:12Z</time>
      </trkpt>
      <trkpt lat="44.47913" lon="6.84925">
        <ele>2400.4</ele>
        <time>2022-08-16T08:21:13Z</time>
      </trkpt>
      <trkpt lat="44.47912" lon="6.84925">
        <ele>2400.6</ele>
        <time>2022-08-16T08:21:14Z</time>
      </trkpt>
      <trkpt lat="44.47911" lon="6.84926">
        <ele>2400.8</ele>
        <time>2022-08-16T08:21:15Z</time>
      </trkpt>
      <trkpt lat="44.4791" lon="6.84926">
        <ele>2401</ele>
        <time>2022-08-16T08:21:16Z</time>
      </trkpt>
      <trkpt lat="44.47909" lon="6.84927">
        <ele>2401</ele>
        <time>2022-08-16T08:21:17Z</time>
      </trkpt>
      <trkpt lat="44.47907" lon="6.84927">
        <ele>2401</ele>
        <time>2022-08-16T08:21:18Z</time>
      </trkpt>
      <trkpt lat="44.47906" lon="6.84927">
        <ele>2401.2</ele>
        <time>2022-08-16T08:21:19Z</time>
      </trkpt>
      <trkpt lat="44.47905" lon="6.84928">
        <ele>2401.2</ele>
        <time>2022-08-16T08:21:20Z</time>
      </trkpt>
      <trkpt lat="44.47904" lon="6.84929">
        <ele>2401.4</ele>
        <time>2022-08-16T08:21:21Z</time>
      </trkpt>
      <trkpt lat="44.47903" lon="6.8493">
        <ele>2401.4</ele>
        <time>2022-08-16T08:21:22Z</time>
      </trkpt>
      <trkpt lat="44.47902" lon="6.84931">
        <ele>2401.6</ele>
        <time>2022-08-16T08:21:23Z</time>
      </trkpt>
      <trkpt lat="44.47901" lon="6.84932">
        <ele>2401.6</ele>
        <time>2022-08-16T08:21:24Z</time>
      </trkpt>
      <trkpt lat="44.479" lon="6.84933">
        <ele>2401.8</ele>
        <time>2022-08-16T08:21:25Z</time>
      </trkpt>
      <trkpt lat="44.47899" lon="6.84934">
        <ele>2401.8</ele>
        <time>2022-08-16T08:21:26Z</time>
      </trkpt>
      <trkpt lat="44.47899" lon="6.84935">
        <ele>2402</ele>
        <time>2022-08-16T08:21:27Z</time>
      </trkpt>
      <trkpt lat="44.47898" lon="6.84936">
        <ele>2402.2</ele>
        <time>2022-08-16T08:21:28Z</time>
      </trkpt>
      <trkpt lat="44.47897" lon="6.84937">
        <ele>2402.8</ele>
        <time>2022-08-16T08:21:29Z</time>
      </trkpt>
      <trkpt lat="44.47896" lon="6.84938">
        <ele>2402.8</ele>
        <time>2022-08-16T08:21:30Z</time>
      </trkpt>
      <trkpt lat="44.47895" lon="6.84939">
        <ele>2403</ele>
        <time>2022-08-16T08:21:31Z</time>
      </trkpt>
      <trkpt lat="44.47894" lon="6.8494">
        <ele>2403.4</ele>
        <time>2022-08-16T08:21:32Z</time>
      </trkpt>
      <trkpt lat="44.47893" lon="6.84941">
        <ele>2403.6</ele>
        <time>2022-08-16T08:21:33Z</time>
      </trkpt>
      <trkpt lat="44.47892" lon="6.84942">
        <ele>2403.8</ele>
        <time>2022-08-16T08:21:34Z</time>
      </trkpt>
      <trkpt lat="44.47891" lon="6.84943">
        <ele>2403.8</ele>
        <time>2022-08-16T08:21:35Z</time>
      </trkpt>
      <trkpt lat="44.4789" lon="6.84944">
        <ele>2404</ele>
        <time>2022-08-16T08:21:36Z</time>
      </trkpt>
      <trkpt lat="44.47889" lon="6.84945">
        <ele>2404</ele>
        <time>2022-08-16T08:21:37Z</time>
      </trkpt>
      <trkpt lat="44.47888" lon="6.84946">
        <ele>2404.2</ele>
        <time>2022-08-16T08:21:38Z</time>
      </trkpt>
      <trkpt lat="44.47888" lon="6.84947">
        <ele>2404.2</ele>
        <time>2022-08-16T08:21:39Z</time>
      </trkpt>
      <trkpt lat="44.47887" lon="6.84949">
        <ele>2404.4</ele>
        <time>2022-08-16T08:21:40Z</time>
      </trkpt>
      <trkpt lat="44.47886" lon="6.8495">
        <ele>2404.6</ele>
        <time>2022-08-16T08:21:41Z</time>
      </trkpt>
      <trkpt lat="44.47885" lon="6.84951">
        <ele>2404.4</ele>
        <time>2022-08-16T08:21:42Z</time>
      </trkpt>
      <trkpt lat="44.47885" lon="6.84952">
        <ele>2404.6</ele>
        <time>2022-08-16T08:21:43Z</time>
      </trkpt>
      <trkpt lat="44.47884" lon="6.84953">
        <ele>2404.8</ele>
        <time>2022-08-16T08:21:44Z</time>
      </trkpt>
      <trkpt lat="44.47883" lon="6.84955">
        <ele>2405</ele>
        <time>2022-08-16T08:21:45Z</time>
      </trkpt>
      <trkpt lat="44.47883" lon="6.84956">
        <ele>2405.2</ele>
        <time>2022-08-16T08:21:46Z</time>
      </trkpt>
      <trkpt lat="44.47882" lon="6.84957">
        <ele>2405.2</ele>
        <time>2022-08-16T08:21:47Z</time>
      </trkpt>
      <trkpt lat="44.47882" lon="6.84959">
        <ele>2405.6</ele>
        <time>2022-08-16T08:21:48Z</time>
      </trkpt>
      <trkpt lat="44.47881" lon="6.8496">
        <ele>2405.8</ele>
        <time>2022-08-16T08:21:49Z</time>
      </trkpt>
      <trkpt lat="44.4788" lon="6.84962">
        <ele>2405.8</ele>
        <time>2022-08-16T08:21:50Z</time>
      </trkpt>
      <trkpt lat="44.4788" lon="6.84963">
        <ele>2406.2</ele>
        <time>2022-08-16T08:21:51Z</time>
      </trkpt>
      <trkpt lat="44.47879" lon="6.84965">
        <ele>2406.2</ele>
        <time>2022-08-16T08:21:52Z</time>
      </trkpt>
      <trkpt lat="44.47879" lon="6.84966">
        <ele>2406.4</ele>
        <time>2022-08-16T08:21:53Z</time>
      </trkpt>
      <trkpt lat="44.47878" lon="6.84968">
        <ele>2406.4</ele>
        <time>2022-08-16T08:21:54Z</time>
      </trkpt>
      <trkpt lat="44.47878" lon="6.84969">
        <ele>2406.8</ele>
        <time>2022-08-16T08:21:55Z</time>
      </trkpt>
      <trkpt lat="44.47878" lon="6.84971">
        <ele>2407</ele>
        <time>2022-08-16T08:21:56Z</time>
      </trkpt>
      <trkpt lat="44.47877" lon="6.84973">
        <ele>2407</ele>
        <time>2022-08-16T08:21:57Z</time>
      </trkpt>
      <trkpt lat="44.47877" lon="6.84974">
        <ele>2407.2</ele>
        <time>2022-08-16T08:21:58Z</time>
      </trkpt>
      <trkpt lat="44.47877" lon="6.84976">
        <ele>2407.4</ele>
        <time>2022-08-16T08:21:59Z</time>
      </trkpt>
      <trkpt lat="44.47877" lon="6.84977">
        <ele>2407.6</ele>
        <time>2022-08-16T08:22:00Z</time>
      </trkpt>
      <trkpt lat="44.47876" lon="6.84979">
        <ele>2407.8</ele>
        <time>2022-08-16T08:22:01Z</time>
      </trkpt>
      <trkpt lat="44.47876" lon="6.84981">
        <ele>2408</ele>
        <time>2022-08-16T08:22:02Z</time>
      </trkpt>
      <trkpt lat="44.47876" lon="6.84982">
        <ele>2408</ele>
        <time>2022-08-16T08:22:03Z</time>
      </trkpt>
      <trkpt lat="44.47876" lon="6.84984">
        <ele>2408.2</ele>
        <time>2022-08-16T08:22:04Z</time>
      </trkpt>
      <trkpt lat="44.47875" lon="6.84986">
        <ele>2408</ele>
        <time>2022-08-16T08:22:05Z</time>
      </trkpt>
      <trkpt lat="44.47875" lon="6.84988">
        <ele>2408.2</ele>
        <time>2022-08-16T08:22:06Z</time>
      </trkpt>
      <trkpt lat="44.47875" lon="6.84989">
        <ele>2408.6</ele>
        <time>2022-08-16T08:22:07Z</time>
      </trkpt>
      <trkpt lat="44.47875" lon="6.84991">
        <ele>2408.6</ele>
        <time>2022-08-16T08:22:08Z</time>
      </trkpt>
      <trkpt lat="44.47875" lon="6.84992">
        <ele>2408.8</ele>
        <time>2022-08-16T08:22:09Z</time>
      </trkpt>
      <trkpt lat="44.47875" lon="6.84994">
        <ele>2409.4</ele>
        <time>2022-08-16T08:22:10Z</time>
      </trkpt>
      <trkpt lat="44.47875" lon="6.84995">
        <ele>2409.6</ele>
        <time>2022-08-16T08:22:11Z</time>
      </trkpt>
      <trkpt lat="44.47874" lon="6.84997">
        <ele>2409.8</ele>
        <time>2022-08-16T08:22:12Z</time>
      </trkpt>
      <trkpt lat="44.47874" lon="6.84999">
        <ele>2410</ele>
        <time>2022-08-16T08:22:13Z</time>
      </trkpt>
      <trkpt lat="44.47874" lon="6.85">
        <ele>2410</ele>
        <time>2022-08-16T08:22:14Z</time>
      </trkpt>
      <trkpt lat="44.47874" lon="6.85002">
        <ele>2410</ele>
        <time>2022-08-16T08:22:15Z</time>
      </trkpt>
      <trkpt lat="44.47874" lon="6.85003">
        <ele>2410.2</ele>
        <time>2022-08-16T08:22:16Z</time>
      </trkpt>
      <trkpt lat="44.47874" lon="6.85005">
        <ele>2410.4</ele>
        <time>2022-08-16T08:22:17Z</time>
      </trkpt>
      <trkpt lat="44.47874" lon="6.85006">
        <ele>2410.6</ele>
        <time>2022-08-16T08:22:18Z</time>
      </trkpt>
      <trkpt lat="44.47874" lon="6.85008">
        <ele>2410.6</ele>
        <time>2022-08-16T08:22:19Z</time>
      </trkpt>
      <trkpt lat="44.47874" lon="6.85009">
        <ele>2410.4</ele>
        <time>2022-08-16T08:22:20Z</time>
      </trkpt>
      <trkpt lat="44.47874" lon="6.85011">
        <ele>2410.8</ele>
        <time>2022-08-16T08:22:21Z</time>
      </trkpt>
      <trkpt lat="44.47874" lon="6.85013">
        <ele>2410.8</ele>
        <time>2022-08-16T08:22:22Z</time>
      </trkpt>
      <trkpt lat="44.47874" lon="6.85014">
        <ele>2411</ele>
        <time>2022-08-16T08:22:23Z</time>
      </trkpt>
      <trkpt lat="44.47874" lon="6.85016">
        <ele>2411.2</ele>
        <time>2022-08-16T08:22:24Z</time>
      </trkpt>
      <trkpt lat="44.47874" lon="6.85017">
        <ele>2411.2</ele>
        <time>2022-08-16T08:22:25Z</time>
      </trkpt>
      <trkpt lat="44.47874" lon="6.85019">
        <ele>2411.6</ele>
        <time>2022-08-16T08:22:26Z</time>
      </trkpt>
      <trkpt lat="44.47874" lon="6.85021">
        <ele>2411.6</ele>
        <time>2022-08-16T08:22:27Z</time>
      </trkpt>
      <trkpt lat="44.47874" lon="6.85022">
        <ele>2411.8</ele>
        <time>2022-08-16T08:22:28Z</time>
      </trkpt>
      <trkpt lat="44.47874" lon="6.85024">
        <ele>2412</ele>
        <time>2022-08-16T08:22:29Z</time>
      </trkpt>
      <trkpt lat="44.47874" lon="6.85026">
        <ele>2412.2</ele>
        <time>2022-08-16T08:22:30Z</time>
      </trkpt>
      <trkpt lat="44.47874" lon="6.85027">
        <ele>2412.4</ele>
        <time>2022-08-16T08:22:31Z</time>
      </trkpt>
      <trkpt lat="44.47873" lon="6.85029">
        <ele>2412.6</ele>
        <time>2022-08-16T08:22:32Z</time>
      </trkpt>
      <trkpt lat="44.47873" lon="6.8503">
        <ele>2412.6</ele>
        <time>2022-08-16T08:22:33Z</time>
      </trkpt>
      <trkpt lat="44.47873" lon="6.85032">
        <ele>2412.6</ele>
        <time>2022-08-16T08:22:34Z</time>
      </trkpt>
      <trkpt lat="44.47873" lon="6.85034">
        <ele>2412.8</ele>
        <time>2022-08-16T08:22:35Z</time>
      </trkpt>
      <trkpt lat="44.47873" lon="6.85035">
        <ele>2413</ele>
        <time>2022-08-16T08:22:36Z</time>
      </trkpt>
      <trkpt lat="44.47873" lon="6.85037">
        <ele>2413</ele>
        <time>2022-08-16T08:22:37Z</time>
      </trkpt>
      <trkpt lat="44.47872" lon="6.85039">
        <ele>2413.2</ele>
        <time>2022-08-16T08:22:38Z</time>
      </trkpt>
      <trkpt lat="44.47872" lon="6.8504">
        <ele>2413.2</ele>
        <time>2022-08-16T08:22:39Z</time>
      </trkpt>
      <trkpt lat="44.47872" lon="6.85042">
        <ele>2413.2</ele>
        <time>2022-08-16T08:22:40Z</time>
      </trkpt>
      <trkpt lat="44.47872" lon="6.85043">
        <ele>2413.6</ele>
        <time>2022-08-16T08:22:41Z</time>
      </trkpt>
      <trkpt lat="44.47872" lon="6.85045">
        <ele>2413.6</ele>
        <time>2022-08-16T08:22:42Z</time>
      </trkpt>
      <trkpt lat="44.47872" lon="6.85047">
        <ele>2413.8</ele>
        <time>2022-08-16T08:22:43Z</time>
      </trkpt>
      <trkpt lat="44.47872" lon="6.85048">
        <ele>2414</ele>
        <time>2022-08-16T08:22:44Z</time>
      </trkpt>
      <trkpt lat="44.47872" lon="6.8505">
        <ele>2414</ele>
        <time>2022-08-16T08:22:45Z</time>
      </trkpt>
      <trkpt lat="44.47871" lon="6.85051">
        <ele>2414.2</ele>
        <time>2022-08-16T08:22:46Z</time>
      </trkpt>
      <trkpt lat="44.47871" lon="6.85053">
        <ele>2414.4</ele>
        <time>2022-08-16T08:22:47Z</time>
      </trkpt>
      <trkpt lat="44.47871" lon="6.85055">
        <ele>2414.6</ele>
        <time>2022-08-16T08:22:48Z</time>
      </trkpt>
      <trkpt lat="44.47871" lon="6.85056">
        <ele>2414.8</ele>
        <time>2022-08-16T08:22:49Z</time>
      </trkpt>
      <trkpt lat="44.47871" lon="6.85058">
        <ele>2414.8</ele>
        <time>2022-08-16T08:22:50Z</time>
      </trkpt>
      <trkpt lat="44.47871" lon="6.8506">
        <ele>2414.8</ele>
        <time>2022-08-16T08:22:51Z</time>
      </trkpt>
      <trkpt lat="44.47871" lon="6.85061">
        <ele>2415.2</ele>
        <time>2022-08-16T08:22:52Z</time>
      </trkpt>
      <trkpt lat="44.47871" lon="6.85063">
        <ele>2415.2</ele>
        <time>2022-08-16T08:22:53Z</time>
      </trkpt>
      <trkpt lat="44.47871" lon="6.85064">
        <ele>2415.4</ele>
        <time>2022-08-16T08:22:54Z</time>
      </trkpt>
      <trkpt lat="44.4787" lon="6.85066">
        <ele>2415.6</ele>
        <time>2022-08-16T08:22:55Z</time>
      </trkpt>
      <trkpt lat="44.4787" lon="6.85068">
        <ele>2415.8</ele>
        <time>2022-08-16T08:22:56Z</time>
      </trkpt>
      <trkpt lat="44.4787" lon="6.85069">
        <ele>2415.8</ele>
        <time>2022-08-16T08:22:57Z</time>
      </trkpt>
      <trkpt lat="44.4787" lon="6.85071">
        <ele>2415.8</ele>
        <time>2022-08-16T08:22:58Z</time>
      </trkpt>
      <trkpt lat="44.4787" lon="6.85073">
        <ele>2416.4</ele>
        <time>2022-08-16T08:22:59Z</time>
      </trkpt>
      <trkpt lat="44.4787" lon="6.85074">
        <ele>2416.4</ele>
        <time>2022-08-16T08:23:00Z</time>
      </trkpt>
      <trkpt lat="44.4787" lon="6.85076">
        <ele>2416.6</ele>
        <time>2022-08-16T08:23:01Z</time>
      </trkpt>
      <trkpt lat="44.47869" lon="6.85078">
        <ele>2416.8</ele>
        <time>2022-08-16T08:23:02Z</time>
      </trkpt>
      <trkpt lat="44.47869" lon="6.85079">
        <ele>2416.8</ele>
        <time>2022-08-16T08:23:03Z</time>
      </trkpt>
      <trkpt lat="44.47869" lon="6.85081">
        <ele>2416.8</ele>
        <time>2022-08-16T08:23:04Z</time>
      </trkpt>
      <trkpt lat="44.47869" lon="6.85081">
        <ele>2417.2</ele>
        <time>2022-08-16T08:23:06Z</time>
      </trkpt>
      <trkpt lat="44.47868" lon="6.85083">
        <ele>2417.8</ele>
        <time>2022-08-16T08:23:10Z</time>
      </trkpt>
      <trkpt lat="44.47868" lon="6.85084">
        <ele>2417.8</ele>
        <time>2022-08-16T08:23:11Z</time>
      </trkpt>
      <trkpt lat="44.47867" lon="6.85085">
        <ele>2418</ele>
        <time>2022-08-16T08:23:12Z</time>
      </trkpt>
      <trkpt lat="44.47867" lon="6.85086">
        <ele>2418.2</ele>
        <time>2022-08-16T08:23:13Z</time>
      </trkpt>
      <trkpt lat="44.47866" lon="6.85087">
        <ele>2418.4</ele>
        <time>2022-08-16T08:23:14Z</time>
      </trkpt>
      <trkpt lat="44.47865" lon="6.85089">
        <ele>2418.6</ele>
        <time>2022-08-16T08:23:15Z</time>
      </trkpt>
      <trkpt lat="44.47864" lon="6.8509">
        <ele>2418.6</ele>
        <time>2022-08-16T08:23:16Z</time>
      </trkpt>
      <trkpt lat="44.47863" lon="6.85091">
        <ele>2418.6</ele>
        <time>2022-08-16T08:23:17Z</time>
      </trkpt>
      <trkpt lat="44.47863" lon="6.85092">
        <ele>2418.6</ele>
        <time>2022-08-16T08:23:18Z</time>
      </trkpt>
      <trkpt lat="44.47862" lon="6.85094">
        <ele>2418.6</ele>
        <time>2022-08-16T08:23:19Z</time>
      </trkpt>
      <trkpt lat="44.4786" lon="6.85095">
        <ele>2418.8</ele>
        <time>2022-08-16T08:23:20Z</time>
      </trkpt>
      <trkpt lat="44.47859" lon="6.85096">
        <ele>2418.8</ele>
        <time>2022-08-16T08:23:21Z</time>
      </trkpt>
      <trkpt lat="44.47858" lon="6.85097">
        <ele>2419</ele>
        <time>2022-08-16T08:23:22Z</time>
      </trkpt>
      <trkpt lat="44.47857" lon="6.85097">
        <ele>2419.2</ele>
        <time>2022-08-16T08:23:23Z</time>
      </trkpt>
      <trkpt lat="44.47856" lon="6.85098">
        <ele>2419.2</ele>
        <time>2022-08-16T08:23:24Z</time>
      </trkpt>
      <trkpt lat="44.47855" lon="6.85099">
        <ele>2419.2</ele>
        <time>2022-08-16T08:23:25Z</time>
      </trkpt>
      <trkpt lat="44.47855" lon="6.851">
        <ele>2419.4</ele>
        <time>2022-08-16T08:23:26Z</time>
      </trkpt>
      <trkpt lat="44.47855" lon="6.85101">
        <ele>2419.6</ele>
        <time>2022-08-16T08:23:27Z</time>
      </trkpt>
      <trkpt lat="44.47855" lon="6.851">
        <ele>2421</ele>
        <time>2022-08-16T08:23:37Z</time>
      </trkpt>
      <trkpt lat="44.47855" lon="6.851">
        <ele>2421.2</ele>
        <time>2022-08-16T08:23:53Z</time>
      </trkpt>
      <trkpt lat="44.47854" lon="6.851">
        <ele>2420.8</ele>
        <time>2022-08-16T08:24:13Z</time>
      </trkpt>
      <trkpt lat="44.47853" lon="6.851">
        <ele>2420.8</ele>
        <time>2022-08-16T08:24:14Z</time>
      </trkpt>
      <trkpt lat="44.47847" lon="6.85104">
        <ele>2421</ele>
        <time>2022-08-16T08:24:20Z</time>
      </trkpt>
      <trkpt lat="44.47846" lon="6.85104">
        <ele>2421</ele>
        <time>2022-08-16T08:24:21Z</time>
      </trkpt>
      <trkpt lat="44.47845" lon="6.85105">
        <ele>2421</ele>
        <time>2022-08-16T08:24:22Z</time>
      </trkpt>
      <trkpt lat="44.47842" lon="6.85108">
        <ele>2421</ele>
        <time>2022-08-16T08:24:25Z</time>
      </trkpt>
      <trkpt lat="44.47841" lon="6.85108">
        <ele>2421.2</ele>
        <time>2022-08-16T08:24:26Z</time>
      </trkpt>
      <trkpt lat="44.4784" lon="6.85109">
        <ele>2421.2</ele>
        <time>2022-08-16T08:24:27Z</time>
      </trkpt>
      <trkpt lat="44.47839" lon="6.85109">
        <ele>2421.2</ele>
        <time>2022-08-16T08:24:28Z</time>
      </trkpt>
      <trkpt lat="44.47837" lon="6.85111">
        <ele>2421.6</ele>
        <time>2022-08-16T08:24:30Z</time>
      </trkpt>
      <trkpt lat="44.47833" lon="6.85113">
        <ele>2422.4</ele>
        <time>2022-08-16T08:24:34Z</time>
      </trkpt>
      <trkpt lat="44.47832" lon="6.85114">
        <ele>2422.4</ele>
        <time>2022-08-16T08:24:35Z</time>
      </trkpt>
      <trkpt lat="44.47831" lon="6.85115">
        <ele>2422.6</ele>
        <time>2022-08-16T08:24:36Z</time>
      </trkpt>
      <trkpt lat="44.4783" lon="6.85116">
        <ele>2422.6</ele>
        <time>2022-08-16T08:24:37Z</time>
      </trkpt>
      <trkpt lat="44.47829" lon="6.85116">
        <ele>2422.8</ele>
        <time>2022-08-16T08:24:38Z</time>
      </trkpt>
      <trkpt lat="44.47828" lon="6.85117">
        <ele>2422.8</ele>
        <time>2022-08-16T08:24:39Z</time>
      </trkpt>
      <trkpt lat="44.47827" lon="6.85117">
        <ele>2422.8</ele>
        <time>2022-08-16T08:24:40Z</time>
      </trkpt>
      <trkpt lat="44.47826" lon="6.85118">
        <ele>2422.8</ele>
        <time>2022-08-16T08:24:41Z</time>
      </trkpt>
      <trkpt lat="44.47824" lon="6.85118">
        <ele>2423.2</ele>
        <time>2022-08-16T08:24:42Z</time>
      </trkpt>
      <trkpt lat="44.47823" lon="6.85118">
        <ele>2423.2</ele>
        <time>2022-08-16T08:24:43Z</time>
      </trkpt>
      <trkpt lat="44.47822" lon="6.85119">
        <ele>2424</ele>
        <time>2022-08-16T08:24:44Z</time>
      </trkpt>
      <trkpt lat="44.47821" lon="6.8512">
        <ele>2424.2</ele>
        <time>2022-08-16T08:24:45Z</time>
      </trkpt>
      <trkpt lat="44.4782" lon="6.8512">
        <ele>2424.4</ele>
        <time>2022-08-16T08:24:46Z</time>
      </trkpt>
      <trkpt lat="44.47819" lon="6.8512">
        <ele>2424.6</ele>
        <time>2022-08-16T08:24:47Z</time>
      </trkpt>
      <trkpt lat="44.47818" lon="6.8512">
        <ele>2424.8</ele>
        <time>2022-08-16T08:24:48Z</time>
      </trkpt>
      <trkpt lat="44.47817" lon="6.85121">
        <ele>2424.8</ele>
        <time>2022-08-16T08:24:49Z</time>
      </trkpt>
      <trkpt lat="44.47816" lon="6.85121">
        <ele>2425</ele>
        <time>2022-08-16T08:24:50Z</time>
      </trkpt>
      <trkpt lat="44.47815" lon="6.85122">
        <ele>2425.2</ele>
        <time>2022-08-16T08:24:51Z</time>
      </trkpt>
      <trkpt lat="44.47814" lon="6.85123">
        <ele>2425.2</ele>
        <time>2022-08-16T08:24:52Z</time>
      </trkpt>
      <trkpt lat="44.47813" lon="6.85123">
        <ele>2425.4</ele>
        <time>2022-08-16T08:24:53Z</time>
      </trkpt>
      <trkpt lat="44.47812" lon="6.85124">
        <ele>2425.6</ele>
        <time>2022-08-16T08:24:54Z</time>
      </trkpt>
      <trkpt lat="44.47811" lon="6.85124">
        <ele>2425.6</ele>
        <time>2022-08-16T08:24:55Z</time>
      </trkpt>
      <trkpt lat="44.4781" lon="6.85125">
        <ele>2425.6</ele>
        <time>2022-08-16T08:24:56Z</time>
      </trkpt>
      <trkpt lat="44.47809" lon="6.85125">
        <ele>2425.8</ele>
        <time>2022-08-16T08:24:57Z</time>
      </trkpt>
      <trkpt lat="44.47808" lon="6.85125">
        <ele>2426</ele>
        <time>2022-08-16T08:24:58Z</time>
      </trkpt>
      <trkpt lat="44.47807" lon="6.85126">
        <ele>2425.8</ele>
        <time>2022-08-16T08:24:59Z</time>
      </trkpt>
      <trkpt lat="44.47806" lon="6.85126">
        <ele>2426</ele>
        <time>2022-08-16T08:25:00Z</time>
      </trkpt>
      <trkpt lat="44.47805" lon="6.85127">
        <ele>2426.2</ele>
        <time>2022-08-16T08:25:01Z</time>
      </trkpt>
      <trkpt lat="44.47804" lon="6.85127">
        <ele>2426.4</ele>
        <time>2022-08-16T08:25:02Z</time>
      </trkpt>
      <trkpt lat="44.47803" lon="6.85128">
        <ele>2426.6</ele>
        <time>2022-08-16T08:25:03Z</time>
      </trkpt>
      <trkpt lat="44.47802" lon="6.85128">
        <ele>2426.6</ele>
        <time>2022-08-16T08:25:04Z</time>
      </trkpt>
      <trkpt lat="44.47801" lon="6.85129">
        <ele>2427</ele>
        <time>2022-08-16T08:25:05Z</time>
      </trkpt>
      <trkpt lat="44.478" lon="6.85129">
        <ele>2427</ele>
        <time>2022-08-16T08:25:06Z</time>
      </trkpt>
      <trkpt lat="44.47799" lon="6.85129">
        <ele>2427</ele>
        <time>2022-08-16T08:25:07Z</time>
      </trkpt>
      <trkpt lat="44.47797" lon="6.8513">
        <ele>2427.4</ele>
        <time>2022-08-16T08:25:08Z</time>
      </trkpt>
      <trkpt lat="44.47796" lon="6.8513">
        <ele>2427.4</ele>
        <time>2022-08-16T08:25:09Z</time>
      </trkpt>
      <trkpt lat="44.47795" lon="6.85131">
        <ele>2427.6</ele>
        <time>2022-08-16T08:25:10Z</time>
      </trkpt>
      <trkpt lat="44.47794" lon="6.85131">
        <ele>2427.6</ele>
        <time>2022-08-16T08:25:11Z</time>
      </trkpt>
      <trkpt lat="44.47794" lon="6.85132">
        <ele>2427.8</ele>
        <time>2022-08-16T08:25:12Z</time>
      </trkpt>
      <trkpt lat="44.47793" lon="6.85132">
        <ele>2428</ele>
        <time>2022-08-16T08:25:13Z</time>
      </trkpt>
      <trkpt lat="44.47792" lon="6.85133">
        <ele>2428</ele>
        <time>2022-08-16T08:25:14Z</time>
      </trkpt>
      <trkpt lat="44.47791" lon="6.85134">
        <ele>2428.2</ele>
        <time>2022-08-16T08:25:15Z</time>
      </trkpt>
      <trkpt lat="44.4779" lon="6.85135">
        <ele>2428.4</ele>
        <time>2022-08-16T08:25:16Z</time>
      </trkpt>
      <trkpt lat="44.47789" lon="6.85135">
        <ele>2428.6</ele>
        <time>2022-08-16T08:25:17Z</time>
      </trkpt>
      <trkpt lat="44.47788" lon="6.85136">
        <ele>2428.8</ele>
        <time>2022-08-16T08:25:18Z</time>
      </trkpt>
      <trkpt lat="44.47787" lon="6.85137">
        <ele>2428.8</ele>
        <time>2022-08-16T08:25:19Z</time>
      </trkpt>
      <trkpt lat="44.47786" lon="6.85138">
        <ele>2429</ele>
        <time>2022-08-16T08:25:20Z</time>
      </trkpt>
      <trkpt lat="44.47785" lon="6.85139">
        <ele>2429.2</ele>
        <time>2022-08-16T08:25:21Z</time>
      </trkpt>
      <trkpt lat="44.47784" lon="6.8514">
        <ele>2429.4</ele>
        <time>2022-08-16T08:25:22Z</time>
      </trkpt>
      <trkpt lat="44.47783" lon="6.85141">
        <ele>2429.4</ele>
        <time>2022-08-16T08:25:23Z</time>
      </trkpt>
      <trkpt lat="44.47782" lon="6.85142">
        <ele>2429.6</ele>
        <time>2022-08-16T08:25:24Z</time>
      </trkpt>
      <trkpt lat="44.47782" lon="6.85143">
        <ele>2429.6</ele>
        <time>2022-08-16T08:25:25Z</time>
      </trkpt>
      <trkpt lat="44.47781" lon="6.85144">
        <ele>2429.6</ele>
        <time>2022-08-16T08:25:26Z</time>
      </trkpt>
      <trkpt lat="44.4778" lon="6.85145">
        <ele>2429.8</ele>
        <time>2022-08-16T08:25:27Z</time>
      </trkpt>
      <trkpt lat="44.47779" lon="6.85147">
        <ele>2430</ele>
        <time>2022-08-16T08:25:28Z</time>
      </trkpt>
      <trkpt lat="44.47778" lon="6.85148">
        <ele>2430.2</ele>
        <time>2022-08-16T08:25:29Z</time>
      </trkpt>
      <trkpt lat="44.47777" lon="6.85149">
        <ele>2430.4</ele>
        <time>2022-08-16T08:25:30Z</time>
      </trkpt>
      <trkpt lat="44.47776" lon="6.8515">
        <ele>2430.6</ele>
        <time>2022-08-16T08:25:31Z</time>
      </trkpt>
      <trkpt lat="44.47775" lon="6.85152">
        <ele>2430.8</ele>
        <time>2022-08-16T08:25:32Z</time>
      </trkpt>
      <trkpt lat="44.47775" lon="6.85153">
        <ele>2431.2</ele>
        <time>2022-08-16T08:25:33Z</time>
      </trkpt>
      <trkpt lat="44.47774" lon="6.85154">
        <ele>2431.6</ele>
        <time>2022-08-16T08:25:34Z</time>
      </trkpt>
      <trkpt lat="44.47773" lon="6.85156">
        <ele>2431.8</ele>
        <time>2022-08-16T08:25:35Z</time>
      </trkpt>
      <trkpt lat="44.47773" lon="6.85157">
        <ele>2431.8</ele>
        <time>2022-08-16T08:25:36Z</time>
      </trkpt>
      <trkpt lat="44.47772" lon="6.85158">
        <ele>2432.2</ele>
        <time>2022-08-16T08:25:37Z</time>
      </trkpt>
      <trkpt lat="44.47771" lon="6.85159">
        <ele>2432.2</ele>
        <time>2022-08-16T08:25:38Z</time>
      </trkpt>
      <trkpt lat="44.4777" lon="6.85161">
        <ele>2432.4</ele>
        <time>2022-08-16T08:25:39Z</time>
      </trkpt>
      <trkpt lat="44.47769" lon="6.85162">
        <ele>2432.6</ele>
        <time>2022-08-16T08:25:40Z</time>
      </trkpt>
      <trkpt lat="44.47769" lon="6.85163">
        <ele>2432.8</ele>
        <time>2022-08-16T08:25:41Z</time>
      </trkpt>
      <trkpt lat="44.47768" lon="6.85164">
        <ele>2432.8</ele>
        <time>2022-08-16T08:25:42Z</time>
      </trkpt>
      <trkpt lat="44.47767" lon="6.85166">
        <ele>2432.8</ele>
        <time>2022-08-16T08:25:43Z</time>
      </trkpt>
      <trkpt lat="44.47766" lon="6.85167">
        <ele>2433</ele>
        <time>2022-08-16T08:25:44Z</time>
      </trkpt>
      <trkpt lat="44.47765" lon="6.85168">
        <ele>2433.2</ele>
        <time>2022-08-16T08:25:45Z</time>
      </trkpt>
      <trkpt lat="44.47764" lon="6.85168">
        <ele>2433.4</ele>
        <time>2022-08-16T08:25:46Z</time>
      </trkpt>
      <trkpt lat="44.47763" lon="6.85169">
        <ele>2433.6</ele>
        <time>2022-08-16T08:25:47Z</time>
      </trkpt>
      <trkpt lat="44.47763" lon="6.8517">
        <ele>2433.8</ele>
        <time>2022-08-16T08:25:48Z</time>
      </trkpt>
      <trkpt lat="44.47762" lon="6.85171">
        <ele>2434</ele>
        <time>2022-08-16T08:25:49Z</time>
      </trkpt>
      <trkpt lat="44.47761" lon="6.85172">
        <ele>2434.2</ele>
        <time>2022-08-16T08:25:50Z</time>
      </trkpt>
      <trkpt lat="44.4776" lon="6.85173">
        <ele>2434.4</ele>
        <time>2022-08-16T08:25:51Z</time>
      </trkpt>
      <trkpt lat="44.4776" lon="6.85174">
        <ele>2434.6</ele>
        <time>2022-08-16T08:25:52Z</time>
      </trkpt>
      <trkpt lat="44.47759" lon="6.85175">
        <ele>2434.6</ele>
        <time>2022-08-16T08:25:53Z</time>
      </trkpt>
      <trkpt lat="44.47758" lon="6.85177">
        <ele>2435</ele>
        <time>2022-08-16T08:25:54Z</time>
      </trkpt>
      <trkpt lat="44.47757" lon="6.85179">
        <ele>2435</ele>
        <time>2022-08-16T08:25:55Z</time>
      </trkpt>
      <trkpt lat="44.47757" lon="6.8518">
        <ele>2435.2</ele>
        <time>2022-08-16T08:25:56Z</time>
      </trkpt>
      <trkpt lat="44.47756" lon="6.85181">
        <ele>2435.4</ele>
        <time>2022-08-16T08:25:57Z</time>
      </trkpt>
      <trkpt lat="44.47755" lon="6.85182">
        <ele>2435.8</ele>
        <time>2022-08-16T08:25:58Z</time>
      </trkpt>
      <trkpt lat="44.47754" lon="6.85183">
        <ele>2435.6</ele>
        <time>2022-08-16T08:25:59Z</time>
      </trkpt>
      <trkpt lat="44.47753" lon="6.85184">
        <ele>2436</ele>
        <time>2022-08-16T08:26:00Z</time>
      </trkpt>
      <trkpt lat="44.47752" lon="6.85185">
        <ele>2436.2</ele>
        <time>2022-08-16T08:26:01Z</time>
      </trkpt>
      <trkpt lat="44.47752" lon="6.85186">
        <ele>2436.2</ele>
        <time>2022-08-16T08:26:02Z</time>
      </trkpt>
      <trkpt lat="44.47751" lon="6.85188">
        <ele>2436.4</ele>
        <time>2022-08-16T08:26:03Z</time>
      </trkpt>
      <trkpt lat="44.47751" lon="6.85189">
        <ele>2436.4</ele>
        <time>2022-08-16T08:26:04Z</time>
      </trkpt>
      <trkpt lat="44.4775" lon="6.8519">
        <ele>2436.6</ele>
        <time>2022-08-16T08:26:05Z</time>
      </trkpt>
      <trkpt lat="44.47749" lon="6.85191">
        <ele>2436.8</ele>
        <time>2022-08-16T08:26:06Z</time>
      </trkpt>
      <trkpt lat="44.47748" lon="6.85192">
        <ele>2437</ele>
        <time>2022-08-16T08:26:07Z</time>
      </trkpt>
      <trkpt lat="44.47748" lon="6.85194">
        <ele>2437</ele>
        <time>2022-08-16T08:26:08Z</time>
      </trkpt>
      <trkpt lat="44.47747" lon="6.85195">
        <ele>2437</ele>
        <time>2022-08-16T08:26:09Z</time>
      </trkpt>
      <trkpt lat="44.47746" lon="6.85196">
        <ele>2437.2</ele>
        <time>2022-08-16T08:26:10Z</time>
      </trkpt>
      <trkpt lat="44.47746" lon="6.85197">
        <ele>2437.4</ele>
        <time>2022-08-16T08:26:11Z</time>
      </trkpt>
      <trkpt lat="44.47745" lon="6.85199">
        <ele>2437.2</ele>
        <time>2022-08-16T08:26:12Z</time>
      </trkpt>
      <trkpt lat="44.47745" lon="6.852">
        <ele>2437.6</ele>
        <time>2022-08-16T08:26:13Z</time>
      </trkpt>
      <trkpt lat="44.47744" lon="6.85201">
        <ele>2437.8</ele>
        <time>2022-08-16T08:26:14Z</time>
      </trkpt>
      <trkpt lat="44.47743" lon="6.85202">
        <ele>2437.8</ele>
        <time>2022-08-16T08:26:15Z</time>
      </trkpt>
      <trkpt lat="44.47743" lon="6.85204">
        <ele>2437.8</ele>
        <time>2022-08-16T08:26:16Z</time>
      </trkpt>
      <trkpt lat="44.47742" lon="6.85205">
        <ele>2438</ele>
        <time>2022-08-16T08:26:17Z</time>
      </trkpt>
      <trkpt lat="44.47741" lon="6.85207">
        <ele>2438</ele>
        <time>2022-08-16T08:26:18Z</time>
      </trkpt>
      <trkpt lat="44.47741" lon="6.85208">
        <ele>2438.4</ele>
        <time>2022-08-16T08:26:19Z</time>
      </trkpt>
      <trkpt lat="44.47741" lon="6.8521">
        <ele>2438.4</ele>
        <time>2022-08-16T08:26:20Z</time>
      </trkpt>
      <trkpt lat="44.4774" lon="6.85211">
        <ele>2438.6</ele>
        <time>2022-08-16T08:26:21Z</time>
      </trkpt>
      <trkpt lat="44.4774" lon="6.85212">
        <ele>2438.6</ele>
        <time>2022-08-16T08:26:22Z</time>
      </trkpt>
      <trkpt lat="44.4774" lon="6.85214">
        <ele>2438.8</ele>
        <time>2022-08-16T08:26:23Z</time>
      </trkpt>
      <trkpt lat="44.4774" lon="6.85215">
        <ele>2439.2</ele>
        <time>2022-08-16T08:26:24Z</time>
      </trkpt>
      <trkpt lat="44.47739" lon="6.85217">
        <ele>2439.4</ele>
        <time>2022-08-16T08:26:25Z</time>
      </trkpt>
      <trkpt lat="44.47739" lon="6.85218">
        <ele>2439.4</ele>
        <time>2022-08-16T08:26:26Z</time>
      </trkpt>
      <trkpt lat="44.47738" lon="6.85219">
        <ele>2439.4</ele>
        <time>2022-08-16T08:26:27Z</time>
      </trkpt>
      <trkpt lat="44.47737" lon="6.8522">
        <ele>2439.4</ele>
        <time>2022-08-16T08:26:28Z</time>
      </trkpt>
      <trkpt lat="44.47736" lon="6.8522">
        <ele>2439.6</ele>
        <time>2022-08-16T08:26:29Z</time>
      </trkpt>
      <trkpt lat="44.47735" lon="6.8522">
        <ele>2439.8</ele>
        <time>2022-08-16T08:26:30Z</time>
      </trkpt>
      <trkpt lat="44.47734" lon="6.85219">
        <ele>2439.8</ele>
        <time>2022-08-16T08:26:31Z</time>
      </trkpt>
      <trkpt lat="44.47734" lon="6.85218">
        <ele>2439.8</ele>
        <time>2022-08-16T08:26:32Z</time>
      </trkpt>
      <trkpt lat="44.47734" lon="6.85216">
        <ele>2440</ele>
        <time>2022-08-16T08:26:33Z</time>
      </trkpt>
      <trkpt lat="44.47734" lon="6.85215">
        <ele>2440</ele>
        <time>2022-08-16T08:26:34Z</time>
      </trkpt>
      <trkpt lat="44.47734" lon="6.85213">
        <ele>2440.2</ele>
        <time>2022-08-16T08:26:35Z</time>
      </trkpt>
      <trkpt lat="44.47734" lon="6.85211">
        <ele>2440.4</ele>
        <time>2022-08-16T08:26:36Z</time>
      </trkpt>
      <trkpt lat="44.47734" lon="6.8521">
        <ele>2440.6</ele>
        <time>2022-08-16T08:26:37Z</time>
      </trkpt>
      <trkpt lat="44.47734" lon="6.85208">
        <ele>2440.6</ele>
        <time>2022-08-16T08:26:38Z</time>
      </trkpt>
      <trkpt lat="44.47734" lon="6.85207">
        <ele>2440.6</ele>
        <time>2022-08-16T08:26:39Z</time>
      </trkpt>
      <trkpt lat="44.47734" lon="6.85205">
        <ele>2441</ele>
        <time>2022-08-16T08:26:40Z</time>
      </trkpt>
      <trkpt lat="44.47734" lon="6.85204">
        <ele>2441</ele>
        <time>2022-08-16T08:26:41Z</time>
      </trkpt>
      <trkpt lat="44.47735" lon="6.85203">
        <ele>2441.2</ele>
        <time>2022-08-16T08:26:42Z</time>
      </trkpt>
      <trkpt lat="44.47735" lon="6.85201">
        <ele>2441.2</ele>
        <time>2022-08-16T08:26:43Z</time>
      </trkpt>
      <trkpt lat="44.47735" lon="6.85199">
        <ele>2441.4</ele>
        <time>2022-08-16T08:26:44Z</time>
      </trkpt>
      <trkpt lat="44.47735" lon="6.85198">
        <ele>2441.8</ele>
        <time>2022-08-16T08:26:45Z</time>
      </trkpt>
      <trkpt lat="44.47735" lon="6.85196">
        <ele>2442</ele>
        <time>2022-08-16T08:26:46Z</time>
      </trkpt>
      <trkpt lat="44.47735" lon="6.85194">
        <ele>2442.2</ele>
        <time>2022-08-16T08:26:47Z</time>
      </trkpt>
      <trkpt lat="44.47734" lon="6.85192">
        <ele>2442.2</ele>
        <time>2022-08-16T08:26:48Z</time>
      </trkpt>
      <trkpt lat="44.47734" lon="6.85191">
        <ele>2442.4</ele>
        <time>2022-08-16T08:26:49Z</time>
      </trkpt>
      <trkpt lat="44.47734" lon="6.85189">
        <ele>2442.4</ele>
        <time>2022-08-16T08:26:50Z</time>
      </trkpt>
      <trkpt lat="44.47735" lon="6.85188">
        <ele>2442.6</ele>
        <time>2022-08-16T08:26:51Z</time>
      </trkpt>
      <trkpt lat="44.47735" lon="6.85187">
        <ele>2442.6</ele>
        <time>2022-08-16T08:26:52Z</time>
      </trkpt>
      <trkpt lat="44.47735" lon="6.85185">
        <ele>2442.6</ele>
        <time>2022-08-16T08:26:53Z</time>
      </trkpt>
      <trkpt lat="44.47735" lon="6.85183">
        <ele>2442.8</ele>
        <time>2022-08-16T08:26:54Z</time>
      </trkpt>
      <trkpt lat="44.47735" lon="6.85182">
        <ele>2442.8</ele>
        <time>2022-08-16T08:26:55Z</time>
      </trkpt>
      <trkpt lat="44.47735" lon="6.8518">
        <ele>2443</ele>
        <time>2022-08-16T08:26:56Z</time>
      </trkpt>
      <trkpt lat="44.47735" lon="6.85178">
        <ele>2443.2</ele>
        <time>2022-08-16T08:26:57Z</time>
      </trkpt>
      <trkpt lat="44.47735" lon="6.85177">
        <ele>2443.6</ele>
        <time>2022-08-16T08:26:58Z</time>
      </trkpt>
      <trkpt lat="44.47734" lon="6.85175">
        <ele>2443.6</ele>
        <time>2022-08-16T08:26:59Z</time>
      </trkpt>
      <trkpt lat="44.47734" lon="6.85174">
        <ele>2443.8</ele>
        <time>2022-08-16T08:27:00Z</time>
      </trkpt>
      <trkpt lat="44.47734" lon="6.85172">
        <ele>2444</ele>
        <time>2022-08-16T08:27:01Z</time>
      </trkpt>
      <trkpt lat="44.47733" lon="6.85171">
        <ele>2444</ele>
        <time>2022-08-16T08:27:02Z</time>
      </trkpt>
      <trkpt lat="44.47733" lon="6.85169">
        <ele>2444.4</ele>
        <time>2022-08-16T08:27:03Z</time>
      </trkpt>
      <trkpt lat="44.47732" lon="6.85167">
        <ele>2444.6</ele>
        <time>2022-08-16T08:27:04Z</time>
      </trkpt>
      <trkpt lat="44.47732" lon="6.85165">
        <ele>2444.8</ele>
        <time>2022-08-16T08:27:05Z</time>
      </trkpt>
      <trkpt lat="44.47732" lon="6.85164">
        <ele>2445.2</ele>
        <time>2022-08-16T08:27:06Z</time>
      </trkpt>
      <trkpt lat="44.47732" lon="6.85162">
        <ele>2445.2</ele>
        <time>2022-08-16T08:27:07Z</time>
      </trkpt>
      <trkpt lat="44.47732" lon="6.8516">
        <ele>2445.4</ele>
        <time>2022-08-16T08:27:08Z</time>
      </trkpt>
      <trkpt lat="44.47731" lon="6.85159">
        <ele>2445.6</ele>
        <time>2022-08-16T08:27:09Z</time>
      </trkpt>
      <trkpt lat="44.4773" lon="6.85157">
        <ele>2446</ele>
        <time>2022-08-16T08:27:10Z</time>
      </trkpt>
      <trkpt lat="44.47729" lon="6.85157">
        <ele>2446</ele>
        <time>2022-08-16T08:27:11Z</time>
      </trkpt>
      <trkpt lat="44.47727" lon="6.85156">
        <ele>2446.2</ele>
        <time>2022-08-16T08:27:12Z</time>
      </trkpt>
      <trkpt lat="44.47726" lon="6.85157">
        <ele>2446.2</ele>
        <time>2022-08-16T08:27:13Z</time>
      </trkpt>
      <trkpt lat="44.47726" lon="6.85158">
        <ele>2446.2</ele>
        <time>2022-08-16T08:27:14Z</time>
      </trkpt>
      <trkpt lat="44.47725" lon="6.8516">
        <ele>2446.2</ele>
        <time>2022-08-16T08:27:15Z</time>
      </trkpt>
      <trkpt lat="44.47724" lon="6.85161">
        <ele>2446.2</ele>
        <time>2022-08-16T08:27:16Z</time>
      </trkpt>
      <trkpt lat="44.47724" lon="6.85162">
        <ele>2446.4</ele>
        <time>2022-08-16T08:27:17Z</time>
      </trkpt>
      <trkpt lat="44.47724" lon="6.85164">
        <ele>2446.6</ele>
        <time>2022-08-16T08:27:18Z</time>
      </trkpt>
      <trkpt lat="44.47724" lon="6.85165">
        <ele>2446.6</ele>
        <time>2022-08-16T08:27:19Z</time>
      </trkpt>
      <trkpt lat="44.47724" lon="6.85167">
        <ele>2446.8</ele>
        <time>2022-08-16T08:27:20Z</time>
      </trkpt>
      <trkpt lat="44.47724" lon="6.85168">
        <ele>2446.8</ele>
        <time>2022-08-16T08:27:21Z</time>
      </trkpt>
      <trkpt lat="44.47724" lon="6.8517">
        <ele>2447.2</ele>
        <time>2022-08-16T08:27:22Z</time>
      </trkpt>
      <trkpt lat="44.47724" lon="6.85172">
        <ele>2447.2</ele>
        <time>2022-08-16T08:27:23Z</time>
      </trkpt>
      <trkpt lat="44.47724" lon="6.85173">
        <ele>2447.6</ele>
        <time>2022-08-16T08:27:24Z</time>
      </trkpt>
      <trkpt lat="44.47724" lon="6.85175">
        <ele>2447.6</ele>
        <time>2022-08-16T08:27:25Z</time>
      </trkpt>
      <trkpt lat="44.47724" lon="6.85177">
        <ele>2448</ele>
        <time>2022-08-16T08:27:26Z</time>
      </trkpt>
      <trkpt lat="44.47723" lon="6.85178">
        <ele>2448</ele>
        <time>2022-08-16T08:27:27Z</time>
      </trkpt>
      <trkpt lat="44.47723" lon="6.8518">
        <ele>2448.2</ele>
        <time>2022-08-16T08:27:28Z</time>
      </trkpt>
      <trkpt lat="44.47722" lon="6.85181">
        <ele>2448.2</ele>
        <time>2022-08-16T08:27:29Z</time>
      </trkpt>
      <trkpt lat="44.47722" lon="6.85182">
        <ele>2448.6</ele>
        <time>2022-08-16T08:27:30Z</time>
      </trkpt>
      <trkpt lat="44.47721" lon="6.85183">
        <ele>2448.6</ele>
        <time>2022-08-16T08:27:31Z</time>
      </trkpt>
      <trkpt lat="44.47721" lon="6.85185">
        <ele>2448.8</ele>
        <time>2022-08-16T08:27:32Z</time>
      </trkpt>
      <trkpt lat="44.4772" lon="6.85186">
        <ele>2448.8</ele>
        <time>2022-08-16T08:27:33Z</time>
      </trkpt>
      <trkpt lat="44.4772" lon="6.85188">
        <ele>2449</ele>
        <time>2022-08-16T08:27:34Z</time>
      </trkpt>
      <trkpt lat="44.47719" lon="6.85189">
        <ele>2449.2</ele>
        <time>2022-08-16T08:27:35Z</time>
      </trkpt>
      <trkpt lat="44.47719" lon="6.85191">
        <ele>2449.2</ele>
        <time>2022-08-16T08:27:36Z</time>
      </trkpt>
      <trkpt lat="44.47718" lon="6.85192">
        <ele>2449.2</ele>
        <time>2022-08-16T08:27:37Z</time>
      </trkpt>
      <trkpt lat="44.47718" lon="6.85194">
        <ele>2449.4</ele>
        <time>2022-08-16T08:27:38Z</time>
      </trkpt>
      <trkpt lat="44.47717" lon="6.85195">
        <ele>2449.4</ele>
        <time>2022-08-16T08:27:39Z</time>
      </trkpt>
      <trkpt lat="44.47717" lon="6.85196">
        <ele>2449.6</ele>
        <time>2022-08-16T08:27:40Z</time>
      </trkpt>
      <trkpt lat="44.47716" lon="6.85198">
        <ele>2449.6</ele>
        <time>2022-08-16T08:27:41Z</time>
      </trkpt>
      <trkpt lat="44.47715" lon="6.85199">
        <ele>2450</ele>
        <time>2022-08-16T08:27:42Z</time>
      </trkpt>
      <trkpt lat="44.47715" lon="6.85201">
        <ele>2450</ele>
        <time>2022-08-16T08:27:43Z</time>
      </trkpt>
      <trkpt lat="44.47714" lon="6.85202">
        <ele>2450.2</ele>
        <time>2022-08-16T08:27:44Z</time>
      </trkpt>
      <trkpt lat="44.47714" lon="6.85204">
        <ele>2450.2</ele>
        <time>2022-08-16T08:27:45Z</time>
      </trkpt>
      <trkpt lat="44.47713" lon="6.85205">
        <ele>2450.6</ele>
        <time>2022-08-16T08:27:46Z</time>
      </trkpt>
      <trkpt lat="44.47712" lon="6.85207">
        <ele>2450.8</ele>
        <time>2022-08-16T08:27:47Z</time>
      </trkpt>
      <trkpt lat="44.47712" lon="6.85208">
        <ele>2451.2</ele>
        <time>2022-08-16T08:27:48Z</time>
      </trkpt>
      <trkpt lat="44.47711" lon="6.8521">
        <ele>2451.2</ele>
        <time>2022-08-16T08:27:49Z</time>
      </trkpt>
      <trkpt lat="44.4771" lon="6.85211">
        <ele>2451.4</ele>
        <time>2022-08-16T08:27:50Z</time>
      </trkpt>
      <trkpt lat="44.4771" lon="6.85213">
        <ele>2451.6</ele>
        <time>2022-08-16T08:27:51Z</time>
      </trkpt>
      <trkpt lat="44.47709" lon="6.85214">
        <ele>2451.6</ele>
        <time>2022-08-16T08:27:52Z</time>
      </trkpt>
      <trkpt lat="44.47709" lon="6.85216">
        <ele>2451.8</ele>
        <time>2022-08-16T08:27:53Z</time>
      </trkpt>
      <trkpt lat="44.47708" lon="6.85218">
        <ele>2452</ele>
        <time>2022-08-16T08:27:54Z</time>
      </trkpt>
      <trkpt lat="44.47707" lon="6.85219">
        <ele>2452.2</ele>
        <time>2022-08-16T08:27:55Z</time>
      </trkpt>
      <trkpt lat="44.47707" lon="6.8522">
        <ele>2452.4</ele>
        <time>2022-08-16T08:27:56Z</time>
      </trkpt>
      <trkpt lat="44.47706" lon="6.85222">
        <ele>2452.6</ele>
        <time>2022-08-16T08:27:57Z</time>
      </trkpt>
      <trkpt lat="44.47706" lon="6.85223">
        <ele>2452.6</ele>
        <time>2022-08-16T08:27:58Z</time>
      </trkpt>
      <trkpt lat="44.47705" lon="6.85225">
        <ele>2452.8</ele>
        <time>2022-08-16T08:27:59Z</time>
      </trkpt>
      <trkpt lat="44.47704" lon="6.85226">
        <ele>2452.8</ele>
        <time>2022-08-16T08:28:00Z</time>
      </trkpt>
      <trkpt lat="44.47704" lon="6.85228">
        <ele>2453</ele>
        <time>2022-08-16T08:28:01Z</time>
      </trkpt>
      <trkpt lat="44.47703" lon="6.85229">
        <ele>2453.2</ele>
        <time>2022-08-16T08:28:02Z</time>
      </trkpt>
      <trkpt lat="44.47703" lon="6.8523">
        <ele>2453.2</ele>
        <time>2022-08-16T08:28:03Z</time>
      </trkpt>
      <trkpt lat="44.47702" lon="6.85232">
        <ele>2453.4</ele>
        <time>2022-08-16T08:28:04Z</time>
      </trkpt>
      <trkpt lat="44.47702" lon="6.85233">
        <ele>2453.4</ele>
        <time>2022-08-16T08:28:05Z</time>
      </trkpt>
      <trkpt lat="44.47701" lon="6.85235">
        <ele>2453.8</ele>
        <time>2022-08-16T08:28:06Z</time>
      </trkpt>
      <trkpt lat="44.477" lon="6.85236">
        <ele>2453.8</ele>
        <time>2022-08-16T08:28:07Z</time>
      </trkpt>
      <trkpt lat="44.477" lon="6.85237">
        <ele>2454.2</ele>
        <time>2022-08-16T08:28:08Z</time>
      </trkpt>
      <trkpt lat="44.47699" lon="6.85239">
        <ele>2454.2</ele>
        <time>2022-08-16T08:28:09Z</time>
      </trkpt>
      <trkpt lat="44.47699" lon="6.8524">
        <ele>2454.2</ele>
        <time>2022-08-16T08:28:10Z</time>
      </trkpt>
      <trkpt lat="44.47698" lon="6.85242">
        <ele>2454.4</ele>
        <time>2022-08-16T08:28:11Z</time>
      </trkpt>
      <trkpt lat="44.47698" lon="6.85243">
        <ele>2454.4</ele>
        <time>2022-08-16T08:28:12Z</time>
      </trkpt>
      <trkpt lat="44.47697" lon="6.85244">
        <ele>2454.6</ele>
        <time>2022-08-16T08:28:13Z</time>
      </trkpt>
      <trkpt lat="44.47696" lon="6.85246">
        <ele>2455</ele>
        <time>2022-08-16T08:28:14Z</time>
      </trkpt>
      <trkpt lat="44.47696" lon="6.85247">
        <ele>2454.8</ele>
        <time>2022-08-16T08:28:15Z</time>
      </trkpt>
      <trkpt lat="44.47695" lon="6.85248">
        <ele>2455</ele>
        <time>2022-08-16T08:28:16Z</time>
      </trkpt>
      <trkpt lat="44.47694" lon="6.85249">
        <ele>2455.2</ele>
        <time>2022-08-16T08:28:17Z</time>
      </trkpt>
      <trkpt lat="44.47693" lon="6.85251">
        <ele>2455.4</ele>
        <time>2022-08-16T08:28:18Z</time>
      </trkpt>
      <trkpt lat="44.47692" lon="6.85252">
        <ele>2455.6</ele>
        <time>2022-08-16T08:28:19Z</time>
      </trkpt>
      <trkpt lat="44.47692" lon="6.85253">
        <ele>2455.6</ele>
        <time>2022-08-16T08:28:20Z</time>
      </trkpt>
      <trkpt lat="44.47691" lon="6.85255">
        <ele>2455.8</ele>
        <time>2022-08-16T08:28:21Z</time>
      </trkpt>
      <trkpt lat="44.47691" lon="6.85256">
        <ele>2456</ele>
        <time>2022-08-16T08:28:22Z</time>
      </trkpt>
      <trkpt lat="44.4769" lon="6.85257">
        <ele>2456</ele>
        <time>2022-08-16T08:28:23Z</time>
      </trkpt>
      <trkpt lat="44.47689" lon="6.85259">
        <ele>2456.4</ele>
        <time>2022-08-16T08:28:24Z</time>
      </trkpt>
      <trkpt lat="44.47688" lon="6.8526">
        <ele>2456.4</ele>
        <time>2022-08-16T08:28:25Z</time>
      </trkpt>
      <trkpt lat="44.47687" lon="6.85262">
        <ele>2456.4</ele>
        <time>2022-08-16T08:28:26Z</time>
      </trkpt>
      <trkpt lat="44.47687" lon="6.85263">
        <ele>2456.8</ele>
        <time>2022-08-16T08:28:27Z</time>
      </trkpt>
      <trkpt lat="44.47687" lon="6.85265">
        <ele>2456.8</ele>
        <time>2022-08-16T08:28:28Z</time>
      </trkpt>
      <trkpt lat="44.47686" lon="6.85266">
        <ele>2457</ele>
        <time>2022-08-16T08:28:29Z</time>
      </trkpt>
      <trkpt lat="44.47685" lon="6.85267">
        <ele>2457.2</ele>
        <time>2022-08-16T08:28:30Z</time>
      </trkpt>
      <trkpt lat="44.47685" lon="6.85269">
        <ele>2457.4</ele>
        <time>2022-08-16T08:28:31Z</time>
      </trkpt>
      <trkpt lat="44.47684" lon="6.8527">
        <ele>2457.8</ele>
        <time>2022-08-16T08:28:32Z</time>
      </trkpt>
      <trkpt lat="44.47684" lon="6.85272">
        <ele>2457.8</ele>
        <time>2022-08-16T08:28:33Z</time>
      </trkpt>
      <trkpt lat="44.47684" lon="6.85273">
        <ele>2458</ele>
        <time>2022-08-16T08:28:34Z</time>
      </trkpt>
      <trkpt lat="44.47683" lon="6.85274">
        <ele>2458</ele>
        <time>2022-08-16T08:28:35Z</time>
      </trkpt>
      <trkpt lat="44.47682" lon="6.85275">
        <ele>2458.2</ele>
        <time>2022-08-16T08:28:36Z</time>
      </trkpt>
      <trkpt lat="44.47682" lon="6.85276">
        <ele>2458.2</ele>
        <time>2022-08-16T08:28:37Z</time>
      </trkpt>
      <trkpt lat="44.47681" lon="6.85277">
        <ele>2458.4</ele>
        <time>2022-08-16T08:28:38Z</time>
      </trkpt>
      <trkpt lat="44.4768" lon="6.85279">
        <ele>2458.6</ele>
        <time>2022-08-16T08:28:39Z</time>
      </trkpt>
      <trkpt lat="44.4768" lon="6.8528">
        <ele>2458.6</ele>
        <time>2022-08-16T08:28:40Z</time>
      </trkpt>
      <trkpt lat="44.47679" lon="6.85281">
        <ele>2458.8</ele>
        <time>2022-08-16T08:28:41Z</time>
      </trkpt>
      <trkpt lat="44.47678" lon="6.85282">
        <ele>2459</ele>
        <time>2022-08-16T08:28:42Z</time>
      </trkpt>
      <trkpt lat="44.47678" lon="6.85283">
        <ele>2459</ele>
        <time>2022-08-16T08:28:43Z</time>
      </trkpt>
      <trkpt lat="44.47677" lon="6.85284">
        <ele>2459.4</ele>
        <time>2022-08-16T08:28:44Z</time>
      </trkpt>
      <trkpt lat="44.47676" lon="6.85285">
        <ele>2459.4</ele>
        <time>2022-08-16T08:28:45Z</time>
      </trkpt>
      <trkpt lat="44.47675" lon="6.85286">
        <ele>2459.6</ele>
        <time>2022-08-16T08:28:46Z</time>
      </trkpt>
      <trkpt lat="44.47674" lon="6.85287">
        <ele>2459.8</ele>
        <time>2022-08-16T08:28:47Z</time>
      </trkpt>
      <trkpt lat="44.47673" lon="6.85288">
        <ele>2459.8</ele>
        <time>2022-08-16T08:28:48Z</time>
      </trkpt>
      <trkpt lat="44.47673" lon="6.85288">
        <ele>2460</ele>
        <time>2022-08-16T08:28:49Z</time>
      </trkpt>
      <trkpt lat="44.47672" lon="6.85289">
        <ele>2460.4</ele>
        <time>2022-08-16T08:28:50Z</time>
      </trkpt>
      <trkpt lat="44.47671" lon="6.8529">
        <ele>2460.6</ele>
        <time>2022-08-16T08:28:51Z</time>
      </trkpt>
      <trkpt lat="44.4767" lon="6.8529">
        <ele>2461</ele>
        <time>2022-08-16T08:28:52Z</time>
      </trkpt>
      <trkpt lat="44.47668" lon="6.85291">
        <ele>2461</ele>
        <time>2022-08-16T08:28:53Z</time>
      </trkpt>
      <trkpt lat="44.47667" lon="6.85291">
        <ele>2461.2</ele>
        <time>2022-08-16T08:28:54Z</time>
      </trkpt>
      <trkpt lat="44.47666" lon="6.85292">
        <ele>2461.4</ele>
        <time>2022-08-16T08:28:55Z</time>
      </trkpt>
      <trkpt lat="44.47665" lon="6.85292">
        <ele>2461.4</ele>
        <time>2022-08-16T08:28:56Z</time>
      </trkpt>
      <trkpt lat="44.47664" lon="6.85292">
        <ele>2461.6</ele>
        <time>2022-08-16T08:28:57Z</time>
      </trkpt>
      <trkpt lat="44.47663" lon="6.85293">
        <ele>2461.8</ele>
        <time>2022-08-16T08:28:58Z</time>
      </trkpt>
      <trkpt lat="44.47662" lon="6.85294">
        <ele>2461.8</ele>
        <time>2022-08-16T08:28:59Z</time>
      </trkpt>
      <trkpt lat="44.47661" lon="6.85295">
        <ele>2462.2</ele>
        <time>2022-08-16T08:29:00Z</time>
      </trkpt>
      <trkpt lat="44.4766" lon="6.85296">
        <ele>2462.4</ele>
        <time>2022-08-16T08:29:01Z</time>
      </trkpt>
      <trkpt lat="44.4766" lon="6.85297">
        <ele>2462.4</ele>
        <time>2022-08-16T08:29:02Z</time>
      </trkpt>
      <trkpt lat="44.47659" lon="6.85298">
        <ele>2462.6</ele>
        <time>2022-08-16T08:29:03Z</time>
      </trkpt>
      <trkpt lat="44.47658" lon="6.85298">
        <ele>2462.6</ele>
        <time>2022-08-16T08:29:04Z</time>
      </trkpt>
      <trkpt lat="44.47657" lon="6.85299">
        <ele>2462.8</ele>
        <time>2022-08-16T08:29:05Z</time>
      </trkpt>
      <trkpt lat="44.47656" lon="6.853">
        <ele>2462.8</ele>
        <time>2022-08-16T08:29:06Z</time>
      </trkpt>
      <trkpt lat="44.47655" lon="6.85301">
        <ele>2462.8</ele>
        <time>2022-08-16T08:29:07Z</time>
      </trkpt>
      <trkpt lat="44.47654" lon="6.85302">
        <ele>2462.8</ele>
        <time>2022-08-16T08:29:08Z</time>
      </trkpt>
      <trkpt lat="44.47653" lon="6.85303">
        <ele>2462.8</ele>
        <time>2022-08-16T08:29:09Z</time>
      </trkpt>
      <trkpt lat="44.47652" lon="6.85304">
        <ele>2463.2</ele>
        <time>2022-08-16T08:29:10Z</time>
      </trkpt>
      <trkpt lat="44.47651" lon="6.85305">
        <ele>2463</ele>
        <time>2022-08-16T08:29:11Z</time>
      </trkpt>
      <trkpt lat="44.4765" lon="6.85306">
        <ele>2463.2</ele>
        <time>2022-08-16T08:29:12Z</time>
      </trkpt>
      <trkpt lat="44.4765" lon="6.85307">
        <ele>2463.4</ele>
        <time>2022-08-16T08:29:13Z</time>
      </trkpt>
      <trkpt lat="44.47649" lon="6.85309">
        <ele>2463.6</ele>
        <time>2022-08-16T08:29:14Z</time>
      </trkpt>
      <trkpt lat="44.47648" lon="6.8531">
        <ele>2463.6</ele>
        <time>2022-08-16T08:29:15Z</time>
      </trkpt>
      <trkpt lat="44.47647" lon="6.85311">
        <ele>2464</ele>
        <time>2022-08-16T08:29:16Z</time>
      </trkpt>
      <trkpt lat="44.47647" lon="6.85313">
        <ele>2464.2</ele>
        <time>2022-08-16T08:29:17Z</time>
      </trkpt>
      <trkpt lat="44.47646" lon="6.85314">
        <ele>2464.2</ele>
        <time>2022-08-16T08:29:18Z</time>
      </trkpt>
      <trkpt lat="44.47645" lon="6.85315">
        <ele>2464.4</ele>
        <time>2022-08-16T08:29:19Z</time>
      </trkpt>
      <trkpt lat="44.47645" lon="6.85317">
        <ele>2464.4</ele>
        <time>2022-08-16T08:29:20Z</time>
      </trkpt>
      <trkpt lat="44.47644" lon="6.85318">
        <ele>2464.4</ele>
        <time>2022-08-16T08:29:21Z</time>
      </trkpt>
      <trkpt lat="44.47643" lon="6.85318">
        <ele>2464.4</ele>
        <time>2022-08-16T08:29:22Z</time>
      </trkpt>
      <trkpt lat="44.47642" lon="6.8532">
        <ele>2464.6</ele>
        <time>2022-08-16T08:29:23Z</time>
      </trkpt>
      <trkpt lat="44.47641" lon="6.8532">
        <ele>2464.8</ele>
        <time>2022-08-16T08:29:24Z</time>
      </trkpt>
      <trkpt lat="44.4764" lon="6.85321">
        <ele>2465</ele>
        <time>2022-08-16T08:29:25Z</time>
      </trkpt>
      <trkpt lat="44.47639" lon="6.85322">
        <ele>2465</ele>
        <time>2022-08-16T08:29:26Z</time>
      </trkpt>
      <trkpt lat="44.47638" lon="6.85324">
        <ele>2465</ele>
        <time>2022-08-16T08:29:27Z</time>
      </trkpt>
      <trkpt lat="44.47638" lon="6.85325">
        <ele>2465.4</ele>
        <time>2022-08-16T08:29:28Z</time>
      </trkpt>
      <trkpt lat="44.47638" lon="6.85327">
        <ele>2465.6</ele>
        <time>2022-08-16T08:29:29Z</time>
      </trkpt>
      <trkpt lat="44.47637" lon="6.85328">
        <ele>2465.6</ele>
        <time>2022-08-16T08:29:30Z</time>
      </trkpt>
      <trkpt lat="44.47637" lon="6.85329">
        <ele>2465.8</ele>
        <time>2022-08-16T08:29:31Z</time>
      </trkpt>
      <trkpt lat="44.47636" lon="6.8533">
        <ele>2466</ele>
        <time>2022-08-16T08:29:32Z</time>
      </trkpt>
      <trkpt lat="44.47635" lon="6.85331">
        <ele>2466</ele>
        <time>2022-08-16T08:29:33Z</time>
      </trkpt>
      <trkpt lat="44.47633" lon="6.85331">
        <ele>2466</ele>
        <time>2022-08-16T08:29:34Z</time>
      </trkpt>
      <trkpt lat="44.47632" lon="6.85331">
        <ele>2466.2</ele>
        <time>2022-08-16T08:29:35Z</time>
      </trkpt>
      <trkpt lat="44.47631" lon="6.85331">
        <ele>2466.2</ele>
        <time>2022-08-16T08:29:36Z</time>
      </trkpt>
      <trkpt lat="44.4763" lon="6.85331">
        <ele>2466.4</ele>
        <time>2022-08-16T08:29:37Z</time>
      </trkpt>
      <trkpt lat="44.47629" lon="6.85331">
        <ele>2466.6</ele>
        <time>2022-08-16T08:29:38Z</time>
      </trkpt>
      <trkpt lat="44.47628" lon="6.8533">
        <ele>2466.6</ele>
        <time>2022-08-16T08:29:39Z</time>
      </trkpt>
      <trkpt lat="44.47627" lon="6.8533">
        <ele>2466.8</ele>
        <time>2022-08-16T08:29:40Z</time>
      </trkpt>
      <trkpt lat="44.47626" lon="6.8533">
        <ele>2466.8</ele>
        <time>2022-08-16T08:29:41Z</time>
      </trkpt>
      <trkpt lat="44.47625" lon="6.85329">
        <ele>2467</ele>
        <time>2022-08-16T08:29:42Z</time>
      </trkpt>
      <trkpt lat="44.47624" lon="6.85328">
        <ele>2467</ele>
        <time>2022-08-16T08:29:43Z</time>
      </trkpt>
      <trkpt lat="44.47624" lon="6.85327">
        <ele>2467.2</ele>
        <time>2022-08-16T08:29:44Z</time>
      </trkpt>
      <trkpt lat="44.47623" lon="6.85326">
        <ele>2467.4</ele>
        <time>2022-08-16T08:29:45Z</time>
      </trkpt>
      <trkpt lat="44.47622" lon="6.85325">
        <ele>2467.6</ele>
        <time>2022-08-16T08:29:46Z</time>
      </trkpt>
      <trkpt lat="44.47622" lon="6.85324">
        <ele>2467.6</ele>
        <time>2022-08-16T08:29:47Z</time>
      </trkpt>
      <trkpt lat="44.47621" lon="6.85323">
        <ele>2467.8</ele>
        <time>2022-08-16T08:29:48Z</time>
      </trkpt>
      <trkpt lat="44.4762" lon="6.85322">
        <ele>2468.2</ele>
        <time>2022-08-16T08:29:49Z</time>
      </trkpt>
      <trkpt lat="44.47619" lon="6.85321">
        <ele>2468</ele>
        <time>2022-08-16T08:29:50Z</time>
      </trkpt>
      <trkpt lat="44.47618" lon="6.8532">
        <ele>2468.4</ele>
        <time>2022-08-16T08:29:51Z</time>
      </trkpt>
      <trkpt lat="44.47617" lon="6.85319">
        <ele>2468.4</ele>
        <time>2022-08-16T08:29:52Z</time>
      </trkpt>
      <trkpt lat="44.47617" lon="6.85318">
        <ele>2468.4</ele>
        <time>2022-08-16T08:29:53Z</time>
      </trkpt>
      <trkpt lat="44.47616" lon="6.85318">
        <ele>2468.6</ele>
        <time>2022-08-16T08:29:54Z</time>
      </trkpt>
      <trkpt lat="44.47615" lon="6.85317">
        <ele>2468.8</ele>
        <time>2022-08-16T08:29:55Z</time>
      </trkpt>
      <trkpt lat="44.47614" lon="6.85316">
        <ele>2469</ele>
        <time>2022-08-16T08:29:56Z</time>
      </trkpt>
      <trkpt lat="44.47613" lon="6.85315">
        <ele>2469</ele>
        <time>2022-08-16T08:29:57Z</time>
      </trkpt>
      <trkpt lat="44.47612" lon="6.85314">
        <ele>2469</ele>
        <time>2022-08-16T08:29:58Z</time>
      </trkpt>
      <trkpt lat="44.47612" lon="6.85313">
        <ele>2469.4</ele>
        <time>2022-08-16T08:29:59Z</time>
      </trkpt>
      <trkpt lat="44.47611" lon="6.85312">
        <ele>2469.6</ele>
        <time>2022-08-16T08:30:00Z</time>
      </trkpt>
      <trkpt lat="44.4761" lon="6.85312">
        <ele>2469.8</ele>
        <time>2022-08-16T08:30:01Z</time>
      </trkpt>
      <trkpt lat="44.47609" lon="6.85311">
        <ele>2470</ele>
        <time>2022-08-16T08:30:02Z</time>
      </trkpt>
      <trkpt lat="44.47608" lon="6.8531">
        <ele>2470.2</ele>
        <time>2022-08-16T08:30:03Z</time>
      </trkpt>
      <trkpt lat="44.47607" lon="6.8531">
        <ele>2470.4</ele>
        <time>2022-08-16T08:30:04Z</time>
      </trkpt>
      <trkpt lat="44.47606" lon="6.85309">
        <ele>2470.4</ele>
        <time>2022-08-16T08:30:05Z</time>
      </trkpt>
      <trkpt lat="44.47605" lon="6.85308">
        <ele>2470.6</ele>
        <time>2022-08-16T08:30:06Z</time>
      </trkpt>
      <trkpt lat="44.47605" lon="6.85307">
        <ele>2470.8</ele>
        <time>2022-08-16T08:30:07Z</time>
      </trkpt>
      <trkpt lat="44.47604" lon="6.85306">
        <ele>2470.8</ele>
        <time>2022-08-16T08:30:08Z</time>
      </trkpt>
      <trkpt lat="44.47603" lon="6.85305">
        <ele>2470.8</ele>
        <time>2022-08-16T08:30:09Z</time>
      </trkpt>
      <trkpt lat="44.47602" lon="6.85304">
        <ele>2471</ele>
        <time>2022-08-16T08:30:10Z</time>
      </trkpt>
      <trkpt lat="44.47601" lon="6.85303">
        <ele>2471.2</ele>
        <time>2022-08-16T08:30:11Z</time>
      </trkpt>
      <trkpt lat="44.47601" lon="6.85302">
        <ele>2471.4</ele>
        <time>2022-08-16T08:30:12Z</time>
      </trkpt>
      <trkpt lat="44.476" lon="6.85301">
        <ele>2471.4</ele>
        <time>2022-08-16T08:30:13Z</time>
      </trkpt>
      <trkpt lat="44.47599" lon="6.853">
        <ele>2471.6</ele>
        <time>2022-08-16T08:30:14Z</time>
      </trkpt>
      <trkpt lat="44.47599" lon="6.85299">
        <ele>2471.8</ele>
        <time>2022-08-16T08:30:16Z</time>
      </trkpt>
      <trkpt lat="44.47597" lon="6.85299">
        <ele>2473.4</ele>
        <time>2022-08-16T08:30:29Z</time>
      </trkpt>
      <trkpt lat="44.47597" lon="6.85299">
        <ele>2473.4</ele>
        <time>2022-08-16T08:30:32Z</time>
      </trkpt>
      <trkpt lat="44.47597" lon="6.85297">
        <ele>2473.4</ele>
        <time>2022-08-16T08:30:34Z</time>
      </trkpt>
      <trkpt lat="44.47596" lon="6.85296">
        <ele>2473.4</ele>
        <time>2022-08-16T08:30:35Z</time>
      </trkpt>
      <trkpt lat="44.47595" lon="6.85295">
        <ele>2473.4</ele>
        <time>2022-08-16T08:30:36Z</time>
      </trkpt>
      <trkpt lat="44.47592" lon="6.85286">
        <ele>2473.6</ele>
        <time>2022-08-16T08:30:41Z</time>
      </trkpt>
      <trkpt lat="44.47592" lon="6.85285">
        <ele>2473.6</ele>
        <time>2022-08-16T08:30:42Z</time>
      </trkpt>
      <trkpt lat="44.47592" lon="6.85283">
        <ele>2473.6</ele>
        <time>2022-08-16T08:30:43Z</time>
      </trkpt>
      <trkpt lat="44.47592" lon="6.85281">
        <ele>2473.6</ele>
        <time>2022-08-16T08:30:44Z</time>
      </trkpt>
      <trkpt lat="44.47592" lon="6.85277">
        <ele>2473.8</ele>
        <time>2022-08-16T08:30:46Z</time>
      </trkpt>
      <trkpt lat="44.47591" lon="6.85274">
        <ele>2474</ele>
        <time>2022-08-16T08:30:48Z</time>
      </trkpt>
      <trkpt lat="44.47591" lon="6.85272">
        <ele>2474</ele>
        <time>2022-08-16T08:30:50Z</time>
      </trkpt>
      <trkpt lat="44.47592" lon="6.85272">
        <ele>2475.2</ele>
        <time>2022-08-16T08:31:00Z</time>
      </trkpt>
      <trkpt lat="44.47594" lon="6.85271">
        <ele>2475.4</ele>
        <time>2022-08-16T08:31:12Z</time>
      </trkpt>
      <trkpt lat="44.47594" lon="6.85271">
        <ele>2475.4</ele>
        <time>2022-08-16T08:31:21Z</time>
      </trkpt>
      <trkpt lat="44.47594" lon="6.8527">
        <ele>2475.6</ele>
        <time>2022-08-16T08:31:31Z</time>
      </trkpt>
      <trkpt lat="44.47596" lon="6.85268">
        <ele>2475.4</ele>
        <time>2022-08-16T08:31:40Z</time>
      </trkpt>
      <trkpt lat="44.47596" lon="6.85267">
        <ele>2475.4</ele>
        <time>2022-08-16T08:31:41Z</time>
      </trkpt>
      <trkpt lat="44.47596" lon="6.85266">
        <ele>2475.6</ele>
        <time>2022-08-16T08:31:42Z</time>
      </trkpt>
      <trkpt lat="44.47596" lon="6.85264">
        <ele>2475.4</ele>
        <time>2022-08-16T08:31:43Z</time>
      </trkpt>
      <trkpt lat="44.47596" lon="6.85263">
        <ele>2475.4</ele>
        <time>2022-08-16T08:31:44Z</time>
      </trkpt>
      <trkpt lat="44.47597" lon="6.85258">
        <ele>2475.6</ele>
        <time>2022-08-16T08:31:47Z</time>
      </trkpt>
      <trkpt lat="44.47597" lon="6.85257">
        <ele>2475.6</ele>
        <time>2022-08-16T08:31:48Z</time>
      </trkpt>
      <trkpt lat="44.47597" lon="6.85255">
        <ele>2475.6</ele>
        <time>2022-08-16T08:31:49Z</time>
      </trkpt>
      <trkpt lat="44.47598" lon="6.85249">
        <ele>2476.2</ele>
        <time>2022-08-16T08:31:53Z</time>
      </trkpt>
      <trkpt lat="44.47598" lon="6.85247">
        <ele>2476.2</ele>
        <time>2022-08-16T08:31:54Z</time>
      </trkpt>
      <trkpt lat="44.47598" lon="6.85241">
        <ele>2476.4</ele>
        <time>2022-08-16T08:31:57Z</time>
      </trkpt>
      <trkpt lat="44.47599" lon="6.85239">
        <ele>2476.4</ele>
        <time>2022-08-16T08:31:59Z</time>
      </trkpt>
      <trkpt lat="44.476" lon="6.85237">
        <ele>2476.6</ele>
        <time>2022-08-16T08:32:00Z</time>
      </trkpt>
      <trkpt lat="44.47601" lon="6.85236">
        <ele>2476.8</ele>
        <time>2022-08-16T08:32:01Z</time>
      </trkpt>
      <trkpt lat="44.47601" lon="6.85235">
        <ele>2476.8</ele>
        <time>2022-08-16T08:32:02Z</time>
      </trkpt>
      <trkpt lat="44.47602" lon="6.85233">
        <ele>2477.2</ele>
        <time>2022-08-16T08:32:03Z</time>
      </trkpt>
      <trkpt lat="44.47602" lon="6.85231">
        <ele>2477.6</ele>
        <time>2022-08-16T08:32:04Z</time>
      </trkpt>
      <trkpt lat="44.47603" lon="6.8523">
        <ele>2477.8</ele>
        <time>2022-08-16T08:32:05Z</time>
      </trkpt>
      <trkpt lat="44.47604" lon="6.85229">
        <ele>2477.8</ele>
        <time>2022-08-16T08:32:06Z</time>
      </trkpt>
      <trkpt lat="44.47604" lon="6.85227">
        <ele>2477.8</ele>
        <time>2022-08-16T08:32:07Z</time>
      </trkpt>
      <trkpt lat="44.47604" lon="6.85226">
        <ele>2478</ele>
        <time>2022-08-16T08:32:08Z</time>
      </trkpt>
      <trkpt lat="44.47605" lon="6.85225">
        <ele>2478.2</ele>
        <time>2022-08-16T08:32:09Z</time>
      </trkpt>
      <trkpt lat="44.47605" lon="6.85224">
        <ele>2478.4</ele>
        <time>2022-08-16T08:32:10Z</time>
      </trkpt>
      <trkpt lat="44.47606" lon="6.85222">
        <ele>2478.6</ele>
        <time>2022-08-16T08:32:11Z</time>
      </trkpt>
      <trkpt lat="44.47606" lon="6.85221">
        <ele>2478.6</ele>
        <time>2022-08-16T08:32:12Z</time>
      </trkpt>
      <trkpt lat="44.47607" lon="6.8522">
        <ele>2479</ele>
        <time>2022-08-16T08:32:13Z</time>
      </trkpt>
      <trkpt lat="44.47607" lon="6.85219">
        <ele>2479.2</ele>
        <time>2022-08-16T08:32:14Z</time>
      </trkpt>
      <trkpt lat="44.47608" lon="6.85218">
        <ele>2479.4</ele>
        <time>2022-08-16T08:32:15Z</time>
      </trkpt>
      <trkpt lat="44.47608" lon="6.85216">
        <ele>2479.6</ele>
        <time>2022-08-16T08:32:16Z</time>
      </trkpt>
      <trkpt lat="44.47609" lon="6.85215">
        <ele>2479.6</ele>
        <time>2022-08-16T08:32:17Z</time>
      </trkpt>
      <trkpt lat="44.47609" lon="6.85214">
        <ele>2479.8</ele>
        <time>2022-08-16T08:32:18Z</time>
      </trkpt>
      <trkpt lat="44.4761" lon="6.85213">
        <ele>2480</ele>
        <time>2022-08-16T08:32:19Z</time>
      </trkpt>
      <trkpt lat="44.47611" lon="6.85212">
        <ele>2480.2</ele>
        <time>2022-08-16T08:32:20Z</time>
      </trkpt>
      <trkpt lat="44.47611" lon="6.85211">
        <ele>2480.4</ele>
        <time>2022-08-16T08:32:21Z</time>
      </trkpt>
      <trkpt lat="44.47612" lon="6.85209">
        <ele>2480.4</ele>
        <time>2022-08-16T08:32:22Z</time>
      </trkpt>
      <trkpt lat="44.47613" lon="6.85208">
        <ele>2480.4</ele>
        <time>2022-08-16T08:32:23Z</time>
      </trkpt>
      <trkpt lat="44.47614" lon="6.85207">
        <ele>2480.8</ele>
        <time>2022-08-16T08:32:24Z</time>
      </trkpt>
      <trkpt lat="44.47614" lon="6.85206">
        <ele>2480.8</ele>
        <time>2022-08-16T08:32:25Z</time>
      </trkpt>
      <trkpt lat="44.47615" lon="6.85204">
        <ele>2481</ele>
        <time>2022-08-16T08:32:26Z</time>
      </trkpt>
      <trkpt lat="44.47616" lon="6.85203">
        <ele>2481</ele>
        <time>2022-08-16T08:32:27Z</time>
      </trkpt>
      <trkpt lat="44.47616" lon="6.85202">
        <ele>2481.2</ele>
        <time>2022-08-16T08:32:28Z</time>
      </trkpt>
      <trkpt lat="44.47617" lon="6.85201">
        <ele>2481.2</ele>
        <time>2022-08-16T08:32:29Z</time>
      </trkpt>
      <trkpt lat="44.47618" lon="6.85199">
        <ele>2481.2</ele>
        <time>2022-08-16T08:32:30Z</time>
      </trkpt>
      <trkpt lat="44.47618" lon="6.85198">
        <ele>2481.6</ele>
        <time>2022-08-16T08:32:31Z</time>
      </trkpt>
      <trkpt lat="44.47619" lon="6.85197">
        <ele>2481.6</ele>
        <time>2022-08-16T08:32:32Z</time>
      </trkpt>
      <trkpt lat="44.47619" lon="6.85195">
        <ele>2481.8</ele>
        <time>2022-08-16T08:32:33Z</time>
      </trkpt>
      <trkpt lat="44.4762" lon="6.85194">
        <ele>2482</ele>
        <time>2022-08-16T08:32:34Z</time>
      </trkpt>
      <trkpt lat="44.4762" lon="6.85193">
        <ele>2482.4</ele>
        <time>2022-08-16T08:32:35Z</time>
      </trkpt>
      <trkpt lat="44.4762" lon="6.85192">
        <ele>2482.4</ele>
        <time>2022-08-16T08:32:36Z</time>
      </trkpt>
      <trkpt lat="44.4762" lon="6.8519">
        <ele>2482.6</ele>
        <time>2022-08-16T08:32:37Z</time>
      </trkpt>
      <trkpt lat="44.4762" lon="6.85189">
        <ele>2483</ele>
        <time>2022-08-16T08:32:38Z</time>
      </trkpt>
      <trkpt lat="44.4762" lon="6.85187">
        <ele>2483</ele>
        <time>2022-08-16T08:32:39Z</time>
      </trkpt>
      <trkpt lat="44.4762" lon="6.85186">
        <ele>2483.4</ele>
        <time>2022-08-16T08:32:40Z</time>
      </trkpt>
      <trkpt lat="44.4762" lon="6.85184">
        <ele>2483.4</ele>
        <time>2022-08-16T08:32:41Z</time>
      </trkpt>
      <trkpt lat="44.4762" lon="6.85183">
        <ele>2483.6</ele>
        <time>2022-08-16T08:32:42Z</time>
      </trkpt>
      <trkpt lat="44.4762" lon="6.85181">
        <ele>2483.8</ele>
        <time>2022-08-16T08:32:43Z</time>
      </trkpt>
      <trkpt lat="44.4762" lon="6.8518">
        <ele>2484</ele>
        <time>2022-08-16T08:32:44Z</time>
      </trkpt>
      <trkpt lat="44.47621" lon="6.85179">
        <ele>2484.2</ele>
        <time>2022-08-16T08:32:45Z</time>
      </trkpt>
      <trkpt lat="44.4762" lon="6.85177">
        <ele>2484.4</ele>
        <time>2022-08-16T08:32:46Z</time>
      </trkpt>
      <trkpt lat="44.4762" lon="6.85176">
        <ele>2484.6</ele>
        <time>2022-08-16T08:32:47Z</time>
      </trkpt>
      <trkpt lat="44.4762" lon="6.85174">
        <ele>2484.8</ele>
        <time>2022-08-16T08:32:48Z</time>
      </trkpt>
      <trkpt lat="44.47621" lon="6.85173">
        <ele>2484.8</ele>
        <time>2022-08-16T08:32:49Z</time>
      </trkpt>
      <trkpt lat="44.4762" lon="6.85171">
        <ele>2485</ele>
        <time>2022-08-16T08:32:50Z</time>
      </trkpt>
      <trkpt lat="44.47621" lon="6.8517">
        <ele>2485</ele>
        <time>2022-08-16T08:32:51Z</time>
      </trkpt>
      <trkpt lat="44.47621" lon="6.85169">
        <ele>2484.8</ele>
        <time>2022-08-16T08:32:52Z</time>
      </trkpt>
      <trkpt lat="44.47621" lon="6.85167">
        <ele>2485</ele>
        <time>2022-08-16T08:32:53Z</time>
      </trkpt>
      <trkpt lat="44.47621" lon="6.85166">
        <ele>2485.2</ele>
        <time>2022-08-16T08:32:54Z</time>
      </trkpt>
      <trkpt lat="44.47621" lon="6.85164">
        <ele>2485.4</ele>
        <time>2022-08-16T08:32:55Z</time>
      </trkpt>
      <trkpt lat="44.47621" lon="6.85163">
        <ele>2485.6</ele>
        <time>2022-08-16T08:32:56Z</time>
      </trkpt>
      <trkpt lat="44.47621" lon="6.85162">
        <ele>2485.8</ele>
        <time>2022-08-16T08:32:57Z</time>
      </trkpt>
      <trkpt lat="44.47621" lon="6.8516">
        <ele>2485.8</ele>
        <time>2022-08-16T08:32:58Z</time>
      </trkpt>
      <trkpt lat="44.47621" lon="6.85159">
        <ele>2486.2</ele>
        <time>2022-08-16T08:32:59Z</time>
      </trkpt>
      <trkpt lat="44.47621" lon="6.85157">
        <ele>2486.2</ele>
        <time>2022-08-16T08:33:00Z</time>
      </trkpt>
      <trkpt lat="44.47621" lon="6.85156">
        <ele>2486.4</ele>
        <time>2022-08-16T08:33:01Z</time>
      </trkpt>
      <trkpt lat="44.4762" lon="6.85154">
        <ele>2486.4</ele>
        <time>2022-08-16T08:33:02Z</time>
      </trkpt>
      <trkpt lat="44.4762" lon="6.85153">
        <ele>2486.6</ele>
        <time>2022-08-16T08:33:03Z</time>
      </trkpt>
      <trkpt lat="44.4762" lon="6.85151">
        <ele>2486.8</ele>
        <time>2022-08-16T08:33:04Z</time>
      </trkpt>
      <trkpt lat="44.4762" lon="6.85149">
        <ele>2486.8</ele>
        <time>2022-08-16T08:33:05Z</time>
      </trkpt>
      <trkpt lat="44.4762" lon="6.85148">
        <ele>2487</ele>
        <time>2022-08-16T08:33:06Z</time>
      </trkpt>
      <trkpt lat="44.4762" lon="6.85146">
        <ele>2487.2</ele>
        <time>2022-08-16T08:33:07Z</time>
      </trkpt>
      <trkpt lat="44.4762" lon="6.85145">
        <ele>2487.4</ele>
        <time>2022-08-16T08:33:08Z</time>
      </trkpt>
      <trkpt lat="44.4762" lon="6.85143">
        <ele>2487.2</ele>
        <time>2022-08-16T08:33:09Z</time>
      </trkpt>
      <trkpt lat="44.4762" lon="6.85141">
        <ele>2487.6</ele>
        <time>2022-08-16T08:33:10Z</time>
      </trkpt>
      <trkpt lat="44.4762" lon="6.8514">
        <ele>2487.6</ele>
        <time>2022-08-16T08:33:11Z</time>
      </trkpt>
      <trkpt lat="44.4762" lon="6.85138">
        <ele>2487.8</ele>
        <time>2022-08-16T08:33:12Z</time>
      </trkpt>
      <trkpt lat="44.4762" lon="6.85137">
        <ele>2487.8</ele>
        <time>2022-08-16T08:33:13Z</time>
      </trkpt>
      <trkpt lat="44.4762" lon="6.85135">
        <ele>2487.8</ele>
        <time>2022-08-16T08:33:14Z</time>
      </trkpt>
      <trkpt lat="44.4762" lon="6.85134">
        <ele>2488</ele>
        <time>2022-08-16T08:33:15Z</time>
      </trkpt>
      <trkpt lat="44.4762" lon="6.85133">
        <ele>2488.2</ele>
        <time>2022-08-16T08:33:16Z</time>
      </trkpt>
      <trkpt lat="44.47619" lon="6.85131">
        <ele>2488.2</ele>
        <time>2022-08-16T08:33:17Z</time>
      </trkpt>
      <trkpt lat="44.47619" lon="6.8513">
        <ele>2488.6</ele>
        <time>2022-08-16T08:33:18Z</time>
      </trkpt>
      <trkpt lat="44.47619" lon="6.85128">
        <ele>2488.8</ele>
        <time>2022-08-16T08:33:19Z</time>
      </trkpt>
      <trkpt lat="44.4762" lon="6.85127">
        <ele>2488.8</ele>
        <time>2022-08-16T08:33:20Z</time>
      </trkpt>
      <trkpt lat="44.4762" lon="6.85125">
        <ele>2489.2</ele>
        <time>2022-08-16T08:33:21Z</time>
      </trkpt>
      <trkpt lat="44.47619" lon="6.85124">
        <ele>2489.4</ele>
        <time>2022-08-16T08:33:22Z</time>
      </trkpt>
      <trkpt lat="44.47618" lon="6.85123">
        <ele>2489.4</ele>
        <time>2022-08-16T08:33:23Z</time>
      </trkpt>
      <trkpt lat="44.47617" lon="6.85122">
        <ele>2489.6</ele>
        <time>2022-08-16T08:33:24Z</time>
      </trkpt>
      <trkpt lat="44.47616" lon="6.85123">
        <ele>2489.8</ele>
        <time>2022-08-16T08:33:25Z</time>
      </trkpt>
      <trkpt lat="44.47615" lon="6.85124">
        <ele>2490</ele>
        <time>2022-08-16T08:33:26Z</time>
      </trkpt>
      <trkpt lat="44.47615" lon="6.85125">
        <ele>2490.2</ele>
        <time>2022-08-16T08:33:27Z</time>
      </trkpt>
      <trkpt lat="44.47614" lon="6.85126">
        <ele>2490.4</ele>
        <time>2022-08-16T08:33:28Z</time>
      </trkpt>
      <trkpt lat="44.47615" lon="6.85128">
        <ele>2490.4</ele>
        <time>2022-08-16T08:33:29Z</time>
      </trkpt>
      <trkpt lat="44.47615" lon="6.85129">
        <ele>2490.6</ele>
        <time>2022-08-16T08:33:30Z</time>
      </trkpt>
      <trkpt lat="44.47614" lon="6.8513">
        <ele>2490.6</ele>
        <time>2022-08-16T08:33:31Z</time>
      </trkpt>
      <trkpt lat="44.47614" lon="6.85132">
        <ele>2490.8</ele>
        <time>2022-08-16T08:33:32Z</time>
      </trkpt>
      <trkpt lat="44.47614" lon="6.85133">
        <ele>2490.8</ele>
        <time>2022-08-16T08:33:33Z</time>
      </trkpt>
      <trkpt lat="44.47614" lon="6.85134">
        <ele>2491.2</ele>
        <time>2022-08-16T08:33:34Z</time>
      </trkpt>
      <trkpt lat="44.47613" lon="6.85135">
        <ele>2491.4</ele>
        <time>2022-08-16T08:33:35Z</time>
      </trkpt>
      <trkpt lat="44.47613" lon="6.85136">
        <ele>2491.6</ele>
        <time>2022-08-16T08:33:36Z</time>
      </trkpt>
      <trkpt lat="44.47613" lon="6.85138">
        <ele>2491.6</ele>
        <time>2022-08-16T08:33:37Z</time>
      </trkpt>
      <trkpt lat="44.47612" lon="6.85139">
        <ele>2491.8</ele>
        <time>2022-08-16T08:33:38Z</time>
      </trkpt>
      <trkpt lat="44.47612" lon="6.8514">
        <ele>2491.8</ele>
        <time>2022-08-16T08:33:39Z</time>
      </trkpt>
      <trkpt lat="44.47612" lon="6.85142">
        <ele>2492.2</ele>
        <time>2022-08-16T08:33:40Z</time>
      </trkpt>
      <trkpt lat="44.47612" lon="6.85143">
        <ele>2492.2</ele>
        <time>2022-08-16T08:33:41Z</time>
      </trkpt>
      <trkpt lat="44.47612" lon="6.85145">
        <ele>2492.4</ele>
        <time>2022-08-16T08:33:42Z</time>
      </trkpt>
      <trkpt lat="44.47612" lon="6.85146">
        <ele>2492.6</ele>
        <time>2022-08-16T08:33:43Z</time>
      </trkpt>
      <trkpt lat="44.47612" lon="6.85148">
        <ele>2492.6</ele>
        <time>2022-08-16T08:33:44Z</time>
      </trkpt>
      <trkpt lat="44.47612" lon="6.85149">
        <ele>2492.8</ele>
        <time>2022-08-16T08:33:45Z</time>
      </trkpt>
      <trkpt lat="44.47611" lon="6.85151">
        <ele>2492.8</ele>
        <time>2022-08-16T08:33:46Z</time>
      </trkpt>
      <trkpt lat="44.47611" lon="6.85152">
        <ele>2493.2</ele>
        <time>2022-08-16T08:33:47Z</time>
      </trkpt>
      <trkpt lat="44.47611" lon="6.85153">
        <ele>2493.2</ele>
        <time>2022-08-16T08:33:48Z</time>
      </trkpt>
      <trkpt lat="44.4761" lon="6.85155">
        <ele>2493.4</ele>
        <time>2022-08-16T08:33:49Z</time>
      </trkpt>
      <trkpt lat="44.4761" lon="6.85156">
        <ele>2493.6</ele>
        <time>2022-08-16T08:33:50Z</time>
      </trkpt>
      <trkpt lat="44.47609" lon="6.85158">
        <ele>2493.6</ele>
        <time>2022-08-16T08:33:51Z</time>
      </trkpt>
      <trkpt lat="44.47609" lon="6.85159">
        <ele>2493.8</ele>
        <time>2022-08-16T08:33:52Z</time>
      </trkpt>
      <trkpt lat="44.47608" lon="6.8516">
        <ele>2493.8</ele>
        <time>2022-08-16T08:33:53Z</time>
      </trkpt>
      <trkpt lat="44.47608" lon="6.85162">
        <ele>2494</ele>
        <time>2022-08-16T08:33:54Z</time>
      </trkpt>
      <trkpt lat="44.47607" lon="6.85163">
        <ele>2494.2</ele>
        <time>2022-08-16T08:33:55Z</time>
      </trkpt>
      <trkpt lat="44.47607" lon="6.85164">
        <ele>2494.4</ele>
        <time>2022-08-16T08:33:56Z</time>
      </trkpt>
      <trkpt lat="44.47607" lon="6.85166">
        <ele>2494.6</ele>
        <time>2022-08-16T08:33:57Z</time>
      </trkpt>
      <trkpt lat="44.47607" lon="6.85167">
        <ele>2494.6</ele>
        <time>2022-08-16T08:33:58Z</time>
      </trkpt>
      <trkpt lat="44.47607" lon="6.85169">
        <ele>2494.6</ele>
        <time>2022-08-16T08:33:59Z</time>
      </trkpt>
      <trkpt lat="44.47607" lon="6.8517">
        <ele>2494.6</ele>
        <time>2022-08-16T08:34:00Z</time>
      </trkpt>
      <trkpt lat="44.47606" lon="6.85171">
        <ele>2494.8</ele>
        <time>2022-08-16T08:34:01Z</time>
      </trkpt>
      <trkpt lat="44.47606" lon="6.85172">
        <ele>2494.8</ele>
        <time>2022-08-16T08:34:02Z</time>
      </trkpt>
      <trkpt lat="44.47606" lon="6.85173">
        <ele>2495</ele>
        <time>2022-08-16T08:34:03Z</time>
      </trkpt>
      <trkpt lat="44.47606" lon="6.85174">
        <ele>2495.2</ele>
        <time>2022-08-16T08:34:04Z</time>
      </trkpt>
      <trkpt lat="44.47605" lon="6.85175">
        <ele>2495.2</ele>
        <time>2022-08-16T08:34:05Z</time>
      </trkpt>
      <trkpt lat="44.47605" lon="6.85177">
        <ele>2495.6</ele>
        <time>2022-08-16T08:34:06Z</time>
      </trkpt>
      <trkpt lat="44.47605" lon="6.85178">
        <ele>2496</ele>
        <time>2022-08-16T08:34:07Z</time>
      </trkpt>
      <trkpt lat="44.47604" lon="6.85179">
        <ele>2496</ele>
        <time>2022-08-16T08:34:08Z</time>
      </trkpt>
      <trkpt lat="44.47603" lon="6.8518">
        <ele>2496.2</ele>
        <time>2022-08-16T08:34:09Z</time>
      </trkpt>
      <trkpt lat="44.47602" lon="6.8518">
        <ele>2496.4</ele>
        <time>2022-08-16T08:34:10Z</time>
      </trkpt>
      <trkpt lat="44.47602" lon="6.85181">
        <ele>2496.4</ele>
        <time>2022-08-16T08:34:11Z</time>
      </trkpt>
      <trkpt lat="44.47601" lon="6.85183">
        <ele>2496.8</ele>
        <time>2022-08-16T08:34:12Z</time>
      </trkpt>
      <trkpt lat="44.476" lon="6.85183">
        <ele>2496.8</ele>
        <time>2022-08-16T08:34:13Z</time>
      </trkpt>
      <trkpt lat="44.476" lon="6.85184">
        <ele>2497</ele>
        <time>2022-08-16T08:34:14Z</time>
      </trkpt>
      <trkpt lat="44.476" lon="6.85185">
        <ele>2497.2</ele>
        <time>2022-08-16T08:34:15Z</time>
      </trkpt>
      <trkpt lat="44.47599" lon="6.85185">
        <ele>2497.4</ele>
        <time>2022-08-16T08:34:16Z</time>
      </trkpt>
      <trkpt lat="44.47598" lon="6.85186">
        <ele>2497.4</ele>
        <time>2022-08-16T08:34:17Z</time>
      </trkpt>
      <trkpt lat="44.47598" lon="6.85187">
        <ele>2497.6</ele>
        <time>2022-08-16T08:34:18Z</time>
      </trkpt>
      <trkpt lat="44.47597" lon="6.85188">
        <ele>2497.8</ele>
        <time>2022-08-16T08:34:19Z</time>
      </trkpt>
      <trkpt lat="44.47597" lon="6.85189">
        <ele>2497.8</ele>
        <time>2022-08-16T08:34:20Z</time>
      </trkpt>
      <trkpt lat="44.47596" lon="6.85189">
        <ele>2498</ele>
        <time>2022-08-16T08:34:21Z</time>
      </trkpt>
      <trkpt lat="44.47595" lon="6.8519">
        <ele>2498</ele>
        <time>2022-08-16T08:34:22Z</time>
      </trkpt>
      <trkpt lat="44.47594" lon="6.85191">
        <ele>2498</ele>
        <time>2022-08-16T08:34:23Z</time>
      </trkpt>
      <trkpt lat="44.47593" lon="6.85192">
        <ele>2498.2</ele>
        <time>2022-08-16T08:34:24Z</time>
      </trkpt>
      <trkpt lat="44.47592" lon="6.85192">
        <ele>2498.4</ele>
        <time>2022-08-16T08:34:25Z</time>
      </trkpt>
      <trkpt lat="44.47591" lon="6.85193">
        <ele>2498.4</ele>
        <time>2022-08-16T08:34:26Z</time>
      </trkpt>
      <trkpt lat="44.4759" lon="6.85194">
        <ele>2498.6</ele>
        <time>2022-08-16T08:34:27Z</time>
      </trkpt>
      <trkpt lat="44.4759" lon="6.85194">
        <ele>2499</ele>
        <time>2022-08-16T08:34:28Z</time>
      </trkpt>
      <trkpt lat="44.47589" lon="6.85195">
        <ele>2499</ele>
        <time>2022-08-16T08:34:29Z</time>
      </trkpt>
      <trkpt lat="44.47588" lon="6.85196">
        <ele>2499.4</ele>
        <time>2022-08-16T08:34:30Z</time>
      </trkpt>
      <trkpt lat="44.47587" lon="6.85196">
        <ele>2499.6</ele>
        <time>2022-08-16T08:34:31Z</time>
      </trkpt>
      <trkpt lat="44.47586" lon="6.85197">
        <ele>2499.8</ele>
        <time>2022-08-16T08:34:32Z</time>
      </trkpt>
      <trkpt lat="44.47585" lon="6.85198">
        <ele>2500</ele>
        <time>2022-08-16T08:34:33Z</time>
      </trkpt>
      <trkpt lat="44.47584" lon="6.85198">
        <ele>2500</ele>
        <time>2022-08-16T08:34:34Z</time>
      </trkpt>
      <trkpt lat="44.47583" lon="6.85199">
        <ele>2500.4</ele>
        <time>2022-08-16T08:34:35Z</time>
      </trkpt>
      <trkpt lat="44.47582" lon="6.852">
        <ele>2500.4</ele>
        <time>2022-08-16T08:34:36Z</time>
      </trkpt>
      <trkpt lat="44.47581" lon="6.85201">
        <ele>2500.6</ele>
        <time>2022-08-16T08:34:37Z</time>
      </trkpt>
      <trkpt lat="44.4758" lon="6.85202">
        <ele>2500.8</ele>
        <time>2022-08-16T08:34:38Z</time>
      </trkpt>
      <trkpt lat="44.47579" lon="6.85202">
        <ele>2501</ele>
        <time>2022-08-16T08:34:39Z</time>
      </trkpt>
      <trkpt lat="44.47577" lon="6.85203">
        <ele>2501.2</ele>
        <time>2022-08-16T08:34:40Z</time>
      </trkpt>
      <trkpt lat="44.47576" lon="6.85204">
        <ele>2501.4</ele>
        <time>2022-08-16T08:34:41Z</time>
      </trkpt>
      <trkpt lat="44.47575" lon="6.85205">
        <ele>2501.6</ele>
        <time>2022-08-16T08:34:42Z</time>
      </trkpt>
      <trkpt lat="44.47574" lon="6.85206">
        <ele>2501.6</ele>
        <time>2022-08-16T08:34:43Z</time>
      </trkpt>
      <trkpt lat="44.47573" lon="6.85207">
        <ele>2501.8</ele>
        <time>2022-08-16T08:34:44Z</time>
      </trkpt>
      <trkpt lat="44.47572" lon="6.85207">
        <ele>2502</ele>
        <time>2022-08-16T08:34:45Z</time>
      </trkpt>
      <trkpt lat="44.47571" lon="6.85208">
        <ele>2502</ele>
        <time>2022-08-16T08:34:46Z</time>
      </trkpt>
      <trkpt lat="44.4757" lon="6.85209">
        <ele>2502.4</ele>
        <time>2022-08-16T08:34:47Z</time>
      </trkpt>
      <trkpt lat="44.47569" lon="6.8521">
        <ele>2502.2</ele>
        <time>2022-08-16T08:34:48Z</time>
      </trkpt>
      <trkpt lat="44.47568" lon="6.85211">
        <ele>2502.4</ele>
        <time>2022-08-16T08:34:49Z</time>
      </trkpt>
      <trkpt lat="44.47567" lon="6.85212">
        <ele>2502.6</ele>
        <time>2022-08-16T08:34:50Z</time>
      </trkpt>
      <trkpt lat="44.47566" lon="6.85213">
        <ele>2502.8</ele>
        <time>2022-08-16T08:34:51Z</time>
      </trkpt>
      <trkpt lat="44.47565" lon="6.85213">
        <ele>2503</ele>
        <time>2022-08-16T08:34:52Z</time>
      </trkpt>
      <trkpt lat="44.47564" lon="6.85213">
        <ele>2503.2</ele>
        <time>2022-08-16T08:34:53Z</time>
      </trkpt>
      <trkpt lat="44.47562" lon="6.85214">
        <ele>2503.4</ele>
        <time>2022-08-16T08:34:54Z</time>
      </trkpt>
      <trkpt lat="44.47561" lon="6.85215">
        <ele>2503.6</ele>
        <time>2022-08-16T08:34:55Z</time>
      </trkpt>
      <trkpt lat="44.4756" lon="6.85215">
        <ele>2503.8</ele>
        <time>2022-08-16T08:34:56Z</time>
      </trkpt>
      <trkpt lat="44.47559" lon="6.85216">
        <ele>2504</ele>
        <time>2022-08-16T08:34:57Z</time>
      </trkpt>
      <trkpt lat="44.47558" lon="6.85217">
        <ele>2504</ele>
        <time>2022-08-16T08:34:58Z</time>
      </trkpt>
      <trkpt lat="44.47557" lon="6.85218">
        <ele>2504.4</ele>
        <time>2022-08-16T08:34:59Z</time>
      </trkpt>
      <trkpt lat="44.47556" lon="6.85218">
        <ele>2504.4</ele>
        <time>2022-08-16T08:35:00Z</time>
      </trkpt>
      <trkpt lat="44.47554" lon="6.85219">
        <ele>2504.8</ele>
        <time>2022-08-16T08:35:01Z</time>
      </trkpt>
      <trkpt lat="44.47553" lon="6.8522">
        <ele>2505</ele>
        <time>2022-08-16T08:35:02Z</time>
      </trkpt>
      <trkpt lat="44.47552" lon="6.85221">
        <ele>2505.2</ele>
        <time>2022-08-16T08:35:03Z</time>
      </trkpt>
      <trkpt lat="44.47551" lon="6.85222">
        <ele>2505.2</ele>
        <time>2022-08-16T08:35:04Z</time>
      </trkpt>
      <trkpt lat="44.4755" lon="6.85223">
        <ele>2505.4</ele>
        <time>2022-08-16T08:35:05Z</time>
      </trkpt>
      <trkpt lat="44.47549" lon="6.85224">
        <ele>2505.4</ele>
        <time>2022-08-16T08:35:06Z</time>
      </trkpt>
      <trkpt lat="44.47548" lon="6.85224">
        <ele>2505.6</ele>
        <time>2022-08-16T08:35:07Z</time>
      </trkpt>
      <trkpt lat="44.47546" lon="6.85225">
        <ele>2505.6</ele>
        <time>2022-08-16T08:35:08Z</time>
      </trkpt>
      <trkpt lat="44.47545" lon="6.85226">
        <ele>2505.8</ele>
        <time>2022-08-16T08:35:09Z</time>
      </trkpt>
      <trkpt lat="44.47544" lon="6.85227">
        <ele>2506</ele>
        <time>2022-08-16T08:35:10Z</time>
      </trkpt>
      <trkpt lat="44.47543" lon="6.85228">
        <ele>2506</ele>
        <time>2022-08-16T08:35:11Z</time>
      </trkpt>
      <trkpt lat="44.47541" lon="6.85228">
        <ele>2506.2</ele>
        <time>2022-08-16T08:35:12Z</time>
      </trkpt>
      <trkpt lat="44.47541" lon="6.85229">
        <ele>2506.4</ele>
        <time>2022-08-16T08:35:13Z</time>
      </trkpt>
      <trkpt lat="44.4754" lon="6.8523">
        <ele>2506.8</ele>
        <time>2022-08-16T08:35:14Z</time>
      </trkpt>
      <trkpt lat="44.47539" lon="6.85231">
        <ele>2506.8</ele>
        <time>2022-08-16T08:35:15Z</time>
      </trkpt>
      <trkpt lat="44.47538" lon="6.85232">
        <ele>2507</ele>
        <time>2022-08-16T08:35:16Z</time>
      </trkpt>
      <trkpt lat="44.47537" lon="6.85234">
        <ele>2507</ele>
        <time>2022-08-16T08:35:17Z</time>
      </trkpt>
      <trkpt lat="44.47537" lon="6.85235">
        <ele>2507.2</ele>
        <time>2022-08-16T08:35:18Z</time>
      </trkpt>
      <trkpt lat="44.47536" lon="6.85237">
        <ele>2507.4</ele>
        <time>2022-08-16T08:35:19Z</time>
      </trkpt>
      <trkpt lat="44.47535" lon="6.85238">
        <ele>2507.8</ele>
        <time>2022-08-16T08:35:20Z</time>
      </trkpt>
      <trkpt lat="44.47534" lon="6.8524">
        <ele>2507.8</ele>
        <time>2022-08-16T08:35:21Z</time>
      </trkpt>
      <trkpt lat="44.47534" lon="6.85242">
        <ele>2508</ele>
        <time>2022-08-16T08:35:22Z</time>
      </trkpt>
      <trkpt lat="44.47533" lon="6.85243">
        <ele>2508.2</ele>
        <time>2022-08-16T08:35:23Z</time>
      </trkpt>
      <trkpt lat="44.47532" lon="6.85244">
        <ele>2508.4</ele>
        <time>2022-08-16T08:35:24Z</time>
      </trkpt>
      <trkpt lat="44.47531" lon="6.85244">
        <ele>2508.2</ele>
        <time>2022-08-16T08:35:25Z</time>
      </trkpt>
      <trkpt lat="44.47531" lon="6.85243">
        <ele>2508.4</ele>
        <time>2022-08-16T08:35:26Z</time>
      </trkpt>
      <trkpt lat="44.47531" lon="6.85242">
        <ele>2508.6</ele>
        <time>2022-08-16T08:35:27Z</time>
      </trkpt>
      <trkpt lat="44.47532" lon="6.85241">
        <ele>2508.8</ele>
        <time>2022-08-16T08:35:28Z</time>
      </trkpt>
      <trkpt lat="44.47532" lon="6.85239">
        <ele>2509</ele>
        <time>2022-08-16T08:35:29Z</time>
      </trkpt>
      <trkpt lat="44.47533" lon="6.85238">
        <ele>2509</ele>
        <time>2022-08-16T08:35:30Z</time>
      </trkpt>
      <trkpt lat="44.47533" lon="6.85237">
        <ele>2509.2</ele>
        <time>2022-08-16T08:35:31Z</time>
      </trkpt>
      <trkpt lat="44.47534" lon="6.85235">
        <ele>2509.4</ele>
        <time>2022-08-16T08:35:32Z</time>
      </trkpt>
      <trkpt lat="44.47535" lon="6.85234">
        <ele>2509.6</ele>
        <time>2022-08-16T08:35:33Z</time>
      </trkpt>
      <trkpt lat="44.47535" lon="6.85232">
        <ele>2509.8</ele>
        <time>2022-08-16T08:35:34Z</time>
      </trkpt>
      <trkpt lat="44.47536" lon="6.85231">
        <ele>2509.8</ele>
        <time>2022-08-16T08:35:35Z</time>
      </trkpt>
      <trkpt lat="44.47536" lon="6.85229">
        <ele>2510</ele>
        <time>2022-08-16T08:35:36Z</time>
      </trkpt>
      <trkpt lat="44.47537" lon="6.85228">
        <ele>2510.2</ele>
        <time>2022-08-16T08:35:37Z</time>
      </trkpt>
      <trkpt lat="44.47537" lon="6.85226">
        <ele>2510.4</ele>
        <time>2022-08-16T08:35:38Z</time>
      </trkpt>
      <trkpt lat="44.47538" lon="6.85225">
        <ele>2510.6</ele>
        <time>2022-08-16T08:35:39Z</time>
      </trkpt>
      <trkpt lat="44.47538" lon="6.85223">
        <ele>2510.8</ele>
        <time>2022-08-16T08:35:40Z</time>
      </trkpt>
      <trkpt lat="44.47539" lon="6.85221">
        <ele>2510.8</ele>
        <time>2022-08-16T08:35:41Z</time>
      </trkpt>
      <trkpt lat="44.47539" lon="6.8522">
        <ele>2511</ele>
        <time>2022-08-16T08:35:42Z</time>
      </trkpt>
      <trkpt lat="44.47538" lon="6.85219">
        <ele>2511.2</ele>
        <time>2022-08-16T08:35:43Z</time>
      </trkpt>
      <trkpt lat="44.47537" lon="6.85219">
        <ele>2511.2</ele>
        <time>2022-08-16T08:35:44Z</time>
      </trkpt>
      <trkpt lat="44.47536" lon="6.85219">
        <ele>2511.4</ele>
        <time>2022-08-16T08:35:45Z</time>
      </trkpt>
      <trkpt lat="44.47535" lon="6.8522">
        <ele>2511.6</ele>
        <time>2022-08-16T08:35:46Z</time>
      </trkpt>
      <trkpt lat="44.47535" lon="6.85221">
        <ele>2511.8</ele>
        <time>2022-08-16T08:35:47Z</time>
      </trkpt>
      <trkpt lat="44.47535" lon="6.85223">
        <ele>2512</ele>
        <time>2022-08-16T08:35:48Z</time>
      </trkpt>
      <trkpt lat="44.47534" lon="6.85224">
        <ele>2512.2</ele>
        <time>2022-08-16T08:35:49Z</time>
      </trkpt>
      <trkpt lat="44.47534" lon="6.85226">
        <ele>2512.2</ele>
        <time>2022-08-16T08:35:50Z</time>
      </trkpt>
      <trkpt lat="44.47534" lon="6.85227">
        <ele>2512.4</ele>
        <time>2022-08-16T08:35:51Z</time>
      </trkpt>
      <trkpt lat="44.47533" lon="6.85228">
        <ele>2512.6</ele>
        <time>2022-08-16T08:35:52Z</time>
      </trkpt>
      <trkpt lat="44.47532" lon="6.8523">
        <ele>2512.6</ele>
        <time>2022-08-16T08:35:53Z</time>
      </trkpt>
      <trkpt lat="44.47531" lon="6.85231">
        <ele>2512.8</ele>
        <time>2022-08-16T08:35:54Z</time>
      </trkpt>
      <trkpt lat="44.4753" lon="6.85232">
        <ele>2512.8</ele>
        <time>2022-08-16T08:35:55Z</time>
      </trkpt>
      <trkpt lat="44.4753" lon="6.85234">
        <ele>2513</ele>
        <time>2022-08-16T08:35:56Z</time>
      </trkpt>
      <trkpt lat="44.47529" lon="6.85235">
        <ele>2513.2</ele>
        <time>2022-08-16T08:35:57Z</time>
      </trkpt>
      <trkpt lat="44.47529" lon="6.85236">
        <ele>2513.2</ele>
        <time>2022-08-16T08:35:58Z</time>
      </trkpt>
      <trkpt lat="44.47528" lon="6.85238">
        <ele>2513.4</ele>
        <time>2022-08-16T08:35:59Z</time>
      </trkpt>
      <trkpt lat="44.47527" lon="6.8524">
        <ele>2513.6</ele>
        <time>2022-08-16T08:36:00Z</time>
      </trkpt>
      <trkpt lat="44.47526" lon="6.85241">
        <ele>2514</ele>
        <time>2022-08-16T08:36:01Z</time>
      </trkpt>
      <trkpt lat="44.47525" lon="6.85242">
        <ele>2514</ele>
        <time>2022-08-16T08:36:02Z</time>
      </trkpt>
      <trkpt lat="44.47524" lon="6.85243">
        <ele>2514.2</ele>
        <time>2022-08-16T08:36:03Z</time>
      </trkpt>
      <trkpt lat="44.47524" lon="6.85244">
        <ele>2514.2</ele>
        <time>2022-08-16T08:36:04Z</time>
      </trkpt>
      <trkpt lat="44.47523" lon="6.85246">
        <ele>2514.4</ele>
        <time>2022-08-16T08:36:05Z</time>
      </trkpt>
      <trkpt lat="44.47522" lon="6.85247">
        <ele>2514.6</ele>
        <time>2022-08-16T08:36:06Z</time>
      </trkpt>
      <trkpt lat="44.47521" lon="6.85248">
        <ele>2514.6</ele>
        <time>2022-08-16T08:36:07Z</time>
      </trkpt>
      <trkpt lat="44.47521" lon="6.8525">
        <ele>2514.8</ele>
        <time>2022-08-16T08:36:08Z</time>
      </trkpt>
      <trkpt lat="44.4752" lon="6.85251">
        <ele>2515.2</ele>
        <time>2022-08-16T08:36:09Z</time>
      </trkpt>
      <trkpt lat="44.47518" lon="6.85252">
        <ele>2515.4</ele>
        <time>2022-08-16T08:36:10Z</time>
      </trkpt>
      <trkpt lat="44.47517" lon="6.85253">
        <ele>2515.4</ele>
        <time>2022-08-16T08:36:11Z</time>
      </trkpt>
      <trkpt lat="44.47516" lon="6.85253">
        <ele>2515.6</ele>
        <time>2022-08-16T08:36:12Z</time>
      </trkpt>
      <trkpt lat="44.47515" lon="6.85254">
        <ele>2515.8</ele>
        <time>2022-08-16T08:36:13Z</time>
      </trkpt>
      <trkpt lat="44.47515" lon="6.85256">
        <ele>2516</ele>
        <time>2022-08-16T08:36:14Z</time>
      </trkpt>
      <trkpt lat="44.47514" lon="6.85257">
        <ele>2516</ele>
        <time>2022-08-16T08:36:15Z</time>
      </trkpt>
      <trkpt lat="44.47514" lon="6.85258">
        <ele>2516.2</ele>
        <time>2022-08-16T08:36:16Z</time>
      </trkpt>
      <trkpt lat="44.47513" lon="6.85259">
        <ele>2516.4</ele>
        <time>2022-08-16T08:36:17Z</time>
      </trkpt>
      <trkpt lat="44.47512" lon="6.8526">
        <ele>2516.4</ele>
        <time>2022-08-16T08:36:18Z</time>
      </trkpt>
      <trkpt lat="44.47511" lon="6.85261">
        <ele>2516.8</ele>
        <time>2022-08-16T08:36:19Z</time>
      </trkpt>
      <trkpt lat="44.4751" lon="6.85262">
        <ele>2517</ele>
        <time>2022-08-16T08:36:20Z</time>
      </trkpt>
      <trkpt lat="44.47509" lon="6.85263">
        <ele>2517</ele>
        <time>2022-08-16T08:36:21Z</time>
      </trkpt>
      <trkpt lat="44.47508" lon="6.85264">
        <ele>2517</ele>
        <time>2022-08-16T08:36:22Z</time>
      </trkpt>
      <trkpt lat="44.47507" lon="6.85265">
        <ele>2517.2</ele>
        <time>2022-08-16T08:36:23Z</time>
      </trkpt>
      <trkpt lat="44.47506" lon="6.85267">
        <ele>2517.4</ele>
        <time>2022-08-16T08:36:24Z</time>
      </trkpt>
      <trkpt lat="44.47505" lon="6.85267">
        <ele>2517.6</ele>
        <time>2022-08-16T08:36:25Z</time>
      </trkpt>
      <trkpt lat="44.47505" lon="6.85268">
        <ele>2518</ele>
        <time>2022-08-16T08:36:26Z</time>
      </trkpt>
      <trkpt lat="44.47504" lon="6.85268">
        <ele>2518.2</ele>
        <time>2022-08-16T08:36:27Z</time>
      </trkpt>
      <trkpt lat="44.47504" lon="6.85269">
        <ele>2518.2</ele>
        <time>2022-08-16T08:36:28Z</time>
      </trkpt>
      <trkpt lat="44.47504" lon="6.8527">
        <ele>2518.4</ele>
        <time>2022-08-16T08:36:29Z</time>
      </trkpt>
      <trkpt lat="44.47503" lon="6.85269">
        <ele>2518.8</ele>
        <time>2022-08-16T08:36:32Z</time>
      </trkpt>
      <trkpt lat="44.47503" lon="6.85269">
        <ele>2519.6</ele>
        <time>2022-08-16T08:36:35Z</time>
      </trkpt>
      <trkpt lat="44.47504" lon="6.8527">
        <ele>2520</ele>
        <time>2022-08-16T08:36:42Z</time>
      </trkpt>
      <trkpt lat="44.47504" lon="6.85269">
        <ele>2520</ele>
        <time>2022-08-16T08:36:43Z</time>
      </trkpt>
      <trkpt lat="44.47504" lon="6.85269">
        <ele>2520.2</ele>
        <time>2022-08-16T08:36:44Z</time>
      </trkpt>
      <trkpt lat="44.47504" lon="6.85268">
        <ele>2520.2</ele>
        <time>2022-08-16T08:36:45Z</time>
      </trkpt>
      <trkpt lat="44.47505" lon="6.85267">
        <ele>2520.4</ele>
        <time>2022-08-16T08:36:54Z</time>
      </trkpt>
      <trkpt lat="44.47505" lon="6.85268">
        <ele>2520.2</ele>
        <time>2022-08-16T08:37:26Z</time>
      </trkpt>
      <trkpt lat="44.47505" lon="6.85268">
        <ele>2520.2</ele>
        <time>2022-08-16T08:37:52Z</time>
      </trkpt>
      <trkpt lat="44.47505" lon="6.85268">
        <ele>2520.2</ele>
        <time>2022-08-16T08:37:54Z</time>
      </trkpt>
      <trkpt lat="44.47505" lon="6.85268">
        <ele>2520</ele>
        <time>2022-08-16T08:37:56Z</time>
      </trkpt>
      <trkpt lat="44.47505" lon="6.85268">
        <ele>2519.8</ele>
        <time>2022-08-16T08:38:30Z</time>
      </trkpt>
      <trkpt lat="44.47505" lon="6.85268">
        <ele>2519.8</ele>
        <time>2022-08-16T08:38:40Z</time>
      </trkpt>
      <trkpt lat="44.47505" lon="6.85268">
        <ele>2520.4</ele>
        <time>2022-08-16T08:39:05Z</time>
      </trkpt>
      <trkpt lat="44.47505" lon="6.85268">
        <ele>2520.4</ele>
        <time>2022-08-16T08:39:14Z</time>
      </trkpt>
      <trkpt lat="44.47505" lon="6.85268">
        <ele>2520</ele>
        <time>2022-08-16T08:39:28Z</time>
      </trkpt>
      <trkpt lat="44.47505" lon="6.85268">
        <ele>2520</ele>
        <time>2022-08-16T08:39:46Z</time>
      </trkpt>
      <trkpt lat="44.47505" lon="6.85268">
        <ele>2520</ele>
        <time>2022-08-16T08:39:50Z</time>
      </trkpt>
      <trkpt lat="44.47505" lon="6.85268">
        <ele>2520</ele>
        <time>2022-08-16T08:40:21Z</time>
      </trkpt>
      <trkpt lat="44.47505" lon="6.85268">
        <ele>2520</ele>
        <time>2022-08-16T08:40:22Z</time>
      </trkpt>
      <trkpt lat="44.47505" lon="6.85268">
        <ele>2519.8</ele>
        <time>2022-08-16T08:40:33Z</time>
      </trkpt>
      <trkpt lat="44.47505" lon="6.85268">
        <ele>2519.4</ele>
        <time>2022-08-16T08:40:53Z</time>
      </trkpt>
      <trkpt lat="44.47505" lon="6.85268">
        <ele>2519.6</ele>
        <time>2022-08-16T08:40:56Z</time>
      </trkpt>
      <trkpt lat="44.47505" lon="6.85268">
        <ele>2520</ele>
        <time>2022-08-16T08:41:30Z</time>
      </trkpt>
      <trkpt lat="44.47505" lon="6.85268">
        <ele>2520.2</ele>
        <time>2022-08-16T08:41:38Z</time>
      </trkpt>
      <trkpt lat="44.47505" lon="6.85269">
        <ele>2520.2</ele>
        <time>2022-08-16T08:42:04Z</time>
      </trkpt>
      <trkpt lat="44.47505" lon="6.85269">
        <ele>2519.8</ele>
        <time>2022-08-16T08:42:21Z</time>
      </trkpt>
      <trkpt lat="44.47505" lon="6.85269">
        <ele>2519.8</ele>
        <time>2022-08-16T08:42:29Z</time>
      </trkpt>
      <trkpt lat="44.47506" lon="6.85269">
        <ele>2519.8</ele>
        <time>2022-08-16T08:43:01Z</time>
      </trkpt>
      <trkpt lat="44.47506" lon="6.85269">
        <ele>2519.8</ele>
        <time>2022-08-16T08:43:04Z</time>
      </trkpt>
      <trkpt lat="44.47506" lon="6.85269">
        <ele>2519.4</ele>
        <time>2022-08-16T08:43:46Z</time>
      </trkpt>
      <trkpt lat="44.47506" lon="6.85269">
        <ele>2519.2</ele>
        <time>2022-08-16T08:43:58Z</time>
      </trkpt>
      <trkpt lat="44.47506" lon="6.85269">
        <ele>2519.2</ele>
        <time>2022-08-16T08:44:05Z</time>
      </trkpt>
      <trkpt lat="44.47506" lon="6.85269">
        <ele>2519.6</ele>
        <time>2022-08-16T08:44:40Z</time>
      </trkpt>
      <trkpt lat="44.47506" lon="6.85269">
        <ele>2519.4</ele>
        <time>2022-08-16T08:45:27Z</time>
      </trkpt>
      <trkpt lat="44.47506" lon="6.85269">
        <ele>2519.4</ele>
        <time>2022-08-16T08:45:36Z</time>
      </trkpt>
      <trkpt lat="44.47505" lon="6.85269">
        <ele>2519.4</ele>
        <time>2022-08-16T08:46:29Z</time>
      </trkpt>
      <trkpt lat="44.47505" lon="6.8527">
        <ele>2519.4</ele>
        <time>2022-08-16T08:46:30Z</time>
      </trkpt>
      <trkpt lat="44.47503" lon="6.85271">
        <ele>2519.6</ele>
        <time>2022-08-16T08:46:33Z</time>
      </trkpt>
      <trkpt lat="44.47504" lon="6.85272">
        <ele>2519.4</ele>
        <time>2022-08-16T08:46:36Z</time>
      </trkpt>
      <trkpt lat="44.47504" lon="6.85273">
        <ele>2519.2</ele>
        <time>2022-08-16T08:46:46Z</time>
      </trkpt>
      <trkpt lat="44.47505" lon="6.85275">
        <ele>2519.2</ele>
        <time>2022-08-16T08:46:47Z</time>
      </trkpt>
      <trkpt lat="44.47505" lon="6.85276">
        <ele>2519</ele>
        <time>2022-08-16T08:46:48Z</time>
      </trkpt>
      <trkpt lat="44.47504" lon="6.85277">
        <ele>2519.2</ele>
        <time>2022-08-16T08:46:49Z</time>
      </trkpt>
      <trkpt lat="44.47504" lon="6.85278">
        <ele>2519</ele>
        <time>2022-08-16T08:46:50Z</time>
      </trkpt>
      <trkpt lat="44.47503" lon="6.85279">
        <ele>2519.2</ele>
        <time>2022-08-16T08:46:51Z</time>
      </trkpt>
      <trkpt lat="44.47503" lon="6.85281">
        <ele>2519</ele>
        <time>2022-08-16T08:46:52Z</time>
      </trkpt>
      <trkpt lat="44.47502" lon="6.85281">
        <ele>2519</ele>
        <time>2022-08-16T08:46:53Z</time>
      </trkpt>
      <trkpt lat="44.47501" lon="6.85284">
        <ele>2519</ele>
        <time>2022-08-16T08:46:55Z</time>
      </trkpt>
      <trkpt lat="44.47499" lon="6.85289">
        <ele>2519.2</ele>
        <time>2022-08-16T08:46:59Z</time>
      </trkpt>
      <trkpt lat="44.47497" lon="6.85292">
        <ele>2519.2</ele>
        <time>2022-08-16T08:47:01Z</time>
      </trkpt>
      <trkpt lat="44.47497" lon="6.85293">
        <ele>2519.2</ele>
        <time>2022-08-16T08:47:02Z</time>
      </trkpt>
      <trkpt lat="44.47496" lon="6.85296">
        <ele>2519.6</ele>
        <time>2022-08-16T08:47:04Z</time>
      </trkpt>
      <trkpt lat="44.47496" lon="6.85298">
        <ele>2519.6</ele>
        <time>2022-08-16T08:47:05Z</time>
      </trkpt>
      <trkpt lat="44.47494" lon="6.85303">
        <ele>2520.4</ele>
        <time>2022-08-16T08:47:09Z</time>
      </trkpt>
      <trkpt lat="44.47493" lon="6.85305">
        <ele>2520.6</ele>
        <time>2022-08-16T08:47:10Z</time>
      </trkpt>
      <trkpt lat="44.47493" lon="6.85306">
        <ele>2520.8</ele>
        <time>2022-08-16T08:47:11Z</time>
      </trkpt>
      <trkpt lat="44.47492" lon="6.85307">
        <ele>2521</ele>
        <time>2022-08-16T08:47:12Z</time>
      </trkpt>
      <trkpt lat="44.47491" lon="6.85308">
        <ele>2521.2</ele>
        <time>2022-08-16T08:47:13Z</time>
      </trkpt>
      <trkpt lat="44.47491" lon="6.8531">
        <ele>2521.4</ele>
        <time>2022-08-16T08:47:14Z</time>
      </trkpt>
      <trkpt lat="44.4749" lon="6.85311">
        <ele>2521.4</ele>
        <time>2022-08-16T08:47:15Z</time>
      </trkpt>
      <trkpt lat="44.47489" lon="6.85312">
        <ele>2521.6</ele>
        <time>2022-08-16T08:47:16Z</time>
      </trkpt>
      <trkpt lat="44.47488" lon="6.85312">
        <ele>2521.8</ele>
        <time>2022-08-16T08:47:17Z</time>
      </trkpt>
      <trkpt lat="44.47488" lon="6.85313">
        <ele>2521.8</ele>
        <time>2022-08-16T08:47:18Z</time>
      </trkpt>
      <trkpt lat="44.47487" lon="6.85314">
        <ele>2521.8</ele>
        <time>2022-08-16T08:47:19Z</time>
      </trkpt>
      <trkpt lat="44.47486" lon="6.85315">
        <ele>2522.2</ele>
        <time>2022-08-16T08:47:20Z</time>
      </trkpt>
      <trkpt lat="44.47485" lon="6.85316">
        <ele>2522.4</ele>
        <time>2022-08-16T08:47:21Z</time>
      </trkpt>
      <trkpt lat="44.47485" lon="6.85317">
        <ele>2522.4</ele>
        <time>2022-08-16T08:47:22Z</time>
      </trkpt>
      <trkpt lat="44.47484" lon="6.85318">
        <ele>2522.4</ele>
        <time>2022-08-16T08:47:23Z</time>
      </trkpt>
      <trkpt lat="44.47484" lon="6.85319">
        <ele>2522.4</ele>
        <time>2022-08-16T08:47:24Z</time>
      </trkpt>
      <trkpt lat="44.47483" lon="6.8532">
        <ele>2522.8</ele>
        <time>2022-08-16T08:47:25Z</time>
      </trkpt>
      <trkpt lat="44.47482" lon="6.8532">
        <ele>2522.8</ele>
        <time>2022-08-16T08:47:26Z</time>
      </trkpt>
      <trkpt lat="44.47481" lon="6.85321">
        <ele>2523.2</ele>
        <time>2022-08-16T08:47:27Z</time>
      </trkpt>
      <trkpt lat="44.47479" lon="6.85321">
        <ele>2523.2</ele>
        <time>2022-08-16T08:47:28Z</time>
      </trkpt>
      <trkpt lat="44.47478" lon="6.85322">
        <ele>2523.4</ele>
        <time>2022-08-16T08:47:29Z</time>
      </trkpt>
      <trkpt lat="44.47478" lon="6.85323">
        <ele>2523.8</ele>
        <time>2022-08-16T08:47:30Z</time>
      </trkpt>
      <trkpt lat="44.47477" lon="6.85324">
        <ele>2524</ele>
        <time>2022-08-16T08:47:31Z</time>
      </trkpt>
      <trkpt lat="44.47476" lon="6.85325">
        <ele>2524</ele>
        <time>2022-08-16T08:47:32Z</time>
      </trkpt>
      <trkpt lat="44.47475" lon="6.85326">
        <ele>2524.4</ele>
        <time>2022-08-16T08:47:33Z</time>
      </trkpt>
      <trkpt lat="44.47474" lon="6.85327">
        <ele>2524.4</ele>
        <time>2022-08-16T08:47:34Z</time>
      </trkpt>
      <trkpt lat="44.47474" lon="6.85327">
        <ele>2524.4</ele>
        <time>2022-08-16T08:47:35Z</time>
      </trkpt>
      <trkpt lat="44.47473" lon="6.85328">
        <ele>2524.6</ele>
        <time>2022-08-16T08:47:36Z</time>
      </trkpt>
      <trkpt lat="44.47473" lon="6.85329">
        <ele>2524.8</ele>
        <time>2022-08-16T08:47:37Z</time>
      </trkpt>
      <trkpt lat="44.47472" lon="6.85331">
        <ele>2524.8</ele>
        <time>2022-08-16T08:47:38Z</time>
      </trkpt>
      <trkpt lat="44.47471" lon="6.85332">
        <ele>2524.8</ele>
        <time>2022-08-16T08:47:39Z</time>
      </trkpt>
      <trkpt lat="44.4747" lon="6.85332">
        <ele>2525</ele>
        <time>2022-08-16T08:47:40Z</time>
      </trkpt>
      <trkpt lat="44.47469" lon="6.85333">
        <ele>2525</ele>
        <time>2022-08-16T08:47:41Z</time>
      </trkpt>
      <trkpt lat="44.47468" lon="6.85334">
        <ele>2525.2</ele>
        <time>2022-08-16T08:47:42Z</time>
      </trkpt>
      <trkpt lat="44.47468" lon="6.85334">
        <ele>2525.4</ele>
        <time>2022-08-16T08:47:43Z</time>
      </trkpt>
      <trkpt lat="44.47467" lon="6.85335">
        <ele>2525.6</ele>
        <time>2022-08-16T08:47:44Z</time>
      </trkpt>
      <trkpt lat="44.47466" lon="6.85335">
        <ele>2525.8</ele>
        <time>2022-08-16T08:47:45Z</time>
      </trkpt>
      <trkpt lat="44.47467" lon="6.85337">
        <ele>2526.2</ele>
        <time>2022-08-16T08:47:49Z</time>
      </trkpt>
      <trkpt lat="44.47467" lon="6.85339">
        <ele>2526.6</ele>
        <time>2022-08-16T08:47:52Z</time>
      </trkpt>
      <trkpt lat="44.47466" lon="6.85339">
        <ele>2526.8</ele>
        <time>2022-08-16T08:47:53Z</time>
      </trkpt>
      <trkpt lat="44.47465" lon="6.8534">
        <ele>2527</ele>
        <time>2022-08-16T08:47:54Z</time>
      </trkpt>
      <trkpt lat="44.47465" lon="6.85341">
        <ele>2527</ele>
        <time>2022-08-16T08:47:55Z</time>
      </trkpt>
      <trkpt lat="44.47464" lon="6.85342">
        <ele>2526.8</ele>
        <time>2022-08-16T08:47:56Z</time>
      </trkpt>
      <trkpt lat="44.47462" lon="6.85344">
        <ele>2527</ele>
        <time>2022-08-16T08:47:59Z</time>
      </trkpt>
      <trkpt lat="44.47461" lon="6.85345">
        <ele>2527.2</ele>
        <time>2022-08-16T08:48:00Z</time>
      </trkpt>
      <trkpt lat="44.4746" lon="6.85345">
        <ele>2527</ele>
        <time>2022-08-16T08:48:01Z</time>
      </trkpt>
      <trkpt lat="44.47458" lon="6.85348">
        <ele>2527.4</ele>
        <time>2022-08-16T08:48:04Z</time>
      </trkpt>
      <trkpt lat="44.47458" lon="6.85349">
        <ele>2527.4</ele>
        <time>2022-08-16T08:48:05Z</time>
      </trkpt>
      <trkpt lat="44.47457" lon="6.8535">
        <ele>2527.4</ele>
        <time>2022-08-16T08:48:06Z</time>
      </trkpt>
      <trkpt lat="44.47457" lon="6.85351">
        <ele>2527.6</ele>
        <time>2022-08-16T08:48:07Z</time>
      </trkpt>
      <trkpt lat="44.47455" lon="6.85354">
        <ele>2527.8</ele>
        <time>2022-08-16T08:48:10Z</time>
      </trkpt>
      <trkpt lat="44.47455" lon="6.85355">
        <ele>2527.8</ele>
        <time>2022-08-16T08:48:11Z</time>
      </trkpt>
      <trkpt lat="44.47453" lon="6.85355">
        <ele>2527.8</ele>
        <time>2022-08-16T08:48:12Z</time>
      </trkpt>
      <trkpt lat="44.47453" lon="6.85356">
        <ele>2528.2</ele>
        <time>2022-08-16T08:48:13Z</time>
      </trkpt>
      <trkpt lat="44.47452" lon="6.85357">
        <ele>2528.2</ele>
        <time>2022-08-16T08:48:14Z</time>
      </trkpt>
      <trkpt lat="44.47452" lon="6.85358">
        <ele>2528.4</ele>
        <time>2022-08-16T08:48:15Z</time>
      </trkpt>
      <trkpt lat="44.47452" lon="6.85359">
        <ele>2528.6</ele>
        <time>2022-08-16T08:48:16Z</time>
      </trkpt>
      <trkpt lat="44.47451" lon="6.85361">
        <ele>2528.6</ele>
        <time>2022-08-16T08:48:17Z</time>
      </trkpt>
      <trkpt lat="44.4745" lon="6.85362">
        <ele>2529</ele>
        <time>2022-08-16T08:48:18Z</time>
      </trkpt>
      <trkpt lat="44.47449" lon="6.85363">
        <ele>2529</ele>
        <time>2022-08-16T08:48:19Z</time>
      </trkpt>
      <trkpt lat="44.47448" lon="6.85363">
        <ele>2529.2</ele>
        <time>2022-08-16T08:48:20Z</time>
      </trkpt>
      <trkpt lat="44.47447" lon="6.85364">
        <ele>2529.4</ele>
        <time>2022-08-16T08:48:21Z</time>
      </trkpt>
      <trkpt lat="44.47447" lon="6.85365">
        <ele>2529.6</ele>
        <time>2022-08-16T08:48:22Z</time>
      </trkpt>
      <trkpt lat="44.47446" lon="6.85366">
        <ele>2529.8</ele>
        <time>2022-08-16T08:48:23Z</time>
      </trkpt>
      <trkpt lat="44.47446" lon="6.85367">
        <ele>2530</ele>
        <time>2022-08-16T08:48:24Z</time>
      </trkpt>
      <trkpt lat="44.47445" lon="6.85368">
        <ele>2529.8</ele>
        <time>2022-08-16T08:48:25Z</time>
      </trkpt>
      <trkpt lat="44.47444" lon="6.85369">
        <ele>2530.2</ele>
        <time>2022-08-16T08:48:26Z</time>
      </trkpt>
      <trkpt lat="44.47444" lon="6.85371">
        <ele>2530.4</ele>
        <time>2022-08-16T08:48:27Z</time>
      </trkpt>
      <trkpt lat="44.47443" lon="6.85372">
        <ele>2530.6</ele>
        <time>2022-08-16T08:48:28Z</time>
      </trkpt>
      <trkpt lat="44.47442" lon="6.85372">
        <ele>2530.8</ele>
        <time>2022-08-16T08:48:29Z</time>
      </trkpt>
      <trkpt lat="44.47441" lon="6.85373">
        <ele>2531</ele>
        <time>2022-08-16T08:48:30Z</time>
      </trkpt>
      <trkpt lat="44.47441" lon="6.85375">
        <ele>2531</ele>
        <time>2022-08-16T08:48:31Z</time>
      </trkpt>
      <trkpt lat="44.4744" lon="6.85376">
        <ele>2531</ele>
        <time>2022-08-16T08:48:32Z</time>
      </trkpt>
      <trkpt lat="44.4744" lon="6.85377">
        <ele>2531.2</ele>
        <time>2022-08-16T08:48:33Z</time>
      </trkpt>
      <trkpt lat="44.47439" lon="6.85378">
        <ele>2531.4</ele>
        <time>2022-08-16T08:48:34Z</time>
      </trkpt>
      <trkpt lat="44.47438" lon="6.8538">
        <ele>2531.4</ele>
        <time>2022-08-16T08:48:35Z</time>
      </trkpt>
      <trkpt lat="44.47437" lon="6.8538">
        <ele>2531.6</ele>
        <time>2022-08-16T08:48:36Z</time>
      </trkpt>
      <trkpt lat="44.47436" lon="6.85381">
        <ele>2531.8</ele>
        <time>2022-08-16T08:48:37Z</time>
      </trkpt>
      <trkpt lat="44.47436" lon="6.85383">
        <ele>2532.2</ele>
        <time>2022-08-16T08:48:38Z</time>
      </trkpt>
      <trkpt lat="44.47435" lon="6.85384">
        <ele>2532.4</ele>
        <time>2022-08-16T08:48:39Z</time>
      </trkpt>
      <trkpt lat="44.47434" lon="6.85385">
        <ele>2532.6</ele>
        <time>2022-08-16T08:48:40Z</time>
      </trkpt>
      <trkpt lat="44.47433" lon="6.85386">
        <ele>2532.8</ele>
        <time>2022-08-16T08:48:41Z</time>
      </trkpt>
      <trkpt lat="44.47432" lon="6.85387">
        <ele>2533</ele>
        <time>2022-08-16T08:48:42Z</time>
      </trkpt>
      <trkpt lat="44.47431" lon="6.85388">
        <ele>2533</ele>
        <time>2022-08-16T08:48:43Z</time>
      </trkpt>
      <trkpt lat="44.4743" lon="6.85389">
        <ele>2533.2</ele>
        <time>2022-08-16T08:48:44Z</time>
      </trkpt>
      <trkpt lat="44.47429" lon="6.85391">
        <ele>2533.4</ele>
        <time>2022-08-16T08:48:45Z</time>
      </trkpt>
      <trkpt lat="44.47429" lon="6.85392">
        <ele>2533.4</ele>
        <time>2022-08-16T08:48:46Z</time>
      </trkpt>
      <trkpt lat="44.47428" lon="6.85394">
        <ele>2533.4</ele>
        <time>2022-08-16T08:48:47Z</time>
      </trkpt>
      <trkpt lat="44.47428" lon="6.85395">
        <ele>2533.4</ele>
        <time>2022-08-16T08:48:48Z</time>
      </trkpt>
      <trkpt lat="44.47427" lon="6.85397">
        <ele>2533.6</ele>
        <time>2022-08-16T08:48:49Z</time>
      </trkpt>
      <trkpt lat="44.47427" lon="6.85398">
        <ele>2533.8</ele>
        <time>2022-08-16T08:48:50Z</time>
      </trkpt>
      <trkpt lat="44.47426" lon="6.85399">
        <ele>2534</ele>
        <time>2022-08-16T08:48:51Z</time>
      </trkpt>
      <trkpt lat="44.47425" lon="6.85401">
        <ele>2534</ele>
        <time>2022-08-16T08:48:52Z</time>
      </trkpt>
      <trkpt lat="44.47424" lon="6.85402">
        <ele>2534</ele>
        <time>2022-08-16T08:48:53Z</time>
      </trkpt>
      <trkpt lat="44.47424" lon="6.85403">
        <ele>2534.2</ele>
        <time>2022-08-16T08:48:54Z</time>
      </trkpt>
      <trkpt lat="44.47423" lon="6.85405">
        <ele>2534.2</ele>
        <time>2022-08-16T08:48:55Z</time>
      </trkpt>
      <trkpt lat="44.47423" lon="6.85406">
        <ele>2534.6</ele>
        <time>2022-08-16T08:48:56Z</time>
      </trkpt>
      <trkpt lat="44.47423" lon="6.85407">
        <ele>2534.6</ele>
        <time>2022-08-16T08:48:57Z</time>
      </trkpt>
      <trkpt lat="44.47422" lon="6.85409">
        <ele>2534.8</ele>
        <time>2022-08-16T08:48:58Z</time>
      </trkpt>
      <trkpt lat="44.47422" lon="6.85411">
        <ele>2535</ele>
        <time>2022-08-16T08:48:59Z</time>
      </trkpt>
      <trkpt lat="44.47422" lon="6.85412">
        <ele>2535.2</ele>
        <time>2022-08-16T08:49:00Z</time>
      </trkpt>
      <trkpt lat="44.47422" lon="6.85414">
        <ele>2535.4</ele>
        <time>2022-08-16T08:49:01Z</time>
      </trkpt>
      <trkpt lat="44.47421" lon="6.85415">
        <ele>2535.4</ele>
        <time>2022-08-16T08:49:02Z</time>
      </trkpt>
      <trkpt lat="44.47421" lon="6.85416">
        <ele>2535.6</ele>
        <time>2022-08-16T08:49:03Z</time>
      </trkpt>
      <trkpt lat="44.4742" lon="6.85418">
        <ele>2535.8</ele>
        <time>2022-08-16T08:49:04Z</time>
      </trkpt>
      <trkpt lat="44.4742" lon="6.85418">
        <ele>2536</ele>
        <time>2022-08-16T08:49:05Z</time>
      </trkpt>
      <trkpt lat="44.47419" lon="6.85419">
        <ele>2536</ele>
        <time>2022-08-16T08:49:06Z</time>
      </trkpt>
      <trkpt lat="44.47418" lon="6.85421">
        <ele>2536.2</ele>
        <time>2022-08-16T08:49:07Z</time>
      </trkpt>
      <trkpt lat="44.47417" lon="6.85422">
        <ele>2536</ele>
        <time>2022-08-16T08:49:08Z</time>
      </trkpt>
      <trkpt lat="44.47417" lon="6.85423">
        <ele>2536</ele>
        <time>2022-08-16T08:49:09Z</time>
      </trkpt>
      <trkpt lat="44.47416" lon="6.85424">
        <ele>2536.4</ele>
        <time>2022-08-16T08:49:10Z</time>
      </trkpt>
      <trkpt lat="44.47416" lon="6.85426">
        <ele>2536.6</ele>
        <time>2022-08-16T08:49:11Z</time>
      </trkpt>
      <trkpt lat="44.47416" lon="6.85428">
        <ele>2537</ele>
        <time>2022-08-16T08:49:12Z</time>
      </trkpt>
      <trkpt lat="44.47415" lon="6.85429">
        <ele>2537.2</ele>
        <time>2022-08-16T08:49:13Z</time>
      </trkpt>
      <trkpt lat="44.47415" lon="6.8543">
        <ele>2537.4</ele>
        <time>2022-08-16T08:49:14Z</time>
      </trkpt>
      <trkpt lat="44.47415" lon="6.85432">
        <ele>2537.4</ele>
        <time>2022-08-16T08:49:15Z</time>
      </trkpt>
      <trkpt lat="44.47415" lon="6.85433">
        <ele>2537.4</ele>
        <time>2022-08-16T08:49:16Z</time>
      </trkpt>
      <trkpt lat="44.47415" lon="6.85435">
        <ele>2537.6</ele>
        <time>2022-08-16T08:49:17Z</time>
      </trkpt>
      <trkpt lat="44.47414" lon="6.85436">
        <ele>2538</ele>
        <time>2022-08-16T08:49:18Z</time>
      </trkpt>
      <trkpt lat="44.47414" lon="6.85438">
        <ele>2538.2</ele>
        <time>2022-08-16T08:49:19Z</time>
      </trkpt>
      <trkpt lat="44.47414" lon="6.8544">
        <ele>2538.4</ele>
        <time>2022-08-16T08:49:20Z</time>
      </trkpt>
      <trkpt lat="44.47414" lon="6.85441">
        <ele>2539</ele>
        <time>2022-08-16T08:49:21Z</time>
      </trkpt>
      <trkpt lat="44.47414" lon="6.85442">
        <ele>2539.2</ele>
        <time>2022-08-16T08:49:22Z</time>
      </trkpt>
      <trkpt lat="44.47413" lon="6.85443">
        <ele>2539.2</ele>
        <time>2022-08-16T08:49:23Z</time>
      </trkpt>
      <trkpt lat="44.47414" lon="6.85445">
        <ele>2539.4</ele>
        <time>2022-08-16T08:49:24Z</time>
      </trkpt>
      <trkpt lat="44.47414" lon="6.85446">
        <ele>2539.6</ele>
        <time>2022-08-16T08:49:25Z</time>
      </trkpt>
      <trkpt lat="44.47414" lon="6.85448">
        <ele>2539.6</ele>
        <time>2022-08-16T08:49:26Z</time>
      </trkpt>
      <trkpt lat="44.47415" lon="6.85449">
        <ele>2539.6</ele>
        <time>2022-08-16T08:49:27Z</time>
      </trkpt>
      <trkpt lat="44.47415" lon="6.85451">
        <ele>2539.8</ele>
        <time>2022-08-16T08:49:28Z</time>
      </trkpt>
      <trkpt lat="44.47415" lon="6.85452">
        <ele>2540</ele>
        <time>2022-08-16T08:49:29Z</time>
      </trkpt>
      <trkpt lat="44.47414" lon="6.85452">
        <ele>2540</ele>
        <time>2022-08-16T08:49:30Z</time>
      </trkpt>
      <trkpt lat="44.47413" lon="6.85453">
        <ele>2540.2</ele>
        <time>2022-08-16T08:49:31Z</time>
      </trkpt>
      <trkpt lat="44.47413" lon="6.85453">
        <ele>2540</ele>
        <time>2022-08-16T08:49:32Z</time>
      </trkpt>
      <trkpt lat="44.47412" lon="6.85452">
        <ele>2540.2</ele>
        <time>2022-08-16T08:49:33Z</time>
      </trkpt>
      <trkpt lat="44.47411" lon="6.85451">
        <ele>2540.2</ele>
        <time>2022-08-16T08:49:34Z</time>
      </trkpt>
      <trkpt lat="44.47411" lon="6.8545">
        <ele>2540.4</ele>
        <time>2022-08-16T08:49:35Z</time>
      </trkpt>
      <trkpt lat="44.47411" lon="6.85449">
        <ele>2540.4</ele>
        <time>2022-08-16T08:49:36Z</time>
      </trkpt>
      <trkpt lat="44.47411" lon="6.85447">
        <ele>2540.4</ele>
        <time>2022-08-16T08:49:37Z</time>
      </trkpt>
      <trkpt lat="44.47411" lon="6.85446">
        <ele>2540.4</ele>
        <time>2022-08-16T08:49:38Z</time>
      </trkpt>
      <trkpt lat="44.47411" lon="6.85444">
        <ele>2540.6</ele>
        <time>2022-08-16T08:49:39Z</time>
      </trkpt>
      <trkpt lat="44.47411" lon="6.85443">
        <ele>2540.6</ele>
        <time>2022-08-16T08:49:40Z</time>
      </trkpt>
      <trkpt lat="44.47411" lon="6.85441">
        <ele>2540.8</ele>
        <time>2022-08-16T08:49:41Z</time>
      </trkpt>
      <trkpt lat="44.47411" lon="6.8544">
        <ele>2540.8</ele>
        <time>2022-08-16T08:49:42Z</time>
      </trkpt>
      <trkpt lat="44.47411" lon="6.85439">
        <ele>2541.2</ele>
        <time>2022-08-16T08:49:43Z</time>
      </trkpt>
      <trkpt lat="44.47411" lon="6.85438">
        <ele>2541.6</ele>
        <time>2022-08-16T08:49:44Z</time>
      </trkpt>
      <trkpt lat="44.4741" lon="6.85436">
        <ele>2541.6</ele>
        <time>2022-08-16T08:49:45Z</time>
      </trkpt>
      <trkpt lat="44.4741" lon="6.85434">
        <ele>2541.4</ele>
        <time>2022-08-16T08:49:46Z</time>
      </trkpt>
      <trkpt lat="44.4741" lon="6.85433">
        <ele>2541.6</ele>
        <time>2022-08-16T08:49:47Z</time>
      </trkpt>
      <trkpt lat="44.4741" lon="6.85431">
        <ele>2541.8</ele>
        <time>2022-08-16T08:49:48Z</time>
      </trkpt>
      <trkpt lat="44.4741" lon="6.8543">
        <ele>2541.8</ele>
        <time>2022-08-16T08:49:49Z</time>
      </trkpt>
      <trkpt lat="44.4741" lon="6.85428">
        <ele>2542</ele>
        <time>2022-08-16T08:49:50Z</time>
      </trkpt>
      <trkpt lat="44.4741" lon="6.85427">
        <ele>2542</ele>
        <time>2022-08-16T08:49:51Z</time>
      </trkpt>
      <trkpt lat="44.47411" lon="6.85425">
        <ele>2542</ele>
        <time>2022-08-16T08:49:52Z</time>
      </trkpt>
      <trkpt lat="44.47411" lon="6.85424">
        <ele>2542.4</ele>
        <time>2022-08-16T08:49:53Z</time>
      </trkpt>
      <trkpt lat="44.47411" lon="6.85423">
        <ele>2542.4</ele>
        <time>2022-08-16T08:49:54Z</time>
      </trkpt>
      <trkpt lat="44.4741" lon="6.85421">
        <ele>2542.4</ele>
        <time>2022-08-16T08:49:55Z</time>
      </trkpt>
      <trkpt lat="44.4741" lon="6.8542">
        <ele>2542.4</ele>
        <time>2022-08-16T08:49:56Z</time>
      </trkpt>
      <trkpt lat="44.4741" lon="6.85418">
        <ele>2542.4</ele>
        <time>2022-08-16T08:49:57Z</time>
      </trkpt>
      <trkpt lat="44.4741" lon="6.85417">
        <ele>2542.6</ele>
        <time>2022-08-16T08:49:58Z</time>
      </trkpt>
      <trkpt lat="44.4741" lon="6.85416">
        <ele>2542.6</ele>
        <time>2022-08-16T08:49:59Z</time>
      </trkpt>
      <trkpt lat="44.4741" lon="6.85415">
        <ele>2542.8</ele>
        <time>2022-08-16T08:50:00Z</time>
      </trkpt>
      <trkpt lat="44.47409" lon="6.85413">
        <ele>2542.8</ele>
        <time>2022-08-16T08:50:01Z</time>
      </trkpt>
      <trkpt lat="44.47409" lon="6.85411">
        <ele>2543</ele>
        <time>2022-08-16T08:50:02Z</time>
      </trkpt>
      <trkpt lat="44.47409" lon="6.8541">
        <ele>2543.2</ele>
        <time>2022-08-16T08:50:03Z</time>
      </trkpt>
      <trkpt lat="44.47409" lon="6.85408">
        <ele>2543.4</ele>
        <time>2022-08-16T08:50:04Z</time>
      </trkpt>
      <trkpt lat="44.47409" lon="6.85407">
        <ele>2543.4</ele>
        <time>2022-08-16T08:50:05Z</time>
      </trkpt>
      <trkpt lat="44.47409" lon="6.85406">
        <ele>2543.6</ele>
        <time>2022-08-16T08:50:06Z</time>
      </trkpt>
      <trkpt lat="44.47409" lon="6.85404">
        <ele>2543.8</ele>
        <time>2022-08-16T08:50:07Z</time>
      </trkpt>
      <trkpt lat="44.47409" lon="6.85403">
        <ele>2544</ele>
        <time>2022-08-16T08:50:08Z</time>
      </trkpt>
      <trkpt lat="44.4741" lon="6.85401">
        <ele>2544.4</ele>
        <time>2022-08-16T08:50:09Z</time>
      </trkpt>
      <trkpt lat="44.4741" lon="6.854">
        <ele>2544.6</ele>
        <time>2022-08-16T08:50:10Z</time>
      </trkpt>
      <trkpt lat="44.47411" lon="6.85399">
        <ele>2544.8</ele>
        <time>2022-08-16T08:50:11Z</time>
      </trkpt>
      <trkpt lat="44.47411" lon="6.85398">
        <ele>2545</ele>
        <time>2022-08-16T08:50:12Z</time>
      </trkpt>
      <trkpt lat="44.47412" lon="6.85397">
        <ele>2545</ele>
        <time>2022-08-16T08:50:13Z</time>
      </trkpt>
      <trkpt lat="44.47412" lon="6.85395">
        <ele>2545.2</ele>
        <time>2022-08-16T08:50:14Z</time>
      </trkpt>
      <trkpt lat="44.47413" lon="6.85394">
        <ele>2545.2</ele>
        <time>2022-08-16T08:50:15Z</time>
      </trkpt>
      <trkpt lat="44.47414" lon="6.85392">
        <ele>2545.2</ele>
        <time>2022-08-16T08:50:16Z</time>
      </trkpt>
      <trkpt lat="44.47414" lon="6.8539">
        <ele>2545.4</ele>
        <time>2022-08-16T08:50:17Z</time>
      </trkpt>
      <trkpt lat="44.47415" lon="6.85389">
        <ele>2545.6</ele>
        <time>2022-08-16T08:50:18Z</time>
      </trkpt>
      <trkpt lat="44.47416" lon="6.85388">
        <ele>2545.6</ele>
        <time>2022-08-16T08:50:19Z</time>
      </trkpt>
      <trkpt lat="44.47417" lon="6.85386">
        <ele>2545.6</ele>
        <time>2022-08-16T08:50:20Z</time>
      </trkpt>
      <trkpt lat="44.47418" lon="6.85385">
        <ele>2545.6</ele>
        <time>2022-08-16T08:50:21Z</time>
      </trkpt>
      <trkpt lat="44.47419" lon="6.85384">
        <ele>2545.8</ele>
        <time>2022-08-16T08:50:22Z</time>
      </trkpt>
      <trkpt lat="44.4742" lon="6.85382">
        <ele>2545.8</ele>
        <time>2022-08-16T08:50:23Z</time>
      </trkpt>
      <trkpt lat="44.47421" lon="6.85381">
        <ele>2546</ele>
        <time>2022-08-16T08:50:24Z</time>
      </trkpt>
      <trkpt lat="44.47421" lon="6.8538">
        <ele>2545.8</ele>
        <time>2022-08-16T08:50:25Z</time>
      </trkpt>
      <trkpt lat="44.47422" lon="6.85379">
        <ele>2546</ele>
        <time>2022-08-16T08:50:26Z</time>
      </trkpt>
      <trkpt lat="44.47423" lon="6.85378">
        <ele>2546</ele>
        <time>2022-08-16T08:50:27Z</time>
      </trkpt>
      <trkpt lat="44.47423" lon="6.85376">
        <ele>2546</ele>
        <time>2022-08-16T08:50:28Z</time>
      </trkpt>
      <trkpt lat="44.47424" lon="6.85374">
        <ele>2546.4</ele>
        <time>2022-08-16T08:50:30Z</time>
      </trkpt>
      <trkpt lat="44.47425" lon="6.85373">
        <ele>2546.4</ele>
        <time>2022-08-16T08:50:31Z</time>
      </trkpt>
      <trkpt lat="44.47426" lon="6.85372">
        <ele>2546.6</ele>
        <time>2022-08-16T08:50:32Z</time>
      </trkpt>
      <trkpt lat="44.47427" lon="6.8537">
        <ele>2546.6</ele>
        <time>2022-08-16T08:50:33Z</time>
      </trkpt>
      <trkpt lat="44.47427" lon="6.85369">
        <ele>2546.6</ele>
        <time>2022-08-16T08:50:34Z</time>
      </trkpt>
      <trkpt lat="44.47428" lon="6.85368">
        <ele>2546.6</ele>
        <time>2022-08-16T08:50:35Z</time>
      </trkpt>
      <trkpt lat="44.47429" lon="6.85367">
        <ele>2546.6</ele>
        <time>2022-08-16T08:50:36Z</time>
      </trkpt>
      <trkpt lat="44.47429" lon="6.85366">
        <ele>2546.8</ele>
        <time>2022-08-16T08:50:37Z</time>
      </trkpt>
      <trkpt lat="44.4743" lon="6.85365">
        <ele>2547</ele>
        <time>2022-08-16T08:50:38Z</time>
      </trkpt>
      <trkpt lat="44.47431" lon="6.85364">
        <ele>2547.2</ele>
        <time>2022-08-16T08:50:39Z</time>
      </trkpt>
      <trkpt lat="44.47432" lon="6.85363">
        <ele>2547.4</ele>
        <time>2022-08-16T08:50:40Z</time>
      </trkpt>
      <trkpt lat="44.47432" lon="6.85362">
        <ele>2547.6</ele>
        <time>2022-08-16T08:50:41Z</time>
      </trkpt>
      <trkpt lat="44.47433" lon="6.8536">
        <ele>2547.6</ele>
        <time>2022-08-16T08:50:42Z</time>
      </trkpt>
      <trkpt lat="44.47433" lon="6.85359">
        <ele>2547.6</ele>
        <time>2022-08-16T08:50:43Z</time>
      </trkpt>
      <trkpt lat="44.47434" lon="6.85358">
        <ele>2548</ele>
        <time>2022-08-16T08:50:44Z</time>
      </trkpt>
      <trkpt lat="44.47434" lon="6.85357">
        <ele>2548</ele>
        <time>2022-08-16T08:50:45Z</time>
      </trkpt>
      <trkpt lat="44.47435" lon="6.85356">
        <ele>2548.2</ele>
        <time>2022-08-16T08:50:46Z</time>
      </trkpt>
      <trkpt lat="44.47435" lon="6.85355">
        <ele>2548.2</ele>
        <time>2022-08-16T08:50:47Z</time>
      </trkpt>
      <trkpt lat="44.47435" lon="6.85355">
        <ele>2548.2</ele>
        <time>2022-08-16T08:50:48Z</time>
      </trkpt>
      <trkpt lat="44.47434" lon="6.85356">
        <ele>2548.6</ele>
        <time>2022-08-16T08:50:51Z</time>
      </trkpt>
      <trkpt lat="44.47433" lon="6.85357">
        <ele>2548.8</ele>
        <time>2022-08-16T08:50:52Z</time>
      </trkpt>
      <trkpt lat="44.47433" lon="6.85358">
        <ele>2549</ele>
        <time>2022-08-16T08:50:53Z</time>
      </trkpt>
      <trkpt lat="44.47432" lon="6.85359">
        <ele>2549.2</ele>
        <time>2022-08-16T08:50:54Z</time>
      </trkpt>
      <trkpt lat="44.47432" lon="6.8536">
        <ele>2549.6</ele>
        <time>2022-08-16T08:50:55Z</time>
      </trkpt>
      <trkpt lat="44.47431" lon="6.85361">
        <ele>2549.8</ele>
        <time>2022-08-16T08:50:56Z</time>
      </trkpt>
      <trkpt lat="44.4743" lon="6.85362">
        <ele>2549.8</ele>
        <time>2022-08-16T08:50:57Z</time>
      </trkpt>
      <trkpt lat="44.4743" lon="6.85363">
        <ele>2550</ele>
        <time>2022-08-16T08:50:58Z</time>
      </trkpt>
      <trkpt lat="44.47429" lon="6.85363">
        <ele>2550</ele>
        <time>2022-08-16T08:50:59Z</time>
      </trkpt>
      <trkpt lat="44.47428" lon="6.85364">
        <ele>2550.2</ele>
        <time>2022-08-16T08:51:00Z</time>
      </trkpt>
      <trkpt lat="44.47428" lon="6.85365">
        <ele>2550.2</ele>
        <time>2022-08-16T08:51:01Z</time>
      </trkpt>
      <trkpt lat="44.47427" lon="6.85366">
        <ele>2550.2</ele>
        <time>2022-08-16T08:51:02Z</time>
      </trkpt>
      <trkpt lat="44.47426" lon="6.85367">
        <ele>2550.4</ele>
        <time>2022-08-16T08:51:03Z</time>
      </trkpt>
      <trkpt lat="44.47425" lon="6.85368">
        <ele>2550.6</ele>
        <time>2022-08-16T08:51:04Z</time>
      </trkpt>
      <trkpt lat="44.47424" lon="6.85369">
        <ele>2550.6</ele>
        <time>2022-08-16T08:51:05Z</time>
      </trkpt>
      <trkpt lat="44.47423" lon="6.8537">
        <ele>2550.6</ele>
        <time>2022-08-16T08:51:06Z</time>
      </trkpt>
      <trkpt lat="44.47423" lon="6.85371">
        <ele>2550.8</ele>
        <time>2022-08-16T08:51:07Z</time>
      </trkpt>
      <trkpt lat="44.47422" lon="6.85372">
        <ele>2551</ele>
        <time>2022-08-16T08:51:08Z</time>
      </trkpt>
      <trkpt lat="44.47422" lon="6.85372">
        <ele>2551.2</ele>
        <time>2022-08-16T08:51:09Z</time>
      </trkpt>
      <trkpt lat="44.47421" lon="6.85373">
        <ele>2551.6</ele>
        <time>2022-08-16T08:51:10Z</time>
      </trkpt>
      <trkpt lat="44.4742" lon="6.85374">
        <ele>2551.6</ele>
        <time>2022-08-16T08:51:11Z</time>
      </trkpt>
      <trkpt lat="44.47419" lon="6.85375">
        <ele>2551.8</ele>
        <time>2022-08-16T08:51:12Z</time>
      </trkpt>
      <trkpt lat="44.47418" lon="6.85376">
        <ele>2551.8</ele>
        <time>2022-08-16T08:51:13Z</time>
      </trkpt>
      <trkpt lat="44.47417" lon="6.85377">
        <ele>2552.2</ele>
        <time>2022-08-16T08:51:14Z</time>
      </trkpt>
      <trkpt lat="44.47416" lon="6.85378">
        <ele>2552.2</ele>
        <time>2022-08-16T08:51:15Z</time>
      </trkpt>
      <trkpt lat="44.47416" lon="6.85379">
        <ele>2552.4</ele>
        <time>2022-08-16T08:51:16Z</time>
      </trkpt>
      <trkpt lat="44.47415" lon="6.8538">
        <ele>2552.6</ele>
        <time>2022-08-16T08:51:17Z</time>
      </trkpt>
      <trkpt lat="44.47414" lon="6.85383">
        <ele>2552.6</ele>
        <time>2022-08-16T08:51:18Z</time>
      </trkpt>
      <trkpt lat="44.47413" lon="6.85384">
        <ele>2552.8</ele>
        <time>2022-08-16T08:51:19Z</time>
      </trkpt>
      <trkpt lat="44.47412" lon="6.85385">
        <ele>2552.8</ele>
        <time>2022-08-16T08:51:20Z</time>
      </trkpt>
      <trkpt lat="44.47412" lon="6.85386">
        <ele>2553</ele>
        <time>2022-08-16T08:51:21Z</time>
      </trkpt>
      <trkpt lat="44.4741" lon="6.85387">
        <ele>2553.2</ele>
        <time>2022-08-16T08:51:22Z</time>
      </trkpt>
      <trkpt lat="44.4741" lon="6.85388">
        <ele>2553.6</ele>
        <time>2022-08-16T08:51:23Z</time>
      </trkpt>
      <trkpt lat="44.47409" lon="6.85389">
        <ele>2553.6</ele>
        <time>2022-08-16T08:51:24Z</time>
      </trkpt>
      <trkpt lat="44.47408" lon="6.8539">
        <ele>2553.8</ele>
        <time>2022-08-16T08:51:25Z</time>
      </trkpt>
      <trkpt lat="44.47407" lon="6.85391">
        <ele>2554</ele>
        <time>2022-08-16T08:51:26Z</time>
      </trkpt>
      <trkpt lat="44.47406" lon="6.85391">
        <ele>2554.2</ele>
        <time>2022-08-16T08:51:27Z</time>
      </trkpt>
      <trkpt lat="44.47405" lon="6.85392">
        <ele>2554.2</ele>
        <time>2022-08-16T08:51:28Z</time>
      </trkpt>
      <trkpt lat="44.47403" lon="6.85393">
        <ele>2554.4</ele>
        <time>2022-08-16T08:51:29Z</time>
      </trkpt>
      <trkpt lat="44.47402" lon="6.85393">
        <ele>2554.6</ele>
        <time>2022-08-16T08:51:30Z</time>
      </trkpt>
      <trkpt lat="44.47401" lon="6.85395">
        <ele>2554.8</ele>
        <time>2022-08-16T08:51:31Z</time>
      </trkpt>
      <trkpt lat="44.47401" lon="6.85396">
        <ele>2555</ele>
        <time>2022-08-16T08:51:32Z</time>
      </trkpt>
      <trkpt lat="44.474" lon="6.85397">
        <ele>2555</ele>
        <time>2022-08-16T08:51:33Z</time>
      </trkpt>
      <trkpt lat="44.47399" lon="6.85399">
        <ele>2555.4</ele>
        <time>2022-08-16T08:51:34Z</time>
      </trkpt>
      <trkpt lat="44.47398" lon="6.854">
        <ele>2555.4</ele>
        <time>2022-08-16T08:51:35Z</time>
      </trkpt>
      <trkpt lat="44.47398" lon="6.85401">
        <ele>2555.6</ele>
        <time>2022-08-16T08:51:36Z</time>
      </trkpt>
      <trkpt lat="44.47397" lon="6.85402">
        <ele>2555.8</ele>
        <time>2022-08-16T08:51:37Z</time>
      </trkpt>
      <trkpt lat="44.47396" lon="6.85403">
        <ele>2555.8</ele>
        <time>2022-08-16T08:51:38Z</time>
      </trkpt>
      <trkpt lat="44.47396" lon="6.85404">
        <ele>2556</ele>
        <time>2022-08-16T08:51:39Z</time>
      </trkpt>
      <trkpt lat="44.47396" lon="6.85406">
        <ele>2556</ele>
        <time>2022-08-16T08:51:40Z</time>
      </trkpt>
      <trkpt lat="44.47395" lon="6.85407">
        <ele>2556.2</ele>
        <time>2022-08-16T08:51:41Z</time>
      </trkpt>
      <trkpt lat="44.47395" lon="6.85408">
        <ele>2556.2</ele>
        <time>2022-08-16T08:51:42Z</time>
      </trkpt>
      <trkpt lat="44.47395" lon="6.8541">
        <ele>2556.6</ele>
        <time>2022-08-16T08:51:43Z</time>
      </trkpt>
      <trkpt lat="44.47394" lon="6.85411">
        <ele>2556.8</ele>
        <time>2022-08-16T08:51:44Z</time>
      </trkpt>
      <trkpt lat="44.47393" lon="6.85412">
        <ele>2556.8</ele>
        <time>2022-08-16T08:51:45Z</time>
      </trkpt>
      <trkpt lat="44.47393" lon="6.85414">
        <ele>2557</ele>
        <time>2022-08-16T08:51:46Z</time>
      </trkpt>
      <trkpt lat="44.47393" lon="6.85416">
        <ele>2557.2</ele>
        <time>2022-08-16T08:51:47Z</time>
      </trkpt>
      <trkpt lat="44.47393" lon="6.85418">
        <ele>2557.4</ele>
        <time>2022-08-16T08:51:48Z</time>
      </trkpt>
      <trkpt lat="44.47393" lon="6.85421">
        <ele>2557.4</ele>
        <time>2022-08-16T08:51:49Z</time>
      </trkpt>
      <trkpt lat="44.47393" lon="6.85423">
        <ele>2557.6</ele>
        <time>2022-08-16T08:51:50Z</time>
      </trkpt>
      <trkpt lat="44.47392" lon="6.85425">
        <ele>2557.8</ele>
        <time>2022-08-16T08:51:51Z</time>
      </trkpt>
      <trkpt lat="44.47392" lon="6.85427">
        <ele>2558</ele>
        <time>2022-08-16T08:51:52Z</time>
      </trkpt>
      <trkpt lat="44.47392" lon="6.85429">
        <ele>2558</ele>
        <time>2022-08-16T08:51:53Z</time>
      </trkpt>
      <trkpt lat="44.47391" lon="6.8543">
        <ele>2558.4</ele>
        <time>2022-08-16T08:51:54Z</time>
      </trkpt>
      <trkpt lat="44.47391" lon="6.85432">
        <ele>2558.6</ele>
        <time>2022-08-16T08:51:55Z</time>
      </trkpt>
      <trkpt lat="44.47391" lon="6.85434">
        <ele>2558.6</ele>
        <time>2022-08-16T08:51:56Z</time>
      </trkpt>
      <trkpt lat="44.47391" lon="6.85435">
        <ele>2558.6</ele>
        <time>2022-08-16T08:51:57Z</time>
      </trkpt>
      <trkpt lat="44.4739" lon="6.85437">
        <ele>2558.8</ele>
        <time>2022-08-16T08:51:58Z</time>
      </trkpt>
      <trkpt lat="44.4739" lon="6.85438">
        <ele>2558.8</ele>
        <time>2022-08-16T08:51:59Z</time>
      </trkpt>
      <trkpt lat="44.47389" lon="6.85439">
        <ele>2559</ele>
        <time>2022-08-16T08:52:00Z</time>
      </trkpt>
      <trkpt lat="44.47389" lon="6.8544">
        <ele>2559</ele>
        <time>2022-08-16T08:52:01Z</time>
      </trkpt>
      <trkpt lat="44.47388" lon="6.85442">
        <ele>2559.2</ele>
        <time>2022-08-16T08:52:02Z</time>
      </trkpt>
      <trkpt lat="44.47388" lon="6.85443">
        <ele>2559.2</ele>
        <time>2022-08-16T08:52:03Z</time>
      </trkpt>
      <trkpt lat="44.47388" lon="6.85444">
        <ele>2559.4</ele>
        <time>2022-08-16T08:52:04Z</time>
      </trkpt>
      <trkpt lat="44.47388" lon="6.85445">
        <ele>2559.4</ele>
        <time>2022-08-16T08:52:05Z</time>
      </trkpt>
      <trkpt lat="44.47388" lon="6.85447">
        <ele>2559.8</ele>
        <time>2022-08-16T08:52:06Z</time>
      </trkpt>
      <trkpt lat="44.47388" lon="6.85449">
        <ele>2560.2</ele>
        <time>2022-08-16T08:52:07Z</time>
      </trkpt>
      <trkpt lat="44.47388" lon="6.85451">
        <ele>2560.4</ele>
        <time>2022-08-16T08:52:08Z</time>
      </trkpt>
      <trkpt lat="44.47388" lon="6.85453">
        <ele>2560.6</ele>
        <time>2022-08-16T08:52:09Z</time>
      </trkpt>
      <trkpt lat="44.47388" lon="6.85455">
        <ele>2561</ele>
        <time>2022-08-16T08:52:10Z</time>
      </trkpt>
      <trkpt lat="44.47388" lon="6.85456">
        <ele>2561</ele>
        <time>2022-08-16T08:52:11Z</time>
      </trkpt>
      <trkpt lat="44.47388" lon="6.85458">
        <ele>2561.2</ele>
        <time>2022-08-16T08:52:12Z</time>
      </trkpt>
      <trkpt lat="44.47388" lon="6.8546">
        <ele>2561.6</ele>
        <time>2022-08-16T08:52:13Z</time>
      </trkpt>
      <trkpt lat="44.47389" lon="6.85462">
        <ele>2561.6</ele>
        <time>2022-08-16T08:52:14Z</time>
      </trkpt>
      <trkpt lat="44.47389" lon="6.85463">
        <ele>2561.8</ele>
        <time>2022-08-16T08:52:15Z</time>
      </trkpt>
      <trkpt lat="44.47389" lon="6.85465">
        <ele>2562</ele>
        <time>2022-08-16T08:52:16Z</time>
      </trkpt>
      <trkpt lat="44.4739" lon="6.85467">
        <ele>2562</ele>
        <time>2022-08-16T08:52:17Z</time>
      </trkpt>
      <trkpt lat="44.4739" lon="6.85469">
        <ele>2562.2</ele>
        <time>2022-08-16T08:52:18Z</time>
      </trkpt>
      <trkpt lat="44.47391" lon="6.8547">
        <ele>2562.2</ele>
        <time>2022-08-16T08:52:19Z</time>
      </trkpt>
      <trkpt lat="44.4739" lon="6.85472">
        <ele>2562.2</ele>
        <time>2022-08-16T08:52:20Z</time>
      </trkpt>
      <trkpt lat="44.47389" lon="6.85472">
        <ele>2562.4</ele>
        <time>2022-08-16T08:52:21Z</time>
      </trkpt>
      <trkpt lat="44.47388" lon="6.85471">
        <ele>2562.4</ele>
        <time>2022-08-16T08:52:22Z</time>
      </trkpt>
      <trkpt lat="44.47387" lon="6.85471">
        <ele>2562.6</ele>
        <time>2022-08-16T08:52:23Z</time>
      </trkpt>
      <trkpt lat="44.47387" lon="6.8547">
        <ele>2563</ele>
        <time>2022-08-16T08:52:24Z</time>
      </trkpt>
      <trkpt lat="44.47387" lon="6.85469">
        <ele>2563</ele>
        <time>2022-08-16T08:52:25Z</time>
      </trkpt>
      <trkpt lat="44.47387" lon="6.85468">
        <ele>2563.2</ele>
        <time>2022-08-16T08:52:26Z</time>
      </trkpt>
      <trkpt lat="44.47387" lon="6.85467">
        <ele>2563.4</ele>
        <time>2022-08-16T08:52:27Z</time>
      </trkpt>
      <trkpt lat="44.47386" lon="6.85466">
        <ele>2563.6</ele>
        <time>2022-08-16T08:52:28Z</time>
      </trkpt>
      <trkpt lat="44.47386" lon="6.85465">
        <ele>2563.8</ele>
        <time>2022-08-16T08:52:29Z</time>
      </trkpt>
      <trkpt lat="44.47386" lon="6.85464">
        <ele>2564</ele>
        <time>2022-08-16T08:52:30Z</time>
      </trkpt>
      <trkpt lat="44.47386" lon="6.85463">
        <ele>2564</ele>
        <time>2022-08-16T08:52:31Z</time>
      </trkpt>
      <trkpt lat="44.47386" lon="6.85462">
        <ele>2564.4</ele>
        <time>2022-08-16T08:52:32Z</time>
      </trkpt>
      <trkpt lat="44.47385" lon="6.85461">
        <ele>2564.4</ele>
        <time>2022-08-16T08:52:33Z</time>
      </trkpt>
      <trkpt lat="44.47385" lon="6.85459">
        <ele>2564.4</ele>
        <time>2022-08-16T08:52:34Z</time>
      </trkpt>
      <trkpt lat="44.47385" lon="6.85458">
        <ele>2564.6</ele>
        <time>2022-08-16T08:52:35Z</time>
      </trkpt>
      <trkpt lat="44.47385" lon="6.85456">
        <ele>2564.6</ele>
        <time>2022-08-16T08:52:36Z</time>
      </trkpt>
      <trkpt lat="44.47385" lon="6.85454">
        <ele>2564.6</ele>
        <time>2022-08-16T08:52:37Z</time>
      </trkpt>
      <trkpt lat="44.47385" lon="6.85452">
        <ele>2565</ele>
        <time>2022-08-16T08:52:39Z</time>
      </trkpt>
      <trkpt lat="44.47386" lon="6.8545">
        <ele>2565</ele>
        <time>2022-08-16T08:52:40Z</time>
      </trkpt>
      <trkpt lat="44.47386" lon="6.85448">
        <ele>2565.2</ele>
        <time>2022-08-16T08:52:41Z</time>
      </trkpt>
      <trkpt lat="44.47386" lon="6.85445">
        <ele>2565.2</ele>
        <time>2022-08-16T08:52:42Z</time>
      </trkpt>
      <trkpt lat="44.47386" lon="6.85443">
        <ele>2565.2</ele>
        <time>2022-08-16T08:52:43Z</time>
      </trkpt>
      <trkpt lat="44.47387" lon="6.85441">
        <ele>2565.2</ele>
        <time>2022-08-16T08:52:44Z</time>
      </trkpt>
      <trkpt lat="44.47387" lon="6.85436">
        <ele>2565.2</ele>
        <time>2022-08-16T08:52:46Z</time>
      </trkpt>
      <trkpt lat="44.47387" lon="6.85434">
        <ele>2565</ele>
        <time>2022-08-16T08:52:47Z</time>
      </trkpt>
      <trkpt lat="44.47387" lon="6.85433">
        <ele>2565.2</ele>
        <time>2022-08-16T08:52:48Z</time>
      </trkpt>
      <trkpt lat="44.47386" lon="6.85431">
        <ele>2565.2</ele>
        <time>2022-08-16T08:52:49Z</time>
      </trkpt>
      <trkpt lat="44.47386" lon="6.85429">
        <ele>2565.2</ele>
        <time>2022-08-16T08:52:50Z</time>
      </trkpt>
      <trkpt lat="44.47386" lon="6.85427">
        <ele>2565.2</ele>
        <time>2022-08-16T08:52:51Z</time>
      </trkpt>
      <trkpt lat="44.47386" lon="6.85426">
        <ele>2565.2</ele>
        <time>2022-08-16T08:52:52Z</time>
      </trkpt>
      <trkpt lat="44.47385" lon="6.85422">
        <ele>2565.2</ele>
        <time>2022-08-16T08:52:54Z</time>
      </trkpt>
      <trkpt lat="44.47385" lon="6.85421">
        <ele>2565.2</ele>
        <time>2022-08-16T08:52:55Z</time>
      </trkpt>
      <trkpt lat="44.47385" lon="6.85421">
        <ele>2565.2</ele>
        <time>2022-08-16T08:52:56Z</time>
      </trkpt>
      <trkpt lat="44.47384" lon="6.85421">
        <ele>2565.2</ele>
        <time>2022-08-16T08:52:57Z</time>
      </trkpt>
      <trkpt lat="44.47383" lon="6.85421">
        <ele>2565.2</ele>
        <time>2022-08-16T08:52:58Z</time>
      </trkpt>
      <trkpt lat="44.47382" lon="6.85423">
        <ele>2565.2</ele>
        <time>2022-08-16T08:53:00Z</time>
      </trkpt>
      <trkpt lat="44.47382" lon="6.85424">
        <ele>2565.4</ele>
        <time>2022-08-16T08:53:01Z</time>
      </trkpt>
      <trkpt lat="44.47382" lon="6.85426">
        <ele>2565.8</ele>
        <time>2022-08-16T08:53:02Z</time>
      </trkpt>
      <trkpt lat="44.47381" lon="6.85427">
        <ele>2565.8</ele>
        <time>2022-08-16T08:53:03Z</time>
      </trkpt>
      <trkpt lat="44.47381" lon="6.85428">
        <ele>2566</ele>
        <time>2022-08-16T08:53:04Z</time>
      </trkpt>
      <trkpt lat="44.4738" lon="6.8543">
        <ele>2566.2</ele>
        <time>2022-08-16T08:53:05Z</time>
      </trkpt>
      <trkpt lat="44.4738" lon="6.85431">
        <ele>2566.8</ele>
        <time>2022-08-16T08:53:06Z</time>
      </trkpt>
      <trkpt lat="44.47379" lon="6.85433">
        <ele>2567</ele>
        <time>2022-08-16T08:53:07Z</time>
      </trkpt>
      <trkpt lat="44.47379" lon="6.85434">
        <ele>2567.2</ele>
        <time>2022-08-16T08:53:08Z</time>
      </trkpt>
      <trkpt lat="44.47379" lon="6.85436">
        <ele>2567.4</ele>
        <time>2022-08-16T08:53:09Z</time>
      </trkpt>
      <trkpt lat="44.47378" lon="6.85437">
        <ele>2567.6</ele>
        <time>2022-08-16T08:53:10Z</time>
      </trkpt>
      <trkpt lat="44.47378" lon="6.85438">
        <ele>2567.8</ele>
        <time>2022-08-16T08:53:11Z</time>
      </trkpt>
      <trkpt lat="44.47377" lon="6.8544">
        <ele>2568</ele>
        <time>2022-08-16T08:53:12Z</time>
      </trkpt>
      <trkpt lat="44.47377" lon="6.85441">
        <ele>2568.4</ele>
        <time>2022-08-16T08:53:13Z</time>
      </trkpt>
      <trkpt lat="44.47376" lon="6.85443">
        <ele>2568.4</ele>
        <time>2022-08-16T08:53:14Z</time>
      </trkpt>
      <trkpt lat="44.47376" lon="6.85445">
        <ele>2568.8</ele>
        <time>2022-08-16T08:53:15Z</time>
      </trkpt>
      <trkpt lat="44.47376" lon="6.85446">
        <ele>2569</ele>
        <time>2022-08-16T08:53:16Z</time>
      </trkpt>
      <trkpt lat="44.47375" lon="6.85448">
        <ele>2569.2</ele>
        <time>2022-08-16T08:53:17Z</time>
      </trkpt>
      <trkpt lat="44.47375" lon="6.8545">
        <ele>2569.2</ele>
        <time>2022-08-16T08:53:18Z</time>
      </trkpt>
      <trkpt lat="44.47375" lon="6.85451">
        <ele>2569.2</ele>
        <time>2022-08-16T08:53:19Z</time>
      </trkpt>
      <trkpt lat="44.47375" lon="6.85453">
        <ele>2569.6</ele>
        <time>2022-08-16T08:53:20Z</time>
      </trkpt>
      <trkpt lat="44.47375" lon="6.85455">
        <ele>2569.6</ele>
        <time>2022-08-16T08:53:21Z</time>
      </trkpt>
      <trkpt lat="44.47375" lon="6.85458">
        <ele>2569.8</ele>
        <time>2022-08-16T08:53:22Z</time>
      </trkpt>
      <trkpt lat="44.47375" lon="6.8546">
        <ele>2569.8</ele>
        <time>2022-08-16T08:53:23Z</time>
      </trkpt>
      <trkpt lat="44.47376" lon="6.85463">
        <ele>2570</ele>
        <time>2022-08-16T08:53:24Z</time>
      </trkpt>
      <trkpt lat="44.47376" lon="6.85465">
        <ele>2570.2</ele>
        <time>2022-08-16T08:53:25Z</time>
      </trkpt>
      <trkpt lat="44.47376" lon="6.85467">
        <ele>2570.4</ele>
        <time>2022-08-16T08:53:26Z</time>
      </trkpt>
      <trkpt lat="44.47376" lon="6.85469">
        <ele>2570.6</ele>
        <time>2022-08-16T08:53:27Z</time>
      </trkpt>
      <trkpt lat="44.47376" lon="6.85471">
        <ele>2570.8</ele>
        <time>2022-08-16T08:53:28Z</time>
      </trkpt>
      <trkpt lat="44.47377" lon="6.85473">
        <ele>2571</ele>
        <time>2022-08-16T08:53:29Z</time>
      </trkpt>
      <trkpt lat="44.47377" lon="6.85474">
        <ele>2571</ele>
        <time>2022-08-16T08:53:30Z</time>
      </trkpt>
      <trkpt lat="44.47378" lon="6.85476">
        <ele>2571</ele>
        <time>2022-08-16T08:53:31Z</time>
      </trkpt>
      <trkpt lat="44.47378" lon="6.85477">
        <ele>2571</ele>
        <time>2022-08-16T08:53:32Z</time>
      </trkpt>
      <trkpt lat="44.47378" lon="6.85478">
        <ele>2571.2</ele>
        <time>2022-08-16T08:53:33Z</time>
      </trkpt>
      <trkpt lat="44.47379" lon="6.8548">
        <ele>2571.4</ele>
        <time>2022-08-16T08:53:34Z</time>
      </trkpt>
      <trkpt lat="44.4738" lon="6.85481">
        <ele>2571.4</ele>
        <time>2022-08-16T08:53:35Z</time>
      </trkpt>
      <trkpt lat="44.4738" lon="6.85483">
        <ele>2571.6</ele>
        <time>2022-08-16T08:53:36Z</time>
      </trkpt>
      <trkpt lat="44.47381" lon="6.85484">
        <ele>2571.8</ele>
        <time>2022-08-16T08:53:37Z</time>
      </trkpt>
      <trkpt lat="44.47381" lon="6.85485">
        <ele>2572</ele>
        <time>2022-08-16T08:53:38Z</time>
      </trkpt>
      <trkpt lat="44.47382" lon="6.85487">
        <ele>2572.4</ele>
        <time>2022-08-16T08:53:39Z</time>
      </trkpt>
      <trkpt lat="44.47382" lon="6.85489">
        <ele>2572.6</ele>
        <time>2022-08-16T08:53:40Z</time>
      </trkpt>
      <trkpt lat="44.47381" lon="6.8549">
        <ele>2572.6</ele>
        <time>2022-08-16T08:53:41Z</time>
      </trkpt>
      <trkpt lat="44.47381" lon="6.8549">
        <ele>2572.8</ele>
        <time>2022-08-16T08:53:42Z</time>
      </trkpt>
      <trkpt lat="44.47382" lon="6.8549">
        <ele>2573</ele>
        <time>2022-08-16T08:53:45Z</time>
      </trkpt>
      <trkpt lat="44.47382" lon="6.8549">
        <ele>2574.6</ele>
        <time>2022-08-16T08:53:53Z</time>
      </trkpt>
      <trkpt lat="44.47381" lon="6.85488">
        <ele>2575</ele>
        <time>2022-08-16T08:54:01Z</time>
      </trkpt>
      <trkpt lat="44.4738" lon="6.85485">
        <ele>2575</ele>
        <time>2022-08-16T08:54:09Z</time>
      </trkpt>
      <trkpt lat="44.4738" lon="6.85484">
        <ele>2575</ele>
        <time>2022-08-16T08:54:10Z</time>
      </trkpt>
      <trkpt lat="44.47378" lon="6.85483">
        <ele>2575</ele>
        <time>2022-08-16T08:54:11Z</time>
      </trkpt>
      <trkpt lat="44.47377" lon="6.85482">
        <ele>2575.2</ele>
        <time>2022-08-16T08:54:12Z</time>
      </trkpt>
      <trkpt lat="44.47373" lon="6.85469">
        <ele>2575.4</ele>
        <time>2022-08-16T08:54:18Z</time>
      </trkpt>
      <trkpt lat="44.47372" lon="6.85466">
        <ele>2575.6</ele>
        <time>2022-08-16T08:54:19Z</time>
      </trkpt>
      <trkpt lat="44.47372" lon="6.85464">
        <ele>2575.6</ele>
        <time>2022-08-16T08:54:20Z</time>
      </trkpt>
      <trkpt lat="44.47371" lon="6.85462">
        <ele>2575.6</ele>
        <time>2022-08-16T08:54:21Z</time>
      </trkpt>
      <trkpt lat="44.47371" lon="6.8546">
        <ele>2575.6</ele>
        <time>2022-08-16T08:54:22Z</time>
      </trkpt>
      <trkpt lat="44.4737" lon="6.85458">
        <ele>2575.8</ele>
        <time>2022-08-16T08:54:23Z</time>
      </trkpt>
      <trkpt lat="44.4737" lon="6.85456">
        <ele>2576</ele>
        <time>2022-08-16T08:54:24Z</time>
      </trkpt>
      <trkpt lat="44.4737" lon="6.85454">
        <ele>2576</ele>
        <time>2022-08-16T08:54:25Z</time>
      </trkpt>
      <trkpt lat="44.47369" lon="6.85453">
        <ele>2576</ele>
        <time>2022-08-16T08:54:26Z</time>
      </trkpt>
      <trkpt lat="44.47369" lon="6.85449">
        <ele>2576.2</ele>
        <time>2022-08-16T08:54:28Z</time>
      </trkpt>
      <trkpt lat="44.47368" lon="6.85447">
        <ele>2576.2</ele>
        <time>2022-08-16T08:54:29Z</time>
      </trkpt>
      <trkpt lat="44.47368" lon="6.85446">
        <ele>2576.2</ele>
        <time>2022-08-16T08:54:30Z</time>
      </trkpt>
      <trkpt lat="44.47368" lon="6.85445">
        <ele>2576.2</ele>
        <time>2022-08-16T08:54:31Z</time>
      </trkpt>
      <trkpt lat="44.47368" lon="6.85442">
        <ele>2576.4</ele>
        <time>2022-08-16T08:54:33Z</time>
      </trkpt>
      <trkpt lat="44.47367" lon="6.85439">
        <ele>2576.4</ele>
        <time>2022-08-16T08:54:35Z</time>
      </trkpt>
      <trkpt lat="44.47366" lon="6.85438">
        <ele>2576.6</ele>
        <time>2022-08-16T08:54:36Z</time>
      </trkpt>
      <trkpt lat="44.47366" lon="6.85438">
        <ele>2576.6</ele>
        <time>2022-08-16T08:54:37Z</time>
      </trkpt>
      <trkpt lat="44.47365" lon="6.85439">
        <ele>2577.2</ele>
        <time>2022-08-16T08:54:38Z</time>
      </trkpt>
      <trkpt lat="44.47365" lon="6.8544">
        <ele>2577.6</ele>
        <time>2022-08-16T08:54:39Z</time>
      </trkpt>
      <trkpt lat="44.47365" lon="6.85442">
        <ele>2577.6</ele>
        <time>2022-08-16T08:54:40Z</time>
      </trkpt>
      <trkpt lat="44.47364" lon="6.85444">
        <ele>2577.8</ele>
        <time>2022-08-16T08:54:41Z</time>
      </trkpt>
      <trkpt lat="44.47364" lon="6.85445">
        <ele>2578.2</ele>
        <time>2022-08-16T08:54:42Z</time>
      </trkpt>
      <trkpt lat="44.47364" lon="6.85447">
        <ele>2578.2</ele>
        <time>2022-08-16T08:54:43Z</time>
      </trkpt>
      <trkpt lat="44.47364" lon="6.85449">
        <ele>2578.4</ele>
        <time>2022-08-16T08:54:44Z</time>
      </trkpt>
      <trkpt lat="44.47364" lon="6.85451">
        <ele>2578.4</ele>
        <time>2022-08-16T08:54:45Z</time>
      </trkpt>
      <trkpt lat="44.47364" lon="6.85453">
        <ele>2578.8</ele>
        <time>2022-08-16T08:54:46Z</time>
      </trkpt>
      <trkpt lat="44.47364" lon="6.85455">
        <ele>2578.8</ele>
        <time>2022-08-16T08:54:47Z</time>
      </trkpt>
      <trkpt lat="44.47365" lon="6.85457">
        <ele>2579</ele>
        <time>2022-08-16T08:54:48Z</time>
      </trkpt>
      <trkpt lat="44.47365" lon="6.85459">
        <ele>2579.2</ele>
        <time>2022-08-16T08:54:49Z</time>
      </trkpt>
      <trkpt lat="44.47365" lon="6.85461">
        <ele>2579.4</ele>
        <time>2022-08-16T08:54:50Z</time>
      </trkpt>
      <trkpt lat="44.47365" lon="6.85463">
        <ele>2579.6</ele>
        <time>2022-08-16T08:54:51Z</time>
      </trkpt>
      <trkpt lat="44.47365" lon="6.85465">
        <ele>2580</ele>
        <time>2022-08-16T08:54:52Z</time>
      </trkpt>
      <trkpt lat="44.47365" lon="6.85466">
        <ele>2580.2</ele>
        <time>2022-08-16T08:54:53Z</time>
      </trkpt>
      <trkpt lat="44.47365" lon="6.85468">
        <ele>2580.4</ele>
        <time>2022-08-16T08:54:54Z</time>
      </trkpt>
      <trkpt lat="44.47366" lon="6.85469">
        <ele>2580.4</ele>
        <time>2022-08-16T08:54:55Z</time>
      </trkpt>
      <trkpt lat="44.47366" lon="6.85471">
        <ele>2580.6</ele>
        <time>2022-08-16T08:54:56Z</time>
      </trkpt>
      <trkpt lat="44.47366" lon="6.85473">
        <ele>2580.4</ele>
        <time>2022-08-16T08:54:57Z</time>
      </trkpt>
      <trkpt lat="44.47366" lon="6.85474">
        <ele>2580.8</ele>
        <time>2022-08-16T08:54:58Z</time>
      </trkpt>
      <trkpt lat="44.47366" lon="6.85476">
        <ele>2581</ele>
        <time>2022-08-16T08:54:59Z</time>
      </trkpt>
      <trkpt lat="44.47366" lon="6.85477">
        <ele>2581</ele>
        <time>2022-08-16T08:55:00Z</time>
      </trkpt>
      <trkpt lat="44.47366" lon="6.85479">
        <ele>2581.2</ele>
        <time>2022-08-16T08:55:01Z</time>
      </trkpt>
      <trkpt lat="44.47366" lon="6.85481">
        <ele>2581.4</ele>
        <time>2022-08-16T08:55:02Z</time>
      </trkpt>
      <trkpt lat="44.47366" lon="6.85482">
        <ele>2581.4</ele>
        <time>2022-08-16T08:55:03Z</time>
      </trkpt>
      <trkpt lat="44.47366" lon="6.85484">
        <ele>2581.6</ele>
        <time>2022-08-16T08:55:04Z</time>
      </trkpt>
      <trkpt lat="44.47367" lon="6.85485">
        <ele>2581.6</ele>
        <time>2022-08-16T08:55:05Z</time>
      </trkpt>
      <trkpt lat="44.47367" lon="6.85487">
        <ele>2581.6</ele>
        <time>2022-08-16T08:55:06Z</time>
      </trkpt>
      <trkpt lat="44.47367" lon="6.85489">
        <ele>2581.8</ele>
        <time>2022-08-16T08:55:07Z</time>
      </trkpt>
      <trkpt lat="44.47367" lon="6.8549">
        <ele>2582</ele>
        <time>2022-08-16T08:55:08Z</time>
      </trkpt>
      <trkpt lat="44.47368" lon="6.85492">
        <ele>2582.2</ele>
        <time>2022-08-16T08:55:09Z</time>
      </trkpt>
      <trkpt lat="44.47369" lon="6.85493">
        <ele>2582.2</ele>
        <time>2022-08-16T08:55:10Z</time>
      </trkpt>
      <trkpt lat="44.47369" lon="6.85495">
        <ele>2582.4</ele>
        <time>2022-08-16T08:55:11Z</time>
      </trkpt>
      <trkpt lat="44.4737" lon="6.85497">
        <ele>2582.6</ele>
        <time>2022-08-16T08:55:12Z</time>
      </trkpt>
      <trkpt lat="44.47371" lon="6.85499">
        <ele>2582.6</ele>
        <time>2022-08-16T08:55:13Z</time>
      </trkpt>
      <trkpt lat="44.47371" lon="6.85501">
        <ele>2583.2</ele>
        <time>2022-08-16T08:55:14Z</time>
      </trkpt>
      <trkpt lat="44.47372" lon="6.85503">
        <ele>2583.2</ele>
        <time>2022-08-16T08:55:15Z</time>
      </trkpt>
      <trkpt lat="44.47372" lon="6.85504">
        <ele>2583.4</ele>
        <time>2022-08-16T08:55:16Z</time>
      </trkpt>
      <trkpt lat="44.47373" lon="6.85506">
        <ele>2583.4</ele>
        <time>2022-08-16T08:55:17Z</time>
      </trkpt>
      <trkpt lat="44.47373" lon="6.85507">
        <ele>2583.6</ele>
        <time>2022-08-16T08:55:18Z</time>
      </trkpt>
      <trkpt lat="44.47374" lon="6.85508">
        <ele>2583.8</ele>
        <time>2022-08-16T08:55:19Z</time>
      </trkpt>
      <trkpt lat="44.47375" lon="6.85509">
        <ele>2583.8</ele>
        <time>2022-08-16T08:55:20Z</time>
      </trkpt>
      <trkpt lat="44.47375" lon="6.85511">
        <ele>2583.8</ele>
        <time>2022-08-16T08:55:21Z</time>
      </trkpt>
      <trkpt lat="44.47376" lon="6.85512">
        <ele>2584</ele>
        <time>2022-08-16T08:55:22Z</time>
      </trkpt>
      <trkpt lat="44.47377" lon="6.85513">
        <ele>2584</ele>
        <time>2022-08-16T08:55:23Z</time>
      </trkpt>
      <trkpt lat="44.47378" lon="6.85514">
        <ele>2584.2</ele>
        <time>2022-08-16T08:55:24Z</time>
      </trkpt>
      <trkpt lat="44.47378" lon="6.85515">
        <ele>2584.2</ele>
        <time>2022-08-16T08:55:25Z</time>
      </trkpt>
      <trkpt lat="44.47379" lon="6.85517">
        <ele>2584.4</ele>
        <time>2022-08-16T08:55:26Z</time>
      </trkpt>
      <trkpt lat="44.4738" lon="6.85518">
        <ele>2584.6</ele>
        <time>2022-08-16T08:55:27Z</time>
      </trkpt>
      <trkpt lat="44.4738" lon="6.85519">
        <ele>2584.8</ele>
        <time>2022-08-16T08:55:28Z</time>
      </trkpt>
      <trkpt lat="44.47379" lon="6.8552">
        <ele>2585.2</ele>
        <time>2022-08-16T08:55:29Z</time>
      </trkpt>
      <trkpt lat="44.47377" lon="6.8552">
        <ele>2586.2</ele>
        <time>2022-08-16T08:55:39Z</time>
      </trkpt>
      <trkpt lat="44.47376" lon="6.85521">
        <ele>2587</ele>
        <time>2022-08-16T08:55:51Z</time>
      </trkpt>
      <trkpt lat="44.47376" lon="6.8552">
        <ele>2587.2</ele>
        <time>2022-08-16T08:55:58Z</time>
      </trkpt>
      <trkpt lat="44.47376" lon="6.85521">
        <ele>2587.2</ele>
        <time>2022-08-16T08:56:01Z</time>
      </trkpt>
      <trkpt lat="44.47376" lon="6.8552">
        <ele>2587.2</ele>
        <time>2022-08-16T08:56:13Z</time>
      </trkpt>
      <trkpt lat="44.47376" lon="6.8552">
        <ele>2587.2</ele>
        <time>2022-08-16T08:56:14Z</time>
      </trkpt>
      <trkpt lat="44.47376" lon="6.85521">
        <ele>2587</ele>
        <time>2022-08-16T08:56:23Z</time>
      </trkpt>
      <trkpt lat="44.47376" lon="6.85522">
        <ele>2587</ele>
        <time>2022-08-16T08:56:29Z</time>
      </trkpt>
      <trkpt lat="44.47376" lon="6.85521">
        <ele>2587</ele>
        <time>2022-08-16T08:56:33Z</time>
      </trkpt>
      <trkpt lat="44.47376" lon="6.85521">
        <ele>2587.2</ele>
        <time>2022-08-16T08:56:34Z</time>
      </trkpt>
      <trkpt lat="44.47376" lon="6.85521">
        <ele>2587</ele>
        <time>2022-08-16T08:56:36Z</time>
      </trkpt>
      <trkpt lat="44.47376" lon="6.85521">
        <ele>2587</ele>
        <time>2022-08-16T08:56:37Z</time>
      </trkpt>
      <trkpt lat="44.47376" lon="6.8552">
        <ele>2587</ele>
        <time>2022-08-16T08:56:40Z</time>
      </trkpt>
      <trkpt lat="44.47375" lon="6.8552">
        <ele>2587.2</ele>
        <time>2022-08-16T08:56:56Z</time>
      </trkpt>
      <trkpt lat="44.47375" lon="6.85519">
        <ele>2587.4</ele>
        <time>2022-08-16T08:56:57Z</time>
      </trkpt>
      <trkpt lat="44.47373" lon="6.85518">
        <ele>2587.4</ele>
        <time>2022-08-16T08:56:59Z</time>
      </trkpt>
      <trkpt lat="44.47369" lon="6.85513">
        <ele>2587.4</ele>
        <time>2022-08-16T08:57:03Z</time>
      </trkpt>
      <trkpt lat="44.47368" lon="6.85511">
        <ele>2587.4</ele>
        <time>2022-08-16T08:57:04Z</time>
      </trkpt>
      <trkpt lat="44.47367" lon="6.8551">
        <ele>2587.4</ele>
        <time>2022-08-16T08:57:05Z</time>
      </trkpt>
      <trkpt lat="44.47366" lon="6.85507">
        <ele>2587.4</ele>
        <time>2022-08-16T08:57:07Z</time>
      </trkpt>
      <trkpt lat="44.47362" lon="6.85501">
        <ele>2587.6</ele>
        <time>2022-08-16T08:57:11Z</time>
      </trkpt>
      <trkpt lat="44.47361" lon="6.85499">
        <ele>2587.4</ele>
        <time>2022-08-16T08:57:12Z</time>
      </trkpt>
      <trkpt lat="44.47361" lon="6.85498">
        <ele>2587.6</ele>
        <time>2022-08-16T08:57:13Z</time>
      </trkpt>
      <trkpt lat="44.4736" lon="6.85496">
        <ele>2587.6</ele>
        <time>2022-08-16T08:57:14Z</time>
      </trkpt>
      <trkpt lat="44.47359" lon="6.85494">
        <ele>2587.6</ele>
        <time>2022-08-16T08:57:15Z</time>
      </trkpt>
      <trkpt lat="44.47358" lon="6.85492">
        <ele>2588</ele>
        <time>2022-08-16T08:57:17Z</time>
      </trkpt>
      <trkpt lat="44.47357" lon="6.85491">
        <ele>2588</ele>
        <time>2022-08-16T08:57:18Z</time>
      </trkpt>
      <trkpt lat="44.47356" lon="6.8549">
        <ele>2588.2</ele>
        <time>2022-08-16T08:57:19Z</time>
      </trkpt>
      <trkpt lat="44.47355" lon="6.85491">
        <ele>2588.4</ele>
        <time>2022-08-16T08:57:20Z</time>
      </trkpt>
      <trkpt lat="44.47354" lon="6.85492">
        <ele>2588.6</ele>
        <time>2022-08-16T08:57:21Z</time>
      </trkpt>
      <trkpt lat="44.47355" lon="6.85493">
        <ele>2588.8</ele>
        <time>2022-08-16T08:57:22Z</time>
      </trkpt>
      <trkpt lat="44.47355" lon="6.85494">
        <ele>2589</ele>
        <time>2022-08-16T08:57:23Z</time>
      </trkpt>
      <trkpt lat="44.47356" lon="6.85496">
        <ele>2589.2</ele>
        <time>2022-08-16T08:57:24Z</time>
      </trkpt>
      <trkpt lat="44.47357" lon="6.85498">
        <ele>2589.4</ele>
        <time>2022-08-16T08:57:25Z</time>
      </trkpt>
      <trkpt lat="44.47357" lon="6.855">
        <ele>2589.4</ele>
        <time>2022-08-16T08:57:26Z</time>
      </trkpt>
      <trkpt lat="44.47358" lon="6.85502">
        <ele>2589.8</ele>
        <time>2022-08-16T08:57:27Z</time>
      </trkpt>
      <trkpt lat="44.47359" lon="6.85503">
        <ele>2590</ele>
        <time>2022-08-16T08:57:28Z</time>
      </trkpt>
      <trkpt lat="44.47359" lon="6.85505">
        <ele>2590.4</ele>
        <time>2022-08-16T08:57:29Z</time>
      </trkpt>
      <trkpt lat="44.4736" lon="6.85507">
        <ele>2590.6</ele>
        <time>2022-08-16T08:57:30Z</time>
      </trkpt>
      <trkpt lat="44.4736" lon="6.85509">
        <ele>2591</ele>
        <time>2022-08-16T08:57:31Z</time>
      </trkpt>
      <trkpt lat="44.47361" lon="6.85511">
        <ele>2591.2</ele>
        <time>2022-08-16T08:57:32Z</time>
      </trkpt>
      <trkpt lat="44.47362" lon="6.85512">
        <ele>2591.2</ele>
        <time>2022-08-16T08:57:33Z</time>
      </trkpt>
      <trkpt lat="44.47363" lon="6.85514">
        <ele>2591.4</ele>
        <time>2022-08-16T08:57:34Z</time>
      </trkpt>
      <trkpt lat="44.47364" lon="6.85515">
        <ele>2591.2</ele>
        <time>2022-08-16T08:57:35Z</time>
      </trkpt>
      <trkpt lat="44.47364" lon="6.85517">
        <ele>2591.4</ele>
        <time>2022-08-16T08:57:36Z</time>
      </trkpt>
      <trkpt lat="44.47365" lon="6.85518">
        <ele>2591.4</ele>
        <time>2022-08-16T08:57:37Z</time>
      </trkpt>
      <trkpt lat="44.47365" lon="6.8552">
        <ele>2591.4</ele>
        <time>2022-08-16T08:57:38Z</time>
      </trkpt>
      <trkpt lat="44.47366" lon="6.85522">
        <ele>2591.6</ele>
        <time>2022-08-16T08:57:39Z</time>
      </trkpt>
      <trkpt lat="44.47367" lon="6.85523">
        <ele>2591.6</ele>
        <time>2022-08-16T08:57:40Z</time>
      </trkpt>
      <trkpt lat="44.47367" lon="6.85525">
        <ele>2591.8</ele>
        <time>2022-08-16T08:57:41Z</time>
      </trkpt>
      <trkpt lat="44.47369" lon="6.85526">
        <ele>2592</ele>
        <time>2022-08-16T08:57:42Z</time>
      </trkpt>
      <trkpt lat="44.4737" lon="6.85528">
        <ele>2592</ele>
        <time>2022-08-16T08:57:43Z</time>
      </trkpt>
      <trkpt lat="44.47371" lon="6.8553">
        <ele>2592</ele>
        <time>2022-08-16T08:57:44Z</time>
      </trkpt>
      <trkpt lat="44.47373" lon="6.85532">
        <ele>2592.2</ele>
        <time>2022-08-16T08:57:45Z</time>
      </trkpt>
      <trkpt lat="44.47374" lon="6.85533">
        <ele>2592</ele>
        <time>2022-08-16T08:57:46Z</time>
      </trkpt>
      <trkpt lat="44.47375" lon="6.85534">
        <ele>2592.2</ele>
        <time>2022-08-16T08:57:47Z</time>
      </trkpt>
      <trkpt lat="44.47376" lon="6.85535">
        <ele>2592.2</ele>
        <time>2022-08-16T08:57:48Z</time>
      </trkpt>
      <trkpt lat="44.47382" lon="6.85538">
        <ele>2592.4</ele>
        <time>2022-08-16T08:57:52Z</time>
      </trkpt>
      <trkpt lat="44.47383" lon="6.85538">
        <ele>2592.4</ele>
        <time>2022-08-16T08:57:53Z</time>
      </trkpt>
      <trkpt lat="44.47384" lon="6.8554">
        <ele>2592.4</ele>
        <time>2022-08-16T08:57:54Z</time>
      </trkpt>
      <trkpt lat="44.47385" lon="6.85541">
        <ele>2592.6</ele>
        <time>2022-08-16T08:57:55Z</time>
      </trkpt>
      <trkpt lat="44.47385" lon="6.85543">
        <ele>2592.8</ele>
        <time>2022-08-16T08:57:56Z</time>
      </trkpt>
      <trkpt lat="44.47384" lon="6.85544">
        <ele>2593</ele>
        <time>2022-08-16T08:57:57Z</time>
      </trkpt>
      <trkpt lat="44.47383" lon="6.85545">
        <ele>2593</ele>
        <time>2022-08-16T08:57:58Z</time>
      </trkpt>
      <trkpt lat="44.47381" lon="6.85545">
        <ele>2593.2</ele>
        <time>2022-08-16T08:58:00Z</time>
      </trkpt>
      <trkpt lat="44.47379" lon="6.85543">
        <ele>2593.2</ele>
        <time>2022-08-16T08:58:02Z</time>
      </trkpt>
      <trkpt lat="44.47377" lon="6.85543">
        <ele>2593.6</ele>
        <time>2022-08-16T08:58:03Z</time>
      </trkpt>
      <trkpt lat="44.47376" lon="6.85542">
        <ele>2593.6</ele>
        <time>2022-08-16T08:58:04Z</time>
      </trkpt>
      <trkpt lat="44.47375" lon="6.85542">
        <ele>2593.8</ele>
        <time>2022-08-16T08:58:05Z</time>
      </trkpt>
      <trkpt lat="44.47374" lon="6.85541">
        <ele>2594</ele>
        <time>2022-08-16T08:58:06Z</time>
      </trkpt>
      <trkpt lat="44.47373" lon="6.8554">
        <ele>2594</ele>
        <time>2022-08-16T08:58:07Z</time>
      </trkpt>
      <trkpt lat="44.47371" lon="6.85539">
        <ele>2594.2</ele>
        <time>2022-08-16T08:58:08Z</time>
      </trkpt>
      <trkpt lat="44.4737" lon="6.85538">
        <ele>2594.2</ele>
        <time>2022-08-16T08:58:09Z</time>
      </trkpt>
      <trkpt lat="44.47369" lon="6.85538">
        <ele>2594.4</ele>
        <time>2022-08-16T08:58:10Z</time>
      </trkpt>
      <trkpt lat="44.47367" lon="6.85537">
        <ele>2594.4</ele>
        <time>2022-08-16T08:58:11Z</time>
      </trkpt>
      <trkpt lat="44.47366" lon="6.85536">
        <ele>2594.8</ele>
        <time>2022-08-16T08:58:12Z</time>
      </trkpt>
      <trkpt lat="44.47365" lon="6.85534">
        <ele>2595</ele>
        <time>2022-08-16T08:58:13Z</time>
      </trkpt>
      <trkpt lat="44.47364" lon="6.85533">
        <ele>2595.2</ele>
        <time>2022-08-16T08:58:14Z</time>
      </trkpt>
      <trkpt lat="44.47364" lon="6.85532">
        <ele>2595.4</ele>
        <time>2022-08-16T08:58:15Z</time>
      </trkpt>
      <trkpt lat="44.47363" lon="6.85531">
        <ele>2595.4</ele>
        <time>2022-08-16T08:58:16Z</time>
      </trkpt>
      <trkpt lat="44.47362" lon="6.85529">
        <ele>2595.4</ele>
        <time>2022-08-16T08:58:17Z</time>
      </trkpt>
      <trkpt lat="44.47362" lon="6.85528">
        <ele>2595.6</ele>
        <time>2022-08-16T08:58:18Z</time>
      </trkpt>
      <trkpt lat="44.47361" lon="6.85527">
        <ele>2595.8</ele>
        <time>2022-08-16T08:58:19Z</time>
      </trkpt>
      <trkpt lat="44.4736" lon="6.85525">
        <ele>2595.6</ele>
        <time>2022-08-16T08:58:20Z</time>
      </trkpt>
      <trkpt lat="44.47359" lon="6.85524">
        <ele>2595.8</ele>
        <time>2022-08-16T08:58:21Z</time>
      </trkpt>
      <trkpt lat="44.47359" lon="6.85523">
        <ele>2595.8</ele>
        <time>2022-08-16T08:58:22Z</time>
      </trkpt>
      <trkpt lat="44.47358" lon="6.85522">
        <ele>2595.8</ele>
        <time>2022-08-16T08:58:23Z</time>
      </trkpt>
      <trkpt lat="44.47357" lon="6.85521">
        <ele>2596.2</ele>
        <time>2022-08-16T08:58:24Z</time>
      </trkpt>
      <trkpt lat="44.47356" lon="6.8552">
        <ele>2596.8</ele>
        <time>2022-08-16T08:58:25Z</time>
      </trkpt>
      <trkpt lat="44.47356" lon="6.85518">
        <ele>2597</ele>
        <time>2022-08-16T08:58:26Z</time>
      </trkpt>
      <trkpt lat="44.47355" lon="6.85517">
        <ele>2597.2</ele>
        <time>2022-08-16T08:58:27Z</time>
      </trkpt>
      <trkpt lat="44.47354" lon="6.85515">
        <ele>2597.4</ele>
        <time>2022-08-16T08:58:28Z</time>
      </trkpt>
      <trkpt lat="44.47354" lon="6.85514">
        <ele>2597.4</ele>
        <time>2022-08-16T08:58:29Z</time>
      </trkpt>
      <trkpt lat="44.47353" lon="6.85512">
        <ele>2597.6</ele>
        <time>2022-08-16T08:58:30Z</time>
      </trkpt>
      <trkpt lat="44.47352" lon="6.85511">
        <ele>2598</ele>
        <time>2022-08-16T08:58:31Z</time>
      </trkpt>
      <trkpt lat="44.47351" lon="6.8551">
        <ele>2598.2</ele>
        <time>2022-08-16T08:58:32Z</time>
      </trkpt>
      <trkpt lat="44.4735" lon="6.85508">
        <ele>2598.2</ele>
        <time>2022-08-16T08:58:33Z</time>
      </trkpt>
      <trkpt lat="44.47349" lon="6.85507">
        <ele>2598.4</ele>
        <time>2022-08-16T08:58:34Z</time>
      </trkpt>
      <trkpt lat="44.47348" lon="6.85506">
        <ele>2598.4</ele>
        <time>2022-08-16T08:58:35Z</time>
      </trkpt>
      <trkpt lat="44.47348" lon="6.85504">
        <ele>2598.6</ele>
        <time>2022-08-16T08:58:36Z</time>
      </trkpt>
      <trkpt lat="44.47347" lon="6.85503">
        <ele>2598.6</ele>
        <time>2022-08-16T08:58:37Z</time>
      </trkpt>
      <trkpt lat="44.47346" lon="6.85501">
        <ele>2598.6</ele>
        <time>2022-08-16T08:58:38Z</time>
      </trkpt>
      <trkpt lat="44.47346" lon="6.85499">
        <ele>2598.6</ele>
        <time>2022-08-16T08:58:39Z</time>
      </trkpt>
      <trkpt lat="44.47345" lon="6.85497">
        <ele>2598.8</ele>
        <time>2022-08-16T08:58:40Z</time>
      </trkpt>
      <trkpt lat="44.47345" lon="6.85495">
        <ele>2599</ele>
        <time>2022-08-16T08:58:41Z</time>
      </trkpt>
      <trkpt lat="44.47344" lon="6.85493">
        <ele>2599.2</ele>
        <time>2022-08-16T08:58:42Z</time>
      </trkpt>
      <trkpt lat="44.47344" lon="6.85492">
        <ele>2599.4</ele>
        <time>2022-08-16T08:58:43Z</time>
      </trkpt>
      <trkpt lat="44.47343" lon="6.8549">
        <ele>2599.4</ele>
        <time>2022-08-16T08:58:44Z</time>
      </trkpt>
      <trkpt lat="44.47343" lon="6.85488">
        <ele>2599.6</ele>
        <time>2022-08-16T08:58:45Z</time>
      </trkpt>
      <trkpt lat="44.47343" lon="6.85487">
        <ele>2599.8</ele>
        <time>2022-08-16T08:58:46Z</time>
      </trkpt>
      <trkpt lat="44.47342" lon="6.85486">
        <ele>2599.8</ele>
        <time>2022-08-16T08:58:47Z</time>
      </trkpt>
      <trkpt lat="44.47342" lon="6.85484">
        <ele>2599.8</ele>
        <time>2022-08-16T08:58:48Z</time>
      </trkpt>
      <trkpt lat="44.47341" lon="6.85482">
        <ele>2599.8</ele>
        <time>2022-08-16T08:58:49Z</time>
      </trkpt>
      <trkpt lat="44.47341" lon="6.85481">
        <ele>2599.8</ele>
        <time>2022-08-16T08:58:50Z</time>
      </trkpt>
      <trkpt lat="44.4734" lon="6.85479">
        <ele>2600.2</ele>
        <time>2022-08-16T08:58:51Z</time>
      </trkpt>
      <trkpt lat="44.4734" lon="6.85478">
        <ele>2600.2</ele>
        <time>2022-08-16T08:58:52Z</time>
      </trkpt>
      <trkpt lat="44.47339" lon="6.85476">
        <ele>2600.4</ele>
        <time>2022-08-16T08:58:53Z</time>
      </trkpt>
      <trkpt lat="44.47338" lon="6.85474">
        <ele>2600.6</ele>
        <time>2022-08-16T08:58:54Z</time>
      </trkpt>
      <trkpt lat="44.47338" lon="6.85473">
        <ele>2600.6</ele>
        <time>2022-08-16T08:58:55Z</time>
      </trkpt>
      <trkpt lat="44.47337" lon="6.85471">
        <ele>2600.6</ele>
        <time>2022-08-16T08:58:56Z</time>
      </trkpt>
      <trkpt lat="44.47336" lon="6.85469">
        <ele>2600.6</ele>
        <time>2022-08-16T08:58:57Z</time>
      </trkpt>
      <trkpt lat="44.47336" lon="6.85467">
        <ele>2600.8</ele>
        <time>2022-08-16T08:58:58Z</time>
      </trkpt>
      <trkpt lat="44.47335" lon="6.85465">
        <ele>2600.8</ele>
        <time>2022-08-16T08:58:59Z</time>
      </trkpt>
      <trkpt lat="44.47335" lon="6.85463">
        <ele>2601</ele>
        <time>2022-08-16T08:59:00Z</time>
      </trkpt>
      <trkpt lat="44.47334" lon="6.85461">
        <ele>2601.2</ele>
        <time>2022-08-16T08:59:01Z</time>
      </trkpt>
      <trkpt lat="44.47333" lon="6.85459">
        <ele>2601.4</ele>
        <time>2022-08-16T08:59:02Z</time>
      </trkpt>
      <trkpt lat="44.47332" lon="6.85457">
        <ele>2601.6</ele>
        <time>2022-08-16T08:59:03Z</time>
      </trkpt>
      <trkpt lat="44.47331" lon="6.85454">
        <ele>2601.6</ele>
        <time>2022-08-16T08:59:04Z</time>
      </trkpt>
      <trkpt lat="44.4733" lon="6.85452">
        <ele>2601.8</ele>
        <time>2022-08-16T08:59:05Z</time>
      </trkpt>
      <trkpt lat="44.4733" lon="6.85451">
        <ele>2602</ele>
        <time>2022-08-16T08:59:06Z</time>
      </trkpt>
      <trkpt lat="44.4733" lon="6.85449">
        <ele>2602</ele>
        <time>2022-08-16T08:59:07Z</time>
      </trkpt>
      <trkpt lat="44.47329" lon="6.85447">
        <ele>2602</ele>
        <time>2022-08-16T08:59:08Z</time>
      </trkpt>
      <trkpt lat="44.47329" lon="6.85446">
        <ele>2602.2</ele>
        <time>2022-08-16T08:59:09Z</time>
      </trkpt>
      <trkpt lat="44.47329" lon="6.85445">
        <ele>2602.2</ele>
        <time>2022-08-16T08:59:10Z</time>
      </trkpt>
      <trkpt lat="44.47328" lon="6.85444">
        <ele>2602.2</ele>
        <time>2022-08-16T08:59:11Z</time>
      </trkpt>
      <trkpt lat="44.47329" lon="6.85443">
        <ele>2602.4</ele>
        <time>2022-08-16T08:59:14Z</time>
      </trkpt>
      <trkpt lat="44.47329" lon="6.85445">
        <ele>2602.6</ele>
        <time>2022-08-16T08:59:21Z</time>
      </trkpt>
      <trkpt lat="44.47328" lon="6.85447">
        <ele>2602.8</ele>
        <time>2022-08-16T08:59:22Z</time>
      </trkpt>
      <trkpt lat="44.47329" lon="6.85456">
        <ele>2602.8</ele>
        <time>2022-08-16T08:59:27Z</time>
      </trkpt>
      <trkpt lat="44.47329" lon="6.85458">
        <ele>2603</ele>
        <time>2022-08-16T08:59:28Z</time>
      </trkpt>
      <trkpt lat="44.4733" lon="6.85459">
        <ele>2603</ele>
        <time>2022-08-16T08:59:29Z</time>
      </trkpt>
      <trkpt lat="44.4733" lon="6.85461">
        <ele>2603.2</ele>
        <time>2022-08-16T08:59:30Z</time>
      </trkpt>
      <trkpt lat="44.47331" lon="6.85464">
        <ele>2603.2</ele>
        <time>2022-08-16T08:59:32Z</time>
      </trkpt>
      <trkpt lat="44.47331" lon="6.85466">
        <ele>2603.2</ele>
        <time>2022-08-16T08:59:33Z</time>
      </trkpt>
      <trkpt lat="44.47332" lon="6.85467">
        <ele>2603.2</ele>
        <time>2022-08-16T08:59:34Z</time>
      </trkpt>
      <trkpt lat="44.47332" lon="6.8547">
        <ele>2603.6</ele>
        <time>2022-08-16T08:59:36Z</time>
      </trkpt>
      <trkpt lat="44.47332" lon="6.85472">
        <ele>2603.8</ele>
        <time>2022-08-16T08:59:37Z</time>
      </trkpt>
      <trkpt lat="44.47333" lon="6.85474">
        <ele>2604</ele>
        <time>2022-08-16T08:59:38Z</time>
      </trkpt>
      <trkpt lat="44.47333" lon="6.85475">
        <ele>2604</ele>
        <time>2022-08-16T08:59:39Z</time>
      </trkpt>
      <trkpt lat="44.47333" lon="6.85477">
        <ele>2604</ele>
        <time>2022-08-16T08:59:40Z</time>
      </trkpt>
      <trkpt lat="44.47333" lon="6.85479">
        <ele>2604.2</ele>
        <time>2022-08-16T08:59:41Z</time>
      </trkpt>
      <trkpt lat="44.47333" lon="6.8548">
        <ele>2604.4</ele>
        <time>2022-08-16T08:59:42Z</time>
      </trkpt>
      <trkpt lat="44.47333" lon="6.85482">
        <ele>2604.4</ele>
        <time>2022-08-16T08:59:43Z</time>
      </trkpt>
      <trkpt lat="44.47333" lon="6.85483">
        <ele>2604.6</ele>
        <time>2022-08-16T08:59:44Z</time>
      </trkpt>
      <trkpt lat="44.47334" lon="6.85484">
        <ele>2604.8</ele>
        <time>2022-08-16T08:59:45Z</time>
      </trkpt>
      <trkpt lat="44.47334" lon="6.85485">
        <ele>2605.2</ele>
        <time>2022-08-16T08:59:46Z</time>
      </trkpt>
      <trkpt lat="44.47334" lon="6.85487">
        <ele>2605.6</ele>
        <time>2022-08-16T08:59:47Z</time>
      </trkpt>
      <trkpt lat="44.47334" lon="6.85488">
        <ele>2605.8</ele>
        <time>2022-08-16T08:59:48Z</time>
      </trkpt>
      <trkpt lat="44.47334" lon="6.8549">
        <ele>2606</ele>
        <time>2022-08-16T08:59:49Z</time>
      </trkpt>
      <trkpt lat="44.47334" lon="6.85492">
        <ele>2606.2</ele>
        <time>2022-08-16T08:59:50Z</time>
      </trkpt>
      <trkpt lat="44.47334" lon="6.85493">
        <ele>2606.4</ele>
        <time>2022-08-16T08:59:51Z</time>
      </trkpt>
      <trkpt lat="44.47334" lon="6.85495">
        <ele>2606.6</ele>
        <time>2022-08-16T08:59:52Z</time>
      </trkpt>
      <trkpt lat="44.47334" lon="6.85497">
        <ele>2606.6</ele>
        <time>2022-08-16T08:59:53Z</time>
      </trkpt>
      <trkpt lat="44.47335" lon="6.85498">
        <ele>2607</ele>
        <time>2022-08-16T08:59:54Z</time>
      </trkpt>
      <trkpt lat="44.47335" lon="6.855">
        <ele>2607.2</ele>
        <time>2022-08-16T08:59:55Z</time>
      </trkpt>
      <trkpt lat="44.47335" lon="6.85502">
        <ele>2607.4</ele>
        <time>2022-08-16T08:59:56Z</time>
      </trkpt>
      <trkpt lat="44.47335" lon="6.85503">
        <ele>2607.4</ele>
        <time>2022-08-16T08:59:57Z</time>
      </trkpt>
      <trkpt lat="44.47335" lon="6.85505">
        <ele>2607.6</ele>
        <time>2022-08-16T08:59:58Z</time>
      </trkpt>
      <trkpt lat="44.47335" lon="6.85507">
        <ele>2607.4</ele>
        <time>2022-08-16T08:59:59Z</time>
      </trkpt>
      <trkpt lat="44.47336" lon="6.85508">
        <ele>2607.6</ele>
        <time>2022-08-16T09:00:00Z</time>
      </trkpt>
      <trkpt lat="44.47336" lon="6.8551">
        <ele>2607.8</ele>
        <time>2022-08-16T09:00:01Z</time>
      </trkpt>
      <trkpt lat="44.47336" lon="6.85512">
        <ele>2607.8</ele>
        <time>2022-08-16T09:00:02Z</time>
      </trkpt>
      <trkpt lat="44.47336" lon="6.85513">
        <ele>2607.8</ele>
        <time>2022-08-16T09:00:03Z</time>
      </trkpt>
      <trkpt lat="44.47337" lon="6.85515">
        <ele>2608</ele>
        <time>2022-08-16T09:00:04Z</time>
      </trkpt>
      <trkpt lat="44.47337" lon="6.85517">
        <ele>2608.2</ele>
        <time>2022-08-16T09:00:05Z</time>
      </trkpt>
      <trkpt lat="44.47337" lon="6.85518">
        <ele>2608.4</ele>
        <time>2022-08-16T09:00:06Z</time>
      </trkpt>
      <trkpt lat="44.47337" lon="6.8552">
        <ele>2608.6</ele>
        <time>2022-08-16T09:00:07Z</time>
      </trkpt>
      <trkpt lat="44.47337" lon="6.85521">
        <ele>2608.8</ele>
        <time>2022-08-16T09:00:08Z</time>
      </trkpt>
      <trkpt lat="44.47337" lon="6.85523">
        <ele>2609</ele>
        <time>2022-08-16T09:00:09Z</time>
      </trkpt>
      <trkpt lat="44.47337" lon="6.85525">
        <ele>2609.2</ele>
        <time>2022-08-16T09:00:10Z</time>
      </trkpt>
      <trkpt lat="44.47337" lon="6.85526">
        <ele>2609.4</ele>
        <time>2022-08-16T09:00:11Z</time>
      </trkpt>
      <trkpt lat="44.47338" lon="6.85527">
        <ele>2609.6</ele>
        <time>2022-08-16T09:00:12Z</time>
      </trkpt>
      <trkpt lat="44.47338" lon="6.85529">
        <ele>2609.6</ele>
        <time>2022-08-16T09:00:13Z</time>
      </trkpt>
      <trkpt lat="44.47338" lon="6.8553">
        <ele>2609.8</ele>
        <time>2022-08-16T09:00:14Z</time>
      </trkpt>
      <trkpt lat="44.47339" lon="6.85532">
        <ele>2609.8</ele>
        <time>2022-08-16T09:00:15Z</time>
      </trkpt>
      <trkpt lat="44.47339" lon="6.85533">
        <ele>2610</ele>
        <time>2022-08-16T09:00:16Z</time>
      </trkpt>
      <trkpt lat="44.47339" lon="6.85535">
        <ele>2610.4</ele>
        <time>2022-08-16T09:00:17Z</time>
      </trkpt>
      <trkpt lat="44.47339" lon="6.85536">
        <ele>2610.2</ele>
        <time>2022-08-16T09:00:18Z</time>
      </trkpt>
      <trkpt lat="44.47339" lon="6.85538">
        <ele>2610.4</ele>
        <time>2022-08-16T09:00:19Z</time>
      </trkpt>
      <trkpt lat="44.4734" lon="6.85539">
        <ele>2610.4</ele>
        <time>2022-08-16T09:00:20Z</time>
      </trkpt>
      <trkpt lat="44.4734" lon="6.85541">
        <ele>2610.8</ele>
        <time>2022-08-16T09:00:21Z</time>
      </trkpt>
      <trkpt lat="44.4734" lon="6.85542">
        <ele>2610.8</ele>
        <time>2022-08-16T09:00:22Z</time>
      </trkpt>
      <trkpt lat="44.4734" lon="6.85544">
        <ele>2611.2</ele>
        <time>2022-08-16T09:00:23Z</time>
      </trkpt>
      <trkpt lat="44.47341" lon="6.85546">
        <ele>2611.4</ele>
        <time>2022-08-16T09:00:24Z</time>
      </trkpt>
      <trkpt lat="44.47341" lon="6.85547">
        <ele>2611.4</ele>
        <time>2022-08-16T09:00:25Z</time>
      </trkpt>
      <trkpt lat="44.47341" lon="6.85548">
        <ele>2611.4</ele>
        <time>2022-08-16T09:00:26Z</time>
      </trkpt>
      <trkpt lat="44.47342" lon="6.8555">
        <ele>2611.6</ele>
        <time>2022-08-16T09:00:27Z</time>
      </trkpt>
      <trkpt lat="44.47342" lon="6.85551">
        <ele>2611.6</ele>
        <time>2022-08-16T09:00:28Z</time>
      </trkpt>
      <trkpt lat="44.47343" lon="6.85553">
        <ele>2611.6</ele>
        <time>2022-08-16T09:00:29Z</time>
      </trkpt>
      <trkpt lat="44.47343" lon="6.85554">
        <ele>2611.8</ele>
        <time>2022-08-16T09:00:30Z</time>
      </trkpt>
      <trkpt lat="44.47343" lon="6.85556">
        <ele>2612</ele>
        <time>2022-08-16T09:00:31Z</time>
      </trkpt>
      <trkpt lat="44.47343" lon="6.85558">
        <ele>2612.2</ele>
        <time>2022-08-16T09:00:32Z</time>
      </trkpt>
      <trkpt lat="44.47344" lon="6.85559">
        <ele>2612.2</ele>
        <time>2022-08-16T09:00:33Z</time>
      </trkpt>
      <trkpt lat="44.47344" lon="6.85561">
        <ele>2612.4</ele>
        <time>2022-08-16T09:00:34Z</time>
      </trkpt>
      <trkpt lat="44.47345" lon="6.85562">
        <ele>2612.4</ele>
        <time>2022-08-16T09:00:35Z</time>
      </trkpt>
      <trkpt lat="44.47345" lon="6.85564">
        <ele>2612.4</ele>
        <time>2022-08-16T09:00:36Z</time>
      </trkpt>
      <trkpt lat="44.47345" lon="6.85566">
        <ele>2612.4</ele>
        <time>2022-08-16T09:00:37Z</time>
      </trkpt>
      <trkpt lat="44.47346" lon="6.85567">
        <ele>2612.8</ele>
        <time>2022-08-16T09:00:38Z</time>
      </trkpt>
      <trkpt lat="44.47346" lon="6.85569">
        <ele>2613</ele>
        <time>2022-08-16T09:00:39Z</time>
      </trkpt>
      <trkpt lat="44.47347" lon="6.8557">
        <ele>2613</ele>
        <time>2022-08-16T09:00:40Z</time>
      </trkpt>
      <trkpt lat="44.47347" lon="6.85572">
        <ele>2613.4</ele>
        <time>2022-08-16T09:00:41Z</time>
      </trkpt>
      <trkpt lat="44.47348" lon="6.85573">
        <ele>2613.6</ele>
        <time>2022-08-16T09:00:42Z</time>
      </trkpt>
      <trkpt lat="44.47348" lon="6.85575">
        <ele>2613.6</ele>
        <time>2022-08-16T09:00:43Z</time>
      </trkpt>
      <trkpt lat="44.47348" lon="6.85577">
        <ele>2613.8</ele>
        <time>2022-08-16T09:00:44Z</time>
      </trkpt>
      <trkpt lat="44.47349" lon="6.85578">
        <ele>2614</ele>
        <time>2022-08-16T09:00:45Z</time>
      </trkpt>
      <trkpt lat="44.47349" lon="6.8558">
        <ele>2614</ele>
        <time>2022-08-16T09:00:46Z</time>
      </trkpt>
      <trkpt lat="44.4735" lon="6.85582">
        <ele>2614.4</ele>
        <time>2022-08-16T09:00:47Z</time>
      </trkpt>
      <trkpt lat="44.4735" lon="6.85583">
        <ele>2614.4</ele>
        <time>2022-08-16T09:00:48Z</time>
      </trkpt>
      <trkpt lat="44.4735" lon="6.85585">
        <ele>2614.6</ele>
        <time>2022-08-16T09:00:49Z</time>
      </trkpt>
      <trkpt lat="44.47351" lon="6.85586">
        <ele>2614.8</ele>
        <time>2022-08-16T09:00:50Z</time>
      </trkpt>
      <trkpt lat="44.47351" lon="6.85588">
        <ele>2614.8</ele>
        <time>2022-08-16T09:00:51Z</time>
      </trkpt>
      <trkpt lat="44.47351" lon="6.8559">
        <ele>2615.2</ele>
        <time>2022-08-16T09:00:52Z</time>
      </trkpt>
      <trkpt lat="44.47352" lon="6.85591">
        <ele>2615.4</ele>
        <time>2022-08-16T09:00:53Z</time>
      </trkpt>
      <trkpt lat="44.47352" lon="6.85593">
        <ele>2615.4</ele>
        <time>2022-08-16T09:00:54Z</time>
      </trkpt>
      <trkpt lat="44.47352" lon="6.85594">
        <ele>2615.6</ele>
        <time>2022-08-16T09:00:55Z</time>
      </trkpt>
      <trkpt lat="44.47353" lon="6.85596">
        <ele>2615.8</ele>
        <time>2022-08-16T09:00:56Z</time>
      </trkpt>
      <trkpt lat="44.47353" lon="6.85598">
        <ele>2615.8</ele>
        <time>2022-08-16T09:00:57Z</time>
      </trkpt>
      <trkpt lat="44.47354" lon="6.85599">
        <ele>2616</ele>
        <time>2022-08-16T09:00:58Z</time>
      </trkpt>
      <trkpt lat="44.47354" lon="6.85601">
        <ele>2616</ele>
        <time>2022-08-16T09:00:59Z</time>
      </trkpt>
      <trkpt lat="44.47354" lon="6.85602">
        <ele>2616.4</ele>
        <time>2022-08-16T09:01:00Z</time>
      </trkpt>
      <trkpt lat="44.47355" lon="6.85603">
        <ele>2616.4</ele>
        <time>2022-08-16T09:01:01Z</time>
      </trkpt>
      <trkpt lat="44.47355" lon="6.85605">
        <ele>2616.6</ele>
        <time>2022-08-16T09:01:02Z</time>
      </trkpt>
      <trkpt lat="44.47356" lon="6.85607">
        <ele>2616.8</ele>
        <time>2022-08-16T09:01:03Z</time>
      </trkpt>
      <trkpt lat="44.47357" lon="6.85608">
        <ele>2616.8</ele>
        <time>2022-08-16T09:01:04Z</time>
      </trkpt>
      <trkpt lat="44.47357" lon="6.8561">
        <ele>2617</ele>
        <time>2022-08-16T09:01:05Z</time>
      </trkpt>
      <trkpt lat="44.47358" lon="6.85611">
        <ele>2617</ele>
        <time>2022-08-16T09:01:06Z</time>
      </trkpt>
      <trkpt lat="44.47358" lon="6.85613">
        <ele>2617.2</ele>
        <time>2022-08-16T09:01:07Z</time>
      </trkpt>
      <trkpt lat="44.47359" lon="6.85614">
        <ele>2617.2</ele>
        <time>2022-08-16T09:01:08Z</time>
      </trkpt>
      <trkpt lat="44.47359" lon="6.85616">
        <ele>2617.6</ele>
        <time>2022-08-16T09:01:09Z</time>
      </trkpt>
      <trkpt lat="44.4736" lon="6.85617">
        <ele>2617.8</ele>
        <time>2022-08-16T09:01:10Z</time>
      </trkpt>
      <trkpt lat="44.4736" lon="6.85619">
        <ele>2617.8</ele>
        <time>2022-08-16T09:01:11Z</time>
      </trkpt>
      <trkpt lat="44.47361" lon="6.8562">
        <ele>2617.8</ele>
        <time>2022-08-16T09:01:12Z</time>
      </trkpt>
      <trkpt lat="44.47361" lon="6.85622">
        <ele>2617.8</ele>
        <time>2022-08-16T09:01:13Z</time>
      </trkpt>
      <trkpt lat="44.47362" lon="6.85623">
        <ele>2618.2</ele>
        <time>2022-08-16T09:01:14Z</time>
      </trkpt>
      <trkpt lat="44.47363" lon="6.85624">
        <ele>2618.2</ele>
        <time>2022-08-16T09:01:15Z</time>
      </trkpt>
      <trkpt lat="44.47364" lon="6.85626">
        <ele>2618.4</ele>
        <time>2022-08-16T09:01:16Z</time>
      </trkpt>
      <trkpt lat="44.47364" lon="6.85627">
        <ele>2618.6</ele>
        <time>2022-08-16T09:01:17Z</time>
      </trkpt>
      <trkpt lat="44.47365" lon="6.85628">
        <ele>2618.8</ele>
        <time>2022-08-16T09:01:18Z</time>
      </trkpt>
      <trkpt lat="44.47366" lon="6.85629">
        <ele>2619.2</ele>
        <time>2022-08-16T09:01:19Z</time>
      </trkpt>
      <trkpt lat="44.47367" lon="6.85631">
        <ele>2619.2</ele>
        <time>2022-08-16T09:01:20Z</time>
      </trkpt>
      <trkpt lat="44.47367" lon="6.85632">
        <ele>2619.4</ele>
        <time>2022-08-16T09:01:21Z</time>
      </trkpt>
      <trkpt lat="44.47368" lon="6.85633">
        <ele>2619.6</ele>
        <time>2022-08-16T09:01:22Z</time>
      </trkpt>
      <trkpt lat="44.47369" lon="6.85635">
        <ele>2620</ele>
        <time>2022-08-16T09:01:23Z</time>
      </trkpt>
      <trkpt lat="44.47369" lon="6.85636">
        <ele>2620</ele>
        <time>2022-08-16T09:01:24Z</time>
      </trkpt>
      <trkpt lat="44.4737" lon="6.85638">
        <ele>2620.2</ele>
        <time>2022-08-16T09:01:25Z</time>
      </trkpt>
      <trkpt lat="44.4737" lon="6.8564">
        <ele>2620.2</ele>
        <time>2022-08-16T09:01:26Z</time>
      </trkpt>
      <trkpt lat="44.47371" lon="6.85641">
        <ele>2620.4</ele>
        <time>2022-08-16T09:01:27Z</time>
      </trkpt>
      <trkpt lat="44.47371" lon="6.85643">
        <ele>2620.6</ele>
        <time>2022-08-16T09:01:28Z</time>
      </trkpt>
      <trkpt lat="44.47371" lon="6.85645">
        <ele>2620.8</ele>
        <time>2022-08-16T09:01:29Z</time>
      </trkpt>
      <trkpt lat="44.47371" lon="6.85646">
        <ele>2620.8</ele>
        <time>2022-08-16T09:01:30Z</time>
      </trkpt>
      <trkpt lat="44.47372" lon="6.85648">
        <ele>2621</ele>
        <time>2022-08-16T09:01:31Z</time>
      </trkpt>
      <trkpt lat="44.47371" lon="6.8565">
        <ele>2621.4</ele>
        <time>2022-08-16T09:01:32Z</time>
      </trkpt>
      <trkpt lat="44.47371" lon="6.85652">
        <ele>2621.4</ele>
        <time>2022-08-16T09:01:33Z</time>
      </trkpt>
      <trkpt lat="44.47372" lon="6.85654">
        <ele>2621.4</ele>
        <time>2022-08-16T09:01:34Z</time>
      </trkpt>
      <trkpt lat="44.47372" lon="6.85655">
        <ele>2621.4</ele>
        <time>2022-08-16T09:01:35Z</time>
      </trkpt>
      <trkpt lat="44.47372" lon="6.85657">
        <ele>2621.8</ele>
        <time>2022-08-16T09:01:36Z</time>
      </trkpt>
      <trkpt lat="44.47372" lon="6.85659">
        <ele>2622</ele>
        <time>2022-08-16T09:01:37Z</time>
      </trkpt>
      <trkpt lat="44.47372" lon="6.8566">
        <ele>2622.2</ele>
        <time>2022-08-16T09:01:38Z</time>
      </trkpt>
      <trkpt lat="44.47373" lon="6.85662">
        <ele>2622.2</ele>
        <time>2022-08-16T09:01:39Z</time>
      </trkpt>
      <trkpt lat="44.47374" lon="6.85663">
        <ele>2622.2</ele>
        <time>2022-08-16T09:01:40Z</time>
      </trkpt>
      <trkpt lat="44.47374" lon="6.85665">
        <ele>2622.6</ele>
        <time>2022-08-16T09:01:41Z</time>
      </trkpt>
      <trkpt lat="44.47375" lon="6.85666">
        <ele>2622.6</ele>
        <time>2022-08-16T09:01:42Z</time>
      </trkpt>
      <trkpt lat="44.47375" lon="6.85668">
        <ele>2622.8</ele>
        <time>2022-08-16T09:01:43Z</time>
      </trkpt>
      <trkpt lat="44.47376" lon="6.85669">
        <ele>2622.8</ele>
        <time>2022-08-16T09:01:44Z</time>
      </trkpt>
      <trkpt lat="44.47376" lon="6.85671">
        <ele>2623</ele>
        <time>2022-08-16T09:01:45Z</time>
      </trkpt>
      <trkpt lat="44.47377" lon="6.85673">
        <ele>2623</ele>
        <time>2022-08-16T09:01:46Z</time>
      </trkpt>
      <trkpt lat="44.47377" lon="6.85674">
        <ele>2623</ele>
        <time>2022-08-16T09:01:47Z</time>
      </trkpt>
      <trkpt lat="44.47378" lon="6.85676">
        <ele>2623.2</ele>
        <time>2022-08-16T09:01:48Z</time>
      </trkpt>
      <trkpt lat="44.47378" lon="6.85677">
        <ele>2623.4</ele>
        <time>2022-08-16T09:01:49Z</time>
      </trkpt>
      <trkpt lat="44.47379" lon="6.85679">
        <ele>2623.8</ele>
        <time>2022-08-16T09:01:50Z</time>
      </trkpt>
      <trkpt lat="44.47378" lon="6.8568">
        <ele>2623.8</ele>
        <time>2022-08-16T09:01:51Z</time>
      </trkpt>
      <trkpt lat="44.47377" lon="6.8568">
        <ele>2624</ele>
        <time>2022-08-16T09:01:52Z</time>
      </trkpt>
      <trkpt lat="44.47377" lon="6.8568">
        <ele>2624</ele>
        <time>2022-08-16T09:01:53Z</time>
      </trkpt>
      <trkpt lat="44.47376" lon="6.85679">
        <ele>2624.4</ele>
        <time>2022-08-16T09:01:54Z</time>
      </trkpt>
      <trkpt lat="44.47375" lon="6.85677">
        <ele>2624.6</ele>
        <time>2022-08-16T09:01:55Z</time>
      </trkpt>
      <trkpt lat="44.47374" lon="6.85676">
        <ele>2624.6</ele>
        <time>2022-08-16T09:01:56Z</time>
      </trkpt>
      <trkpt lat="44.47374" lon="6.85674">
        <ele>2624.8</ele>
        <time>2022-08-16T09:01:57Z</time>
      </trkpt>
      <trkpt lat="44.47373" lon="6.85673">
        <ele>2625</ele>
        <time>2022-08-16T09:01:58Z</time>
      </trkpt>
      <trkpt lat="44.47372" lon="6.85672">
        <ele>2625.2</ele>
        <time>2022-08-16T09:01:59Z</time>
      </trkpt>
      <trkpt lat="44.47371" lon="6.8567">
        <ele>2625</ele>
        <time>2022-08-16T09:02:00Z</time>
      </trkpt>
      <trkpt lat="44.4737" lon="6.85669">
        <ele>2625.4</ele>
        <time>2022-08-16T09:02:01Z</time>
      </trkpt>
      <trkpt lat="44.4737" lon="6.85667">
        <ele>2625.2</ele>
        <time>2022-08-16T09:02:02Z</time>
      </trkpt>
      <trkpt lat="44.47369" lon="6.85666">
        <ele>2625.4</ele>
        <time>2022-08-16T09:02:03Z</time>
      </trkpt>
      <trkpt lat="44.47368" lon="6.85665">
        <ele>2625.6</ele>
        <time>2022-08-16T09:02:04Z</time>
      </trkpt>
      <trkpt lat="44.47367" lon="6.85663">
        <ele>2625.8</ele>
        <time>2022-08-16T09:02:05Z</time>
      </trkpt>
      <trkpt lat="44.47366" lon="6.85662">
        <ele>2625.8</ele>
        <time>2022-08-16T09:02:06Z</time>
      </trkpt>
      <trkpt lat="44.47365" lon="6.8566">
        <ele>2626</ele>
        <time>2022-08-16T09:02:07Z</time>
      </trkpt>
      <trkpt lat="44.47364" lon="6.85659">
        <ele>2625.8</ele>
        <time>2022-08-16T09:02:08Z</time>
      </trkpt>
      <trkpt lat="44.47364" lon="6.85657">
        <ele>2626</ele>
        <time>2022-08-16T09:02:09Z</time>
      </trkpt>
      <trkpt lat="44.47363" lon="6.85656">
        <ele>2626</ele>
        <time>2022-08-16T09:02:10Z</time>
      </trkpt>
      <trkpt lat="44.47362" lon="6.85655">
        <ele>2626.4</ele>
        <time>2022-08-16T09:02:11Z</time>
      </trkpt>
      <trkpt lat="44.47361" lon="6.85653">
        <ele>2626.8</ele>
        <time>2022-08-16T09:02:12Z</time>
      </trkpt>
      <trkpt lat="44.4736" lon="6.85652">
        <ele>2627</ele>
        <time>2022-08-16T09:02:13Z</time>
      </trkpt>
      <trkpt lat="44.47359" lon="6.8565">
        <ele>2627</ele>
        <time>2022-08-16T09:02:14Z</time>
      </trkpt>
      <trkpt lat="44.47359" lon="6.85649">
        <ele>2627.2</ele>
        <time>2022-08-16T09:02:15Z</time>
      </trkpt>
      <trkpt lat="44.47358" lon="6.85647">
        <ele>2627.4</ele>
        <time>2022-08-16T09:02:16Z</time>
      </trkpt>
      <trkpt lat="44.47357" lon="6.85646">
        <ele>2627.6</ele>
        <time>2022-08-16T09:02:17Z</time>
      </trkpt>
      <trkpt lat="44.47356" lon="6.85644">
        <ele>2627.6</ele>
        <time>2022-08-16T09:02:18Z</time>
      </trkpt>
      <trkpt lat="44.47355" lon="6.85643">
        <ele>2627.6</ele>
        <time>2022-08-16T09:02:19Z</time>
      </trkpt>
      <trkpt lat="44.47355" lon="6.85641">
        <ele>2627.8</ele>
        <time>2022-08-16T09:02:20Z</time>
      </trkpt>
      <trkpt lat="44.47354" lon="6.8564">
        <ele>2627.8</ele>
        <time>2022-08-16T09:02:21Z</time>
      </trkpt>
      <trkpt lat="44.47353" lon="6.85639">
        <ele>2628</ele>
        <time>2022-08-16T09:02:22Z</time>
      </trkpt>
      <trkpt lat="44.47352" lon="6.85638">
        <ele>2628.2</ele>
        <time>2022-08-16T09:02:23Z</time>
      </trkpt>
      <trkpt lat="44.47351" lon="6.85637">
        <ele>2628.4</ele>
        <time>2022-08-16T09:02:24Z</time>
      </trkpt>
      <trkpt lat="44.4735" lon="6.85636">
        <ele>2628.6</ele>
        <time>2022-08-16T09:02:25Z</time>
      </trkpt>
      <trkpt lat="44.47349" lon="6.85634">
        <ele>2628.6</ele>
        <time>2022-08-16T09:02:26Z</time>
      </trkpt>
      <trkpt lat="44.47348" lon="6.85633">
        <ele>2628.6</ele>
        <time>2022-08-16T09:02:27Z</time>
      </trkpt>
      <trkpt lat="44.47347" lon="6.85632">
        <ele>2628.8</ele>
        <time>2022-08-16T09:02:28Z</time>
      </trkpt>
      <trkpt lat="44.47346" lon="6.85631">
        <ele>2629</ele>
        <time>2022-08-16T09:02:29Z</time>
      </trkpt>
      <trkpt lat="44.47345" lon="6.85631">
        <ele>2629</ele>
        <time>2022-08-16T09:02:30Z</time>
      </trkpt>
      <trkpt lat="44.47344" lon="6.8563">
        <ele>2629.2</ele>
        <time>2022-08-16T09:02:31Z</time>
      </trkpt>
      <trkpt lat="44.47343" lon="6.85629">
        <ele>2629.2</ele>
        <time>2022-08-16T09:02:32Z</time>
      </trkpt>
      <trkpt lat="44.47342" lon="6.85628">
        <ele>2629.6</ele>
        <time>2022-08-16T09:02:33Z</time>
      </trkpt>
      <trkpt lat="44.47342" lon="6.85626">
        <ele>2629.8</ele>
        <time>2022-08-16T09:02:34Z</time>
      </trkpt>
      <trkpt lat="44.47341" lon="6.85625">
        <ele>2629.8</ele>
        <time>2022-08-16T09:02:35Z</time>
      </trkpt>
      <trkpt lat="44.4734" lon="6.85624">
        <ele>2629.8</ele>
        <time>2022-08-16T09:02:36Z</time>
      </trkpt>
      <trkpt lat="44.47339" lon="6.85623">
        <ele>2630</ele>
        <time>2022-08-16T09:02:37Z</time>
      </trkpt>
      <trkpt lat="44.47338" lon="6.85622">
        <ele>2630.6</ele>
        <time>2022-08-16T09:02:38Z</time>
      </trkpt>
      <trkpt lat="44.47337" lon="6.85621">
        <ele>2631</ele>
        <time>2022-08-16T09:02:39Z</time>
      </trkpt>
      <trkpt lat="44.47337" lon="6.8562">
        <ele>2631.2</ele>
        <time>2022-08-16T09:02:40Z</time>
      </trkpt>
      <trkpt lat="44.47336" lon="6.85619">
        <ele>2631.2</ele>
        <time>2022-08-16T09:02:41Z</time>
      </trkpt>
      <trkpt lat="44.47335" lon="6.85618">
        <ele>2631.2</ele>
        <time>2022-08-16T09:02:42Z</time>
      </trkpt>
      <trkpt lat="44.47334" lon="6.85616">
        <ele>2631.4</ele>
        <time>2022-08-16T09:02:43Z</time>
      </trkpt>
      <trkpt lat="44.47333" lon="6.85615">
        <ele>2631.6</ele>
        <time>2022-08-16T09:02:44Z</time>
      </trkpt>
      <trkpt lat="44.47332" lon="6.85614">
        <ele>2631.6</ele>
        <time>2022-08-16T09:02:45Z</time>
      </trkpt>
      <trkpt lat="44.47332" lon="6.85613">
        <ele>2631.8</ele>
        <time>2022-08-16T09:02:46Z</time>
      </trkpt>
      <trkpt lat="44.47331" lon="6.85612">
        <ele>2632</ele>
        <time>2022-08-16T09:02:47Z</time>
      </trkpt>
      <trkpt lat="44.4733" lon="6.85611">
        <ele>2632.2</ele>
        <time>2022-08-16T09:02:48Z</time>
      </trkpt>
      <trkpt lat="44.47329" lon="6.8561">
        <ele>2632.4</ele>
        <time>2022-08-16T09:02:49Z</time>
      </trkpt>
      <trkpt lat="44.47328" lon="6.85608">
        <ele>2632.6</ele>
        <time>2022-08-16T09:02:50Z</time>
      </trkpt>
      <trkpt lat="44.47327" lon="6.85607">
        <ele>2632.8</ele>
        <time>2022-08-16T09:02:51Z</time>
      </trkpt>
      <trkpt lat="44.47326" lon="6.85606">
        <ele>2632.8</ele>
        <time>2022-08-16T09:02:52Z</time>
      </trkpt>
      <trkpt lat="44.47325" lon="6.85605">
        <ele>2633</ele>
        <time>2022-08-16T09:02:53Z</time>
      </trkpt>
      <trkpt lat="44.47324" lon="6.85604">
        <ele>2633.2</ele>
        <time>2022-08-16T09:02:54Z</time>
      </trkpt>
      <trkpt lat="44.47324" lon="6.85602">
        <ele>2633.2</ele>
        <time>2022-08-16T09:02:55Z</time>
      </trkpt>
      <trkpt lat="44.47323" lon="6.85601">
        <ele>2633.4</ele>
        <time>2022-08-16T09:02:56Z</time>
      </trkpt>
      <trkpt lat="44.47322" lon="6.856">
        <ele>2633.8</ele>
        <time>2022-08-16T09:02:57Z</time>
      </trkpt>
      <trkpt lat="44.47321" lon="6.85598">
        <ele>2633.8</ele>
        <time>2022-08-16T09:02:58Z</time>
      </trkpt>
      <trkpt lat="44.47321" lon="6.85597">
        <ele>2634</ele>
        <time>2022-08-16T09:02:59Z</time>
      </trkpt>
      <trkpt lat="44.4732" lon="6.85596">
        <ele>2634.4</ele>
        <time>2022-08-16T09:03:00Z</time>
      </trkpt>
      <trkpt lat="44.47319" lon="6.85594">
        <ele>2634.4</ele>
        <time>2022-08-16T09:03:01Z</time>
      </trkpt>
      <trkpt lat="44.47318" lon="6.85593">
        <ele>2634.4</ele>
        <time>2022-08-16T09:03:02Z</time>
      </trkpt>
      <trkpt lat="44.47317" lon="6.85592">
        <ele>2634.6</ele>
        <time>2022-08-16T09:03:03Z</time>
      </trkpt>
      <trkpt lat="44.47316" lon="6.85592">
        <ele>2634.6</ele>
        <time>2022-08-16T09:03:04Z</time>
      </trkpt>
      <trkpt lat="44.47315" lon="6.85593">
        <ele>2634.8</ele>
        <time>2022-08-16T09:03:05Z</time>
      </trkpt>
      <trkpt lat="44.47315" lon="6.85594">
        <ele>2635</ele>
        <time>2022-08-16T09:03:06Z</time>
      </trkpt>
      <trkpt lat="44.47315" lon="6.85596">
        <ele>2635</ele>
        <time>2022-08-16T09:03:07Z</time>
      </trkpt>
      <trkpt lat="44.47316" lon="6.85598">
        <ele>2635</ele>
        <time>2022-08-16T09:03:08Z</time>
      </trkpt>
      <trkpt lat="44.47317" lon="6.85599">
        <ele>2635</ele>
        <time>2022-08-16T09:03:09Z</time>
      </trkpt>
      <trkpt lat="44.47317" lon="6.85601">
        <ele>2635.2</ele>
        <time>2022-08-16T09:03:10Z</time>
      </trkpt>
      <trkpt lat="44.47318" lon="6.85603">
        <ele>2635.4</ele>
        <time>2022-08-16T09:03:11Z</time>
      </trkpt>
      <trkpt lat="44.47319" lon="6.85604">
        <ele>2635.6</ele>
        <time>2022-08-16T09:03:12Z</time>
      </trkpt>
      <trkpt lat="44.4732" lon="6.85606">
        <ele>2635.6</ele>
        <time>2022-08-16T09:03:13Z</time>
      </trkpt>
      <trkpt lat="44.4732" lon="6.85607">
        <ele>2636</ele>
        <time>2022-08-16T09:03:14Z</time>
      </trkpt>
      <trkpt lat="44.47321" lon="6.85609">
        <ele>2636.4</ele>
        <time>2022-08-16T09:03:15Z</time>
      </trkpt>
      <trkpt lat="44.47321" lon="6.85611">
        <ele>2636.6</ele>
        <time>2022-08-16T09:03:16Z</time>
      </trkpt>
      <trkpt lat="44.47322" lon="6.85612">
        <ele>2636.8</ele>
        <time>2022-08-16T09:03:17Z</time>
      </trkpt>
      <trkpt lat="44.47322" lon="6.85614">
        <ele>2637.2</ele>
        <time>2022-08-16T09:03:18Z</time>
      </trkpt>
      <trkpt lat="44.47323" lon="6.85615">
        <ele>2637.2</ele>
        <time>2022-08-16T09:03:19Z</time>
      </trkpt>
      <trkpt lat="44.47324" lon="6.85617">
        <ele>2637.4</ele>
        <time>2022-08-16T09:03:20Z</time>
      </trkpt>
      <trkpt lat="44.47324" lon="6.85619">
        <ele>2637.2</ele>
        <time>2022-08-16T09:03:21Z</time>
      </trkpt>
      <trkpt lat="44.47325" lon="6.8562">
        <ele>2637.6</ele>
        <time>2022-08-16T09:03:22Z</time>
      </trkpt>
      <trkpt lat="44.47325" lon="6.85622">
        <ele>2637.8</ele>
        <time>2022-08-16T09:03:23Z</time>
      </trkpt>
      <trkpt lat="44.47326" lon="6.85623">
        <ele>2637.8</ele>
        <time>2022-08-16T09:03:24Z</time>
      </trkpt>
      <trkpt lat="44.47327" lon="6.85625">
        <ele>2637.8</ele>
        <time>2022-08-16T09:03:25Z</time>
      </trkpt>
      <trkpt lat="44.47327" lon="6.85626">
        <ele>2638.2</ele>
        <time>2022-08-16T09:03:26Z</time>
      </trkpt>
      <trkpt lat="44.47328" lon="6.85628">
        <ele>2638.2</ele>
        <time>2022-08-16T09:03:27Z</time>
      </trkpt>
      <trkpt lat="44.47329" lon="6.85629">
        <ele>2638.2</ele>
        <time>2022-08-16T09:03:28Z</time>
      </trkpt>
      <trkpt lat="44.4733" lon="6.85631">
        <ele>2638.4</ele>
        <time>2022-08-16T09:03:29Z</time>
      </trkpt>
      <trkpt lat="44.4733" lon="6.85632">
        <ele>2638.6</ele>
        <time>2022-08-16T09:03:30Z</time>
      </trkpt>
      <trkpt lat="44.47331" lon="6.85634">
        <ele>2638.6</ele>
        <time>2022-08-16T09:03:31Z</time>
      </trkpt>
      <trkpt lat="44.47331" lon="6.85635">
        <ele>2639</ele>
        <time>2022-08-16T09:03:32Z</time>
      </trkpt>
      <trkpt lat="44.47332" lon="6.85637">
        <ele>2639</ele>
        <time>2022-08-16T09:03:33Z</time>
      </trkpt>
      <trkpt lat="44.47332" lon="6.85638">
        <ele>2639.2</ele>
        <time>2022-08-16T09:03:34Z</time>
      </trkpt>
      <trkpt lat="44.47333" lon="6.85639">
        <ele>2639.4</ele>
        <time>2022-08-16T09:03:35Z</time>
      </trkpt>
      <trkpt lat="44.47333" lon="6.85641">
        <ele>2639.6</ele>
        <time>2022-08-16T09:03:36Z</time>
      </trkpt>
      <trkpt lat="44.47334" lon="6.85642">
        <ele>2639.4</ele>
        <time>2022-08-16T09:03:37Z</time>
      </trkpt>
      <trkpt lat="44.47334" lon="6.85644">
        <ele>2639.8</ele>
        <time>2022-08-16T09:03:38Z</time>
      </trkpt>
      <trkpt lat="44.47335" lon="6.85645">
        <ele>2640</ele>
        <time>2022-08-16T09:03:39Z</time>
      </trkpt>
      <trkpt lat="44.47335" lon="6.85647">
        <ele>2640</ele>
        <time>2022-08-16T09:03:40Z</time>
      </trkpt>
      <trkpt lat="44.47336" lon="6.85648">
        <ele>2640.2</ele>
        <time>2022-08-16T09:03:41Z</time>
      </trkpt>
      <trkpt lat="44.47336" lon="6.8565">
        <ele>2640.4</ele>
        <time>2022-08-16T09:03:42Z</time>
      </trkpt>
      <trkpt lat="44.47336" lon="6.85651">
        <ele>2640.2</ele>
        <time>2022-08-16T09:03:43Z</time>
      </trkpt>
      <trkpt lat="44.47337" lon="6.85653">
        <ele>2640.6</ele>
        <time>2022-08-16T09:03:44Z</time>
      </trkpt>
      <trkpt lat="44.47337" lon="6.85654">
        <ele>2640.8</ele>
        <time>2022-08-16T09:03:45Z</time>
      </trkpt>
      <trkpt lat="44.47338" lon="6.85656">
        <ele>2641</ele>
        <time>2022-08-16T09:03:46Z</time>
      </trkpt>
      <trkpt lat="44.47338" lon="6.85658">
        <ele>2641.2</ele>
        <time>2022-08-16T09:03:47Z</time>
      </trkpt>
      <trkpt lat="44.47339" lon="6.85659">
        <ele>2641.4</ele>
        <time>2022-08-16T09:03:48Z</time>
      </trkpt>
      <trkpt lat="44.47339" lon="6.85661">
        <ele>2641.4</ele>
        <time>2022-08-16T09:03:49Z</time>
      </trkpt>
      <trkpt lat="44.4734" lon="6.85662">
        <ele>2641.4</ele>
        <time>2022-08-16T09:03:50Z</time>
      </trkpt>
      <trkpt lat="44.4734" lon="6.85664">
        <ele>2641.8</ele>
        <time>2022-08-16T09:03:51Z</time>
      </trkpt>
      <trkpt lat="44.47341" lon="6.85665">
        <ele>2641.8</ele>
        <time>2022-08-16T09:03:52Z</time>
      </trkpt>
      <trkpt lat="44.47341" lon="6.85667">
        <ele>2642</ele>
        <time>2022-08-16T09:03:53Z</time>
      </trkpt>
      <trkpt lat="44.47341" lon="6.85668">
        <ele>2642.2</ele>
        <time>2022-08-16T09:03:54Z</time>
      </trkpt>
      <trkpt lat="44.47342" lon="6.8567">
        <ele>2642.2</ele>
        <time>2022-08-16T09:03:55Z</time>
      </trkpt>
      <trkpt lat="44.47343" lon="6.85671">
        <ele>2642.4</ele>
        <time>2022-08-16T09:03:56Z</time>
      </trkpt>
      <trkpt lat="44.47343" lon="6.85673">
        <ele>2642.6</ele>
        <time>2022-08-16T09:03:57Z</time>
      </trkpt>
      <trkpt lat="44.47344" lon="6.85675">
        <ele>2642.6</ele>
        <time>2022-08-16T09:03:58Z</time>
      </trkpt>
      <trkpt lat="44.47344" lon="6.85676">
        <ele>2642.8</ele>
        <time>2022-08-16T09:03:59Z</time>
      </trkpt>
      <trkpt lat="44.47345" lon="6.85678">
        <ele>2643</ele>
        <time>2022-08-16T09:04:00Z</time>
      </trkpt>
      <trkpt lat="44.47345" lon="6.8568">
        <ele>2643.2</ele>
        <time>2022-08-16T09:04:01Z</time>
      </trkpt>
      <trkpt lat="44.47345" lon="6.85681">
        <ele>2643.2</ele>
        <time>2022-08-16T09:04:02Z</time>
      </trkpt>
      <trkpt lat="44.47346" lon="6.85683">
        <ele>2643.4</ele>
        <time>2022-08-16T09:04:03Z</time>
      </trkpt>
      <trkpt lat="44.47346" lon="6.85685">
        <ele>2643.6</ele>
        <time>2022-08-16T09:04:04Z</time>
      </trkpt>
      <trkpt lat="44.47347" lon="6.85686">
        <ele>2643.8</ele>
        <time>2022-08-16T09:04:05Z</time>
      </trkpt>
      <trkpt lat="44.47347" lon="6.85688">
        <ele>2644</ele>
        <time>2022-08-16T09:04:06Z</time>
      </trkpt>
      <trkpt lat="44.47348" lon="6.8569">
        <ele>2644</ele>
        <time>2022-08-16T09:04:07Z</time>
      </trkpt>
      <trkpt lat="44.47348" lon="6.85691">
        <ele>2644.2</ele>
        <time>2022-08-16T09:04:08Z</time>
      </trkpt>
      <trkpt lat="44.47349" lon="6.85693">
        <ele>2644.4</ele>
        <time>2022-08-16T09:04:09Z</time>
      </trkpt>
      <trkpt lat="44.47349" lon="6.85695">
        <ele>2644.6</ele>
        <time>2022-08-16T09:04:10Z</time>
      </trkpt>
      <trkpt lat="44.4735" lon="6.85696">
        <ele>2645</ele>
        <time>2022-08-16T09:04:11Z</time>
      </trkpt>
      <trkpt lat="44.4735" lon="6.85698">
        <ele>2645</ele>
        <time>2022-08-16T09:04:12Z</time>
      </trkpt>
      <trkpt lat="44.47351" lon="6.857">
        <ele>2645.2</ele>
        <time>2022-08-16T09:04:13Z</time>
      </trkpt>
      <trkpt lat="44.47351" lon="6.85702">
        <ele>2645.4</ele>
        <time>2022-08-16T09:04:14Z</time>
      </trkpt>
      <trkpt lat="44.47352" lon="6.85703">
        <ele>2645.6</ele>
        <time>2022-08-16T09:04:15Z</time>
      </trkpt>
      <trkpt lat="44.47352" lon="6.85705">
        <ele>2645.8</ele>
        <time>2022-08-16T09:04:16Z</time>
      </trkpt>
      <trkpt lat="44.47353" lon="6.85706">
        <ele>2645.8</ele>
        <time>2022-08-16T09:04:17Z</time>
      </trkpt>
      <trkpt lat="44.47353" lon="6.85708">
        <ele>2646</ele>
        <time>2022-08-16T09:04:18Z</time>
      </trkpt>
      <trkpt lat="44.47354" lon="6.85709">
        <ele>2646.2</ele>
        <time>2022-08-16T09:04:19Z</time>
      </trkpt>
      <trkpt lat="44.47355" lon="6.85711">
        <ele>2646.4</ele>
        <time>2022-08-16T09:04:20Z</time>
      </trkpt>
      <trkpt lat="44.47356" lon="6.85712">
        <ele>2646.6</ele>
        <time>2022-08-16T09:04:21Z</time>
      </trkpt>
      <trkpt lat="44.47356" lon="6.85714">
        <ele>2646.8</ele>
        <time>2022-08-16T09:04:22Z</time>
      </trkpt>
      <trkpt lat="44.47357" lon="6.85716">
        <ele>2647</ele>
        <time>2022-08-16T09:04:23Z</time>
      </trkpt>
      <trkpt lat="44.47357" lon="6.85717">
        <ele>2647.2</ele>
        <time>2022-08-16T09:04:24Z</time>
      </trkpt>
      <trkpt lat="44.47358" lon="6.85719">
        <ele>2647.4</ele>
        <time>2022-08-16T09:04:25Z</time>
      </trkpt>
      <trkpt lat="44.47359" lon="6.85721">
        <ele>2647.8</ele>
        <time>2022-08-16T09:04:26Z</time>
      </trkpt>
      <trkpt lat="44.47359" lon="6.85722">
        <ele>2648</ele>
        <time>2022-08-16T09:04:27Z</time>
      </trkpt>
      <trkpt lat="44.47359" lon="6.85724">
        <ele>2648</ele>
        <time>2022-08-16T09:04:28Z</time>
      </trkpt>
      <trkpt lat="44.4736" lon="6.85726">
        <ele>2648</ele>
        <time>2022-08-16T09:04:29Z</time>
      </trkpt>
      <trkpt lat="44.4736" lon="6.85727">
        <ele>2648.4</ele>
        <time>2022-08-16T09:04:30Z</time>
      </trkpt>
      <trkpt lat="44.47361" lon="6.85729">
        <ele>2648.6</ele>
        <time>2022-08-16T09:04:31Z</time>
      </trkpt>
      <trkpt lat="44.47361" lon="6.85731">
        <ele>2648.8</ele>
        <time>2022-08-16T09:04:32Z</time>
      </trkpt>
      <trkpt lat="44.47362" lon="6.85732">
        <ele>2649</ele>
        <time>2022-08-16T09:04:33Z</time>
      </trkpt>
      <trkpt lat="44.47362" lon="6.85734">
        <ele>2649</ele>
        <time>2022-08-16T09:04:34Z</time>
      </trkpt>
      <trkpt lat="44.47362" lon="6.85736">
        <ele>2649</ele>
        <time>2022-08-16T09:04:35Z</time>
      </trkpt>
      <trkpt lat="44.47363" lon="6.85737">
        <ele>2649.2</ele>
        <time>2022-08-16T09:04:36Z</time>
      </trkpt>
      <trkpt lat="44.47363" lon="6.85739">
        <ele>2649.2</ele>
        <time>2022-08-16T09:04:37Z</time>
      </trkpt>
      <trkpt lat="44.47363" lon="6.85741">
        <ele>2649.4</ele>
        <time>2022-08-16T09:04:38Z</time>
      </trkpt>
      <trkpt lat="44.47364" lon="6.85742">
        <ele>2649.6</ele>
        <time>2022-08-16T09:04:39Z</time>
      </trkpt>
      <trkpt lat="44.47364" lon="6.85744">
        <ele>2649.8</ele>
        <time>2022-08-16T09:04:40Z</time>
      </trkpt>
      <trkpt lat="44.47365" lon="6.85746">
        <ele>2650.2</ele>
        <time>2022-08-16T09:04:41Z</time>
      </trkpt>
      <trkpt lat="44.47365" lon="6.85747">
        <ele>2650.2</ele>
        <time>2022-08-16T09:04:42Z</time>
      </trkpt>
      <trkpt lat="44.47366" lon="6.85749">
        <ele>2650.6</ele>
        <time>2022-08-16T09:04:43Z</time>
      </trkpt>
      <trkpt lat="44.47366" lon="6.85751">
        <ele>2650.8</ele>
        <time>2022-08-16T09:04:44Z</time>
      </trkpt>
      <trkpt lat="44.47366" lon="6.85752">
        <ele>2650.8</ele>
        <time>2022-08-16T09:04:45Z</time>
      </trkpt>
      <trkpt lat="44.47366" lon="6.85754">
        <ele>2651</ele>
        <time>2022-08-16T09:04:46Z</time>
      </trkpt>
      <trkpt lat="44.47367" lon="6.85755">
        <ele>2651.4</ele>
        <time>2022-08-16T09:04:47Z</time>
      </trkpt>
      <trkpt lat="44.47367" lon="6.85757">
        <ele>2651.4</ele>
        <time>2022-08-16T09:04:48Z</time>
      </trkpt>
      <trkpt lat="44.47367" lon="6.85758">
        <ele>2651.4</ele>
        <time>2022-08-16T09:04:49Z</time>
      </trkpt>
      <trkpt lat="44.47367" lon="6.8576">
        <ele>2651.6</ele>
        <time>2022-08-16T09:04:50Z</time>
      </trkpt>
      <trkpt lat="44.47368" lon="6.85762">
        <ele>2651.8</ele>
        <time>2022-08-16T09:04:51Z</time>
      </trkpt>
      <trkpt lat="44.47368" lon="6.85763">
        <ele>2651.8</ele>
        <time>2022-08-16T09:04:52Z</time>
      </trkpt>
      <trkpt lat="44.47368" lon="6.85765">
        <ele>2652</ele>
        <time>2022-08-16T09:04:53Z</time>
      </trkpt>
      <trkpt lat="44.47369" lon="6.85766">
        <ele>2652.4</ele>
        <time>2022-08-16T09:04:54Z</time>
      </trkpt>
      <trkpt lat="44.47369" lon="6.85768">
        <ele>2652.4</ele>
        <time>2022-08-16T09:04:55Z</time>
      </trkpt>
      <trkpt lat="44.47369" lon="6.8577">
        <ele>2652.6</ele>
        <time>2022-08-16T09:04:56Z</time>
      </trkpt>
      <trkpt lat="44.47369" lon="6.85771">
        <ele>2652.6</ele>
        <time>2022-08-16T09:04:57Z</time>
      </trkpt>
      <trkpt lat="44.47369" lon="6.85773">
        <ele>2652.6</ele>
        <time>2022-08-16T09:04:58Z</time>
      </trkpt>
      <trkpt lat="44.47369" lon="6.85775">
        <ele>2653</ele>
        <time>2022-08-16T09:04:59Z</time>
      </trkpt>
      <trkpt lat="44.47369" lon="6.85776">
        <ele>2653</ele>
        <time>2022-08-16T09:05:00Z</time>
      </trkpt>
      <trkpt lat="44.47369" lon="6.85778">
        <ele>2653.2</ele>
        <time>2022-08-16T09:05:01Z</time>
      </trkpt>
      <trkpt lat="44.47369" lon="6.8578">
        <ele>2653.4</ele>
        <time>2022-08-16T09:05:02Z</time>
      </trkpt>
      <trkpt lat="44.47369" lon="6.85782">
        <ele>2653.4</ele>
        <time>2022-08-16T09:05:03Z</time>
      </trkpt>
      <trkpt lat="44.47369" lon="6.85783">
        <ele>2653.6</ele>
        <time>2022-08-16T09:05:04Z</time>
      </trkpt>
      <trkpt lat="44.47369" lon="6.85785">
        <ele>2653.6</ele>
        <time>2022-08-16T09:05:05Z</time>
      </trkpt>
      <trkpt lat="44.47368" lon="6.85787">
        <ele>2654</ele>
        <time>2022-08-16T09:05:06Z</time>
      </trkpt>
      <trkpt lat="44.47368" lon="6.85789">
        <ele>2654</ele>
        <time>2022-08-16T09:05:07Z</time>
      </trkpt>
      <trkpt lat="44.47368" lon="6.8579">
        <ele>2654.2</ele>
        <time>2022-08-16T09:05:08Z</time>
      </trkpt>
      <trkpt lat="44.47367" lon="6.85792">
        <ele>2654.2</ele>
        <time>2022-08-16T09:05:09Z</time>
      </trkpt>
      <trkpt lat="44.47367" lon="6.85795">
        <ele>2654.6</ele>
        <time>2022-08-16T09:05:10Z</time>
      </trkpt>
      <trkpt lat="44.47367" lon="6.85797">
        <ele>2654.6</ele>
        <time>2022-08-16T09:05:11Z</time>
      </trkpt>
      <trkpt lat="44.47367" lon="6.85799">
        <ele>2654.8</ele>
        <time>2022-08-16T09:05:12Z</time>
      </trkpt>
      <trkpt lat="44.47367" lon="6.85802">
        <ele>2655</ele>
        <time>2022-08-16T09:05:13Z</time>
      </trkpt>
      <trkpt lat="44.47367" lon="6.85805">
        <ele>2655.2</ele>
        <time>2022-08-16T09:05:14Z</time>
      </trkpt>
      <trkpt lat="44.47367" lon="6.85807">
        <ele>2655.2</ele>
        <time>2022-08-16T09:05:15Z</time>
      </trkpt>
      <trkpt lat="44.47367" lon="6.85809">
        <ele>2655.4</ele>
        <time>2022-08-16T09:05:16Z</time>
      </trkpt>
      <trkpt lat="44.47368" lon="6.85811">
        <ele>2655.6</ele>
        <time>2022-08-16T09:05:17Z</time>
      </trkpt>
      <trkpt lat="44.47368" lon="6.85813">
        <ele>2655.6</ele>
        <time>2022-08-16T09:05:18Z</time>
      </trkpt>
      <trkpt lat="44.47368" lon="6.85815">
        <ele>2655.6</ele>
        <time>2022-08-16T09:05:19Z</time>
      </trkpt>
      <trkpt lat="44.47369" lon="6.85817">
        <ele>2655.6</ele>
        <time>2022-08-16T09:05:20Z</time>
      </trkpt>
      <trkpt lat="44.47369" lon="6.85818">
        <ele>2656</ele>
        <time>2022-08-16T09:05:21Z</time>
      </trkpt>
      <trkpt lat="44.47369" lon="6.85819">
        <ele>2655.8</ele>
        <time>2022-08-16T09:05:22Z</time>
      </trkpt>
      <trkpt lat="44.47369" lon="6.85821">
        <ele>2656</ele>
        <time>2022-08-16T09:05:23Z</time>
      </trkpt>
      <trkpt lat="44.47369" lon="6.85822">
        <ele>2656</ele>
        <time>2022-08-16T09:05:24Z</time>
      </trkpt>
      <trkpt lat="44.4737" lon="6.85823">
        <ele>2656</ele>
        <time>2022-08-16T09:05:25Z</time>
      </trkpt>
      <trkpt lat="44.4737" lon="6.85825">
        <ele>2656</ele>
        <time>2022-08-16T09:05:26Z</time>
      </trkpt>
      <trkpt lat="44.47371" lon="6.85826">
        <ele>2656.4</ele>
        <time>2022-08-16T09:05:27Z</time>
      </trkpt>
      <trkpt lat="44.47371" lon="6.85827">
        <ele>2656.6</ele>
        <time>2022-08-16T09:05:28Z</time>
      </trkpt>
      <trkpt lat="44.47372" lon="6.85829">
        <ele>2656.8</ele>
        <time>2022-08-16T09:05:29Z</time>
      </trkpt>
      <trkpt lat="44.47372" lon="6.8583">
        <ele>2657</ele>
        <time>2022-08-16T09:05:30Z</time>
      </trkpt>
      <trkpt lat="44.47373" lon="6.85832">
        <ele>2657.2</ele>
        <time>2022-08-16T09:05:31Z</time>
      </trkpt>
      <trkpt lat="44.47374" lon="6.85833">
        <ele>2657.4</ele>
        <time>2022-08-16T09:05:32Z</time>
      </trkpt>
      <trkpt lat="44.47374" lon="6.85835">
        <ele>2657.8</ele>
        <time>2022-08-16T09:05:33Z</time>
      </trkpt>
      <trkpt lat="44.47375" lon="6.85836">
        <ele>2658</ele>
        <time>2022-08-16T09:05:34Z</time>
      </trkpt>
      <trkpt lat="44.47375" lon="6.85838">
        <ele>2658</ele>
        <time>2022-08-16T09:05:35Z</time>
      </trkpt>
      <trkpt lat="44.47376" lon="6.85839">
        <ele>2658.2</ele>
        <time>2022-08-16T09:05:36Z</time>
      </trkpt>
      <trkpt lat="44.47376" lon="6.85841">
        <ele>2658.4</ele>
        <time>2022-08-16T09:05:37Z</time>
      </trkpt>
      <trkpt lat="44.47376" lon="6.85842">
        <ele>2658.6</ele>
        <time>2022-08-16T09:05:38Z</time>
      </trkpt>
      <trkpt lat="44.47377" lon="6.85844">
        <ele>2658.8</ele>
        <time>2022-08-16T09:05:39Z</time>
      </trkpt>
      <trkpt lat="44.47377" lon="6.85845">
        <ele>2659</ele>
        <time>2022-08-16T09:05:40Z</time>
      </trkpt>
      <trkpt lat="44.47378" lon="6.85847">
        <ele>2659</ele>
        <time>2022-08-16T09:05:41Z</time>
      </trkpt>
      <trkpt lat="44.47378" lon="6.85848">
        <ele>2659</ele>
        <time>2022-08-16T09:05:42Z</time>
      </trkpt>
      <trkpt lat="44.47378" lon="6.8585">
        <ele>2659.4</ele>
        <time>2022-08-16T09:05:43Z</time>
      </trkpt>
      <trkpt lat="44.47378" lon="6.85851">
        <ele>2659.6</ele>
        <time>2022-08-16T09:05:44Z</time>
      </trkpt>
      <trkpt lat="44.47379" lon="6.85853">
        <ele>2659.8</ele>
        <time>2022-08-16T09:05:45Z</time>
      </trkpt>
      <trkpt lat="44.47379" lon="6.85854">
        <ele>2660</ele>
        <time>2022-08-16T09:05:46Z</time>
      </trkpt>
      <trkpt lat="44.4738" lon="6.85856">
        <ele>2660</ele>
        <time>2022-08-16T09:05:47Z</time>
      </trkpt>
      <trkpt lat="44.4738" lon="6.85857">
        <ele>2660.2</ele>
        <time>2022-08-16T09:05:48Z</time>
      </trkpt>
      <trkpt lat="44.4738" lon="6.85859">
        <ele>2660.2</ele>
        <time>2022-08-16T09:05:49Z</time>
      </trkpt>
      <trkpt lat="44.47381" lon="6.85861">
        <ele>2660.2</ele>
        <time>2022-08-16T09:05:50Z</time>
      </trkpt>
      <trkpt lat="44.47381" lon="6.85862">
        <ele>2660.6</ele>
        <time>2022-08-16T09:05:51Z</time>
      </trkpt>
      <trkpt lat="44.47381" lon="6.85863">
        <ele>2660.8</ele>
        <time>2022-08-16T09:05:52Z</time>
      </trkpt>
      <trkpt lat="44.47382" lon="6.85865">
        <ele>2661</ele>
        <time>2022-08-16T09:05:53Z</time>
      </trkpt>
      <trkpt lat="44.47383" lon="6.85866">
        <ele>2660.8</ele>
        <time>2022-08-16T09:05:54Z</time>
      </trkpt>
      <trkpt lat="44.47383" lon="6.85868">
        <ele>2661.2</ele>
        <time>2022-08-16T09:05:55Z</time>
      </trkpt>
      <trkpt lat="44.47384" lon="6.85869">
        <ele>2661.4</ele>
        <time>2022-08-16T09:05:56Z</time>
      </trkpt>
      <trkpt lat="44.47384" lon="6.85869">
        <ele>2661.6</ele>
        <time>2022-08-16T09:05:57Z</time>
      </trkpt>
      <trkpt lat="44.47384" lon="6.8587">
        <ele>2661.8</ele>
        <time>2022-08-16T09:05:59Z</time>
      </trkpt>
      <trkpt lat="44.47385" lon="6.8587">
        <ele>2662.2</ele>
        <time>2022-08-16T09:06:00Z</time>
      </trkpt>
      <trkpt lat="44.47385" lon="6.85871">
        <ele>2662.6</ele>
        <time>2022-08-16T09:06:01Z</time>
      </trkpt>
      <trkpt lat="44.47385" lon="6.85872">
        <ele>2662.8</ele>
        <time>2022-08-16T09:06:02Z</time>
      </trkpt>
      <trkpt lat="44.47385" lon="6.85874">
        <ele>2663</ele>
        <time>2022-08-16T09:06:03Z</time>
      </trkpt>
      <trkpt lat="44.47386" lon="6.85875">
        <ele>2663.2</ele>
        <time>2022-08-16T09:06:04Z</time>
      </trkpt>
      <trkpt lat="44.47386" lon="6.85877">
        <ele>2663.2</ele>
        <time>2022-08-16T09:06:05Z</time>
      </trkpt>
      <trkpt lat="44.47387" lon="6.85878">
        <ele>2663.4</ele>
        <time>2022-08-16T09:06:06Z</time>
      </trkpt>
      <trkpt lat="44.47387" lon="6.8588">
        <ele>2663.6</ele>
        <time>2022-08-16T09:06:07Z</time>
      </trkpt>
      <trkpt lat="44.47387" lon="6.85881">
        <ele>2663.4</ele>
        <time>2022-08-16T09:06:08Z</time>
      </trkpt>
      <trkpt lat="44.47387" lon="6.85883">
        <ele>2663.6</ele>
        <time>2022-08-16T09:06:09Z</time>
      </trkpt>
      <trkpt lat="44.47387" lon="6.85885">
        <ele>2663.6</ele>
        <time>2022-08-16T09:06:10Z</time>
      </trkpt>
      <trkpt lat="44.47387" lon="6.85886">
        <ele>2663.6</ele>
        <time>2022-08-16T09:06:11Z</time>
      </trkpt>
      <trkpt lat="44.47386" lon="6.85888">
        <ele>2663.6</ele>
        <time>2022-08-16T09:06:12Z</time>
      </trkpt>
      <trkpt lat="44.47386" lon="6.8589">
        <ele>2663.8</ele>
        <time>2022-08-16T09:06:13Z</time>
      </trkpt>
      <trkpt lat="44.47386" lon="6.85891">
        <ele>2664</ele>
        <time>2022-08-16T09:06:14Z</time>
      </trkpt>
      <trkpt lat="44.47386" lon="6.85893">
        <ele>2664.2</ele>
        <time>2022-08-16T09:06:15Z</time>
      </trkpt>
      <trkpt lat="44.47386" lon="6.85895">
        <ele>2664.4</ele>
        <time>2022-08-16T09:06:16Z</time>
      </trkpt>
      <trkpt lat="44.47386" lon="6.85896">
        <ele>2664.6</ele>
        <time>2022-08-16T09:06:17Z</time>
      </trkpt>
      <trkpt lat="44.47386" lon="6.85898">
        <ele>2664.6</ele>
        <time>2022-08-16T09:06:18Z</time>
      </trkpt>
      <trkpt lat="44.47385" lon="6.85899">
        <ele>2664.8</ele>
        <time>2022-08-16T09:06:19Z</time>
      </trkpt>
      <trkpt lat="44.47385" lon="6.85901">
        <ele>2664.8</ele>
        <time>2022-08-16T09:06:20Z</time>
      </trkpt>
      <trkpt lat="44.47385" lon="6.85902">
        <ele>2664.8</ele>
        <time>2022-08-16T09:06:21Z</time>
      </trkpt>
      <trkpt lat="44.47384" lon="6.85904">
        <ele>2665</ele>
        <time>2022-08-16T09:06:22Z</time>
      </trkpt>
      <trkpt lat="44.47384" lon="6.85905">
        <ele>2665.2</ele>
        <time>2022-08-16T09:06:23Z</time>
      </trkpt>
      <trkpt lat="44.47384" lon="6.85907">
        <ele>2665.2</ele>
        <time>2022-08-16T09:06:24Z</time>
      </trkpt>
      <trkpt lat="44.47383" lon="6.85908">
        <ele>2665.4</ele>
        <time>2022-08-16T09:06:25Z</time>
      </trkpt>
      <trkpt lat="44.47383" lon="6.8591">
        <ele>2665.4</ele>
        <time>2022-08-16T09:06:26Z</time>
      </trkpt>
      <trkpt lat="44.47383" lon="6.85912">
        <ele>2665.6</ele>
        <time>2022-08-16T09:06:27Z</time>
      </trkpt>
      <trkpt lat="44.47383" lon="6.85913">
        <ele>2665.6</ele>
        <time>2022-08-16T09:06:28Z</time>
      </trkpt>
      <trkpt lat="44.47382" lon="6.85915">
        <ele>2665.8</ele>
        <time>2022-08-16T09:06:29Z</time>
      </trkpt>
      <trkpt lat="44.47382" lon="6.85916">
        <ele>2665.8</ele>
        <time>2022-08-16T09:06:30Z</time>
      </trkpt>
      <trkpt lat="44.47382" lon="6.85918">
        <ele>2666.2</ele>
        <time>2022-08-16T09:06:31Z</time>
      </trkpt>
      <trkpt lat="44.47382" lon="6.8592">
        <ele>2666.2</ele>
        <time>2022-08-16T09:06:32Z</time>
      </trkpt>
      <trkpt lat="44.47381" lon="6.85921">
        <ele>2666.4</ele>
        <time>2022-08-16T09:06:33Z</time>
      </trkpt>
      <trkpt lat="44.47381" lon="6.85922">
        <ele>2666.6</ele>
        <time>2022-08-16T09:06:34Z</time>
      </trkpt>
      <trkpt lat="44.47381" lon="6.85924">
        <ele>2666.8</ele>
        <time>2022-08-16T09:06:35Z</time>
      </trkpt>
      <trkpt lat="44.4738" lon="6.85925">
        <ele>2666.8</ele>
        <time>2022-08-16T09:06:36Z</time>
      </trkpt>
      <trkpt lat="44.4738" lon="6.85927">
        <ele>2667</ele>
        <time>2022-08-16T09:06:37Z</time>
      </trkpt>
      <trkpt lat="44.4738" lon="6.85928">
        <ele>2667</ele>
        <time>2022-08-16T09:06:38Z</time>
      </trkpt>
      <trkpt lat="44.4738" lon="6.8593">
        <ele>2667.4</ele>
        <time>2022-08-16T09:06:39Z</time>
      </trkpt>
      <trkpt lat="44.4738" lon="6.85932">
        <ele>2667.4</ele>
        <time>2022-08-16T09:06:40Z</time>
      </trkpt>
      <trkpt lat="44.47379" lon="6.85933">
        <ele>2667.6</ele>
        <time>2022-08-16T09:06:41Z</time>
      </trkpt>
      <trkpt lat="44.47379" lon="6.85935">
        <ele>2667.8</ele>
        <time>2022-08-16T09:06:42Z</time>
      </trkpt>
      <trkpt lat="44.47379" lon="6.85936">
        <ele>2668</ele>
        <time>2022-08-16T09:06:43Z</time>
      </trkpt>
      <trkpt lat="44.47378" lon="6.85938">
        <ele>2668.2</ele>
        <time>2022-08-16T09:06:44Z</time>
      </trkpt>
      <trkpt lat="44.47378" lon="6.8594">
        <ele>2668.4</ele>
        <time>2022-08-16T09:06:45Z</time>
      </trkpt>
      <trkpt lat="44.47378" lon="6.85941">
        <ele>2668.4</ele>
        <time>2022-08-16T09:06:46Z</time>
      </trkpt>
      <trkpt lat="44.47378" lon="6.85943">
        <ele>2668.6</ele>
        <time>2022-08-16T09:06:47Z</time>
      </trkpt>
      <trkpt lat="44.47378" lon="6.85945">
        <ele>2668.6</ele>
        <time>2022-08-16T09:06:48Z</time>
      </trkpt>
      <trkpt lat="44.47377" lon="6.85946">
        <ele>2669</ele>
        <time>2022-08-16T09:06:49Z</time>
      </trkpt>
      <trkpt lat="44.47377" lon="6.85948">
        <ele>2669.2</ele>
        <time>2022-08-16T09:06:50Z</time>
      </trkpt>
      <trkpt lat="44.47377" lon="6.85949">
        <ele>2669.2</ele>
        <time>2022-08-16T09:06:51Z</time>
      </trkpt>
      <trkpt lat="44.47376" lon="6.85951">
        <ele>2669.2</ele>
        <time>2022-08-16T09:06:52Z</time>
      </trkpt>
      <trkpt lat="44.47376" lon="6.85953">
        <ele>2669.6</ele>
        <time>2022-08-16T09:06:53Z</time>
      </trkpt>
      <trkpt lat="44.47376" lon="6.85954">
        <ele>2669.6</ele>
        <time>2022-08-16T09:06:54Z</time>
      </trkpt>
      <trkpt lat="44.47376" lon="6.85956">
        <ele>2670</ele>
        <time>2022-08-16T09:06:55Z</time>
      </trkpt>
      <trkpt lat="44.47376" lon="6.85957">
        <ele>2670</ele>
        <time>2022-08-16T09:06:56Z</time>
      </trkpt>
      <trkpt lat="44.47375" lon="6.85959">
        <ele>2670</ele>
        <time>2022-08-16T09:06:57Z</time>
      </trkpt>
      <trkpt lat="44.47375" lon="6.8596">
        <ele>2670.2</ele>
        <time>2022-08-16T09:06:58Z</time>
      </trkpt>
      <trkpt lat="44.47374" lon="6.85962">
        <ele>2670.4</ele>
        <time>2022-08-16T09:06:59Z</time>
      </trkpt>
      <trkpt lat="44.47373" lon="6.85963">
        <ele>2670.6</ele>
        <time>2022-08-16T09:07:00Z</time>
      </trkpt>
      <trkpt lat="44.47372" lon="6.85964">
        <ele>2670.8</ele>
        <time>2022-08-16T09:07:01Z</time>
      </trkpt>
      <trkpt lat="44.47371" lon="6.85964">
        <ele>2671</ele>
        <time>2022-08-16T09:07:02Z</time>
      </trkpt>
      <trkpt lat="44.47369" lon="6.85964">
        <ele>2671</ele>
        <time>2022-08-16T09:07:03Z</time>
      </trkpt>
      <trkpt lat="44.47368" lon="6.85964">
        <ele>2671.2</ele>
        <time>2022-08-16T09:07:04Z</time>
      </trkpt>
      <trkpt lat="44.47368" lon="6.85963">
        <ele>2671.4</ele>
        <time>2022-08-16T09:07:05Z</time>
      </trkpt>
      <trkpt lat="44.47367" lon="6.85962">
        <ele>2671.6</ele>
        <time>2022-08-16T09:07:06Z</time>
      </trkpt>
      <trkpt lat="44.47366" lon="6.85961">
        <ele>2671.8</ele>
        <time>2022-08-16T09:07:07Z</time>
      </trkpt>
      <trkpt lat="44.47365" lon="6.8596">
        <ele>2671.8</ele>
        <time>2022-08-16T09:07:08Z</time>
      </trkpt>
      <trkpt lat="44.47364" lon="6.85958">
        <ele>2672</ele>
        <time>2022-08-16T09:07:09Z</time>
      </trkpt>
      <trkpt lat="44.47363" lon="6.85957">
        <ele>2672.2</ele>
        <time>2022-08-16T09:07:10Z</time>
      </trkpt>
      <trkpt lat="44.47362" lon="6.85956">
        <ele>2672.4</ele>
        <time>2022-08-16T09:07:11Z</time>
      </trkpt>
      <trkpt lat="44.47361" lon="6.85955">
        <ele>2672.6</ele>
        <time>2022-08-16T09:07:12Z</time>
      </trkpt>
      <trkpt lat="44.4736" lon="6.85954">
        <ele>2672.8</ele>
        <time>2022-08-16T09:07:13Z</time>
      </trkpt>
      <trkpt lat="44.47359" lon="6.85952">
        <ele>2672.8</ele>
        <time>2022-08-16T09:07:14Z</time>
      </trkpt>
      <trkpt lat="44.47358" lon="6.85951">
        <ele>2672.8</ele>
        <time>2022-08-16T09:07:15Z</time>
      </trkpt>
      <trkpt lat="44.47358" lon="6.8595">
        <ele>2673</ele>
        <time>2022-08-16T09:07:16Z</time>
      </trkpt>
      <trkpt lat="44.47357" lon="6.85949">
        <ele>2673.2</ele>
        <time>2022-08-16T09:07:17Z</time>
      </trkpt>
      <trkpt lat="44.47356" lon="6.85948">
        <ele>2673.4</ele>
        <time>2022-08-16T09:07:18Z</time>
      </trkpt>
      <trkpt lat="44.47355" lon="6.85946">
        <ele>2673.4</ele>
        <time>2022-08-16T09:07:19Z</time>
      </trkpt>
      <trkpt lat="44.47355" lon="6.85945">
        <ele>2673.4</ele>
        <time>2022-08-16T09:07:20Z</time>
      </trkpt>
      <trkpt lat="44.47354" lon="6.85943">
        <ele>2673.4</ele>
        <time>2022-08-16T09:07:21Z</time>
      </trkpt>
      <trkpt lat="44.47353" lon="6.85942">
        <ele>2673.4</ele>
        <time>2022-08-16T09:07:22Z</time>
      </trkpt>
      <trkpt lat="44.47352" lon="6.8594">
        <ele>2673.6</ele>
        <time>2022-08-16T09:07:23Z</time>
      </trkpt>
      <trkpt lat="44.47351" lon="6.85939">
        <ele>2673.6</ele>
        <time>2022-08-16T09:07:24Z</time>
      </trkpt>
      <trkpt lat="44.47351" lon="6.85937">
        <ele>2673.6</ele>
        <time>2022-08-16T09:07:25Z</time>
      </trkpt>
      <trkpt lat="44.4735" lon="6.85936">
        <ele>2673.8</ele>
        <time>2022-08-16T09:07:26Z</time>
      </trkpt>
      <trkpt lat="44.4735" lon="6.85935">
        <ele>2673.8</ele>
        <time>2022-08-16T09:07:27Z</time>
      </trkpt>
      <trkpt lat="44.47349" lon="6.85933">
        <ele>2673.8</ele>
        <time>2022-08-16T09:07:28Z</time>
      </trkpt>
      <trkpt lat="44.47349" lon="6.85932">
        <ele>2674</ele>
        <time>2022-08-16T09:07:29Z</time>
      </trkpt>
      <trkpt lat="44.47348" lon="6.85931">
        <ele>2674.2</ele>
        <time>2022-08-16T09:07:30Z</time>
      </trkpt>
      <trkpt lat="44.47347" lon="6.85929">
        <ele>2674.2</ele>
        <time>2022-08-16T09:07:31Z</time>
      </trkpt>
      <trkpt lat="44.47347" lon="6.85928">
        <ele>2674.4</ele>
        <time>2022-08-16T09:07:32Z</time>
      </trkpt>
      <trkpt lat="44.47346" lon="6.85926">
        <ele>2674.6</ele>
        <time>2022-08-16T09:07:33Z</time>
      </trkpt>
      <trkpt lat="44.47346" lon="6.85925">
        <ele>2674.6</ele>
        <time>2022-08-16T09:07:34Z</time>
      </trkpt>
      <trkpt lat="44.47345" lon="6.85924">
        <ele>2674.8</ele>
        <time>2022-08-16T09:07:35Z</time>
      </trkpt>
      <trkpt lat="44.47345" lon="6.85923">
        <ele>2675.2</ele>
        <time>2022-08-16T09:07:36Z</time>
      </trkpt>
      <trkpt lat="44.47344" lon="6.85922">
        <ele>2675.2</ele>
        <time>2022-08-16T09:07:37Z</time>
      </trkpt>
      <trkpt lat="44.47344" lon="6.8592">
        <ele>2675.4</ele>
        <time>2022-08-16T09:07:38Z</time>
      </trkpt>
      <trkpt lat="44.47344" lon="6.85919">
        <ele>2675.6</ele>
        <time>2022-08-16T09:07:39Z</time>
      </trkpt>
      <trkpt lat="44.47343" lon="6.85918">
        <ele>2675.4</ele>
        <time>2022-08-16T09:07:40Z</time>
      </trkpt>
      <trkpt lat="44.47343" lon="6.85916">
        <ele>2675.6</ele>
        <time>2022-08-16T09:07:41Z</time>
      </trkpt>
      <trkpt lat="44.47342" lon="6.85915">
        <ele>2675.8</ele>
        <time>2022-08-16T09:07:42Z</time>
      </trkpt>
      <trkpt lat="44.47341" lon="6.85914">
        <ele>2675.8</ele>
        <time>2022-08-16T09:07:43Z</time>
      </trkpt>
      <trkpt lat="44.47341" lon="6.85913">
        <ele>2676</ele>
        <time>2022-08-16T09:07:44Z</time>
      </trkpt>
      <trkpt lat="44.4734" lon="6.85911">
        <ele>2676.2</ele>
        <time>2022-08-16T09:07:45Z</time>
      </trkpt>
      <trkpt lat="44.4734" lon="6.8591">
        <ele>2676.4</ele>
        <time>2022-08-16T09:07:46Z</time>
      </trkpt>
      <trkpt lat="44.47339" lon="6.85909">
        <ele>2676.4</ele>
        <time>2022-08-16T09:07:47Z</time>
      </trkpt>
      <trkpt lat="44.47339" lon="6.85908">
        <ele>2676.6</ele>
        <time>2022-08-16T09:07:48Z</time>
      </trkpt>
      <trkpt lat="44.47338" lon="6.85906">
        <ele>2676.8</ele>
        <time>2022-08-16T09:07:49Z</time>
      </trkpt>
      <trkpt lat="44.47338" lon="6.85905">
        <ele>2676.8</ele>
        <time>2022-08-16T09:07:50Z</time>
      </trkpt>
      <trkpt lat="44.47337" lon="6.85904">
        <ele>2676.8</ele>
        <time>2022-08-16T09:07:51Z</time>
      </trkpt>
      <trkpt lat="44.47336" lon="6.85902">
        <ele>2677.2</ele>
        <time>2022-08-16T09:07:52Z</time>
      </trkpt>
      <trkpt lat="44.47336" lon="6.85901">
        <ele>2677.2</ele>
        <time>2022-08-16T09:07:53Z</time>
      </trkpt>
      <trkpt lat="44.47336" lon="6.85899">
        <ele>2677.6</ele>
        <time>2022-08-16T09:07:54Z</time>
      </trkpt>
      <trkpt lat="44.47335" lon="6.85898">
        <ele>2677.8</ele>
        <time>2022-08-16T09:07:55Z</time>
      </trkpt>
      <trkpt lat="44.47335" lon="6.85896">
        <ele>2678</ele>
        <time>2022-08-16T09:07:56Z</time>
      </trkpt>
      <trkpt lat="44.47334" lon="6.85894">
        <ele>2678.2</ele>
        <time>2022-08-16T09:07:57Z</time>
      </trkpt>
      <trkpt lat="44.47334" lon="6.85893">
        <ele>2678.4</ele>
        <time>2022-08-16T09:07:58Z</time>
      </trkpt>
      <trkpt lat="44.47334" lon="6.85891">
        <ele>2678.4</ele>
        <time>2022-08-16T09:07:59Z</time>
      </trkpt>
      <trkpt lat="44.47333" lon="6.85889">
        <ele>2678.4</ele>
        <time>2022-08-16T09:08:00Z</time>
      </trkpt>
      <trkpt lat="44.47333" lon="6.85888">
        <ele>2678.6</ele>
        <time>2022-08-16T09:08:01Z</time>
      </trkpt>
      <trkpt lat="44.47333" lon="6.85886">
        <ele>2678.6</ele>
        <time>2022-08-16T09:08:02Z</time>
      </trkpt>
      <trkpt lat="44.47332" lon="6.85885">
        <ele>2678.6</ele>
        <time>2022-08-16T09:08:03Z</time>
      </trkpt>
      <trkpt lat="44.47332" lon="6.85883">
        <ele>2678.8</ele>
        <time>2022-08-16T09:08:04Z</time>
      </trkpt>
      <trkpt lat="44.47331" lon="6.85881">
        <ele>2678.8</ele>
        <time>2022-08-16T09:08:05Z</time>
      </trkpt>
      <trkpt lat="44.4733" lon="6.8588">
        <ele>2678.8</ele>
        <time>2022-08-16T09:08:06Z</time>
      </trkpt>
      <trkpt lat="44.4733" lon="6.85878">
        <ele>2678.8</ele>
        <time>2022-08-16T09:08:07Z</time>
      </trkpt>
      <trkpt lat="44.47329" lon="6.85876">
        <ele>2678.8</ele>
        <time>2022-08-16T09:08:08Z</time>
      </trkpt>
      <trkpt lat="44.47329" lon="6.85875">
        <ele>2679</ele>
        <time>2022-08-16T09:08:09Z</time>
      </trkpt>
      <trkpt lat="44.47328" lon="6.85873">
        <ele>2678.8</ele>
        <time>2022-08-16T09:08:10Z</time>
      </trkpt>
      <trkpt lat="44.47327" lon="6.85872">
        <ele>2679.2</ele>
        <time>2022-08-16T09:08:11Z</time>
      </trkpt>
      <trkpt lat="44.47326" lon="6.8587">
        <ele>2679.2</ele>
        <time>2022-08-16T09:08:12Z</time>
      </trkpt>
      <trkpt lat="44.47326" lon="6.85869">
        <ele>2679.4</ele>
        <time>2022-08-16T09:08:13Z</time>
      </trkpt>
      <trkpt lat="44.47325" lon="6.85868">
        <ele>2679.6</ele>
        <time>2022-08-16T09:08:14Z</time>
      </trkpt>
      <trkpt lat="44.47324" lon="6.85866">
        <ele>2679.6</ele>
        <time>2022-08-16T09:08:15Z</time>
      </trkpt>
      <trkpt lat="44.47324" lon="6.85864">
        <ele>2679.8</ele>
        <time>2022-08-16T09:08:16Z</time>
      </trkpt>
      <trkpt lat="44.47324" lon="6.85863">
        <ele>2679.8</ele>
        <time>2022-08-16T09:08:17Z</time>
      </trkpt>
      <trkpt lat="44.47323" lon="6.85861">
        <ele>2680.2</ele>
        <time>2022-08-16T09:08:18Z</time>
      </trkpt>
      <trkpt lat="44.47322" lon="6.8586">
        <ele>2680.4</ele>
        <time>2022-08-16T09:08:19Z</time>
      </trkpt>
      <trkpt lat="44.47322" lon="6.85859">
        <ele>2680.6</ele>
        <time>2022-08-16T09:08:20Z</time>
      </trkpt>
      <trkpt lat="44.47321" lon="6.85857">
        <ele>2680.8</ele>
        <time>2022-08-16T09:08:21Z</time>
      </trkpt>
      <trkpt lat="44.47321" lon="6.85856">
        <ele>2680.8</ele>
        <time>2022-08-16T09:08:22Z</time>
      </trkpt>
      <trkpt lat="44.4732" lon="6.85855">
        <ele>2681</ele>
        <time>2022-08-16T09:08:23Z</time>
      </trkpt>
      <trkpt lat="44.4732" lon="6.85854">
        <ele>2681.2</ele>
        <time>2022-08-16T09:08:24Z</time>
      </trkpt>
      <trkpt lat="44.4732" lon="6.85853">
        <ele>2681.4</ele>
        <time>2022-08-16T09:08:25Z</time>
      </trkpt>
      <trkpt lat="44.47319" lon="6.85852">
        <ele>2681.8</ele>
        <time>2022-08-16T09:08:26Z</time>
      </trkpt>
      <trkpt lat="44.47319" lon="6.8585">
        <ele>2682</ele>
        <time>2022-08-16T09:08:27Z</time>
      </trkpt>
      <trkpt lat="44.47319" lon="6.85849">
        <ele>2682.2</ele>
        <time>2022-08-16T09:08:28Z</time>
      </trkpt>
      <trkpt lat="44.47318" lon="6.85847">
        <ele>2682.6</ele>
        <time>2022-08-16T09:08:29Z</time>
      </trkpt>
      <trkpt lat="44.47318" lon="6.85846">
        <ele>2683</ele>
        <time>2022-08-16T09:08:30Z</time>
      </trkpt>
      <trkpt lat="44.47318" lon="6.85844">
        <ele>2683.2</ele>
        <time>2022-08-16T09:08:31Z</time>
      </trkpt>
      <trkpt lat="44.47318" lon="6.85843">
        <ele>2683.4</ele>
        <time>2022-08-16T09:08:32Z</time>
      </trkpt>
      <trkpt lat="44.47318" lon="6.85841">
        <ele>2683.6</ele>
        <time>2022-08-16T09:08:33Z</time>
      </trkpt>
      <trkpt lat="44.47319" lon="6.85839">
        <ele>2683.6</ele>
        <time>2022-08-16T09:08:34Z</time>
      </trkpt>
      <trkpt lat="44.47319" lon="6.85838">
        <ele>2683.8</ele>
        <time>2022-08-16T09:08:35Z</time>
      </trkpt>
      <trkpt lat="44.4732" lon="6.85837">
        <ele>2684.2</ele>
        <time>2022-08-16T09:08:36Z</time>
      </trkpt>
      <trkpt lat="44.4732" lon="6.85835">
        <ele>2684.2</ele>
        <time>2022-08-16T09:08:37Z</time>
      </trkpt>
      <trkpt lat="44.4732" lon="6.85834">
        <ele>2684.6</ele>
        <time>2022-08-16T09:08:38Z</time>
      </trkpt>
      <trkpt lat="44.47321" lon="6.85832">
        <ele>2684.8</ele>
        <time>2022-08-16T09:08:39Z</time>
      </trkpt>
      <trkpt lat="44.47321" lon="6.85831">
        <ele>2685</ele>
        <time>2022-08-16T09:08:40Z</time>
      </trkpt>
      <trkpt lat="44.47322" lon="6.85829">
        <ele>2685.2</ele>
        <time>2022-08-16T09:08:41Z</time>
      </trkpt>
      <trkpt lat="44.47322" lon="6.85828">
        <ele>2685.2</ele>
        <time>2022-08-16T09:08:42Z</time>
      </trkpt>
      <trkpt lat="44.47322" lon="6.85826">
        <ele>2685.4</ele>
        <time>2022-08-16T09:08:43Z</time>
      </trkpt>
      <trkpt lat="44.47322" lon="6.85825">
        <ele>2685.6</ele>
        <time>2022-08-16T09:08:44Z</time>
      </trkpt>
      <trkpt lat="44.47322" lon="6.85823">
        <ele>2685.8</ele>
        <time>2022-08-16T09:08:45Z</time>
      </trkpt>
      <trkpt lat="44.47322" lon="6.85822">
        <ele>2686</ele>
        <time>2022-08-16T09:08:46Z</time>
      </trkpt>
      <trkpt lat="44.47322" lon="6.8582">
        <ele>2686</ele>
        <time>2022-08-16T09:08:47Z</time>
      </trkpt>
      <trkpt lat="44.47322" lon="6.85819">
        <ele>2686.2</ele>
        <time>2022-08-16T09:08:48Z</time>
      </trkpt>
      <trkpt lat="44.47323" lon="6.85817">
        <ele>2686.4</ele>
        <time>2022-08-16T09:08:49Z</time>
      </trkpt>
      <trkpt lat="44.47323" lon="6.85816">
        <ele>2686.6</ele>
        <time>2022-08-16T09:08:50Z</time>
      </trkpt>
      <trkpt lat="44.47323" lon="6.85814">
        <ele>2686.8</ele>
        <time>2022-08-16T09:08:51Z</time>
      </trkpt>
      <trkpt lat="44.47323" lon="6.85813">
        <ele>2686.8</ele>
        <time>2022-08-16T09:08:52Z</time>
      </trkpt>
      <trkpt lat="44.47323" lon="6.85811">
        <ele>2687.2</ele>
        <time>2022-08-16T09:08:53Z</time>
      </trkpt>
      <trkpt lat="44.47323" lon="6.8581">
        <ele>2687.2</ele>
        <time>2022-08-16T09:08:54Z</time>
      </trkpt>
      <trkpt lat="44.47323" lon="6.85808">
        <ele>2687.4</ele>
        <time>2022-08-16T09:08:55Z</time>
      </trkpt>
      <trkpt lat="44.47323" lon="6.85807">
        <ele>2687.4</ele>
        <time>2022-08-16T09:08:56Z</time>
      </trkpt>
      <trkpt lat="44.47323" lon="6.85805">
        <ele>2687.4</ele>
        <time>2022-08-16T09:08:57Z</time>
      </trkpt>
      <trkpt lat="44.47323" lon="6.85804">
        <ele>2687.6</ele>
        <time>2022-08-16T09:08:58Z</time>
      </trkpt>
      <trkpt lat="44.47322" lon="6.85802">
        <ele>2687.6</ele>
        <time>2022-08-16T09:08:59Z</time>
      </trkpt>
      <trkpt lat="44.47322" lon="6.85801">
        <ele>2687.8</ele>
        <time>2022-08-16T09:09:00Z</time>
      </trkpt>
      <trkpt lat="44.47322" lon="6.85799">
        <ele>2688</ele>
        <time>2022-08-16T09:09:01Z</time>
      </trkpt>
      <trkpt lat="44.47322" lon="6.85798">
        <ele>2688</ele>
        <time>2022-08-16T09:09:02Z</time>
      </trkpt>
      <trkpt lat="44.47321" lon="6.85797">
        <ele>2688.2</ele>
        <time>2022-08-16T09:09:03Z</time>
      </trkpt>
      <trkpt lat="44.47321" lon="6.85795">
        <ele>2688.2</ele>
        <time>2022-08-16T09:09:04Z</time>
      </trkpt>
      <trkpt lat="44.4732" lon="6.85794">
        <ele>2688.2</ele>
        <time>2022-08-16T09:09:05Z</time>
      </trkpt>
      <trkpt lat="44.47319" lon="6.85793">
        <ele>2688.4</ele>
        <time>2022-08-16T09:09:06Z</time>
      </trkpt>
      <trkpt lat="44.47319" lon="6.85792">
        <ele>2688.8</ele>
        <time>2022-08-16T09:09:07Z</time>
      </trkpt>
      <trkpt lat="44.47318" lon="6.8579">
        <ele>2688.8</ele>
        <time>2022-08-16T09:09:08Z</time>
      </trkpt>
      <trkpt lat="44.47318" lon="6.85789">
        <ele>2689</ele>
        <time>2022-08-16T09:09:09Z</time>
      </trkpt>
      <trkpt lat="44.47317" lon="6.85788">
        <ele>2689</ele>
        <time>2022-08-16T09:09:10Z</time>
      </trkpt>
      <trkpt lat="44.47316" lon="6.85787">
        <ele>2689</ele>
        <time>2022-08-16T09:09:11Z</time>
      </trkpt>
      <trkpt lat="44.47315" lon="6.85785">
        <ele>2689.2</ele>
        <time>2022-08-16T09:09:12Z</time>
      </trkpt>
      <trkpt lat="44.47314" lon="6.85784">
        <ele>2689.6</ele>
        <time>2022-08-16T09:09:13Z</time>
      </trkpt>
      <trkpt lat="44.47313" lon="6.85783">
        <ele>2689.8</ele>
        <time>2022-08-16T09:09:14Z</time>
      </trkpt>
      <trkpt lat="44.47312" lon="6.85782">
        <ele>2690.2</ele>
        <time>2022-08-16T09:09:15Z</time>
      </trkpt>
      <trkpt lat="44.47311" lon="6.85781">
        <ele>2690.2</ele>
        <time>2022-08-16T09:09:16Z</time>
      </trkpt>
      <trkpt lat="44.47311" lon="6.8578">
        <ele>2690.6</ele>
        <time>2022-08-16T09:09:17Z</time>
      </trkpt>
      <trkpt lat="44.4731" lon="6.85779">
        <ele>2690.8</ele>
        <time>2022-08-16T09:09:18Z</time>
      </trkpt>
      <trkpt lat="44.47309" lon="6.85778">
        <ele>2691</ele>
        <time>2022-08-16T09:09:19Z</time>
      </trkpt>
      <trkpt lat="44.47308" lon="6.85776">
        <ele>2691.2</ele>
        <time>2022-08-16T09:09:20Z</time>
      </trkpt>
      <trkpt lat="44.47307" lon="6.85775">
        <ele>2691.2</ele>
        <time>2022-08-16T09:09:21Z</time>
      </trkpt>
      <trkpt lat="44.47306" lon="6.85774">
        <ele>2691.4</ele>
        <time>2022-08-16T09:09:22Z</time>
      </trkpt>
      <trkpt lat="44.47305" lon="6.85773">
        <ele>2691.4</ele>
        <time>2022-08-16T09:09:23Z</time>
      </trkpt>
      <trkpt lat="44.47304" lon="6.85771">
        <ele>2691.4</ele>
        <time>2022-08-16T09:09:24Z</time>
      </trkpt>
      <trkpt lat="44.47304" lon="6.8577">
        <ele>2691.6</ele>
        <time>2022-08-16T09:09:25Z</time>
      </trkpt>
      <trkpt lat="44.47303" lon="6.85769">
        <ele>2691.8</ele>
        <time>2022-08-16T09:09:26Z</time>
      </trkpt>
      <trkpt lat="44.47301" lon="6.85768">
        <ele>2691.8</ele>
        <time>2022-08-16T09:09:27Z</time>
      </trkpt>
      <trkpt lat="44.47301" lon="6.85767">
        <ele>2691.8</ele>
        <time>2022-08-16T09:09:28Z</time>
      </trkpt>
      <trkpt lat="44.473" lon="6.85766">
        <ele>2692</ele>
        <time>2022-08-16T09:09:29Z</time>
      </trkpt>
      <trkpt lat="44.47299" lon="6.85765">
        <ele>2692.2</ele>
        <time>2022-08-16T09:09:30Z</time>
      </trkpt>
      <trkpt lat="44.47298" lon="6.85764">
        <ele>2692.2</ele>
        <time>2022-08-16T09:09:31Z</time>
      </trkpt>
      <trkpt lat="44.47297" lon="6.85763">
        <ele>2692.4</ele>
        <time>2022-08-16T09:09:32Z</time>
      </trkpt>
      <trkpt lat="44.47296" lon="6.85762">
        <ele>2692.6</ele>
        <time>2022-08-16T09:09:33Z</time>
      </trkpt>
      <trkpt lat="44.47295" lon="6.85761">
        <ele>2692.6</ele>
        <time>2022-08-16T09:09:34Z</time>
      </trkpt>
      <trkpt lat="44.47294" lon="6.8576">
        <ele>2692.8</ele>
        <time>2022-08-16T09:09:35Z</time>
      </trkpt>
      <trkpt lat="44.47293" lon="6.85759">
        <ele>2692.8</ele>
        <time>2022-08-16T09:09:36Z</time>
      </trkpt>
      <trkpt lat="44.47292" lon="6.85758">
        <ele>2692.8</ele>
        <time>2022-08-16T09:09:37Z</time>
      </trkpt>
      <trkpt lat="44.47291" lon="6.85757">
        <ele>2693</ele>
        <time>2022-08-16T09:09:38Z</time>
      </trkpt>
      <trkpt lat="44.47287" lon="6.85755">
        <ele>2692.8</ele>
        <time>2022-08-16T09:09:41Z</time>
      </trkpt>
      <trkpt lat="44.47287" lon="6.85756">
        <ele>2692.8</ele>
        <time>2022-08-16T09:09:42Z</time>
      </trkpt>
      <trkpt lat="44.47287" lon="6.85758">
        <ele>2693</ele>
        <time>2022-08-16T09:09:43Z</time>
      </trkpt>
      <trkpt lat="44.47289" lon="6.8576">
        <ele>2693.2</ele>
        <time>2022-08-16T09:09:45Z</time>
      </trkpt>
      <trkpt lat="44.47289" lon="6.85762">
        <ele>2693.2</ele>
        <time>2022-08-16T09:09:46Z</time>
      </trkpt>
      <trkpt lat="44.4729" lon="6.85763">
        <ele>2693.4</ele>
        <time>2022-08-16T09:09:47Z</time>
      </trkpt>
      <trkpt lat="44.47291" lon="6.85764">
        <ele>2693.4</ele>
        <time>2022-08-16T09:09:48Z</time>
      </trkpt>
      <trkpt lat="44.47292" lon="6.85765">
        <ele>2693.6</ele>
        <time>2022-08-16T09:09:49Z</time>
      </trkpt>
      <trkpt lat="44.47293" lon="6.85767">
        <ele>2693.6</ele>
        <time>2022-08-16T09:09:50Z</time>
      </trkpt>
      <trkpt lat="44.47294" lon="6.85768">
        <ele>2693.8</ele>
        <time>2022-08-16T09:09:51Z</time>
      </trkpt>
      <trkpt lat="44.47294" lon="6.85769">
        <ele>2694.2</ele>
        <time>2022-08-16T09:09:52Z</time>
      </trkpt>
      <trkpt lat="44.47295" lon="6.8577">
        <ele>2694.8</ele>
        <time>2022-08-16T09:09:53Z</time>
      </trkpt>
      <trkpt lat="44.47296" lon="6.85772">
        <ele>2695</ele>
        <time>2022-08-16T09:09:54Z</time>
      </trkpt>
      <trkpt lat="44.47297" lon="6.85773">
        <ele>2695.2</ele>
        <time>2022-08-16T09:09:55Z</time>
      </trkpt>
      <trkpt lat="44.47298" lon="6.85774">
        <ele>2695.4</ele>
        <time>2022-08-16T09:09:56Z</time>
      </trkpt>
      <trkpt lat="44.47298" lon="6.85776">
        <ele>2695.6</ele>
        <time>2022-08-16T09:09:57Z</time>
      </trkpt>
      <trkpt lat="44.47299" lon="6.85777">
        <ele>2695.8</ele>
        <time>2022-08-16T09:09:58Z</time>
      </trkpt>
      <trkpt lat="44.47299" lon="6.85779">
        <ele>2695.8</ele>
        <time>2022-08-16T09:09:59Z</time>
      </trkpt>
      <trkpt lat="44.47299" lon="6.85781">
        <ele>2696</ele>
        <time>2022-08-16T09:10:00Z</time>
      </trkpt>
      <trkpt lat="44.47299" lon="6.85782">
        <ele>2696.2</ele>
        <time>2022-08-16T09:10:01Z</time>
      </trkpt>
      <trkpt lat="44.47298" lon="6.85783">
        <ele>2696.6</ele>
        <time>2022-08-16T09:10:02Z</time>
      </trkpt>
      <trkpt lat="44.47297" lon="6.85783">
        <ele>2696.4</ele>
        <time>2022-08-16T09:10:03Z</time>
      </trkpt>
      <trkpt lat="44.47296" lon="6.85782">
        <ele>2696.6</ele>
        <time>2022-08-16T09:10:04Z</time>
      </trkpt>
      <trkpt lat="44.47296" lon="6.85781">
        <ele>2696.6</ele>
        <time>2022-08-16T09:10:05Z</time>
      </trkpt>
      <trkpt lat="44.47295" lon="6.8578">
        <ele>2696.8</ele>
        <time>2022-08-16T09:10:06Z</time>
      </trkpt>
      <trkpt lat="44.47294" lon="6.85779">
        <ele>2696.8</ele>
        <time>2022-08-16T09:10:07Z</time>
      </trkpt>
      <trkpt lat="44.47293" lon="6.85778">
        <ele>2697</ele>
        <time>2022-08-16T09:10:08Z</time>
      </trkpt>
      <trkpt lat="44.47292" lon="6.85777">
        <ele>2697.2</ele>
        <time>2022-08-16T09:10:09Z</time>
      </trkpt>
      <trkpt lat="44.47291" lon="6.85776">
        <ele>2697.4</ele>
        <time>2022-08-16T09:10:10Z</time>
      </trkpt>
      <trkpt lat="44.4729" lon="6.85775">
        <ele>2697.4</ele>
        <time>2022-08-16T09:10:11Z</time>
      </trkpt>
      <trkpt lat="44.47289" lon="6.85775">
        <ele>2697.8</ele>
        <time>2022-08-16T09:10:12Z</time>
      </trkpt>
      <trkpt lat="44.47288" lon="6.85774">
        <ele>2697.8</ele>
        <time>2022-08-16T09:10:13Z</time>
      </trkpt>
      <trkpt lat="44.47287" lon="6.85773">
        <ele>2697.6</ele>
        <time>2022-08-16T09:10:14Z</time>
      </trkpt>
      <trkpt lat="44.47286" lon="6.85773">
        <ele>2697.6</ele>
        <time>2022-08-16T09:10:15Z</time>
      </trkpt>
      <trkpt lat="44.47284" lon="6.85772">
        <ele>2697.8</ele>
        <time>2022-08-16T09:10:16Z</time>
      </trkpt>
      <trkpt lat="44.47283" lon="6.85771">
        <ele>2698</ele>
        <time>2022-08-16T09:10:17Z</time>
      </trkpt>
      <trkpt lat="44.47282" lon="6.85771">
        <ele>2698.2</ele>
        <time>2022-08-16T09:10:18Z</time>
      </trkpt>
      <trkpt lat="44.47281" lon="6.8577">
        <ele>2698.6</ele>
        <time>2022-08-16T09:10:19Z</time>
      </trkpt>
      <trkpt lat="44.4728" lon="6.85769">
        <ele>2698.6</ele>
        <time>2022-08-16T09:10:20Z</time>
      </trkpt>
      <trkpt lat="44.47279" lon="6.85769">
        <ele>2698.8</ele>
        <time>2022-08-16T09:10:21Z</time>
      </trkpt>
      <trkpt lat="44.47278" lon="6.85768">
        <ele>2699.2</ele>
        <time>2022-08-16T09:10:22Z</time>
      </trkpt>
      <trkpt lat="44.47277" lon="6.85768">
        <ele>2699.4</ele>
        <time>2022-08-16T09:10:23Z</time>
      </trkpt>
      <trkpt lat="44.47276" lon="6.85768">
        <ele>2699.4</ele>
        <time>2022-08-16T09:10:24Z</time>
      </trkpt>
      <trkpt lat="44.47275" lon="6.85769">
        <ele>2699.8</ele>
        <time>2022-08-16T09:10:25Z</time>
      </trkpt>
      <trkpt lat="44.47274" lon="6.8577">
        <ele>2700</ele>
        <time>2022-08-16T09:10:26Z</time>
      </trkpt>
      <trkpt lat="44.47275" lon="6.85771">
        <ele>2700.2</ele>
        <time>2022-08-16T09:10:27Z</time>
      </trkpt>
      <trkpt lat="44.47275" lon="6.85773">
        <ele>2700.4</ele>
        <time>2022-08-16T09:10:28Z</time>
      </trkpt>
      <trkpt lat="44.47276" lon="6.85774">
        <ele>2700.6</ele>
        <time>2022-08-16T09:10:29Z</time>
      </trkpt>
      <trkpt lat="44.47277" lon="6.85774">
        <ele>2700.6</ele>
        <time>2022-08-16T09:10:30Z</time>
      </trkpt>
      <trkpt lat="44.47278" lon="6.85775">
        <ele>2700.6</ele>
        <time>2022-08-16T09:10:31Z</time>
      </trkpt>
      <trkpt lat="44.47279" lon="6.85777">
        <ele>2700.8</ele>
        <time>2022-08-16T09:10:32Z</time>
      </trkpt>
      <trkpt lat="44.47279" lon="6.85778">
        <ele>2701.2</ele>
        <time>2022-08-16T09:10:33Z</time>
      </trkpt>
      <trkpt lat="44.4728" lon="6.85779">
        <ele>2701.4</ele>
        <time>2022-08-16T09:10:34Z</time>
      </trkpt>
      <trkpt lat="44.47281" lon="6.85781">
        <ele>2701.8</ele>
        <time>2022-08-16T09:10:35Z</time>
      </trkpt>
      <trkpt lat="44.47281" lon="6.85782">
        <ele>2701.8</ele>
        <time>2022-08-16T09:10:36Z</time>
      </trkpt>
      <trkpt lat="44.47282" lon="6.85783">
        <ele>2702</ele>
        <time>2022-08-16T09:10:37Z</time>
      </trkpt>
      <trkpt lat="44.47282" lon="6.85785">
        <ele>2702.4</ele>
        <time>2022-08-16T09:10:38Z</time>
      </trkpt>
      <trkpt lat="44.47283" lon="6.85786">
        <ele>2702.6</ele>
        <time>2022-08-16T09:10:39Z</time>
      </trkpt>
      <trkpt lat="44.47283" lon="6.85788">
        <ele>2702.8</ele>
        <time>2022-08-16T09:10:40Z</time>
      </trkpt>
      <trkpt lat="44.47284" lon="6.85789">
        <ele>2702.8</ele>
        <time>2022-08-16T09:10:41Z</time>
      </trkpt>
      <trkpt lat="44.47285" lon="6.85791">
        <ele>2703.2</ele>
        <time>2022-08-16T09:10:42Z</time>
      </trkpt>
      <trkpt lat="44.47285" lon="6.85793">
        <ele>2703.2</ele>
        <time>2022-08-16T09:10:43Z</time>
      </trkpt>
      <trkpt lat="44.47286" lon="6.85794">
        <ele>2703.4</ele>
        <time>2022-08-16T09:10:44Z</time>
      </trkpt>
      <trkpt lat="44.47286" lon="6.85796">
        <ele>2703.4</ele>
        <time>2022-08-16T09:10:45Z</time>
      </trkpt>
      <trkpt lat="44.47286" lon="6.85798">
        <ele>2703.6</ele>
        <time>2022-08-16T09:10:46Z</time>
      </trkpt>
      <trkpt lat="44.47286" lon="6.85799">
        <ele>2703.6</ele>
        <time>2022-08-16T09:10:47Z</time>
      </trkpt>
      <trkpt lat="44.47287" lon="6.85801">
        <ele>2703.8</ele>
        <time>2022-08-16T09:10:48Z</time>
      </trkpt>
      <trkpt lat="44.47287" lon="6.85803">
        <ele>2703.8</ele>
        <time>2022-08-16T09:10:49Z</time>
      </trkpt>
      <trkpt lat="44.47288" lon="6.85805">
        <ele>2704</ele>
        <time>2022-08-16T09:10:50Z</time>
      </trkpt>
      <trkpt lat="44.47288" lon="6.85807">
        <ele>2704</ele>
        <time>2022-08-16T09:10:51Z</time>
      </trkpt>
      <trkpt lat="44.47289" lon="6.85809">
        <ele>2704.4</ele>
        <time>2022-08-16T09:10:52Z</time>
      </trkpt>
      <trkpt lat="44.47289" lon="6.85811">
        <ele>2704.6</ele>
        <time>2022-08-16T09:10:53Z</time>
      </trkpt>
      <trkpt lat="44.47289" lon="6.85812">
        <ele>2704.6</ele>
        <time>2022-08-16T09:10:54Z</time>
      </trkpt>
      <trkpt lat="44.4729" lon="6.85814">
        <ele>2705</ele>
        <time>2022-08-16T09:10:55Z</time>
      </trkpt>
      <trkpt lat="44.4729" lon="6.85816">
        <ele>2705</ele>
        <time>2022-08-16T09:10:56Z</time>
      </trkpt>
      <trkpt lat="44.4729" lon="6.85818">
        <ele>2705.2</ele>
        <time>2022-08-16T09:10:57Z</time>
      </trkpt>
      <trkpt lat="44.4729" lon="6.8582">
        <ele>2705.2</ele>
        <time>2022-08-16T09:10:58Z</time>
      </trkpt>
      <trkpt lat="44.4729" lon="6.85822">
        <ele>2705.6</ele>
        <time>2022-08-16T09:10:59Z</time>
      </trkpt>
      <trkpt lat="44.4729" lon="6.85824">
        <ele>2705.6</ele>
        <time>2022-08-16T09:11:00Z</time>
      </trkpt>
      <trkpt lat="44.47291" lon="6.85826">
        <ele>2705.8</ele>
        <time>2022-08-16T09:11:01Z</time>
      </trkpt>
      <trkpt lat="44.47291" lon="6.85828">
        <ele>2705.8</ele>
        <time>2022-08-16T09:11:02Z</time>
      </trkpt>
      <trkpt lat="44.47291" lon="6.85831">
        <ele>2705.8</ele>
        <time>2022-08-16T09:11:03Z</time>
      </trkpt>
      <trkpt lat="44.4729" lon="6.85833">
        <ele>2706</ele>
        <time>2022-08-16T09:11:04Z</time>
      </trkpt>
      <trkpt lat="44.4729" lon="6.85834">
        <ele>2705.8</ele>
        <time>2022-08-16T09:11:05Z</time>
      </trkpt>
      <trkpt lat="44.4729" lon="6.85836">
        <ele>2706</ele>
        <time>2022-08-16T09:11:06Z</time>
      </trkpt>
      <trkpt lat="44.47289" lon="6.85838">
        <ele>2706.2</ele>
        <time>2022-08-16T09:11:07Z</time>
      </trkpt>
      <trkpt lat="44.47289" lon="6.8584">
        <ele>2706.2</ele>
        <time>2022-08-16T09:11:08Z</time>
      </trkpt>
      <trkpt lat="44.47288" lon="6.85841">
        <ele>2706.4</ele>
        <time>2022-08-16T09:11:09Z</time>
      </trkpt>
      <trkpt lat="44.47287" lon="6.85843">
        <ele>2706.4</ele>
        <time>2022-08-16T09:11:10Z</time>
      </trkpt>
      <trkpt lat="44.47286" lon="6.85844">
        <ele>2706.4</ele>
        <time>2022-08-16T09:11:11Z</time>
      </trkpt>
      <trkpt lat="44.47285" lon="6.85843">
        <ele>2706.6</ele>
        <time>2022-08-16T09:11:12Z</time>
      </trkpt>
      <trkpt lat="44.47284" lon="6.85842">
        <ele>2706.8</ele>
        <time>2022-08-16T09:11:13Z</time>
      </trkpt>
      <trkpt lat="44.47283" lon="6.85841">
        <ele>2707</ele>
        <time>2022-08-16T09:11:14Z</time>
      </trkpt>
      <trkpt lat="44.47282" lon="6.85839">
        <ele>2707</ele>
        <time>2022-08-16T09:11:15Z</time>
      </trkpt>
      <trkpt lat="44.47282" lon="6.85838">
        <ele>2707.2</ele>
        <time>2022-08-16T09:11:16Z</time>
      </trkpt>
      <trkpt lat="44.47282" lon="6.85836">
        <ele>2707.4</ele>
        <time>2022-08-16T09:11:17Z</time>
      </trkpt>
      <trkpt lat="44.47282" lon="6.85834">
        <ele>2707.6</ele>
        <time>2022-08-16T09:11:18Z</time>
      </trkpt>
      <trkpt lat="44.47282" lon="6.85832">
        <ele>2707.8</ele>
        <time>2022-08-16T09:11:19Z</time>
      </trkpt>
      <trkpt lat="44.47282" lon="6.85831">
        <ele>2708</ele>
        <time>2022-08-16T09:11:20Z</time>
      </trkpt>
      <trkpt lat="44.47282" lon="6.85829">
        <ele>2708</ele>
        <time>2022-08-16T09:11:21Z</time>
      </trkpt>
      <trkpt lat="44.47281" lon="6.85827">
        <ele>2708.2</ele>
        <time>2022-08-16T09:11:22Z</time>
      </trkpt>
      <trkpt lat="44.47281" lon="6.85826">
        <ele>2708.6</ele>
        <time>2022-08-16T09:11:23Z</time>
      </trkpt>
      <trkpt lat="44.47281" lon="6.85824">
        <ele>2708.8</ele>
        <time>2022-08-16T09:11:24Z</time>
      </trkpt>
      <trkpt lat="44.4728" lon="6.85822">
        <ele>2709</ele>
        <time>2022-08-16T09:11:25Z</time>
      </trkpt>
      <trkpt lat="44.47279" lon="6.8582">
        <ele>2709.2</ele>
        <time>2022-08-16T09:11:26Z</time>
      </trkpt>
      <trkpt lat="44.47279" lon="6.85819">
        <ele>2709.2</ele>
        <time>2022-08-16T09:11:27Z</time>
      </trkpt>
      <trkpt lat="44.47278" lon="6.85817">
        <ele>2709.4</ele>
        <time>2022-08-16T09:11:28Z</time>
      </trkpt>
      <trkpt lat="44.47278" lon="6.85815">
        <ele>2709.4</ele>
        <time>2022-08-16T09:11:29Z</time>
      </trkpt>
      <trkpt lat="44.47277" lon="6.85814">
        <ele>2710</ele>
        <time>2022-08-16T09:11:30Z</time>
      </trkpt>
      <trkpt lat="44.47276" lon="6.85812">
        <ele>2710.2</ele>
        <time>2022-08-16T09:11:31Z</time>
      </trkpt>
      <trkpt lat="44.47276" lon="6.8581">
        <ele>2710.4</ele>
        <time>2022-08-16T09:11:32Z</time>
      </trkpt>
      <trkpt lat="44.47275" lon="6.85809">
        <ele>2710.8</ele>
        <time>2022-08-16T09:11:33Z</time>
      </trkpt>
      <trkpt lat="44.47274" lon="6.85807">
        <ele>2710.8</ele>
        <time>2022-08-16T09:11:34Z</time>
      </trkpt>
      <trkpt lat="44.47274" lon="6.85806">
        <ele>2711.2</ele>
        <time>2022-08-16T09:11:35Z</time>
      </trkpt>
      <trkpt lat="44.47273" lon="6.85805">
        <ele>2711.4</ele>
        <time>2022-08-16T09:11:36Z</time>
      </trkpt>
      <trkpt lat="44.47273" lon="6.85804">
        <ele>2711.6</ele>
        <time>2022-08-16T09:11:37Z</time>
      </trkpt>
      <trkpt lat="44.47272" lon="6.85803">
        <ele>2711.6</ele>
        <time>2022-08-16T09:11:38Z</time>
      </trkpt>
      <trkpt lat="44.47271" lon="6.85802">
        <ele>2711.6</ele>
        <time>2022-08-16T09:11:39Z</time>
      </trkpt>
      <trkpt lat="44.4727" lon="6.85801">
        <ele>2712</ele>
        <time>2022-08-16T09:11:40Z</time>
      </trkpt>
      <trkpt lat="44.47269" lon="6.858">
        <ele>2711.8</ele>
        <time>2022-08-16T09:11:41Z</time>
      </trkpt>
      <trkpt lat="44.47269" lon="6.85799">
        <ele>2712</ele>
        <time>2022-08-16T09:11:42Z</time>
      </trkpt>
      <trkpt lat="44.47268" lon="6.85799">
        <ele>2712.2</ele>
        <time>2022-08-16T09:11:45Z</time>
      </trkpt>
      <trkpt lat="44.47268" lon="6.85799">
        <ele>2712.6</ele>
        <time>2022-08-16T09:11:49Z</time>
      </trkpt>
      <trkpt lat="44.47267" lon="6.85799">
        <ele>2713</ele>
        <time>2022-08-16T09:11:53Z</time>
      </trkpt>
      <trkpt lat="44.47266" lon="6.858">
        <ele>2713.2</ele>
        <time>2022-08-16T09:11:55Z</time>
      </trkpt>
      <trkpt lat="44.47266" lon="6.858">
        <ele>2713.2</ele>
        <time>2022-08-16T09:11:56Z</time>
      </trkpt>
      <trkpt lat="44.47265" lon="6.858">
        <ele>2713.6</ele>
        <time>2022-08-16T09:12:02Z</time>
      </trkpt>
      <trkpt lat="44.47265" lon="6.85801">
        <ele>2713.8</ele>
        <time>2022-08-16T09:12:08Z</time>
      </trkpt>
      <trkpt lat="44.47265" lon="6.85799">
        <ele>2713.8</ele>
        <time>2022-08-16T09:12:11Z</time>
      </trkpt>
      <trkpt lat="44.47265" lon="6.85798">
        <ele>2713.8</ele>
        <time>2022-08-16T09:12:12Z</time>
      </trkpt>
      <trkpt lat="44.47265" lon="6.85797">
        <ele>2713.8</ele>
        <time>2022-08-16T09:12:14Z</time>
      </trkpt>
      <trkpt lat="44.47265" lon="6.85796">
        <ele>2713.8</ele>
        <time>2022-08-16T09:12:15Z</time>
      </trkpt>
      <trkpt lat="44.47264" lon="6.85794">
        <ele>2713.2</ele>
        <time>2022-08-16T09:12:19Z</time>
      </trkpt>
      <trkpt lat="44.47265" lon="6.85793">
        <ele>2713</ele>
        <time>2022-08-16T09:12:20Z</time>
      </trkpt>
      <trkpt lat="44.47265" lon="6.85792">
        <ele>2713</ele>
        <time>2022-08-16T09:12:21Z</time>
      </trkpt>
      <trkpt lat="44.47266" lon="6.85791">
        <ele>2712.8</ele>
        <time>2022-08-16T09:12:22Z</time>
      </trkpt>
      <trkpt lat="44.47266" lon="6.85789">
        <ele>2712.8</ele>
        <time>2022-08-16T09:12:23Z</time>
      </trkpt>
      <trkpt lat="44.47264" lon="6.85788">
        <ele>2712.6</ele>
        <time>2022-08-16T09:12:24Z</time>
      </trkpt>
      <trkpt lat="44.47263" lon="6.85788">
        <ele>2712.6</ele>
        <time>2022-08-16T09:12:25Z</time>
      </trkpt>
      <trkpt lat="44.47263" lon="6.85787">
        <ele>2712.4</ele>
        <time>2022-08-16T09:12:26Z</time>
      </trkpt>
      <trkpt lat="44.4726" lon="6.85786">
        <ele>2712.4</ele>
        <time>2022-08-16T09:12:28Z</time>
      </trkpt>
      <trkpt lat="44.47257" lon="6.85785">
        <ele>2712</ele>
        <time>2022-08-16T09:12:31Z</time>
      </trkpt>
      <trkpt lat="44.47256" lon="6.85785">
        <ele>2711.6</ele>
        <time>2022-08-16T09:12:32Z</time>
      </trkpt>
      <trkpt lat="44.47255" lon="6.85786">
        <ele>2711.2</ele>
        <time>2022-08-16T09:12:33Z</time>
      </trkpt>
      <trkpt lat="44.47254" lon="6.85786">
        <ele>2711</ele>
        <time>2022-08-16T09:12:34Z</time>
      </trkpt>
      <trkpt lat="44.47253" lon="6.85787">
        <ele>2710.8</ele>
        <time>2022-08-16T09:12:35Z</time>
      </trkpt>
      <trkpt lat="44.47252" lon="6.85787">
        <ele>2710.8</ele>
        <time>2022-08-16T09:12:36Z</time>
      </trkpt>
      <trkpt lat="44.47251" lon="6.85788">
        <ele>2710.8</ele>
        <time>2022-08-16T09:12:37Z</time>
      </trkpt>
      <trkpt lat="44.47248" lon="6.85791">
        <ele>2710.8</ele>
        <time>2022-08-16T09:12:40Z</time>
      </trkpt>
      <trkpt lat="44.47246" lon="6.85794">
        <ele>2710.8</ele>
        <time>2022-08-16T09:12:43Z</time>
      </trkpt>
      <trkpt lat="44.47244" lon="6.85796">
        <ele>2710.6</ele>
        <time>2022-08-16T09:12:45Z</time>
      </trkpt>
      <trkpt lat="44.47244" lon="6.85797">
        <ele>2710.6</ele>
        <time>2022-08-16T09:12:46Z</time>
      </trkpt>
      <trkpt lat="44.47242" lon="6.85799">
        <ele>2711</ele>
        <time>2022-08-16T09:12:48Z</time>
      </trkpt>
      <trkpt lat="44.47241" lon="6.858">
        <ele>2711.2</ele>
        <time>2022-08-16T09:12:49Z</time>
      </trkpt>
      <trkpt lat="44.4724" lon="6.85803">
        <ele>2711.2</ele>
        <time>2022-08-16T09:12:51Z</time>
      </trkpt>
      <trkpt lat="44.47239" lon="6.85804">
        <ele>2711.4</ele>
        <time>2022-08-16T09:12:52Z</time>
      </trkpt>
      <trkpt lat="44.47239" lon="6.85804">
        <ele>2711.4</ele>
        <time>2022-08-16T09:12:53Z</time>
      </trkpt>
      <trkpt lat="44.47238" lon="6.85805">
        <ele>2711.6</ele>
        <time>2022-08-16T09:12:54Z</time>
      </trkpt>
      <trkpt lat="44.47238" lon="6.85806">
        <ele>2711.6</ele>
        <time>2022-08-16T09:12:55Z</time>
      </trkpt>
      <trkpt lat="44.47238" lon="6.85807">
        <ele>2711.6</ele>
        <time>2022-08-16T09:12:56Z</time>
      </trkpt>
      <trkpt lat="44.47238" lon="6.85807">
        <ele>2711.6</ele>
        <time>2022-08-16T09:12:57Z</time>
      </trkpt>
      <trkpt lat="44.47237" lon="6.85808">
        <ele>2711.8</ele>
        <time>2022-08-16T09:12:58Z</time>
      </trkpt>
      <trkpt lat="44.47236" lon="6.85812">
        <ele>2711.8</ele>
        <time>2022-08-16T09:13:01Z</time>
      </trkpt>
      <trkpt lat="44.47236" lon="6.85814">
        <ele>2711.8</ele>
        <time>2022-08-16T09:13:02Z</time>
      </trkpt>
      <trkpt lat="44.47237" lon="6.85819">
        <ele>2711.8</ele>
        <time>2022-08-16T09:13:04Z</time>
      </trkpt>
      <trkpt lat="44.47237" lon="6.8582">
        <ele>2711.8</ele>
        <time>2022-08-16T09:13:05Z</time>
      </trkpt>
      <trkpt lat="44.47237" lon="6.8582">
        <ele>2711.8</ele>
        <time>2022-08-16T09:13:06Z</time>
      </trkpt>
      <trkpt lat="44.47237" lon="6.8582">
        <ele>2711.6</ele>
        <time>2022-08-16T09:13:07Z</time>
      </trkpt>
      <trkpt lat="44.47236" lon="6.85819">
        <ele>2711.6</ele>
        <time>2022-08-16T09:13:16Z</time>
      </trkpt>
      <trkpt lat="44.47238" lon="6.85816">
        <ele>2711</ele>
        <time>2022-08-16T09:13:29Z</time>
      </trkpt>
      <trkpt lat="44.4724" lon="6.85815">
        <ele>2711.2</ele>
        <time>2022-08-16T09:13:43Z</time>
      </trkpt>
      <trkpt lat="44.4724" lon="6.85814">
        <ele>2711.2</ele>
        <time>2022-08-16T09:14:01Z</time>
      </trkpt>
      <trkpt lat="44.47237" lon="6.8582">
        <ele>2711.4</ele>
        <time>2022-08-16T09:14:11Z</time>
      </trkpt>
      <trkpt lat="44.47237" lon="6.85821">
        <ele>2711.4</ele>
        <time>2022-08-16T09:14:12Z</time>
      </trkpt>
      <trkpt lat="44.47237" lon="6.85822">
        <ele>2711.4</ele>
        <time>2022-08-16T09:14:13Z</time>
      </trkpt>
      <trkpt lat="44.47237" lon="6.85822">
        <ele>2711.2</ele>
        <time>2022-08-16T09:14:14Z</time>
      </trkpt>
      <trkpt lat="44.47236" lon="6.85822">
        <ele>2711.4</ele>
        <time>2022-08-16T09:14:15Z</time>
      </trkpt>
      <trkpt lat="44.47236" lon="6.85822">
        <ele>2711.4</ele>
        <time>2022-08-16T09:14:17Z</time>
      </trkpt>
      <trkpt lat="44.47237" lon="6.85822">
        <ele>2711.4</ele>
        <time>2022-08-16T09:14:18Z</time>
      </trkpt>
      <trkpt lat="44.47239" lon="6.85822">
        <ele>2711.4</ele>
        <time>2022-08-16T09:14:19Z</time>
      </trkpt>
      <trkpt lat="44.4724" lon="6.85823">
        <ele>2711.4</ele>
        <time>2022-08-16T09:14:21Z</time>
      </trkpt>
      <trkpt lat="44.4724" lon="6.85823">
        <ele>2711.4</ele>
        <time>2022-08-16T09:14:23Z</time>
      </trkpt>
      <trkpt lat="44.47241" lon="6.85823">
        <ele>2711.4</ele>
        <time>2022-08-16T09:14:34Z</time>
      </trkpt>
      <trkpt lat="44.47241" lon="6.85823">
        <ele>2711.6</ele>
        <time>2022-08-16T09:14:45Z</time>
      </trkpt>
      <trkpt lat="44.47241" lon="6.85824">
        <ele>2711.4</ele>
        <time>2022-08-16T09:14:55Z</time>
      </trkpt>
      <trkpt lat="44.47241" lon="6.85824">
        <ele>2711.4</ele>
        <time>2022-08-16T09:14:56Z</time>
      </trkpt>
      <trkpt lat="44.47241" lon="6.85824">
        <ele>2711.2</ele>
        <time>2022-08-16T09:15:08Z</time>
      </trkpt>
      <trkpt lat="44.47241" lon="6.85823">
        <ele>2711.2</ele>
        <time>2022-08-16T09:15:18Z</time>
      </trkpt>
      <trkpt lat="44.47241" lon="6.85824">
        <ele>2711.2</ele>
        <time>2022-08-16T09:15:31Z</time>
      </trkpt>
      <trkpt lat="44.47241" lon="6.85824">
        <ele>2711.2</ele>
        <time>2022-08-16T09:15:34Z</time>
      </trkpt>
      <trkpt lat="44.47241" lon="6.85825">
        <ele>2711.6</ele>
        <time>2022-08-16T09:15:46Z</time>
      </trkpt>
      <trkpt lat="44.47242" lon="6.85827">
        <ele>2711.4</ele>
        <time>2022-08-16T09:15:49Z</time>
      </trkpt>
      <trkpt lat="44.47242" lon="6.85829">
        <ele>2711.4</ele>
        <time>2022-08-16T09:15:50Z</time>
      </trkpt>
      <trkpt lat="44.47243" lon="6.8583">
        <ele>2711.4</ele>
        <time>2022-08-16T09:15:52Z</time>
      </trkpt>
      <trkpt lat="44.47243" lon="6.85832">
        <ele>2711.4</ele>
        <time>2022-08-16T09:15:54Z</time>
      </trkpt>
      <trkpt lat="44.47243" lon="6.85833">
        <ele>2711.4</ele>
        <time>2022-08-16T09:15:55Z</time>
      </trkpt>
      <trkpt lat="44.47243" lon="6.85834">
        <ele>2711.6</ele>
        <time>2022-08-16T09:15:56Z</time>
      </trkpt>
      <trkpt lat="44.47243" lon="6.85837">
        <ele>2711.6</ele>
        <time>2022-08-16T09:15:58Z</time>
      </trkpt>
      <trkpt lat="44.47243" lon="6.85839">
        <ele>2711.6</ele>
        <time>2022-08-16T09:15:59Z</time>
      </trkpt>
      <trkpt lat="44.47243" lon="6.8584">
        <ele>2711.6</ele>
        <time>2022-08-16T09:16:00Z</time>
      </trkpt>
      <trkpt lat="44.47242" lon="6.85844">
        <ele>2712.2</ele>
        <time>2022-08-16T09:16:03Z</time>
      </trkpt>
      <trkpt lat="44.47242" lon="6.85847">
        <ele>2712.8</ele>
        <time>2022-08-16T09:16:05Z</time>
      </trkpt>
      <trkpt lat="44.47242" lon="6.85848">
        <ele>2712.6</ele>
        <time>2022-08-16T09:16:06Z</time>
      </trkpt>
      <trkpt lat="44.47242" lon="6.85849">
        <ele>2712.8</ele>
        <time>2022-08-16T09:16:07Z</time>
      </trkpt>
      <trkpt lat="44.47242" lon="6.8585">
        <ele>2713.2</ele>
        <time>2022-08-16T09:16:08Z</time>
      </trkpt>
      <trkpt lat="44.47242" lon="6.85851">
        <ele>2713.2</ele>
        <time>2022-08-16T09:16:09Z</time>
      </trkpt>
      <trkpt lat="44.47242" lon="6.85853">
        <ele>2713.4</ele>
        <time>2022-08-16T09:16:10Z</time>
      </trkpt>
      <trkpt lat="44.47242" lon="6.85854">
        <ele>2713.6</ele>
        <time>2022-08-16T09:16:11Z</time>
      </trkpt>
      <trkpt lat="44.47242" lon="6.85855">
        <ele>2713.6</ele>
        <time>2022-08-16T09:16:12Z</time>
      </trkpt>
      <trkpt lat="44.47242" lon="6.85856">
        <ele>2713.6</ele>
        <time>2022-08-16T09:16:13Z</time>
      </trkpt>
      <trkpt lat="44.47242" lon="6.85857">
        <ele>2713.6</ele>
        <time>2022-08-16T09:16:14Z</time>
      </trkpt>
      <trkpt lat="44.47242" lon="6.85858">
        <ele>2713.6</ele>
        <time>2022-08-16T09:16:15Z</time>
      </trkpt>
      <trkpt lat="44.47242" lon="6.85861">
        <ele>2713.6</ele>
        <time>2022-08-16T09:16:17Z</time>
      </trkpt>
      <trkpt lat="44.47241" lon="6.85862">
        <ele>2713.6</ele>
        <time>2022-08-16T09:16:18Z</time>
      </trkpt>
      <trkpt lat="44.47241" lon="6.85863">
        <ele>2713.8</ele>
        <time>2022-08-16T09:16:19Z</time>
      </trkpt>
      <trkpt lat="44.47241" lon="6.85865">
        <ele>2713.6</ele>
        <time>2022-08-16T09:16:21Z</time>
      </trkpt>
      <trkpt lat="44.4724" lon="6.85866">
        <ele>2713.8</ele>
        <time>2022-08-16T09:16:22Z</time>
      </trkpt>
      <trkpt lat="44.47241" lon="6.85866">
        <ele>2713.8</ele>
        <time>2022-08-16T09:16:23Z</time>
      </trkpt>
      <trkpt lat="44.4724" lon="6.85866">
        <ele>2713.6</ele>
        <time>2022-08-16T09:16:24Z</time>
      </trkpt>
      <trkpt lat="44.4724" lon="6.85867">
        <ele>2713.2</ele>
        <time>2022-08-16T09:16:28Z</time>
      </trkpt>
      <trkpt lat="44.47241" lon="6.85869">
        <ele>2713</ele>
        <time>2022-08-16T09:16:34Z</time>
      </trkpt>
      <trkpt lat="44.47242" lon="6.85871">
        <ele>2712.6</ele>
        <time>2022-08-16T09:16:37Z</time>
      </trkpt>
      <trkpt lat="44.47242" lon="6.85872">
        <ele>2712.6</ele>
        <time>2022-08-16T09:16:38Z</time>
      </trkpt>
      <trkpt lat="44.47243" lon="6.85873">
        <ele>2712.4</ele>
        <time>2022-08-16T09:16:42Z</time>
      </trkpt>
      <trkpt lat="44.47244" lon="6.85874">
        <ele>2712.4</ele>
        <time>2022-08-16T09:16:44Z</time>
      </trkpt>
      <trkpt lat="44.47247" lon="6.85875">
        <ele>2712.6</ele>
        <time>2022-08-16T09:16:49Z</time>
      </trkpt>
      <trkpt lat="44.47247" lon="6.85876">
        <ele>2712.4</ele>
        <time>2022-08-16T09:16:50Z</time>
      </trkpt>
      <trkpt lat="44.47248" lon="6.85876">
        <ele>2712.4</ele>
        <time>2022-08-16T09:16:51Z</time>
      </trkpt>
      <trkpt lat="44.47248" lon="6.85877">
        <ele>2712.2</ele>
        <time>2022-08-16T09:16:52Z</time>
      </trkpt>
      <trkpt lat="44.47248" lon="6.85876">
        <ele>2712.2</ele>
        <time>2022-08-16T09:16:54Z</time>
      </trkpt>
      <trkpt lat="44.47249" lon="6.85876">
        <ele>2712.4</ele>
        <time>2022-08-16T09:16:55Z</time>
      </trkpt>
      <trkpt lat="44.47249" lon="6.85875">
        <ele>2712.6</ele>
        <time>2022-08-16T09:16:56Z</time>
      </trkpt>
      <trkpt lat="44.4725" lon="6.85874">
        <ele>2712.2</ele>
        <time>2022-08-16T09:16:57Z</time>
      </trkpt>
      <trkpt lat="44.4725" lon="6.85874">
        <ele>2712.2</ele>
        <time>2022-08-16T09:16:58Z</time>
      </trkpt>
      <trkpt lat="44.47251" lon="6.85873">
        <ele>2712.2</ele>
        <time>2022-08-16T09:16:59Z</time>
      </trkpt>
      <trkpt lat="44.4725" lon="6.85873">
        <ele>2712.2</ele>
        <time>2022-08-16T09:17:00Z</time>
      </trkpt>
      <trkpt lat="44.47251" lon="6.85873">
        <ele>2712</ele>
        <time>2022-08-16T09:17:01Z</time>
      </trkpt>
      <trkpt lat="44.47252" lon="6.85872">
        <ele>2713.6</ele>
        <time>2022-08-16T09:17:11Z</time>
      </trkpt>
      <trkpt lat="44.47252" lon="6.85872">
        <ele>2713.6</ele>
        <time>2022-08-16T09:17:12Z</time>
      </trkpt>
      <trkpt lat="44.47255" lon="6.85868">
        <ele>2713.8</ele>
        <time>2022-08-16T09:17:18Z</time>
      </trkpt>
      <trkpt lat="44.47257" lon="6.85865">
        <ele>2714</ele>
        <time>2022-08-16T09:17:20Z</time>
      </trkpt>
      <trkpt lat="44.47257" lon="6.85866">
        <ele>2714.2</ele>
        <time>2022-08-16T09:17:21Z</time>
      </trkpt>
      <trkpt lat="44.47257" lon="6.85866">
        <ele>2714.2</ele>
        <time>2022-08-16T09:17:22Z</time>
      </trkpt>
      <trkpt lat="44.47258" lon="6.85865">
        <ele>2714.4</ele>
        <time>2022-08-16T09:17:23Z</time>
      </trkpt>
      <trkpt lat="44.47259" lon="6.85867">
        <ele>2714.4</ele>
        <time>2022-08-16T09:17:24Z</time>
      </trkpt>
      <trkpt lat="44.47259" lon="6.85867">
        <ele>2714.8</ele>
        <time>2022-08-16T09:17:25Z</time>
      </trkpt>
      <trkpt lat="44.4726" lon="6.85867">
        <ele>2714.8</ele>
        <time>2022-08-16T09:17:26Z</time>
      </trkpt>
      <trkpt lat="44.4726" lon="6.85866">
        <ele>2715</ele>
        <time>2022-08-16T09:17:27Z</time>
      </trkpt>
      <trkpt lat="44.47261" lon="6.85866">
        <ele>2715</ele>
        <time>2022-08-16T09:17:28Z</time>
      </trkpt>
      <trkpt lat="44.47261" lon="6.85866">
        <ele>2715</ele>
        <time>2022-08-16T09:17:29Z</time>
      </trkpt>
      <trkpt lat="44.47262" lon="6.85866">
        <ele>2715.2</ele>
        <time>2022-08-16T09:17:30Z</time>
      </trkpt>
      <trkpt lat="44.47262" lon="6.85866">
        <ele>2715.6</ele>
        <time>2022-08-16T09:17:31Z</time>
      </trkpt>
      <trkpt lat="44.47263" lon="6.85866">
        <ele>2715.8</ele>
        <time>2022-08-16T09:17:32Z</time>
      </trkpt>
      <trkpt lat="44.47265" lon="6.85866">
        <ele>2715.8</ele>
        <time>2022-08-16T09:17:35Z</time>
      </trkpt>
      <trkpt lat="44.47266" lon="6.85865">
        <ele>2715.8</ele>
        <time>2022-08-16T09:17:37Z</time>
      </trkpt>
      <trkpt lat="44.47267" lon="6.85865">
        <ele>2715.8</ele>
        <time>2022-08-16T09:17:38Z</time>
      </trkpt>
      <trkpt lat="44.47269" lon="6.85864">
        <ele>2715.6</ele>
        <time>2022-08-16T09:17:41Z</time>
      </trkpt>
      <trkpt lat="44.4727" lon="6.85864">
        <ele>2715.6</ele>
        <time>2022-08-16T09:17:42Z</time>
      </trkpt>
      <trkpt lat="44.4727" lon="6.85863">
        <ele>2715.4</ele>
        <time>2022-08-16T09:17:43Z</time>
      </trkpt>
      <trkpt lat="44.47272" lon="6.85863">
        <ele>2715</ele>
        <time>2022-08-16T09:17:44Z</time>
      </trkpt>
      <trkpt lat="44.47272" lon="6.85862">
        <ele>2714.6</ele>
        <time>2022-08-16T09:17:45Z</time>
      </trkpt>
      <trkpt lat="44.47273" lon="6.85862">
        <ele>2714.6</ele>
        <time>2022-08-16T09:17:46Z</time>
      </trkpt>
      <trkpt lat="44.47274" lon="6.8586">
        <ele>2714.4</ele>
        <time>2022-08-16T09:17:47Z</time>
      </trkpt>
      <trkpt lat="44.47274" lon="6.85859">
        <ele>2714.2</ele>
        <time>2022-08-16T09:17:48Z</time>
      </trkpt>
      <trkpt lat="44.47275" lon="6.85858">
        <ele>2714.2</ele>
        <time>2022-08-16T09:17:49Z</time>
      </trkpt>
      <trkpt lat="44.47275" lon="6.85857">
        <ele>2714</ele>
        <time>2022-08-16T09:17:50Z</time>
      </trkpt>
      <trkpt lat="44.47278" lon="6.85851">
        <ele>2712.8</ele>
        <time>2022-08-16T09:17:55Z</time>
      </trkpt>
      <trkpt lat="44.47278" lon="6.8585">
        <ele>2712.6</ele>
        <time>2022-08-16T09:17:56Z</time>
      </trkpt>
      <trkpt lat="44.47278" lon="6.85849">
        <ele>2712.6</ele>
        <time>2022-08-16T09:17:57Z</time>
      </trkpt>
      <trkpt lat="44.47278" lon="6.85847">
        <ele>2712.4</ele>
        <time>2022-08-16T09:17:58Z</time>
      </trkpt>
      <trkpt lat="44.47278" lon="6.85846">
        <ele>2712.2</ele>
        <time>2022-08-16T09:17:59Z</time>
      </trkpt>
      <trkpt lat="44.47278" lon="6.85845">
        <ele>2712</ele>
        <time>2022-08-16T09:18:00Z</time>
      </trkpt>
      <trkpt lat="44.47277" lon="6.85843">
        <ele>2711.8</ele>
        <time>2022-08-16T09:18:01Z</time>
      </trkpt>
      <trkpt lat="44.47276" lon="6.8584">
        <ele>2711.8</ele>
        <time>2022-08-16T09:18:04Z</time>
      </trkpt>
      <trkpt lat="44.47276" lon="6.85839">
        <ele>2711.6</ele>
        <time>2022-08-16T09:18:05Z</time>
      </trkpt>
      <trkpt lat="44.47275" lon="6.85838">
        <ele>2711.6</ele>
        <time>2022-08-16T09:18:06Z</time>
      </trkpt>
      <trkpt lat="44.47274" lon="6.85835">
        <ele>2711.6</ele>
        <time>2022-08-16T09:18:08Z</time>
      </trkpt>
      <trkpt lat="44.47273" lon="6.85832">
        <ele>2711.4</ele>
        <time>2022-08-16T09:18:10Z</time>
      </trkpt>
      <trkpt lat="44.47273" lon="6.85829">
        <ele>2711.4</ele>
        <time>2022-08-16T09:18:12Z</time>
      </trkpt>
      <trkpt lat="44.47272" lon="6.85827">
        <ele>2711.6</ele>
        <time>2022-08-16T09:18:13Z</time>
      </trkpt>
      <trkpt lat="44.47272" lon="6.85826">
        <ele>2711.6</ele>
        <time>2022-08-16T09:18:14Z</time>
      </trkpt>
      <trkpt lat="44.47272" lon="6.85825">
        <ele>2711.8</ele>
        <time>2022-08-16T09:18:15Z</time>
      </trkpt>
      <trkpt lat="44.47271" lon="6.85821">
        <ele>2712.2</ele>
        <time>2022-08-16T09:18:17Z</time>
      </trkpt>
      <trkpt lat="44.47271" lon="6.8582">
        <ele>2712.2</ele>
        <time>2022-08-16T09:18:18Z</time>
      </trkpt>
      <trkpt lat="44.47271" lon="6.85818">
        <ele>2712.4</ele>
        <time>2022-08-16T09:18:19Z</time>
      </trkpt>
      <trkpt lat="44.47271" lon="6.85817">
        <ele>2712.4</ele>
        <time>2022-08-16T09:18:20Z</time>
      </trkpt>
      <trkpt lat="44.4727" lon="6.85816">
        <ele>2712.4</ele>
        <time>2022-08-16T09:18:21Z</time>
      </trkpt>
      <trkpt lat="44.4727" lon="6.85815">
        <ele>2712.6</ele>
        <time>2022-08-16T09:18:22Z</time>
      </trkpt>
      <trkpt lat="44.4727" lon="6.85814">
        <ele>2712.8</ele>
        <time>2022-08-16T09:18:23Z</time>
      </trkpt>
      <trkpt lat="44.47269" lon="6.85813">
        <ele>2712.8</ele>
        <time>2022-08-16T09:18:24Z</time>
      </trkpt>
      <trkpt lat="44.47269" lon="6.85812">
        <ele>2713</ele>
        <time>2022-08-16T09:18:25Z</time>
      </trkpt>
      <trkpt lat="44.47269" lon="6.85812">
        <ele>2713.2</ele>
        <time>2022-08-16T09:18:26Z</time>
      </trkpt>
      <trkpt lat="44.47269" lon="6.85811">
        <ele>2713</ele>
        <time>2022-08-16T09:18:27Z</time>
      </trkpt>
      <trkpt lat="44.47268" lon="6.85808">
        <ele>2713.4</ele>
        <time>2022-08-16T09:18:29Z</time>
      </trkpt>
      <trkpt lat="44.47268" lon="6.85803">
        <ele>2713.2</ele>
        <time>2022-08-16T09:18:32Z</time>
      </trkpt>
      <trkpt lat="44.47268" lon="6.85802">
        <ele>2713.2</ele>
        <time>2022-08-16T09:18:33Z</time>
      </trkpt>
      <trkpt lat="44.47268" lon="6.85801">
        <ele>2713.2</ele>
        <time>2022-08-16T09:18:34Z</time>
      </trkpt>
      <trkpt lat="44.47268" lon="6.858">
        <ele>2713</ele>
        <time>2022-08-16T09:18:38Z</time>
      </trkpt>
      <trkpt lat="44.47268" lon="6.85799">
        <ele>2713</ele>
        <time>2022-08-16T09:18:39Z</time>
      </trkpt>
      <trkpt lat="44.47268" lon="6.85799">
        <ele>2713</ele>
        <time>2022-08-16T09:18:40Z</time>
      </trkpt>
      <trkpt lat="44.47268" lon="6.858">
        <ele>2712.6</ele>
        <time>2022-08-16T09:18:46Z</time>
      </trkpt>
      <trkpt lat="44.47268" lon="6.85801">
        <ele>2712.6</ele>
        <time>2022-08-16T09:18:48Z</time>
      </trkpt>
      <trkpt lat="44.47268" lon="6.85801">
        <ele>2712.6</ele>
        <time>2022-08-16T09:18:49Z</time>
      </trkpt>
      <trkpt lat="44.47267" lon="6.85801">
        <ele>2712.2</ele>
        <time>2022-08-16T09:19:01Z</time>
      </trkpt>
      <trkpt lat="44.47267" lon="6.85801">
        <ele>2712.4</ele>
        <time>2022-08-16T09:19:02Z</time>
      </trkpt>
      <trkpt lat="44.47267" lon="6.85801">
        <ele>2712.4</ele>
        <time>2022-08-16T09:19:04Z</time>
      </trkpt>
      <trkpt lat="44.47264" lon="6.85803">
        <ele>2712.6</ele>
        <time>2022-08-16T09:19:07Z</time>
      </trkpt>
      <trkpt lat="44.47263" lon="6.85803">
        <ele>2712.4</ele>
        <time>2022-08-16T09:19:08Z</time>
      </trkpt>
      <trkpt lat="44.47262" lon="6.85803">
        <ele>2712.4</ele>
        <time>2022-08-16T09:19:09Z</time>
      </trkpt>
      <trkpt lat="44.47262" lon="6.85804">
        <ele>2712.6</ele>
        <time>2022-08-16T09:19:10Z</time>
      </trkpt>
      <trkpt lat="44.47262" lon="6.85804">
        <ele>2712.6</ele>
        <time>2022-08-16T09:19:12Z</time>
      </trkpt>
      <trkpt lat="44.47262" lon="6.85804">
        <ele>2712.6</ele>
        <time>2022-08-16T09:19:16Z</time>
      </trkpt>
      <trkpt lat="44.47262" lon="6.85804">
        <ele>2712.6</ele>
        <time>2022-08-16T09:19:21Z</time>
      </trkpt>
      <trkpt lat="44.47262" lon="6.85804">
        <ele>2712.4</ele>
        <time>2022-08-16T09:19:22Z</time>
      </trkpt>
      <trkpt lat="44.47262" lon="6.85804">
        <ele>2712.6</ele>
        <time>2022-08-16T09:19:23Z</time>
      </trkpt>
      <trkpt lat="44.47262" lon="6.85804">
        <ele>2712.8</ele>
        <time>2022-08-16T09:19:24Z</time>
      </trkpt>
      <trkpt lat="44.47262" lon="6.85804">
        <ele>2712.4</ele>
        <time>2022-08-16T09:19:40Z</time>
      </trkpt>
      <trkpt lat="44.47262" lon="6.85804">
        <ele>2712.6</ele>
        <time>2022-08-16T09:19:48Z</time>
      </trkpt>
      <trkpt lat="44.47262" lon="6.85804">
        <ele>2712.4</ele>
        <time>2022-08-16T09:19:49Z</time>
      </trkpt>
      <trkpt lat="44.47262" lon="6.85804">
        <ele>2712.6</ele>
        <time>2022-08-16T09:20:00Z</time>
      </trkpt>
      <trkpt lat="44.47262" lon="6.85804">
        <ele>2712.8</ele>
        <time>2022-08-16T09:20:01Z</time>
      </trkpt>
      <trkpt lat="44.47262" lon="6.85804">
        <ele>2712.8</ele>
        <time>2022-08-16T09:20:02Z</time>
      </trkpt>
      <trkpt lat="44.47263" lon="6.85803">
        <ele>2712.6</ele>
        <time>2022-08-16T09:20:03Z</time>
      </trkpt>
      <trkpt lat="44.47264" lon="6.85801">
        <ele>2712.8</ele>
        <time>2022-08-16T09:20:06Z</time>
      </trkpt>
      <trkpt lat="44.47264" lon="6.85799">
        <ele>2712.8</ele>
        <time>2022-08-16T09:20:08Z</time>
      </trkpt>
      <trkpt lat="44.47265" lon="6.85798">
        <ele>2713</ele>
        <time>2022-08-16T09:20:09Z</time>
      </trkpt>
      <trkpt lat="44.47265" lon="6.85797">
        <ele>2712.8</ele>
        <time>2022-08-16T09:20:10Z</time>
      </trkpt>
      <trkpt lat="44.47265" lon="6.85797">
        <ele>2712.8</ele>
        <time>2022-08-16T09:20:12Z</time>
      </trkpt>
      <trkpt lat="44.47265" lon="6.85797">
        <ele>2712.8</ele>
        <time>2022-08-16T09:20:13Z</time>
      </trkpt>
      <trkpt lat="44.47265" lon="6.85796">
        <ele>2712.8</ele>
        <time>2022-08-16T09:20:14Z</time>
      </trkpt>
      <trkpt lat="44.47266" lon="6.85796">
        <ele>2712.6</ele>
        <time>2022-08-16T09:20:18Z</time>
      </trkpt>
      <trkpt lat="44.47266" lon="6.85796">
        <ele>2712.2</ele>
        <time>2022-08-16T09:20:26Z</time>
      </trkpt>
      <trkpt lat="44.47266" lon="6.85796">
        <ele>2712.2</ele>
        <time>2022-08-16T09:20:27Z</time>
      </trkpt>
      <trkpt lat="44.47266" lon="6.85796">
        <ele>2712.2</ele>
        <time>2022-08-16T09:20:30Z</time>
      </trkpt>
      <trkpt lat="44.47266" lon="6.85796">
        <ele>2712.2</ele>
        <time>2022-08-16T09:20:33Z</time>
      </trkpt>
      <trkpt lat="44.47266" lon="6.85796">
        <ele>2712.2</ele>
        <time>2022-08-16T09:20:34Z</time>
      </trkpt>
      <trkpt lat="44.47266" lon="6.85796">
        <ele>2712.2</ele>
        <time>2022-08-16T09:20:35Z</time>
      </trkpt>
      <trkpt lat="44.47266" lon="6.85796">
        <ele>2712.2</ele>
        <time>2022-08-16T09:20:38Z</time>
      </trkpt>
      <trkpt lat="44.47266" lon="6.85796">
        <ele>2712</ele>
        <time>2022-08-16T09:20:39Z</time>
      </trkpt>
      <trkpt lat="44.47266" lon="6.85796">
        <ele>2711.8</ele>
        <time>2022-08-16T09:20:47Z</time>
      </trkpt>
      <trkpt lat="44.47266" lon="6.85796">
        <ele>2711.8</ele>
        <time>2022-08-16T09:20:48Z</time>
      </trkpt>
      <trkpt lat="44.47266" lon="6.85796">
        <ele>2711.6</ele>
        <time>2022-08-16T09:20:50Z</time>
      </trkpt>
      <trkpt lat="44.47265" lon="6.85797">
        <ele>2711.8</ele>
        <time>2022-08-16T09:20:51Z</time>
      </trkpt>
      <trkpt lat="44.47262" lon="6.85799">
        <ele>2711.6</ele>
        <time>2022-08-16T09:20:53Z</time>
      </trkpt>
      <trkpt lat="44.4726" lon="6.85799">
        <ele>2711.6</ele>
        <time>2022-08-16T09:20:56Z</time>
      </trkpt>
      <trkpt lat="44.4726" lon="6.858">
        <ele>2711.8</ele>
        <time>2022-08-16T09:20:57Z</time>
      </trkpt>
      <trkpt lat="44.4726" lon="6.858">
        <ele>2711.8</ele>
        <time>2022-08-16T09:21:07Z</time>
      </trkpt>
      <trkpt lat="44.47261" lon="6.858">
        <ele>2711.4</ele>
        <time>2022-08-16T09:21:11Z</time>
      </trkpt>
      <trkpt lat="44.47261" lon="6.858">
        <ele>2711.2</ele>
        <time>2022-08-16T09:21:12Z</time>
      </trkpt>
      <trkpt lat="44.47261" lon="6.85801">
        <ele>2711.4</ele>
        <time>2022-08-16T09:21:18Z</time>
      </trkpt>
      <trkpt lat="44.47263" lon="6.858">
        <ele>2711.4</ele>
        <time>2022-08-16T09:21:29Z</time>
      </trkpt>
      <trkpt lat="44.47264" lon="6.85801">
        <ele>2711.6</ele>
        <time>2022-08-16T09:21:31Z</time>
      </trkpt>
      <trkpt lat="44.47267" lon="6.85803">
        <ele>2711.4</ele>
        <time>2022-08-16T09:21:41Z</time>
      </trkpt>
      <trkpt lat="44.47267" lon="6.85804">
        <ele>2711.2</ele>
        <time>2022-08-16T09:21:48Z</time>
      </trkpt>
      <trkpt lat="44.47266" lon="6.85804">
        <ele>2711.2</ele>
        <time>2022-08-16T09:21:49Z</time>
      </trkpt>
      <trkpt lat="44.47266" lon="6.85803">
        <ele>2711.2</ele>
        <time>2022-08-16T09:21:50Z</time>
      </trkpt>
      <trkpt lat="44.47266" lon="6.85802">
        <ele>2711.2</ele>
        <time>2022-08-16T09:21:51Z</time>
      </trkpt>
      <trkpt lat="44.47266" lon="6.85802">
        <ele>2711.2</ele>
        <time>2022-08-16T09:21:52Z</time>
      </trkpt>
      <trkpt lat="44.47265" lon="6.85802">
        <ele>2711.2</ele>
        <time>2022-08-16T09:21:55Z</time>
      </trkpt>
      <trkpt lat="44.47265" lon="6.85802">
        <ele>2711</ele>
        <time>2022-08-16T09:21:56Z</time>
      </trkpt>
      <trkpt lat="44.47265" lon="6.85801">
        <ele>2711.2</ele>
        <time>2022-08-16T09:21:57Z</time>
      </trkpt>
      <trkpt lat="44.47265" lon="6.85801">
        <ele>2711.2</ele>
        <time>2022-08-16T09:21:58Z</time>
      </trkpt>
      <trkpt lat="44.47265" lon="6.85801">
        <ele>2711.2</ele>
        <time>2022-08-16T09:21:59Z</time>
      </trkpt>
      <trkpt lat="44.47265" lon="6.85801">
        <ele>2711.4</ele>
        <time>2022-08-16T09:22:01Z</time>
      </trkpt>
      <trkpt lat="44.47265" lon="6.858">
        <ele>2711.4</ele>
        <time>2022-08-16T09:22:02Z</time>
      </trkpt>
      <trkpt lat="44.47266" lon="6.858">
        <ele>2711.8</ele>
        <time>2022-08-16T09:22:03Z</time>
      </trkpt>
      <trkpt lat="44.47266" lon="6.858">
        <ele>2712.2</ele>
        <time>2022-08-16T09:22:12Z</time>
      </trkpt>
      <trkpt lat="44.47268" lon="6.858">
        <ele>2712.2</ele>
        <time>2022-08-16T09:22:20Z</time>
      </trkpt>
      <trkpt lat="44.47269" lon="6.858">
        <ele>2712.2</ele>
        <time>2022-08-16T09:22:22Z</time>
      </trkpt>
      <trkpt lat="44.47269" lon="6.85801">
        <ele>2712.4</ele>
        <time>2022-08-16T09:22:23Z</time>
      </trkpt>
      <trkpt lat="44.47269" lon="6.85801">
        <ele>2712.4</ele>
        <time>2022-08-16T09:22:27Z</time>
      </trkpt>
      <trkpt lat="44.47269" lon="6.85801">
        <ele>2712.2</ele>
        <time>2022-08-16T09:22:42Z</time>
      </trkpt>
      <trkpt lat="44.47269" lon="6.85801">
        <ele>2712.2</ele>
        <time>2022-08-16T09:22:44Z</time>
      </trkpt>
      <trkpt lat="44.4727" lon="6.85802">
        <ele>2712.2</ele>
        <time>2022-08-16T09:22:45Z</time>
      </trkpt>
      <trkpt lat="44.47274" lon="6.85807">
        <ele>2712.2</ele>
        <time>2022-08-16T09:22:47Z</time>
      </trkpt>
      <trkpt lat="44.47277" lon="6.85815">
        <ele>2712.2</ele>
        <time>2022-08-16T09:22:49Z</time>
      </trkpt>
      <trkpt lat="44.47282" lon="6.85831">
        <ele>2712.2</ele>
        <time>2022-08-16T09:22:52Z</time>
      </trkpt>
      <trkpt lat="44.47284" lon="6.85841">
        <ele>2712.2</ele>
        <time>2022-08-16T09:22:54Z</time>
      </trkpt>
      <trkpt lat="44.47286" lon="6.85843">
        <ele>2712</ele>
        <time>2022-08-16T09:22:55Z</time>
      </trkpt>
      <trkpt lat="44.47288" lon="6.85842">
        <ele>2711.8</ele>
        <time>2022-08-16T09:22:56Z</time>
      </trkpt>
      <trkpt lat="44.4729" lon="6.85838">
        <ele>2711.4</ele>
        <time>2022-08-16T09:22:57Z</time>
      </trkpt>
      <trkpt lat="44.47291" lon="6.85827">
        <ele>2711.2</ele>
        <time>2022-08-16T09:22:59Z</time>
      </trkpt>
      <trkpt lat="44.47291" lon="6.85821">
        <ele>2710.8</ele>
        <time>2022-08-16T09:23:00Z</time>
      </trkpt>
      <trkpt lat="44.4729" lon="6.85814">
        <ele>2710.6</ele>
        <time>2022-08-16T09:23:01Z</time>
      </trkpt>
      <trkpt lat="44.47289" lon="6.85807">
        <ele>2710</ele>
        <time>2022-08-16T09:23:02Z</time>
      </trkpt>
      <trkpt lat="44.47287" lon="6.858">
        <ele>2709.4</ele>
        <time>2022-08-16T09:23:03Z</time>
      </trkpt>
      <trkpt lat="44.47285" lon="6.85792">
        <ele>2709</ele>
        <time>2022-08-16T09:23:04Z</time>
      </trkpt>
      <trkpt lat="44.47283" lon="6.85785">
        <ele>2708.6</ele>
        <time>2022-08-16T09:23:05Z</time>
      </trkpt>
      <trkpt lat="44.4728" lon="6.85779">
        <ele>2707.8</ele>
        <time>2022-08-16T09:23:06Z</time>
      </trkpt>
      <trkpt lat="44.47277" lon="6.85774">
        <ele>2706.6</ele>
        <time>2022-08-16T09:23:07Z</time>
      </trkpt>
      <trkpt lat="44.47275" lon="6.85771">
        <ele>2705.6</ele>
        <time>2022-08-16T09:23:08Z</time>
      </trkpt>
      <trkpt lat="44.47276" lon="6.85769">
        <ele>2705</ele>
        <time>2022-08-16T09:23:09Z</time>
      </trkpt>
      <trkpt lat="44.47279" lon="6.85769">
        <ele>2704.8</ele>
        <time>2022-08-16T09:23:10Z</time>
      </trkpt>
      <trkpt lat="44.47283" lon="6.8577">
        <ele>2704.4</ele>
        <time>2022-08-16T09:23:11Z</time>
      </trkpt>
      <trkpt lat="44.47287" lon="6.85773">
        <ele>2704</ele>
        <time>2022-08-16T09:23:12Z</time>
      </trkpt>
      <trkpt lat="44.47292" lon="6.85777">
        <ele>2703.2</ele>
        <time>2022-08-16T09:23:13Z</time>
      </trkpt>
      <trkpt lat="44.47296" lon="6.85781">
        <ele>2702.6</ele>
        <time>2022-08-16T09:23:14Z</time>
      </trkpt>
      <trkpt lat="44.47299" lon="6.85782">
        <ele>2702</ele>
        <time>2022-08-16T09:23:15Z</time>
      </trkpt>
      <trkpt lat="44.473" lon="6.85781">
        <ele>2701.6</ele>
        <time>2022-08-16T09:23:16Z</time>
      </trkpt>
      <trkpt lat="44.47299" lon="6.85777">
        <ele>2701.4</ele>
        <time>2022-08-16T09:23:17Z</time>
      </trkpt>
      <trkpt lat="44.47295" lon="6.85769">
        <ele>2700.8</ele>
        <time>2022-08-16T09:23:19Z</time>
      </trkpt>
      <trkpt lat="44.47289" lon="6.8576">
        <ele>2700.4</ele>
        <time>2022-08-16T09:23:21Z</time>
      </trkpt>
      <trkpt lat="44.47288" lon="6.85757">
        <ele>2700</ele>
        <time>2022-08-16T09:23:22Z</time>
      </trkpt>
      <trkpt lat="44.47289" lon="6.85755">
        <ele>2699</ele>
        <time>2022-08-16T09:23:23Z</time>
      </trkpt>
      <trkpt lat="44.47291" lon="6.85755">
        <ele>2698.4</ele>
        <time>2022-08-16T09:23:24Z</time>
      </trkpt>
      <trkpt lat="44.47297" lon="6.85761">
        <ele>2697.6</ele>
        <time>2022-08-16T09:23:26Z</time>
      </trkpt>
      <trkpt lat="44.473" lon="6.85765">
        <ele>2695.8</ele>
        <time>2022-08-16T09:23:27Z</time>
      </trkpt>
      <trkpt lat="44.47304" lon="6.85769">
        <ele>2695</ele>
        <time>2022-08-16T09:23:28Z</time>
      </trkpt>
      <trkpt lat="44.47308" lon="6.85775">
        <ele>2694.4</ele>
        <time>2022-08-16T09:23:29Z</time>
      </trkpt>
      <trkpt lat="44.47313" lon="6.8578">
        <ele>2694</ele>
        <time>2022-08-16T09:23:30Z</time>
      </trkpt>
      <trkpt lat="44.47317" lon="6.85786">
        <ele>2694</ele>
        <time>2022-08-16T09:23:31Z</time>
      </trkpt>
      <trkpt lat="44.47321" lon="6.85792">
        <ele>2694</ele>
        <time>2022-08-16T09:23:32Z</time>
      </trkpt>
      <trkpt lat="44.47324" lon="6.85808">
        <ele>2693.6</ele>
        <time>2022-08-16T09:23:34Z</time>
      </trkpt>
      <trkpt lat="44.47324" lon="6.85817">
        <ele>2693.6</ele>
        <time>2022-08-16T09:23:35Z</time>
      </trkpt>
      <trkpt lat="44.47323" lon="6.85827">
        <ele>2693.4</ele>
        <time>2022-08-16T09:23:36Z</time>
      </trkpt>
      <trkpt lat="44.47321" lon="6.85837">
        <ele>2693.2</ele>
        <time>2022-08-16T09:23:37Z</time>
      </trkpt>
      <trkpt lat="44.4732" lon="6.85846">
        <ele>2692.6</ele>
        <time>2022-08-16T09:23:38Z</time>
      </trkpt>
      <trkpt lat="44.47321" lon="6.85854">
        <ele>2692</ele>
        <time>2022-08-16T09:23:39Z</time>
      </trkpt>
      <trkpt lat="44.47323" lon="6.8586">
        <ele>2690.6</ele>
        <time>2022-08-16T09:23:40Z</time>
      </trkpt>
      <trkpt lat="44.47326" lon="6.85867">
        <ele>2690</ele>
        <time>2022-08-16T09:23:41Z</time>
      </trkpt>
      <trkpt lat="44.47329" lon="6.85875">
        <ele>2689.2</ele>
        <time>2022-08-16T09:23:42Z</time>
      </trkpt>
      <trkpt lat="44.47332" lon="6.85885">
        <ele>2689.2</ele>
        <time>2022-08-16T09:23:43Z</time>
      </trkpt>
      <trkpt lat="44.47339" lon="6.85906">
        <ele>2688.2</ele>
        <time>2022-08-16T09:23:45Z</time>
      </trkpt>
      <trkpt lat="44.47348" lon="6.85928">
        <ele>2685.8</ele>
        <time>2022-08-16T09:23:47Z</time>
      </trkpt>
      <trkpt lat="44.47358" lon="6.8595">
        <ele>2684</ele>
        <time>2022-08-16T09:23:49Z</time>
      </trkpt>
      <trkpt lat="44.47364" lon="6.85959">
        <ele>2683</ele>
        <time>2022-08-16T09:23:50Z</time>
      </trkpt>
      <trkpt lat="44.47368" lon="6.85964">
        <ele>2682.2</ele>
        <time>2022-08-16T09:23:51Z</time>
      </trkpt>
      <trkpt lat="44.47372" lon="6.85965">
        <ele>2681</ele>
        <time>2022-08-16T09:23:52Z</time>
      </trkpt>
      <trkpt lat="44.47375" lon="6.85962">
        <ele>2680.4</ele>
        <time>2022-08-16T09:23:53Z</time>
      </trkpt>
      <trkpt lat="44.47377" lon="6.85956">
        <ele>2679.8</ele>
        <time>2022-08-16T09:23:54Z</time>
      </trkpt>
      <trkpt lat="44.47378" lon="6.85949">
        <ele>2679.2</ele>
        <time>2022-08-16T09:23:55Z</time>
      </trkpt>
      <trkpt lat="44.47379" lon="6.8594">
        <ele>2677.8</ele>
        <time>2022-08-16T09:23:56Z</time>
      </trkpt>
      <trkpt lat="44.4738" lon="6.85931">
        <ele>2677.2</ele>
        <time>2022-08-16T09:23:57Z</time>
      </trkpt>
      <trkpt lat="44.47381" lon="6.85921">
        <ele>2675.4</ele>
        <time>2022-08-16T09:23:58Z</time>
      </trkpt>
      <trkpt lat="44.47383" lon="6.8591">
        <ele>2674.2</ele>
        <time>2022-08-16T09:23:59Z</time>
      </trkpt>
      <trkpt lat="44.47385" lon="6.85899">
        <ele>2673.2</ele>
        <time>2022-08-16T09:24:00Z</time>
      </trkpt>
      <trkpt lat="44.47386" lon="6.85888">
        <ele>2672.4</ele>
        <time>2022-08-16T09:24:01Z</time>
      </trkpt>
      <trkpt lat="44.47386" lon="6.85878">
        <ele>2671.8</ele>
        <time>2022-08-16T09:24:02Z</time>
      </trkpt>
      <trkpt lat="44.47384" lon="6.85869">
        <ele>2669.8</ele>
        <time>2022-08-16T09:24:03Z</time>
      </trkpt>
      <trkpt lat="44.47382" lon="6.85861">
        <ele>2669.8</ele>
        <time>2022-08-16T09:24:04Z</time>
      </trkpt>
      <trkpt lat="44.4738" lon="6.85851">
        <ele>2668.6</ele>
        <time>2022-08-16T09:24:05Z</time>
      </trkpt>
      <trkpt lat="44.47377" lon="6.8584">
        <ele>2667.2</ele>
        <time>2022-08-16T09:24:06Z</time>
      </trkpt>
      <trkpt lat="44.47374" lon="6.85829">
        <ele>2666</ele>
        <time>2022-08-16T09:24:07Z</time>
      </trkpt>
      <trkpt lat="44.47371" lon="6.8582">
        <ele>2665.2</ele>
        <time>2022-08-16T09:24:08Z</time>
      </trkpt>
      <trkpt lat="44.47369" lon="6.858">
        <ele>2662.6</ele>
        <time>2022-08-16T09:24:10Z</time>
      </trkpt>
      <trkpt lat="44.47369" lon="6.85791">
        <ele>2661.8</ele>
        <time>2022-08-16T09:24:11Z</time>
      </trkpt>
      <trkpt lat="44.4737" lon="6.85783">
        <ele>2661.4</ele>
        <time>2022-08-16T09:24:12Z</time>
      </trkpt>
      <trkpt lat="44.4737" lon="6.85775">
        <ele>2660.2</ele>
        <time>2022-08-16T09:24:13Z</time>
      </trkpt>
      <trkpt lat="44.4737" lon="6.85768">
        <ele>2659</ele>
        <time>2022-08-16T09:24:14Z</time>
      </trkpt>
      <trkpt lat="44.4737" lon="6.85759">
        <ele>2658.2</ele>
        <time>2022-08-16T09:24:15Z</time>
      </trkpt>
      <trkpt lat="44.47368" lon="6.85751">
        <ele>2656.4</ele>
        <time>2022-08-16T09:24:16Z</time>
      </trkpt>
      <trkpt lat="44.47362" lon="6.85724">
        <ele>2654</ele>
        <time>2022-08-16T09:24:19Z</time>
      </trkpt>
      <trkpt lat="44.4736" lon="6.85715">
        <ele>2653.4</ele>
        <time>2022-08-16T09:24:20Z</time>
      </trkpt>
      <trkpt lat="44.47356" lon="6.85706">
        <ele>2653.2</ele>
        <time>2022-08-16T09:24:21Z</time>
      </trkpt>
      <trkpt lat="44.47353" lon="6.85697">
        <ele>2652.8</ele>
        <time>2022-08-16T09:24:22Z</time>
      </trkpt>
      <trkpt lat="44.4735" lon="6.85686">
        <ele>2652.6</ele>
        <time>2022-08-16T09:24:23Z</time>
      </trkpt>
      <trkpt lat="44.47343" lon="6.85664">
        <ele>2650.6</ele>
        <time>2022-08-16T09:24:25Z</time>
      </trkpt>
      <trkpt lat="44.47339" lon="6.85652">
        <ele>2649.8</ele>
        <time>2022-08-16T09:24:26Z</time>
      </trkpt>
      <trkpt lat="44.47331" lon="6.85628">
        <ele>2649</ele>
        <time>2022-08-16T09:24:28Z</time>
      </trkpt>
      <trkpt lat="44.47327" lon="6.85617">
        <ele>2648.6</ele>
        <time>2022-08-16T09:24:29Z</time>
      </trkpt>
      <trkpt lat="44.47323" lon="6.85607">
        <ele>2647</ele>
        <time>2022-08-16T09:24:30Z</time>
      </trkpt>
      <trkpt lat="44.4732" lon="6.85599">
        <ele>2645.6</ele>
        <time>2022-08-16T09:24:31Z</time>
      </trkpt>
      <trkpt lat="44.47318" lon="6.85594">
        <ele>2645</ele>
        <time>2022-08-16T09:24:32Z</time>
      </trkpt>
      <trkpt lat="44.47317" lon="6.85591">
        <ele>2643.6</ele>
        <time>2022-08-16T09:24:33Z</time>
      </trkpt>
      <trkpt lat="44.47319" lon="6.8559">
        <ele>2642.4</ele>
        <time>2022-08-16T09:24:34Z</time>
      </trkpt>
      <trkpt lat="44.47323" lon="6.85596">
        <ele>2639.6</ele>
        <time>2022-08-16T09:24:36Z</time>
      </trkpt>
      <trkpt lat="44.4733" lon="6.85606">
        <ele>2637.2</ele>
        <time>2022-08-16T09:24:38Z</time>
      </trkpt>
      <trkpt lat="44.47335" lon="6.85611">
        <ele>2636.2</ele>
        <time>2022-08-16T09:24:39Z</time>
      </trkpt>
      <trkpt lat="44.4734" lon="6.85617">
        <ele>2635.8</ele>
        <time>2022-08-16T09:24:40Z</time>
      </trkpt>
      <trkpt lat="44.47345" lon="6.85624">
        <ele>2635</ele>
        <time>2022-08-16T09:24:41Z</time>
      </trkpt>
      <trkpt lat="44.47356" lon="6.85638">
        <ele>2634.8</ele>
        <time>2022-08-16T09:24:43Z</time>
      </trkpt>
      <trkpt lat="44.47361" lon="6.85646">
        <ele>2634.4</ele>
        <time>2022-08-16T09:24:44Z</time>
      </trkpt>
      <trkpt lat="44.47366" lon="6.85654">
        <ele>2633.8</ele>
        <time>2022-08-16T09:24:45Z</time>
      </trkpt>
      <trkpt lat="44.47375" lon="6.8567">
        <ele>2633.2</ele>
        <time>2022-08-16T09:24:47Z</time>
      </trkpt>
      <trkpt lat="44.47379" lon="6.85676">
        <ele>2632.8</ele>
        <time>2022-08-16T09:24:48Z</time>
      </trkpt>
      <trkpt lat="44.47381" lon="6.85678">
        <ele>2631.8</ele>
        <time>2022-08-16T09:24:49Z</time>
      </trkpt>
      <trkpt lat="44.47382" lon="6.85678">
        <ele>2631.8</ele>
        <time>2022-08-16T09:24:50Z</time>
      </trkpt>
      <trkpt lat="44.47382" lon="6.85676">
        <ele>2630</ele>
        <time>2022-08-16T09:24:51Z</time>
      </trkpt>
      <trkpt lat="44.4738" lon="6.85672">
        <ele>2629.2</ele>
        <time>2022-08-16T09:24:52Z</time>
      </trkpt>
      <trkpt lat="44.47379" lon="6.85667">
        <ele>2628.4</ele>
        <time>2022-08-16T09:24:53Z</time>
      </trkpt>
      <trkpt lat="44.47377" lon="6.85661">
        <ele>2627.8</ele>
        <time>2022-08-16T09:24:54Z</time>
      </trkpt>
      <trkpt lat="44.47374" lon="6.85654">
        <ele>2627</ele>
        <time>2022-08-16T09:24:55Z</time>
      </trkpt>
      <trkpt lat="44.47372" lon="6.85646">
        <ele>2626.2</ele>
        <time>2022-08-16T09:24:56Z</time>
      </trkpt>
      <trkpt lat="44.4737" lon="6.85637">
        <ele>2626</ele>
        <time>2022-08-16T09:24:57Z</time>
      </trkpt>
      <trkpt lat="44.47367" lon="6.8563">
        <ele>2625.6</ele>
        <time>2022-08-16T09:24:58Z</time>
      </trkpt>
      <trkpt lat="44.47364" lon="6.85622">
        <ele>2625</ele>
        <time>2022-08-16T09:24:59Z</time>
      </trkpt>
      <trkpt lat="44.4736" lon="6.85614">
        <ele>2624.6</ele>
        <time>2022-08-16T09:25:00Z</time>
      </trkpt>
      <trkpt lat="44.47356" lon="6.85604">
        <ele>2624.2</ele>
        <time>2022-08-16T09:25:01Z</time>
      </trkpt>
      <trkpt lat="44.47353" lon="6.85594">
        <ele>2623.6</ele>
        <time>2022-08-16T09:25:02Z</time>
      </trkpt>
      <trkpt lat="44.4735" lon="6.85582">
        <ele>2622.4</ele>
        <time>2022-08-16T09:25:03Z</time>
      </trkpt>
      <trkpt lat="44.47344" lon="6.85559">
        <ele>2620.6</ele>
        <time>2022-08-16T09:25:05Z</time>
      </trkpt>
      <trkpt lat="44.4734" lon="6.85546">
        <ele>2620.2</ele>
        <time>2022-08-16T09:25:06Z</time>
      </trkpt>
      <trkpt lat="44.47338" lon="6.85534">
        <ele>2619.6</ele>
        <time>2022-08-16T09:25:07Z</time>
      </trkpt>
      <trkpt lat="44.47334" lon="6.85509">
        <ele>2617.4</ele>
        <time>2022-08-16T09:25:09Z</time>
      </trkpt>
      <trkpt lat="44.47333" lon="6.85498">
        <ele>2616.2</ele>
        <time>2022-08-16T09:25:10Z</time>
      </trkpt>
      <trkpt lat="44.47332" lon="6.85488">
        <ele>2615</ele>
        <time>2022-08-16T09:25:11Z</time>
      </trkpt>
      <trkpt lat="44.47332" lon="6.85479">
        <ele>2615</ele>
        <time>2022-08-16T09:25:12Z</time>
      </trkpt>
      <trkpt lat="44.47331" lon="6.85472">
        <ele>2613.6</ele>
        <time>2022-08-16T09:25:13Z</time>
      </trkpt>
      <trkpt lat="44.4733" lon="6.85466">
        <ele>2612.8</ele>
        <time>2022-08-16T09:25:14Z</time>
      </trkpt>
      <trkpt lat="44.47329" lon="6.85459">
        <ele>2611</ele>
        <time>2022-08-16T09:25:15Z</time>
      </trkpt>
      <trkpt lat="44.47328" lon="6.85453">
        <ele>2609.2</ele>
        <time>2022-08-16T09:25:16Z</time>
      </trkpt>
      <trkpt lat="44.47328" lon="6.85449">
        <ele>2608</ele>
        <time>2022-08-16T09:25:17Z</time>
      </trkpt>
      <trkpt lat="44.47328" lon="6.85447">
        <ele>2607.2</ele>
        <time>2022-08-16T09:25:18Z</time>
      </trkpt>
      <trkpt lat="44.47329" lon="6.85447">
        <ele>2606.4</ele>
        <time>2022-08-16T09:25:19Z</time>
      </trkpt>
      <trkpt lat="44.4733" lon="6.85448">
        <ele>2605.8</ele>
        <time>2022-08-16T09:25:20Z</time>
      </trkpt>
      <trkpt lat="44.47333" lon="6.85456">
        <ele>2603.6</ele>
        <time>2022-08-16T09:25:22Z</time>
      </trkpt>
      <trkpt lat="44.47337" lon="6.85467">
        <ele>2602.4</ele>
        <time>2022-08-16T09:25:24Z</time>
      </trkpt>
      <trkpt lat="44.47341" lon="6.85481">
        <ele>2601.6</ele>
        <time>2022-08-16T09:25:26Z</time>
      </trkpt>
      <trkpt lat="44.47343" lon="6.85488">
        <ele>2601.2</ele>
        <time>2022-08-16T09:25:27Z</time>
      </trkpt>
      <trkpt lat="44.47349" lon="6.85504">
        <ele>2601</ele>
        <time>2022-08-16T09:25:29Z</time>
      </trkpt>
      <trkpt lat="44.47357" lon="6.85518">
        <ele>2600.8</ele>
        <time>2022-08-16T09:25:31Z</time>
      </trkpt>
      <trkpt lat="44.47361" lon="6.85525">
        <ele>2600.8</ele>
        <time>2022-08-16T09:25:32Z</time>
      </trkpt>
      <trkpt lat="44.47366" lon="6.85532">
        <ele>2600.4</ele>
        <time>2022-08-16T09:25:33Z</time>
      </trkpt>
      <trkpt lat="44.47372" lon="6.85537">
        <ele>2600.6</ele>
        <time>2022-08-16T09:25:34Z</time>
      </trkpt>
      <trkpt lat="44.47377" lon="6.85541">
        <ele>2600.6</ele>
        <time>2022-08-16T09:25:35Z</time>
      </trkpt>
      <trkpt lat="44.47381" lon="6.85542">
        <ele>2600.2</ele>
        <time>2022-08-16T09:25:36Z</time>
      </trkpt>
      <trkpt lat="44.47384" lon="6.85542">
        <ele>2599.4</ele>
        <time>2022-08-16T09:25:37Z</time>
      </trkpt>
      <trkpt lat="44.47384" lon="6.8554">
        <ele>2598.8</ele>
        <time>2022-08-16T09:25:38Z</time>
      </trkpt>
      <trkpt lat="44.47375" lon="6.85532">
        <ele>2597</ele>
        <time>2022-08-16T09:25:41Z</time>
      </trkpt>
      <trkpt lat="44.47371" lon="6.85527">
        <ele>2595.8</ele>
        <time>2022-08-16T09:25:42Z</time>
      </trkpt>
      <trkpt lat="44.47368" lon="6.85521">
        <ele>2594.6</ele>
        <time>2022-08-16T09:25:43Z</time>
      </trkpt>
      <trkpt lat="44.47362" lon="6.85508">
        <ele>2592.8</ele>
        <time>2022-08-16T09:25:45Z</time>
      </trkpt>
      <trkpt lat="44.47359" lon="6.85501">
        <ele>2592.4</ele>
        <time>2022-08-16T09:25:46Z</time>
      </trkpt>
      <trkpt lat="44.47357" lon="6.85495">
        <ele>2592</ele>
        <time>2022-08-16T09:25:47Z</time>
      </trkpt>
      <trkpt lat="44.47357" lon="6.85492">
        <ele>2591.6</ele>
        <time>2022-08-16T09:25:48Z</time>
      </trkpt>
      <trkpt lat="44.47358" lon="6.85491">
        <ele>2591.2</ele>
        <time>2022-08-16T09:25:49Z</time>
      </trkpt>
      <trkpt lat="44.47359" lon="6.85491">
        <ele>2591</ele>
        <time>2022-08-16T09:25:50Z</time>
      </trkpt>
      <trkpt lat="44.4736" lon="6.85492">
        <ele>2590.6</ele>
        <time>2022-08-16T09:25:51Z</time>
      </trkpt>
      <trkpt lat="44.47362" lon="6.85496">
        <ele>2590</ele>
        <time>2022-08-16T09:25:52Z</time>
      </trkpt>
      <trkpt lat="44.47367" lon="6.85506">
        <ele>2589.4</ele>
        <time>2022-08-16T09:25:54Z</time>
      </trkpt>
      <trkpt lat="44.47371" lon="6.85512">
        <ele>2589</ele>
        <time>2022-08-16T09:25:55Z</time>
      </trkpt>
      <trkpt lat="44.47378" lon="6.85521">
        <ele>2588.8</ele>
        <time>2022-08-16T09:25:57Z</time>
      </trkpt>
      <trkpt lat="44.47381" lon="6.85522">
        <ele>2588.8</ele>
        <time>2022-08-16T09:25:58Z</time>
      </trkpt>
      <trkpt lat="44.47382" lon="6.85521">
        <ele>2588.6</ele>
        <time>2022-08-16T09:25:59Z</time>
      </trkpt>
      <trkpt lat="44.47382" lon="6.85519">
        <ele>2588.6</ele>
        <time>2022-08-16T09:26:00Z</time>
      </trkpt>
      <trkpt lat="44.4738" lon="6.85516">
        <ele>2588</ele>
        <time>2022-08-16T09:26:01Z</time>
      </trkpt>
      <trkpt lat="44.47378" lon="6.85511">
        <ele>2587.6</ele>
        <time>2022-08-16T09:26:02Z</time>
      </trkpt>
      <trkpt lat="44.47376" lon="6.85504">
        <ele>2587</ele>
        <time>2022-08-16T09:26:03Z</time>
      </trkpt>
      <trkpt lat="44.47374" lon="6.85498">
        <ele>2586.6</ele>
        <time>2022-08-16T09:26:04Z</time>
      </trkpt>
      <trkpt lat="44.4737" lon="6.85492">
        <ele>2586.4</ele>
        <time>2022-08-16T09:26:05Z</time>
      </trkpt>
      <trkpt lat="44.47368" lon="6.85477">
        <ele>2585.8</ele>
        <time>2022-08-16T09:26:07Z</time>
      </trkpt>
      <trkpt lat="44.47367" lon="6.85462">
        <ele>2585</ele>
        <time>2022-08-16T09:26:09Z</time>
      </trkpt>
      <trkpt lat="44.47366" lon="6.85455">
        <ele>2584.8</ele>
        <time>2022-08-16T09:26:10Z</time>
      </trkpt>
      <trkpt lat="44.47366" lon="6.85448">
        <ele>2583.8</ele>
        <time>2022-08-16T09:26:11Z</time>
      </trkpt>
      <trkpt lat="44.47366" lon="6.85442">
        <ele>2582.8</ele>
        <time>2022-08-16T09:26:12Z</time>
      </trkpt>
      <trkpt lat="44.47367" lon="6.85439">
        <ele>2582</ele>
        <time>2022-08-16T09:26:13Z</time>
      </trkpt>
      <trkpt lat="44.47368" lon="6.85439">
        <ele>2581.4</ele>
        <time>2022-08-16T09:26:14Z</time>
      </trkpt>
      <trkpt lat="44.47368" lon="6.8544">
        <ele>2581</ele>
        <time>2022-08-16T09:26:15Z</time>
      </trkpt>
      <trkpt lat="44.47368" lon="6.85443">
        <ele>2580.2</ele>
        <time>2022-08-16T09:26:16Z</time>
      </trkpt>
      <trkpt lat="44.47369" lon="6.85453">
        <ele>2579</ele>
        <time>2022-08-16T09:26:18Z</time>
      </trkpt>
      <trkpt lat="44.47371" lon="6.85467">
        <ele>2578.2</ele>
        <time>2022-08-16T09:26:20Z</time>
      </trkpt>
      <trkpt lat="44.47374" lon="6.85473">
        <ele>2577.8</ele>
        <time>2022-08-16T09:26:21Z</time>
      </trkpt>
      <trkpt lat="44.47376" lon="6.85479">
        <ele>2577.4</ele>
        <time>2022-08-16T09:26:22Z</time>
      </trkpt>
      <trkpt lat="44.47378" lon="6.85483">
        <ele>2577.4</ele>
        <time>2022-08-16T09:26:23Z</time>
      </trkpt>
      <trkpt lat="44.47381" lon="6.85487">
        <ele>2577</ele>
        <time>2022-08-16T09:26:24Z</time>
      </trkpt>
      <trkpt lat="44.47383" lon="6.8549">
        <ele>2576.8</ele>
        <time>2022-08-16T09:26:25Z</time>
      </trkpt>
      <trkpt lat="44.47384" lon="6.8549">
        <ele>2576.6</ele>
        <time>2022-08-16T09:26:26Z</time>
      </trkpt>
      <trkpt lat="44.47385" lon="6.85488">
        <ele>2576</ele>
        <time>2022-08-16T09:26:27Z</time>
      </trkpt>
      <trkpt lat="44.47385" lon="6.85486">
        <ele>2575.4</ele>
        <time>2022-08-16T09:26:28Z</time>
      </trkpt>
      <trkpt lat="44.47384" lon="6.85483">
        <ele>2575</ele>
        <time>2022-08-16T09:26:29Z</time>
      </trkpt>
      <trkpt lat="44.47383" lon="6.85479">
        <ele>2574.8</ele>
        <time>2022-08-16T09:26:30Z</time>
      </trkpt>
      <trkpt lat="44.47381" lon="6.85474">
        <ele>2574.4</ele>
        <time>2022-08-16T09:26:31Z</time>
      </trkpt>
      <trkpt lat="44.47379" lon="6.85467">
        <ele>2574</ele>
        <time>2022-08-16T09:26:32Z</time>
      </trkpt>
      <trkpt lat="44.47378" lon="6.85459">
        <ele>2573.4</ele>
        <time>2022-08-16T09:26:33Z</time>
      </trkpt>
      <trkpt lat="44.47378" lon="6.85451">
        <ele>2573.2</ele>
        <time>2022-08-16T09:26:34Z</time>
      </trkpt>
      <trkpt lat="44.47379" lon="6.85443">
        <ele>2572.8</ele>
        <time>2022-08-16T09:26:35Z</time>
      </trkpt>
      <trkpt lat="44.4738" lon="6.85435">
        <ele>2572.6</ele>
        <time>2022-08-16T09:26:36Z</time>
      </trkpt>
      <trkpt lat="44.47381" lon="6.85427">
        <ele>2572.4</ele>
        <time>2022-08-16T09:26:37Z</time>
      </trkpt>
      <trkpt lat="44.47382" lon="6.85421">
        <ele>2571.2</ele>
        <time>2022-08-16T09:26:38Z</time>
      </trkpt>
      <trkpt lat="44.47383" lon="6.85419">
        <ele>2570.6</ele>
        <time>2022-08-16T09:26:39Z</time>
      </trkpt>
      <trkpt lat="44.47384" lon="6.85422">
        <ele>2569</ele>
        <time>2022-08-16T09:26:41Z</time>
      </trkpt>
      <trkpt lat="44.47384" lon="6.85426">
        <ele>2568</ele>
        <time>2022-08-16T09:26:42Z</time>
      </trkpt>
      <trkpt lat="44.47384" lon="6.85432">
        <ele>2568</ele>
        <time>2022-08-16T09:26:43Z</time>
      </trkpt>
      <trkpt lat="44.47383" lon="6.85445">
        <ele>2567.2</ele>
        <time>2022-08-16T09:26:45Z</time>
      </trkpt>
      <trkpt lat="44.47383" lon="6.85451">
        <ele>2567</ele>
        <time>2022-08-16T09:26:46Z</time>
      </trkpt>
      <trkpt lat="44.47384" lon="6.85457">
        <ele>2566.4</ele>
        <time>2022-08-16T09:26:47Z</time>
      </trkpt>
      <trkpt lat="44.47387" lon="6.85467">
        <ele>2565.8</ele>
        <time>2022-08-16T09:26:49Z</time>
      </trkpt>
      <trkpt lat="44.47389" lon="6.85469">
        <ele>2565.6</ele>
        <time>2022-08-16T09:26:50Z</time>
      </trkpt>
      <trkpt lat="44.4739" lon="6.85469">
        <ele>2565.2</ele>
        <time>2022-08-16T09:26:51Z</time>
      </trkpt>
      <trkpt lat="44.47391" lon="6.85467">
        <ele>2564.8</ele>
        <time>2022-08-16T09:26:52Z</time>
      </trkpt>
      <trkpt lat="44.4739" lon="6.85462">
        <ele>2564.6</ele>
        <time>2022-08-16T09:26:53Z</time>
      </trkpt>
      <trkpt lat="44.4739" lon="6.85456">
        <ele>2564.4</ele>
        <time>2022-08-16T09:26:54Z</time>
      </trkpt>
      <trkpt lat="44.47391" lon="6.85443">
        <ele>2564</ele>
        <time>2022-08-16T09:26:56Z</time>
      </trkpt>
      <trkpt lat="44.47394" lon="6.85436">
        <ele>2563.6</ele>
        <time>2022-08-16T09:26:57Z</time>
      </trkpt>
      <trkpt lat="44.47396" lon="6.85428">
        <ele>2563.4</ele>
        <time>2022-08-16T09:26:58Z</time>
      </trkpt>
      <trkpt lat="44.474" lon="6.85412">
        <ele>2562.6</ele>
        <time>2022-08-16T09:27:00Z</time>
      </trkpt>
      <trkpt lat="44.47403" lon="6.85405">
        <ele>2561.8</ele>
        <time>2022-08-16T09:27:01Z</time>
      </trkpt>
      <trkpt lat="44.47409" lon="6.85392">
        <ele>2559.6</ele>
        <time>2022-08-16T09:27:03Z</time>
      </trkpt>
      <trkpt lat="44.47412" lon="6.85387">
        <ele>2558.6</ele>
        <time>2022-08-16T09:27:04Z</time>
      </trkpt>
      <trkpt lat="44.47415" lon="6.85382">
        <ele>2558.6</ele>
        <time>2022-08-16T09:27:05Z</time>
      </trkpt>
      <trkpt lat="44.47422" lon="6.8537">
        <ele>2557</ele>
        <time>2022-08-16T09:27:07Z</time>
      </trkpt>
      <trkpt lat="44.4743" lon="6.85358">
        <ele>2555.2</ele>
        <time>2022-08-16T09:27:09Z</time>
      </trkpt>
      <trkpt lat="44.47433" lon="6.85355">
        <ele>2554.8</ele>
        <time>2022-08-16T09:27:10Z</time>
      </trkpt>
      <trkpt lat="44.47434" lon="6.85353">
        <ele>2554.4</ele>
        <time>2022-08-16T09:27:11Z</time>
      </trkpt>
      <trkpt lat="44.47435" lon="6.85353">
        <ele>2554</ele>
        <time>2022-08-16T09:27:12Z</time>
      </trkpt>
      <trkpt lat="44.47435" lon="6.85354">
        <ele>2553.4</ele>
        <time>2022-08-16T09:27:13Z</time>
      </trkpt>
      <trkpt lat="44.47434" lon="6.85355">
        <ele>2553.2</ele>
        <time>2022-08-16T09:27:14Z</time>
      </trkpt>
      <trkpt lat="44.47431" lon="6.85361">
        <ele>2552</ele>
        <time>2022-08-16T09:27:16Z</time>
      </trkpt>
      <trkpt lat="44.47429" lon="6.85366">
        <ele>2551.4</ele>
        <time>2022-08-16T09:27:17Z</time>
      </trkpt>
      <trkpt lat="44.47426" lon="6.85372">
        <ele>2550.6</ele>
        <time>2022-08-16T09:27:18Z</time>
      </trkpt>
      <trkpt lat="44.47424" lon="6.85378">
        <ele>2550</ele>
        <time>2022-08-16T09:27:19Z</time>
      </trkpt>
      <trkpt lat="44.47421" lon="6.85384">
        <ele>2549.2</ele>
        <time>2022-08-16T09:27:20Z</time>
      </trkpt>
      <trkpt lat="44.47419" lon="6.85391">
        <ele>2549</ele>
        <time>2022-08-16T09:27:21Z</time>
      </trkpt>
      <trkpt lat="44.47417" lon="6.85398">
        <ele>2548.8</ele>
        <time>2022-08-16T09:27:22Z</time>
      </trkpt>
      <trkpt lat="44.47415" lon="6.85405">
        <ele>2548.6</ele>
        <time>2022-08-16T09:27:23Z</time>
      </trkpt>
      <trkpt lat="44.47414" lon="6.85412">
        <ele>2548.4</ele>
        <time>2022-08-16T09:27:24Z</time>
      </trkpt>
      <trkpt lat="44.47415" lon="6.85419">
        <ele>2547.8</ele>
        <time>2022-08-16T09:27:25Z</time>
      </trkpt>
      <trkpt lat="44.47415" lon="6.85426">
        <ele>2547.2</ele>
        <time>2022-08-16T09:27:26Z</time>
      </trkpt>
      <trkpt lat="44.47416" lon="6.85449">
        <ele>2546.2</ele>
        <time>2022-08-16T09:27:29Z</time>
      </trkpt>
      <trkpt lat="44.47417" lon="6.85454">
        <ele>2545.8</ele>
        <time>2022-08-16T09:27:30Z</time>
      </trkpt>
      <trkpt lat="44.47419" lon="6.85456">
        <ele>2545.4</ele>
        <time>2022-08-16T09:27:31Z</time>
      </trkpt>
      <trkpt lat="44.47419" lon="6.85456">
        <ele>2545</ele>
        <time>2022-08-16T09:27:32Z</time>
      </trkpt>
      <trkpt lat="44.47419" lon="6.85453">
        <ele>2544.8</ele>
        <time>2022-08-16T09:27:33Z</time>
      </trkpt>
      <trkpt lat="44.4742" lon="6.85444">
        <ele>2544</ele>
        <time>2022-08-16T09:27:35Z</time>
      </trkpt>
      <trkpt lat="44.47422" lon="6.85438">
        <ele>2542.6</ele>
        <time>2022-08-16T09:27:36Z</time>
      </trkpt>
      <trkpt lat="44.47423" lon="6.85432">
        <ele>2541.6</ele>
        <time>2022-08-16T09:27:37Z</time>
      </trkpt>
      <trkpt lat="44.47424" lon="6.85427">
        <ele>2540.4</ele>
        <time>2022-08-16T09:27:38Z</time>
      </trkpt>
      <trkpt lat="44.47426" lon="6.85422">
        <ele>2539.4</ele>
        <time>2022-08-16T09:27:39Z</time>
      </trkpt>
      <trkpt lat="44.47428" lon="6.85415">
        <ele>2539</ele>
        <time>2022-08-16T09:27:40Z</time>
      </trkpt>
      <trkpt lat="44.47433" lon="6.85402">
        <ele>2538.4</ele>
        <time>2022-08-16T09:27:42Z</time>
      </trkpt>
      <trkpt lat="44.47442" lon="6.85389">
        <ele>2537.8</ele>
        <time>2022-08-16T09:27:44Z</time>
      </trkpt>
      <trkpt lat="44.47451" lon="6.85378">
        <ele>2535.8</ele>
        <time>2022-08-16T09:27:46Z</time>
      </trkpt>
      <trkpt lat="44.47453" lon="6.85374">
        <ele>2535</ele>
        <time>2022-08-16T09:27:47Z</time>
      </trkpt>
      <trkpt lat="44.47455" lon="6.8537">
        <ele>2534.6</ele>
        <time>2022-08-16T09:27:48Z</time>
      </trkpt>
      <trkpt lat="44.47457" lon="6.85365">
        <ele>2533.8</ele>
        <time>2022-08-16T09:27:49Z</time>
      </trkpt>
      <trkpt lat="44.47465" lon="6.8535">
        <ele>2532</ele>
        <time>2022-08-16T09:27:52Z</time>
      </trkpt>
      <trkpt lat="44.47468" lon="6.85344">
        <ele>2531.2</ele>
        <time>2022-08-16T09:27:53Z</time>
      </trkpt>
      <trkpt lat="44.47472" lon="6.85338">
        <ele>2530.6</ele>
        <time>2022-08-16T09:27:54Z</time>
      </trkpt>
      <trkpt lat="44.47475" lon="6.85331">
        <ele>2529.8</ele>
        <time>2022-08-16T09:27:55Z</time>
      </trkpt>
      <trkpt lat="44.47481" lon="6.85317">
        <ele>2528.8</ele>
        <time>2022-08-16T09:27:57Z</time>
      </trkpt>
      <trkpt lat="44.47486" lon="6.85312">
        <ele>2528.4</ele>
        <time>2022-08-16T09:27:58Z</time>
      </trkpt>
      <trkpt lat="44.4749" lon="6.85305">
        <ele>2528.2</ele>
        <time>2022-08-16T09:27:59Z</time>
      </trkpt>
      <trkpt lat="44.47493" lon="6.85299">
        <ele>2527.8</ele>
        <time>2022-08-16T09:28:00Z</time>
      </trkpt>
      <trkpt lat="44.47495" lon="6.85294">
        <ele>2526.8</ele>
        <time>2022-08-16T09:28:01Z</time>
      </trkpt>
      <trkpt lat="44.47497" lon="6.85288">
        <ele>2525.4</ele>
        <time>2022-08-16T09:28:02Z</time>
      </trkpt>
      <trkpt lat="44.47503" lon="6.85277">
        <ele>2523.6</ele>
        <time>2022-08-16T09:28:04Z</time>
      </trkpt>
      <trkpt lat="44.47504" lon="6.85271">
        <ele>2522.8</ele>
        <time>2022-08-16T09:28:05Z</time>
      </trkpt>
      <trkpt lat="44.47505" lon="6.85266">
        <ele>2522.4</ele>
        <time>2022-08-16T09:28:06Z</time>
      </trkpt>
      <trkpt lat="44.47505" lon="6.8526">
        <ele>2522</ele>
        <time>2022-08-16T09:28:07Z</time>
      </trkpt>
      <trkpt lat="44.47505" lon="6.85255">
        <ele>2521.8</ele>
        <time>2022-08-16T09:28:08Z</time>
      </trkpt>
      <trkpt lat="44.47505" lon="6.8525">
        <ele>2520.4</ele>
        <time>2022-08-16T09:28:09Z</time>
      </trkpt>
      <trkpt lat="44.47506" lon="6.85246">
        <ele>2519.8</ele>
        <time>2022-08-16T09:28:10Z</time>
      </trkpt>
      <trkpt lat="44.47508" lon="6.85243">
        <ele>2519.4</ele>
        <time>2022-08-16T09:28:11Z</time>
      </trkpt>
      <trkpt lat="44.47509" lon="6.8524">
        <ele>2519.4</ele>
        <time>2022-08-16T09:28:12Z</time>
      </trkpt>
      <trkpt lat="44.47511" lon="6.85236">
        <ele>2519</ele>
        <time>2022-08-16T09:28:13Z</time>
      </trkpt>
      <trkpt lat="44.47511" lon="6.85233">
        <ele>2519</ele>
        <time>2022-08-16T09:28:14Z</time>
      </trkpt>
      <trkpt lat="44.47511" lon="6.85229">
        <ele>2518.8</ele>
        <time>2022-08-16T09:28:15Z</time>
      </trkpt>
      <trkpt lat="44.4751" lon="6.85224">
        <ele>2518.8</ele>
        <time>2022-08-16T09:28:16Z</time>
      </trkpt>
      <trkpt lat="44.4751" lon="6.8522">
        <ele>2518.6</ele>
        <time>2022-08-16T09:28:17Z</time>
      </trkpt>
      <trkpt lat="44.47511" lon="6.85216">
        <ele>2518.6</ele>
        <time>2022-08-16T09:28:18Z</time>
      </trkpt>
      <trkpt lat="44.47512" lon="6.85212">
        <ele>2518.6</ele>
        <time>2022-08-16T09:28:19Z</time>
      </trkpt>
      <trkpt lat="44.47513" lon="6.85208">
        <ele>2518.6</ele>
        <time>2022-08-16T09:28:20Z</time>
      </trkpt>
      <trkpt lat="44.47515" lon="6.85203">
        <ele>2518.4</ele>
        <time>2022-08-16T09:28:21Z</time>
      </trkpt>
      <trkpt lat="44.47517" lon="6.85197">
        <ele>2518.2</ele>
        <time>2022-08-16T09:28:22Z</time>
      </trkpt>
      <trkpt lat="44.47517" lon="6.8519">
        <ele>2518.2</ele>
        <time>2022-08-16T09:28:23Z</time>
      </trkpt>
      <trkpt lat="44.47517" lon="6.85184">
        <ele>2518.2</ele>
        <time>2022-08-16T09:28:24Z</time>
      </trkpt>
      <trkpt lat="44.47515" lon="6.85177">
        <ele>2518.2</ele>
        <time>2022-08-16T09:28:25Z</time>
      </trkpt>
      <trkpt lat="44.47513" lon="6.85171">
        <ele>2518.2</ele>
        <time>2022-08-16T09:28:26Z</time>
      </trkpt>
      <trkpt lat="44.4751" lon="6.85163">
        <ele>2518.2</ele>
        <time>2022-08-16T09:28:27Z</time>
      </trkpt>
      <trkpt lat="44.47506" lon="6.85156">
        <ele>2518</ele>
        <time>2022-08-16T09:28:28Z</time>
      </trkpt>
      <trkpt lat="44.47503" lon="6.85151">
        <ele>2518</ele>
        <time>2022-08-16T09:28:29Z</time>
      </trkpt>
      <trkpt lat="44.47501" lon="6.85147">
        <ele>2517.4</ele>
        <time>2022-08-16T09:28:30Z</time>
      </trkpt>
      <trkpt lat="44.47499" lon="6.85145">
        <ele>2516.4</ele>
        <time>2022-08-16T09:28:31Z</time>
      </trkpt>
      <trkpt lat="44.47498" lon="6.85144">
        <ele>2515.2</ele>
        <time>2022-08-16T09:28:32Z</time>
      </trkpt>
      <trkpt lat="44.47497" lon="6.85142">
        <ele>2514.4</ele>
        <time>2022-08-16T09:28:33Z</time>
      </trkpt>
      <trkpt lat="44.47491" lon="6.85133">
        <ele>2512.6</ele>
        <time>2022-08-16T09:28:36Z</time>
      </trkpt>
      <trkpt lat="44.47488" lon="6.85128">
        <ele>2511.6</ele>
        <time>2022-08-16T09:28:37Z</time>
      </trkpt>
      <trkpt lat="44.47485" lon="6.85124">
        <ele>2510.8</ele>
        <time>2022-08-16T09:28:38Z</time>
      </trkpt>
      <trkpt lat="44.47483" lon="6.8512">
        <ele>2509.6</ele>
        <time>2022-08-16T09:28:39Z</time>
      </trkpt>
      <trkpt lat="44.47482" lon="6.85116">
        <ele>2509</ele>
        <time>2022-08-16T09:28:40Z</time>
      </trkpt>
      <trkpt lat="44.4748" lon="6.85113">
        <ele>2508.4</ele>
        <time>2022-08-16T09:28:41Z</time>
      </trkpt>
      <trkpt lat="44.47479" lon="6.85109">
        <ele>2507.8</ele>
        <time>2022-08-16T09:28:42Z</time>
      </trkpt>
      <trkpt lat="44.47478" lon="6.85106">
        <ele>2507.4</ele>
        <time>2022-08-16T09:28:43Z</time>
      </trkpt>
      <trkpt lat="44.47477" lon="6.85103">
        <ele>2507</ele>
        <time>2022-08-16T09:28:44Z</time>
      </trkpt>
      <trkpt lat="44.47476" lon="6.85101">
        <ele>2506.6</ele>
        <time>2022-08-16T09:28:45Z</time>
      </trkpt>
      <trkpt lat="44.47476" lon="6.85098">
        <ele>2505.6</ele>
        <time>2022-08-16T09:28:46Z</time>
      </trkpt>
      <trkpt lat="44.47475" lon="6.85097">
        <ele>2504.2</ele>
        <time>2022-08-16T09:28:47Z</time>
      </trkpt>
      <trkpt lat="44.47474" lon="6.85096">
        <ele>2502.6</ele>
        <time>2022-08-16T09:28:48Z</time>
      </trkpt>
      <trkpt lat="44.47474" lon="6.85097">
        <ele>2501.8</ele>
        <time>2022-08-16T09:28:49Z</time>
      </trkpt>
      <trkpt lat="44.47473" lon="6.85098">
        <ele>2501.4</ele>
        <time>2022-08-16T09:28:50Z</time>
      </trkpt>
      <trkpt lat="44.47473" lon="6.85103">
        <ele>2500.8</ele>
        <time>2022-08-16T09:28:52Z</time>
      </trkpt>
      <trkpt lat="44.47473" lon="6.85108">
        <ele>2500.6</ele>
        <time>2022-08-16T09:28:53Z</time>
      </trkpt>
      <trkpt lat="44.47473" lon="6.85112">
        <ele>2500.4</ele>
        <time>2022-08-16T09:28:54Z</time>
      </trkpt>
      <trkpt lat="44.47473" lon="6.85117">
        <ele>2500</ele>
        <time>2022-08-16T09:28:55Z</time>
      </trkpt>
      <trkpt lat="44.47474" lon="6.85127">
        <ele>2499.4</ele>
        <time>2022-08-16T09:28:57Z</time>
      </trkpt>
      <trkpt lat="44.47475" lon="6.85132">
        <ele>2499.4</ele>
        <time>2022-08-16T09:28:58Z</time>
      </trkpt>
      <trkpt lat="44.47476" lon="6.85136">
        <ele>2498.8</ele>
        <time>2022-08-16T09:28:59Z</time>
      </trkpt>
      <trkpt lat="44.47479" lon="6.8515">
        <ele>2497.4</ele>
        <time>2022-08-16T09:29:02Z</time>
      </trkpt>
      <trkpt lat="44.4748" lon="6.85154">
        <ele>2496.6</ele>
        <time>2022-08-16T09:29:03Z</time>
      </trkpt>
      <trkpt lat="44.4748" lon="6.85157">
        <ele>2495.6</ele>
        <time>2022-08-16T09:29:04Z</time>
      </trkpt>
      <trkpt lat="44.47479" lon="6.85158">
        <ele>2495.2</ele>
        <time>2022-08-16T09:29:05Z</time>
      </trkpt>
      <trkpt lat="44.47476" lon="6.85156">
        <ele>2494.6</ele>
        <time>2022-08-16T09:29:07Z</time>
      </trkpt>
      <trkpt lat="44.47475" lon="6.85153">
        <ele>2494.4</ele>
        <time>2022-08-16T09:29:08Z</time>
      </trkpt>
      <trkpt lat="44.47471" lon="6.85146">
        <ele>2493.6</ele>
        <time>2022-08-16T09:29:10Z</time>
      </trkpt>
      <trkpt lat="44.4747" lon="6.85142">
        <ele>2493.4</ele>
        <time>2022-08-16T09:29:11Z</time>
      </trkpt>
      <trkpt lat="44.47468" lon="6.85138">
        <ele>2493</ele>
        <time>2022-08-16T09:29:12Z</time>
      </trkpt>
      <trkpt lat="44.47466" lon="6.85134">
        <ele>2493</ele>
        <time>2022-08-16T09:29:13Z</time>
      </trkpt>
      <trkpt lat="44.47462" lon="6.85125">
        <ele>2492.4</ele>
        <time>2022-08-16T09:29:15Z</time>
      </trkpt>
      <trkpt lat="44.4746" lon="6.85121">
        <ele>2491.8</ele>
        <time>2022-08-16T09:29:16Z</time>
      </trkpt>
      <trkpt lat="44.47458" lon="6.85117">
        <ele>2491</ele>
        <time>2022-08-16T09:29:17Z</time>
      </trkpt>
      <trkpt lat="44.47457" lon="6.85114">
        <ele>2490.6</ele>
        <time>2022-08-16T09:29:18Z</time>
      </trkpt>
      <trkpt lat="44.47455" lon="6.85111">
        <ele>2490.2</ele>
        <time>2022-08-16T09:29:19Z</time>
      </trkpt>
      <trkpt lat="44.47451" lon="6.85099">
        <ele>2489</ele>
        <time>2022-08-16T09:29:22Z</time>
      </trkpt>
      <trkpt lat="44.4745" lon="6.85095">
        <ele>2488.2</ele>
        <time>2022-08-16T09:29:23Z</time>
      </trkpt>
      <trkpt lat="44.4745" lon="6.85093">
        <ele>2487.4</ele>
        <time>2022-08-16T09:29:24Z</time>
      </trkpt>
      <trkpt lat="44.47449" lon="6.85091">
        <ele>2486.6</ele>
        <time>2022-08-16T09:29:25Z</time>
      </trkpt>
      <trkpt lat="44.47448" lon="6.8509">
        <ele>2485.6</ele>
        <time>2022-08-16T09:29:26Z</time>
      </trkpt>
      <trkpt lat="44.47448" lon="6.8509">
        <ele>2484.4</ele>
        <time>2022-08-16T09:29:28Z</time>
      </trkpt>
      <trkpt lat="44.47447" lon="6.85094">
        <ele>2482</ele>
        <time>2022-08-16T09:29:31Z</time>
      </trkpt>
      <trkpt lat="44.47447" lon="6.85096">
        <ele>2481.4</ele>
        <time>2022-08-16T09:29:32Z</time>
      </trkpt>
      <trkpt lat="44.47447" lon="6.851">
        <ele>2480.8</ele>
        <time>2022-08-16T09:29:33Z</time>
      </trkpt>
      <trkpt lat="44.47446" lon="6.85107">
        <ele>2479.6</ele>
        <time>2022-08-16T09:29:35Z</time>
      </trkpt>
      <trkpt lat="44.47446" lon="6.8511">
        <ele>2479.2</ele>
        <time>2022-08-16T09:29:36Z</time>
      </trkpt>
      <trkpt lat="44.47447" lon="6.85122">
        <ele>2478.4</ele>
        <time>2022-08-16T09:29:39Z</time>
      </trkpt>
      <trkpt lat="44.47446" lon="6.85133">
        <ele>2477.4</ele>
        <time>2022-08-16T09:29:41Z</time>
      </trkpt>
      <trkpt lat="44.47444" lon="6.85146">
        <ele>2476.8</ele>
        <time>2022-08-16T09:29:43Z</time>
      </trkpt>
      <trkpt lat="44.47444" lon="6.85151">
        <ele>2476.4</ele>
        <time>2022-08-16T09:29:44Z</time>
      </trkpt>
      <trkpt lat="44.47443" lon="6.85155">
        <ele>2475.8</ele>
        <time>2022-08-16T09:29:45Z</time>
      </trkpt>
      <trkpt lat="44.47443" lon="6.85158">
        <ele>2475.2</ele>
        <time>2022-08-16T09:29:46Z</time>
      </trkpt>
      <trkpt lat="44.47442" lon="6.85159">
        <ele>2474.8</ele>
        <time>2022-08-16T09:29:47Z</time>
      </trkpt>
      <trkpt lat="44.47442" lon="6.85159">
        <ele>2474.6</ele>
        <time>2022-08-16T09:29:48Z</time>
      </trkpt>
      <trkpt lat="44.47438" lon="6.85155">
        <ele>2473.6</ele>
        <time>2022-08-16T09:29:50Z</time>
      </trkpt>
      <trkpt lat="44.47437" lon="6.85151">
        <ele>2472.8</ele>
        <time>2022-08-16T09:29:51Z</time>
      </trkpt>
      <trkpt lat="44.47433" lon="6.85143">
        <ele>2471.2</ele>
        <time>2022-08-16T09:29:53Z</time>
      </trkpt>
      <trkpt lat="44.47431" lon="6.85137">
        <ele>2470.2</ele>
        <time>2022-08-16T09:29:54Z</time>
      </trkpt>
      <trkpt lat="44.47428" lon="6.85131">
        <ele>2469.6</ele>
        <time>2022-08-16T09:29:55Z</time>
      </trkpt>
      <trkpt lat="44.47426" lon="6.85125">
        <ele>2469.4</ele>
        <time>2022-08-16T09:29:56Z</time>
      </trkpt>
      <trkpt lat="44.47424" lon="6.8512">
        <ele>2468.8</ele>
        <time>2022-08-16T09:29:57Z</time>
      </trkpt>
      <trkpt lat="44.47422" lon="6.85115">
        <ele>2468.2</ele>
        <time>2022-08-16T09:29:58Z</time>
      </trkpt>
      <trkpt lat="44.4742" lon="6.8511">
        <ele>2467.6</ele>
        <time>2022-08-16T09:29:59Z</time>
      </trkpt>
      <trkpt lat="44.47417" lon="6.85098">
        <ele>2465.4</ele>
        <time>2022-08-16T09:30:01Z</time>
      </trkpt>
      <trkpt lat="44.47415" lon="6.85094">
        <ele>2463.8</ele>
        <time>2022-08-16T09:30:02Z</time>
      </trkpt>
      <trkpt lat="44.47413" lon="6.8509">
        <ele>2463.2</ele>
        <time>2022-08-16T09:30:03Z</time>
      </trkpt>
      <trkpt lat="44.47412" lon="6.85086">
        <ele>2463.2</ele>
        <time>2022-08-16T09:30:04Z</time>
      </trkpt>
      <trkpt lat="44.47411" lon="6.85083">
        <ele>2462.2</ele>
        <time>2022-08-16T09:30:05Z</time>
      </trkpt>
      <trkpt lat="44.4741" lon="6.8508">
        <ele>2460.6</ele>
        <time>2022-08-16T09:30:06Z</time>
      </trkpt>
      <trkpt lat="44.47409" lon="6.85076">
        <ele>2459.2</ele>
        <time>2022-08-16T09:30:07Z</time>
      </trkpt>
      <trkpt lat="44.47408" lon="6.85071">
        <ele>2458</ele>
        <time>2022-08-16T09:30:08Z</time>
      </trkpt>
      <trkpt lat="44.47408" lon="6.85062">
        <ele>2456.8</ele>
        <time>2022-08-16T09:30:10Z</time>
      </trkpt>
      <trkpt lat="44.47408" lon="6.85057">
        <ele>2456.4</ele>
        <time>2022-08-16T09:30:11Z</time>
      </trkpt>
      <trkpt lat="44.47408" lon="6.85053">
        <ele>2456</ele>
        <time>2022-08-16T09:30:12Z</time>
      </trkpt>
      <trkpt lat="44.47407" lon="6.85047">
        <ele>2455.4</ele>
        <time>2022-08-16T09:30:13Z</time>
      </trkpt>
      <trkpt lat="44.47406" lon="6.85041">
        <ele>2454.4</ele>
        <time>2022-08-16T09:30:14Z</time>
      </trkpt>
      <trkpt lat="44.47404" lon="6.85029">
        <ele>2452.4</ele>
        <time>2022-08-16T09:30:16Z</time>
      </trkpt>
      <trkpt lat="44.47402" lon="6.85023">
        <ele>2451.6</ele>
        <time>2022-08-16T09:30:17Z</time>
      </trkpt>
      <trkpt lat="44.474" lon="6.85017">
        <ele>2450.8</ele>
        <time>2022-08-16T09:30:18Z</time>
      </trkpt>
      <trkpt lat="44.47397" lon="6.85012">
        <ele>2449.6</ele>
        <time>2022-08-16T09:30:19Z</time>
      </trkpt>
      <trkpt lat="44.47392" lon="6.85007">
        <ele>2448.8</ele>
        <time>2022-08-16T09:30:20Z</time>
      </trkpt>
      <trkpt lat="44.47388" lon="6.85002">
        <ele>2448.2</ele>
        <time>2022-08-16T09:30:21Z</time>
      </trkpt>
      <trkpt lat="44.47385" lon="6.84999">
        <ele>2447.4</ele>
        <time>2022-08-16T09:30:22Z</time>
      </trkpt>
      <trkpt lat="44.47382" lon="6.84997">
        <ele>2446.2</ele>
        <time>2022-08-16T09:30:23Z</time>
      </trkpt>
      <trkpt lat="44.47381" lon="6.84995">
        <ele>2445.4</ele>
        <time>2022-08-16T09:30:24Z</time>
      </trkpt>
      <trkpt lat="44.47381" lon="6.84994">
        <ele>2440.4</ele>
        <time>2022-08-16T09:30:30Z</time>
      </trkpt>
      <trkpt lat="44.47378" lon="6.8499">
        <ele>2437.8</ele>
        <time>2022-08-16T09:30:35Z</time>
      </trkpt>
      <trkpt lat="44.47375" lon="6.84986">
        <ele>2437.8</ele>
        <time>2022-08-16T09:30:36Z</time>
      </trkpt>
      <trkpt lat="44.47371" lon="6.84981">
        <ele>2437.6</ele>
        <time>2022-08-16T09:30:37Z</time>
      </trkpt>
      <trkpt lat="44.47366" lon="6.84976">
        <ele>2437.4</ele>
        <time>2022-08-16T09:30:38Z</time>
      </trkpt>
      <trkpt lat="44.47362" lon="6.84972">
        <ele>2437.4</ele>
        <time>2022-08-16T09:30:39Z</time>
      </trkpt>
      <trkpt lat="44.47357" lon="6.84968">
        <ele>2437.4</ele>
        <time>2022-08-16T09:30:40Z</time>
      </trkpt>
      <trkpt lat="44.47354" lon="6.84964">
        <ele>2437.4</ele>
        <time>2022-08-16T09:30:41Z</time>
      </trkpt>
      <trkpt lat="44.4735" lon="6.84959">
        <ele>2437.2</ele>
        <time>2022-08-16T09:30:42Z</time>
      </trkpt>
      <trkpt lat="44.47347" lon="6.84955">
        <ele>2437</ele>
        <time>2022-08-16T09:30:43Z</time>
      </trkpt>
      <trkpt lat="44.47345" lon="6.84952">
        <ele>2437</ele>
        <time>2022-08-16T09:30:44Z</time>
      </trkpt>
      <trkpt lat="44.47342" lon="6.84951">
        <ele>2436</ele>
        <time>2022-08-16T09:30:45Z</time>
      </trkpt>
      <trkpt lat="44.47338" lon="6.84952">
        <ele>2435</ele>
        <time>2022-08-16T09:30:46Z</time>
      </trkpt>
      <trkpt lat="44.47334" lon="6.84954">
        <ele>2433.2</ele>
        <time>2022-08-16T09:30:47Z</time>
      </trkpt>
      <trkpt lat="44.47329" lon="6.84956">
        <ele>2433.2</ele>
        <time>2022-08-16T09:30:48Z</time>
      </trkpt>
      <trkpt lat="44.47323" lon="6.84958">
        <ele>2431.4</ele>
        <time>2022-08-16T09:30:49Z</time>
      </trkpt>
      <trkpt lat="44.47317" lon="6.84959">
        <ele>2429.6</ele>
        <time>2022-08-16T09:30:50Z</time>
      </trkpt>
      <trkpt lat="44.4731" lon="6.8496">
        <ele>2428.4</ele>
        <time>2022-08-16T09:30:51Z</time>
      </trkpt>
      <trkpt lat="44.47304" lon="6.84959">
        <ele>2427.2</ele>
        <time>2022-08-16T09:30:52Z</time>
      </trkpt>
      <trkpt lat="44.47299" lon="6.84958">
        <ele>2425.8</ele>
        <time>2022-08-16T09:30:53Z</time>
      </trkpt>
      <trkpt lat="44.47294" lon="6.84957">
        <ele>2425</ele>
        <time>2022-08-16T09:30:54Z</time>
      </trkpt>
      <trkpt lat="44.47291" lon="6.84956">
        <ele>2424.2</ele>
        <time>2022-08-16T09:30:55Z</time>
      </trkpt>
      <trkpt lat="44.47289" lon="6.84952">
        <ele>2422</ele>
        <time>2022-08-16T09:30:56Z</time>
      </trkpt>
      <trkpt lat="44.47287" lon="6.84948">
        <ele>2420.2</ele>
        <time>2022-08-16T09:30:57Z</time>
      </trkpt>
      <trkpt lat="44.47285" lon="6.84937">
        <ele>2416.8</ele>
        <time>2022-08-16T09:30:59Z</time>
      </trkpt>
      <trkpt lat="44.47284" lon="6.84932">
        <ele>2415.4</ele>
        <time>2022-08-16T09:31:00Z</time>
      </trkpt>
      <trkpt lat="44.47282" lon="6.84928">
        <ele>2414.6</ele>
        <time>2022-08-16T09:31:01Z</time>
      </trkpt>
      <trkpt lat="44.4728" lon="6.84926">
        <ele>2413.2</ele>
        <time>2022-08-16T09:31:02Z</time>
      </trkpt>
      <trkpt lat="44.47278" lon="6.84928">
        <ele>2412.4</ele>
        <time>2022-08-16T09:31:03Z</time>
      </trkpt>
      <trkpt lat="44.47275" lon="6.8493">
        <ele>2411.8</ele>
        <time>2022-08-16T09:31:04Z</time>
      </trkpt>
      <trkpt lat="44.47271" lon="6.84934">
        <ele>2410.8</ele>
        <time>2022-08-16T09:31:05Z</time>
      </trkpt>
      <trkpt lat="44.47268" lon="6.84938">
        <ele>2410.2</ele>
        <time>2022-08-16T09:31:06Z</time>
      </trkpt>
      <trkpt lat="44.47265" lon="6.84943">
        <ele>2409.8</ele>
        <time>2022-08-16T09:31:07Z</time>
      </trkpt>
      <trkpt lat="44.47263" lon="6.84947">
        <ele>2409</ele>
        <time>2022-08-16T09:31:08Z</time>
      </trkpt>
      <trkpt lat="44.4726" lon="6.84952">
        <ele>2409</ele>
        <time>2022-08-16T09:31:09Z</time>
      </trkpt>
      <trkpt lat="44.47258" lon="6.84954">
        <ele>2407</ele>
        <time>2022-08-16T09:31:10Z</time>
      </trkpt>
      <trkpt lat="44.47256" lon="6.84954">
        <ele>2406</ele>
        <time>2022-08-16T09:31:11Z</time>
      </trkpt>
      <trkpt lat="44.47255" lon="6.84952">
        <ele>2405</ele>
        <time>2022-08-16T09:31:12Z</time>
      </trkpt>
      <trkpt lat="44.47255" lon="6.84948">
        <ele>2403.6</ele>
        <time>2022-08-16T09:31:13Z</time>
      </trkpt>
      <trkpt lat="44.47253" lon="6.84944">
        <ele>2402.6</ele>
        <time>2022-08-16T09:31:14Z</time>
      </trkpt>
      <trkpt lat="44.47251" lon="6.84941">
        <ele>2401.2</ele>
        <time>2022-08-16T09:31:15Z</time>
      </trkpt>
      <trkpt lat="44.47248" lon="6.84938">
        <ele>2399.4</ele>
        <time>2022-08-16T09:31:16Z</time>
      </trkpt>
      <trkpt lat="44.47244" lon="6.84936">
        <ele>2397.6</ele>
        <time>2022-08-16T09:31:17Z</time>
      </trkpt>
      <trkpt lat="44.47241" lon="6.84933">
        <ele>2396.4</ele>
        <time>2022-08-16T09:31:18Z</time>
      </trkpt>
      <trkpt lat="44.47238" lon="6.8493">
        <ele>2395.6</ele>
        <time>2022-08-16T09:31:19Z</time>
      </trkpt>
      <trkpt lat="44.47235" lon="6.84929">
        <ele>2395</ele>
        <time>2022-08-16T09:31:20Z</time>
      </trkpt>
      <trkpt lat="44.47233" lon="6.84928">
        <ele>2394.4</ele>
        <time>2022-08-16T09:31:21Z</time>
      </trkpt>
      <trkpt lat="44.47231" lon="6.84926">
        <ele>2394</ele>
        <time>2022-08-16T09:31:22Z</time>
      </trkpt>
      <trkpt lat="44.4723" lon="6.84923">
        <ele>2392.8</ele>
        <time>2022-08-16T09:31:23Z</time>
      </trkpt>
      <trkpt lat="44.47229" lon="6.84919">
        <ele>2391.6</ele>
        <time>2022-08-16T09:31:24Z</time>
      </trkpt>
      <trkpt lat="44.47228" lon="6.84914">
        <ele>2390.4</ele>
        <time>2022-08-16T09:31:25Z</time>
      </trkpt>
      <trkpt lat="44.47227" lon="6.8491">
        <ele>2389.6</ele>
        <time>2022-08-16T09:31:26Z</time>
      </trkpt>
      <trkpt lat="44.47225" lon="6.84907">
        <ele>2389</ele>
        <time>2022-08-16T09:31:27Z</time>
      </trkpt>
      <trkpt lat="44.47224" lon="6.84906">
        <ele>2387.6</ele>
        <time>2022-08-16T09:31:28Z</time>
      </trkpt>
      <trkpt lat="44.47223" lon="6.84905">
        <ele>2385.4</ele>
        <time>2022-08-16T09:31:31Z</time>
      </trkpt>
      <trkpt lat="44.47221" lon="6.84903">
        <ele>2384.4</ele>
        <time>2022-08-16T09:31:32Z</time>
      </trkpt>
      <trkpt lat="44.47218" lon="6.84902">
        <ele>2383.6</ele>
        <time>2022-08-16T09:31:33Z</time>
      </trkpt>
      <trkpt lat="44.47216" lon="6.84901">
        <ele>2383</ele>
        <time>2022-08-16T09:31:34Z</time>
      </trkpt>
      <trkpt lat="44.47213" lon="6.849">
        <ele>2381.8</ele>
        <time>2022-08-16T09:31:35Z</time>
      </trkpt>
      <trkpt lat="44.47211" lon="6.84897">
        <ele>2380.2</ele>
        <time>2022-08-16T09:31:36Z</time>
      </trkpt>
      <trkpt lat="44.47208" lon="6.84895">
        <ele>2379</ele>
        <time>2022-08-16T09:31:37Z</time>
      </trkpt>
      <trkpt lat="44.47205" lon="6.84892">
        <ele>2378.2</ele>
        <time>2022-08-16T09:31:38Z</time>
      </trkpt>
      <trkpt lat="44.47203" lon="6.84889">
        <ele>2377.6</ele>
        <time>2022-08-16T09:31:39Z</time>
      </trkpt>
      <trkpt lat="44.47201" lon="6.84887">
        <ele>2377.2</ele>
        <time>2022-08-16T09:31:40Z</time>
      </trkpt>
      <trkpt lat="44.47198" lon="6.84884">
        <ele>2377</ele>
        <time>2022-08-16T09:31:41Z</time>
      </trkpt>
      <trkpt lat="44.47196" lon="6.84882">
        <ele>2376.8</ele>
        <time>2022-08-16T09:31:42Z</time>
      </trkpt>
      <trkpt lat="44.47194" lon="6.84881">
        <ele>2376</ele>
        <time>2022-08-16T09:31:43Z</time>
      </trkpt>
      <trkpt lat="44.47192" lon="6.8488">
        <ele>2374.4</ele>
        <time>2022-08-16T09:31:44Z</time>
      </trkpt>
      <trkpt lat="44.4719" lon="6.84879">
        <ele>2373.2</ele>
        <time>2022-08-16T09:31:45Z</time>
      </trkpt>
      <trkpt lat="44.47188" lon="6.84879">
        <ele>2372.2</ele>
        <time>2022-08-16T09:31:46Z</time>
      </trkpt>
      <trkpt lat="44.47188" lon="6.84879">
        <ele>2371.2</ele>
        <time>2022-08-16T09:31:47Z</time>
      </trkpt>
      <trkpt lat="44.47188" lon="6.8488">
        <ele>2369.6</ele>
        <time>2022-08-16T09:31:48Z</time>
      </trkpt>
      <trkpt lat="44.47189" lon="6.84882">
        <ele>2367.6</ele>
        <time>2022-08-16T09:31:49Z</time>
      </trkpt>
      <trkpt lat="44.4719" lon="6.84885">
        <ele>2366</ele>
        <time>2022-08-16T09:31:50Z</time>
      </trkpt>
      <trkpt lat="44.4719" lon="6.8489">
        <ele>2363.4</ele>
        <time>2022-08-16T09:31:52Z</time>
      </trkpt>
      <trkpt lat="44.47189" lon="6.84891">
        <ele>2363.4</ele>
        <time>2022-08-16T09:31:53Z</time>
      </trkpt>
      <trkpt lat="44.47185" lon="6.84889">
        <ele>2361.2</ele>
        <time>2022-08-16T09:31:55Z</time>
      </trkpt>
      <trkpt lat="44.47182" lon="6.84888">
        <ele>2360.4</ele>
        <time>2022-08-16T09:31:56Z</time>
      </trkpt>
      <trkpt lat="44.4718" lon="6.84888">
        <ele>2359.6</ele>
        <time>2022-08-16T09:31:57Z</time>
      </trkpt>
      <trkpt lat="44.47179" lon="6.8489">
        <ele>2359.2</ele>
        <time>2022-08-16T09:31:58Z</time>
      </trkpt>
      <trkpt lat="44.47179" lon="6.84892">
        <ele>2358.8</ele>
        <time>2022-08-16T09:31:59Z</time>
      </trkpt>
      <trkpt lat="44.47178" lon="6.84894">
        <ele>2358</ele>
        <time>2022-08-16T09:32:00Z</time>
      </trkpt>
      <trkpt lat="44.47175" lon="6.84895">
        <ele>2357</ele>
        <time>2022-08-16T09:32:01Z</time>
      </trkpt>
      <trkpt lat="44.47173" lon="6.84896">
        <ele>2356.6</ele>
        <time>2022-08-16T09:32:02Z</time>
      </trkpt>
      <trkpt lat="44.4717" lon="6.84899">
        <ele>2356.4</ele>
        <time>2022-08-16T09:32:03Z</time>
      </trkpt>
      <trkpt lat="44.47166" lon="6.84903">
        <ele>2355.8</ele>
        <time>2022-08-16T09:32:04Z</time>
      </trkpt>
      <trkpt lat="44.47162" lon="6.84909">
        <ele>2354.8</ele>
        <time>2022-08-16T09:32:05Z</time>
      </trkpt>
      <trkpt lat="44.47158" lon="6.84913">
        <ele>2353.8</ele>
        <time>2022-08-16T09:32:06Z</time>
      </trkpt>
      <trkpt lat="44.47156" lon="6.84917">
        <ele>2352.8</ele>
        <time>2022-08-16T09:32:07Z</time>
      </trkpt>
      <trkpt lat="44.47155" lon="6.84919">
        <ele>2352.2</ele>
        <time>2022-08-16T09:32:08Z</time>
      </trkpt>
      <trkpt lat="44.47154" lon="6.84921">
        <ele>2351.6</ele>
        <time>2022-08-16T09:32:09Z</time>
      </trkpt>
      <trkpt lat="44.47152" lon="6.84926">
        <ele>2349.2</ele>
        <time>2022-08-16T09:32:11Z</time>
      </trkpt>
      <trkpt lat="44.4715" lon="6.84929">
        <ele>2348</ele>
        <time>2022-08-16T09:32:12Z</time>
      </trkpt>
      <trkpt lat="44.47149" lon="6.84934">
        <ele>2346.6</ele>
        <time>2022-08-16T09:32:13Z</time>
      </trkpt>
      <trkpt lat="44.47147" lon="6.84939">
        <ele>2345</ele>
        <time>2022-08-16T09:32:14Z</time>
      </trkpt>
      <trkpt lat="44.47141" lon="6.84946">
        <ele>2344</ele>
        <time>2022-08-16T09:32:16Z</time>
      </trkpt>
      <trkpt lat="44.47138" lon="6.84949">
        <ele>2343.4</ele>
        <time>2022-08-16T09:32:17Z</time>
      </trkpt>
      <trkpt lat="44.47136" lon="6.84951">
        <ele>2343.2</ele>
        <time>2022-08-16T09:32:18Z</time>
      </trkpt>
      <trkpt lat="44.47133" lon="6.84953">
        <ele>2343</ele>
        <time>2022-08-16T09:32:19Z</time>
      </trkpt>
      <trkpt lat="44.47132" lon="6.84956">
        <ele>2342.8</ele>
        <time>2022-08-16T09:32:20Z</time>
      </trkpt>
      <trkpt lat="44.4713" lon="6.84959">
        <ele>2342</ele>
        <time>2022-08-16T09:32:21Z</time>
      </trkpt>
      <trkpt lat="44.47129" lon="6.84964">
        <ele>2341.6</ele>
        <time>2022-08-16T09:32:22Z</time>
      </trkpt>
      <trkpt lat="44.47128" lon="6.84969">
        <ele>2340.6</ele>
        <time>2022-08-16T09:32:23Z</time>
      </trkpt>
      <trkpt lat="44.47128" lon="6.84974">
        <ele>2339.4</ele>
        <time>2022-08-16T09:32:24Z</time>
      </trkpt>
      <trkpt lat="44.47127" lon="6.84978">
        <ele>2337.4</ele>
        <time>2022-08-16T09:32:25Z</time>
      </trkpt>
      <trkpt lat="44.47125" lon="6.84982">
        <ele>2335.8</ele>
        <time>2022-08-16T09:32:26Z</time>
      </trkpt>
      <trkpt lat="44.47123" lon="6.84984">
        <ele>2334.8</ele>
        <time>2022-08-16T09:32:27Z</time>
      </trkpt>
      <trkpt lat="44.47121" lon="6.84986">
        <ele>2333.8</ele>
        <time>2022-08-16T09:32:28Z</time>
      </trkpt>
      <trkpt lat="44.47119" lon="6.84987">
        <ele>2332.6</ele>
        <time>2022-08-16T09:32:29Z</time>
      </trkpt>
      <trkpt lat="44.47118" lon="6.84989">
        <ele>2331.6</ele>
        <time>2022-08-16T09:32:30Z</time>
      </trkpt>
      <trkpt lat="44.47117" lon="6.8499">
        <ele>2330.4</ele>
        <time>2022-08-16T09:32:31Z</time>
      </trkpt>
      <trkpt lat="44.47115" lon="6.84993">
        <ele>2329.4</ele>
        <time>2022-08-16T09:32:32Z</time>
      </trkpt>
      <trkpt lat="44.47113" lon="6.84996">
        <ele>2327.8</ele>
        <time>2022-08-16T09:32:33Z</time>
      </trkpt>
      <trkpt lat="44.4711" lon="6.84999">
        <ele>2326.2</ele>
        <time>2022-08-16T09:32:34Z</time>
      </trkpt>
      <trkpt lat="44.47106" lon="6.85003">
        <ele>2324.6</ele>
        <time>2022-08-16T09:32:35Z</time>
      </trkpt>
      <trkpt lat="44.47103" lon="6.85008">
        <ele>2323.6</ele>
        <time>2022-08-16T09:32:36Z</time>
      </trkpt>
      <trkpt lat="44.471" lon="6.85012">
        <ele>2323.6</ele>
        <time>2022-08-16T09:32:37Z</time>
      </trkpt>
      <trkpt lat="44.47095" lon="6.85014">
        <ele>2322.4</ele>
        <time>2022-08-16T09:32:38Z</time>
      </trkpt>
      <trkpt lat="44.47085" lon="6.85018">
        <ele>2321</ele>
        <time>2022-08-16T09:32:40Z</time>
      </trkpt>
      <trkpt lat="44.4708" lon="6.8502">
        <ele>2320.4</ele>
        <time>2022-08-16T09:32:41Z</time>
      </trkpt>
      <trkpt lat="44.47076" lon="6.8502">
        <ele>2319.4</ele>
        <time>2022-08-16T09:32:42Z</time>
      </trkpt>
      <trkpt lat="44.47072" lon="6.85018">
        <ele>2318.2</ele>
        <time>2022-08-16T09:32:43Z</time>
      </trkpt>
      <trkpt lat="44.47068" lon="6.85017">
        <ele>2317.2</ele>
        <time>2022-08-16T09:32:44Z</time>
      </trkpt>
      <trkpt lat="44.47065" lon="6.85019">
        <ele>2315.2</ele>
        <time>2022-08-16T09:32:45Z</time>
      </trkpt>
      <trkpt lat="44.47062" lon="6.85021">
        <ele>2313.4</ele>
        <time>2022-08-16T09:32:46Z</time>
      </trkpt>
      <trkpt lat="44.4706" lon="6.85026">
        <ele>2312.4</ele>
        <time>2022-08-16T09:32:47Z</time>
      </trkpt>
      <trkpt lat="44.47057" lon="6.8503">
        <ele>2312</ele>
        <time>2022-08-16T09:32:48Z</time>
      </trkpt>
      <trkpt lat="44.47054" lon="6.85033">
        <ele>2311.4</ele>
        <time>2022-08-16T09:32:49Z</time>
      </trkpt>
      <trkpt lat="44.47051" lon="6.85034">
        <ele>2310.8</ele>
        <time>2022-08-16T09:32:50Z</time>
      </trkpt>
      <trkpt lat="44.47047" lon="6.85035">
        <ele>2310</ele>
        <time>2022-08-16T09:32:51Z</time>
      </trkpt>
      <trkpt lat="44.47043" lon="6.85036">
        <ele>2308.6</ele>
        <time>2022-08-16T09:32:52Z</time>
      </trkpt>
      <trkpt lat="44.47039" lon="6.85037">
        <ele>2307.2</ele>
        <time>2022-08-16T09:32:53Z</time>
      </trkpt>
      <trkpt lat="44.47035" lon="6.85037">
        <ele>2306.2</ele>
        <time>2022-08-16T09:32:54Z</time>
      </trkpt>
      <trkpt lat="44.4703" lon="6.85037">
        <ele>2305.2</ele>
        <time>2022-08-16T09:32:55Z</time>
      </trkpt>
      <trkpt lat="44.47027" lon="6.85038">
        <ele>2304.8</ele>
        <time>2022-08-16T09:32:56Z</time>
      </trkpt>
      <trkpt lat="44.47024" lon="6.8504">
        <ele>2303.2</ele>
        <time>2022-08-16T09:32:57Z</time>
      </trkpt>
      <trkpt lat="44.47022" lon="6.85042">
        <ele>2301.4</ele>
        <time>2022-08-16T09:32:58Z</time>
      </trkpt>
      <trkpt lat="44.4702" lon="6.85042">
        <ele>2300</ele>
        <time>2022-08-16T09:32:59Z</time>
      </trkpt>
      <trkpt lat="44.47013" lon="6.85042">
        <ele>2299</ele>
        <time>2022-08-16T09:33:01Z</time>
      </trkpt>
      <trkpt lat="44.47009" lon="6.85043">
        <ele>2298.4</ele>
        <time>2022-08-16T09:33:02Z</time>
      </trkpt>
      <trkpt lat="44.47005" lon="6.85045">
        <ele>2297.8</ele>
        <time>2022-08-16T09:33:03Z</time>
      </trkpt>
      <trkpt lat="44.47001" lon="6.85046">
        <ele>2297.2</ele>
        <time>2022-08-16T09:33:04Z</time>
      </trkpt>
      <trkpt lat="44.46997" lon="6.85046">
        <ele>2297</ele>
        <time>2022-08-16T09:33:05Z</time>
      </trkpt>
      <trkpt lat="44.46993" lon="6.85047">
        <ele>2296.8</ele>
        <time>2022-08-16T09:33:06Z</time>
      </trkpt>
      <trkpt lat="44.46989" lon="6.85048">
        <ele>2296.4</ele>
        <time>2022-08-16T09:33:07Z</time>
      </trkpt>
      <trkpt lat="44.46982" lon="6.85053">
        <ele>2296.2</ele>
        <time>2022-08-16T09:33:09Z</time>
      </trkpt>
      <trkpt lat="44.46979" lon="6.85055">
        <ele>2296</ele>
        <time>2022-08-16T09:33:10Z</time>
      </trkpt>
      <trkpt lat="44.46976" lon="6.85056">
        <ele>2295.4</ele>
        <time>2022-08-16T09:33:11Z</time>
      </trkpt>
      <trkpt lat="44.46973" lon="6.85057">
        <ele>2294.8</ele>
        <time>2022-08-16T09:33:12Z</time>
      </trkpt>
      <trkpt lat="44.4697" lon="6.85057">
        <ele>2294</ele>
        <time>2022-08-16T09:33:13Z</time>
      </trkpt>
      <trkpt lat="44.46967" lon="6.85057">
        <ele>2293.6</ele>
        <time>2022-08-16T09:33:14Z</time>
      </trkpt>
      <trkpt lat="44.46962" lon="6.85057">
        <ele>2293.2</ele>
        <time>2022-08-16T09:33:15Z</time>
      </trkpt>
      <trkpt lat="44.46952" lon="6.85059">
        <ele>2292.6</ele>
        <time>2022-08-16T09:33:17Z</time>
      </trkpt>
      <trkpt lat="44.46946" lon="6.8506">
        <ele>2292.4</ele>
        <time>2022-08-16T09:33:18Z</time>
      </trkpt>
      <trkpt lat="44.46941" lon="6.8506">
        <ele>2292.4</ele>
        <time>2022-08-16T09:33:19Z</time>
      </trkpt>
      <trkpt lat="44.46937" lon="6.85059">
        <ele>2292.2</ele>
        <time>2022-08-16T09:33:20Z</time>
      </trkpt>
      <trkpt lat="44.46933" lon="6.85057">
        <ele>2291.6</ele>
        <time>2022-08-16T09:33:21Z</time>
      </trkpt>
      <trkpt lat="44.4693" lon="6.85054">
        <ele>2291.6</ele>
        <time>2022-08-16T09:33:22Z</time>
      </trkpt>
      <trkpt lat="44.46925" lon="6.85054">
        <ele>2291</ele>
        <time>2022-08-16T09:33:23Z</time>
      </trkpt>
      <trkpt lat="44.4692" lon="6.85055">
        <ele>2290.6</ele>
        <time>2022-08-16T09:33:24Z</time>
      </trkpt>
      <trkpt lat="44.46914" lon="6.85058">
        <ele>2290.2</ele>
        <time>2022-08-16T09:33:25Z</time>
      </trkpt>
      <trkpt lat="44.46908" lon="6.85058">
        <ele>2290</ele>
        <time>2022-08-16T09:33:26Z</time>
      </trkpt>
      <trkpt lat="44.46895" lon="6.85055">
        <ele>2288</ele>
        <time>2022-08-16T09:33:28Z</time>
      </trkpt>
      <trkpt lat="44.4689" lon="6.85052">
        <ele>2287.4</ele>
        <time>2022-08-16T09:33:29Z</time>
      </trkpt>
      <trkpt lat="44.46884" lon="6.85049">
        <ele>2286.8</ele>
        <time>2022-08-16T09:33:30Z</time>
      </trkpt>
      <trkpt lat="44.46877" lon="6.85047">
        <ele>2285.4</ele>
        <time>2022-08-16T09:33:31Z</time>
      </trkpt>
      <trkpt lat="44.4687" lon="6.85045">
        <ele>2284.4</ele>
        <time>2022-08-16T09:33:32Z</time>
      </trkpt>
      <trkpt lat="44.46863" lon="6.85043">
        <ele>2282.8</ele>
        <time>2022-08-16T09:33:33Z</time>
      </trkpt>
      <trkpt lat="44.46856" lon="6.85043">
        <ele>2281.2</ele>
        <time>2022-08-16T09:33:34Z</time>
      </trkpt>
      <trkpt lat="44.4685" lon="6.85041">
        <ele>2279.6</ele>
        <time>2022-08-16T09:33:35Z</time>
      </trkpt>
      <trkpt lat="44.46844" lon="6.85038">
        <ele>2278.6</ele>
        <time>2022-08-16T09:33:36Z</time>
      </trkpt>
      <trkpt lat="44.46838" lon="6.85035">
        <ele>2276.6</ele>
        <time>2022-08-16T09:33:37Z</time>
      </trkpt>
      <trkpt lat="44.46833" lon="6.85032">
        <ele>2274.6</ele>
        <time>2022-08-16T09:33:38Z</time>
      </trkpt>
      <trkpt lat="44.46828" lon="6.85031">
        <ele>2273.4</ele>
        <time>2022-08-16T09:33:39Z</time>
      </trkpt>
      <trkpt lat="44.46822" lon="6.8503">
        <ele>2270.6</ele>
        <time>2022-08-16T09:33:40Z</time>
      </trkpt>
      <trkpt lat="44.46816" lon="6.8503">
        <ele>2267.8</ele>
        <time>2022-08-16T09:33:41Z</time>
      </trkpt>
      <trkpt lat="44.46811" lon="6.85027">
        <ele>2266.6</ele>
        <time>2022-08-16T09:33:42Z</time>
      </trkpt>
      <trkpt lat="44.46806" lon="6.85024">
        <ele>2265.4</ele>
        <time>2022-08-16T09:33:43Z</time>
      </trkpt>
      <trkpt lat="44.46801" lon="6.85021">
        <ele>2263.8</ele>
        <time>2022-08-16T09:33:44Z</time>
      </trkpt>
      <trkpt lat="44.46796" lon="6.85018">
        <ele>2261.2</ele>
        <time>2022-08-16T09:33:45Z</time>
      </trkpt>
      <trkpt lat="44.46791" lon="6.85014">
        <ele>2261.2</ele>
        <time>2022-08-16T09:33:46Z</time>
      </trkpt>
      <trkpt lat="44.46785" lon="6.85011">
        <ele>2259.8</ele>
        <time>2022-08-16T09:33:47Z</time>
      </trkpt>
      <trkpt lat="44.46778" lon="6.85007">
        <ele>2258.2</ele>
        <time>2022-08-16T09:33:48Z</time>
      </trkpt>
      <trkpt lat="44.46771" lon="6.85001">
        <ele>2256.6</ele>
        <time>2022-08-16T09:33:49Z</time>
      </trkpt>
      <trkpt lat="44.46765" lon="6.84993">
        <ele>2255.4</ele>
        <time>2022-08-16T09:33:50Z</time>
      </trkpt>
      <trkpt lat="44.4676" lon="6.84987">
        <ele>2253.6</ele>
        <time>2022-08-16T09:33:51Z</time>
      </trkpt>
      <trkpt lat="44.46755" lon="6.84981">
        <ele>2251.8</ele>
        <time>2022-08-16T09:33:52Z</time>
      </trkpt>
      <trkpt lat="44.46752" lon="6.84976">
        <ele>2251</ele>
        <time>2022-08-16T09:33:53Z</time>
      </trkpt>
      <trkpt lat="44.46748" lon="6.8497">
        <ele>2249.2</ele>
        <time>2022-08-16T09:33:54Z</time>
      </trkpt>
      <trkpt lat="44.46744" lon="6.84966">
        <ele>2247.2</ele>
        <time>2022-08-16T09:33:55Z</time>
      </trkpt>
      <trkpt lat="44.46739" lon="6.84965">
        <ele>2245.4</ele>
        <time>2022-08-16T09:33:56Z</time>
      </trkpt>
      <trkpt lat="44.46735" lon="6.84967">
        <ele>2244.6</ele>
        <time>2022-08-16T09:33:57Z</time>
      </trkpt>
      <trkpt lat="44.46731" lon="6.8497">
        <ele>2242</ele>
        <time>2022-08-16T09:33:58Z</time>
      </trkpt>
      <trkpt lat="44.46726" lon="6.84973">
        <ele>2239</ele>
        <time>2022-08-16T09:33:59Z</time>
      </trkpt>
      <trkpt lat="44.46722" lon="6.84975">
        <ele>2236.8</ele>
        <time>2022-08-16T09:34:00Z</time>
      </trkpt>
      <trkpt lat="44.46719" lon="6.84975">
        <ele>2235.6</ele>
        <time>2022-08-16T09:34:01Z</time>
      </trkpt>
      <trkpt lat="44.46716" lon="6.84976">
        <ele>2234</ele>
        <time>2022-08-16T09:34:02Z</time>
      </trkpt>
      <trkpt lat="44.46712" lon="6.84976">
        <ele>2232.2</ele>
        <time>2022-08-16T09:34:03Z</time>
      </trkpt>
      <trkpt lat="44.46707" lon="6.84976">
        <ele>2230.6</ele>
        <time>2022-08-16T09:34:04Z</time>
      </trkpt>
      <trkpt lat="44.46702" lon="6.84976">
        <ele>2230.6</ele>
        <time>2022-08-16T09:34:05Z</time>
      </trkpt>
      <trkpt lat="44.46697" lon="6.84978">
        <ele>2229.4</ele>
        <time>2022-08-16T09:34:06Z</time>
      </trkpt>
      <trkpt lat="44.46686" lon="6.84981">
        <ele>2227.6</ele>
        <time>2022-08-16T09:34:08Z</time>
      </trkpt>
      <trkpt lat="44.46682" lon="6.84982">
        <ele>2225.6</ele>
        <time>2022-08-16T09:34:09Z</time>
      </trkpt>
      <trkpt lat="44.46678" lon="6.84983">
        <ele>2223.8</ele>
        <time>2022-08-16T09:34:10Z</time>
      </trkpt>
      <trkpt lat="44.46673" lon="6.84983">
        <ele>2222.6</ele>
        <time>2022-08-16T09:34:11Z</time>
      </trkpt>
      <trkpt lat="44.46669" lon="6.84982">
        <ele>2221</ele>
        <time>2022-08-16T09:34:12Z</time>
      </trkpt>
      <trkpt lat="44.46664" lon="6.8498">
        <ele>2219.6</ele>
        <time>2022-08-16T09:34:13Z</time>
      </trkpt>
      <trkpt lat="44.4666" lon="6.84977">
        <ele>2216.6</ele>
        <time>2022-08-16T09:34:14Z</time>
      </trkpt>
      <trkpt lat="44.46656" lon="6.84975">
        <ele>2214.2</ele>
        <time>2022-08-16T09:34:15Z</time>
      </trkpt>
      <trkpt lat="44.46651" lon="6.84975">
        <ele>2212.4</ele>
        <time>2022-08-16T09:34:16Z</time>
      </trkpt>
      <trkpt lat="44.46647" lon="6.84976">
        <ele>2210.8</ele>
        <time>2022-08-16T09:34:17Z</time>
      </trkpt>
      <trkpt lat="44.46644" lon="6.84977">
        <ele>2208.2</ele>
        <time>2022-08-16T09:34:18Z</time>
      </trkpt>
      <trkpt lat="44.46641" lon="6.84976">
        <ele>2206.6</ele>
        <time>2022-08-16T09:34:19Z</time>
      </trkpt>
      <trkpt lat="44.46639" lon="6.84973">
        <ele>2205.4</ele>
        <time>2022-08-16T09:34:20Z</time>
      </trkpt>
      <trkpt lat="44.46638" lon="6.84959">
        <ele>2200.2</ele>
        <time>2022-08-16T09:34:23Z</time>
      </trkpt>
      <trkpt lat="44.46638" lon="6.84956">
        <ele>2198.8</ele>
        <time>2022-08-16T09:34:24Z</time>
      </trkpt>
      <trkpt lat="44.46637" lon="6.84955">
        <ele>2197.8</ele>
        <time>2022-08-16T09:34:25Z</time>
      </trkpt>
      <trkpt lat="44.46633" lon="6.84959">
        <ele>2196.4</ele>
        <time>2022-08-16T09:34:27Z</time>
      </trkpt>
      <trkpt lat="44.4663" lon="6.84967">
        <ele>2193.6</ele>
        <time>2022-08-16T09:34:29Z</time>
      </trkpt>
      <trkpt lat="44.46629" lon="6.8497">
        <ele>2192.4</ele>
        <time>2022-08-16T09:34:30Z</time>
      </trkpt>
      <trkpt lat="44.46628" lon="6.8497">
        <ele>2191.6</ele>
        <time>2022-08-16T09:34:31Z</time>
      </trkpt>
      <trkpt lat="44.46626" lon="6.84968">
        <ele>2191</ele>
        <time>2022-08-16T09:34:32Z</time>
      </trkpt>
      <trkpt lat="44.46625" lon="6.8496">
        <ele>2190</ele>
        <time>2022-08-16T09:34:34Z</time>
      </trkpt>
      <trkpt lat="44.46625" lon="6.84956">
        <ele>2189.4</ele>
        <time>2022-08-16T09:34:35Z</time>
      </trkpt>
      <trkpt lat="44.46625" lon="6.84953">
        <ele>2188.8</ele>
        <time>2022-08-16T09:34:36Z</time>
      </trkpt>
      <trkpt lat="44.46624" lon="6.84953">
        <ele>2188.2</ele>
        <time>2022-08-16T09:34:37Z</time>
      </trkpt>
      <trkpt lat="44.4662" lon="6.84957">
        <ele>2186.8</ele>
        <time>2022-08-16T09:34:39Z</time>
      </trkpt>
      <trkpt lat="44.46617" lon="6.84961">
        <ele>2186</ele>
        <time>2022-08-16T09:34:40Z</time>
      </trkpt>
      <trkpt lat="44.46615" lon="6.84965">
        <ele>2185.4</ele>
        <time>2022-08-16T09:34:41Z</time>
      </trkpt>
      <trkpt lat="44.46613" lon="6.84967">
        <ele>2184.6</ele>
        <time>2022-08-16T09:34:42Z</time>
      </trkpt>
      <trkpt lat="44.46612" lon="6.84967">
        <ele>2184.2</ele>
        <time>2022-08-16T09:34:43Z</time>
      </trkpt>
      <trkpt lat="44.46611" lon="6.84964">
        <ele>2183.2</ele>
        <time>2022-08-16T09:34:44Z</time>
      </trkpt>
      <trkpt lat="44.4661" lon="6.84959">
        <ele>2182.6</ele>
        <time>2022-08-16T09:34:45Z</time>
      </trkpt>
      <trkpt lat="44.46609" lon="6.84954">
        <ele>2182</ele>
        <time>2022-08-16T09:34:46Z</time>
      </trkpt>
      <trkpt lat="44.46609" lon="6.84951">
        <ele>2181.4</ele>
        <time>2022-08-16T09:34:47Z</time>
      </trkpt>
      <trkpt lat="44.46607" lon="6.84951">
        <ele>2180.8</ele>
        <time>2022-08-16T09:34:48Z</time>
      </trkpt>
      <trkpt lat="44.46604" lon="6.84963">
        <ele>2179.2</ele>
        <time>2022-08-16T09:34:51Z</time>
      </trkpt>
      <trkpt lat="44.46604" lon="6.84969">
        <ele>2178.2</ele>
        <time>2022-08-16T09:34:52Z</time>
      </trkpt>
      <trkpt lat="44.46605" lon="6.84974">
        <ele>2177.4</ele>
        <time>2022-08-16T09:34:53Z</time>
      </trkpt>
      <trkpt lat="44.46604" lon="6.84979">
        <ele>2177</ele>
        <time>2022-08-16T09:34:54Z</time>
      </trkpt>
      <trkpt lat="44.46602" lon="6.84982">
        <ele>2176</ele>
        <time>2022-08-16T09:34:55Z</time>
      </trkpt>
      <trkpt lat="44.46598" lon="6.84985">
        <ele>2174.4</ele>
        <time>2022-08-16T09:34:56Z</time>
      </trkpt>
      <trkpt lat="44.46595" lon="6.84987">
        <ele>2173.6</ele>
        <time>2022-08-16T09:34:57Z</time>
      </trkpt>
      <trkpt lat="44.46591" lon="6.84988">
        <ele>2173</ele>
        <time>2022-08-16T09:34:58Z</time>
      </trkpt>
      <trkpt lat="44.46588" lon="6.8499">
        <ele>2172.6</ele>
        <time>2022-08-16T09:34:59Z</time>
      </trkpt>
      <trkpt lat="44.46586" lon="6.84993">
        <ele>2172.4</ele>
        <time>2022-08-16T09:35:00Z</time>
      </trkpt>
      <trkpt lat="44.46584" lon="6.84995">
        <ele>2172</ele>
        <time>2022-08-16T09:35:01Z</time>
      </trkpt>
      <trkpt lat="44.46582" lon="6.84995">
        <ele>2171.6</ele>
        <time>2022-08-16T09:35:02Z</time>
      </trkpt>
      <trkpt lat="44.4658" lon="6.84993">
        <ele>2171.2</ele>
        <time>2022-08-16T09:35:03Z</time>
      </trkpt>
      <trkpt lat="44.4658" lon="6.8499">
        <ele>2170.6</ele>
        <time>2022-08-16T09:35:04Z</time>
      </trkpt>
      <trkpt lat="44.46579" lon="6.84987">
        <ele>2169.6</ele>
        <time>2022-08-16T09:35:05Z</time>
      </trkpt>
      <trkpt lat="44.46579" lon="6.84985">
        <ele>2168.2</ele>
        <time>2022-08-16T09:35:06Z</time>
      </trkpt>
      <trkpt lat="44.46578" lon="6.84984">
        <ele>2167</ele>
        <time>2022-08-16T09:35:07Z</time>
      </trkpt>
      <trkpt lat="44.46577" lon="6.84985">
        <ele>2165.4</ele>
        <time>2022-08-16T09:35:08Z</time>
      </trkpt>
      <trkpt lat="44.46572" lon="6.84991">
        <ele>2163</ele>
        <time>2022-08-16T09:35:10Z</time>
      </trkpt>
      <trkpt lat="44.46569" lon="6.84998">
        <ele>2161.4</ele>
        <time>2022-08-16T09:35:12Z</time>
      </trkpt>
      <trkpt lat="44.46568" lon="6.85002">
        <ele>2161.4</ele>
        <time>2022-08-16T09:35:13Z</time>
      </trkpt>
      <trkpt lat="44.46567" lon="6.85006">
        <ele>2161</ele>
        <time>2022-08-16T09:35:14Z</time>
      </trkpt>
      <trkpt lat="44.46566" lon="6.8501">
        <ele>2160.4</ele>
        <time>2022-08-16T09:35:15Z</time>
      </trkpt>
      <trkpt lat="44.46564" lon="6.85017">
        <ele>2160</ele>
        <time>2022-08-16T09:35:16Z</time>
      </trkpt>
      <trkpt lat="44.46562" lon="6.85024">
        <ele>2160</ele>
        <time>2022-08-16T09:35:17Z</time>
      </trkpt>
      <trkpt lat="44.4656" lon="6.85031">
        <ele>2159.4</ele>
        <time>2022-08-16T09:35:18Z</time>
      </trkpt>
      <trkpt lat="44.46558" lon="6.85038">
        <ele>2159</ele>
        <time>2022-08-16T09:35:19Z</time>
      </trkpt>
      <trkpt lat="44.46556" lon="6.85043">
        <ele>2158</ele>
        <time>2022-08-16T09:35:20Z</time>
      </trkpt>
      <trkpt lat="44.46555" lon="6.85048">
        <ele>2157.6</ele>
        <time>2022-08-16T09:35:21Z</time>
      </trkpt>
      <trkpt lat="44.46554" lon="6.85052">
        <ele>2157</ele>
        <time>2022-08-16T09:35:22Z</time>
      </trkpt>
      <trkpt lat="44.46553" lon="6.85057">
        <ele>2156.6</ele>
        <time>2022-08-16T09:35:23Z</time>
      </trkpt>
      <trkpt lat="44.46553" lon="6.85062">
        <ele>2156.4</ele>
        <time>2022-08-16T09:35:24Z</time>
      </trkpt>
      <trkpt lat="44.46553" lon="6.85066">
        <ele>2155.8</ele>
        <time>2022-08-16T09:35:25Z</time>
      </trkpt>
      <trkpt lat="44.46553" lon="6.8507">
        <ele>2154.6</ele>
        <time>2022-08-16T09:35:26Z</time>
      </trkpt>
      <trkpt lat="44.46553" lon="6.85072">
        <ele>2153.4</ele>
        <time>2022-08-16T09:35:27Z</time>
      </trkpt>
      <trkpt lat="44.46552" lon="6.85072">
        <ele>2152</ele>
        <time>2022-08-16T09:35:28Z</time>
      </trkpt>
      <trkpt lat="44.46548" lon="6.85068">
        <ele>2150</ele>
        <time>2022-08-16T09:35:30Z</time>
      </trkpt>
      <trkpt lat="44.46542" lon="6.8506">
        <ele>2147.6</ele>
        <time>2022-08-16T09:35:32Z</time>
      </trkpt>
      <trkpt lat="44.46538" lon="6.85056">
        <ele>2146.6</ele>
        <time>2022-08-16T09:35:33Z</time>
      </trkpt>
      <trkpt lat="44.46534" lon="6.85051">
        <ele>2145.8</ele>
        <time>2022-08-16T09:35:34Z</time>
      </trkpt>
      <trkpt lat="44.46528" lon="6.85041">
        <ele>2145.4</ele>
        <time>2022-08-16T09:35:36Z</time>
      </trkpt>
      <trkpt lat="44.46524" lon="6.85034">
        <ele>2144.4</ele>
        <time>2022-08-16T09:35:37Z</time>
      </trkpt>
      <trkpt lat="44.46517" lon="6.85021">
        <ele>2143.2</ele>
        <time>2022-08-16T09:35:39Z</time>
      </trkpt>
      <trkpt lat="44.46514" lon="6.85014">
        <ele>2142.4</ele>
        <time>2022-08-16T09:35:40Z</time>
      </trkpt>
      <trkpt lat="44.46511" lon="6.85007">
        <ele>2141.4</ele>
        <time>2022-08-16T09:35:41Z</time>
      </trkpt>
      <trkpt lat="44.46509" lon="6.85">
        <ele>2140.2</ele>
        <time>2022-08-16T09:35:42Z</time>
      </trkpt>
      <trkpt lat="44.46507" lon="6.84993">
        <ele>2138.8</ele>
        <time>2022-08-16T09:35:43Z</time>
      </trkpt>
      <trkpt lat="44.46506" lon="6.84987">
        <ele>2137.2</ele>
        <time>2022-08-16T09:35:44Z</time>
      </trkpt>
      <trkpt lat="44.46505" lon="6.84984">
        <ele>2135.2</ele>
        <time>2022-08-16T09:35:45Z</time>
      </trkpt>
      <trkpt lat="44.46503" lon="6.84983">
        <ele>2133.4</ele>
        <time>2022-08-16T09:35:46Z</time>
      </trkpt>
      <trkpt lat="44.465" lon="6.84985">
        <ele>2132</ele>
        <time>2022-08-16T09:35:47Z</time>
      </trkpt>
      <trkpt lat="44.46498" lon="6.8499">
        <ele>2129.8</ele>
        <time>2022-08-16T09:35:48Z</time>
      </trkpt>
      <trkpt lat="44.46496" lon="6.84996">
        <ele>2127</ele>
        <time>2022-08-16T09:35:49Z</time>
      </trkpt>
      <trkpt lat="44.46495" lon="6.85001">
        <ele>2125.2</ele>
        <time>2022-08-16T09:35:50Z</time>
      </trkpt>
      <trkpt lat="44.46494" lon="6.85008">
        <ele>2124</ele>
        <time>2022-08-16T09:35:51Z</time>
      </trkpt>
      <trkpt lat="44.46493" lon="6.85015">
        <ele>2122.8</ele>
        <time>2022-08-16T09:35:52Z</time>
      </trkpt>
      <trkpt lat="44.46493" lon="6.85021">
        <ele>2122.2</ele>
        <time>2022-08-16T09:35:53Z</time>
      </trkpt>
      <trkpt lat="44.46493" lon="6.85027">
        <ele>2121.8</ele>
        <time>2022-08-16T09:35:54Z</time>
      </trkpt>
      <trkpt lat="44.46494" lon="6.85032">
        <ele>2121.8</ele>
        <time>2022-08-16T09:35:55Z</time>
      </trkpt>
      <trkpt lat="44.46494" lon="6.85036">
        <ele>2121.4</ele>
        <time>2022-08-16T09:35:56Z</time>
      </trkpt>
      <trkpt lat="44.46493" lon="6.85039">
        <ele>2121.4</ele>
        <time>2022-08-16T09:35:57Z</time>
      </trkpt>
      <trkpt lat="44.46492" lon="6.85038">
        <ele>2120.6</ele>
        <time>2022-08-16T09:35:58Z</time>
      </trkpt>
      <trkpt lat="44.46487" lon="6.85031">
        <ele>2119.4</ele>
        <time>2022-08-16T09:36:00Z</time>
      </trkpt>
      <trkpt lat="44.46484" lon="6.85025">
        <ele>2119</ele>
        <time>2022-08-16T09:36:01Z</time>
      </trkpt>
      <trkpt lat="44.46475" lon="6.85006">
        <ele>2116</ele>
        <time>2022-08-16T09:36:04Z</time>
      </trkpt>
      <trkpt lat="44.46472" lon="6.84999">
        <ele>2114.8</ele>
        <time>2022-08-16T09:36:05Z</time>
      </trkpt>
      <trkpt lat="44.46469" lon="6.84993">
        <ele>2114</ele>
        <time>2022-08-16T09:36:06Z</time>
      </trkpt>
      <trkpt lat="44.46467" lon="6.84987">
        <ele>2113.2</ele>
        <time>2022-08-16T09:36:07Z</time>
      </trkpt>
      <trkpt lat="44.46465" lon="6.84982">
        <ele>2112.4</ele>
        <time>2022-08-16T09:36:08Z</time>
      </trkpt>
      <trkpt lat="44.46464" lon="6.84979">
        <ele>2111.2</ele>
        <time>2022-08-16T09:36:09Z</time>
      </trkpt>
      <trkpt lat="44.46464" lon="6.84977">
        <ele>2109.4</ele>
        <time>2022-08-16T09:36:10Z</time>
      </trkpt>
      <trkpt lat="44.46463" lon="6.84977">
        <ele>2107.6</ele>
        <time>2022-08-16T09:36:12Z</time>
      </trkpt>
      <trkpt lat="44.46465" lon="6.84979">
        <ele>2103</ele>
        <time>2022-08-16T09:36:17Z</time>
      </trkpt>
      <trkpt lat="44.46466" lon="6.84981">
        <ele>2102.4</ele>
        <time>2022-08-16T09:36:19Z</time>
      </trkpt>
      <trkpt lat="44.46466" lon="6.84982">
        <ele>2102.2</ele>
        <time>2022-08-16T09:36:20Z</time>
      </trkpt>
      <trkpt lat="44.46467" lon="6.84986">
        <ele>2102</ele>
        <time>2022-08-16T09:36:23Z</time>
      </trkpt>
      <trkpt lat="44.46468" lon="6.8499">
        <ele>2102</ele>
        <time>2022-08-16T09:36:27Z</time>
      </trkpt>
      <trkpt lat="44.46468" lon="6.84991">
        <ele>2102</ele>
        <time>2022-08-16T09:36:28Z</time>
      </trkpt>
      <trkpt lat="44.46469" lon="6.84992">
        <ele>2102</ele>
        <time>2022-08-16T09:36:30Z</time>
      </trkpt>
      <trkpt lat="44.4647" lon="6.84993">
        <ele>2102.2</ele>
        <time>2022-08-16T09:36:31Z</time>
      </trkpt>
      <trkpt lat="44.4647" lon="6.84994">
        <ele>2102.4</ele>
        <time>2022-08-16T09:36:32Z</time>
      </trkpt>
      <trkpt lat="44.46471" lon="6.84994">
        <ele>2102.6</ele>
        <time>2022-08-16T09:36:33Z</time>
      </trkpt>
      <trkpt lat="44.46471" lon="6.84995">
        <ele>2102.8</ele>
        <time>2022-08-16T09:36:34Z</time>
      </trkpt>
      <trkpt lat="44.46471" lon="6.84996">
        <ele>2102.8</ele>
        <time>2022-08-16T09:36:35Z</time>
      </trkpt>
      <trkpt lat="44.46471" lon="6.84996">
        <ele>2104</ele>
        <time>2022-08-16T09:36:40Z</time>
      </trkpt>
      <trkpt lat="44.46472" lon="6.84997">
        <ele>2104.4</ele>
        <time>2022-08-16T09:36:42Z</time>
      </trkpt>
      <trkpt lat="44.46472" lon="6.84997">
        <ele>2104.6</ele>
        <time>2022-08-16T09:36:43Z</time>
      </trkpt>
      <trkpt lat="44.46472" lon="6.84998">
        <ele>2104.8</ele>
        <time>2022-08-16T09:36:44Z</time>
      </trkpt>
      <trkpt lat="44.46472" lon="6.84999">
        <ele>2104.8</ele>
        <time>2022-08-16T09:36:45Z</time>
      </trkpt>
      <trkpt lat="44.46473" lon="6.85">
        <ele>2104.8</ele>
        <time>2022-08-16T09:36:46Z</time>
      </trkpt>
      <trkpt lat="44.46473" lon="6.85">
        <ele>2104.8</ele>
        <time>2022-08-16T09:36:47Z</time>
      </trkpt>
      <trkpt lat="44.46474" lon="6.85003">
        <ele>2105</ele>
        <time>2022-08-16T09:36:49Z</time>
      </trkpt>
      <trkpt lat="44.46476" lon="6.85006">
        <ele>2105</ele>
        <time>2022-08-16T09:36:52Z</time>
      </trkpt>
      <trkpt lat="44.46476" lon="6.85007">
        <ele>2105.2</ele>
        <time>2022-08-16T09:36:53Z</time>
      </trkpt>
      <trkpt lat="44.46476" lon="6.85008">
        <ele>2105.4</ele>
        <time>2022-08-16T09:36:54Z</time>
      </trkpt>
      <trkpt lat="44.46477" lon="6.85009">
        <ele>2105.4</ele>
        <time>2022-08-16T09:36:55Z</time>
      </trkpt>
      <trkpt lat="44.46477" lon="6.8501">
        <ele>2105.6</ele>
        <time>2022-08-16T09:36:56Z</time>
      </trkpt>
      <trkpt lat="44.46478" lon="6.85011">
        <ele>2105.8</ele>
        <time>2022-08-16T09:36:57Z</time>
      </trkpt>
      <trkpt lat="44.46478" lon="6.85011">
        <ele>2106.2</ele>
        <time>2022-08-16T09:36:58Z</time>
      </trkpt>
      <trkpt lat="44.46478" lon="6.85012">
        <ele>2106.4</ele>
        <time>2022-08-16T09:36:59Z</time>
      </trkpt>
      <trkpt lat="44.46479" lon="6.85013">
        <ele>2106.6</ele>
        <time>2022-08-16T09:37:00Z</time>
      </trkpt>
      <trkpt lat="44.46479" lon="6.85014">
        <ele>2106.8</ele>
        <time>2022-08-16T09:37:01Z</time>
      </trkpt>
      <trkpt lat="44.4648" lon="6.85015">
        <ele>2106.8</ele>
        <time>2022-08-16T09:37:02Z</time>
      </trkpt>
      <trkpt lat="44.4648" lon="6.85016">
        <ele>2106.8</ele>
        <time>2022-08-16T09:37:03Z</time>
      </trkpt>
      <trkpt lat="44.46481" lon="6.85017">
        <ele>2107</ele>
        <time>2022-08-16T09:37:04Z</time>
      </trkpt>
      <trkpt lat="44.46481" lon="6.85017">
        <ele>2107.2</ele>
        <time>2022-08-16T09:37:05Z</time>
      </trkpt>
      <trkpt lat="44.46481" lon="6.85018">
        <ele>2107.4</ele>
        <time>2022-08-16T09:37:06Z</time>
      </trkpt>
      <trkpt lat="44.46482" lon="6.85019">
        <ele>2107.4</ele>
        <time>2022-08-16T09:37:07Z</time>
      </trkpt>
      <trkpt lat="44.46482" lon="6.8502">
        <ele>2107.4</ele>
        <time>2022-08-16T09:37:08Z</time>
      </trkpt>
      <trkpt lat="44.46483" lon="6.8502">
        <ele>2107.8</ele>
        <time>2022-08-16T09:37:09Z</time>
      </trkpt>
      <trkpt lat="44.46483" lon="6.85021">
        <ele>2108</ele>
        <time>2022-08-16T09:37:10Z</time>
      </trkpt>
      <trkpt lat="44.46483" lon="6.85022">
        <ele>2108.2</ele>
        <time>2022-08-16T09:37:11Z</time>
      </trkpt>
      <trkpt lat="44.46484" lon="6.85023">
        <ele>2108.4</ele>
        <time>2022-08-16T09:37:12Z</time>
      </trkpt>
      <trkpt lat="44.46484" lon="6.85024">
        <ele>2108.4</ele>
        <time>2022-08-16T09:37:13Z</time>
      </trkpt>
      <trkpt lat="44.46485" lon="6.85025">
        <ele>2108.6</ele>
        <time>2022-08-16T09:37:14Z</time>
      </trkpt>
      <trkpt lat="44.46486" lon="6.85026">
        <ele>2108.8</ele>
        <time>2022-08-16T09:37:15Z</time>
      </trkpt>
      <trkpt lat="44.46486" lon="6.85027">
        <ele>2109</ele>
        <time>2022-08-16T09:37:16Z</time>
      </trkpt>
      <trkpt lat="44.46486" lon="6.85028">
        <ele>2109.2</ele>
        <time>2022-08-16T09:37:17Z</time>
      </trkpt>
      <trkpt lat="44.46487" lon="6.85029">
        <ele>2109.4</ele>
        <time>2022-08-16T09:37:18Z</time>
      </trkpt>
      <trkpt lat="44.46487" lon="6.8503">
        <ele>2109.4</ele>
        <time>2022-08-16T09:37:19Z</time>
      </trkpt>
      <trkpt lat="44.46488" lon="6.85031">
        <ele>2109.6</ele>
        <time>2022-08-16T09:37:20Z</time>
      </trkpt>
      <trkpt lat="44.46489" lon="6.85032">
        <ele>2109.6</ele>
        <time>2022-08-16T09:37:21Z</time>
      </trkpt>
      <trkpt lat="44.46489" lon="6.85033">
        <ele>2110</ele>
        <time>2022-08-16T09:37:22Z</time>
      </trkpt>
      <trkpt lat="44.4649" lon="6.85034">
        <ele>2110</ele>
        <time>2022-08-16T09:37:23Z</time>
      </trkpt>
      <trkpt lat="44.4649" lon="6.85034">
        <ele>2110.4</ele>
        <time>2022-08-16T09:37:24Z</time>
      </trkpt>
      <trkpt lat="44.46491" lon="6.85035">
        <ele>2110.4</ele>
        <time>2022-08-16T09:37:25Z</time>
      </trkpt>
      <trkpt lat="44.46491" lon="6.85036">
        <ele>2110.8</ele>
        <time>2022-08-16T09:37:28Z</time>
      </trkpt>
      <trkpt lat="44.46492" lon="6.85036">
        <ele>2111</ele>
        <time>2022-08-16T09:37:29Z</time>
      </trkpt>
      <trkpt lat="44.46492" lon="6.85038">
        <ele>2111.6</ele>
        <time>2022-08-16T09:37:33Z</time>
      </trkpt>
      <trkpt lat="44.46492" lon="6.85039">
        <ele>2111.8</ele>
        <time>2022-08-16T09:37:34Z</time>
      </trkpt>
      <trkpt lat="44.46492" lon="6.8504">
        <ele>2112</ele>
        <time>2022-08-16T09:37:35Z</time>
      </trkpt>
      <trkpt lat="44.46493" lon="6.85041">
        <ele>2112</ele>
        <time>2022-08-16T09:37:36Z</time>
      </trkpt>
      <trkpt lat="44.46493" lon="6.85044">
        <ele>2112</ele>
        <time>2022-08-16T09:37:37Z</time>
      </trkpt>
      <trkpt lat="44.46493" lon="6.85046">
        <ele>2112.2</ele>
        <time>2022-08-16T09:37:38Z</time>
      </trkpt>
      <trkpt lat="44.46493" lon="6.85048">
        <ele>2112</ele>
        <time>2022-08-16T09:37:39Z</time>
      </trkpt>
      <trkpt lat="44.46493" lon="6.85055">
        <ele>2112.2</ele>
        <time>2022-08-16T09:37:42Z</time>
      </trkpt>
      <trkpt lat="44.46493" lon="6.85057">
        <ele>2112.2</ele>
        <time>2022-08-16T09:37:43Z</time>
      </trkpt>
      <trkpt lat="44.46493" lon="6.85058">
        <ele>2112</ele>
        <time>2022-08-16T09:37:44Z</time>
      </trkpt>
      <trkpt lat="44.46493" lon="6.85061">
        <ele>2111.8</ele>
        <time>2022-08-16T09:37:46Z</time>
      </trkpt>
      <trkpt lat="44.46493" lon="6.85063">
        <ele>2111.8</ele>
        <time>2022-08-16T09:37:47Z</time>
      </trkpt>
      <trkpt lat="44.46492" lon="6.85069">
        <ele>2111.4</ele>
        <time>2022-08-16T09:37:49Z</time>
      </trkpt>
      <trkpt lat="44.46492" lon="6.85072">
        <ele>2111</ele>
        <time>2022-08-16T09:37:50Z</time>
      </trkpt>
      <trkpt lat="44.46492" lon="6.85079">
        <ele>2110.2</ele>
        <time>2022-08-16T09:37:52Z</time>
      </trkpt>
      <trkpt lat="44.46492" lon="6.85084">
        <ele>2109.6</ele>
        <time>2022-08-16T09:37:53Z</time>
      </trkpt>
      <trkpt lat="44.46493" lon="6.85088">
        <ele>2109.4</ele>
        <time>2022-08-16T09:37:54Z</time>
      </trkpt>
      <trkpt lat="44.46492" lon="6.85092">
        <ele>2109</ele>
        <time>2022-08-16T09:37:55Z</time>
      </trkpt>
      <trkpt lat="44.46491" lon="6.85101">
        <ele>2108.6</ele>
        <time>2022-08-16T09:37:57Z</time>
      </trkpt>
      <trkpt lat="44.4649" lon="6.85105">
        <ele>2108</ele>
        <time>2022-08-16T09:37:58Z</time>
      </trkpt>
      <trkpt lat="44.46489" lon="6.85112">
        <ele>2107.2</ele>
        <time>2022-08-16T09:38:00Z</time>
      </trkpt>
      <trkpt lat="44.46487" lon="6.85115">
        <ele>2106.8</ele>
        <time>2022-08-16T09:38:01Z</time>
      </trkpt>
      <trkpt lat="44.46486" lon="6.85122">
        <ele>2105.2</ele>
        <time>2022-08-16T09:38:03Z</time>
      </trkpt>
      <trkpt lat="44.46484" lon="6.8513">
        <ele>2104.2</ele>
        <time>2022-08-16T09:38:05Z</time>
      </trkpt>
      <trkpt lat="44.46482" lon="6.85137">
        <ele>2103.6</ele>
        <time>2022-08-16T09:38:07Z</time>
      </trkpt>
      <trkpt lat="44.46481" lon="6.85141">
        <ele>2103.4</ele>
        <time>2022-08-16T09:38:08Z</time>
      </trkpt>
      <trkpt lat="44.46481" lon="6.85144">
        <ele>2103.4</ele>
        <time>2022-08-16T09:38:09Z</time>
      </trkpt>
      <trkpt lat="44.4648" lon="6.85146">
        <ele>2103</ele>
        <time>2022-08-16T09:38:10Z</time>
      </trkpt>
      <trkpt lat="44.46479" lon="6.85149">
        <ele>2102.6</ele>
        <time>2022-08-16T09:38:11Z</time>
      </trkpt>
      <trkpt lat="44.46474" lon="6.85159">
        <ele>2101</ele>
        <time>2022-08-16T09:38:15Z</time>
      </trkpt>
      <trkpt lat="44.46469" lon="6.85169">
        <ele>2100.8</ele>
        <time>2022-08-16T09:38:18Z</time>
      </trkpt>
      <trkpt lat="44.46467" lon="6.85172">
        <ele>2100.6</ele>
        <time>2022-08-16T09:38:19Z</time>
      </trkpt>
      <trkpt lat="44.46466" lon="6.85174">
        <ele>2100.4</ele>
        <time>2022-08-16T09:38:20Z</time>
      </trkpt>
      <trkpt lat="44.46463" lon="6.85177">
        <ele>2100.2</ele>
        <time>2022-08-16T09:38:21Z</time>
      </trkpt>
      <trkpt lat="44.46461" lon="6.8518">
        <ele>2100.2</ele>
        <time>2022-08-16T09:38:22Z</time>
      </trkpt>
      <trkpt lat="44.46459" lon="6.85184">
        <ele>2099.8</ele>
        <time>2022-08-16T09:38:23Z</time>
      </trkpt>
      <trkpt lat="44.46458" lon="6.85187">
        <ele>2099.8</ele>
        <time>2022-08-16T09:38:24Z</time>
      </trkpt>
      <trkpt lat="44.46458" lon="6.8519">
        <ele>2099.6</ele>
        <time>2022-08-16T09:38:25Z</time>
      </trkpt>
      <trkpt lat="44.46458" lon="6.85193">
        <ele>2099.4</ele>
        <time>2022-08-16T09:38:26Z</time>
      </trkpt>
      <trkpt lat="44.46457" lon="6.85195">
        <ele>2099.6</ele>
        <time>2022-08-16T09:38:27Z</time>
      </trkpt>
      <trkpt lat="44.46456" lon="6.85198">
        <ele>2099.2</ele>
        <time>2022-08-16T09:38:28Z</time>
      </trkpt>
      <trkpt lat="44.46456" lon="6.85201">
        <ele>2099</ele>
        <time>2022-08-16T09:38:29Z</time>
      </trkpt>
      <trkpt lat="44.46455" lon="6.85207">
        <ele>2098.8</ele>
        <time>2022-08-16T09:38:31Z</time>
      </trkpt>
      <trkpt lat="44.46452" lon="6.85222">
        <ele>2097.8</ele>
        <time>2022-08-16T09:38:36Z</time>
      </trkpt>
      <trkpt lat="44.4645" lon="6.85224">
        <ele>2097.6</ele>
        <time>2022-08-16T09:38:37Z</time>
      </trkpt>
      <trkpt lat="44.46448" lon="6.85227">
        <ele>2097.6</ele>
        <time>2022-08-16T09:38:38Z</time>
      </trkpt>
      <trkpt lat="44.46446" lon="6.8523">
        <ele>2097.6</ele>
        <time>2022-08-16T09:38:39Z</time>
      </trkpt>
      <trkpt lat="44.4644" lon="6.85243">
        <ele>2097.6</ele>
        <time>2022-08-16T09:38:43Z</time>
      </trkpt>
      <trkpt lat="44.46439" lon="6.85246">
        <ele>2097.4</ele>
        <time>2022-08-16T09:38:44Z</time>
      </trkpt>
      <trkpt lat="44.46436" lon="6.85257">
        <ele>2097.6</ele>
        <time>2022-08-16T09:38:47Z</time>
      </trkpt>
      <trkpt lat="44.46432" lon="6.85273">
        <ele>2097.6</ele>
        <time>2022-08-16T09:38:51Z</time>
      </trkpt>
      <trkpt lat="44.46432" lon="6.85277">
        <ele>2097.6</ele>
        <time>2022-08-16T09:38:52Z</time>
      </trkpt>
      <trkpt lat="44.46432" lon="6.85281">
        <ele>2097.6</ele>
        <time>2022-08-16T09:38:53Z</time>
      </trkpt>
      <trkpt lat="44.46432" lon="6.85285">
        <ele>2097.8</ele>
        <time>2022-08-16T09:38:54Z</time>
      </trkpt>
      <trkpt lat="44.46432" lon="6.85288">
        <ele>2097.8</ele>
        <time>2022-08-16T09:38:55Z</time>
      </trkpt>
      <trkpt lat="44.46433" lon="6.85291">
        <ele>2097.8</ele>
        <time>2022-08-16T09:38:56Z</time>
      </trkpt>
      <trkpt lat="44.46433" lon="6.85295">
        <ele>2097.8</ele>
        <time>2022-08-16T09:38:57Z</time>
      </trkpt>
      <trkpt lat="44.46434" lon="6.85308">
        <ele>2098.2</ele>
        <time>2022-08-16T09:39:01Z</time>
      </trkpt>
      <trkpt lat="44.46435" lon="6.85319">
        <ele>2098.2</ele>
        <time>2022-08-16T09:39:04Z</time>
      </trkpt>
      <trkpt lat="44.46436" lon="6.85323">
        <ele>2098.2</ele>
        <time>2022-08-16T09:39:05Z</time>
      </trkpt>
      <trkpt lat="44.46437" lon="6.85326">
        <ele>2098.2</ele>
        <time>2022-08-16T09:39:06Z</time>
      </trkpt>
      <trkpt lat="44.46438" lon="6.85333">
        <ele>2098.4</ele>
        <time>2022-08-16T09:39:08Z</time>
      </trkpt>
      <trkpt lat="44.4644" lon="6.8534">
        <ele>2098.4</ele>
        <time>2022-08-16T09:39:10Z</time>
      </trkpt>
      <trkpt lat="44.46441" lon="6.85343">
        <ele>2098.2</ele>
        <time>2022-08-16T09:39:11Z</time>
      </trkpt>
      <trkpt lat="44.46442" lon="6.85346">
        <ele>2098.4</ele>
        <time>2022-08-16T09:39:12Z</time>
      </trkpt>
      <trkpt lat="44.46442" lon="6.85348">
        <ele>2098.4</ele>
        <time>2022-08-16T09:39:13Z</time>
      </trkpt>
      <trkpt lat="44.46443" lon="6.85351">
        <ele>2098.4</ele>
        <time>2022-08-16T09:39:14Z</time>
      </trkpt>
      <trkpt lat="44.46446" lon="6.85357">
        <ele>2098.4</ele>
        <time>2022-08-16T09:39:16Z</time>
      </trkpt>
      <trkpt lat="44.46447" lon="6.85359">
        <ele>2098.4</ele>
        <time>2022-08-16T09:39:17Z</time>
      </trkpt>
      <trkpt lat="44.46448" lon="6.85362">
        <ele>2098.4</ele>
        <time>2022-08-16T09:39:18Z</time>
      </trkpt>
      <trkpt lat="44.46449" lon="6.85364">
        <ele>2098.4</ele>
        <time>2022-08-16T09:39:19Z</time>
      </trkpt>
      <trkpt lat="44.46451" lon="6.85369">
        <ele>2098.4</ele>
        <time>2022-08-16T09:39:21Z</time>
      </trkpt>
      <trkpt lat="44.46452" lon="6.85371">
        <ele>2098.4</ele>
        <time>2022-08-16T09:39:22Z</time>
      </trkpt>
      <trkpt lat="44.46453" lon="6.85373">
        <ele>2098.4</ele>
        <time>2022-08-16T09:39:23Z</time>
      </trkpt>
      <trkpt lat="44.46454" lon="6.85375">
        <ele>2098.4</ele>
        <time>2022-08-16T09:39:24Z</time>
      </trkpt>
      <trkpt lat="44.46455" lon="6.85376">
        <ele>2098.6</ele>
        <time>2022-08-16T09:39:25Z</time>
      </trkpt>
      <trkpt lat="44.46456" lon="6.85377">
        <ele>2098.4</ele>
        <time>2022-08-16T09:39:26Z</time>
      </trkpt>
      <trkpt lat="44.46457" lon="6.85378">
        <ele>2098.6</ele>
        <time>2022-08-16T09:39:27Z</time>
      </trkpt>
      <trkpt lat="44.46459" lon="6.85382">
        <ele>2098.6</ele>
        <time>2022-08-16T09:39:29Z</time>
      </trkpt>
      <trkpt lat="44.4646" lon="6.85384">
        <ele>2098.6</ele>
        <time>2022-08-16T09:39:30Z</time>
      </trkpt>
      <trkpt lat="44.46461" lon="6.85385">
        <ele>2098.6</ele>
        <time>2022-08-16T09:39:31Z</time>
      </trkpt>
      <trkpt lat="44.46462" lon="6.85387">
        <ele>2098.8</ele>
        <time>2022-08-16T09:39:32Z</time>
      </trkpt>
      <trkpt lat="44.46462" lon="6.85388">
        <ele>2098.8</ele>
        <time>2022-08-16T09:39:33Z</time>
      </trkpt>
      <trkpt lat="44.46463" lon="6.8539">
        <ele>2099.2</ele>
        <time>2022-08-16T09:39:35Z</time>
      </trkpt>
      <trkpt lat="44.46466" lon="6.85394">
        <ele>2099.2</ele>
        <time>2022-08-16T09:39:38Z</time>
      </trkpt>
      <trkpt lat="44.46466" lon="6.85396">
        <ele>2099.4</ele>
        <time>2022-08-16T09:39:39Z</time>
      </trkpt>
      <trkpt lat="44.46466" lon="6.85397">
        <ele>2099.6</ele>
        <time>2022-08-16T09:39:40Z</time>
      </trkpt>
      <trkpt lat="44.46467" lon="6.85402">
        <ele>2100</ele>
        <time>2022-08-16T09:39:43Z</time>
      </trkpt>
      <trkpt lat="44.46466" lon="6.85403">
        <ele>2100</ele>
        <time>2022-08-16T09:39:44Z</time>
      </trkpt>
      <trkpt lat="44.46466" lon="6.85405">
        <ele>2100.2</ele>
        <time>2022-08-16T09:39:45Z</time>
      </trkpt>
      <trkpt lat="44.46465" lon="6.85407">
        <ele>2100.2</ele>
        <time>2022-08-16T09:39:46Z</time>
      </trkpt>
      <trkpt lat="44.46464" lon="6.85409">
        <ele>2100.2</ele>
        <time>2022-08-16T09:39:47Z</time>
      </trkpt>
      <trkpt lat="44.46461" lon="6.85414">
        <ele>2100.2</ele>
        <time>2022-08-16T09:39:50Z</time>
      </trkpt>
      <trkpt lat="44.46461" lon="6.85415">
        <ele>2100</ele>
        <time>2022-08-16T09:39:51Z</time>
      </trkpt>
      <trkpt lat="44.4646" lon="6.85416">
        <ele>2100.2</ele>
        <time>2022-08-16T09:39:52Z</time>
      </trkpt>
      <trkpt lat="44.46458" lon="6.85422">
        <ele>2100.2</ele>
        <time>2022-08-16T09:39:55Z</time>
      </trkpt>
      <trkpt lat="44.46457" lon="6.85426">
        <ele>2100.2</ele>
        <time>2022-08-16T09:39:57Z</time>
      </trkpt>
      <trkpt lat="44.46457" lon="6.85429">
        <ele>2100.2</ele>
        <time>2022-08-16T09:39:58Z</time>
      </trkpt>
      <trkpt lat="44.46456" lon="6.85431">
        <ele>2100.2</ele>
        <time>2022-08-16T09:39:59Z</time>
      </trkpt>
      <trkpt lat="44.46456" lon="6.85432">
        <ele>2100.2</ele>
        <time>2022-08-16T09:40:00Z</time>
      </trkpt>
      <trkpt lat="44.46456" lon="6.85434">
        <ele>2100.4</ele>
        <time>2022-08-16T09:40:02Z</time>
      </trkpt>
      <trkpt lat="44.46456" lon="6.85433">
        <ele>2101</ele>
        <time>2022-08-16T09:40:12Z</time>
      </trkpt>
      <trkpt lat="44.46456" lon="6.85434">
        <ele>2101.4</ele>
        <time>2022-08-16T09:40:20Z</time>
      </trkpt>
      <trkpt lat="44.46456" lon="6.85435">
        <ele>2101.4</ele>
        <time>2022-08-16T09:40:21Z</time>
      </trkpt>
      <trkpt lat="44.46456" lon="6.85438">
        <ele>2101.2</ele>
        <time>2022-08-16T09:40:23Z</time>
      </trkpt>
      <trkpt lat="44.46457" lon="6.8544">
        <ele>2101.2</ele>
        <time>2022-08-16T09:40:24Z</time>
      </trkpt>
      <trkpt lat="44.46458" lon="6.85442">
        <ele>2101.2</ele>
        <time>2022-08-16T09:40:25Z</time>
      </trkpt>
      <trkpt lat="44.46458" lon="6.85444">
        <ele>2101</ele>
        <time>2022-08-16T09:40:29Z</time>
      </trkpt>
      <trkpt lat="44.46458" lon="6.85445">
        <ele>2101.2</ele>
        <time>2022-08-16T09:40:32Z</time>
      </trkpt>
      <trkpt lat="44.46459" lon="6.85448">
        <ele>2101</ele>
        <time>2022-08-16T09:40:35Z</time>
      </trkpt>
      <trkpt lat="44.46459" lon="6.85452">
        <ele>2101</ele>
        <time>2022-08-16T09:40:37Z</time>
      </trkpt>
      <trkpt lat="44.4646" lon="6.85459">
        <ele>2101.2</ele>
        <time>2022-08-16T09:40:40Z</time>
      </trkpt>
      <trkpt lat="44.4646" lon="6.85461">
        <ele>2101</ele>
        <time>2022-08-16T09:40:41Z</time>
      </trkpt>
      <trkpt lat="44.4646" lon="6.85463">
        <ele>2101</ele>
        <time>2022-08-16T09:40:42Z</time>
      </trkpt>
      <trkpt lat="44.46461" lon="6.85464">
        <ele>2101</ele>
        <time>2022-08-16T09:40:43Z</time>
      </trkpt>
      <trkpt lat="44.4646" lon="6.85479">
        <ele>2101</ele>
        <time>2022-08-16T09:40:48Z</time>
      </trkpt>
      <trkpt lat="44.4646" lon="6.85482">
        <ele>2101</ele>
        <time>2022-08-16T09:40:49Z</time>
      </trkpt>
      <trkpt lat="44.4646" lon="6.85485">
        <ele>2101</ele>
        <time>2022-08-16T09:40:50Z</time>
      </trkpt>
      <trkpt lat="44.4646" lon="6.85487">
        <ele>2101</ele>
        <time>2022-08-16T09:40:51Z</time>
      </trkpt>
      <trkpt lat="44.4646" lon="6.85489">
        <ele>2101.2</ele>
        <time>2022-08-16T09:40:52Z</time>
      </trkpt>
      <trkpt lat="44.4646" lon="6.85491">
        <ele>2101</ele>
        <time>2022-08-16T09:40:53Z</time>
      </trkpt>
      <trkpt lat="44.46461" lon="6.85493">
        <ele>2101</ele>
        <time>2022-08-16T09:40:54Z</time>
      </trkpt>
      <trkpt lat="44.46461" lon="6.85493">
        <ele>2101</ele>
        <time>2022-08-16T09:40:55Z</time>
      </trkpt>
      <trkpt lat="44.46462" lon="6.85495">
        <ele>2101.4</ele>
        <time>2022-08-16T09:40:58Z</time>
      </trkpt>
      <trkpt lat="44.46462" lon="6.85496">
        <ele>2101.4</ele>
        <time>2022-08-16T09:41:00Z</time>
      </trkpt>
      <trkpt lat="44.46461" lon="6.85497">
        <ele>2101.6</ele>
        <time>2022-08-16T09:41:02Z</time>
      </trkpt>
      <trkpt lat="44.46461" lon="6.85498">
        <ele>2101.6</ele>
        <time>2022-08-16T09:41:03Z</time>
      </trkpt>
      <trkpt lat="44.46461" lon="6.85501">
        <ele>2101.6</ele>
        <time>2022-08-16T09:41:05Z</time>
      </trkpt>
      <trkpt lat="44.46461" lon="6.85502">
        <ele>2101.6</ele>
        <time>2022-08-16T09:41:06Z</time>
      </trkpt>
      <trkpt lat="44.46461" lon="6.85505">
        <ele>2101.6</ele>
        <time>2022-08-16T09:41:09Z</time>
      </trkpt>
      <trkpt lat="44.46461" lon="6.85505">
        <ele>2101.6</ele>
        <time>2022-08-16T09:41:10Z</time>
      </trkpt>
      <trkpt lat="44.4646" lon="6.85506">
        <ele>2101.6</ele>
        <time>2022-08-16T09:41:11Z</time>
      </trkpt>
      <trkpt lat="44.46461" lon="6.85509">
        <ele>2101.8</ele>
        <time>2022-08-16T09:41:13Z</time>
      </trkpt>
      <trkpt lat="44.46461" lon="6.85511">
        <ele>2101.8</ele>
        <time>2022-08-16T09:41:14Z</time>
      </trkpt>
      <trkpt lat="44.46462" lon="6.85512">
        <ele>2101.8</ele>
        <time>2022-08-16T09:41:15Z</time>
      </trkpt>
      <trkpt lat="44.46461" lon="6.85519">
        <ele>2101.8</ele>
        <time>2022-08-16T09:41:18Z</time>
      </trkpt>
      <trkpt lat="44.46462" lon="6.85521">
        <ele>2101.8</ele>
        <time>2022-08-16T09:41:19Z</time>
      </trkpt>
      <trkpt lat="44.46462" lon="6.85522">
        <ele>2101.8</ele>
        <time>2022-08-16T09:41:20Z</time>
      </trkpt>
      <trkpt lat="44.46462" lon="6.85523">
        <ele>2101.8</ele>
        <time>2022-08-16T09:41:21Z</time>
      </trkpt>
      <trkpt lat="44.46463" lon="6.85531">
        <ele>2101.8</ele>
        <time>2022-08-16T09:41:25Z</time>
      </trkpt>
      <trkpt lat="44.46463" lon="6.85533">
        <ele>2101.8</ele>
        <time>2022-08-16T09:41:26Z</time>
      </trkpt>
      <trkpt lat="44.46462" lon="6.85535">
        <ele>2101.8</ele>
        <time>2022-08-16T09:41:27Z</time>
      </trkpt>
      <trkpt lat="44.46462" lon="6.85536">
        <ele>2101.8</ele>
        <time>2022-08-16T09:41:28Z</time>
      </trkpt>
      <trkpt lat="44.46462" lon="6.85538">
        <ele>2101.8</ele>
        <time>2022-08-16T09:41:29Z</time>
      </trkpt>
      <trkpt lat="44.46462" lon="6.8554">
        <ele>2101.8</ele>
        <time>2022-08-16T09:41:30Z</time>
      </trkpt>
      <trkpt lat="44.46462" lon="6.85542">
        <ele>2101.8</ele>
        <time>2022-08-16T09:41:31Z</time>
      </trkpt>
      <trkpt lat="44.46462" lon="6.85544">
        <ele>2101.6</ele>
        <time>2022-08-16T09:41:32Z</time>
      </trkpt>
      <trkpt lat="44.46463" lon="6.85546">
        <ele>2101.6</ele>
        <time>2022-08-16T09:41:33Z</time>
      </trkpt>
      <trkpt lat="44.46463" lon="6.85551">
        <ele>2101.6</ele>
        <time>2022-08-16T09:41:35Z</time>
      </trkpt>
      <trkpt lat="44.46462" lon="6.85552">
        <ele>2101.6</ele>
        <time>2022-08-16T09:41:36Z</time>
      </trkpt>
      <trkpt lat="44.46462" lon="6.85554">
        <ele>2101.6</ele>
        <time>2022-08-16T09:41:37Z</time>
      </trkpt>
      <trkpt lat="44.46462" lon="6.85555">
        <ele>2101.6</ele>
        <time>2022-08-16T09:41:38Z</time>
      </trkpt>
      <trkpt lat="44.46462" lon="6.85559">
        <ele>2101.6</ele>
        <time>2022-08-16T09:41:40Z</time>
      </trkpt>
      <trkpt lat="44.46462" lon="6.85563">
        <ele>2101.6</ele>
        <time>2022-08-16T09:41:42Z</time>
      </trkpt>
      <trkpt lat="44.46462" lon="6.85565">
        <ele>2101.6</ele>
        <time>2022-08-16T09:41:43Z</time>
      </trkpt>
      <trkpt lat="44.46462" lon="6.85569">
        <ele>2101.6</ele>
        <time>2022-08-16T09:41:45Z</time>
      </trkpt>
      <trkpt lat="44.46462" lon="6.85571">
        <ele>2101.8</ele>
        <time>2022-08-16T09:41:46Z</time>
      </trkpt>
      <trkpt lat="44.46462" lon="6.85572">
        <ele>2101.6</ele>
        <time>2022-08-16T09:41:47Z</time>
      </trkpt>
      <trkpt lat="44.46462" lon="6.85574">
        <ele>2101.8</ele>
        <time>2022-08-16T09:41:48Z</time>
      </trkpt>
      <trkpt lat="44.46461" lon="6.85577">
        <ele>2101.8</ele>
        <time>2022-08-16T09:41:50Z</time>
      </trkpt>
      <trkpt lat="44.46461" lon="6.85579">
        <ele>2101.8</ele>
        <time>2022-08-16T09:41:51Z</time>
      </trkpt>
      <trkpt lat="44.46462" lon="6.85582">
        <ele>2102</ele>
        <time>2022-08-16T09:41:53Z</time>
      </trkpt>
      <trkpt lat="44.46462" lon="6.85587">
        <ele>2102.2</ele>
        <time>2022-08-16T09:41:55Z</time>
      </trkpt>
      <trkpt lat="44.46462" lon="6.85589">
        <ele>2102.2</ele>
        <time>2022-08-16T09:41:56Z</time>
      </trkpt>
      <trkpt lat="44.46462" lon="6.8559">
        <ele>2102.4</ele>
        <time>2022-08-16T09:41:57Z</time>
      </trkpt>
      <trkpt lat="44.46463" lon="6.85592">
        <ele>2102.4</ele>
        <time>2022-08-16T09:41:58Z</time>
      </trkpt>
      <trkpt lat="44.46463" lon="6.85593">
        <ele>2102.4</ele>
        <time>2022-08-16T09:41:59Z</time>
      </trkpt>
      <trkpt lat="44.46463" lon="6.85595">
        <ele>2102.6</ele>
        <time>2022-08-16T09:42:00Z</time>
      </trkpt>
      <trkpt lat="44.46463" lon="6.85596">
        <ele>2102.4</ele>
        <time>2022-08-16T09:42:01Z</time>
      </trkpt>
      <trkpt lat="44.46463" lon="6.85596">
        <ele>2102.6</ele>
        <time>2022-08-16T09:42:02Z</time>
      </trkpt>
      <trkpt lat="44.46464" lon="6.85596">
        <ele>2103.2</ele>
        <time>2022-08-16T09:42:08Z</time>
      </trkpt>
      <trkpt lat="44.46464" lon="6.85597">
        <ele>2103.2</ele>
        <time>2022-08-16T09:42:13Z</time>
      </trkpt>
      <trkpt lat="44.46464" lon="6.85606">
        <ele>2103.4</ele>
        <time>2022-08-16T09:42:18Z</time>
      </trkpt>
      <trkpt lat="44.46464" lon="6.85607">
        <ele>2103.4</ele>
        <time>2022-08-16T09:42:19Z</time>
      </trkpt>
      <trkpt lat="44.46464" lon="6.85608">
        <ele>2103.6</ele>
        <time>2022-08-16T09:42:20Z</time>
      </trkpt>
      <trkpt lat="44.46464" lon="6.85609">
        <ele>2103.4</ele>
        <time>2022-08-16T09:42:24Z</time>
      </trkpt>
      <trkpt lat="44.46464" lon="6.85609">
        <ele>2103.4</ele>
        <time>2022-08-16T09:42:25Z</time>
      </trkpt>
      <trkpt lat="44.46464" lon="6.8561">
        <ele>2103.4</ele>
        <time>2022-08-16T09:42:26Z</time>
      </trkpt>
      <trkpt lat="44.46464" lon="6.85611">
        <ele>2103.2</ele>
        <time>2022-08-16T09:42:27Z</time>
      </trkpt>
      <trkpt lat="44.46464" lon="6.85614">
        <ele>2103.2</ele>
        <time>2022-08-16T09:42:30Z</time>
      </trkpt>
      <trkpt lat="44.46464" lon="6.85615">
        <ele>2103</ele>
        <time>2022-08-16T09:42:31Z</time>
      </trkpt>
      <trkpt lat="44.46464" lon="6.85616">
        <ele>2103</ele>
        <time>2022-08-16T09:42:36Z</time>
      </trkpt>
      <trkpt lat="44.46464" lon="6.85618">
        <ele>2103.2</ele>
        <time>2022-08-16T09:42:37Z</time>
      </trkpt>
      <trkpt lat="44.46464" lon="6.8562">
        <ele>2103</ele>
        <time>2022-08-16T09:42:38Z</time>
      </trkpt>
      <trkpt lat="44.46464" lon="6.85622">
        <ele>2103</ele>
        <time>2022-08-16T09:42:39Z</time>
      </trkpt>
      <trkpt lat="44.46463" lon="6.85628">
        <ele>2103.2</ele>
        <time>2022-08-16T09:42:42Z</time>
      </trkpt>
      <trkpt lat="44.46462" lon="6.8563">
        <ele>2103.2</ele>
        <time>2022-08-16T09:42:43Z</time>
      </trkpt>
      <trkpt lat="44.46462" lon="6.85631">
        <ele>2103.2</ele>
        <time>2022-08-16T09:42:44Z</time>
      </trkpt>
      <trkpt lat="44.46462" lon="6.85634">
        <ele>2103.4</ele>
        <time>2022-08-16T09:42:46Z</time>
      </trkpt>
      <trkpt lat="44.46461" lon="6.8564">
        <ele>2103.4</ele>
        <time>2022-08-16T09:42:49Z</time>
      </trkpt>
      <trkpt lat="44.46461" lon="6.85642">
        <ele>2103.2</ele>
        <time>2022-08-16T09:42:50Z</time>
      </trkpt>
      <trkpt lat="44.46461" lon="6.85643">
        <ele>2103.4</ele>
        <time>2022-08-16T09:42:51Z</time>
      </trkpt>
      <trkpt lat="44.46461" lon="6.85643">
        <ele>2103.4</ele>
        <time>2022-08-16T09:42:54Z</time>
      </trkpt>
      <trkpt lat="44.46461" lon="6.85646">
        <ele>2103.4</ele>
        <time>2022-08-16T09:42:59Z</time>
      </trkpt>
      <trkpt lat="44.46461" lon="6.85648">
        <ele>2103.4</ele>
        <time>2022-08-16T09:43:00Z</time>
      </trkpt>
      <trkpt lat="44.46462" lon="6.8565">
        <ele>2103.4</ele>
        <time>2022-08-16T09:43:01Z</time>
      </trkpt>
      <trkpt lat="44.46462" lon="6.85652">
        <ele>2103.4</ele>
        <time>2022-08-16T09:43:02Z</time>
      </trkpt>
      <trkpt lat="44.46463" lon="6.85656">
        <ele>2103.4</ele>
        <time>2022-08-16T09:43:04Z</time>
      </trkpt>
      <trkpt lat="44.46463" lon="6.85658">
        <ele>2103.4</ele>
        <time>2022-08-16T09:43:05Z</time>
      </trkpt>
      <trkpt lat="44.46463" lon="6.85659">
        <ele>2103.4</ele>
        <time>2022-08-16T09:43:06Z</time>
      </trkpt>
      <trkpt lat="44.46464" lon="6.85661">
        <ele>2103.4</ele>
        <time>2022-08-16T09:43:07Z</time>
      </trkpt>
      <trkpt lat="44.46464" lon="6.85662">
        <ele>2103.4</ele>
        <time>2022-08-16T09:43:08Z</time>
      </trkpt>
      <trkpt lat="44.46465" lon="6.85673">
        <ele>2103.2</ele>
        <time>2022-08-16T09:43:13Z</time>
      </trkpt>
      <trkpt lat="44.46466" lon="6.85677">
        <ele>2103.2</ele>
        <time>2022-08-16T09:43:15Z</time>
      </trkpt>
      <trkpt lat="44.46467" lon="6.8568">
        <ele>2103.2</ele>
        <time>2022-08-16T09:43:16Z</time>
      </trkpt>
      <trkpt lat="44.46468" lon="6.85688">
        <ele>2103.2</ele>
        <time>2022-08-16T09:43:19Z</time>
      </trkpt>
      <trkpt lat="44.46468" lon="6.85689">
        <ele>2103.6</ele>
        <time>2022-08-16T09:43:21Z</time>
      </trkpt>
      <trkpt lat="44.46468" lon="6.8569">
        <ele>2104</ele>
        <time>2022-08-16T09:43:23Z</time>
      </trkpt>
      <trkpt lat="44.46467" lon="6.85692">
        <ele>2104</ele>
        <time>2022-08-16T09:43:24Z</time>
      </trkpt>
      <trkpt lat="44.46467" lon="6.85692">
        <ele>2104</ele>
        <time>2022-08-16T09:43:25Z</time>
      </trkpt>
      <trkpt lat="44.46466" lon="6.85695">
        <ele>2104</ele>
        <time>2022-08-16T09:43:27Z</time>
      </trkpt>
      <trkpt lat="44.46465" lon="6.85696">
        <ele>2104.2</ele>
        <time>2022-08-16T09:43:28Z</time>
      </trkpt>
      <trkpt lat="44.46463" lon="6.85701">
        <ele>2104.2</ele>
        <time>2022-08-16T09:43:31Z</time>
      </trkpt>
      <trkpt lat="44.46463" lon="6.85701">
        <ele>2104.2</ele>
        <time>2022-08-16T09:43:33Z</time>
      </trkpt>
      <trkpt lat="44.46463" lon="6.85704">
        <ele>2104.4</ele>
        <time>2022-08-16T09:43:39Z</time>
      </trkpt>
      <trkpt lat="44.46462" lon="6.85707">
        <ele>2104.4</ele>
        <time>2022-08-16T09:43:41Z</time>
      </trkpt>
      <trkpt lat="44.46461" lon="6.8573">
        <ele>2105</ele>
        <time>2022-08-16T09:43:50Z</time>
      </trkpt>
      <trkpt lat="44.46461" lon="6.85739">
        <ele>2105.2</ele>
        <time>2022-08-16T09:43:53Z</time>
      </trkpt>
      <trkpt lat="44.46462" lon="6.85742">
        <ele>2105.2</ele>
        <time>2022-08-16T09:43:54Z</time>
      </trkpt>
      <trkpt lat="44.46462" lon="6.85748">
        <ele>2105.4</ele>
        <time>2022-08-16T09:43:56Z</time>
      </trkpt>
      <trkpt lat="44.46462" lon="6.85754">
        <ele>2105.2</ele>
        <time>2022-08-16T09:43:58Z</time>
      </trkpt>
      <trkpt lat="44.46462" lon="6.8576">
        <ele>2105.4</ele>
        <time>2022-08-16T09:44:00Z</time>
      </trkpt>
      <trkpt lat="44.46463" lon="6.85763">
        <ele>2105.4</ele>
        <time>2022-08-16T09:44:01Z</time>
      </trkpt>
      <trkpt lat="44.46463" lon="6.85765">
        <ele>2105.4</ele>
        <time>2022-08-16T09:44:02Z</time>
      </trkpt>
      <trkpt lat="44.46463" lon="6.85767">
        <ele>2105.4</ele>
        <time>2022-08-16T09:44:03Z</time>
      </trkpt>
      <trkpt lat="44.46463" lon="6.85769">
        <ele>2105.4</ele>
        <time>2022-08-16T09:44:04Z</time>
      </trkpt>
      <trkpt lat="44.46464" lon="6.85773">
        <ele>2105</ele>
        <time>2022-08-16T09:44:06Z</time>
      </trkpt>
      <trkpt lat="44.46464" lon="6.85775">
        <ele>2105</ele>
        <time>2022-08-16T09:44:07Z</time>
      </trkpt>
      <trkpt lat="44.46465" lon="6.85777">
        <ele>2105.2</ele>
        <time>2022-08-16T09:44:08Z</time>
      </trkpt>
      <trkpt lat="44.46465" lon="6.85779">
        <ele>2105</ele>
        <time>2022-08-16T09:44:09Z</time>
      </trkpt>
      <trkpt lat="44.46465" lon="6.85787">
        <ele>2105</ele>
        <time>2022-08-16T09:44:13Z</time>
      </trkpt>
      <trkpt lat="44.46465" lon="6.85795">
        <ele>2105</ele>
        <time>2022-08-16T09:44:16Z</time>
      </trkpt>
      <trkpt lat="44.46465" lon="6.85797">
        <ele>2104.8</ele>
        <time>2022-08-16T09:44:17Z</time>
      </trkpt>
      <trkpt lat="44.46466" lon="6.858">
        <ele>2104.8</ele>
        <time>2022-08-16T09:44:18Z</time>
      </trkpt>
      <trkpt lat="44.46466" lon="6.85802">
        <ele>2105</ele>
        <time>2022-08-16T09:44:19Z</time>
      </trkpt>
      <trkpt lat="44.46466" lon="6.85805">
        <ele>2105</ele>
        <time>2022-08-16T09:44:20Z</time>
      </trkpt>
      <trkpt lat="44.46466" lon="6.85806">
        <ele>2105</ele>
        <time>2022-08-16T09:44:21Z</time>
      </trkpt>
      <trkpt lat="44.46466" lon="6.85807">
        <ele>2105</ele>
        <time>2022-08-16T09:44:22Z</time>
      </trkpt>
      <trkpt lat="44.46467" lon="6.85811">
        <ele>2105</ele>
        <time>2022-08-16T09:44:25Z</time>
      </trkpt>
      <trkpt lat="44.46468" lon="6.85823">
        <ele>2105.2</ele>
        <time>2022-08-16T09:44:31Z</time>
      </trkpt>
      <trkpt lat="44.46469" lon="6.85827">
        <ele>2105.4</ele>
        <time>2022-08-16T09:44:33Z</time>
      </trkpt>
      <trkpt lat="44.4647" lon="6.85833">
        <ele>2105.4</ele>
        <time>2022-08-16T09:44:36Z</time>
      </trkpt>
      <trkpt lat="44.4647" lon="6.85837">
        <ele>2105.6</ele>
        <time>2022-08-16T09:44:38Z</time>
      </trkpt>
      <trkpt lat="44.46471" lon="6.85839">
        <ele>2105.6</ele>
        <time>2022-08-16T09:44:39Z</time>
      </trkpt>
      <trkpt lat="44.46471" lon="6.85841">
        <ele>2105.6</ele>
        <time>2022-08-16T09:44:40Z</time>
      </trkpt>
      <trkpt lat="44.46472" lon="6.85842">
        <ele>2105.8</ele>
        <time>2022-08-16T09:44:41Z</time>
      </trkpt>
      <trkpt lat="44.46472" lon="6.85842">
        <ele>2106.2</ele>
        <time>2022-08-16T09:44:45Z</time>
      </trkpt>
      <trkpt lat="44.46472" lon="6.85842">
        <ele>2106.2</ele>
        <time>2022-08-16T09:44:46Z</time>
      </trkpt>
      <trkpt lat="44.46473" lon="6.85849">
        <ele>2106.6</ele>
        <time>2022-08-16T09:44:51Z</time>
      </trkpt>
      <trkpt lat="44.46473" lon="6.85856">
        <ele>2107</ele>
        <time>2022-08-16T09:44:54Z</time>
      </trkpt>
      <trkpt lat="44.46473" lon="6.85857">
        <ele>2107</ele>
        <time>2022-08-16T09:44:55Z</time>
      </trkpt>
      <trkpt lat="44.46473" lon="6.85859">
        <ele>2107.2</ele>
        <time>2022-08-16T09:44:56Z</time>
      </trkpt>
      <trkpt lat="44.46472" lon="6.85867">
        <ele>2107.4</ele>
        <time>2022-08-16T09:44:59Z</time>
      </trkpt>
      <trkpt lat="44.46472" lon="6.85869">
        <ele>2107.4</ele>
        <time>2022-08-16T09:45:00Z</time>
      </trkpt>
      <trkpt lat="44.46472" lon="6.85871">
        <ele>2107.6</ele>
        <time>2022-08-16T09:45:01Z</time>
      </trkpt>
      <trkpt lat="44.46472" lon="6.85872">
        <ele>2107.6</ele>
        <time>2022-08-16T09:45:02Z</time>
      </trkpt>
      <trkpt lat="44.46472" lon="6.85872">
        <ele>2107.8</ele>
        <time>2022-08-16T09:45:04Z</time>
      </trkpt>
      <trkpt lat="44.46472" lon="6.85872">
        <ele>2107.8</ele>
        <time>2022-08-16T09:45:05Z</time>
      </trkpt>
      <trkpt lat="44.46472" lon="6.85872">
        <ele>2107.8</ele>
        <time>2022-08-16T09:45:07Z</time>
      </trkpt>
      <trkpt lat="44.46472" lon="6.85872">
        <ele>2107.8</ele>
        <time>2022-08-16T09:45:09Z</time>
      </trkpt>
      <trkpt lat="44.46472" lon="6.85875">
        <ele>2108.4</ele>
        <time>2022-08-16T09:45:19Z</time>
      </trkpt>
      <trkpt lat="44.46472" lon="6.85877">
        <ele>2108.4</ele>
        <time>2022-08-16T09:45:20Z</time>
      </trkpt>
      <trkpt lat="44.46472" lon="6.85883">
        <ele>2108.4</ele>
        <time>2022-08-16T09:45:23Z</time>
      </trkpt>
      <trkpt lat="44.46472" lon="6.85885">
        <ele>2108.4</ele>
        <time>2022-08-16T09:45:24Z</time>
      </trkpt>
      <trkpt lat="44.46472" lon="6.85893">
        <ele>2108.2</ele>
        <time>2022-08-16T09:45:27Z</time>
      </trkpt>
      <trkpt lat="44.46472" lon="6.85895">
        <ele>2108.4</ele>
        <time>2022-08-16T09:45:28Z</time>
      </trkpt>
      <trkpt lat="44.46472" lon="6.85897">
        <ele>2108.4</ele>
        <time>2022-08-16T09:45:29Z</time>
      </trkpt>
      <trkpt lat="44.46473" lon="6.859">
        <ele>2108.4</ele>
        <time>2022-08-16T09:45:30Z</time>
      </trkpt>
      <trkpt lat="44.46473" lon="6.85911">
        <ele>2108.4</ele>
        <time>2022-08-16T09:45:34Z</time>
      </trkpt>
      <trkpt lat="44.46472" lon="6.85913">
        <ele>2108.4</ele>
        <time>2022-08-16T09:45:35Z</time>
      </trkpt>
      <trkpt lat="44.46472" lon="6.85916">
        <ele>2108.6</ele>
        <time>2022-08-16T09:45:36Z</time>
      </trkpt>
      <trkpt lat="44.46472" lon="6.85918">
        <ele>2108.4</ele>
        <time>2022-08-16T09:45:37Z</time>
      </trkpt>
      <trkpt lat="44.46471" lon="6.8592">
        <ele>2108.6</ele>
        <time>2022-08-16T09:45:38Z</time>
      </trkpt>
      <trkpt lat="44.4647" lon="6.85922">
        <ele>2108.6</ele>
        <time>2022-08-16T09:45:39Z</time>
      </trkpt>
      <trkpt lat="44.46468" lon="6.85926">
        <ele>2108.8</ele>
        <time>2022-08-16T09:45:41Z</time>
      </trkpt>
      <trkpt lat="44.46465" lon="6.85939">
        <ele>2109</ele>
        <time>2022-08-16T09:45:46Z</time>
      </trkpt>
      <trkpt lat="44.46464" lon="6.85941">
        <ele>2109</ele>
        <time>2022-08-16T09:45:47Z</time>
      </trkpt>
      <trkpt lat="44.46464" lon="6.85943">
        <ele>2109.2</ele>
        <time>2022-08-16T09:45:48Z</time>
      </trkpt>
      <trkpt lat="44.46463" lon="6.8595">
        <ele>2109.2</ele>
        <time>2022-08-16T09:45:51Z</time>
      </trkpt>
      <trkpt lat="44.46462" lon="6.85952">
        <ele>2109.2</ele>
        <time>2022-08-16T09:45:52Z</time>
      </trkpt>
      <trkpt lat="44.46462" lon="6.85954">
        <ele>2109.2</ele>
        <time>2022-08-16T09:45:53Z</time>
      </trkpt>
      <trkpt lat="44.46462" lon="6.85956">
        <ele>2109.4</ele>
        <time>2022-08-16T09:45:54Z</time>
      </trkpt>
      <trkpt lat="44.46461" lon="6.85962">
        <ele>2109.6</ele>
        <time>2022-08-16T09:45:57Z</time>
      </trkpt>
      <trkpt lat="44.46461" lon="6.85964">
        <ele>2110.2</ele>
        <time>2022-08-16T09:45:58Z</time>
      </trkpt>
      <trkpt lat="44.46461" lon="6.85966">
        <ele>2110.4</ele>
        <time>2022-08-16T09:45:59Z</time>
      </trkpt>
      <trkpt lat="44.4646" lon="6.85971">
        <ele>2110.8</ele>
        <time>2022-08-16T09:46:01Z</time>
      </trkpt>
      <trkpt lat="44.46459" lon="6.85973">
        <ele>2110.8</ele>
        <time>2022-08-16T09:46:02Z</time>
      </trkpt>
      <trkpt lat="44.46459" lon="6.85975">
        <ele>2110.8</ele>
        <time>2022-08-16T09:46:03Z</time>
      </trkpt>
      <trkpt lat="44.46459" lon="6.85979">
        <ele>2110.6</ele>
        <time>2022-08-16T09:46:05Z</time>
      </trkpt>
      <trkpt lat="44.46459" lon="6.85982">
        <ele>2110.8</ele>
        <time>2022-08-16T09:46:06Z</time>
      </trkpt>
      <trkpt lat="44.4646" lon="6.85984">
        <ele>2110.8</ele>
        <time>2022-08-16T09:46:07Z</time>
      </trkpt>
      <trkpt lat="44.4646" lon="6.85988">
        <ele>2110.8</ele>
        <time>2022-08-16T09:46:09Z</time>
      </trkpt>
      <trkpt lat="44.4646" lon="6.85993">
        <ele>2111</ele>
        <time>2022-08-16T09:46:11Z</time>
      </trkpt>
      <trkpt lat="44.4646" lon="6.85995">
        <ele>2111</ele>
        <time>2022-08-16T09:46:12Z</time>
      </trkpt>
      <trkpt lat="44.4646" lon="6.85998">
        <ele>2111</ele>
        <time>2022-08-16T09:46:13Z</time>
      </trkpt>
      <trkpt lat="44.4646" lon="6.86">
        <ele>2111</ele>
        <time>2022-08-16T09:46:14Z</time>
      </trkpt>
      <trkpt lat="44.4646" lon="6.86002">
        <ele>2111</ele>
        <time>2022-08-16T09:46:15Z</time>
      </trkpt>
      <trkpt lat="44.4646" lon="6.86004">
        <ele>2111</ele>
        <time>2022-08-16T09:46:16Z</time>
      </trkpt>
      <trkpt lat="44.46461" lon="6.86006">
        <ele>2111</ele>
        <time>2022-08-16T09:46:17Z</time>
      </trkpt>
      <trkpt lat="44.46461" lon="6.86008">
        <ele>2111</ele>
        <time>2022-08-16T09:46:18Z</time>
      </trkpt>
      <trkpt lat="44.46461" lon="6.86009">
        <ele>2111</ele>
        <time>2022-08-16T09:46:19Z</time>
      </trkpt>
      <trkpt lat="44.4646" lon="6.86018">
        <ele>2111.2</ele>
        <time>2022-08-16T09:46:23Z</time>
      </trkpt>
      <trkpt lat="44.46458" lon="6.86029">
        <ele>2111.2</ele>
        <time>2022-08-16T09:46:27Z</time>
      </trkpt>
      <trkpt lat="44.46458" lon="6.86038">
        <ele>2111.2</ele>
        <time>2022-08-16T09:46:30Z</time>
      </trkpt>
      <trkpt lat="44.46458" lon="6.86041">
        <ele>2111.2</ele>
        <time>2022-08-16T09:46:31Z</time>
      </trkpt>
      <trkpt lat="44.46458" lon="6.86044">
        <ele>2111.4</ele>
        <time>2022-08-16T09:46:32Z</time>
      </trkpt>
      <trkpt lat="44.46459" lon="6.86046">
        <ele>2111.2</ele>
        <time>2022-08-16T09:46:33Z</time>
      </trkpt>
      <trkpt lat="44.46459" lon="6.86048">
        <ele>2111.4</ele>
        <time>2022-08-16T09:46:34Z</time>
      </trkpt>
      <trkpt lat="44.46459" lon="6.8605">
        <ele>2111.4</ele>
        <time>2022-08-16T09:46:35Z</time>
      </trkpt>
      <trkpt lat="44.46459" lon="6.86051">
        <ele>2111.4</ele>
        <time>2022-08-16T09:46:36Z</time>
      </trkpt>
      <trkpt lat="44.46459" lon="6.86053">
        <ele>2111.2</ele>
        <time>2022-08-16T09:46:37Z</time>
      </trkpt>
      <trkpt lat="44.4646" lon="6.86055">
        <ele>2111.4</ele>
        <time>2022-08-16T09:46:38Z</time>
      </trkpt>
      <trkpt lat="44.4646" lon="6.86056">
        <ele>2111.4</ele>
        <time>2022-08-16T09:46:39Z</time>
      </trkpt>
      <trkpt lat="44.4646" lon="6.86058">
        <ele>2111.4</ele>
        <time>2022-08-16T09:46:40Z</time>
      </trkpt>
      <trkpt lat="44.4646" lon="6.86062">
        <ele>2111.6</ele>
        <time>2022-08-16T09:46:42Z</time>
      </trkpt>
      <trkpt lat="44.46459" lon="6.86064">
        <ele>2111.8</ele>
        <time>2022-08-16T09:46:43Z</time>
      </trkpt>
      <trkpt lat="44.46459" lon="6.86069">
        <ele>2112.2</ele>
        <time>2022-08-16T09:46:46Z</time>
      </trkpt>
      <trkpt lat="44.46459" lon="6.86071">
        <ele>2112.2</ele>
        <time>2022-08-16T09:46:47Z</time>
      </trkpt>
      <trkpt lat="44.46459" lon="6.86074">
        <ele>2112.2</ele>
        <time>2022-08-16T09:46:49Z</time>
      </trkpt>
      <trkpt lat="44.4646" lon="6.86076">
        <ele>2112.4</ele>
        <time>2022-08-16T09:46:50Z</time>
      </trkpt>
      <trkpt lat="44.46462" lon="6.86082">
        <ele>2112.6</ele>
        <time>2022-08-16T09:46:53Z</time>
      </trkpt>
      <trkpt lat="44.46462" lon="6.86084">
        <ele>2112.4</ele>
        <time>2022-08-16T09:46:54Z</time>
      </trkpt>
      <trkpt lat="44.46461" lon="6.86085">
        <ele>2112.4</ele>
        <time>2022-08-16T09:46:55Z</time>
      </trkpt>
      <trkpt lat="44.46461" lon="6.86086">
        <ele>2112.4</ele>
        <time>2022-08-16T09:46:56Z</time>
      </trkpt>
      <trkpt lat="44.46461" lon="6.86087">
        <ele>2113.2</ele>
        <time>2022-08-16T09:47:05Z</time>
      </trkpt>
      <trkpt lat="44.46461" lon="6.86087">
        <ele>2113.4</ele>
        <time>2022-08-16T09:47:08Z</time>
      </trkpt>
      <trkpt lat="44.46461" lon="6.86087">
        <ele>2113.4</ele>
        <time>2022-08-16T09:47:10Z</time>
      </trkpt>
      <trkpt lat="44.46461" lon="6.86088">
        <ele>2113.6</ele>
        <time>2022-08-16T09:47:12Z</time>
      </trkpt>
      <trkpt lat="44.46461" lon="6.86087">
        <ele>2113.8</ele>
        <time>2022-08-16T09:47:25Z</time>
      </trkpt>
      <trkpt lat="44.46461" lon="6.86087">
        <ele>2113.8</ele>
        <time>2022-08-16T09:47:26Z</time>
      </trkpt>
      <trkpt lat="44.4646" lon="6.86087">
        <ele>2113.8</ele>
        <time>2022-08-16T09:47:30Z</time>
      </trkpt>
      <trkpt lat="44.4646" lon="6.86087">
        <ele>2113.8</ele>
        <time>2022-08-16T09:47:33Z</time>
      </trkpt>
      <trkpt lat="44.46458" lon="6.86086">
        <ele>2113.8</ele>
        <time>2022-08-16T09:47:35Z</time>
      </trkpt>
      <trkpt lat="44.46457" lon="6.86085">
        <ele>2113.8</ele>
        <time>2022-08-16T09:47:36Z</time>
      </trkpt>
      <trkpt lat="44.46455" lon="6.86084">
        <ele>2113.6</ele>
        <time>2022-08-16T09:47:37Z</time>
      </trkpt>
      <trkpt lat="44.46454" lon="6.86083">
        <ele>2113.4</ele>
        <time>2022-08-16T09:47:38Z</time>
      </trkpt>
      <trkpt lat="44.46453" lon="6.86083">
        <ele>2113.4</ele>
        <time>2022-08-16T09:47:39Z</time>
      </trkpt>
      <trkpt lat="44.46451" lon="6.86084">
        <ele>2113.2</ele>
        <time>2022-08-16T09:47:40Z</time>
      </trkpt>
      <trkpt lat="44.46449" lon="6.86085">
        <ele>2113.2</ele>
        <time>2022-08-16T09:47:41Z</time>
      </trkpt>
      <trkpt lat="44.46447" lon="6.86085">
        <ele>2113</ele>
        <time>2022-08-16T09:47:42Z</time>
      </trkpt>
      <trkpt lat="44.46442" lon="6.86085">
        <ele>2112.2</ele>
        <time>2022-08-16T09:47:44Z</time>
      </trkpt>
      <trkpt lat="44.4644" lon="6.86085">
        <ele>2111.6</ele>
        <time>2022-08-16T09:47:45Z</time>
      </trkpt>
      <trkpt lat="44.46434" lon="6.86083">
        <ele>2110.6</ele>
        <time>2022-08-16T09:47:47Z</time>
      </trkpt>
      <trkpt lat="44.46432" lon="6.86083">
        <ele>2109.8</ele>
        <time>2022-08-16T09:47:48Z</time>
      </trkpt>
      <trkpt lat="44.4643" lon="6.86082">
        <ele>2109</ele>
        <time>2022-08-16T09:47:49Z</time>
      </trkpt>
      <trkpt lat="44.46425" lon="6.86081">
        <ele>2107</ele>
        <time>2022-08-16T09:47:51Z</time>
      </trkpt>
      <trkpt lat="44.4642" lon="6.86079">
        <ele>2105.2</ele>
        <time>2022-08-16T09:47:53Z</time>
      </trkpt>
      <trkpt lat="44.46419" lon="6.86079">
        <ele>2104.2</ele>
        <time>2022-08-16T09:47:54Z</time>
      </trkpt>
      <trkpt lat="44.46417" lon="6.8608">
        <ele>2102.8</ele>
        <time>2022-08-16T09:47:55Z</time>
      </trkpt>
      <trkpt lat="44.46415" lon="6.86081">
        <ele>2101.4</ele>
        <time>2022-08-16T09:47:56Z</time>
      </trkpt>
      <trkpt lat="44.46414" lon="6.86082">
        <ele>2100</ele>
        <time>2022-08-16T09:47:57Z</time>
      </trkpt>
      <trkpt lat="44.46411" lon="6.86083">
        <ele>2099.2</ele>
        <time>2022-08-16T09:47:58Z</time>
      </trkpt>
      <trkpt lat="44.46408" lon="6.86083">
        <ele>2098.4</ele>
        <time>2022-08-16T09:47:59Z</time>
      </trkpt>
      <trkpt lat="44.46406" lon="6.86084">
        <ele>2097</ele>
        <time>2022-08-16T09:48:00Z</time>
      </trkpt>
      <trkpt lat="44.46404" lon="6.86084">
        <ele>2096.2</ele>
        <time>2022-08-16T09:48:01Z</time>
      </trkpt>
      <trkpt lat="44.46403" lon="6.86084">
        <ele>2095.6</ele>
        <time>2022-08-16T09:48:02Z</time>
      </trkpt>
      <trkpt lat="44.46401" lon="6.86084">
        <ele>2095</ele>
        <time>2022-08-16T09:48:03Z</time>
      </trkpt>
      <trkpt lat="44.464" lon="6.86085">
        <ele>2093.6</ele>
        <time>2022-08-16T09:48:04Z</time>
      </trkpt>
      <trkpt lat="44.46395" lon="6.86086">
        <ele>2090.8</ele>
        <time>2022-08-16T09:48:06Z</time>
      </trkpt>
      <trkpt lat="44.46393" lon="6.86086">
        <ele>2090</ele>
        <time>2022-08-16T09:48:07Z</time>
      </trkpt>
      <trkpt lat="44.46391" lon="6.86087">
        <ele>2089.4</ele>
        <time>2022-08-16T09:48:08Z</time>
      </trkpt>
      <trkpt lat="44.4639" lon="6.86087">
        <ele>2089.4</ele>
        <time>2022-08-16T09:48:09Z</time>
      </trkpt>
      <trkpt lat="44.46389" lon="6.86087">
        <ele>2089</ele>
        <time>2022-08-16T09:48:10Z</time>
      </trkpt>
      <trkpt lat="44.46386" lon="6.86089">
        <ele>2088</ele>
        <time>2022-08-16T09:48:12Z</time>
      </trkpt>
      <trkpt lat="44.46386" lon="6.86089">
        <ele>2087.2</ele>
        <time>2022-08-16T09:48:13Z</time>
      </trkpt>
      <trkpt lat="44.46384" lon="6.8609">
        <ele>2085.6</ele>
        <time>2022-08-16T09:48:15Z</time>
      </trkpt>
      <trkpt lat="44.46383" lon="6.86089">
        <ele>2084.4</ele>
        <time>2022-08-16T09:48:16Z</time>
      </trkpt>
      <trkpt lat="44.46381" lon="6.86089">
        <ele>2083.8</ele>
        <time>2022-08-16T09:48:17Z</time>
      </trkpt>
      <trkpt lat="44.46374" lon="6.86087">
        <ele>2082.6</ele>
        <time>2022-08-16T09:48:20Z</time>
      </trkpt>
      <trkpt lat="44.46371" lon="6.86087">
        <ele>2082.4</ele>
        <time>2022-08-16T09:48:21Z</time>
      </trkpt>
      <trkpt lat="44.46368" lon="6.86087">
        <ele>2082.2</ele>
        <time>2022-08-16T09:48:22Z</time>
      </trkpt>
      <trkpt lat="44.46366" lon="6.86086">
        <ele>2081.8</ele>
        <time>2022-08-16T09:48:23Z</time>
      </trkpt>
      <trkpt lat="44.46364" lon="6.86087">
        <ele>2081.8</ele>
        <time>2022-08-16T09:48:24Z</time>
      </trkpt>
      <trkpt lat="44.46363" lon="6.86089">
        <ele>2080.8</ele>
        <time>2022-08-16T09:48:25Z</time>
      </trkpt>
      <trkpt lat="44.46362" lon="6.8609">
        <ele>2079.6</ele>
        <time>2022-08-16T09:48:26Z</time>
      </trkpt>
      <trkpt lat="44.46362" lon="6.86091">
        <ele>2078.6</ele>
        <time>2022-08-16T09:48:27Z</time>
      </trkpt>
      <trkpt lat="44.46361" lon="6.86092">
        <ele>2076.8</ele>
        <time>2022-08-16T09:48:29Z</time>
      </trkpt>
      <trkpt lat="44.4636" lon="6.86093">
        <ele>2076</ele>
        <time>2022-08-16T09:48:30Z</time>
      </trkpt>
      <trkpt lat="44.46359" lon="6.86093">
        <ele>2076</ele>
        <time>2022-08-16T09:48:31Z</time>
      </trkpt>
      <trkpt lat="44.46358" lon="6.86093">
        <ele>2075</ele>
        <time>2022-08-16T09:48:32Z</time>
      </trkpt>
      <trkpt lat="44.46357" lon="6.86093">
        <ele>2073.8</ele>
        <time>2022-08-16T09:48:33Z</time>
      </trkpt>
      <trkpt lat="44.46356" lon="6.86092">
        <ele>2073.2</ele>
        <time>2022-08-16T09:48:34Z</time>
      </trkpt>
      <trkpt lat="44.46355" lon="6.86092">
        <ele>2073</ele>
        <time>2022-08-16T09:48:35Z</time>
      </trkpt>
      <trkpt lat="44.46349" lon="6.86091">
        <ele>2072.4</ele>
        <time>2022-08-16T09:48:38Z</time>
      </trkpt>
      <trkpt lat="44.46347" lon="6.86092">
        <ele>2072.2</ele>
        <time>2022-08-16T09:48:39Z</time>
      </trkpt>
      <trkpt lat="44.46342" lon="6.86093">
        <ele>2071.8</ele>
        <time>2022-08-16T09:48:41Z</time>
      </trkpt>
      <trkpt lat="44.4634" lon="6.86094">
        <ele>2071.4</ele>
        <time>2022-08-16T09:48:42Z</time>
      </trkpt>
      <trkpt lat="44.46338" lon="6.86096">
        <ele>2071</ele>
        <time>2022-08-16T09:48:43Z</time>
      </trkpt>
      <trkpt lat="44.46336" lon="6.86098">
        <ele>2070.4</ele>
        <time>2022-08-16T09:48:44Z</time>
      </trkpt>
      <trkpt lat="44.46335" lon="6.861">
        <ele>2070</ele>
        <time>2022-08-16T09:48:45Z</time>
      </trkpt>
      <trkpt lat="44.46335" lon="6.86103">
        <ele>2069.8</ele>
        <time>2022-08-16T09:48:46Z</time>
      </trkpt>
      <trkpt lat="44.46335" lon="6.86105">
        <ele>2069.6</ele>
        <time>2022-08-16T09:48:47Z</time>
      </trkpt>
      <trkpt lat="44.46336" lon="6.86111">
        <ele>2068.8</ele>
        <time>2022-08-16T09:48:49Z</time>
      </trkpt>
      <trkpt lat="44.46336" lon="6.86113">
        <ele>2067.8</ele>
        <time>2022-08-16T09:48:50Z</time>
      </trkpt>
      <trkpt lat="44.46338" lon="6.86127">
        <ele>2065.6</ele>
        <time>2022-08-16T09:48:55Z</time>
      </trkpt>
      <trkpt lat="44.46339" lon="6.8613">
        <ele>2065.4</ele>
        <time>2022-08-16T09:48:56Z</time>
      </trkpt>
      <trkpt lat="44.46339" lon="6.86133">
        <ele>2065.2</ele>
        <time>2022-08-16T09:48:57Z</time>
      </trkpt>
      <trkpt lat="44.46339" lon="6.8615">
        <ele>2065.2</ele>
        <time>2022-08-16T09:49:02Z</time>
      </trkpt>
      <trkpt lat="44.46339" lon="6.86155">
        <ele>2065</ele>
        <time>2022-08-16T09:49:03Z</time>
      </trkpt>
      <trkpt lat="44.46339" lon="6.86158">
        <ele>2065.2</ele>
        <time>2022-08-16T09:49:04Z</time>
      </trkpt>
      <trkpt lat="44.46339" lon="6.86166">
        <ele>2065.2</ele>
        <time>2022-08-16T09:49:06Z</time>
      </trkpt>
      <trkpt lat="44.46339" lon="6.86178">
        <ele>2065.2</ele>
        <time>2022-08-16T09:49:09Z</time>
      </trkpt>
      <trkpt lat="44.4634" lon="6.86181">
        <ele>2065.2</ele>
        <time>2022-08-16T09:49:10Z</time>
      </trkpt>
      <trkpt lat="44.4634" lon="6.86184">
        <ele>2065.2</ele>
        <time>2022-08-16T09:49:11Z</time>
      </trkpt>
      <trkpt lat="44.46341" lon="6.86187">
        <ele>2065.2</ele>
        <time>2022-08-16T09:49:12Z</time>
      </trkpt>
      <trkpt lat="44.46341" lon="6.86189">
        <ele>2065.2</ele>
        <time>2022-08-16T09:49:13Z</time>
      </trkpt>
      <trkpt lat="44.46341" lon="6.86191">
        <ele>2065.2</ele>
        <time>2022-08-16T09:49:14Z</time>
      </trkpt>
      <trkpt lat="44.46342" lon="6.86193">
        <ele>2065.2</ele>
        <time>2022-08-16T09:49:15Z</time>
      </trkpt>
      <trkpt lat="44.46342" lon="6.86195">
        <ele>2065.2</ele>
        <time>2022-08-16T09:49:16Z</time>
      </trkpt>
      <trkpt lat="44.46343" lon="6.86197">
        <ele>2065.2</ele>
        <time>2022-08-16T09:49:17Z</time>
      </trkpt>
      <trkpt lat="44.46344" lon="6.86198">
        <ele>2065.4</ele>
        <time>2022-08-16T09:49:18Z</time>
      </trkpt>
      <trkpt lat="44.46345" lon="6.862">
        <ele>2065.2</ele>
        <time>2022-08-16T09:49:19Z</time>
      </trkpt>
      <trkpt lat="44.46346" lon="6.86202">
        <ele>2065.2</ele>
        <time>2022-08-16T09:49:20Z</time>
      </trkpt>
      <trkpt lat="44.46347" lon="6.86205">
        <ele>2065.2</ele>
        <time>2022-08-16T09:49:21Z</time>
      </trkpt>
      <trkpt lat="44.46347" lon="6.86207">
        <ele>2065.4</ele>
        <time>2022-08-16T09:49:22Z</time>
      </trkpt>
      <trkpt lat="44.46348" lon="6.86208">
        <ele>2065.6</ele>
        <time>2022-08-16T09:49:23Z</time>
      </trkpt>
      <trkpt lat="44.46349" lon="6.8621">
        <ele>2066.2</ele>
        <time>2022-08-16T09:49:24Z</time>
      </trkpt>
      <trkpt lat="44.4635" lon="6.86212">
        <ele>2066.6</ele>
        <time>2022-08-16T09:49:25Z</time>
      </trkpt>
      <trkpt lat="44.46352" lon="6.86215">
        <ele>2067</ele>
        <time>2022-08-16T09:49:26Z</time>
      </trkpt>
      <trkpt lat="44.46353" lon="6.86217">
        <ele>2067.4</ele>
        <time>2022-08-16T09:49:27Z</time>
      </trkpt>
      <trkpt lat="44.46354" lon="6.86219">
        <ele>2067.4</ele>
        <time>2022-08-16T09:49:28Z</time>
      </trkpt>
      <trkpt lat="44.46356" lon="6.86221">
        <ele>2067.8</ele>
        <time>2022-08-16T09:49:29Z</time>
      </trkpt>
      <trkpt lat="44.46357" lon="6.86223">
        <ele>2068</ele>
        <time>2022-08-16T09:49:30Z</time>
      </trkpt>
      <trkpt lat="44.46359" lon="6.86226">
        <ele>2068</ele>
        <time>2022-08-16T09:49:31Z</time>
      </trkpt>
      <trkpt lat="44.4636" lon="6.86229">
        <ele>2068.2</ele>
        <time>2022-08-16T09:49:32Z</time>
      </trkpt>
      <trkpt lat="44.46362" lon="6.86232">
        <ele>2068.4</ele>
        <time>2022-08-16T09:49:33Z</time>
      </trkpt>
      <trkpt lat="44.46363" lon="6.86234">
        <ele>2068.2</ele>
        <time>2022-08-16T09:49:34Z</time>
      </trkpt>
      <trkpt lat="44.46364" lon="6.86237">
        <ele>2068.4</ele>
        <time>2022-08-16T09:49:35Z</time>
      </trkpt>
      <trkpt lat="44.46365" lon="6.86239">
        <ele>2068.4</ele>
        <time>2022-08-16T09:49:36Z</time>
      </trkpt>
      <trkpt lat="44.46366" lon="6.86241">
        <ele>2068.6</ele>
        <time>2022-08-16T09:49:37Z</time>
      </trkpt>
      <trkpt lat="44.46368" lon="6.86247">
        <ele>2068.4</ele>
        <time>2022-08-16T09:49:39Z</time>
      </trkpt>
      <trkpt lat="44.46369" lon="6.86249">
        <ele>2068.4</ele>
        <time>2022-08-16T09:49:40Z</time>
      </trkpt>
      <trkpt lat="44.4637" lon="6.86251">
        <ele>2068.4</ele>
        <time>2022-08-16T09:49:41Z</time>
      </trkpt>
      <trkpt lat="44.46373" lon="6.86255">
        <ele>2068.4</ele>
        <time>2022-08-16T09:49:43Z</time>
      </trkpt>
      <trkpt lat="44.46377" lon="6.86271">
        <ele>2068.6</ele>
        <time>2022-08-16T09:49:48Z</time>
      </trkpt>
      <trkpt lat="44.46377" lon="6.86274">
        <ele>2068.6</ele>
        <time>2022-08-16T09:49:49Z</time>
      </trkpt>
      <trkpt lat="44.46377" lon="6.86276">
        <ele>2068.6</ele>
        <time>2022-08-16T09:49:50Z</time>
      </trkpt>
      <trkpt lat="44.46377" lon="6.86279">
        <ele>2068.6</ele>
        <time>2022-08-16T09:49:51Z</time>
      </trkpt>
      <trkpt lat="44.46376" lon="6.86281">
        <ele>2068.8</ele>
        <time>2022-08-16T09:49:52Z</time>
      </trkpt>
      <trkpt lat="44.46376" lon="6.86283">
        <ele>2068.8</ele>
        <time>2022-08-16T09:49:53Z</time>
      </trkpt>
      <trkpt lat="44.46375" lon="6.86288">
        <ele>2068.8</ele>
        <time>2022-08-16T09:49:55Z</time>
      </trkpt>
      <trkpt lat="44.46375" lon="6.86291">
        <ele>2068.8</ele>
        <time>2022-08-16T09:49:56Z</time>
      </trkpt>
      <trkpt lat="44.46375" lon="6.86293">
        <ele>2069</ele>
        <time>2022-08-16T09:49:57Z</time>
      </trkpt>
      <trkpt lat="44.46375" lon="6.86295">
        <ele>2068.8</ele>
        <time>2022-08-16T09:49:58Z</time>
      </trkpt>
      <trkpt lat="44.46375" lon="6.86297">
        <ele>2069</ele>
        <time>2022-08-16T09:49:59Z</time>
      </trkpt>
      <trkpt lat="44.46375" lon="6.86298">
        <ele>2069</ele>
        <time>2022-08-16T09:50:00Z</time>
      </trkpt>
      <trkpt lat="44.46376" lon="6.863">
        <ele>2069</ele>
        <time>2022-08-16T09:50:01Z</time>
      </trkpt>
      <trkpt lat="44.46377" lon="6.86302">
        <ele>2069</ele>
        <time>2022-08-16T09:50:02Z</time>
      </trkpt>
      <trkpt lat="44.46378" lon="6.86304">
        <ele>2069.2</ele>
        <time>2022-08-16T09:50:03Z</time>
      </trkpt>
      <trkpt lat="44.46379" lon="6.86306">
        <ele>2069.4</ele>
        <time>2022-08-16T09:50:04Z</time>
      </trkpt>
      <trkpt lat="44.46382" lon="6.86309">
        <ele>2069.6</ele>
        <time>2022-08-16T09:50:05Z</time>
      </trkpt>
      <trkpt lat="44.46384" lon="6.86312">
        <ele>2069.8</ele>
        <time>2022-08-16T09:50:06Z</time>
      </trkpt>
      <trkpt lat="44.46387" lon="6.86319">
        <ele>2070</ele>
        <time>2022-08-16T09:50:08Z</time>
      </trkpt>
      <trkpt lat="44.46388" lon="6.86321">
        <ele>2070</ele>
        <time>2022-08-16T09:50:09Z</time>
      </trkpt>
      <trkpt lat="44.46389" lon="6.86324">
        <ele>2070.2</ele>
        <time>2022-08-16T09:50:10Z</time>
      </trkpt>
      <trkpt lat="44.46392" lon="6.86333">
        <ele>2070.2</ele>
        <time>2022-08-16T09:50:13Z</time>
      </trkpt>
      <trkpt lat="44.46392" lon="6.86336">
        <ele>2070.2</ele>
        <time>2022-08-16T09:50:14Z</time>
      </trkpt>
      <trkpt lat="44.46392" lon="6.86339">
        <ele>2070.2</ele>
        <time>2022-08-16T09:50:15Z</time>
      </trkpt>
      <trkpt lat="44.46393" lon="6.86342">
        <ele>2070</ele>
        <time>2022-08-16T09:50:16Z</time>
      </trkpt>
      <trkpt lat="44.46393" lon="6.86345">
        <ele>2070</ele>
        <time>2022-08-16T09:50:17Z</time>
      </trkpt>
      <trkpt lat="44.46393" lon="6.86347">
        <ele>2070.2</ele>
        <time>2022-08-16T09:50:18Z</time>
      </trkpt>
      <trkpt lat="44.46393" lon="6.8635">
        <ele>2070</ele>
        <time>2022-08-16T09:50:19Z</time>
      </trkpt>
      <trkpt lat="44.46393" lon="6.86352">
        <ele>2070</ele>
        <time>2022-08-16T09:50:20Z</time>
      </trkpt>
      <trkpt lat="44.46393" lon="6.86354">
        <ele>2070</ele>
        <time>2022-08-16T09:50:21Z</time>
      </trkpt>
      <trkpt lat="44.46393" lon="6.86356">
        <ele>2070</ele>
        <time>2022-08-16T09:50:22Z</time>
      </trkpt>
      <trkpt lat="44.46393" lon="6.86358">
        <ele>2070</ele>
        <time>2022-08-16T09:50:23Z</time>
      </trkpt>
      <trkpt lat="44.46393" lon="6.8636">
        <ele>2069.8</ele>
        <time>2022-08-16T09:50:24Z</time>
      </trkpt>
      <trkpt lat="44.46393" lon="6.86364">
        <ele>2070</ele>
        <time>2022-08-16T09:50:26Z</time>
      </trkpt>
      <trkpt lat="44.46393" lon="6.86367">
        <ele>2070</ele>
        <time>2022-08-16T09:50:28Z</time>
      </trkpt>
      <trkpt lat="44.46393" lon="6.86369">
        <ele>2070</ele>
        <time>2022-08-16T09:50:29Z</time>
      </trkpt>
      <trkpt lat="44.46393" lon="6.86373">
        <ele>2070.4</ele>
        <time>2022-08-16T09:50:31Z</time>
      </trkpt>
      <trkpt lat="44.46394" lon="6.86375">
        <ele>2070.8</ele>
        <time>2022-08-16T09:50:32Z</time>
      </trkpt>
      <trkpt lat="44.46395" lon="6.86378">
        <ele>2071.2</ele>
        <time>2022-08-16T09:50:34Z</time>
      </trkpt>
      <trkpt lat="44.46395" lon="6.8638">
        <ele>2071.4</ele>
        <time>2022-08-16T09:50:35Z</time>
      </trkpt>
      <trkpt lat="44.46395" lon="6.86382">
        <ele>2071.6</ele>
        <time>2022-08-16T09:50:36Z</time>
      </trkpt>
      <trkpt lat="44.46396" lon="6.86384">
        <ele>2071.8</ele>
        <time>2022-08-16T09:50:37Z</time>
      </trkpt>
      <trkpt lat="44.46396" lon="6.86385">
        <ele>2071.8</ele>
        <time>2022-08-16T09:50:38Z</time>
      </trkpt>
      <trkpt lat="44.46397" lon="6.86387">
        <ele>2071.8</ele>
        <time>2022-08-16T09:50:39Z</time>
      </trkpt>
      <trkpt lat="44.46397" lon="6.86388">
        <ele>2072</ele>
        <time>2022-08-16T09:50:40Z</time>
      </trkpt>
      <trkpt lat="44.46398" lon="6.8639">
        <ele>2072.4</ele>
        <time>2022-08-16T09:50:41Z</time>
      </trkpt>
      <trkpt lat="44.46398" lon="6.86392">
        <ele>2072.6</ele>
        <time>2022-08-16T09:50:42Z</time>
      </trkpt>
      <trkpt lat="44.46399" lon="6.86393">
        <ele>2072.6</ele>
        <time>2022-08-16T09:50:43Z</time>
      </trkpt>
      <trkpt lat="44.46399" lon="6.86395">
        <ele>2073</ele>
        <time>2022-08-16T09:50:44Z</time>
      </trkpt>
      <trkpt lat="44.464" lon="6.86397">
        <ele>2073.4</ele>
        <time>2022-08-16T09:50:45Z</time>
      </trkpt>
      <trkpt lat="44.464" lon="6.86399">
        <ele>2073.4</ele>
        <time>2022-08-16T09:50:46Z</time>
      </trkpt>
      <trkpt lat="44.464" lon="6.86401">
        <ele>2073.8</ele>
        <time>2022-08-16T09:50:47Z</time>
      </trkpt>
      <trkpt lat="44.464" lon="6.86403">
        <ele>2074</ele>
        <time>2022-08-16T09:50:48Z</time>
      </trkpt>
      <trkpt lat="44.464" lon="6.86406">
        <ele>2074.2</ele>
        <time>2022-08-16T09:50:49Z</time>
      </trkpt>
      <trkpt lat="44.464" lon="6.86408">
        <ele>2074.4</ele>
        <time>2022-08-16T09:50:50Z</time>
      </trkpt>
      <trkpt lat="44.464" lon="6.8641">
        <ele>2074.4</ele>
        <time>2022-08-16T09:50:51Z</time>
      </trkpt>
      <trkpt lat="44.464" lon="6.86412">
        <ele>2074.6</ele>
        <time>2022-08-16T09:50:52Z</time>
      </trkpt>
      <trkpt lat="44.464" lon="6.86414">
        <ele>2074.6</ele>
        <time>2022-08-16T09:50:53Z</time>
      </trkpt>
      <trkpt lat="44.464" lon="6.86416">
        <ele>2074.8</ele>
        <time>2022-08-16T09:50:54Z</time>
      </trkpt>
      <trkpt lat="44.46401" lon="6.86418">
        <ele>2074.8</ele>
        <time>2022-08-16T09:50:55Z</time>
      </trkpt>
      <trkpt lat="44.46401" lon="6.8642">
        <ele>2074.8</ele>
        <time>2022-08-16T09:50:56Z</time>
      </trkpt>
      <trkpt lat="44.46401" lon="6.86422">
        <ele>2074.8</ele>
        <time>2022-08-16T09:50:57Z</time>
      </trkpt>
      <trkpt lat="44.46402" lon="6.86424">
        <ele>2074.8</ele>
        <time>2022-08-16T09:50:58Z</time>
      </trkpt>
      <trkpt lat="44.46402" lon="6.86425">
        <ele>2075</ele>
        <time>2022-08-16T09:50:59Z</time>
      </trkpt>
      <trkpt lat="44.46402" lon="6.86427">
        <ele>2075</ele>
        <time>2022-08-16T09:51:00Z</time>
      </trkpt>
      <trkpt lat="44.46402" lon="6.86428">
        <ele>2075</ele>
        <time>2022-08-16T09:51:01Z</time>
      </trkpt>
      <trkpt lat="44.46402" lon="6.8643">
        <ele>2075.2</ele>
        <time>2022-08-16T09:51:02Z</time>
      </trkpt>
      <trkpt lat="44.46402" lon="6.86431">
        <ele>2075.2</ele>
        <time>2022-08-16T09:51:03Z</time>
      </trkpt>
      <trkpt lat="44.46402" lon="6.86431">
        <ele>2075.6</ele>
        <time>2022-08-16T09:51:04Z</time>
      </trkpt>
      <trkpt lat="44.46402" lon="6.86432">
        <ele>2075.8</ele>
        <time>2022-08-16T09:51:05Z</time>
      </trkpt>
      <trkpt lat="44.46402" lon="6.86433">
        <ele>2075.8</ele>
        <time>2022-08-16T09:51:06Z</time>
      </trkpt>
      <trkpt lat="44.46402" lon="6.86434">
        <ele>2076</ele>
        <time>2022-08-16T09:51:07Z</time>
      </trkpt>
      <trkpt lat="44.46402" lon="6.86434">
        <ele>2076.4</ele>
        <time>2022-08-16T09:51:08Z</time>
      </trkpt>
      <trkpt lat="44.46402" lon="6.86435">
        <ele>2077</ele>
        <time>2022-08-16T09:51:10Z</time>
      </trkpt>
      <trkpt lat="44.46402" lon="6.86435">
        <ele>2077.6</ele>
        <time>2022-08-16T09:51:12Z</time>
      </trkpt>
      <trkpt lat="44.46402" lon="6.86435">
        <ele>2078.4</ele>
        <time>2022-08-16T09:51:24Z</time>
      </trkpt>
      <trkpt lat="44.46401" lon="6.86439">
        <ele>2078.4</ele>
        <time>2022-08-16T09:51:26Z</time>
      </trkpt>
      <trkpt lat="44.464" lon="6.86442">
        <ele>2078.4</ele>
        <time>2022-08-16T09:51:28Z</time>
      </trkpt>
      <trkpt lat="44.464" lon="6.86443">
        <ele>2078.4</ele>
        <time>2022-08-16T09:51:29Z</time>
      </trkpt>
      <trkpt lat="44.464" lon="6.86447">
        <ele>2078.4</ele>
        <time>2022-08-16T09:51:31Z</time>
      </trkpt>
      <trkpt lat="44.464" lon="6.8645">
        <ele>2078.6</ele>
        <time>2022-08-16T09:51:33Z</time>
      </trkpt>
      <trkpt lat="44.464" lon="6.86451">
        <ele>2078.4</ele>
        <time>2022-08-16T09:51:34Z</time>
      </trkpt>
      <trkpt lat="44.464" lon="6.86453">
        <ele>2078.6</ele>
        <time>2022-08-16T09:51:35Z</time>
      </trkpt>
      <trkpt lat="44.46399" lon="6.86458">
        <ele>2078.8</ele>
        <time>2022-08-16T09:51:38Z</time>
      </trkpt>
      <trkpt lat="44.464" lon="6.86462">
        <ele>2079.2</ele>
        <time>2022-08-16T09:51:40Z</time>
      </trkpt>
      <trkpt lat="44.464" lon="6.86464">
        <ele>2079.2</ele>
        <time>2022-08-16T09:51:41Z</time>
      </trkpt>
      <trkpt lat="44.464" lon="6.86468">
        <ele>2079.4</ele>
        <time>2022-08-16T09:51:43Z</time>
      </trkpt>
      <trkpt lat="44.464" lon="6.86469">
        <ele>2079.4</ele>
        <time>2022-08-16T09:51:44Z</time>
      </trkpt>
      <trkpt lat="44.464" lon="6.86471">
        <ele>2079.8</ele>
        <time>2022-08-16T09:51:45Z</time>
      </trkpt>
      <trkpt lat="44.464" lon="6.86473">
        <ele>2079.8</ele>
        <time>2022-08-16T09:51:46Z</time>
      </trkpt>
      <trkpt lat="44.46401" lon="6.86475">
        <ele>2080</ele>
        <time>2022-08-16T09:51:47Z</time>
      </trkpt>
      <trkpt lat="44.46401" lon="6.86477">
        <ele>2080.4</ele>
        <time>2022-08-16T09:51:48Z</time>
      </trkpt>
      <trkpt lat="44.46402" lon="6.86478">
        <ele>2080.8</ele>
        <time>2022-08-16T09:51:49Z</time>
      </trkpt>
      <trkpt lat="44.46402" lon="6.8648">
        <ele>2080.8</ele>
        <time>2022-08-16T09:51:50Z</time>
      </trkpt>
      <trkpt lat="44.46402" lon="6.86482">
        <ele>2080.8</ele>
        <time>2022-08-16T09:51:51Z</time>
      </trkpt>
      <trkpt lat="44.46402" lon="6.86484">
        <ele>2081</ele>
        <time>2022-08-16T09:51:52Z</time>
      </trkpt>
      <trkpt lat="44.46401" lon="6.86487">
        <ele>2081.2</ele>
        <time>2022-08-16T09:51:53Z</time>
      </trkpt>
      <trkpt lat="44.46401" lon="6.86489">
        <ele>2081.4</ele>
        <time>2022-08-16T09:51:54Z</time>
      </trkpt>
      <trkpt lat="44.464" lon="6.86492">
        <ele>2081.6</ele>
        <time>2022-08-16T09:51:55Z</time>
      </trkpt>
      <trkpt lat="44.46399" lon="6.86495">
        <ele>2081.8</ele>
        <time>2022-08-16T09:51:56Z</time>
      </trkpt>
      <trkpt lat="44.46398" lon="6.86498">
        <ele>2082</ele>
        <time>2022-08-16T09:51:57Z</time>
      </trkpt>
      <trkpt lat="44.46397" lon="6.865">
        <ele>2082.2</ele>
        <time>2022-08-16T09:51:58Z</time>
      </trkpt>
      <trkpt lat="44.46396" lon="6.86503">
        <ele>2082.4</ele>
        <time>2022-08-16T09:51:59Z</time>
      </trkpt>
      <trkpt lat="44.46395" lon="6.86505">
        <ele>2082.6</ele>
        <time>2022-08-16T09:52:00Z</time>
      </trkpt>
      <trkpt lat="44.46395" lon="6.86508">
        <ele>2082.8</ele>
        <time>2022-08-16T09:52:01Z</time>
      </trkpt>
      <trkpt lat="44.46393" lon="6.8651">
        <ele>2083</ele>
        <time>2022-08-16T09:52:02Z</time>
      </trkpt>
      <trkpt lat="44.46392" lon="6.86513">
        <ele>2083</ele>
        <time>2022-08-16T09:52:03Z</time>
      </trkpt>
      <trkpt lat="44.46391" lon="6.86515">
        <ele>2083.2</ele>
        <time>2022-08-16T09:52:04Z</time>
      </trkpt>
      <trkpt lat="44.4639" lon="6.86518">
        <ele>2083.4</ele>
        <time>2022-08-16T09:52:05Z</time>
      </trkpt>
      <trkpt lat="44.4639" lon="6.86521">
        <ele>2083.6</ele>
        <time>2022-08-16T09:52:06Z</time>
      </trkpt>
      <trkpt lat="44.4639" lon="6.86523">
        <ele>2083.6</ele>
        <time>2022-08-16T09:52:07Z</time>
      </trkpt>
      <trkpt lat="44.4639" lon="6.86525">
        <ele>2083.8</ele>
        <time>2022-08-16T09:52:08Z</time>
      </trkpt>
      <trkpt lat="44.4639" lon="6.86527">
        <ele>2083.8</ele>
        <time>2022-08-16T09:52:09Z</time>
      </trkpt>
      <trkpt lat="44.4639" lon="6.86529">
        <ele>2084</ele>
        <time>2022-08-16T09:52:10Z</time>
      </trkpt>
      <trkpt lat="44.4639" lon="6.86531">
        <ele>2084.2</ele>
        <time>2022-08-16T09:52:11Z</time>
      </trkpt>
      <trkpt lat="44.46391" lon="6.86532">
        <ele>2084.2</ele>
        <time>2022-08-16T09:52:12Z</time>
      </trkpt>
      <trkpt lat="44.46391" lon="6.86534">
        <ele>2084.2</ele>
        <time>2022-08-16T09:52:13Z</time>
      </trkpt>
      <trkpt lat="44.4639" lon="6.86536">
        <ele>2084.2</ele>
        <time>2022-08-16T09:52:14Z</time>
      </trkpt>
      <trkpt lat="44.4639" lon="6.86538">
        <ele>2084.4</ele>
        <time>2022-08-16T09:52:15Z</time>
      </trkpt>
      <trkpt lat="44.4639" lon="6.8654">
        <ele>2084.6</ele>
        <time>2022-08-16T09:52:16Z</time>
      </trkpt>
      <trkpt lat="44.4639" lon="6.86542">
        <ele>2084.6</ele>
        <time>2022-08-16T09:52:17Z</time>
      </trkpt>
      <trkpt lat="44.4639" lon="6.86544">
        <ele>2085</ele>
        <time>2022-08-16T09:52:18Z</time>
      </trkpt>
      <trkpt lat="44.4639" lon="6.86546">
        <ele>2085.4</ele>
        <time>2022-08-16T09:52:19Z</time>
      </trkpt>
      <trkpt lat="44.4639" lon="6.86548">
        <ele>2085.6</ele>
        <time>2022-08-16T09:52:20Z</time>
      </trkpt>
      <trkpt lat="44.4639" lon="6.8655">
        <ele>2086</ele>
        <time>2022-08-16T09:52:21Z</time>
      </trkpt>
      <trkpt lat="44.4639" lon="6.86552">
        <ele>2086</ele>
        <time>2022-08-16T09:52:22Z</time>
      </trkpt>
      <trkpt lat="44.46389" lon="6.86555">
        <ele>2086.2</ele>
        <time>2022-08-16T09:52:23Z</time>
      </trkpt>
      <trkpt lat="44.46389" lon="6.86557">
        <ele>2086.2</ele>
        <time>2022-08-16T09:52:24Z</time>
      </trkpt>
      <trkpt lat="44.46388" lon="6.86558">
        <ele>2086.4</ele>
        <time>2022-08-16T09:52:25Z</time>
      </trkpt>
      <trkpt lat="44.46387" lon="6.8656">
        <ele>2086.4</ele>
        <time>2022-08-16T09:52:26Z</time>
      </trkpt>
      <trkpt lat="44.46387" lon="6.86562">
        <ele>2086.4</ele>
        <time>2022-08-16T09:52:27Z</time>
      </trkpt>
      <trkpt lat="44.46387" lon="6.86564">
        <ele>2086.6</ele>
        <time>2022-08-16T09:52:28Z</time>
      </trkpt>
      <trkpt lat="44.46386" lon="6.86565">
        <ele>2086.6</ele>
        <time>2022-08-16T09:52:29Z</time>
      </trkpt>
      <trkpt lat="44.46386" lon="6.86567">
        <ele>2086.6</ele>
        <time>2022-08-16T09:52:30Z</time>
      </trkpt>
      <trkpt lat="44.46386" lon="6.86568">
        <ele>2087</ele>
        <time>2022-08-16T09:52:31Z</time>
      </trkpt>
      <trkpt lat="44.46385" lon="6.86569">
        <ele>2087</ele>
        <time>2022-08-16T09:52:32Z</time>
      </trkpt>
      <trkpt lat="44.46385" lon="6.8657">
        <ele>2087</ele>
        <time>2022-08-16T09:52:33Z</time>
      </trkpt>
      <trkpt lat="44.46384" lon="6.86571">
        <ele>2087.2</ele>
        <time>2022-08-16T09:52:34Z</time>
      </trkpt>
      <trkpt lat="44.46383" lon="6.86572">
        <ele>2087.2</ele>
        <time>2022-08-16T09:52:35Z</time>
      </trkpt>
      <trkpt lat="44.46382" lon="6.86573">
        <ele>2087.2</ele>
        <time>2022-08-16T09:52:36Z</time>
      </trkpt>
      <trkpt lat="44.4638" lon="6.86575">
        <ele>2087.4</ele>
        <time>2022-08-16T09:52:37Z</time>
      </trkpt>
      <trkpt lat="44.46379" lon="6.86576">
        <ele>2087.6</ele>
        <time>2022-08-16T09:52:38Z</time>
      </trkpt>
      <trkpt lat="44.46379" lon="6.86578">
        <ele>2087.6</ele>
        <time>2022-08-16T09:52:39Z</time>
      </trkpt>
      <trkpt lat="44.46377" lon="6.86579">
        <ele>2087.8</ele>
        <time>2022-08-16T09:52:40Z</time>
      </trkpt>
      <trkpt lat="44.46375" lon="6.86581">
        <ele>2087.8</ele>
        <time>2022-08-16T09:52:42Z</time>
      </trkpt>
      <trkpt lat="44.46374" lon="6.86582">
        <ele>2087.8</ele>
        <time>2022-08-16T09:52:43Z</time>
      </trkpt>
      <trkpt lat="44.4637" lon="6.86586">
        <ele>2087.8</ele>
        <time>2022-08-16T09:52:46Z</time>
      </trkpt>
      <trkpt lat="44.46369" lon="6.86588">
        <ele>2087.8</ele>
        <time>2022-08-16T09:52:47Z</time>
      </trkpt>
      <trkpt lat="44.46368" lon="6.8659">
        <ele>2088</ele>
        <time>2022-08-16T09:52:48Z</time>
      </trkpt>
      <trkpt lat="44.46368" lon="6.86591">
        <ele>2088</ele>
        <time>2022-08-16T09:52:49Z</time>
      </trkpt>
      <trkpt lat="44.46366" lon="6.86594">
        <ele>2088</ele>
        <time>2022-08-16T09:52:51Z</time>
      </trkpt>
      <trkpt lat="44.46365" lon="6.86595">
        <ele>2088.2</ele>
        <time>2022-08-16T09:52:52Z</time>
      </trkpt>
      <trkpt lat="44.46363" lon="6.86596">
        <ele>2088</ele>
        <time>2022-08-16T09:52:53Z</time>
      </trkpt>
      <trkpt lat="44.46362" lon="6.86596">
        <ele>2088</ele>
        <time>2022-08-16T09:52:54Z</time>
      </trkpt>
      <trkpt lat="44.4636" lon="6.86598">
        <ele>2088.2</ele>
        <time>2022-08-16T09:52:56Z</time>
      </trkpt>
      <trkpt lat="44.46359" lon="6.86599">
        <ele>2088.2</ele>
        <time>2022-08-16T09:52:57Z</time>
      </trkpt>
      <trkpt lat="44.46358" lon="6.86601">
        <ele>2088.2</ele>
        <time>2022-08-16T09:52:58Z</time>
      </trkpt>
      <trkpt lat="44.46358" lon="6.86602">
        <ele>2088.2</ele>
        <time>2022-08-16T09:52:59Z</time>
      </trkpt>
      <trkpt lat="44.46358" lon="6.86604">
        <ele>2088.4</ele>
        <time>2022-08-16T09:53:00Z</time>
      </trkpt>
      <trkpt lat="44.46357" lon="6.86606">
        <ele>2088.6</ele>
        <time>2022-08-16T09:53:01Z</time>
      </trkpt>
      <trkpt lat="44.46357" lon="6.86608">
        <ele>2088.8</ele>
        <time>2022-08-16T09:53:02Z</time>
      </trkpt>
      <trkpt lat="44.46357" lon="6.86609">
        <ele>2089.2</ele>
        <time>2022-08-16T09:53:03Z</time>
      </trkpt>
      <trkpt lat="44.46357" lon="6.86611">
        <ele>2089.4</ele>
        <time>2022-08-16T09:53:04Z</time>
      </trkpt>
      <trkpt lat="44.46357" lon="6.86612">
        <ele>2089.6</ele>
        <time>2022-08-16T09:53:05Z</time>
      </trkpt>
      <trkpt lat="44.46357" lon="6.86614">
        <ele>2089.6</ele>
        <time>2022-08-16T09:53:06Z</time>
      </trkpt>
      <trkpt lat="44.46357" lon="6.86616">
        <ele>2089.8</ele>
        <time>2022-08-16T09:53:07Z</time>
      </trkpt>
      <trkpt lat="44.46357" lon="6.86617">
        <ele>2089.8</ele>
        <time>2022-08-16T09:53:08Z</time>
      </trkpt>
      <trkpt lat="44.46357" lon="6.86619">
        <ele>2090</ele>
        <time>2022-08-16T09:53:09Z</time>
      </trkpt>
      <trkpt lat="44.46357" lon="6.86621">
        <ele>2090</ele>
        <time>2022-08-16T09:53:10Z</time>
      </trkpt>
      <trkpt lat="44.46357" lon="6.86622">
        <ele>2090.2</ele>
        <time>2022-08-16T09:53:11Z</time>
      </trkpt>
      <trkpt lat="44.46357" lon="6.86624">
        <ele>2090.4</ele>
        <time>2022-08-16T09:53:12Z</time>
      </trkpt>
      <trkpt lat="44.46356" lon="6.86626">
        <ele>2090.6</ele>
        <time>2022-08-16T09:53:13Z</time>
      </trkpt>
      <trkpt lat="44.46356" lon="6.86627">
        <ele>2090.8</ele>
        <time>2022-08-16T09:53:14Z</time>
      </trkpt>
      <trkpt lat="44.46355" lon="6.86628">
        <ele>2090.8</ele>
        <time>2022-08-16T09:53:15Z</time>
      </trkpt>
      <trkpt lat="44.46355" lon="6.8663">
        <ele>2091</ele>
        <time>2022-08-16T09:53:16Z</time>
      </trkpt>
      <trkpt lat="44.46354" lon="6.86631">
        <ele>2091.4</ele>
        <time>2022-08-16T09:53:17Z</time>
      </trkpt>
      <trkpt lat="44.46354" lon="6.86633">
        <ele>2091.8</ele>
        <time>2022-08-16T09:53:18Z</time>
      </trkpt>
      <trkpt lat="44.46353" lon="6.86634">
        <ele>2091.8</ele>
        <time>2022-08-16T09:53:19Z</time>
      </trkpt>
      <trkpt lat="44.46352" lon="6.86635">
        <ele>2092</ele>
        <time>2022-08-16T09:53:20Z</time>
      </trkpt>
      <trkpt lat="44.46351" lon="6.86637">
        <ele>2092.4</ele>
        <time>2022-08-16T09:53:21Z</time>
      </trkpt>
      <trkpt lat="44.4635" lon="6.86638">
        <ele>2092.6</ele>
        <time>2022-08-16T09:53:22Z</time>
      </trkpt>
      <trkpt lat="44.46349" lon="6.86639">
        <ele>2092.6</ele>
        <time>2022-08-16T09:53:23Z</time>
      </trkpt>
      <trkpt lat="44.46348" lon="6.86641">
        <ele>2092.8</ele>
        <time>2022-08-16T09:53:24Z</time>
      </trkpt>
      <trkpt lat="44.46347" lon="6.86642">
        <ele>2093</ele>
        <time>2022-08-16T09:53:25Z</time>
      </trkpt>
      <trkpt lat="44.46347" lon="6.86644">
        <ele>2093.2</ele>
        <time>2022-08-16T09:53:26Z</time>
      </trkpt>
      <trkpt lat="44.46346" lon="6.86645">
        <ele>2093.2</ele>
        <time>2022-08-16T09:53:27Z</time>
      </trkpt>
      <trkpt lat="44.46345" lon="6.86647">
        <ele>2093.6</ele>
        <time>2022-08-16T09:53:28Z</time>
      </trkpt>
      <trkpt lat="44.46344" lon="6.86649">
        <ele>2093.6</ele>
        <time>2022-08-16T09:53:29Z</time>
      </trkpt>
      <trkpt lat="44.46343" lon="6.86651">
        <ele>2093.6</ele>
        <time>2022-08-16T09:53:30Z</time>
      </trkpt>
      <trkpt lat="44.46342" lon="6.86653">
        <ele>2093.6</ele>
        <time>2022-08-16T09:53:31Z</time>
      </trkpt>
      <trkpt lat="44.46342" lon="6.86654">
        <ele>2093.6</ele>
        <time>2022-08-16T09:53:32Z</time>
      </trkpt>
      <trkpt lat="44.46341" lon="6.86656">
        <ele>2094</ele>
        <time>2022-08-16T09:53:33Z</time>
      </trkpt>
      <trkpt lat="44.4634" lon="6.86658">
        <ele>2094</ele>
        <time>2022-08-16T09:53:34Z</time>
      </trkpt>
      <trkpt lat="44.4634" lon="6.86659">
        <ele>2094</ele>
        <time>2022-08-16T09:53:35Z</time>
      </trkpt>
      <trkpt lat="44.46339" lon="6.86661">
        <ele>2094</ele>
        <time>2022-08-16T09:53:36Z</time>
      </trkpt>
      <trkpt lat="44.46338" lon="6.86662">
        <ele>2094.2</ele>
        <time>2022-08-16T09:53:37Z</time>
      </trkpt>
      <trkpt lat="44.46338" lon="6.86664">
        <ele>2094.2</ele>
        <time>2022-08-16T09:53:38Z</time>
      </trkpt>
      <trkpt lat="44.46337" lon="6.86665">
        <ele>2094.2</ele>
        <time>2022-08-16T09:53:39Z</time>
      </trkpt>
      <trkpt lat="44.46337" lon="6.86667">
        <ele>2094.2</ele>
        <time>2022-08-16T09:53:40Z</time>
      </trkpt>
      <trkpt lat="44.46336" lon="6.86669">
        <ele>2094.2</ele>
        <time>2022-08-16T09:53:41Z</time>
      </trkpt>
      <trkpt lat="44.46336" lon="6.86671">
        <ele>2094.2</ele>
        <time>2022-08-16T09:53:42Z</time>
      </trkpt>
      <trkpt lat="44.46335" lon="6.86672">
        <ele>2094.4</ele>
        <time>2022-08-16T09:53:43Z</time>
      </trkpt>
      <trkpt lat="44.46334" lon="6.86674">
        <ele>2094.6</ele>
        <time>2022-08-16T09:53:44Z</time>
      </trkpt>
      <trkpt lat="44.46334" lon="6.86676">
        <ele>2094.8</ele>
        <time>2022-08-16T09:53:45Z</time>
      </trkpt>
      <trkpt lat="44.46333" lon="6.86678">
        <ele>2095</ele>
        <time>2022-08-16T09:53:46Z</time>
      </trkpt>
      <trkpt lat="44.46332" lon="6.8668">
        <ele>2095.2</ele>
        <time>2022-08-16T09:53:47Z</time>
      </trkpt>
      <trkpt lat="44.46331" lon="6.86681">
        <ele>2095.2</ele>
        <time>2022-08-16T09:53:48Z</time>
      </trkpt>
      <trkpt lat="44.46331" lon="6.86683">
        <ele>2095.2</ele>
        <time>2022-08-16T09:53:49Z</time>
      </trkpt>
      <trkpt lat="44.4633" lon="6.86685">
        <ele>2095.4</ele>
        <time>2022-08-16T09:53:50Z</time>
      </trkpt>
      <trkpt lat="44.4633" lon="6.86686">
        <ele>2095.6</ele>
        <time>2022-08-16T09:53:51Z</time>
      </trkpt>
      <trkpt lat="44.4633" lon="6.86688">
        <ele>2095.6</ele>
        <time>2022-08-16T09:53:52Z</time>
      </trkpt>
      <trkpt lat="44.46329" lon="6.86689">
        <ele>2096</ele>
        <time>2022-08-16T09:53:53Z</time>
      </trkpt>
      <trkpt lat="44.46328" lon="6.8669">
        <ele>2096</ele>
        <time>2022-08-16T09:53:54Z</time>
      </trkpt>
      <trkpt lat="44.46327" lon="6.86691">
        <ele>2096</ele>
        <time>2022-08-16T09:53:55Z</time>
      </trkpt>
      <trkpt lat="44.46327" lon="6.86692">
        <ele>2096.2</ele>
        <time>2022-08-16T09:53:56Z</time>
      </trkpt>
      <trkpt lat="44.46326" lon="6.86694">
        <ele>2096.2</ele>
        <time>2022-08-16T09:53:57Z</time>
      </trkpt>
      <trkpt lat="44.46325" lon="6.86695">
        <ele>2096.4</ele>
        <time>2022-08-16T09:53:58Z</time>
      </trkpt>
      <trkpt lat="44.46324" lon="6.86696">
        <ele>2096.6</ele>
        <time>2022-08-16T09:53:59Z</time>
      </trkpt>
      <trkpt lat="44.46324" lon="6.86698">
        <ele>2096.8</ele>
        <time>2022-08-16T09:54:00Z</time>
      </trkpt>
      <trkpt lat="44.46323" lon="6.867">
        <ele>2096.8</ele>
        <time>2022-08-16T09:54:01Z</time>
      </trkpt>
      <trkpt lat="44.46322" lon="6.86701">
        <ele>2097</ele>
        <time>2022-08-16T09:54:02Z</time>
      </trkpt>
      <trkpt lat="44.46321" lon="6.86702">
        <ele>2097</ele>
        <time>2022-08-16T09:54:03Z</time>
      </trkpt>
      <trkpt lat="44.46321" lon="6.86703">
        <ele>2097</ele>
        <time>2022-08-16T09:54:04Z</time>
      </trkpt>
      <trkpt lat="44.4632" lon="6.86704">
        <ele>2097</ele>
        <time>2022-08-16T09:54:05Z</time>
      </trkpt>
      <trkpt lat="44.46319" lon="6.86705">
        <ele>2097</ele>
        <time>2022-08-16T09:54:06Z</time>
      </trkpt>
      <trkpt lat="44.46318" lon="6.86706">
        <ele>2097</ele>
        <time>2022-08-16T09:54:07Z</time>
      </trkpt>
      <trkpt lat="44.46317" lon="6.86706">
        <ele>2097.2</ele>
        <time>2022-08-16T09:54:08Z</time>
      </trkpt>
      <trkpt lat="44.46316" lon="6.86706">
        <ele>2097.4</ele>
        <time>2022-08-16T09:54:09Z</time>
      </trkpt>
      <trkpt lat="44.46315" lon="6.86706">
        <ele>2097.6</ele>
        <time>2022-08-16T09:54:10Z</time>
      </trkpt>
      <trkpt lat="44.46314" lon="6.86706">
        <ele>2097.6</ele>
        <time>2022-08-16T09:54:11Z</time>
      </trkpt>
      <trkpt lat="44.46313" lon="6.86706">
        <ele>2097.8</ele>
        <time>2022-08-16T09:54:12Z</time>
      </trkpt>
      <trkpt lat="44.46312" lon="6.86706">
        <ele>2098</ele>
        <time>2022-08-16T09:54:13Z</time>
      </trkpt>
      <trkpt lat="44.46311" lon="6.86705">
        <ele>2098.4</ele>
        <time>2022-08-16T09:54:14Z</time>
      </trkpt>
      <trkpt lat="44.4631" lon="6.86704">
        <ele>2098.4</ele>
        <time>2022-08-16T09:54:15Z</time>
      </trkpt>
      <trkpt lat="44.46309" lon="6.86704">
        <ele>2098.6</ele>
        <time>2022-08-16T09:54:16Z</time>
      </trkpt>
      <trkpt lat="44.46308" lon="6.86703">
        <ele>2098.8</ele>
        <time>2022-08-16T09:54:17Z</time>
      </trkpt>
      <trkpt lat="44.46307" lon="6.86701">
        <ele>2099.2</ele>
        <time>2022-08-16T09:54:18Z</time>
      </trkpt>
      <trkpt lat="44.46307" lon="6.867">
        <ele>2099.4</ele>
        <time>2022-08-16T09:54:19Z</time>
      </trkpt>
      <trkpt lat="44.46306" lon="6.86699">
        <ele>2099.6</ele>
        <time>2022-08-16T09:54:20Z</time>
      </trkpt>
      <trkpt lat="44.46305" lon="6.86699">
        <ele>2100</ele>
        <time>2022-08-16T09:54:21Z</time>
      </trkpt>
      <trkpt lat="44.46304" lon="6.86698">
        <ele>2100.2</ele>
        <time>2022-08-16T09:54:22Z</time>
      </trkpt>
      <trkpt lat="44.46303" lon="6.86697">
        <ele>2100.2</ele>
        <time>2022-08-16T09:54:23Z</time>
      </trkpt>
      <trkpt lat="44.46303" lon="6.86697">
        <ele>2100.2</ele>
        <time>2022-08-16T09:54:24Z</time>
      </trkpt>
      <trkpt lat="44.46302" lon="6.86696">
        <ele>2100.2</ele>
        <time>2022-08-16T09:54:25Z</time>
      </trkpt>
      <trkpt lat="44.46302" lon="6.86697">
        <ele>2100.4</ele>
        <time>2022-08-16T09:54:26Z</time>
      </trkpt>
      <trkpt lat="44.46301" lon="6.86698">
        <ele>2100.6</ele>
        <time>2022-08-16T09:54:27Z</time>
      </trkpt>
      <trkpt lat="44.46301" lon="6.86699">
        <ele>2101</ele>
        <time>2022-08-16T09:54:28Z</time>
      </trkpt>
      <trkpt lat="44.46301" lon="6.867">
        <ele>2101.4</ele>
        <time>2022-08-16T09:54:29Z</time>
      </trkpt>
      <trkpt lat="44.46301" lon="6.86701">
        <ele>2101.6</ele>
        <time>2022-08-16T09:54:30Z</time>
      </trkpt>
      <trkpt lat="44.46301" lon="6.86702">
        <ele>2102.2</ele>
        <time>2022-08-16T09:54:32Z</time>
      </trkpt>
      <trkpt lat="44.46301" lon="6.86703">
        <ele>2103.6</ele>
        <time>2022-08-16T09:54:37Z</time>
      </trkpt>
      <trkpt lat="44.46301" lon="6.86703">
        <ele>2105</ele>
        <time>2022-08-16T09:54:43Z</time>
      </trkpt>
      <trkpt lat="44.463" lon="6.86703">
        <ele>2105</ele>
        <time>2022-08-16T09:54:45Z</time>
      </trkpt>
      <trkpt lat="44.463" lon="6.86704">
        <ele>2105.2</ele>
        <time>2022-08-16T09:54:48Z</time>
      </trkpt>
      <trkpt lat="44.463" lon="6.86705">
        <ele>2105.4</ele>
        <time>2022-08-16T09:54:52Z</time>
      </trkpt>
      <trkpt lat="44.463" lon="6.86705">
        <ele>2105.4</ele>
        <time>2022-08-16T09:55:00Z</time>
      </trkpt>
      <trkpt lat="44.463" lon="6.86704">
        <ele>2105</ele>
        <time>2022-08-16T09:55:09Z</time>
      </trkpt>
      <trkpt lat="44.463" lon="6.86704">
        <ele>2105</ele>
        <time>2022-08-16T09:55:10Z</time>
      </trkpt>
      <trkpt lat="44.463" lon="6.86704">
        <ele>2105</ele>
        <time>2022-08-16T09:55:11Z</time>
      </trkpt>
      <trkpt lat="44.463" lon="6.86704">
        <ele>2105</ele>
        <time>2022-08-16T09:55:12Z</time>
      </trkpt>
      <trkpt lat="44.463" lon="6.86705">
        <ele>2105</ele>
        <time>2022-08-16T09:55:13Z</time>
      </trkpt>
      <trkpt lat="44.463" lon="6.86706">
        <ele>2105</ele>
        <time>2022-08-16T09:55:22Z</time>
      </trkpt>
      <trkpt lat="44.46299" lon="6.86702">
        <ele>2104.6</ele>
        <time>2022-08-16T09:55:34Z</time>
      </trkpt>
      <trkpt lat="44.46299" lon="6.86703">
        <ele>2104.6</ele>
        <time>2022-08-16T09:55:40Z</time>
      </trkpt>
      <trkpt lat="44.46299" lon="6.86703">
        <ele>2104.6</ele>
        <time>2022-08-16T09:55:41Z</time>
      </trkpt>
      <trkpt lat="44.46298" lon="6.86704">
        <ele>2104.8</ele>
        <time>2022-08-16T09:55:48Z</time>
      </trkpt>
      <trkpt lat="44.46298" lon="6.86704">
        <ele>2104.8</ele>
        <time>2022-08-16T09:55:49Z</time>
      </trkpt>
      <trkpt lat="44.46298" lon="6.86705">
        <ele>2104.6</ele>
        <time>2022-08-16T09:55:54Z</time>
      </trkpt>
      <trkpt lat="44.46297" lon="6.86705">
        <ele>2104.6</ele>
        <time>2022-08-16T09:55:58Z</time>
      </trkpt>
      <trkpt lat="44.46297" lon="6.86706">
        <ele>2104.6</ele>
        <time>2022-08-16T09:56:03Z</time>
      </trkpt>
      <trkpt lat="44.46297" lon="6.86707">
        <ele>2104.4</ele>
        <time>2022-08-16T09:56:16Z</time>
      </trkpt>
      <trkpt lat="44.46298" lon="6.86707">
        <ele>2104.6</ele>
        <time>2022-08-16T09:56:28Z</time>
      </trkpt>
      <trkpt lat="44.46294" lon="6.86708">
        <ele>2104.2</ele>
        <time>2022-08-16T09:56:43Z</time>
      </trkpt>
      <trkpt lat="44.46292" lon="6.86708">
        <ele>2104.4</ele>
        <time>2022-08-16T09:56:56Z</time>
      </trkpt>
      <trkpt lat="44.46292" lon="6.8671">
        <ele>2104.4</ele>
        <time>2022-08-16T09:57:05Z</time>
      </trkpt>
      <trkpt lat="44.46291" lon="6.86717">
        <ele>2104.4</ele>
        <time>2022-08-16T09:57:21Z</time>
      </trkpt>
      <trkpt lat="44.46294" lon="6.86718">
        <ele>2104.2</ele>
        <time>2022-08-16T09:57:35Z</time>
      </trkpt>
      <trkpt lat="44.46293" lon="6.86716">
        <ele>2104.4</ele>
        <time>2022-08-16T09:57:47Z</time>
      </trkpt>
      <trkpt lat="44.46293" lon="6.86715">
        <ele>2104.2</ele>
        <time>2022-08-16T09:57:49Z</time>
      </trkpt>
      <trkpt lat="44.46293" lon="6.86715">
        <ele>2104.4</ele>
        <time>2022-08-16T09:57:57Z</time>
      </trkpt>
      <trkpt lat="44.46294" lon="6.86714">
        <ele>2104.4</ele>
        <time>2022-08-16T09:58:08Z</time>
      </trkpt>
      <trkpt lat="44.46293" lon="6.8671">
        <ele>2104.8</ele>
        <time>2022-08-16T09:58:17Z</time>
      </trkpt>
      <trkpt lat="44.46294" lon="6.8671">
        <ele>2104.6</ele>
        <time>2022-08-16T09:58:18Z</time>
      </trkpt>
      <trkpt lat="44.46294" lon="6.86709">
        <ele>2104.6</ele>
        <time>2022-08-16T09:58:19Z</time>
      </trkpt>
      <trkpt lat="44.46294" lon="6.86709">
        <ele>2104.6</ele>
        <time>2022-08-16T09:58:20Z</time>
      </trkpt>
      <trkpt lat="44.46294" lon="6.86709">
        <ele>2104.6</ele>
        <time>2022-08-16T09:58:21Z</time>
      </trkpt>
      <trkpt lat="44.46295" lon="6.86709">
        <ele>2104.6</ele>
        <time>2022-08-16T09:58:23Z</time>
      </trkpt>
      <trkpt lat="44.46295" lon="6.86708">
        <ele>2104.8</ele>
        <time>2022-08-16T09:58:24Z</time>
      </trkpt>
      <trkpt lat="44.46296" lon="6.86706">
        <ele>2104.8</ele>
        <time>2022-08-16T09:58:26Z</time>
      </trkpt>
      <trkpt lat="44.46295" lon="6.86703">
        <ele>2105</ele>
        <time>2022-08-16T09:58:29Z</time>
      </trkpt>
      <trkpt lat="44.46294" lon="6.86703">
        <ele>2105.4</ele>
        <time>2022-08-16T09:58:30Z</time>
      </trkpt>
      <trkpt lat="44.46292" lon="6.86701">
        <ele>2106.2</ele>
        <time>2022-08-16T09:58:33Z</time>
      </trkpt>
      <trkpt lat="44.46291" lon="6.86698">
        <ele>2106.6</ele>
        <time>2022-08-16T09:58:36Z</time>
      </trkpt>
      <trkpt lat="44.4629" lon="6.86697">
        <ele>2106.8</ele>
        <time>2022-08-16T09:58:37Z</time>
      </trkpt>
      <trkpt lat="44.4629" lon="6.86696">
        <ele>2107</ele>
        <time>2022-08-16T09:58:38Z</time>
      </trkpt>
      <trkpt lat="44.46289" lon="6.86694">
        <ele>2107</ele>
        <time>2022-08-16T09:58:39Z</time>
      </trkpt>
      <trkpt lat="44.46288" lon="6.86693">
        <ele>2107</ele>
        <time>2022-08-16T09:58:40Z</time>
      </trkpt>
      <trkpt lat="44.46288" lon="6.86692">
        <ele>2107.2</ele>
        <time>2022-08-16T09:58:41Z</time>
      </trkpt>
      <trkpt lat="44.46287" lon="6.86691">
        <ele>2107.2</ele>
        <time>2022-08-16T09:58:42Z</time>
      </trkpt>
      <trkpt lat="44.46286" lon="6.8669">
        <ele>2107.4</ele>
        <time>2022-08-16T09:58:43Z</time>
      </trkpt>
      <trkpt lat="44.46286" lon="6.86689">
        <ele>2107.6</ele>
        <time>2022-08-16T09:58:44Z</time>
      </trkpt>
      <trkpt lat="44.46285" lon="6.86688">
        <ele>2107.6</ele>
        <time>2022-08-16T09:58:45Z</time>
      </trkpt>
      <trkpt lat="44.46285" lon="6.86687">
        <ele>2108</ele>
        <time>2022-08-16T09:58:46Z</time>
      </trkpt>
      <trkpt lat="44.46284" lon="6.86686">
        <ele>2108</ele>
        <time>2022-08-16T09:58:47Z</time>
      </trkpt>
      <trkpt lat="44.46284" lon="6.86686">
        <ele>2108.2</ele>
        <time>2022-08-16T09:58:48Z</time>
      </trkpt>
      <trkpt lat="44.46283" lon="6.86686">
        <ele>2108.4</ele>
        <time>2022-08-16T09:58:49Z</time>
      </trkpt>
      <trkpt lat="44.46282" lon="6.86685">
        <ele>2108.4</ele>
        <time>2022-08-16T09:58:50Z</time>
      </trkpt>
      <trkpt lat="44.46281" lon="6.86685">
        <ele>2108.6</ele>
        <time>2022-08-16T09:58:51Z</time>
      </trkpt>
      <trkpt lat="44.46281" lon="6.86686">
        <ele>2108.8</ele>
        <time>2022-08-16T09:58:52Z</time>
      </trkpt>
      <trkpt lat="44.46281" lon="6.86686">
        <ele>2108.6</ele>
        <time>2022-08-16T09:58:53Z</time>
      </trkpt>
      <trkpt lat="44.46281" lon="6.86687">
        <ele>2108.8</ele>
        <time>2022-08-16T09:58:54Z</time>
      </trkpt>
      <trkpt lat="44.46281" lon="6.86688">
        <ele>2109</ele>
        <time>2022-08-16T09:58:55Z</time>
      </trkpt>
      <trkpt lat="44.46281" lon="6.86689">
        <ele>2109.2</ele>
        <time>2022-08-16T09:58:56Z</time>
      </trkpt>
      <trkpt lat="44.4628" lon="6.8669">
        <ele>2109.2</ele>
        <time>2022-08-16T09:58:57Z</time>
      </trkpt>
      <trkpt lat="44.4628" lon="6.86691">
        <ele>2109.4</ele>
        <time>2022-08-16T09:58:58Z</time>
      </trkpt>
      <trkpt lat="44.4628" lon="6.86691">
        <ele>2109.6</ele>
        <time>2022-08-16T09:58:59Z</time>
      </trkpt>
      <trkpt lat="44.46281" lon="6.86691">
        <ele>2110.4</ele>
        <time>2022-08-16T09:59:03Z</time>
      </trkpt>
      <trkpt lat="44.46282" lon="6.86693">
        <ele>2110.4</ele>
        <time>2022-08-16T09:59:05Z</time>
      </trkpt>
      <trkpt lat="44.46282" lon="6.86694">
        <ele>2110.6</ele>
        <time>2022-08-16T09:59:06Z</time>
      </trkpt>
      <trkpt lat="44.46282" lon="6.86696">
        <ele>2110.8</ele>
        <time>2022-08-16T09:59:07Z</time>
      </trkpt>
      <trkpt lat="44.46282" lon="6.86697">
        <ele>2110.6</ele>
        <time>2022-08-16T09:59:08Z</time>
      </trkpt>
      <trkpt lat="44.46282" lon="6.86698">
        <ele>2110.6</ele>
        <time>2022-08-16T09:59:09Z</time>
      </trkpt>
      <trkpt lat="44.46281" lon="6.867">
        <ele>2110.8</ele>
        <time>2022-08-16T09:59:10Z</time>
      </trkpt>
      <trkpt lat="44.46281" lon="6.86702">
        <ele>2111</ele>
        <time>2022-08-16T09:59:11Z</time>
      </trkpt>
      <trkpt lat="44.46281" lon="6.86703">
        <ele>2110.8</ele>
        <time>2022-08-16T09:59:12Z</time>
      </trkpt>
      <trkpt lat="44.46281" lon="6.86704">
        <ele>2111</ele>
        <time>2022-08-16T09:59:13Z</time>
      </trkpt>
      <trkpt lat="44.46282" lon="6.86706">
        <ele>2111</ele>
        <time>2022-08-16T09:59:14Z</time>
      </trkpt>
      <trkpt lat="44.46282" lon="6.86708">
        <ele>2111.2</ele>
        <time>2022-08-16T09:59:15Z</time>
      </trkpt>
      <trkpt lat="44.46282" lon="6.86709">
        <ele>2111</ele>
        <time>2022-08-16T09:59:16Z</time>
      </trkpt>
      <trkpt lat="44.46281" lon="6.8671">
        <ele>2111.2</ele>
        <time>2022-08-16T09:59:17Z</time>
      </trkpt>
      <trkpt lat="44.4628" lon="6.86711">
        <ele>2111.2</ele>
        <time>2022-08-16T09:59:18Z</time>
      </trkpt>
      <trkpt lat="44.46279" lon="6.86712">
        <ele>2111.4</ele>
        <time>2022-08-16T09:59:19Z</time>
      </trkpt>
      <trkpt lat="44.46278" lon="6.86712">
        <ele>2111.8</ele>
        <time>2022-08-16T09:59:20Z</time>
      </trkpt>
      <trkpt lat="44.46277" lon="6.86713">
        <ele>2111.8</ele>
        <time>2022-08-16T09:59:21Z</time>
      </trkpt>
      <trkpt lat="44.46277" lon="6.86714">
        <ele>2112.2</ele>
        <time>2022-08-16T09:59:22Z</time>
      </trkpt>
      <trkpt lat="44.46276" lon="6.86714">
        <ele>2112.6</ele>
        <time>2022-08-16T09:59:23Z</time>
      </trkpt>
      <trkpt lat="44.46276" lon="6.86714">
        <ele>2112.6</ele>
        <time>2022-08-16T09:59:24Z</time>
      </trkpt>
      <trkpt lat="44.46276" lon="6.86714">
        <ele>2113.2</ele>
        <time>2022-08-16T09:59:26Z</time>
      </trkpt>
      <trkpt lat="44.46275" lon="6.86715">
        <ele>2113.4</ele>
        <time>2022-08-16T09:59:28Z</time>
      </trkpt>
      <trkpt lat="44.46275" lon="6.86715">
        <ele>2113.6</ele>
        <time>2022-08-16T09:59:29Z</time>
      </trkpt>
      <trkpt lat="44.46275" lon="6.86715">
        <ele>2113.8</ele>
        <time>2022-08-16T09:59:30Z</time>
      </trkpt>
      <trkpt lat="44.46275" lon="6.86717">
        <ele>2114</ele>
        <time>2022-08-16T09:59:31Z</time>
      </trkpt>
      <trkpt lat="44.46275" lon="6.86718">
        <ele>2114</ele>
        <time>2022-08-16T09:59:32Z</time>
      </trkpt>
      <trkpt lat="44.46275" lon="6.86719">
        <ele>2114.2</ele>
        <time>2022-08-16T09:59:33Z</time>
      </trkpt>
      <trkpt lat="44.46274" lon="6.8672">
        <ele>2114.2</ele>
        <time>2022-08-16T09:59:34Z</time>
      </trkpt>
      <trkpt lat="44.46274" lon="6.86721">
        <ele>2114.4</ele>
        <time>2022-08-16T09:59:35Z</time>
      </trkpt>
      <trkpt lat="44.46274" lon="6.86722">
        <ele>2114.4</ele>
        <time>2022-08-16T09:59:36Z</time>
      </trkpt>
      <trkpt lat="44.46273" lon="6.86722">
        <ele>2114.6</ele>
        <time>2022-08-16T09:59:37Z</time>
      </trkpt>
      <trkpt lat="44.46273" lon="6.86723">
        <ele>2114.6</ele>
        <time>2022-08-16T09:59:38Z</time>
      </trkpt>
      <trkpt lat="44.46273" lon="6.86724">
        <ele>2114.8</ele>
        <time>2022-08-16T09:59:39Z</time>
      </trkpt>
      <trkpt lat="44.46272" lon="6.86724">
        <ele>2115</ele>
        <time>2022-08-16T09:59:40Z</time>
      </trkpt>
      <trkpt lat="44.46271" lon="6.86725">
        <ele>2115.2</ele>
        <time>2022-08-16T09:59:41Z</time>
      </trkpt>
      <trkpt lat="44.46271" lon="6.86725">
        <ele>2115.4</ele>
        <time>2022-08-16T09:59:42Z</time>
      </trkpt>
      <trkpt lat="44.4627" lon="6.86725">
        <ele>2115.6</ele>
        <time>2022-08-16T09:59:43Z</time>
      </trkpt>
      <trkpt lat="44.46269" lon="6.86725">
        <ele>2115.6</ele>
        <time>2022-08-16T09:59:44Z</time>
      </trkpt>
      <trkpt lat="44.46268" lon="6.86726">
        <ele>2115.8</ele>
        <time>2022-08-16T09:59:45Z</time>
      </trkpt>
      <trkpt lat="44.46268" lon="6.86726">
        <ele>2116</ele>
        <time>2022-08-16T09:59:46Z</time>
      </trkpt>
      <trkpt lat="44.46267" lon="6.86726">
        <ele>2116</ele>
        <time>2022-08-16T09:59:47Z</time>
      </trkpt>
      <trkpt lat="44.46267" lon="6.86727">
        <ele>2116.2</ele>
        <time>2022-08-16T09:59:48Z</time>
      </trkpt>
      <trkpt lat="44.46266" lon="6.86727">
        <ele>2116.4</ele>
        <time>2022-08-16T09:59:49Z</time>
      </trkpt>
      <trkpt lat="44.46265" lon="6.86728">
        <ele>2116.6</ele>
        <time>2022-08-16T09:59:50Z</time>
      </trkpt>
      <trkpt lat="44.46265" lon="6.86728">
        <ele>2117</ele>
        <time>2022-08-16T09:59:51Z</time>
      </trkpt>
      <trkpt lat="44.46264" lon="6.86728">
        <ele>2117.2</ele>
        <time>2022-08-16T09:59:52Z</time>
      </trkpt>
      <trkpt lat="44.46264" lon="6.86729">
        <ele>2117.4</ele>
        <time>2022-08-16T09:59:53Z</time>
      </trkpt>
      <trkpt lat="44.46263" lon="6.86729">
        <ele>2117.4</ele>
        <time>2022-08-16T09:59:54Z</time>
      </trkpt>
      <trkpt lat="44.46262" lon="6.86729">
        <ele>2117.6</ele>
        <time>2022-08-16T09:59:55Z</time>
      </trkpt>
      <trkpt lat="44.46261" lon="6.86729">
        <ele>2117.8</ele>
        <time>2022-08-16T09:59:56Z</time>
      </trkpt>
      <trkpt lat="44.46261" lon="6.86729">
        <ele>2118</ele>
        <time>2022-08-16T09:59:57Z</time>
      </trkpt>
      <trkpt lat="44.4626" lon="6.86729">
        <ele>2118.2</ele>
        <time>2022-08-16T09:59:59Z</time>
      </trkpt>
      <trkpt lat="44.46259" lon="6.8673">
        <ele>2118.2</ele>
        <time>2022-08-16T10:00:00Z</time>
      </trkpt>
      <trkpt lat="44.46259" lon="6.8673">
        <ele>2118.4</ele>
        <time>2022-08-16T10:00:01Z</time>
      </trkpt>
      <trkpt lat="44.46258" lon="6.8673">
        <ele>2118.4</ele>
        <time>2022-08-16T10:00:02Z</time>
      </trkpt>
      <trkpt lat="44.46258" lon="6.8673">
        <ele>2118.6</ele>
        <time>2022-08-16T10:00:03Z</time>
      </trkpt>
      <trkpt lat="44.46257" lon="6.8673">
        <ele>2118.6</ele>
        <time>2022-08-16T10:00:04Z</time>
      </trkpt>
      <trkpt lat="44.46257" lon="6.8673">
        <ele>2118.8</ele>
        <time>2022-08-16T10:00:05Z</time>
      </trkpt>
      <trkpt lat="44.46256" lon="6.86731">
        <ele>2118.8</ele>
        <time>2022-08-16T10:00:06Z</time>
      </trkpt>
      <trkpt lat="44.46256" lon="6.86731">
        <ele>2119</ele>
        <time>2022-08-16T10:00:07Z</time>
      </trkpt>
      <trkpt lat="44.46255" lon="6.86731">
        <ele>2119.4</ele>
        <time>2022-08-16T10:00:08Z</time>
      </trkpt>
      <trkpt lat="44.46254" lon="6.86732">
        <ele>2119.4</ele>
        <time>2022-08-16T10:00:09Z</time>
      </trkpt>
      <trkpt lat="44.46254" lon="6.86733">
        <ele>2119.6</ele>
        <time>2022-08-16T10:00:10Z</time>
      </trkpt>
      <trkpt lat="44.46253" lon="6.86734">
        <ele>2120</ele>
        <time>2022-08-16T10:00:11Z</time>
      </trkpt>
      <trkpt lat="44.46253" lon="6.86735">
        <ele>2120.2</ele>
        <time>2022-08-16T10:00:12Z</time>
      </trkpt>
      <trkpt lat="44.46253" lon="6.86736">
        <ele>2120.2</ele>
        <time>2022-08-16T10:00:13Z</time>
      </trkpt>
      <trkpt lat="44.46253" lon="6.86737">
        <ele>2120.4</ele>
        <time>2022-08-16T10:00:14Z</time>
      </trkpt>
      <trkpt lat="44.46254" lon="6.86738">
        <ele>2120.4</ele>
        <time>2022-08-16T10:00:15Z</time>
      </trkpt>
      <trkpt lat="44.46254" lon="6.8674">
        <ele>2120.4</ele>
        <time>2022-08-16T10:00:16Z</time>
      </trkpt>
      <trkpt lat="44.46254" lon="6.86741">
        <ele>2120.4</ele>
        <time>2022-08-16T10:00:17Z</time>
      </trkpt>
      <trkpt lat="44.46255" lon="6.86742">
        <ele>2120.6</ele>
        <time>2022-08-16T10:00:18Z</time>
      </trkpt>
      <trkpt lat="44.46255" lon="6.86743">
        <ele>2120.8</ele>
        <time>2022-08-16T10:00:19Z</time>
      </trkpt>
      <trkpt lat="44.46255" lon="6.86745">
        <ele>2121.2</ele>
        <time>2022-08-16T10:00:20Z</time>
      </trkpt>
      <trkpt lat="44.46255" lon="6.86746">
        <ele>2121.2</ele>
        <time>2022-08-16T10:00:21Z</time>
      </trkpt>
      <trkpt lat="44.46255" lon="6.86747">
        <ele>2121.4</ele>
        <time>2022-08-16T10:00:22Z</time>
      </trkpt>
      <trkpt lat="44.46255" lon="6.86748">
        <ele>2121.4</ele>
        <time>2022-08-16T10:00:23Z</time>
      </trkpt>
      <trkpt lat="44.46255" lon="6.8675">
        <ele>2121.6</ele>
        <time>2022-08-16T10:00:24Z</time>
      </trkpt>
      <trkpt lat="44.46254" lon="6.86751">
        <ele>2121.6</ele>
        <time>2022-08-16T10:00:25Z</time>
      </trkpt>
      <trkpt lat="44.46254" lon="6.86751">
        <ele>2121.8</ele>
        <time>2022-08-16T10:00:26Z</time>
      </trkpt>
      <trkpt lat="44.46253" lon="6.86752">
        <ele>2121.8</ele>
        <time>2022-08-16T10:00:27Z</time>
      </trkpt>
      <trkpt lat="44.46252" lon="6.86753">
        <ele>2121.8</ele>
        <time>2022-08-16T10:00:28Z</time>
      </trkpt>
      <trkpt lat="44.46252" lon="6.86753">
        <ele>2121.8</ele>
        <time>2022-08-16T10:00:29Z</time>
      </trkpt>
      <trkpt lat="44.46251" lon="6.86753">
        <ele>2122</ele>
        <time>2022-08-16T10:00:30Z</time>
      </trkpt>
      <trkpt lat="44.46251" lon="6.86753">
        <ele>2122</ele>
        <time>2022-08-16T10:00:31Z</time>
      </trkpt>
      <trkpt lat="44.4625" lon="6.86753">
        <ele>2122.2</ele>
        <time>2022-08-16T10:00:32Z</time>
      </trkpt>
      <trkpt lat="44.46249" lon="6.86752">
        <ele>2122</ele>
        <time>2022-08-16T10:00:33Z</time>
      </trkpt>
      <trkpt lat="44.46249" lon="6.86752">
        <ele>2122.2</ele>
        <time>2022-08-16T10:00:34Z</time>
      </trkpt>
      <trkpt lat="44.46248" lon="6.86752">
        <ele>2122.4</ele>
        <time>2022-08-16T10:00:35Z</time>
      </trkpt>
      <trkpt lat="44.46247" lon="6.86752">
        <ele>2122.6</ele>
        <time>2022-08-16T10:00:36Z</time>
      </trkpt>
      <trkpt lat="44.46246" lon="6.86752">
        <ele>2122.6</ele>
        <time>2022-08-16T10:00:37Z</time>
      </trkpt>
      <trkpt lat="44.46246" lon="6.86752">
        <ele>2122.6</ele>
        <time>2022-08-16T10:00:38Z</time>
      </trkpt>
      <trkpt lat="44.46245" lon="6.86752">
        <ele>2122.8</ele>
        <time>2022-08-16T10:00:39Z</time>
      </trkpt>
      <trkpt lat="44.46244" lon="6.86752">
        <ele>2123</ele>
        <time>2022-08-16T10:00:40Z</time>
      </trkpt>
      <trkpt lat="44.46243" lon="6.86752">
        <ele>2123.2</ele>
        <time>2022-08-16T10:00:41Z</time>
      </trkpt>
      <trkpt lat="44.46242" lon="6.86752">
        <ele>2123.4</ele>
        <time>2022-08-16T10:00:42Z</time>
      </trkpt>
      <trkpt lat="44.46242" lon="6.86752">
        <ele>2123.6</ele>
        <time>2022-08-16T10:00:43Z</time>
      </trkpt>
      <trkpt lat="44.46241" lon="6.86753">
        <ele>2123.8</ele>
        <time>2022-08-16T10:00:44Z</time>
      </trkpt>
      <trkpt lat="44.4624" lon="6.86753">
        <ele>2124.2</ele>
        <time>2022-08-16T10:00:45Z</time>
      </trkpt>
      <trkpt lat="44.4624" lon="6.86754">
        <ele>2124.2</ele>
        <time>2022-08-16T10:00:46Z</time>
      </trkpt>
      <trkpt lat="44.46239" lon="6.86754">
        <ele>2124.6</ele>
        <time>2022-08-16T10:00:47Z</time>
      </trkpt>
      <trkpt lat="44.46239" lon="6.86756">
        <ele>2124.8</ele>
        <time>2022-08-16T10:00:48Z</time>
      </trkpt>
      <trkpt lat="44.46238" lon="6.86757">
        <ele>2125</ele>
        <time>2022-08-16T10:00:49Z</time>
      </trkpt>
      <trkpt lat="44.46238" lon="6.86757">
        <ele>2125.4</ele>
        <time>2022-08-16T10:00:50Z</time>
      </trkpt>
      <trkpt lat="44.46238" lon="6.86758">
        <ele>2125.6</ele>
        <time>2022-08-16T10:00:51Z</time>
      </trkpt>
      <trkpt lat="44.46237" lon="6.86758">
        <ele>2125.6</ele>
        <time>2022-08-16T10:00:52Z</time>
      </trkpt>
      <trkpt lat="44.46237" lon="6.86758">
        <ele>2126</ele>
        <time>2022-08-16T10:00:57Z</time>
      </trkpt>
      <trkpt lat="44.46237" lon="6.86758">
        <ele>2126.4</ele>
        <time>2022-08-16T10:00:58Z</time>
      </trkpt>
      <trkpt lat="44.46236" lon="6.86759">
        <ele>2126.4</ele>
        <time>2022-08-16T10:00:59Z</time>
      </trkpt>
      <trkpt lat="44.46236" lon="6.86761">
        <ele>2126.4</ele>
        <time>2022-08-16T10:01:00Z</time>
      </trkpt>
      <trkpt lat="44.46235" lon="6.86762">
        <ele>2126.8</ele>
        <time>2022-08-16T10:01:01Z</time>
      </trkpt>
      <trkpt lat="44.46235" lon="6.86762">
        <ele>2127</ele>
        <time>2022-08-16T10:01:02Z</time>
      </trkpt>
      <trkpt lat="44.46235" lon="6.86763">
        <ele>2127</ele>
        <time>2022-08-16T10:01:03Z</time>
      </trkpt>
      <trkpt lat="44.46234" lon="6.86763">
        <ele>2127</ele>
        <time>2022-08-16T10:01:04Z</time>
      </trkpt>
      <trkpt lat="44.46234" lon="6.86764">
        <ele>2127</ele>
        <time>2022-08-16T10:01:05Z</time>
      </trkpt>
      <trkpt lat="44.46234" lon="6.86764">
        <ele>2127</ele>
        <time>2022-08-16T10:01:06Z</time>
      </trkpt>
      <trkpt lat="44.46234" lon="6.86765">
        <ele>2127</ele>
        <time>2022-08-16T10:01:08Z</time>
      </trkpt>
      <trkpt lat="44.46233" lon="6.86766">
        <ele>2127.2</ele>
        <time>2022-08-16T10:01:09Z</time>
      </trkpt>
      <trkpt lat="44.46233" lon="6.86767">
        <ele>2127.4</ele>
        <time>2022-08-16T10:01:10Z</time>
      </trkpt>
      <trkpt lat="44.46233" lon="6.86768">
        <ele>2127.4</ele>
        <time>2022-08-16T10:01:11Z</time>
      </trkpt>
      <trkpt lat="44.46233" lon="6.8677">
        <ele>2127.6</ele>
        <time>2022-08-16T10:01:12Z</time>
      </trkpt>
      <trkpt lat="44.46232" lon="6.86771">
        <ele>2127.8</ele>
        <time>2022-08-16T10:01:13Z</time>
      </trkpt>
      <trkpt lat="44.46232" lon="6.86772">
        <ele>2128</ele>
        <time>2022-08-16T10:01:14Z</time>
      </trkpt>
      <trkpt lat="44.46232" lon="6.86773">
        <ele>2128.2</ele>
        <time>2022-08-16T10:01:15Z</time>
      </trkpt>
      <trkpt lat="44.46232" lon="6.86774">
        <ele>2128.2</ele>
        <time>2022-08-16T10:01:16Z</time>
      </trkpt>
      <trkpt lat="44.46232" lon="6.86776">
        <ele>2128.2</ele>
        <time>2022-08-16T10:01:17Z</time>
      </trkpt>
      <trkpt lat="44.46232" lon="6.86777">
        <ele>2128.2</ele>
        <time>2022-08-16T10:01:18Z</time>
      </trkpt>
      <trkpt lat="44.46231" lon="6.86778">
        <ele>2128.6</ele>
        <time>2022-08-16T10:01:22Z</time>
      </trkpt>
      <trkpt lat="44.46231" lon="6.86779">
        <ele>2128.6</ele>
        <time>2022-08-16T10:01:23Z</time>
      </trkpt>
      <trkpt lat="44.4623" lon="6.8678">
        <ele>2128.8</ele>
        <time>2022-08-16T10:01:24Z</time>
      </trkpt>
      <trkpt lat="44.4623" lon="6.8678">
        <ele>2129.4</ele>
        <time>2022-08-16T10:01:29Z</time>
      </trkpt>
      <trkpt lat="44.4623" lon="6.8678">
        <ele>2129.6</ele>
        <time>2022-08-16T10:01:30Z</time>
      </trkpt>
      <trkpt lat="44.4623" lon="6.86781">
        <ele>2129.6</ele>
        <time>2022-08-16T10:01:31Z</time>
      </trkpt>
      <trkpt lat="44.46229" lon="6.86783">
        <ele>2129.8</ele>
        <time>2022-08-16T10:01:34Z</time>
      </trkpt>
      <trkpt lat="44.46229" lon="6.86784">
        <ele>2130</ele>
        <time>2022-08-16T10:01:35Z</time>
      </trkpt>
      <trkpt lat="44.46229" lon="6.86785">
        <ele>2130.2</ele>
        <time>2022-08-16T10:01:37Z</time>
      </trkpt>
      <trkpt lat="44.46228" lon="6.86786">
        <ele>2130.4</ele>
        <time>2022-08-16T10:01:39Z</time>
      </trkpt>
      <trkpt lat="44.46228" lon="6.86788">
        <ele>2130.4</ele>
        <time>2022-08-16T10:01:41Z</time>
      </trkpt>
      <trkpt lat="44.46228" lon="6.86789">
        <ele>2130.4</ele>
        <time>2022-08-16T10:01:42Z</time>
      </trkpt>
      <trkpt lat="44.46228" lon="6.86789">
        <ele>2130.6</ele>
        <time>2022-08-16T10:01:43Z</time>
      </trkpt>
      <trkpt lat="44.46228" lon="6.8679">
        <ele>2131.2</ele>
        <time>2022-08-16T10:01:47Z</time>
      </trkpt>
      <trkpt lat="44.46228" lon="6.86791">
        <ele>2131.4</ele>
        <time>2022-08-16T10:01:48Z</time>
      </trkpt>
      <trkpt lat="44.46228" lon="6.86792">
        <ele>2131.4</ele>
        <time>2022-08-16T10:01:49Z</time>
      </trkpt>
      <trkpt lat="44.46229" lon="6.86794">
        <ele>2131.6</ele>
        <time>2022-08-16T10:01:50Z</time>
      </trkpt>
      <trkpt lat="44.4623" lon="6.86798">
        <ele>2131.8</ele>
        <time>2022-08-16T10:01:53Z</time>
      </trkpt>
      <trkpt lat="44.4623" lon="6.86802">
        <ele>2131.8</ele>
        <time>2022-08-16T10:01:55Z</time>
      </trkpt>
      <trkpt lat="44.4623" lon="6.86804">
        <ele>2131.8</ele>
        <time>2022-08-16T10:01:56Z</time>
      </trkpt>
      <trkpt lat="44.4623" lon="6.86807">
        <ele>2132</ele>
        <time>2022-08-16T10:01:58Z</time>
      </trkpt>
      <trkpt lat="44.4623" lon="6.86809">
        <ele>2132</ele>
        <time>2022-08-16T10:01:59Z</time>
      </trkpt>
      <trkpt lat="44.4623" lon="6.8681">
        <ele>2132.2</ele>
        <time>2022-08-16T10:02:00Z</time>
      </trkpt>
      <trkpt lat="44.4623" lon="6.86812">
        <ele>2132.2</ele>
        <time>2022-08-16T10:02:01Z</time>
      </trkpt>
      <trkpt lat="44.46231" lon="6.86813">
        <ele>2132.4</ele>
        <time>2022-08-16T10:02:02Z</time>
      </trkpt>
      <trkpt lat="44.46231" lon="6.86815">
        <ele>2132.4</ele>
        <time>2022-08-16T10:02:03Z</time>
      </trkpt>
      <trkpt lat="44.46232" lon="6.86816">
        <ele>2132.6</ele>
        <time>2022-08-16T10:02:04Z</time>
      </trkpt>
      <trkpt lat="44.46232" lon="6.86818">
        <ele>2132.8</ele>
        <time>2022-08-16T10:02:05Z</time>
      </trkpt>
      <trkpt lat="44.46232" lon="6.86819">
        <ele>2132.8</ele>
        <time>2022-08-16T10:02:06Z</time>
      </trkpt>
      <trkpt lat="44.46233" lon="6.8682">
        <ele>2133</ele>
        <time>2022-08-16T10:02:07Z</time>
      </trkpt>
      <trkpt lat="44.46233" lon="6.86822">
        <ele>2133.4</ele>
        <time>2022-08-16T10:02:08Z</time>
      </trkpt>
      <trkpt lat="44.46234" lon="6.86823">
        <ele>2133.6</ele>
        <time>2022-08-16T10:02:09Z</time>
      </trkpt>
      <trkpt lat="44.46234" lon="6.86824">
        <ele>2133.8</ele>
        <time>2022-08-16T10:02:10Z</time>
      </trkpt>
      <trkpt lat="44.46234" lon="6.86825">
        <ele>2134</ele>
        <time>2022-08-16T10:02:11Z</time>
      </trkpt>
      <trkpt lat="44.46234" lon="6.86827">
        <ele>2134.2</ele>
        <time>2022-08-16T10:02:12Z</time>
      </trkpt>
      <trkpt lat="44.46235" lon="6.86828">
        <ele>2134.4</ele>
        <time>2022-08-16T10:02:13Z</time>
      </trkpt>
      <trkpt lat="44.46235" lon="6.8683">
        <ele>2134.6</ele>
        <time>2022-08-16T10:02:14Z</time>
      </trkpt>
      <trkpt lat="44.46234" lon="6.86832">
        <ele>2134.8</ele>
        <time>2022-08-16T10:02:15Z</time>
      </trkpt>
      <trkpt lat="44.46234" lon="6.86833">
        <ele>2134.6</ele>
        <time>2022-08-16T10:02:16Z</time>
      </trkpt>
      <trkpt lat="44.46234" lon="6.86835">
        <ele>2135</ele>
        <time>2022-08-16T10:02:17Z</time>
      </trkpt>
      <trkpt lat="44.46234" lon="6.86836">
        <ele>2135</ele>
        <time>2022-08-16T10:02:18Z</time>
      </trkpt>
      <trkpt lat="44.46234" lon="6.86837">
        <ele>2135.2</ele>
        <time>2022-08-16T10:02:19Z</time>
      </trkpt>
      <trkpt lat="44.46234" lon="6.86839">
        <ele>2135.4</ele>
        <time>2022-08-16T10:02:20Z</time>
      </trkpt>
      <trkpt lat="44.46234" lon="6.86841">
        <ele>2135.6</ele>
        <time>2022-08-16T10:02:21Z</time>
      </trkpt>
      <trkpt lat="44.46234" lon="6.86842">
        <ele>2135.6</ele>
        <time>2022-08-16T10:02:22Z</time>
      </trkpt>
      <trkpt lat="44.46234" lon="6.86844">
        <ele>2136</ele>
        <time>2022-08-16T10:02:23Z</time>
      </trkpt>
      <trkpt lat="44.46233" lon="6.86846">
        <ele>2136</ele>
        <time>2022-08-16T10:02:24Z</time>
      </trkpt>
      <trkpt lat="44.46233" lon="6.86848">
        <ele>2136.2</ele>
        <time>2022-08-16T10:02:25Z</time>
      </trkpt>
      <trkpt lat="44.46233" lon="6.86849">
        <ele>2136.4</ele>
        <time>2022-08-16T10:02:26Z</time>
      </trkpt>
      <trkpt lat="44.46233" lon="6.86851">
        <ele>2136.6</ele>
        <time>2022-08-16T10:02:27Z</time>
      </trkpt>
      <trkpt lat="44.46233" lon="6.86853">
        <ele>2136.6</ele>
        <time>2022-08-16T10:02:28Z</time>
      </trkpt>
      <trkpt lat="44.46233" lon="6.86855">
        <ele>2136.6</ele>
        <time>2022-08-16T10:02:29Z</time>
      </trkpt>
      <trkpt lat="44.46233" lon="6.86856">
        <ele>2136.6</ele>
        <time>2022-08-16T10:02:30Z</time>
      </trkpt>
      <trkpt lat="44.46233" lon="6.86858">
        <ele>2137</ele>
        <time>2022-08-16T10:02:31Z</time>
      </trkpt>
      <trkpt lat="44.46233" lon="6.86859">
        <ele>2137.2</ele>
        <time>2022-08-16T10:02:32Z</time>
      </trkpt>
      <trkpt lat="44.46232" lon="6.86861">
        <ele>2137.6</ele>
        <time>2022-08-16T10:02:33Z</time>
      </trkpt>
      <trkpt lat="44.46232" lon="6.86863">
        <ele>2137.6</ele>
        <time>2022-08-16T10:02:34Z</time>
      </trkpt>
      <trkpt lat="44.46232" lon="6.86864">
        <ele>2137.6</ele>
        <time>2022-08-16T10:02:35Z</time>
      </trkpt>
      <trkpt lat="44.46232" lon="6.86865">
        <ele>2137.8</ele>
        <time>2022-08-16T10:02:36Z</time>
      </trkpt>
      <trkpt lat="44.46232" lon="6.86867">
        <ele>2137.8</ele>
        <time>2022-08-16T10:02:37Z</time>
      </trkpt>
      <trkpt lat="44.46232" lon="6.86869">
        <ele>2137.8</ele>
        <time>2022-08-16T10:02:38Z</time>
      </trkpt>
      <trkpt lat="44.46232" lon="6.8687">
        <ele>2138.2</ele>
        <time>2022-08-16T10:02:39Z</time>
      </trkpt>
      <trkpt lat="44.46232" lon="6.86872">
        <ele>2138.6</ele>
        <time>2022-08-16T10:02:40Z</time>
      </trkpt>
      <trkpt lat="44.46232" lon="6.86873">
        <ele>2139.2</ele>
        <time>2022-08-16T10:02:41Z</time>
      </trkpt>
      <trkpt lat="44.46232" lon="6.86875">
        <ele>2139.4</ele>
        <time>2022-08-16T10:02:42Z</time>
      </trkpt>
      <trkpt lat="44.46232" lon="6.86877">
        <ele>2139.4</ele>
        <time>2022-08-16T10:02:43Z</time>
      </trkpt>
      <trkpt lat="44.46232" lon="6.86879">
        <ele>2139.8</ele>
        <time>2022-08-16T10:02:44Z</time>
      </trkpt>
      <trkpt lat="44.46232" lon="6.86881">
        <ele>2140</ele>
        <time>2022-08-16T10:02:45Z</time>
      </trkpt>
      <trkpt lat="44.46232" lon="6.86883">
        <ele>2140.2</ele>
        <time>2022-08-16T10:02:46Z</time>
      </trkpt>
      <trkpt lat="44.46232" lon="6.86884">
        <ele>2140.2</ele>
        <time>2022-08-16T10:02:47Z</time>
      </trkpt>
      <trkpt lat="44.46232" lon="6.86886">
        <ele>2140.2</ele>
        <time>2022-08-16T10:02:48Z</time>
      </trkpt>
      <trkpt lat="44.46232" lon="6.86888">
        <ele>2140.4</ele>
        <time>2022-08-16T10:02:49Z</time>
      </trkpt>
      <trkpt lat="44.46232" lon="6.8689">
        <ele>2140.4</ele>
        <time>2022-08-16T10:02:50Z</time>
      </trkpt>
      <trkpt lat="44.46233" lon="6.86892">
        <ele>2140.6</ele>
        <time>2022-08-16T10:02:51Z</time>
      </trkpt>
      <trkpt lat="44.46233" lon="6.86894">
        <ele>2140.6</ele>
        <time>2022-08-16T10:02:52Z</time>
      </trkpt>
      <trkpt lat="44.46233" lon="6.86895">
        <ele>2140.6</ele>
        <time>2022-08-16T10:02:53Z</time>
      </trkpt>
      <trkpt lat="44.46234" lon="6.86897">
        <ele>2140.6</ele>
        <time>2022-08-16T10:02:54Z</time>
      </trkpt>
      <trkpt lat="44.46234" lon="6.86899">
        <ele>2141</ele>
        <time>2022-08-16T10:02:55Z</time>
      </trkpt>
      <trkpt lat="44.46234" lon="6.869">
        <ele>2141</ele>
        <time>2022-08-16T10:02:56Z</time>
      </trkpt>
      <trkpt lat="44.46235" lon="6.86902">
        <ele>2141.2</ele>
        <time>2022-08-16T10:02:57Z</time>
      </trkpt>
      <trkpt lat="44.46235" lon="6.86904">
        <ele>2141.2</ele>
        <time>2022-08-16T10:02:58Z</time>
      </trkpt>
      <trkpt lat="44.46236" lon="6.86906">
        <ele>2141.6</ele>
        <time>2022-08-16T10:02:59Z</time>
      </trkpt>
      <trkpt lat="44.46237" lon="6.86908">
        <ele>2141.6</ele>
        <time>2022-08-16T10:03:00Z</time>
      </trkpt>
      <trkpt lat="44.46238" lon="6.8691">
        <ele>2141.6</ele>
        <time>2022-08-16T10:03:01Z</time>
      </trkpt>
      <trkpt lat="44.46239" lon="6.86912">
        <ele>2141.8</ele>
        <time>2022-08-16T10:03:02Z</time>
      </trkpt>
      <trkpt lat="44.46239" lon="6.86914">
        <ele>2141.8</ele>
        <time>2022-08-16T10:03:03Z</time>
      </trkpt>
      <trkpt lat="44.46239" lon="6.86916">
        <ele>2142</ele>
        <time>2022-08-16T10:03:04Z</time>
      </trkpt>
      <trkpt lat="44.4624" lon="6.86917">
        <ele>2141.8</ele>
        <time>2022-08-16T10:03:05Z</time>
      </trkpt>
      <trkpt lat="44.4624" lon="6.86919">
        <ele>2142</ele>
        <time>2022-08-16T10:03:06Z</time>
      </trkpt>
      <trkpt lat="44.4624" lon="6.8692">
        <ele>2142.2</ele>
        <time>2022-08-16T10:03:07Z</time>
      </trkpt>
      <trkpt lat="44.4624" lon="6.86921">
        <ele>2142.2</ele>
        <time>2022-08-16T10:03:08Z</time>
      </trkpt>
      <trkpt lat="44.4624" lon="6.86922">
        <ele>2142.2</ele>
        <time>2022-08-16T10:03:09Z</time>
      </trkpt>
      <trkpt lat="44.4624" lon="6.86923">
        <ele>2142.2</ele>
        <time>2022-08-16T10:03:10Z</time>
      </trkpt>
      <trkpt lat="44.46239" lon="6.86924">
        <ele>2142.2</ele>
        <time>2022-08-16T10:03:11Z</time>
      </trkpt>
      <trkpt lat="44.46239" lon="6.86925">
        <ele>2143</ele>
        <time>2022-08-16T10:03:15Z</time>
      </trkpt>
      <trkpt lat="44.46238" lon="6.86926">
        <ele>2143.2</ele>
        <time>2022-08-16T10:03:16Z</time>
      </trkpt>
      <trkpt lat="44.46238" lon="6.86926">
        <ele>2143.4</ele>
        <time>2022-08-16T10:03:17Z</time>
      </trkpt>
      <trkpt lat="44.46238" lon="6.86926">
        <ele>2143.4</ele>
        <time>2022-08-16T10:03:18Z</time>
      </trkpt>
      <trkpt lat="44.46238" lon="6.86927">
        <ele>2143.6</ele>
        <time>2022-08-16T10:03:20Z</time>
      </trkpt>
      <trkpt lat="44.46238" lon="6.86926">
        <ele>2144</ele>
        <time>2022-08-16T10:03:22Z</time>
      </trkpt>
      <trkpt lat="44.46238" lon="6.86926">
        <ele>2144.2</ele>
        <time>2022-08-16T10:03:25Z</time>
      </trkpt>
      <trkpt lat="44.46237" lon="6.86929">
        <ele>2144.4</ele>
        <time>2022-08-16T10:03:28Z</time>
      </trkpt>
      <trkpt lat="44.46237" lon="6.8693">
        <ele>2144.4</ele>
        <time>2022-08-16T10:03:29Z</time>
      </trkpt>
      <trkpt lat="44.46236" lon="6.86931">
        <ele>2144.4</ele>
        <time>2022-08-16T10:03:30Z</time>
      </trkpt>
      <trkpt lat="44.46236" lon="6.86932">
        <ele>2144.4</ele>
        <time>2022-08-16T10:03:32Z</time>
      </trkpt>
      <trkpt lat="44.46235" lon="6.86934">
        <ele>2144.6</ele>
        <time>2022-08-16T10:03:34Z</time>
      </trkpt>
      <trkpt lat="44.46234" lon="6.86935">
        <ele>2144.8</ele>
        <time>2022-08-16T10:03:35Z</time>
      </trkpt>
      <trkpt lat="44.46234" lon="6.86936">
        <ele>2144.8</ele>
        <time>2022-08-16T10:03:36Z</time>
      </trkpt>
      <trkpt lat="44.46234" lon="6.86936">
        <ele>2145</ele>
        <time>2022-08-16T10:03:37Z</time>
      </trkpt>
      <trkpt lat="44.46233" lon="6.86937">
        <ele>2145</ele>
        <time>2022-08-16T10:03:38Z</time>
      </trkpt>
      <trkpt lat="44.46233" lon="6.86938">
        <ele>2145.2</ele>
        <time>2022-08-16T10:03:39Z</time>
      </trkpt>
      <trkpt lat="44.46233" lon="6.86938">
        <ele>2145.4</ele>
        <time>2022-08-16T10:03:40Z</time>
      </trkpt>
      <trkpt lat="44.46232" lon="6.86939">
        <ele>2145.4</ele>
        <time>2022-08-16T10:03:41Z</time>
      </trkpt>
      <trkpt lat="44.46232" lon="6.8694">
        <ele>2145.6</ele>
        <time>2022-08-16T10:03:42Z</time>
      </trkpt>
      <trkpt lat="44.46232" lon="6.86941">
        <ele>2145.8</ele>
        <time>2022-08-16T10:03:43Z</time>
      </trkpt>
      <trkpt lat="44.46231" lon="6.86942">
        <ele>2146</ele>
        <time>2022-08-16T10:03:44Z</time>
      </trkpt>
      <trkpt lat="44.4623" lon="6.86943">
        <ele>2146.2</ele>
        <time>2022-08-16T10:03:45Z</time>
      </trkpt>
      <trkpt lat="44.4623" lon="6.86943">
        <ele>2146.4</ele>
        <time>2022-08-16T10:03:46Z</time>
      </trkpt>
      <trkpt lat="44.46229" lon="6.86944">
        <ele>2146.6</ele>
        <time>2022-08-16T10:03:47Z</time>
      </trkpt>
      <trkpt lat="44.46228" lon="6.86944">
        <ele>2146.6</ele>
        <time>2022-08-16T10:03:48Z</time>
      </trkpt>
      <trkpt lat="44.46227" lon="6.86945">
        <ele>2146.8</ele>
        <time>2022-08-16T10:03:49Z</time>
      </trkpt>
      <trkpt lat="44.46227" lon="6.86946">
        <ele>2147</ele>
        <time>2022-08-16T10:03:50Z</time>
      </trkpt>
      <trkpt lat="44.46227" lon="6.86946">
        <ele>2147.2</ele>
        <time>2022-08-16T10:03:51Z</time>
      </trkpt>
      <trkpt lat="44.46226" lon="6.86947">
        <ele>2147.2</ele>
        <time>2022-08-16T10:03:52Z</time>
      </trkpt>
      <trkpt lat="44.46226" lon="6.86947">
        <ele>2147.4</ele>
        <time>2022-08-16T10:03:53Z</time>
      </trkpt>
      <trkpt lat="44.46226" lon="6.86948">
        <ele>2147.6</ele>
        <time>2022-08-16T10:03:54Z</time>
      </trkpt>
      <trkpt lat="44.46225" lon="6.86949">
        <ele>2147.8</ele>
        <time>2022-08-16T10:03:55Z</time>
      </trkpt>
      <trkpt lat="44.46225" lon="6.86949">
        <ele>2147.8</ele>
        <time>2022-08-16T10:03:56Z</time>
      </trkpt>
      <trkpt lat="44.46225" lon="6.8695">
        <ele>2147.8</ele>
        <time>2022-08-16T10:03:57Z</time>
      </trkpt>
      <trkpt lat="44.46225" lon="6.8695">
        <ele>2148.4</ele>
        <time>2022-08-16T10:04:00Z</time>
      </trkpt>
      <trkpt lat="44.46225" lon="6.8695">
        <ele>2149.4</ele>
        <time>2022-08-16T10:04:07Z</time>
      </trkpt>
      <trkpt lat="44.46225" lon="6.86951">
        <ele>2149.6</ele>
        <time>2022-08-16T10:04:08Z</time>
      </trkpt>
      <trkpt lat="44.46225" lon="6.86951">
        <ele>2149.6</ele>
        <time>2022-08-16T10:04:09Z</time>
      </trkpt>
      <trkpt lat="44.46224" lon="6.86951">
        <ele>2149.6</ele>
        <time>2022-08-16T10:04:10Z</time>
      </trkpt>
      <trkpt lat="44.46222" lon="6.86951">
        <ele>2149.6</ele>
        <time>2022-08-16T10:04:13Z</time>
      </trkpt>
      <trkpt lat="44.46221" lon="6.86952">
        <ele>2149.6</ele>
        <time>2022-08-16T10:04:14Z</time>
      </trkpt>
      <trkpt lat="44.46221" lon="6.86952">
        <ele>2149.8</ele>
        <time>2022-08-16T10:04:15Z</time>
      </trkpt>
      <trkpt lat="44.4622" lon="6.86952">
        <ele>2149.8</ele>
        <time>2022-08-16T10:04:16Z</time>
      </trkpt>
      <trkpt lat="44.4622" lon="6.86953">
        <ele>2149.6</ele>
        <time>2022-08-16T10:04:17Z</time>
      </trkpt>
      <trkpt lat="44.4622" lon="6.86954">
        <ele>2150</ele>
        <time>2022-08-16T10:04:18Z</time>
      </trkpt>
      <trkpt lat="44.46219" lon="6.86954">
        <ele>2150</ele>
        <time>2022-08-16T10:04:19Z</time>
      </trkpt>
      <trkpt lat="44.46219" lon="6.86956">
        <ele>2150.2</ele>
        <time>2022-08-16T10:04:20Z</time>
      </trkpt>
      <trkpt lat="44.46219" lon="6.86957">
        <ele>2150.4</ele>
        <time>2022-08-16T10:04:21Z</time>
      </trkpt>
      <trkpt lat="44.46219" lon="6.86958">
        <ele>2150.6</ele>
        <time>2022-08-16T10:04:22Z</time>
      </trkpt>
      <trkpt lat="44.46218" lon="6.86958">
        <ele>2151</ele>
        <time>2022-08-16T10:04:23Z</time>
      </trkpt>
      <trkpt lat="44.46218" lon="6.86959">
        <ele>2151.2</ele>
        <time>2022-08-16T10:04:24Z</time>
      </trkpt>
      <trkpt lat="44.46218" lon="6.86961">
        <ele>2151.2</ele>
        <time>2022-08-16T10:04:25Z</time>
      </trkpt>
      <trkpt lat="44.46218" lon="6.86961">
        <ele>2151.4</ele>
        <time>2022-08-16T10:04:26Z</time>
      </trkpt>
      <trkpt lat="44.46218" lon="6.86962">
        <ele>2151.4</ele>
        <time>2022-08-16T10:04:27Z</time>
      </trkpt>
      <trkpt lat="44.46217" lon="6.86963">
        <ele>2151.6</ele>
        <time>2022-08-16T10:04:28Z</time>
      </trkpt>
      <trkpt lat="44.46217" lon="6.86963">
        <ele>2151.8</ele>
        <time>2022-08-16T10:04:29Z</time>
      </trkpt>
      <trkpt lat="44.46216" lon="6.86964">
        <ele>2151.8</ele>
        <time>2022-08-16T10:04:30Z</time>
      </trkpt>
      <trkpt lat="44.46216" lon="6.86965">
        <ele>2151.8</ele>
        <time>2022-08-16T10:04:31Z</time>
      </trkpt>
      <trkpt lat="44.46215" lon="6.86965">
        <ele>2152.2</ele>
        <time>2022-08-16T10:04:32Z</time>
      </trkpt>
      <trkpt lat="44.46214" lon="6.86966">
        <ele>2152.2</ele>
        <time>2022-08-16T10:04:33Z</time>
      </trkpt>
      <trkpt lat="44.46214" lon="6.86966">
        <ele>2152.6</ele>
        <time>2022-08-16T10:04:34Z</time>
      </trkpt>
      <trkpt lat="44.46213" lon="6.86967">
        <ele>2152.6</ele>
        <time>2022-08-16T10:04:35Z</time>
      </trkpt>
      <trkpt lat="44.46212" lon="6.86967">
        <ele>2152.8</ele>
        <time>2022-08-16T10:04:36Z</time>
      </trkpt>
      <trkpt lat="44.46212" lon="6.86967">
        <ele>2152.8</ele>
        <time>2022-08-16T10:04:37Z</time>
      </trkpt>
      <trkpt lat="44.46211" lon="6.86967">
        <ele>2153</ele>
        <time>2022-08-16T10:04:38Z</time>
      </trkpt>
      <trkpt lat="44.4621" lon="6.86967">
        <ele>2153.2</ele>
        <time>2022-08-16T10:04:39Z</time>
      </trkpt>
      <trkpt lat="44.46209" lon="6.86968">
        <ele>2153.2</ele>
        <time>2022-08-16T10:04:40Z</time>
      </trkpt>
      <trkpt lat="44.46209" lon="6.86968">
        <ele>2153.2</ele>
        <time>2022-08-16T10:04:41Z</time>
      </trkpt>
      <trkpt lat="44.46208" lon="6.86969">
        <ele>2153.4</ele>
        <time>2022-08-16T10:04:42Z</time>
      </trkpt>
      <trkpt lat="44.46207" lon="6.8697">
        <ele>2153.4</ele>
        <time>2022-08-16T10:04:43Z</time>
      </trkpt>
      <trkpt lat="44.46207" lon="6.86971">
        <ele>2153.6</ele>
        <time>2022-08-16T10:04:44Z</time>
      </trkpt>
      <trkpt lat="44.46206" lon="6.86972">
        <ele>2153.8</ele>
        <time>2022-08-16T10:04:45Z</time>
      </trkpt>
      <trkpt lat="44.46206" lon="6.86973">
        <ele>2153.8</ele>
        <time>2022-08-16T10:04:46Z</time>
      </trkpt>
      <trkpt lat="44.46205" lon="6.86973">
        <ele>2154</ele>
        <time>2022-08-16T10:04:47Z</time>
      </trkpt>
      <trkpt lat="44.46204" lon="6.86974">
        <ele>2154.2</ele>
        <time>2022-08-16T10:04:48Z</time>
      </trkpt>
      <trkpt lat="44.46204" lon="6.86974">
        <ele>2154.2</ele>
        <time>2022-08-16T10:04:49Z</time>
      </trkpt>
      <trkpt lat="44.46203" lon="6.86975">
        <ele>2154.6</ele>
        <time>2022-08-16T10:04:50Z</time>
      </trkpt>
      <trkpt lat="44.46203" lon="6.86975">
        <ele>2154.8</ele>
        <time>2022-08-16T10:04:51Z</time>
      </trkpt>
      <trkpt lat="44.46202" lon="6.86975">
        <ele>2154.8</ele>
        <time>2022-08-16T10:04:52Z</time>
      </trkpt>
      <trkpt lat="44.46201" lon="6.86975">
        <ele>2154.8</ele>
        <time>2022-08-16T10:04:53Z</time>
      </trkpt>
      <trkpt lat="44.46201" lon="6.86976">
        <ele>2155</ele>
        <time>2022-08-16T10:04:54Z</time>
      </trkpt>
      <trkpt lat="44.462" lon="6.86976">
        <ele>2155.2</ele>
        <time>2022-08-16T10:04:55Z</time>
      </trkpt>
      <trkpt lat="44.46199" lon="6.86978">
        <ele>2155.2</ele>
        <time>2022-08-16T10:04:56Z</time>
      </trkpt>
      <trkpt lat="44.46199" lon="6.86979">
        <ele>2155.6</ele>
        <time>2022-08-16T10:04:57Z</time>
      </trkpt>
      <trkpt lat="44.46199" lon="6.8698">
        <ele>2155.6</ele>
        <time>2022-08-16T10:04:58Z</time>
      </trkpt>
      <trkpt lat="44.46199" lon="6.86981">
        <ele>2155.8</ele>
        <time>2022-08-16T10:04:59Z</time>
      </trkpt>
      <trkpt lat="44.46199" lon="6.86982">
        <ele>2156.2</ele>
        <time>2022-08-16T10:05:00Z</time>
      </trkpt>
      <trkpt lat="44.46199" lon="6.86983">
        <ele>2156.2</ele>
        <time>2022-08-16T10:05:01Z</time>
      </trkpt>
      <trkpt lat="44.46199" lon="6.86984">
        <ele>2156.4</ele>
        <time>2022-08-16T10:05:03Z</time>
      </trkpt>
      <trkpt lat="44.46199" lon="6.86984">
        <ele>2157.2</ele>
        <time>2022-08-16T10:05:09Z</time>
      </trkpt>
      <trkpt lat="44.46199" lon="6.86985">
        <ele>2157</ele>
        <time>2022-08-16T10:05:10Z</time>
      </trkpt>
      <trkpt lat="44.46199" lon="6.86986">
        <ele>2157.4</ele>
        <time>2022-08-16T10:05:11Z</time>
      </trkpt>
      <trkpt lat="44.46199" lon="6.86988">
        <ele>2157.4</ele>
        <time>2022-08-16T10:05:12Z</time>
      </trkpt>
      <trkpt lat="44.46199" lon="6.86989">
        <ele>2157.6</ele>
        <time>2022-08-16T10:05:13Z</time>
      </trkpt>
      <trkpt lat="44.46199" lon="6.8699">
        <ele>2157.6</ele>
        <time>2022-08-16T10:05:14Z</time>
      </trkpt>
      <trkpt lat="44.46199" lon="6.86991">
        <ele>2157.8</ele>
        <time>2022-08-16T10:05:15Z</time>
      </trkpt>
      <trkpt lat="44.46199" lon="6.86992">
        <ele>2157.6</ele>
        <time>2022-08-16T10:05:16Z</time>
      </trkpt>
      <trkpt lat="44.46199" lon="6.86993">
        <ele>2157.8</ele>
        <time>2022-08-16T10:05:17Z</time>
      </trkpt>
      <trkpt lat="44.46199" lon="6.86994">
        <ele>2157.8</ele>
        <time>2022-08-16T10:05:18Z</time>
      </trkpt>
      <trkpt lat="44.46199" lon="6.86995">
        <ele>2158</ele>
        <time>2022-08-16T10:05:19Z</time>
      </trkpt>
      <trkpt lat="44.46198" lon="6.86996">
        <ele>2158</ele>
        <time>2022-08-16T10:05:20Z</time>
      </trkpt>
      <trkpt lat="44.46198" lon="6.86996">
        <ele>2158.2</ele>
        <time>2022-08-16T10:05:21Z</time>
      </trkpt>
      <trkpt lat="44.46197" lon="6.86997">
        <ele>2158.4</ele>
        <time>2022-08-16T10:05:22Z</time>
      </trkpt>
      <trkpt lat="44.46196" lon="6.86997">
        <ele>2158.6</ele>
        <time>2022-08-16T10:05:23Z</time>
      </trkpt>
      <trkpt lat="44.46196" lon="6.86998">
        <ele>2158.6</ele>
        <time>2022-08-16T10:05:24Z</time>
      </trkpt>
      <trkpt lat="44.46196" lon="6.86999">
        <ele>2158.6</ele>
        <time>2022-08-16T10:05:25Z</time>
      </trkpt>
      <trkpt lat="44.46195" lon="6.86999">
        <ele>2158.8</ele>
        <time>2022-08-16T10:05:26Z</time>
      </trkpt>
      <trkpt lat="44.46195" lon="6.87">
        <ele>2159</ele>
        <time>2022-08-16T10:05:27Z</time>
      </trkpt>
      <trkpt lat="44.46194" lon="6.87001">
        <ele>2159</ele>
        <time>2022-08-16T10:05:28Z</time>
      </trkpt>
      <trkpt lat="44.46194" lon="6.87001">
        <ele>2159.4</ele>
        <time>2022-08-16T10:05:29Z</time>
      </trkpt>
      <trkpt lat="44.46194" lon="6.87001">
        <ele>2159.8</ele>
        <time>2022-08-16T10:05:33Z</time>
      </trkpt>
      <trkpt lat="44.46194" lon="6.87001">
        <ele>2160</ele>
        <time>2022-08-16T10:05:35Z</time>
      </trkpt>
      <trkpt lat="44.46194" lon="6.87001">
        <ele>2160.2</ele>
        <time>2022-08-16T10:05:36Z</time>
      </trkpt>
      <trkpt lat="44.46193" lon="6.87002">
        <ele>2160.6</ele>
        <time>2022-08-16T10:05:41Z</time>
      </trkpt>
      <trkpt lat="44.46194" lon="6.87002">
        <ele>2160.6</ele>
        <time>2022-08-16T10:05:43Z</time>
      </trkpt>
      <trkpt lat="44.46193" lon="6.87001">
        <ele>2160.6</ele>
        <time>2022-08-16T10:05:50Z</time>
      </trkpt>
      <trkpt lat="44.46193" lon="6.87002">
        <ele>2160.6</ele>
        <time>2022-08-16T10:05:51Z</time>
      </trkpt>
      <trkpt lat="44.46192" lon="6.87002">
        <ele>2160.8</ele>
        <time>2022-08-16T10:05:56Z</time>
      </trkpt>
      <trkpt lat="44.46192" lon="6.87001">
        <ele>2160.8</ele>
        <time>2022-08-16T10:06:05Z</time>
      </trkpt>
      <trkpt lat="44.46192" lon="6.87002">
        <ele>2160.8</ele>
        <time>2022-08-16T10:06:17Z</time>
      </trkpt>
      <trkpt lat="44.46192" lon="6.87001">
        <ele>2160.8</ele>
        <time>2022-08-16T10:06:18Z</time>
      </trkpt>
      <trkpt lat="44.46193" lon="6.87002">
        <ele>2161</ele>
        <time>2022-08-16T10:06:19Z</time>
      </trkpt>
      <trkpt lat="44.46193" lon="6.87002">
        <ele>2160.8</ele>
        <time>2022-08-16T10:06:20Z</time>
      </trkpt>
      <trkpt lat="44.46193" lon="6.87002">
        <ele>2160.8</ele>
        <time>2022-08-16T10:06:22Z</time>
      </trkpt>
      <trkpt lat="44.46193" lon="6.87001">
        <ele>2160.8</ele>
        <time>2022-08-16T10:06:30Z</time>
      </trkpt>
      <trkpt lat="44.46193" lon="6.87001">
        <ele>2160.4</ele>
        <time>2022-08-16T10:06:33Z</time>
      </trkpt>
      <trkpt lat="44.46193" lon="6.87002">
        <ele>2160.2</ele>
        <time>2022-08-16T10:06:44Z</time>
      </trkpt>
      <trkpt lat="44.46193" lon="6.87003">
        <ele>2160</ele>
        <time>2022-08-16T10:06:55Z</time>
      </trkpt>
      <trkpt lat="44.46194" lon="6.87005">
        <ele>2160.2</ele>
        <time>2022-08-16T10:07:07Z</time>
      </trkpt>
      <trkpt lat="44.46194" lon="6.87005">
        <ele>2160.4</ele>
        <time>2022-08-16T10:07:08Z</time>
      </trkpt>
      <trkpt lat="44.46194" lon="6.87005">
        <ele>2160.4</ele>
        <time>2022-08-16T10:07:09Z</time>
      </trkpt>
      <trkpt lat="44.46194" lon="6.87006">
        <ele>2160.2</ele>
        <time>2022-08-16T10:07:10Z</time>
      </trkpt>
      <trkpt lat="44.46195" lon="6.87006">
        <ele>2160.4</ele>
        <time>2022-08-16T10:07:15Z</time>
      </trkpt>
      <trkpt lat="44.46193" lon="6.87003">
        <ele>2160.2</ele>
        <time>2022-08-16T10:07:30Z</time>
      </trkpt>
      <trkpt lat="44.46193" lon="6.87003">
        <ele>2160.2</ele>
        <time>2022-08-16T10:07:31Z</time>
      </trkpt>
      <trkpt lat="44.46193" lon="6.87002">
        <ele>2160.4</ele>
        <time>2022-08-16T10:07:33Z</time>
      </trkpt>
      <trkpt lat="44.46192" lon="6.87001">
        <ele>2160.2</ele>
        <time>2022-08-16T10:07:37Z</time>
      </trkpt>
      <trkpt lat="44.46192" lon="6.87001">
        <ele>2160.4</ele>
        <time>2022-08-16T10:07:38Z</time>
      </trkpt>
      <trkpt lat="44.46192" lon="6.87001">
        <ele>2160.2</ele>
        <time>2022-08-16T10:07:41Z</time>
      </trkpt>
      <trkpt lat="44.46191" lon="6.87001">
        <ele>2160</ele>
        <time>2022-08-16T10:07:44Z</time>
      </trkpt>
      <trkpt lat="44.46191" lon="6.87001">
        <ele>2160</ele>
        <time>2022-08-16T10:07:47Z</time>
      </trkpt>
      <trkpt lat="44.46191" lon="6.87001">
        <ele>2160.2</ele>
        <time>2022-08-16T10:07:49Z</time>
      </trkpt>
      <trkpt lat="44.46191" lon="6.87002">
        <ele>2160.2</ele>
        <time>2022-08-16T10:07:56Z</time>
      </trkpt>
      <trkpt lat="44.4619" lon="6.87002">
        <ele>2160.2</ele>
        <time>2022-08-16T10:08:00Z</time>
      </trkpt>
      <trkpt lat="44.4619" lon="6.87002">
        <ele>2160.2</ele>
        <time>2022-08-16T10:08:01Z</time>
      </trkpt>
      <trkpt lat="44.4619" lon="6.87002">
        <ele>2160</ele>
        <time>2022-08-16T10:08:02Z</time>
      </trkpt>
      <trkpt lat="44.46189" lon="6.87002">
        <ele>2160</ele>
        <time>2022-08-16T10:08:08Z</time>
      </trkpt>
      <trkpt lat="44.46189" lon="6.87002">
        <ele>2160.2</ele>
        <time>2022-08-16T10:08:16Z</time>
      </trkpt>
      <trkpt lat="44.46189" lon="6.87">
        <ele>2160.4</ele>
        <time>2022-08-16T10:08:27Z</time>
      </trkpt>
      <trkpt lat="44.46189" lon="6.87">
        <ele>2160.6</ele>
        <time>2022-08-16T10:08:31Z</time>
      </trkpt>
      <trkpt lat="44.46189" lon="6.87">
        <ele>2160.6</ele>
        <time>2022-08-16T10:08:34Z</time>
      </trkpt>
      <trkpt lat="44.46189" lon="6.87001">
        <ele>2160.6</ele>
        <time>2022-08-16T10:08:36Z</time>
      </trkpt>
      <trkpt lat="44.4619" lon="6.87">
        <ele>2160.6</ele>
        <time>2022-08-16T10:08:40Z</time>
      </trkpt>
      <trkpt lat="44.4619" lon="6.87001">
        <ele>2160.6</ele>
        <time>2022-08-16T10:08:56Z</time>
      </trkpt>
      <trkpt lat="44.46189" lon="6.87001">
        <ele>2160.6</ele>
        <time>2022-08-16T10:09:12Z</time>
      </trkpt>
      <trkpt lat="44.46189" lon="6.87001">
        <ele>2160.8</ele>
        <time>2022-08-16T10:09:25Z</time>
      </trkpt>
      <trkpt lat="44.46189" lon="6.87">
        <ele>2160.6</ele>
        <time>2022-08-16T10:09:32Z</time>
      </trkpt>
      <trkpt lat="44.46189" lon="6.87">
        <ele>2160.8</ele>
        <time>2022-08-16T10:09:35Z</time>
      </trkpt>
      <trkpt lat="44.46189" lon="6.86999">
        <ele>2160.6</ele>
        <time>2022-08-16T10:09:49Z</time>
      </trkpt>
      <trkpt lat="44.46189" lon="6.86999">
        <ele>2160.6</ele>
        <time>2022-08-16T10:09:51Z</time>
      </trkpt>
      <trkpt lat="44.46189" lon="6.86999">
        <ele>2160.6</ele>
        <time>2022-08-16T10:09:56Z</time>
      </trkpt>
      <trkpt lat="44.46189" lon="6.86999">
        <ele>2160.2</ele>
        <time>2022-08-16T10:10:07Z</time>
      </trkpt>
      <trkpt lat="44.46189" lon="6.86998">
        <ele>2160.2</ele>
        <time>2022-08-16T10:10:21Z</time>
      </trkpt>
      <trkpt lat="44.46189" lon="6.86998">
        <ele>2160.2</ele>
        <time>2022-08-16T10:10:22Z</time>
      </trkpt>
      <trkpt lat="44.46189" lon="6.86998">
        <ele>2160.2</ele>
        <time>2022-08-16T10:10:26Z</time>
      </trkpt>
      <trkpt lat="44.46189" lon="6.86999">
        <ele>2160.2</ele>
        <time>2022-08-16T10:10:28Z</time>
      </trkpt>
      <trkpt lat="44.46189" lon="6.86999">
        <ele>2160.2</ele>
        <time>2022-08-16T10:10:33Z</time>
      </trkpt>
      <trkpt lat="44.4619" lon="6.86999">
        <ele>2160.2</ele>
        <time>2022-08-16T10:10:43Z</time>
      </trkpt>
      <trkpt lat="44.4619" lon="6.86998">
        <ele>2160</ele>
        <time>2022-08-16T10:10:44Z</time>
      </trkpt>
      <trkpt lat="44.4619" lon="6.86999">
        <ele>2160.2</ele>
        <time>2022-08-16T10:10:45Z</time>
      </trkpt>
      <trkpt lat="44.4619" lon="6.86999">
        <ele>2160</ele>
        <time>2022-08-16T10:10:46Z</time>
      </trkpt>
      <trkpt lat="44.46191" lon="6.86998">
        <ele>2160.2</ele>
        <time>2022-08-16T10:10:49Z</time>
      </trkpt>
      <trkpt lat="44.46191" lon="6.86998">
        <ele>2160</ele>
        <time>2022-08-16T10:10:50Z</time>
      </trkpt>
      <trkpt lat="44.46193" lon="6.86999">
        <ele>2160.2</ele>
        <time>2022-08-16T10:10:54Z</time>
      </trkpt>
      <trkpt lat="44.4619" lon="6.87">
        <ele>2160.2</ele>
        <time>2022-08-16T10:11:00Z</time>
      </trkpt>
      <trkpt lat="44.4619" lon="6.87001">
        <ele>2160.2</ele>
        <time>2022-08-16T10:11:01Z</time>
      </trkpt>
      <trkpt lat="44.46189" lon="6.87001">
        <ele>2160.2</ele>
        <time>2022-08-16T10:11:02Z</time>
      </trkpt>
      <trkpt lat="44.46188" lon="6.87001">
        <ele>2160</ele>
        <time>2022-08-16T10:11:03Z</time>
      </trkpt>
      <trkpt lat="44.46185" lon="6.87002">
        <ele>2160.2</ele>
        <time>2022-08-16T10:11:06Z</time>
      </trkpt>
      <trkpt lat="44.46182" lon="6.87004">
        <ele>2160.2</ele>
        <time>2022-08-16T10:11:09Z</time>
      </trkpt>
      <trkpt lat="44.46181" lon="6.87004">
        <ele>2160.4</ele>
        <time>2022-08-16T10:11:10Z</time>
      </trkpt>
      <trkpt lat="44.46181" lon="6.87005">
        <ele>2160.4</ele>
        <time>2022-08-16T10:11:11Z</time>
      </trkpt>
      <trkpt lat="44.46179" lon="6.87007">
        <ele>2160.4</ele>
        <time>2022-08-16T10:11:13Z</time>
      </trkpt>
      <trkpt lat="44.46179" lon="6.87008">
        <ele>2160.4</ele>
        <time>2022-08-16T10:11:14Z</time>
      </trkpt>
      <trkpt lat="44.46179" lon="6.87008">
        <ele>2160.6</ele>
        <time>2022-08-16T10:11:15Z</time>
      </trkpt>
      <trkpt lat="44.46179" lon="6.87009">
        <ele>2160.8</ele>
        <time>2022-08-16T10:11:16Z</time>
      </trkpt>
      <trkpt lat="44.46181" lon="6.87009">
        <ele>2161.6</ele>
        <time>2022-08-16T10:11:20Z</time>
      </trkpt>
      <trkpt lat="44.46181" lon="6.87009">
        <ele>2161.8</ele>
        <time>2022-08-16T10:11:21Z</time>
      </trkpt>
      <trkpt lat="44.46181" lon="6.87009">
        <ele>2162</ele>
        <time>2022-08-16T10:11:22Z</time>
      </trkpt>
      <trkpt lat="44.4618" lon="6.8701">
        <ele>2163.4</ele>
        <time>2022-08-16T10:11:31Z</time>
      </trkpt>
      <trkpt lat="44.4618" lon="6.87011">
        <ele>2163.4</ele>
        <time>2022-08-16T10:11:32Z</time>
      </trkpt>
      <trkpt lat="44.4618" lon="6.87012">
        <ele>2163.4</ele>
        <time>2022-08-16T10:11:33Z</time>
      </trkpt>
      <trkpt lat="44.4618" lon="6.87014">
        <ele>2163.4</ele>
        <time>2022-08-16T10:11:34Z</time>
      </trkpt>
      <trkpt lat="44.46181" lon="6.87015">
        <ele>2163.6</ele>
        <time>2022-08-16T10:11:35Z</time>
      </trkpt>
      <trkpt lat="44.46181" lon="6.87015">
        <ele>2163.6</ele>
        <time>2022-08-16T10:11:36Z</time>
      </trkpt>
      <trkpt lat="44.46181" lon="6.87016">
        <ele>2163.4</ele>
        <time>2022-08-16T10:11:37Z</time>
      </trkpt>
      <trkpt lat="44.46182" lon="6.87018">
        <ele>2163.6</ele>
        <time>2022-08-16T10:11:39Z</time>
      </trkpt>
      <trkpt lat="44.46182" lon="6.87019">
        <ele>2163.6</ele>
        <time>2022-08-16T10:11:40Z</time>
      </trkpt>
      <trkpt lat="44.46183" lon="6.8702">
        <ele>2163.6</ele>
        <time>2022-08-16T10:11:41Z</time>
      </trkpt>
      <trkpt lat="44.46183" lon="6.87021">
        <ele>2163.6</ele>
        <time>2022-08-16T10:11:42Z</time>
      </trkpt>
      <trkpt lat="44.46184" lon="6.87021">
        <ele>2163.6</ele>
        <time>2022-08-16T10:11:43Z</time>
      </trkpt>
      <trkpt lat="44.46184" lon="6.87021">
        <ele>2163.8</ele>
        <time>2022-08-16T10:11:44Z</time>
      </trkpt>
      <trkpt lat="44.46186" lon="6.87024">
        <ele>2164.2</ele>
        <time>2022-08-16T10:11:47Z</time>
      </trkpt>
      <trkpt lat="44.46186" lon="6.87025">
        <ele>2164.4</ele>
        <time>2022-08-16T10:11:48Z</time>
      </trkpt>
      <trkpt lat="44.46186" lon="6.87025">
        <ele>2164.6</ele>
        <time>2022-08-16T10:11:49Z</time>
      </trkpt>
      <trkpt lat="44.46187" lon="6.87026">
        <ele>2164.8</ele>
        <time>2022-08-16T10:11:50Z</time>
      </trkpt>
      <trkpt lat="44.46187" lon="6.87027">
        <ele>2165</ele>
        <time>2022-08-16T10:11:51Z</time>
      </trkpt>
      <trkpt lat="44.46188" lon="6.87027">
        <ele>2165</ele>
        <time>2022-08-16T10:11:52Z</time>
      </trkpt>
      <trkpt lat="44.46188" lon="6.87028">
        <ele>2165.2</ele>
        <time>2022-08-16T10:11:53Z</time>
      </trkpt>
      <trkpt lat="44.46189" lon="6.87029">
        <ele>2165.4</ele>
        <time>2022-08-16T10:11:54Z</time>
      </trkpt>
      <trkpt lat="44.46189" lon="6.8703">
        <ele>2165.4</ele>
        <time>2022-08-16T10:11:55Z</time>
      </trkpt>
      <trkpt lat="44.4619" lon="6.8703">
        <ele>2165.6</ele>
        <time>2022-08-16T10:11:56Z</time>
      </trkpt>
      <trkpt lat="44.4619" lon="6.87032">
        <ele>2165.8</ele>
        <time>2022-08-16T10:11:58Z</time>
      </trkpt>
      <trkpt lat="44.46191" lon="6.87032">
        <ele>2165.8</ele>
        <time>2022-08-16T10:11:59Z</time>
      </trkpt>
      <trkpt lat="44.46191" lon="6.87033">
        <ele>2165.8</ele>
        <time>2022-08-16T10:12:00Z</time>
      </trkpt>
      <trkpt lat="44.46192" lon="6.87034">
        <ele>2166</ele>
        <time>2022-08-16T10:12:01Z</time>
      </trkpt>
      <trkpt lat="44.46192" lon="6.87035">
        <ele>2166.2</ele>
        <time>2022-08-16T10:12:02Z</time>
      </trkpt>
      <trkpt lat="44.46193" lon="6.87035">
        <ele>2166.6</ele>
        <time>2022-08-16T10:12:05Z</time>
      </trkpt>
      <trkpt lat="44.46193" lon="6.87036">
        <ele>2167</ele>
        <time>2022-08-16T10:12:06Z</time>
      </trkpt>
      <trkpt lat="44.46193" lon="6.87037">
        <ele>2167</ele>
        <time>2022-08-16T10:12:07Z</time>
      </trkpt>
      <trkpt lat="44.46193" lon="6.87038">
        <ele>2167.2</ele>
        <time>2022-08-16T10:12:08Z</time>
      </trkpt>
      <trkpt lat="44.46192" lon="6.87039">
        <ele>2167.2</ele>
        <time>2022-08-16T10:12:09Z</time>
      </trkpt>
      <trkpt lat="44.46192" lon="6.8704">
        <ele>2167.6</ele>
        <time>2022-08-16T10:12:10Z</time>
      </trkpt>
      <trkpt lat="44.46192" lon="6.8704">
        <ele>2167.6</ele>
        <time>2022-08-16T10:12:11Z</time>
      </trkpt>
      <trkpt lat="44.46191" lon="6.87041">
        <ele>2167.8</ele>
        <time>2022-08-16T10:12:12Z</time>
      </trkpt>
      <trkpt lat="44.46191" lon="6.87041">
        <ele>2168</ele>
        <time>2022-08-16T10:12:13Z</time>
      </trkpt>
      <trkpt lat="44.46191" lon="6.87042">
        <ele>2168</ele>
        <time>2022-08-16T10:12:14Z</time>
      </trkpt>
      <trkpt lat="44.4619" lon="6.87043">
        <ele>2168.2</ele>
        <time>2022-08-16T10:12:15Z</time>
      </trkpt>
      <trkpt lat="44.4619" lon="6.87043">
        <ele>2168.4</ele>
        <time>2022-08-16T10:12:16Z</time>
      </trkpt>
      <trkpt lat="44.46189" lon="6.87044">
        <ele>2168.4</ele>
        <time>2022-08-16T10:12:17Z</time>
      </trkpt>
      <trkpt lat="44.46189" lon="6.87044">
        <ele>2168.6</ele>
        <time>2022-08-16T10:12:18Z</time>
      </trkpt>
      <trkpt lat="44.46188" lon="6.87044">
        <ele>2168.8</ele>
        <time>2022-08-16T10:12:19Z</time>
      </trkpt>
      <trkpt lat="44.46188" lon="6.87045">
        <ele>2169</ele>
        <time>2022-08-16T10:12:21Z</time>
      </trkpt>
      <trkpt lat="44.46187" lon="6.87044">
        <ele>2169.2</ele>
        <time>2022-08-16T10:12:22Z</time>
      </trkpt>
      <trkpt lat="44.46186" lon="6.87044">
        <ele>2169.4</ele>
        <time>2022-08-16T10:12:23Z</time>
      </trkpt>
      <trkpt lat="44.46186" lon="6.87045">
        <ele>2169.8</ele>
        <time>2022-08-16T10:12:25Z</time>
      </trkpt>
      <trkpt lat="44.46185" lon="6.87045">
        <ele>2170</ele>
        <time>2022-08-16T10:12:26Z</time>
      </trkpt>
      <trkpt lat="44.46185" lon="6.87046">
        <ele>2170</ele>
        <time>2022-08-16T10:12:27Z</time>
      </trkpt>
      <trkpt lat="44.46185" lon="6.87047">
        <ele>2170.2</ele>
        <time>2022-08-16T10:12:28Z</time>
      </trkpt>
      <trkpt lat="44.46185" lon="6.87047">
        <ele>2170.2</ele>
        <time>2022-08-16T10:12:29Z</time>
      </trkpt>
      <trkpt lat="44.46186" lon="6.87048">
        <ele>2170.4</ele>
        <time>2022-08-16T10:12:30Z</time>
      </trkpt>
      <trkpt lat="44.46186" lon="6.87049">
        <ele>2170.4</ele>
        <time>2022-08-16T10:12:31Z</time>
      </trkpt>
      <trkpt lat="44.46186" lon="6.87049">
        <ele>2170.4</ele>
        <time>2022-08-16T10:12:32Z</time>
      </trkpt>
      <trkpt lat="44.46187" lon="6.8705">
        <ele>2170.6</ele>
        <time>2022-08-16T10:12:33Z</time>
      </trkpt>
      <trkpt lat="44.46187" lon="6.8705">
        <ele>2170.8</ele>
        <time>2022-08-16T10:12:34Z</time>
      </trkpt>
      <trkpt lat="44.46187" lon="6.87051">
        <ele>2171</ele>
        <time>2022-08-16T10:12:35Z</time>
      </trkpt>
      <trkpt lat="44.46187" lon="6.87052">
        <ele>2171.4</ele>
        <time>2022-08-16T10:12:36Z</time>
      </trkpt>
      <trkpt lat="44.46187" lon="6.87052">
        <ele>2171.4</ele>
        <time>2022-08-16T10:12:37Z</time>
      </trkpt>
      <trkpt lat="44.46187" lon="6.87053">
        <ele>2172</ele>
        <time>2022-08-16T10:12:40Z</time>
      </trkpt>
      <trkpt lat="44.46186" lon="6.87053">
        <ele>2172.4</ele>
        <time>2022-08-16T10:12:41Z</time>
      </trkpt>
      <trkpt lat="44.46186" lon="6.87054">
        <ele>2172.4</ele>
        <time>2022-08-16T10:12:42Z</time>
      </trkpt>
      <trkpt lat="44.46186" lon="6.87054">
        <ele>2172.6</ele>
        <time>2022-08-16T10:12:43Z</time>
      </trkpt>
      <trkpt lat="44.46185" lon="6.87054">
        <ele>2172.6</ele>
        <time>2022-08-16T10:12:44Z</time>
      </trkpt>
      <trkpt lat="44.46185" lon="6.87054">
        <ele>2173</ele>
        <time>2022-08-16T10:12:45Z</time>
      </trkpt>
      <trkpt lat="44.46184" lon="6.87054">
        <ele>2173</ele>
        <time>2022-08-16T10:12:46Z</time>
      </trkpt>
      <trkpt lat="44.46184" lon="6.87055">
        <ele>2173.2</ele>
        <time>2022-08-16T10:12:47Z</time>
      </trkpt>
      <trkpt lat="44.46184" lon="6.87056">
        <ele>2173.2</ele>
        <time>2022-08-16T10:12:48Z</time>
      </trkpt>
      <trkpt lat="44.46184" lon="6.87057">
        <ele>2173.4</ele>
        <time>2022-08-16T10:12:49Z</time>
      </trkpt>
      <trkpt lat="44.46184" lon="6.87057">
        <ele>2173.4</ele>
        <time>2022-08-16T10:12:50Z</time>
      </trkpt>
      <trkpt lat="44.46184" lon="6.87058">
        <ele>2173.4</ele>
        <time>2022-08-16T10:12:51Z</time>
      </trkpt>
      <trkpt lat="44.46184" lon="6.87058">
        <ele>2174</ele>
        <time>2022-08-16T10:12:52Z</time>
      </trkpt>
      <trkpt lat="44.46185" lon="6.87059">
        <ele>2174.2</ele>
        <time>2022-08-16T10:12:54Z</time>
      </trkpt>
      <trkpt lat="44.46185" lon="6.87059">
        <ele>2174.2</ele>
        <time>2022-08-16T10:12:55Z</time>
      </trkpt>
      <trkpt lat="44.46186" lon="6.8706">
        <ele>2174.2</ele>
        <time>2022-08-16T10:12:56Z</time>
      </trkpt>
      <trkpt lat="44.46186" lon="6.8706">
        <ele>2174.4</ele>
        <time>2022-08-16T10:12:57Z</time>
      </trkpt>
      <trkpt lat="44.46186" lon="6.87061">
        <ele>2174.4</ele>
        <time>2022-08-16T10:12:58Z</time>
      </trkpt>
      <trkpt lat="44.46187" lon="6.87061">
        <ele>2174.6</ele>
        <time>2022-08-16T10:12:59Z</time>
      </trkpt>
      <trkpt lat="44.46187" lon="6.87061">
        <ele>2175.6</ele>
        <time>2022-08-16T10:13:07Z</time>
      </trkpt>
      <trkpt lat="44.46187" lon="6.87061">
        <ele>2176.2</ele>
        <time>2022-08-16T10:13:10Z</time>
      </trkpt>
      <trkpt lat="44.46188" lon="6.87062">
        <ele>2176.2</ele>
        <time>2022-08-16T10:13:11Z</time>
      </trkpt>
      <trkpt lat="44.46188" lon="6.87062">
        <ele>2176.2</ele>
        <time>2022-08-16T10:13:12Z</time>
      </trkpt>
      <trkpt lat="44.46189" lon="6.87063">
        <ele>2176.2</ele>
        <time>2022-08-16T10:13:13Z</time>
      </trkpt>
      <trkpt lat="44.4619" lon="6.87065">
        <ele>2176.4</ele>
        <time>2022-08-16T10:13:15Z</time>
      </trkpt>
      <trkpt lat="44.4619" lon="6.87065">
        <ele>2176.2</ele>
        <time>2022-08-16T10:13:16Z</time>
      </trkpt>
      <trkpt lat="44.46191" lon="6.87066">
        <ele>2176.4</ele>
        <time>2022-08-16T10:13:17Z</time>
      </trkpt>
      <trkpt lat="44.46191" lon="6.87066">
        <ele>2176.4</ele>
        <time>2022-08-16T10:13:18Z</time>
      </trkpt>
      <trkpt lat="44.46193" lon="6.87067">
        <ele>2176.6</ele>
        <time>2022-08-16T10:13:21Z</time>
      </trkpt>
      <trkpt lat="44.46194" lon="6.87067">
        <ele>2176.6</ele>
        <time>2022-08-16T10:13:22Z</time>
      </trkpt>
      <trkpt lat="44.46195" lon="6.87067">
        <ele>2176.6</ele>
        <time>2022-08-16T10:13:23Z</time>
      </trkpt>
      <trkpt lat="44.46196" lon="6.87068">
        <ele>2176.8</ele>
        <time>2022-08-16T10:13:24Z</time>
      </trkpt>
      <trkpt lat="44.46197" lon="6.87068">
        <ele>2177</ele>
        <time>2022-08-16T10:13:25Z</time>
      </trkpt>
      <trkpt lat="44.46198" lon="6.87069">
        <ele>2177</ele>
        <time>2022-08-16T10:13:27Z</time>
      </trkpt>
      <trkpt lat="44.462" lon="6.8707">
        <ele>2177.4</ele>
        <time>2022-08-16T10:13:29Z</time>
      </trkpt>
      <trkpt lat="44.462" lon="6.8707">
        <ele>2177.4</ele>
        <time>2022-08-16T10:13:30Z</time>
      </trkpt>
      <trkpt lat="44.46201" lon="6.8707">
        <ele>2177.8</ele>
        <time>2022-08-16T10:13:32Z</time>
      </trkpt>
      <trkpt lat="44.46203" lon="6.87071">
        <ele>2178</ele>
        <time>2022-08-16T10:13:36Z</time>
      </trkpt>
      <trkpt lat="44.46204" lon="6.87071">
        <ele>2178.6</ele>
        <time>2022-08-16T10:13:42Z</time>
      </trkpt>
      <trkpt lat="44.46204" lon="6.87071">
        <ele>2178.6</ele>
        <time>2022-08-16T10:14:05Z</time>
      </trkpt>
      <trkpt lat="44.46205" lon="6.87072">
        <ele>2178.6</ele>
        <time>2022-08-16T10:14:06Z</time>
      </trkpt>
      <trkpt lat="44.46206" lon="6.87072">
        <ele>2178.6</ele>
        <time>2022-08-16T10:14:07Z</time>
      </trkpt>
      <trkpt lat="44.46207" lon="6.87073">
        <ele>2178.6</ele>
        <time>2022-08-16T10:14:08Z</time>
      </trkpt>
      <trkpt lat="44.46208" lon="6.87074">
        <ele>2178.6</ele>
        <time>2022-08-16T10:14:09Z</time>
      </trkpt>
      <trkpt lat="44.46211" lon="6.87075">
        <ele>2178.6</ele>
        <time>2022-08-16T10:14:12Z</time>
      </trkpt>
      <trkpt lat="44.46213" lon="6.87077">
        <ele>2178.8</ele>
        <time>2022-08-16T10:14:14Z</time>
      </trkpt>
      <trkpt lat="44.46214" lon="6.87078">
        <ele>2178.8</ele>
        <time>2022-08-16T10:14:15Z</time>
      </trkpt>
      <trkpt lat="44.46215" lon="6.87078">
        <ele>2178.8</ele>
        <time>2022-08-16T10:14:16Z</time>
      </trkpt>
      <trkpt lat="44.46216" lon="6.87078">
        <ele>2179</ele>
        <time>2022-08-16T10:14:17Z</time>
      </trkpt>
      <trkpt lat="44.46217" lon="6.87078">
        <ele>2179.2</ele>
        <time>2022-08-16T10:14:18Z</time>
      </trkpt>
      <trkpt lat="44.46218" lon="6.87079">
        <ele>2179.2</ele>
        <time>2022-08-16T10:14:19Z</time>
      </trkpt>
      <trkpt lat="44.4622" lon="6.87079">
        <ele>2179.2</ele>
        <time>2022-08-16T10:14:20Z</time>
      </trkpt>
      <trkpt lat="44.46221" lon="6.87079">
        <ele>2179.4</ele>
        <time>2022-08-16T10:14:21Z</time>
      </trkpt>
      <trkpt lat="44.46223" lon="6.87079">
        <ele>2179.8</ele>
        <time>2022-08-16T10:14:24Z</time>
      </trkpt>
      <trkpt lat="44.46226" lon="6.8708">
        <ele>2180</ele>
        <time>2022-08-16T10:14:27Z</time>
      </trkpt>
      <trkpt lat="44.46227" lon="6.87081">
        <ele>2180.4</ele>
        <time>2022-08-16T10:14:28Z</time>
      </trkpt>
      <trkpt lat="44.46228" lon="6.87082">
        <ele>2180.6</ele>
        <time>2022-08-16T10:14:29Z</time>
      </trkpt>
      <trkpt lat="44.46229" lon="6.87082">
        <ele>2180.8</ele>
        <time>2022-08-16T10:14:30Z</time>
      </trkpt>
      <trkpt lat="44.4623" lon="6.87081">
        <ele>2181</ele>
        <time>2022-08-16T10:14:31Z</time>
      </trkpt>
      <trkpt lat="44.46231" lon="6.87081">
        <ele>2181</ele>
        <time>2022-08-16T10:14:32Z</time>
      </trkpt>
      <trkpt lat="44.46232" lon="6.87081">
        <ele>2181.2</ele>
        <time>2022-08-16T10:14:33Z</time>
      </trkpt>
      <trkpt lat="44.46233" lon="6.87081">
        <ele>2181.2</ele>
        <time>2022-08-16T10:14:34Z</time>
      </trkpt>
      <trkpt lat="44.46234" lon="6.87081">
        <ele>2181.2</ele>
        <time>2022-08-16T10:14:35Z</time>
      </trkpt>
      <trkpt lat="44.46236" lon="6.87081">
        <ele>2181.4</ele>
        <time>2022-08-16T10:14:36Z</time>
      </trkpt>
      <trkpt lat="44.46237" lon="6.87082">
        <ele>2181.6</ele>
        <time>2022-08-16T10:14:37Z</time>
      </trkpt>
      <trkpt lat="44.46238" lon="6.87082">
        <ele>2181.6</ele>
        <time>2022-08-16T10:14:38Z</time>
      </trkpt>
      <trkpt lat="44.46239" lon="6.87083">
        <ele>2182</ele>
        <time>2022-08-16T10:14:39Z</time>
      </trkpt>
      <trkpt lat="44.4624" lon="6.87085">
        <ele>2182</ele>
        <time>2022-08-16T10:14:40Z</time>
      </trkpt>
      <trkpt lat="44.46241" lon="6.87086">
        <ele>2182.2</ele>
        <time>2022-08-16T10:14:41Z</time>
      </trkpt>
      <trkpt lat="44.46242" lon="6.87087">
        <ele>2182.4</ele>
        <time>2022-08-16T10:14:42Z</time>
      </trkpt>
      <trkpt lat="44.46243" lon="6.87087">
        <ele>2182.6</ele>
        <time>2022-08-16T10:14:43Z</time>
      </trkpt>
      <trkpt lat="44.46244" lon="6.87088">
        <ele>2182.8</ele>
        <time>2022-08-16T10:14:44Z</time>
      </trkpt>
      <trkpt lat="44.46245" lon="6.87089">
        <ele>2183</ele>
        <time>2022-08-16T10:14:45Z</time>
      </trkpt>
      <trkpt lat="44.46246" lon="6.87089">
        <ele>2183</ele>
        <time>2022-08-16T10:14:46Z</time>
      </trkpt>
      <trkpt lat="44.46247" lon="6.8709">
        <ele>2183.2</ele>
        <time>2022-08-16T10:14:47Z</time>
      </trkpt>
      <trkpt lat="44.46248" lon="6.8709">
        <ele>2183.4</ele>
        <time>2022-08-16T10:14:48Z</time>
      </trkpt>
      <trkpt lat="44.46249" lon="6.87091">
        <ele>2183.6</ele>
        <time>2022-08-16T10:14:49Z</time>
      </trkpt>
      <trkpt lat="44.4625" lon="6.87092">
        <ele>2183.8</ele>
        <time>2022-08-16T10:14:50Z</time>
      </trkpt>
      <trkpt lat="44.4625" lon="6.87093">
        <ele>2184</ele>
        <time>2022-08-16T10:14:51Z</time>
      </trkpt>
      <trkpt lat="44.46251" lon="6.87094">
        <ele>2184.4</ele>
        <time>2022-08-16T10:14:52Z</time>
      </trkpt>
      <trkpt lat="44.46252" lon="6.87095">
        <ele>2184.4</ele>
        <time>2022-08-16T10:14:53Z</time>
      </trkpt>
      <trkpt lat="44.46253" lon="6.87097">
        <ele>2184.4</ele>
        <time>2022-08-16T10:14:54Z</time>
      </trkpt>
      <trkpt lat="44.46254" lon="6.87098">
        <ele>2184.6</ele>
        <time>2022-08-16T10:14:55Z</time>
      </trkpt>
      <trkpt lat="44.46255" lon="6.87099">
        <ele>2184.8</ele>
        <time>2022-08-16T10:14:56Z</time>
      </trkpt>
      <trkpt lat="44.46256" lon="6.871">
        <ele>2185</ele>
        <time>2022-08-16T10:14:57Z</time>
      </trkpt>
      <trkpt lat="44.46256" lon="6.87102">
        <ele>2185.2</ele>
        <time>2022-08-16T10:14:58Z</time>
      </trkpt>
      <trkpt lat="44.46257" lon="6.87103">
        <ele>2185.4</ele>
        <time>2022-08-16T10:14:59Z</time>
      </trkpt>
      <trkpt lat="44.46258" lon="6.87104">
        <ele>2185.4</ele>
        <time>2022-08-16T10:15:00Z</time>
      </trkpt>
      <trkpt lat="44.46259" lon="6.87105">
        <ele>2185.4</ele>
        <time>2022-08-16T10:15:01Z</time>
      </trkpt>
      <trkpt lat="44.4626" lon="6.87106">
        <ele>2185.8</ele>
        <time>2022-08-16T10:15:02Z</time>
      </trkpt>
      <trkpt lat="44.46261" lon="6.87108">
        <ele>2186</ele>
        <time>2022-08-16T10:15:03Z</time>
      </trkpt>
      <trkpt lat="44.46262" lon="6.87109">
        <ele>2186.2</ele>
        <time>2022-08-16T10:15:04Z</time>
      </trkpt>
      <trkpt lat="44.46262" lon="6.8711">
        <ele>2186.4</ele>
        <time>2022-08-16T10:15:05Z</time>
      </trkpt>
      <trkpt lat="44.46263" lon="6.87111">
        <ele>2186.6</ele>
        <time>2022-08-16T10:15:06Z</time>
      </trkpt>
      <trkpt lat="44.46264" lon="6.87111">
        <ele>2186.4</ele>
        <time>2022-08-16T10:15:07Z</time>
      </trkpt>
      <trkpt lat="44.46265" lon="6.8711">
        <ele>2186.6</ele>
        <time>2022-08-16T10:15:08Z</time>
      </trkpt>
      <trkpt lat="44.46266" lon="6.8711">
        <ele>2186.8</ele>
        <time>2022-08-16T10:15:09Z</time>
      </trkpt>
      <trkpt lat="44.46267" lon="6.87109">
        <ele>2186.8</ele>
        <time>2022-08-16T10:15:10Z</time>
      </trkpt>
      <trkpt lat="44.46268" lon="6.87109">
        <ele>2186.8</ele>
        <time>2022-08-16T10:15:11Z</time>
      </trkpt>
      <trkpt lat="44.46269" lon="6.87109">
        <ele>2186.8</ele>
        <time>2022-08-16T10:15:12Z</time>
      </trkpt>
      <trkpt lat="44.4627" lon="6.87109">
        <ele>2187.4</ele>
        <time>2022-08-16T10:15:13Z</time>
      </trkpt>
      <trkpt lat="44.46272" lon="6.8711">
        <ele>2187.8</ele>
        <time>2022-08-16T10:15:14Z</time>
      </trkpt>
      <trkpt lat="44.46273" lon="6.87111">
        <ele>2188</ele>
        <time>2022-08-16T10:15:15Z</time>
      </trkpt>
      <trkpt lat="44.46274" lon="6.87112">
        <ele>2188</ele>
        <time>2022-08-16T10:15:16Z</time>
      </trkpt>
      <trkpt lat="44.46275" lon="6.87113">
        <ele>2188.2</ele>
        <time>2022-08-16T10:15:17Z</time>
      </trkpt>
      <trkpt lat="44.46276" lon="6.87114">
        <ele>2188.2</ele>
        <time>2022-08-16T10:15:18Z</time>
      </trkpt>
      <trkpt lat="44.46276" lon="6.87115">
        <ele>2188.4</ele>
        <time>2022-08-16T10:15:19Z</time>
      </trkpt>
      <trkpt lat="44.46277" lon="6.87117">
        <ele>2188.4</ele>
        <time>2022-08-16T10:15:20Z</time>
      </trkpt>
      <trkpt lat="44.46278" lon="6.87119">
        <ele>2188.4</ele>
        <time>2022-08-16T10:15:21Z</time>
      </trkpt>
      <trkpt lat="44.46279" lon="6.8712">
        <ele>2188.8</ele>
        <time>2022-08-16T10:15:22Z</time>
      </trkpt>
      <trkpt lat="44.46279" lon="6.87122">
        <ele>2189</ele>
        <time>2022-08-16T10:15:23Z</time>
      </trkpt>
      <trkpt lat="44.4628" lon="6.87124">
        <ele>2189.2</ele>
        <time>2022-08-16T10:15:24Z</time>
      </trkpt>
      <trkpt lat="44.4628" lon="6.87126">
        <ele>2189.4</ele>
        <time>2022-08-16T10:15:25Z</time>
      </trkpt>
      <trkpt lat="44.46281" lon="6.87128">
        <ele>2189.6</ele>
        <time>2022-08-16T10:15:26Z</time>
      </trkpt>
      <trkpt lat="44.46281" lon="6.87129">
        <ele>2189.6</ele>
        <time>2022-08-16T10:15:27Z</time>
      </trkpt>
      <trkpt lat="44.46281" lon="6.87131">
        <ele>2189.8</ele>
        <time>2022-08-16T10:15:28Z</time>
      </trkpt>
      <trkpt lat="44.46282" lon="6.87132">
        <ele>2189.8</ele>
        <time>2022-08-16T10:15:29Z</time>
      </trkpt>
      <trkpt lat="44.46282" lon="6.87134">
        <ele>2189.8</ele>
        <time>2022-08-16T10:15:30Z</time>
      </trkpt>
      <trkpt lat="44.46283" lon="6.87135">
        <ele>2189.8</ele>
        <time>2022-08-16T10:15:31Z</time>
      </trkpt>
      <trkpt lat="44.46284" lon="6.87136">
        <ele>2189.8</ele>
        <time>2022-08-16T10:15:32Z</time>
      </trkpt>
      <trkpt lat="44.46285" lon="6.87137">
        <ele>2189.8</ele>
        <time>2022-08-16T10:15:33Z</time>
      </trkpt>
      <trkpt lat="44.46285" lon="6.87139">
        <ele>2190.2</ele>
        <time>2022-08-16T10:15:34Z</time>
      </trkpt>
      <trkpt lat="44.46286" lon="6.8714">
        <ele>2190.2</ele>
        <time>2022-08-16T10:15:35Z</time>
      </trkpt>
      <trkpt lat="44.46287" lon="6.87141">
        <ele>2190.2</ele>
        <time>2022-08-16T10:15:36Z</time>
      </trkpt>
      <trkpt lat="44.46288" lon="6.87143">
        <ele>2190.2</ele>
        <time>2022-08-16T10:15:37Z</time>
      </trkpt>
      <trkpt lat="44.46288" lon="6.87144">
        <ele>2190.2</ele>
        <time>2022-08-16T10:15:38Z</time>
      </trkpt>
      <trkpt lat="44.46289" lon="6.87146">
        <ele>2190.4</ele>
        <time>2022-08-16T10:15:39Z</time>
      </trkpt>
      <trkpt lat="44.4629" lon="6.87147">
        <ele>2190.4</ele>
        <time>2022-08-16T10:15:40Z</time>
      </trkpt>
      <trkpt lat="44.4629" lon="6.87149">
        <ele>2190.6</ele>
        <time>2022-08-16T10:15:41Z</time>
      </trkpt>
      <trkpt lat="44.46291" lon="6.8715">
        <ele>2190.6</ele>
        <time>2022-08-16T10:15:42Z</time>
      </trkpt>
      <trkpt lat="44.46291" lon="6.87152">
        <ele>2190.6</ele>
        <time>2022-08-16T10:15:43Z</time>
      </trkpt>
      <trkpt lat="44.46292" lon="6.87153">
        <ele>2190.8</ele>
        <time>2022-08-16T10:15:44Z</time>
      </trkpt>
      <trkpt lat="44.46293" lon="6.87155">
        <ele>2190.8</ele>
        <time>2022-08-16T10:15:45Z</time>
      </trkpt>
      <trkpt lat="44.46293" lon="6.87156">
        <ele>2191.2</ele>
        <time>2022-08-16T10:15:46Z</time>
      </trkpt>
      <trkpt lat="44.46294" lon="6.87157">
        <ele>2191.2</ele>
        <time>2022-08-16T10:15:47Z</time>
      </trkpt>
      <trkpt lat="44.46295" lon="6.87158">
        <ele>2191.6</ele>
        <time>2022-08-16T10:15:48Z</time>
      </trkpt>
      <trkpt lat="44.46296" lon="6.87159">
        <ele>2191.8</ele>
        <time>2022-08-16T10:15:49Z</time>
      </trkpt>
      <trkpt lat="44.46297" lon="6.87161">
        <ele>2191.8</ele>
        <time>2022-08-16T10:15:50Z</time>
      </trkpt>
      <trkpt lat="44.46297" lon="6.87163">
        <ele>2192</ele>
        <time>2022-08-16T10:15:51Z</time>
      </trkpt>
      <trkpt lat="44.46297" lon="6.87165">
        <ele>2192.2</ele>
        <time>2022-08-16T10:15:52Z</time>
      </trkpt>
      <trkpt lat="44.46298" lon="6.87167">
        <ele>2192.2</ele>
        <time>2022-08-16T10:15:53Z</time>
      </trkpt>
      <trkpt lat="44.46298" lon="6.87169">
        <ele>2192.2</ele>
        <time>2022-08-16T10:15:54Z</time>
      </trkpt>
      <trkpt lat="44.46299" lon="6.87171">
        <ele>2192.4</ele>
        <time>2022-08-16T10:15:55Z</time>
      </trkpt>
      <trkpt lat="44.463" lon="6.87173">
        <ele>2192.4</ele>
        <time>2022-08-16T10:15:56Z</time>
      </trkpt>
      <trkpt lat="44.463" lon="6.87175">
        <ele>2192.6</ele>
        <time>2022-08-16T10:15:57Z</time>
      </trkpt>
      <trkpt lat="44.46301" lon="6.87176">
        <ele>2192.6</ele>
        <time>2022-08-16T10:15:58Z</time>
      </trkpt>
      <trkpt lat="44.46302" lon="6.87178">
        <ele>2192.6</ele>
        <time>2022-08-16T10:15:59Z</time>
      </trkpt>
      <trkpt lat="44.46303" lon="6.87181">
        <ele>2192.8</ele>
        <time>2022-08-16T10:16:01Z</time>
      </trkpt>
      <trkpt lat="44.46306" lon="6.87185">
        <ele>2192.6</ele>
        <time>2022-08-16T10:16:04Z</time>
      </trkpt>
      <trkpt lat="44.46306" lon="6.87187">
        <ele>2192.8</ele>
        <time>2022-08-16T10:16:05Z</time>
      </trkpt>
      <trkpt lat="44.46308" lon="6.87189">
        <ele>2192.8</ele>
        <time>2022-08-16T10:16:07Z</time>
      </trkpt>
      <trkpt lat="44.46309" lon="6.87191">
        <ele>2192.8</ele>
        <time>2022-08-16T10:16:08Z</time>
      </trkpt>
      <trkpt lat="44.46309" lon="6.87192">
        <ele>2192.8</ele>
        <time>2022-08-16T10:16:09Z</time>
      </trkpt>
      <trkpt lat="44.46313" lon="6.87198">
        <ele>2193.2</ele>
        <time>2022-08-16T10:16:13Z</time>
      </trkpt>
      <trkpt lat="44.46313" lon="6.87199">
        <ele>2193.4</ele>
        <time>2022-08-16T10:16:14Z</time>
      </trkpt>
      <trkpt lat="44.46314" lon="6.872">
        <ele>2193.6</ele>
        <time>2022-08-16T10:16:15Z</time>
      </trkpt>
      <trkpt lat="44.46315" lon="6.87203">
        <ele>2194</ele>
        <time>2022-08-16T10:16:17Z</time>
      </trkpt>
      <trkpt lat="44.46316" lon="6.87204">
        <ele>2194</ele>
        <time>2022-08-16T10:16:18Z</time>
      </trkpt>
      <trkpt lat="44.46317" lon="6.87205">
        <ele>2194.2</ele>
        <time>2022-08-16T10:16:19Z</time>
      </trkpt>
      <trkpt lat="44.46317" lon="6.87206">
        <ele>2194.2</ele>
        <time>2022-08-16T10:16:20Z</time>
      </trkpt>
      <trkpt lat="44.46318" lon="6.87207">
        <ele>2194.2</ele>
        <time>2022-08-16T10:16:21Z</time>
      </trkpt>
      <trkpt lat="44.46319" lon="6.87209">
        <ele>2194.2</ele>
        <time>2022-08-16T10:16:22Z</time>
      </trkpt>
      <trkpt lat="44.46319" lon="6.8721">
        <ele>2194.4</ele>
        <time>2022-08-16T10:16:23Z</time>
      </trkpt>
      <trkpt lat="44.4632" lon="6.87211">
        <ele>2194.6</ele>
        <time>2022-08-16T10:16:24Z</time>
      </trkpt>
      <trkpt lat="44.4632" lon="6.87213">
        <ele>2194.8</ele>
        <time>2022-08-16T10:16:25Z</time>
      </trkpt>
      <trkpt lat="44.46321" lon="6.87214">
        <ele>2194.8</ele>
        <time>2022-08-16T10:16:26Z</time>
      </trkpt>
      <trkpt lat="44.46321" lon="6.87215">
        <ele>2195.2</ele>
        <time>2022-08-16T10:16:27Z</time>
      </trkpt>
      <trkpt lat="44.46321" lon="6.87216">
        <ele>2195.4</ele>
        <time>2022-08-16T10:16:28Z</time>
      </trkpt>
      <trkpt lat="44.46322" lon="6.87217">
        <ele>2195.6</ele>
        <time>2022-08-16T10:16:29Z</time>
      </trkpt>
      <trkpt lat="44.46322" lon="6.87218">
        <ele>2196</ele>
        <time>2022-08-16T10:16:30Z</time>
      </trkpt>
      <trkpt lat="44.46323" lon="6.87219">
        <ele>2196</ele>
        <time>2022-08-16T10:16:31Z</time>
      </trkpt>
      <trkpt lat="44.46324" lon="6.8722">
        <ele>2196.4</ele>
        <time>2022-08-16T10:16:32Z</time>
      </trkpt>
      <trkpt lat="44.46324" lon="6.87221">
        <ele>2196.6</ele>
        <time>2022-08-16T10:16:33Z</time>
      </trkpt>
      <trkpt lat="44.46325" lon="6.87222">
        <ele>2196.8</ele>
        <time>2022-08-16T10:16:34Z</time>
      </trkpt>
      <trkpt lat="44.46326" lon="6.87222">
        <ele>2198.4</ele>
        <time>2022-08-16T10:16:40Z</time>
      </trkpt>
      <trkpt lat="44.46326" lon="6.87221">
        <ele>2199.2</ele>
        <time>2022-08-16T10:16:48Z</time>
      </trkpt>
      <trkpt lat="44.46326" lon="6.87222">
        <ele>2200</ele>
        <time>2022-08-16T10:17:00Z</time>
      </trkpt>
      <trkpt lat="44.46328" lon="6.87223">
        <ele>2200.2</ele>
        <time>2022-08-16T10:17:03Z</time>
      </trkpt>
      <trkpt lat="44.46329" lon="6.87224">
        <ele>2200</ele>
        <time>2022-08-16T10:17:04Z</time>
      </trkpt>
      <trkpt lat="44.46329" lon="6.87224">
        <ele>2200.2</ele>
        <time>2022-08-16T10:17:05Z</time>
      </trkpt>
      <trkpt lat="44.4633" lon="6.87225">
        <ele>2200.2</ele>
        <time>2022-08-16T10:17:07Z</time>
      </trkpt>
      <trkpt lat="44.46331" lon="6.87226">
        <ele>2200.2</ele>
        <time>2022-08-16T10:17:08Z</time>
      </trkpt>
      <trkpt lat="44.46332" lon="6.87227">
        <ele>2200.2</ele>
        <time>2022-08-16T10:17:10Z</time>
      </trkpt>
      <trkpt lat="44.46332" lon="6.87227">
        <ele>2200.4</ele>
        <time>2022-08-16T10:17:11Z</time>
      </trkpt>
      <trkpt lat="44.46333" lon="6.87228">
        <ele>2200.6</ele>
        <time>2022-08-16T10:17:13Z</time>
      </trkpt>
      <trkpt lat="44.46333" lon="6.87228">
        <ele>2200.6</ele>
        <time>2022-08-16T10:17:14Z</time>
      </trkpt>
      <trkpt lat="44.46335" lon="6.87229">
        <ele>2201.8</ele>
        <time>2022-08-16T10:17:20Z</time>
      </trkpt>
      <trkpt lat="44.46335" lon="6.87229">
        <ele>2202</ele>
        <time>2022-08-16T10:17:22Z</time>
      </trkpt>
      <trkpt lat="44.46336" lon="6.8723">
        <ele>2202</ele>
        <time>2022-08-16T10:17:23Z</time>
      </trkpt>
      <trkpt lat="44.46336" lon="6.8723">
        <ele>2202</ele>
        <time>2022-08-16T10:17:24Z</time>
      </trkpt>
      <trkpt lat="44.46337" lon="6.87231">
        <ele>2202.4</ele>
        <time>2022-08-16T10:17:25Z</time>
      </trkpt>
      <trkpt lat="44.46337" lon="6.87231">
        <ele>2202.4</ele>
        <time>2022-08-16T10:17:26Z</time>
      </trkpt>
      <trkpt lat="44.46338" lon="6.87232">
        <ele>2202.4</ele>
        <time>2022-08-16T10:17:27Z</time>
      </trkpt>
      <trkpt lat="44.46338" lon="6.87233">
        <ele>2202.6</ele>
        <time>2022-08-16T10:17:28Z</time>
      </trkpt>
      <trkpt lat="44.46339" lon="6.87233">
        <ele>2202.8</ele>
        <time>2022-08-16T10:17:29Z</time>
      </trkpt>
      <trkpt lat="44.46339" lon="6.87234">
        <ele>2202.6</ele>
        <time>2022-08-16T10:17:30Z</time>
      </trkpt>
      <trkpt lat="44.46339" lon="6.87234">
        <ele>2203</ele>
        <time>2022-08-16T10:17:31Z</time>
      </trkpt>
      <trkpt lat="44.4634" lon="6.87235">
        <ele>2203</ele>
        <time>2022-08-16T10:17:32Z</time>
      </trkpt>
      <trkpt lat="44.46341" lon="6.87236">
        <ele>2203.2</ele>
        <time>2022-08-16T10:17:33Z</time>
      </trkpt>
      <trkpt lat="44.46341" lon="6.87236">
        <ele>2203.4</ele>
        <time>2022-08-16T10:17:34Z</time>
      </trkpt>
      <trkpt lat="44.46342" lon="6.87237">
        <ele>2203.6</ele>
        <time>2022-08-16T10:17:35Z</time>
      </trkpt>
      <trkpt lat="44.46342" lon="6.87237">
        <ele>2203.8</ele>
        <time>2022-08-16T10:17:36Z</time>
      </trkpt>
      <trkpt lat="44.46342" lon="6.87238">
        <ele>2204.2</ele>
        <time>2022-08-16T10:17:37Z</time>
      </trkpt>
      <trkpt lat="44.46343" lon="6.87239">
        <ele>2204.2</ele>
        <time>2022-08-16T10:17:38Z</time>
      </trkpt>
      <trkpt lat="44.46343" lon="6.87239">
        <ele>2204.2</ele>
        <time>2022-08-16T10:17:39Z</time>
      </trkpt>
      <trkpt lat="44.46344" lon="6.8724">
        <ele>2204.4</ele>
        <time>2022-08-16T10:17:40Z</time>
      </trkpt>
      <trkpt lat="44.46344" lon="6.8724">
        <ele>2204.6</ele>
        <time>2022-08-16T10:17:41Z</time>
      </trkpt>
      <trkpt lat="44.46345" lon="6.87241">
        <ele>2204.8</ele>
        <time>2022-08-16T10:17:42Z</time>
      </trkpt>
      <trkpt lat="44.46345" lon="6.87242">
        <ele>2205</ele>
        <time>2022-08-16T10:17:43Z</time>
      </trkpt>
      <trkpt lat="44.46345" lon="6.87242">
        <ele>2205.2</ele>
        <time>2022-08-16T10:17:44Z</time>
      </trkpt>
      <trkpt lat="44.46346" lon="6.87243">
        <ele>2205.4</ele>
        <time>2022-08-16T10:17:45Z</time>
      </trkpt>
      <trkpt lat="44.46346" lon="6.87243">
        <ele>2206</ele>
        <time>2022-08-16T10:17:49Z</time>
      </trkpt>
      <trkpt lat="44.46346" lon="6.87243">
        <ele>2206.6</ele>
        <time>2022-08-16T10:17:53Z</time>
      </trkpt>
      <trkpt lat="44.46347" lon="6.87243">
        <ele>2206.8</ele>
        <time>2022-08-16T10:17:54Z</time>
      </trkpt>
      <trkpt lat="44.46347" lon="6.87244">
        <ele>2207</ele>
        <time>2022-08-16T10:17:55Z</time>
      </trkpt>
      <trkpt lat="44.46348" lon="6.87245">
        <ele>2207</ele>
        <time>2022-08-16T10:17:56Z</time>
      </trkpt>
      <trkpt lat="44.46348" lon="6.87245">
        <ele>2207.2</ele>
        <time>2022-08-16T10:17:57Z</time>
      </trkpt>
      <trkpt lat="44.46348" lon="6.87246">
        <ele>2207.2</ele>
        <time>2022-08-16T10:17:58Z</time>
      </trkpt>
      <trkpt lat="44.46349" lon="6.87246">
        <ele>2207.2</ele>
        <time>2022-08-16T10:17:59Z</time>
      </trkpt>
      <trkpt lat="44.46349" lon="6.87247">
        <ele>2207.2</ele>
        <time>2022-08-16T10:18:00Z</time>
      </trkpt>
      <trkpt lat="44.46349" lon="6.87248">
        <ele>2207.2</ele>
        <time>2022-08-16T10:18:01Z</time>
      </trkpt>
      <trkpt lat="44.4635" lon="6.87249">
        <ele>2207.2</ele>
        <time>2022-08-16T10:18:02Z</time>
      </trkpt>
      <trkpt lat="44.4635" lon="6.8725">
        <ele>2207.2</ele>
        <time>2022-08-16T10:18:03Z</time>
      </trkpt>
      <trkpt lat="44.46349" lon="6.87251">
        <ele>2207.2</ele>
        <time>2022-08-16T10:18:04Z</time>
      </trkpt>
      <trkpt lat="44.46349" lon="6.87252">
        <ele>2207.2</ele>
        <time>2022-08-16T10:18:05Z</time>
      </trkpt>
      <trkpt lat="44.46348" lon="6.87253">
        <ele>2207.4</ele>
        <time>2022-08-16T10:18:06Z</time>
      </trkpt>
      <trkpt lat="44.46348" lon="6.87253">
        <ele>2207.4</ele>
        <time>2022-08-16T10:18:07Z</time>
      </trkpt>
      <trkpt lat="44.46348" lon="6.87254">
        <ele>2207.6</ele>
        <time>2022-08-16T10:18:08Z</time>
      </trkpt>
      <trkpt lat="44.46347" lon="6.87255">
        <ele>2207.8</ele>
        <time>2022-08-16T10:18:09Z</time>
      </trkpt>
      <trkpt lat="44.46346" lon="6.87256">
        <ele>2207.8</ele>
        <time>2022-08-16T10:18:10Z</time>
      </trkpt>
      <trkpt lat="44.46346" lon="6.87256">
        <ele>2207.8</ele>
        <time>2022-08-16T10:18:11Z</time>
      </trkpt>
      <trkpt lat="44.46345" lon="6.87257">
        <ele>2207.8</ele>
        <time>2022-08-16T10:18:12Z</time>
      </trkpt>
      <trkpt lat="44.46345" lon="6.87258">
        <ele>2208</ele>
        <time>2022-08-16T10:18:13Z</time>
      </trkpt>
      <trkpt lat="44.46344" lon="6.87259">
        <ele>2208.4</ele>
        <time>2022-08-16T10:18:14Z</time>
      </trkpt>
      <trkpt lat="44.46344" lon="6.87259">
        <ele>2208.4</ele>
        <time>2022-08-16T10:18:15Z</time>
      </trkpt>
      <trkpt lat="44.46343" lon="6.8726">
        <ele>2208.6</ele>
        <time>2022-08-16T10:18:16Z</time>
      </trkpt>
      <trkpt lat="44.46343" lon="6.87262">
        <ele>2208.8</ele>
        <time>2022-08-16T10:18:17Z</time>
      </trkpt>
      <trkpt lat="44.46343" lon="6.87263">
        <ele>2209</ele>
        <time>2022-08-16T10:18:18Z</time>
      </trkpt>
      <trkpt lat="44.46343" lon="6.87264">
        <ele>2209</ele>
        <time>2022-08-16T10:18:19Z</time>
      </trkpt>
      <trkpt lat="44.46343" lon="6.87265">
        <ele>2209.2</ele>
        <time>2022-08-16T10:18:20Z</time>
      </trkpt>
      <trkpt lat="44.46343" lon="6.87267">
        <ele>2209.4</ele>
        <time>2022-08-16T10:18:21Z</time>
      </trkpt>
      <trkpt lat="44.46343" lon="6.87268">
        <ele>2209.6</ele>
        <time>2022-08-16T10:18:22Z</time>
      </trkpt>
      <trkpt lat="44.46342" lon="6.87269">
        <ele>2209.6</ele>
        <time>2022-08-16T10:18:23Z</time>
      </trkpt>
      <trkpt lat="44.46342" lon="6.8727">
        <ele>2209.8</ele>
        <time>2022-08-16T10:18:24Z</time>
      </trkpt>
      <trkpt lat="44.46342" lon="6.87271">
        <ele>2210.2</ele>
        <time>2022-08-16T10:18:25Z</time>
      </trkpt>
      <trkpt lat="44.46342" lon="6.87272">
        <ele>2210.2</ele>
        <time>2022-08-16T10:18:26Z</time>
      </trkpt>
      <trkpt lat="44.46343" lon="6.87273">
        <ele>2210.4</ele>
        <time>2022-08-16T10:18:27Z</time>
      </trkpt>
      <trkpt lat="44.46343" lon="6.87275">
        <ele>2210.8</ele>
        <time>2022-08-16T10:18:28Z</time>
      </trkpt>
      <trkpt lat="44.46343" lon="6.87276">
        <ele>2211</ele>
        <time>2022-08-16T10:18:29Z</time>
      </trkpt>
      <trkpt lat="44.46343" lon="6.87277">
        <ele>2211.4</ele>
        <time>2022-08-16T10:18:30Z</time>
      </trkpt>
      <trkpt lat="44.46343" lon="6.87278">
        <ele>2211.6</ele>
        <time>2022-08-16T10:18:31Z</time>
      </trkpt>
      <trkpt lat="44.46344" lon="6.87278">
        <ele>2212.6</ele>
        <time>2022-08-16T10:18:38Z</time>
      </trkpt>
      <trkpt lat="44.46344" lon="6.87278">
        <ele>2212.8</ele>
        <time>2022-08-16T10:18:39Z</time>
      </trkpt>
      <trkpt lat="44.46344" lon="6.87278">
        <ele>2213</ele>
        <time>2022-08-16T10:18:46Z</time>
      </trkpt>
      <trkpt lat="44.46344" lon="6.87283">
        <ele>2213</ele>
        <time>2022-08-16T10:18:49Z</time>
      </trkpt>
      <trkpt lat="44.46344" lon="6.87284">
        <ele>2213</ele>
        <time>2022-08-16T10:18:50Z</time>
      </trkpt>
      <trkpt lat="44.46345" lon="6.87286">
        <ele>2213</ele>
        <time>2022-08-16T10:18:51Z</time>
      </trkpt>
      <trkpt lat="44.46345" lon="6.87287">
        <ele>2213</ele>
        <time>2022-08-16T10:18:52Z</time>
      </trkpt>
      <trkpt lat="44.46345" lon="6.87289">
        <ele>2213</ele>
        <time>2022-08-16T10:18:53Z</time>
      </trkpt>
      <trkpt lat="44.46345" lon="6.8729">
        <ele>2213</ele>
        <time>2022-08-16T10:18:54Z</time>
      </trkpt>
      <trkpt lat="44.46346" lon="6.87296">
        <ele>2213.2</ele>
        <time>2022-08-16T10:18:58Z</time>
      </trkpt>
      <trkpt lat="44.46346" lon="6.87299">
        <ele>2213.4</ele>
        <time>2022-08-16T10:19:00Z</time>
      </trkpt>
      <trkpt lat="44.46346" lon="6.87301">
        <ele>2213.6</ele>
        <time>2022-08-16T10:19:01Z</time>
      </trkpt>
      <trkpt lat="44.46346" lon="6.87303">
        <ele>2213.8</ele>
        <time>2022-08-16T10:19:02Z</time>
      </trkpt>
      <trkpt lat="44.46346" lon="6.87304">
        <ele>2213.8</ele>
        <time>2022-08-16T10:19:03Z</time>
      </trkpt>
      <trkpt lat="44.46347" lon="6.87306">
        <ele>2214.2</ele>
        <time>2022-08-16T10:19:04Z</time>
      </trkpt>
      <trkpt lat="44.46347" lon="6.87307">
        <ele>2214.4</ele>
        <time>2022-08-16T10:19:05Z</time>
      </trkpt>
      <trkpt lat="44.46348" lon="6.87309">
        <ele>2214.6</ele>
        <time>2022-08-16T10:19:06Z</time>
      </trkpt>
      <trkpt lat="44.46348" lon="6.8731">
        <ele>2214.6</ele>
        <time>2022-08-16T10:19:07Z</time>
      </trkpt>
      <trkpt lat="44.46349" lon="6.87312">
        <ele>2215</ele>
        <time>2022-08-16T10:19:08Z</time>
      </trkpt>
      <trkpt lat="44.46349" lon="6.87313">
        <ele>2215.2</ele>
        <time>2022-08-16T10:19:09Z</time>
      </trkpt>
      <trkpt lat="44.46349" lon="6.87315">
        <ele>2215.4</ele>
        <time>2022-08-16T10:19:10Z</time>
      </trkpt>
      <trkpt lat="44.46349" lon="6.87316">
        <ele>2215.6</ele>
        <time>2022-08-16T10:19:11Z</time>
      </trkpt>
      <trkpt lat="44.4635" lon="6.87318">
        <ele>2215.8</ele>
        <time>2022-08-16T10:19:12Z</time>
      </trkpt>
      <trkpt lat="44.4635" lon="6.87319">
        <ele>2216</ele>
        <time>2022-08-16T10:19:13Z</time>
      </trkpt>
      <trkpt lat="44.4635" lon="6.87321">
        <ele>2216.2</ele>
        <time>2022-08-16T10:19:14Z</time>
      </trkpt>
      <trkpt lat="44.4635" lon="6.87322">
        <ele>2216.6</ele>
        <time>2022-08-16T10:19:15Z</time>
      </trkpt>
      <trkpt lat="44.4635" lon="6.87324">
        <ele>2216.6</ele>
        <time>2022-08-16T10:19:16Z</time>
      </trkpt>
      <trkpt lat="44.4635" lon="6.87325">
        <ele>2216.6</ele>
        <time>2022-08-16T10:19:17Z</time>
      </trkpt>
      <trkpt lat="44.4635" lon="6.87327">
        <ele>2217</ele>
        <time>2022-08-16T10:19:18Z</time>
      </trkpt>
      <trkpt lat="44.4635" lon="6.87328">
        <ele>2216.8</ele>
        <time>2022-08-16T10:19:19Z</time>
      </trkpt>
      <trkpt lat="44.46349" lon="6.8733">
        <ele>2217.2</ele>
        <time>2022-08-16T10:19:20Z</time>
      </trkpt>
      <trkpt lat="44.46349" lon="6.87332">
        <ele>2217.2</ele>
        <time>2022-08-16T10:19:21Z</time>
      </trkpt>
      <trkpt lat="44.46348" lon="6.87333">
        <ele>2217.4</ele>
        <time>2022-08-16T10:19:22Z</time>
      </trkpt>
      <trkpt lat="44.46348" lon="6.87334">
        <ele>2217.8</ele>
        <time>2022-08-16T10:19:23Z</time>
      </trkpt>
      <trkpt lat="44.46347" lon="6.87335">
        <ele>2218</ele>
        <time>2022-08-16T10:19:24Z</time>
      </trkpt>
      <trkpt lat="44.46347" lon="6.87337">
        <ele>2218.6</ele>
        <time>2022-08-16T10:19:25Z</time>
      </trkpt>
      <trkpt lat="44.46346" lon="6.87338">
        <ele>2218.6</ele>
        <time>2022-08-16T10:19:26Z</time>
      </trkpt>
      <trkpt lat="44.46346" lon="6.8734">
        <ele>2218.8</ele>
        <time>2022-08-16T10:19:27Z</time>
      </trkpt>
      <trkpt lat="44.46345" lon="6.87341">
        <ele>2219</ele>
        <time>2022-08-16T10:19:28Z</time>
      </trkpt>
      <trkpt lat="44.46345" lon="6.87343">
        <ele>2219.2</ele>
        <time>2022-08-16T10:19:29Z</time>
      </trkpt>
      <trkpt lat="44.46346" lon="6.87344">
        <ele>2219.4</ele>
        <time>2022-08-16T10:19:30Z</time>
      </trkpt>
      <trkpt lat="44.46346" lon="6.87346">
        <ele>2219.4</ele>
        <time>2022-08-16T10:19:31Z</time>
      </trkpt>
      <trkpt lat="44.46347" lon="6.87347">
        <ele>2219.4</ele>
        <time>2022-08-16T10:19:32Z</time>
      </trkpt>
      <trkpt lat="44.46347" lon="6.87348">
        <ele>2219.6</ele>
        <time>2022-08-16T10:19:33Z</time>
      </trkpt>
      <trkpt lat="44.46347" lon="6.8735">
        <ele>2219.6</ele>
        <time>2022-08-16T10:19:34Z</time>
      </trkpt>
      <trkpt lat="44.46348" lon="6.87351">
        <ele>2219.8</ele>
        <time>2022-08-16T10:19:35Z</time>
      </trkpt>
      <trkpt lat="44.46348" lon="6.87352">
        <ele>2220</ele>
        <time>2022-08-16T10:19:36Z</time>
      </trkpt>
      <trkpt lat="44.46349" lon="6.87354">
        <ele>2220.2</ele>
        <time>2022-08-16T10:19:37Z</time>
      </trkpt>
      <trkpt lat="44.46349" lon="6.87355">
        <ele>2220.4</ele>
        <time>2022-08-16T10:19:38Z</time>
      </trkpt>
      <trkpt lat="44.46349" lon="6.87357">
        <ele>2220.4</ele>
        <time>2022-08-16T10:19:39Z</time>
      </trkpt>
      <trkpt lat="44.4635" lon="6.87358">
        <ele>2220.6</ele>
        <time>2022-08-16T10:19:40Z</time>
      </trkpt>
      <trkpt lat="44.46351" lon="6.87359">
        <ele>2220.6</ele>
        <time>2022-08-16T10:19:41Z</time>
      </trkpt>
      <trkpt lat="44.46351" lon="6.87361">
        <ele>2220.8</ele>
        <time>2022-08-16T10:19:42Z</time>
      </trkpt>
      <trkpt lat="44.46352" lon="6.87362">
        <ele>2221</ele>
        <time>2022-08-16T10:19:43Z</time>
      </trkpt>
      <trkpt lat="44.46352" lon="6.87364">
        <ele>2221.2</ele>
        <time>2022-08-16T10:19:44Z</time>
      </trkpt>
      <trkpt lat="44.46352" lon="6.87366">
        <ele>2221.6</ele>
        <time>2022-08-16T10:19:45Z</time>
      </trkpt>
      <trkpt lat="44.46353" lon="6.87368">
        <ele>2221.8</ele>
        <time>2022-08-16T10:19:46Z</time>
      </trkpt>
      <trkpt lat="44.46353" lon="6.8737">
        <ele>2222</ele>
        <time>2022-08-16T10:19:47Z</time>
      </trkpt>
      <trkpt lat="44.46354" lon="6.87372">
        <ele>2222.2</ele>
        <time>2022-08-16T10:19:48Z</time>
      </trkpt>
      <trkpt lat="44.46354" lon="6.87373">
        <ele>2222.4</ele>
        <time>2022-08-16T10:19:49Z</time>
      </trkpt>
      <trkpt lat="44.46354" lon="6.87375">
        <ele>2222.6</ele>
        <time>2022-08-16T10:19:50Z</time>
      </trkpt>
      <trkpt lat="44.46354" lon="6.87376">
        <ele>2222.6</ele>
        <time>2022-08-16T10:19:51Z</time>
      </trkpt>
      <trkpt lat="44.46355" lon="6.87378">
        <ele>2223.4</ele>
        <time>2022-08-16T10:19:53Z</time>
      </trkpt>
      <trkpt lat="44.46356" lon="6.87379">
        <ele>2223.6</ele>
        <time>2022-08-16T10:19:54Z</time>
      </trkpt>
      <trkpt lat="44.46357" lon="6.8738">
        <ele>2223.8</ele>
        <time>2022-08-16T10:19:55Z</time>
      </trkpt>
      <trkpt lat="44.46357" lon="6.87382">
        <ele>2224.2</ele>
        <time>2022-08-16T10:19:56Z</time>
      </trkpt>
      <trkpt lat="44.46357" lon="6.87384">
        <ele>2224.4</ele>
        <time>2022-08-16T10:19:57Z</time>
      </trkpt>
      <trkpt lat="44.46357" lon="6.87386">
        <ele>2225</ele>
        <time>2022-08-16T10:19:58Z</time>
      </trkpt>
      <trkpt lat="44.46356" lon="6.87388">
        <ele>2225.4</ele>
        <time>2022-08-16T10:19:59Z</time>
      </trkpt>
      <trkpt lat="44.46356" lon="6.8739">
        <ele>2225.8</ele>
        <time>2022-08-16T10:20:00Z</time>
      </trkpt>
      <trkpt lat="44.46356" lon="6.87393">
        <ele>2225.8</ele>
        <time>2022-08-16T10:20:01Z</time>
      </trkpt>
      <trkpt lat="44.46356" lon="6.87395">
        <ele>2226</ele>
        <time>2022-08-16T10:20:02Z</time>
      </trkpt>
      <trkpt lat="44.46357" lon="6.87397">
        <ele>2226.2</ele>
        <time>2022-08-16T10:20:03Z</time>
      </trkpt>
      <trkpt lat="44.46357" lon="6.87399">
        <ele>2226.4</ele>
        <time>2022-08-16T10:20:04Z</time>
      </trkpt>
      <trkpt lat="44.46357" lon="6.87401">
        <ele>2226.4</ele>
        <time>2022-08-16T10:20:05Z</time>
      </trkpt>
      <trkpt lat="44.46357" lon="6.87403">
        <ele>2226.4</ele>
        <time>2022-08-16T10:20:06Z</time>
      </trkpt>
      <trkpt lat="44.46357" lon="6.87405">
        <ele>2226.6</ele>
        <time>2022-08-16T10:20:07Z</time>
      </trkpt>
      <trkpt lat="44.46357" lon="6.87407">
        <ele>2226.6</ele>
        <time>2022-08-16T10:20:08Z</time>
      </trkpt>
      <trkpt lat="44.46357" lon="6.87409">
        <ele>2226.4</ele>
        <time>2022-08-16T10:20:09Z</time>
      </trkpt>
      <trkpt lat="44.46358" lon="6.87411">
        <ele>2226.4</ele>
        <time>2022-08-16T10:20:10Z</time>
      </trkpt>
      <trkpt lat="44.46358" lon="6.87413">
        <ele>2226.6</ele>
        <time>2022-08-16T10:20:11Z</time>
      </trkpt>
      <trkpt lat="44.46357" lon="6.87415">
        <ele>2226.6</ele>
        <time>2022-08-16T10:20:12Z</time>
      </trkpt>
      <trkpt lat="44.46358" lon="6.87417">
        <ele>2226.8</ele>
        <time>2022-08-16T10:20:13Z</time>
      </trkpt>
      <trkpt lat="44.46358" lon="6.87419">
        <ele>2226.6</ele>
        <time>2022-08-16T10:20:14Z</time>
      </trkpt>
      <trkpt lat="44.46358" lon="6.87421">
        <ele>2226.8</ele>
        <time>2022-08-16T10:20:15Z</time>
      </trkpt>
      <trkpt lat="44.46359" lon="6.87427">
        <ele>2226.8</ele>
        <time>2022-08-16T10:20:18Z</time>
      </trkpt>
      <trkpt lat="44.4636" lon="6.87429">
        <ele>2226.8</ele>
        <time>2022-08-16T10:20:19Z</time>
      </trkpt>
      <trkpt lat="44.46362" lon="6.87436">
        <ele>2226.8</ele>
        <time>2022-08-16T10:20:22Z</time>
      </trkpt>
      <trkpt lat="44.46362" lon="6.87438">
        <ele>2227</ele>
        <time>2022-08-16T10:20:23Z</time>
      </trkpt>
      <trkpt lat="44.46363" lon="6.8744">
        <ele>2227</ele>
        <time>2022-08-16T10:20:24Z</time>
      </trkpt>
      <trkpt lat="44.46364" lon="6.87442">
        <ele>2227</ele>
        <time>2022-08-16T10:20:25Z</time>
      </trkpt>
      <trkpt lat="44.46364" lon="6.87445">
        <ele>2227.2</ele>
        <time>2022-08-16T10:20:26Z</time>
      </trkpt>
      <trkpt lat="44.46364" lon="6.87447">
        <ele>2227.6</ele>
        <time>2022-08-16T10:20:27Z</time>
      </trkpt>
      <trkpt lat="44.46363" lon="6.87465">
        <ele>2227.6</ele>
        <time>2022-08-16T10:20:33Z</time>
      </trkpt>
      <trkpt lat="44.46362" lon="6.87476">
        <ele>2227.8</ele>
        <time>2022-08-16T10:20:36Z</time>
      </trkpt>
      <trkpt lat="44.46363" lon="6.87494">
        <ele>2227.6</ele>
        <time>2022-08-16T10:20:40Z</time>
      </trkpt>
      <trkpt lat="44.46362" lon="6.87498">
        <ele>2227.4</ele>
        <time>2022-08-16T10:20:41Z</time>
      </trkpt>
      <trkpt lat="44.46362" lon="6.87502">
        <ele>2227.4</ele>
        <time>2022-08-16T10:20:42Z</time>
      </trkpt>
      <trkpt lat="44.46359" lon="6.87521">
        <ele>2227.2</ele>
        <time>2022-08-16T10:20:46Z</time>
      </trkpt>
      <trkpt lat="44.46358" lon="6.87525">
        <ele>2227</ele>
        <time>2022-08-16T10:20:47Z</time>
      </trkpt>
      <trkpt lat="44.46357" lon="6.87529">
        <ele>2226.8</ele>
        <time>2022-08-16T10:20:48Z</time>
      </trkpt>
      <trkpt lat="44.46356" lon="6.87532">
        <ele>2226.8</ele>
        <time>2022-08-16T10:20:49Z</time>
      </trkpt>
      <trkpt lat="44.46355" lon="6.87536">
        <ele>2226.8</ele>
        <time>2022-08-16T10:20:50Z</time>
      </trkpt>
      <trkpt lat="44.46354" lon="6.87539">
        <ele>2226.8</ele>
        <time>2022-08-16T10:20:51Z</time>
      </trkpt>
      <trkpt lat="44.46352" lon="6.87546">
        <ele>2226.6</ele>
        <time>2022-08-16T10:20:53Z</time>
      </trkpt>
      <trkpt lat="44.4635" lon="6.87554">
        <ele>2226.6</ele>
        <time>2022-08-16T10:20:55Z</time>
      </trkpt>
      <trkpt lat="44.4635" lon="6.87558">
        <ele>2226.6</ele>
        <time>2022-08-16T10:20:56Z</time>
      </trkpt>
      <trkpt lat="44.46349" lon="6.87561">
        <ele>2226.6</ele>
        <time>2022-08-16T10:20:57Z</time>
      </trkpt>
      <trkpt lat="44.46349" lon="6.87564">
        <ele>2226.6</ele>
        <time>2022-08-16T10:20:58Z</time>
      </trkpt>
      <trkpt lat="44.46349" lon="6.87567">
        <ele>2226.6</ele>
        <time>2022-08-16T10:20:59Z</time>
      </trkpt>
      <trkpt lat="44.46348" lon="6.87571">
        <ele>2226.6</ele>
        <time>2022-08-16T10:21:00Z</time>
      </trkpt>
      <trkpt lat="44.46348" lon="6.87574">
        <ele>2226.6</ele>
        <time>2022-08-16T10:21:01Z</time>
      </trkpt>
      <trkpt lat="44.46348" lon="6.87593">
        <ele>2226.6</ele>
        <time>2022-08-16T10:21:06Z</time>
      </trkpt>
      <trkpt lat="44.46348" lon="6.87596">
        <ele>2226.6</ele>
        <time>2022-08-16T10:21:07Z</time>
      </trkpt>
      <trkpt lat="44.46347" lon="6.87599">
        <ele>2226.6</ele>
        <time>2022-08-16T10:21:08Z</time>
      </trkpt>
      <trkpt lat="44.46347" lon="6.87602">
        <ele>2226.8</ele>
        <time>2022-08-16T10:21:09Z</time>
      </trkpt>
      <trkpt lat="44.46346" lon="6.87605">
        <ele>2226.8</ele>
        <time>2022-08-16T10:21:10Z</time>
      </trkpt>
      <trkpt lat="44.46345" lon="6.87608">
        <ele>2227</ele>
        <time>2022-08-16T10:21:11Z</time>
      </trkpt>
      <trkpt lat="44.46345" lon="6.87611">
        <ele>2226.8</ele>
        <time>2022-08-16T10:21:12Z</time>
      </trkpt>
      <trkpt lat="44.46344" lon="6.87613">
        <ele>2226.8</ele>
        <time>2022-08-16T10:21:13Z</time>
      </trkpt>
      <trkpt lat="44.46343" lon="6.87615">
        <ele>2226.8</ele>
        <time>2022-08-16T10:21:14Z</time>
      </trkpt>
      <trkpt lat="44.46343" lon="6.87617">
        <ele>2226.8</ele>
        <time>2022-08-16T10:21:15Z</time>
      </trkpt>
      <trkpt lat="44.46337" lon="6.87635">
        <ele>2227.6</ele>
        <time>2022-08-16T10:21:23Z</time>
      </trkpt>
      <trkpt lat="44.46333" lon="6.87652">
        <ele>2228.4</ele>
        <time>2022-08-16T10:21:28Z</time>
      </trkpt>
      <trkpt lat="44.4633" lon="6.87662">
        <ele>2228.6</ele>
        <time>2022-08-16T10:21:31Z</time>
      </trkpt>
      <trkpt lat="44.46328" lon="6.87668">
        <ele>2228.6</ele>
        <time>2022-08-16T10:21:33Z</time>
      </trkpt>
      <trkpt lat="44.46327" lon="6.87671">
        <ele>2228.6</ele>
        <time>2022-08-16T10:21:34Z</time>
      </trkpt>
      <trkpt lat="44.46326" lon="6.87673">
        <ele>2228.4</ele>
        <time>2022-08-16T10:21:35Z</time>
      </trkpt>
      <trkpt lat="44.46325" lon="6.87676">
        <ele>2228.4</ele>
        <time>2022-08-16T10:21:36Z</time>
      </trkpt>
      <trkpt lat="44.46324" lon="6.87678">
        <ele>2228.4</ele>
        <time>2022-08-16T10:21:37Z</time>
      </trkpt>
      <trkpt lat="44.46323" lon="6.8768">
        <ele>2228.6</ele>
        <time>2022-08-16T10:21:38Z</time>
      </trkpt>
      <trkpt lat="44.46322" lon="6.87682">
        <ele>2228.4</ele>
        <time>2022-08-16T10:21:39Z</time>
      </trkpt>
      <trkpt lat="44.46313" lon="6.87698">
        <ele>2228.8</ele>
        <time>2022-08-16T10:21:46Z</time>
      </trkpt>
      <trkpt lat="44.46309" lon="6.87706">
        <ele>2229.4</ele>
        <time>2022-08-16T10:21:49Z</time>
      </trkpt>
      <trkpt lat="44.46309" lon="6.87709">
        <ele>2229.4</ele>
        <time>2022-08-16T10:21:50Z</time>
      </trkpt>
      <trkpt lat="44.46309" lon="6.87712">
        <ele>2229.2</ele>
        <time>2022-08-16T10:21:51Z</time>
      </trkpt>
      <trkpt lat="44.46309" lon="6.87714">
        <ele>2229.2</ele>
        <time>2022-08-16T10:21:52Z</time>
      </trkpt>
      <trkpt lat="44.46308" lon="6.87717">
        <ele>2229.4</ele>
        <time>2022-08-16T10:21:53Z</time>
      </trkpt>
      <trkpt lat="44.46307" lon="6.87719">
        <ele>2229.6</ele>
        <time>2022-08-16T10:21:54Z</time>
      </trkpt>
      <trkpt lat="44.46306" lon="6.87721">
        <ele>2229.8</ele>
        <time>2022-08-16T10:21:55Z</time>
      </trkpt>
      <trkpt lat="44.46305" lon="6.87723">
        <ele>2230</ele>
        <time>2022-08-16T10:21:56Z</time>
      </trkpt>
      <trkpt lat="44.46303" lon="6.87725">
        <ele>2230</ele>
        <time>2022-08-16T10:21:57Z</time>
      </trkpt>
      <trkpt lat="44.46303" lon="6.87727">
        <ele>2230.2</ele>
        <time>2022-08-16T10:21:58Z</time>
      </trkpt>
      <trkpt lat="44.46302" lon="6.87729">
        <ele>2230.2</ele>
        <time>2022-08-16T10:21:59Z</time>
      </trkpt>
      <trkpt lat="44.46301" lon="6.87732">
        <ele>2230.4</ele>
        <time>2022-08-16T10:22:00Z</time>
      </trkpt>
      <trkpt lat="44.463" lon="6.87734">
        <ele>2230.6</ele>
        <time>2022-08-16T10:22:01Z</time>
      </trkpt>
      <trkpt lat="44.46298" lon="6.87736">
        <ele>2230.6</ele>
        <time>2022-08-16T10:22:02Z</time>
      </trkpt>
      <trkpt lat="44.46297" lon="6.87737">
        <ele>2231</ele>
        <time>2022-08-16T10:22:03Z</time>
      </trkpt>
      <trkpt lat="44.46296" lon="6.8774">
        <ele>2230.8</ele>
        <time>2022-08-16T10:22:04Z</time>
      </trkpt>
      <trkpt lat="44.46295" lon="6.87743">
        <ele>2230.8</ele>
        <time>2022-08-16T10:22:05Z</time>
      </trkpt>
      <trkpt lat="44.46294" lon="6.87746">
        <ele>2231</ele>
        <time>2022-08-16T10:22:06Z</time>
      </trkpt>
      <trkpt lat="44.46293" lon="6.87748">
        <ele>2231.2</ele>
        <time>2022-08-16T10:22:07Z</time>
      </trkpt>
      <trkpt lat="44.46292" lon="6.87751">
        <ele>2231.2</ele>
        <time>2022-08-16T10:22:08Z</time>
      </trkpt>
      <trkpt lat="44.46291" lon="6.87754">
        <ele>2231.2</ele>
        <time>2022-08-16T10:22:09Z</time>
      </trkpt>
      <trkpt lat="44.4629" lon="6.87757">
        <ele>2231.4</ele>
        <time>2022-08-16T10:22:10Z</time>
      </trkpt>
      <trkpt lat="44.46289" lon="6.8776">
        <ele>2231.4</ele>
        <time>2022-08-16T10:22:11Z</time>
      </trkpt>
      <trkpt lat="44.46288" lon="6.87767">
        <ele>2231.6</ele>
        <time>2022-08-16T10:22:13Z</time>
      </trkpt>
      <trkpt lat="44.46288" lon="6.8777">
        <ele>2231.6</ele>
        <time>2022-08-16T10:22:14Z</time>
      </trkpt>
      <trkpt lat="44.46287" lon="6.87772">
        <ele>2231.8</ele>
        <time>2022-08-16T10:22:15Z</time>
      </trkpt>
      <trkpt lat="44.46287" lon="6.87774">
        <ele>2231.8</ele>
        <time>2022-08-16T10:22:16Z</time>
      </trkpt>
      <trkpt lat="44.46286" lon="6.87777">
        <ele>2232</ele>
        <time>2022-08-16T10:22:17Z</time>
      </trkpt>
      <trkpt lat="44.46286" lon="6.87783">
        <ele>2231.8</ele>
        <time>2022-08-16T10:22:19Z</time>
      </trkpt>
      <trkpt lat="44.46286" lon="6.87785">
        <ele>2231.8</ele>
        <time>2022-08-16T10:22:20Z</time>
      </trkpt>
      <trkpt lat="44.4629" lon="6.87799">
        <ele>2231.8</ele>
        <time>2022-08-16T10:22:25Z</time>
      </trkpt>
      <trkpt lat="44.4629" lon="6.87811">
        <ele>2231.8</ele>
        <time>2022-08-16T10:22:29Z</time>
      </trkpt>
      <trkpt lat="44.46289" lon="6.87819">
        <ele>2231.8</ele>
        <time>2022-08-16T10:22:32Z</time>
      </trkpt>
      <trkpt lat="44.46285" lon="6.8783">
        <ele>2232</ele>
        <time>2022-08-16T10:22:36Z</time>
      </trkpt>
      <trkpt lat="44.46284" lon="6.87832">
        <ele>2232</ele>
        <time>2022-08-16T10:22:37Z</time>
      </trkpt>
      <trkpt lat="44.46283" lon="6.87835">
        <ele>2232.2</ele>
        <time>2022-08-16T10:22:38Z</time>
      </trkpt>
      <trkpt lat="44.46282" lon="6.87838">
        <ele>2232.4</ele>
        <time>2022-08-16T10:22:39Z</time>
      </trkpt>
      <trkpt lat="44.46282" lon="6.87841">
        <ele>2232.4</ele>
        <time>2022-08-16T10:22:40Z</time>
      </trkpt>
      <trkpt lat="44.46281" lon="6.87843">
        <ele>2232.4</ele>
        <time>2022-08-16T10:22:41Z</time>
      </trkpt>
      <trkpt lat="44.46279" lon="6.87848">
        <ele>2232.6</ele>
        <time>2022-08-16T10:22:43Z</time>
      </trkpt>
      <trkpt lat="44.46278" lon="6.8785">
        <ele>2232.8</ele>
        <time>2022-08-16T10:22:44Z</time>
      </trkpt>
      <trkpt lat="44.46277" lon="6.87853">
        <ele>2232.8</ele>
        <time>2022-08-16T10:22:45Z</time>
      </trkpt>
      <trkpt lat="44.46276" lon="6.87855">
        <ele>2233</ele>
        <time>2022-08-16T10:22:46Z</time>
      </trkpt>
      <trkpt lat="44.46276" lon="6.87857">
        <ele>2233</ele>
        <time>2022-08-16T10:22:47Z</time>
      </trkpt>
      <trkpt lat="44.46275" lon="6.8786">
        <ele>2233.2</ele>
        <time>2022-08-16T10:22:48Z</time>
      </trkpt>
      <trkpt lat="44.46272" lon="6.87867">
        <ele>2233.4</ele>
        <time>2022-08-16T10:22:51Z</time>
      </trkpt>
      <trkpt lat="44.46271" lon="6.87869">
        <ele>2233.4</ele>
        <time>2022-08-16T10:22:52Z</time>
      </trkpt>
      <trkpt lat="44.4627" lon="6.87871">
        <ele>2233.6</ele>
        <time>2022-08-16T10:22:53Z</time>
      </trkpt>
      <trkpt lat="44.46269" lon="6.87873">
        <ele>2233.8</ele>
        <time>2022-08-16T10:22:54Z</time>
      </trkpt>
      <trkpt lat="44.46268" lon="6.87875">
        <ele>2234</ele>
        <time>2022-08-16T10:22:55Z</time>
      </trkpt>
      <trkpt lat="44.46268" lon="6.87877">
        <ele>2234</ele>
        <time>2022-08-16T10:22:56Z</time>
      </trkpt>
      <trkpt lat="44.46267" lon="6.8788">
        <ele>2234.2</ele>
        <time>2022-08-16T10:22:57Z</time>
      </trkpt>
      <trkpt lat="44.46266" lon="6.87882">
        <ele>2234.2</ele>
        <time>2022-08-16T10:22:58Z</time>
      </trkpt>
      <trkpt lat="44.46265" lon="6.87884">
        <ele>2234.4</ele>
        <time>2022-08-16T10:22:59Z</time>
      </trkpt>
      <trkpt lat="44.46264" lon="6.87887">
        <ele>2234.6</ele>
        <time>2022-08-16T10:23:00Z</time>
      </trkpt>
      <trkpt lat="44.46263" lon="6.8789">
        <ele>2234.6</ele>
        <time>2022-08-16T10:23:01Z</time>
      </trkpt>
      <trkpt lat="44.46262" lon="6.87893">
        <ele>2234.8</ele>
        <time>2022-08-16T10:23:02Z</time>
      </trkpt>
      <trkpt lat="44.46262" lon="6.87896">
        <ele>2235.2</ele>
        <time>2022-08-16T10:23:03Z</time>
      </trkpt>
      <trkpt lat="44.46261" lon="6.87899">
        <ele>2235.6</ele>
        <time>2022-08-16T10:23:04Z</time>
      </trkpt>
      <trkpt lat="44.46261" lon="6.87902">
        <ele>2235.8</ele>
        <time>2022-08-16T10:23:05Z</time>
      </trkpt>
      <trkpt lat="44.4626" lon="6.87905">
        <ele>2236.2</ele>
        <time>2022-08-16T10:23:06Z</time>
      </trkpt>
      <trkpt lat="44.4626" lon="6.87908">
        <ele>2236</ele>
        <time>2022-08-16T10:23:07Z</time>
      </trkpt>
      <trkpt lat="44.4626" lon="6.8791">
        <ele>2236.2</ele>
        <time>2022-08-16T10:23:08Z</time>
      </trkpt>
      <trkpt lat="44.4626" lon="6.87913">
        <ele>2236.2</ele>
        <time>2022-08-16T10:23:09Z</time>
      </trkpt>
      <trkpt lat="44.4626" lon="6.87916">
        <ele>2236.2</ele>
        <time>2022-08-16T10:23:10Z</time>
      </trkpt>
      <trkpt lat="44.4626" lon="6.87919">
        <ele>2236.4</ele>
        <time>2022-08-16T10:23:11Z</time>
      </trkpt>
      <trkpt lat="44.4626" lon="6.87922">
        <ele>2236.4</ele>
        <time>2022-08-16T10:23:12Z</time>
      </trkpt>
      <trkpt lat="44.4626" lon="6.87924">
        <ele>2236.8</ele>
        <time>2022-08-16T10:23:13Z</time>
      </trkpt>
      <trkpt lat="44.4626" lon="6.87927">
        <ele>2236.8</ele>
        <time>2022-08-16T10:23:14Z</time>
      </trkpt>
      <trkpt lat="44.46261" lon="6.8793">
        <ele>2237</ele>
        <time>2022-08-16T10:23:15Z</time>
      </trkpt>
      <trkpt lat="44.4626" lon="6.87933">
        <ele>2237</ele>
        <time>2022-08-16T10:23:16Z</time>
      </trkpt>
      <trkpt lat="44.4626" lon="6.87935">
        <ele>2237.2</ele>
        <time>2022-08-16T10:23:17Z</time>
      </trkpt>
      <trkpt lat="44.4626" lon="6.87938">
        <ele>2237.4</ele>
        <time>2022-08-16T10:23:18Z</time>
      </trkpt>
      <trkpt lat="44.4626" lon="6.87941">
        <ele>2237.6</ele>
        <time>2022-08-16T10:23:19Z</time>
      </trkpt>
      <trkpt lat="44.4626" lon="6.87944">
        <ele>2237.4</ele>
        <time>2022-08-16T10:23:20Z</time>
      </trkpt>
      <trkpt lat="44.4626" lon="6.87947">
        <ele>2237.4</ele>
        <time>2022-08-16T10:23:21Z</time>
      </trkpt>
      <trkpt lat="44.4626" lon="6.8795">
        <ele>2237.6</ele>
        <time>2022-08-16T10:23:22Z</time>
      </trkpt>
      <trkpt lat="44.4626" lon="6.87953">
        <ele>2237.6</ele>
        <time>2022-08-16T10:23:23Z</time>
      </trkpt>
      <trkpt lat="44.4626" lon="6.87956">
        <ele>2237.6</ele>
        <time>2022-08-16T10:23:24Z</time>
      </trkpt>
      <trkpt lat="44.46259" lon="6.87962">
        <ele>2237.8</ele>
        <time>2022-08-16T10:23:26Z</time>
      </trkpt>
      <trkpt lat="44.46258" lon="6.87968">
        <ele>2237.8</ele>
        <time>2022-08-16T10:23:28Z</time>
      </trkpt>
      <trkpt lat="44.46258" lon="6.87972">
        <ele>2238</ele>
        <time>2022-08-16T10:23:29Z</time>
      </trkpt>
      <trkpt lat="44.46258" lon="6.87975">
        <ele>2238.2</ele>
        <time>2022-08-16T10:23:30Z</time>
      </trkpt>
      <trkpt lat="44.46257" lon="6.87984">
        <ele>2238.2</ele>
        <time>2022-08-16T10:23:33Z</time>
      </trkpt>
      <trkpt lat="44.46257" lon="6.87994">
        <ele>2238.6</ele>
        <time>2022-08-16T10:23:36Z</time>
      </trkpt>
      <trkpt lat="44.46256" lon="6.88007">
        <ele>2239</ele>
        <time>2022-08-16T10:23:40Z</time>
      </trkpt>
      <trkpt lat="44.46256" lon="6.88011">
        <ele>2239.2</ele>
        <time>2022-08-16T10:23:41Z</time>
      </trkpt>
      <trkpt lat="44.46256" lon="6.88014">
        <ele>2239.2</ele>
        <time>2022-08-16T10:23:42Z</time>
      </trkpt>
      <trkpt lat="44.46254" lon="6.88019">
        <ele>2239.2</ele>
        <time>2022-08-16T10:23:44Z</time>
      </trkpt>
      <trkpt lat="44.46253" lon="6.88022">
        <ele>2239.2</ele>
        <time>2022-08-16T10:23:45Z</time>
      </trkpt>
      <trkpt lat="44.46253" lon="6.88024">
        <ele>2239.4</ele>
        <time>2022-08-16T10:23:46Z</time>
      </trkpt>
      <trkpt lat="44.46252" lon="6.88026">
        <ele>2239.4</ele>
        <time>2022-08-16T10:23:47Z</time>
      </trkpt>
      <trkpt lat="44.46252" lon="6.88031">
        <ele>2239.4</ele>
        <time>2022-08-16T10:23:49Z</time>
      </trkpt>
      <trkpt lat="44.46251" lon="6.88034">
        <ele>2239.4</ele>
        <time>2022-08-16T10:23:50Z</time>
      </trkpt>
      <trkpt lat="44.46251" lon="6.88036">
        <ele>2239.6</ele>
        <time>2022-08-16T10:23:51Z</time>
      </trkpt>
      <trkpt lat="44.4625" lon="6.88047">
        <ele>2240.2</ele>
        <time>2022-08-16T10:23:55Z</time>
      </trkpt>
      <trkpt lat="44.4625" lon="6.88053">
        <ele>2240.2</ele>
        <time>2022-08-16T10:23:57Z</time>
      </trkpt>
      <trkpt lat="44.4625" lon="6.88056">
        <ele>2240.4</ele>
        <time>2022-08-16T10:23:58Z</time>
      </trkpt>
      <trkpt lat="44.4625" lon="6.88059">
        <ele>2240.2</ele>
        <time>2022-08-16T10:23:59Z</time>
      </trkpt>
      <trkpt lat="44.46249" lon="6.88065">
        <ele>2240.6</ele>
        <time>2022-08-16T10:24:01Z</time>
      </trkpt>
      <trkpt lat="44.46247" lon="6.88071">
        <ele>2240.4</ele>
        <time>2022-08-16T10:24:03Z</time>
      </trkpt>
      <trkpt lat="44.46246" lon="6.88077">
        <ele>2240.4</ele>
        <time>2022-08-16T10:24:05Z</time>
      </trkpt>
      <trkpt lat="44.46245" lon="6.88079">
        <ele>2240.6</ele>
        <time>2022-08-16T10:24:06Z</time>
      </trkpt>
      <trkpt lat="44.46243" lon="6.88084">
        <ele>2240.6</ele>
        <time>2022-08-16T10:24:08Z</time>
      </trkpt>
      <trkpt lat="44.46242" lon="6.88089">
        <ele>2240.6</ele>
        <time>2022-08-16T10:24:10Z</time>
      </trkpt>
      <trkpt lat="44.46241" lon="6.88091">
        <ele>2240.6</ele>
        <time>2022-08-16T10:24:11Z</time>
      </trkpt>
      <trkpt lat="44.4624" lon="6.88092">
        <ele>2240.8</ele>
        <time>2022-08-16T10:24:12Z</time>
      </trkpt>
      <trkpt lat="44.46237" lon="6.88095">
        <ele>2241</ele>
        <time>2022-08-16T10:24:14Z</time>
      </trkpt>
      <trkpt lat="44.46237" lon="6.88097">
        <ele>2240.8</ele>
        <time>2022-08-16T10:24:15Z</time>
      </trkpt>
      <trkpt lat="44.46236" lon="6.88098">
        <ele>2240.8</ele>
        <time>2022-08-16T10:24:16Z</time>
      </trkpt>
      <trkpt lat="44.46235" lon="6.881">
        <ele>2241</ele>
        <time>2022-08-16T10:24:17Z</time>
      </trkpt>
      <trkpt lat="44.46234" lon="6.88102">
        <ele>2241</ele>
        <time>2022-08-16T10:24:18Z</time>
      </trkpt>
      <trkpt lat="44.46234" lon="6.88104">
        <ele>2241</ele>
        <time>2022-08-16T10:24:19Z</time>
      </trkpt>
      <trkpt lat="44.46234" lon="6.88106">
        <ele>2241.2</ele>
        <time>2022-08-16T10:24:20Z</time>
      </trkpt>
      <trkpt lat="44.46234" lon="6.88107">
        <ele>2241.6</ele>
        <time>2022-08-16T10:24:21Z</time>
      </trkpt>
      <trkpt lat="44.46234" lon="6.8811">
        <ele>2241.6</ele>
        <time>2022-08-16T10:24:22Z</time>
      </trkpt>
      <trkpt lat="44.46233" lon="6.88113">
        <ele>2242</ele>
        <time>2022-08-16T10:24:23Z</time>
      </trkpt>
      <trkpt lat="44.46233" lon="6.88115">
        <ele>2242.4</ele>
        <time>2022-08-16T10:24:24Z</time>
      </trkpt>
      <trkpt lat="44.46233" lon="6.88115">
        <ele>2242.8</ele>
        <time>2022-08-16T10:24:25Z</time>
      </trkpt>
      <trkpt lat="44.46233" lon="6.88116">
        <ele>2242.8</ele>
        <time>2022-08-16T10:24:26Z</time>
      </trkpt>
      <trkpt lat="44.46233" lon="6.88117">
        <ele>2243</ele>
        <time>2022-08-16T10:24:28Z</time>
      </trkpt>
      <trkpt lat="44.46232" lon="6.88117">
        <ele>2243.4</ele>
        <time>2022-08-16T10:24:29Z</time>
      </trkpt>
      <trkpt lat="44.46232" lon="6.88118">
        <ele>2243.6</ele>
        <time>2022-08-16T10:24:30Z</time>
      </trkpt>
      <trkpt lat="44.46233" lon="6.88119">
        <ele>2243.4</ele>
        <time>2022-08-16T10:24:31Z</time>
      </trkpt>
      <trkpt lat="44.46233" lon="6.88121">
        <ele>2243.8</ele>
        <time>2022-08-16T10:24:32Z</time>
      </trkpt>
      <trkpt lat="44.46233" lon="6.88125">
        <ele>2243.8</ele>
        <time>2022-08-16T10:24:33Z</time>
      </trkpt>
      <trkpt lat="44.46234" lon="6.88129">
        <ele>2243.8</ele>
        <time>2022-08-16T10:24:34Z</time>
      </trkpt>
      <trkpt lat="44.46234" lon="6.88133">
        <ele>2244</ele>
        <time>2022-08-16T10:24:35Z</time>
      </trkpt>
      <trkpt lat="44.46233" lon="6.88137">
        <ele>2243.8</ele>
        <time>2022-08-16T10:24:36Z</time>
      </trkpt>
      <trkpt lat="44.46232" lon="6.8814">
        <ele>2244</ele>
        <time>2022-08-16T10:24:37Z</time>
      </trkpt>
      <trkpt lat="44.46232" lon="6.88143">
        <ele>2244</ele>
        <time>2022-08-16T10:24:38Z</time>
      </trkpt>
      <trkpt lat="44.46231" lon="6.88146">
        <ele>2244</ele>
        <time>2022-08-16T10:24:39Z</time>
      </trkpt>
      <trkpt lat="44.4623" lon="6.88148">
        <ele>2244</ele>
        <time>2022-08-16T10:24:40Z</time>
      </trkpt>
      <trkpt lat="44.4623" lon="6.8815">
        <ele>2243.8</ele>
        <time>2022-08-16T10:24:41Z</time>
      </trkpt>
      <trkpt lat="44.46229" lon="6.88153">
        <ele>2243.8</ele>
        <time>2022-08-16T10:24:42Z</time>
      </trkpt>
      <trkpt lat="44.46227" lon="6.88161">
        <ele>2244</ele>
        <time>2022-08-16T10:24:45Z</time>
      </trkpt>
      <trkpt lat="44.46226" lon="6.88163">
        <ele>2244.2</ele>
        <time>2022-08-16T10:24:46Z</time>
      </trkpt>
      <trkpt lat="44.46225" lon="6.88165">
        <ele>2244.2</ele>
        <time>2022-08-16T10:24:47Z</time>
      </trkpt>
      <trkpt lat="44.46225" lon="6.88167">
        <ele>2244.2</ele>
        <time>2022-08-16T10:24:48Z</time>
      </trkpt>
      <trkpt lat="44.46225" lon="6.88169">
        <ele>2244.2</ele>
        <time>2022-08-16T10:24:49Z</time>
      </trkpt>
      <trkpt lat="44.46224" lon="6.8817">
        <ele>2244.2</ele>
        <time>2022-08-16T10:24:50Z</time>
      </trkpt>
      <trkpt lat="44.46224" lon="6.88172">
        <ele>2244.2</ele>
        <time>2022-08-16T10:24:51Z</time>
      </trkpt>
      <trkpt lat="44.46223" lon="6.88173">
        <ele>2244.2</ele>
        <time>2022-08-16T10:24:52Z</time>
      </trkpt>
      <trkpt lat="44.46222" lon="6.88174">
        <ele>2244</ele>
        <time>2022-08-16T10:24:53Z</time>
      </trkpt>
      <trkpt lat="44.4622" lon="6.88175">
        <ele>2244.2</ele>
        <time>2022-08-16T10:24:54Z</time>
      </trkpt>
      <trkpt lat="44.46219" lon="6.88176">
        <ele>2244.2</ele>
        <time>2022-08-16T10:24:55Z</time>
      </trkpt>
      <trkpt lat="44.46214" lon="6.88185">
        <ele>2245</ele>
        <time>2022-08-16T10:25:00Z</time>
      </trkpt>
      <trkpt lat="44.46213" lon="6.88186">
        <ele>2245</ele>
        <time>2022-08-16T10:25:01Z</time>
      </trkpt>
      <trkpt lat="44.46212" lon="6.88188">
        <ele>2245</ele>
        <time>2022-08-16T10:25:02Z</time>
      </trkpt>
      <trkpt lat="44.46211" lon="6.8819">
        <ele>2245</ele>
        <time>2022-08-16T10:25:03Z</time>
      </trkpt>
      <trkpt lat="44.46211" lon="6.88192">
        <ele>2245.2</ele>
        <time>2022-08-16T10:25:04Z</time>
      </trkpt>
      <trkpt lat="44.4621" lon="6.88193">
        <ele>2245.2</ele>
        <time>2022-08-16T10:25:05Z</time>
      </trkpt>
      <trkpt lat="44.46208" lon="6.88195">
        <ele>2245.4</ele>
        <time>2022-08-16T10:25:07Z</time>
      </trkpt>
      <trkpt lat="44.46207" lon="6.88196">
        <ele>2245.2</ele>
        <time>2022-08-16T10:25:08Z</time>
      </trkpt>
      <trkpt lat="44.46206" lon="6.88197">
        <ele>2245.4</ele>
        <time>2022-08-16T10:25:09Z</time>
      </trkpt>
      <trkpt lat="44.46203" lon="6.88202">
        <ele>2245.6</ele>
        <time>2022-08-16T10:25:13Z</time>
      </trkpt>
      <trkpt lat="44.46198" lon="6.88206">
        <ele>2246</ele>
        <time>2022-08-16T10:25:17Z</time>
      </trkpt>
      <trkpt lat="44.46197" lon="6.88207">
        <ele>2246.2</ele>
        <time>2022-08-16T10:25:18Z</time>
      </trkpt>
      <trkpt lat="44.46195" lon="6.8821">
        <ele>2246.6</ele>
        <time>2022-08-16T10:25:20Z</time>
      </trkpt>
      <trkpt lat="44.4619" lon="6.88219">
        <ele>2247</ele>
        <time>2022-08-16T10:25:25Z</time>
      </trkpt>
      <trkpt lat="44.46188" lon="6.88223">
        <ele>2247.2</ele>
        <time>2022-08-16T10:25:27Z</time>
      </trkpt>
      <trkpt lat="44.46185" lon="6.88228">
        <ele>2247.6</ele>
        <time>2022-08-16T10:25:30Z</time>
      </trkpt>
      <trkpt lat="44.46183" lon="6.8823">
        <ele>2247.6</ele>
        <time>2022-08-16T10:25:32Z</time>
      </trkpt>
      <trkpt lat="44.46182" lon="6.88232">
        <ele>2247.8</ele>
        <time>2022-08-16T10:25:33Z</time>
      </trkpt>
      <trkpt lat="44.46181" lon="6.88233">
        <ele>2248</ele>
        <time>2022-08-16T10:25:34Z</time>
      </trkpt>
      <trkpt lat="44.4618" lon="6.88234">
        <ele>2247.8</ele>
        <time>2022-08-16T10:25:35Z</time>
      </trkpt>
      <trkpt lat="44.46176" lon="6.88241">
        <ele>2248</ele>
        <time>2022-08-16T10:25:39Z</time>
      </trkpt>
      <trkpt lat="44.46175" lon="6.88242">
        <ele>2248</ele>
        <time>2022-08-16T10:25:40Z</time>
      </trkpt>
      <trkpt lat="44.46173" lon="6.88246">
        <ele>2248</ele>
        <time>2022-08-16T10:25:42Z</time>
      </trkpt>
      <trkpt lat="44.46173" lon="6.88248">
        <ele>2248.2</ele>
        <time>2022-08-16T10:25:43Z</time>
      </trkpt>
      <trkpt lat="44.46172" lon="6.88249">
        <ele>2248.2</ele>
        <time>2022-08-16T10:25:44Z</time>
      </trkpt>
      <trkpt lat="44.46167" lon="6.88257">
        <ele>2248.6</ele>
        <time>2022-08-16T10:25:49Z</time>
      </trkpt>
      <trkpt lat="44.46166" lon="6.88258">
        <ele>2248.6</ele>
        <time>2022-08-16T10:25:50Z</time>
      </trkpt>
      <trkpt lat="44.46165" lon="6.8826">
        <ele>2248.6</ele>
        <time>2022-08-16T10:25:51Z</time>
      </trkpt>
      <trkpt lat="44.46163" lon="6.88262">
        <ele>2248.8</ele>
        <time>2022-08-16T10:25:53Z</time>
      </trkpt>
      <trkpt lat="44.46162" lon="6.88262">
        <ele>2248.8</ele>
        <time>2022-08-16T10:25:54Z</time>
      </trkpt>
      <trkpt lat="44.4616" lon="6.88263">
        <ele>2249</ele>
        <time>2022-08-16T10:25:55Z</time>
      </trkpt>
      <trkpt lat="44.46159" lon="6.88264">
        <ele>2249.2</ele>
        <time>2022-08-16T10:25:56Z</time>
      </trkpt>
      <trkpt lat="44.46158" lon="6.88265">
        <ele>2249.2</ele>
        <time>2022-08-16T10:25:57Z</time>
      </trkpt>
      <trkpt lat="44.46157" lon="6.88266">
        <ele>2249.4</ele>
        <time>2022-08-16T10:25:58Z</time>
      </trkpt>
      <trkpt lat="44.46156" lon="6.88267">
        <ele>2249.6</ele>
        <time>2022-08-16T10:25:59Z</time>
      </trkpt>
      <trkpt lat="44.46155" lon="6.88268">
        <ele>2249.6</ele>
        <time>2022-08-16T10:26:00Z</time>
      </trkpt>
      <trkpt lat="44.46152" lon="6.8827">
        <ele>2250</ele>
        <time>2022-08-16T10:26:03Z</time>
      </trkpt>
      <trkpt lat="44.46148" lon="6.88273">
        <ele>2250.4</ele>
        <time>2022-08-16T10:26:06Z</time>
      </trkpt>
      <trkpt lat="44.46147" lon="6.88274">
        <ele>2250.2</ele>
        <time>2022-08-16T10:26:07Z</time>
      </trkpt>
      <trkpt lat="44.46146" lon="6.88275">
        <ele>2250.4</ele>
        <time>2022-08-16T10:26:08Z</time>
      </trkpt>
      <trkpt lat="44.46145" lon="6.88277">
        <ele>2250.4</ele>
        <time>2022-08-16T10:26:09Z</time>
      </trkpt>
      <trkpt lat="44.46144" lon="6.88278">
        <ele>2250.8</ele>
        <time>2022-08-16T10:26:10Z</time>
      </trkpt>
      <trkpt lat="44.46143" lon="6.88279">
        <ele>2251</ele>
        <time>2022-08-16T10:26:11Z</time>
      </trkpt>
      <trkpt lat="44.46142" lon="6.88281">
        <ele>2251</ele>
        <time>2022-08-16T10:26:12Z</time>
      </trkpt>
      <trkpt lat="44.4614" lon="6.88282">
        <ele>2251.2</ele>
        <time>2022-08-16T10:26:13Z</time>
      </trkpt>
      <trkpt lat="44.46139" lon="6.88283">
        <ele>2251.2</ele>
        <time>2022-08-16T10:26:14Z</time>
      </trkpt>
      <trkpt lat="44.46138" lon="6.88285">
        <ele>2251.4</ele>
        <time>2022-08-16T10:26:15Z</time>
      </trkpt>
      <trkpt lat="44.46136" lon="6.88286">
        <ele>2251.4</ele>
        <time>2022-08-16T10:26:16Z</time>
      </trkpt>
      <trkpt lat="44.46135" lon="6.88287">
        <ele>2251.4</ele>
        <time>2022-08-16T10:26:17Z</time>
      </trkpt>
      <trkpt lat="44.46134" lon="6.88288">
        <ele>2251.6</ele>
        <time>2022-08-16T10:26:18Z</time>
      </trkpt>
      <trkpt lat="44.46131" lon="6.8829">
        <ele>2251.6</ele>
        <time>2022-08-16T10:26:20Z</time>
      </trkpt>
      <trkpt lat="44.4613" lon="6.88291">
        <ele>2251.8</ele>
        <time>2022-08-16T10:26:21Z</time>
      </trkpt>
      <trkpt lat="44.46129" lon="6.88291">
        <ele>2251.6</ele>
        <time>2022-08-16T10:26:22Z</time>
      </trkpt>
      <trkpt lat="44.46128" lon="6.88292">
        <ele>2251.8</ele>
        <time>2022-08-16T10:26:23Z</time>
      </trkpt>
      <trkpt lat="44.46121" lon="6.88296">
        <ele>2252.2</ele>
        <time>2022-08-16T10:26:28Z</time>
      </trkpt>
      <trkpt lat="44.46119" lon="6.88298">
        <ele>2252.4</ele>
        <time>2022-08-16T10:26:30Z</time>
      </trkpt>
      <trkpt lat="44.46117" lon="6.88301">
        <ele>2252.4</ele>
        <time>2022-08-16T10:26:32Z</time>
      </trkpt>
      <trkpt lat="44.46116" lon="6.88302">
        <ele>2252.8</ele>
        <time>2022-08-16T10:26:33Z</time>
      </trkpt>
      <trkpt lat="44.46115" lon="6.88303">
        <ele>2253</ele>
        <time>2022-08-16T10:26:34Z</time>
      </trkpt>
      <trkpt lat="44.46114" lon="6.88304">
        <ele>2253.2</ele>
        <time>2022-08-16T10:26:35Z</time>
      </trkpt>
      <trkpt lat="44.46113" lon="6.88305">
        <ele>2253.2</ele>
        <time>2022-08-16T10:26:36Z</time>
      </trkpt>
      <trkpt lat="44.46112" lon="6.88306">
        <ele>2253.4</ele>
        <time>2022-08-16T10:26:37Z</time>
      </trkpt>
      <trkpt lat="44.4611" lon="6.88307">
        <ele>2253.4</ele>
        <time>2022-08-16T10:26:38Z</time>
      </trkpt>
      <trkpt lat="44.46109" lon="6.88308">
        <ele>2253.4</ele>
        <time>2022-08-16T10:26:39Z</time>
      </trkpt>
      <trkpt lat="44.46108" lon="6.88308">
        <ele>2253.4</ele>
        <time>2022-08-16T10:26:40Z</time>
      </trkpt>
      <trkpt lat="44.46107" lon="6.88309">
        <ele>2253.6</ele>
        <time>2022-08-16T10:26:41Z</time>
      </trkpt>
      <trkpt lat="44.46105" lon="6.8831">
        <ele>2253.8</ele>
        <time>2022-08-16T10:26:42Z</time>
      </trkpt>
      <trkpt lat="44.46104" lon="6.88311">
        <ele>2253.8</ele>
        <time>2022-08-16T10:26:43Z</time>
      </trkpt>
      <trkpt lat="44.46103" lon="6.88312">
        <ele>2253.8</ele>
        <time>2022-08-16T10:26:44Z</time>
      </trkpt>
      <trkpt lat="44.46102" lon="6.88313">
        <ele>2254</ele>
        <time>2022-08-16T10:26:45Z</time>
      </trkpt>
      <trkpt lat="44.46101" lon="6.88314">
        <ele>2254</ele>
        <time>2022-08-16T10:26:46Z</time>
      </trkpt>
      <trkpt lat="44.461" lon="6.88315">
        <ele>2254.2</ele>
        <time>2022-08-16T10:26:47Z</time>
      </trkpt>
      <trkpt lat="44.46099" lon="6.88316">
        <ele>2254.2</ele>
        <time>2022-08-16T10:26:48Z</time>
      </trkpt>
      <trkpt lat="44.46098" lon="6.88317">
        <ele>2254.2</ele>
        <time>2022-08-16T10:26:49Z</time>
      </trkpt>
      <trkpt lat="44.46097" lon="6.88318">
        <ele>2254.4</ele>
        <time>2022-08-16T10:26:50Z</time>
      </trkpt>
      <trkpt lat="44.46096" lon="6.88318">
        <ele>2254.8</ele>
        <time>2022-08-16T10:26:51Z</time>
      </trkpt>
      <trkpt lat="44.46095" lon="6.88319">
        <ele>2254.8</ele>
        <time>2022-08-16T10:26:52Z</time>
      </trkpt>
      <trkpt lat="44.46094" lon="6.8832">
        <ele>2255.2</ele>
        <time>2022-08-16T10:26:53Z</time>
      </trkpt>
      <trkpt lat="44.46094" lon="6.88321">
        <ele>2255.2</ele>
        <time>2022-08-16T10:26:54Z</time>
      </trkpt>
      <trkpt lat="44.46093" lon="6.88323">
        <ele>2255.4</ele>
        <time>2022-08-16T10:26:55Z</time>
      </trkpt>
      <trkpt lat="44.46093" lon="6.88324">
        <ele>2255.6</ele>
        <time>2022-08-16T10:26:56Z</time>
      </trkpt>
      <trkpt lat="44.46092" lon="6.88326">
        <ele>2255.8</ele>
        <time>2022-08-16T10:26:57Z</time>
      </trkpt>
      <trkpt lat="44.46092" lon="6.88328">
        <ele>2255.8</ele>
        <time>2022-08-16T10:26:58Z</time>
      </trkpt>
      <trkpt lat="44.46092" lon="6.8833">
        <ele>2256.2</ele>
        <time>2022-08-16T10:26:59Z</time>
      </trkpt>
      <trkpt lat="44.46091" lon="6.88331">
        <ele>2256.2</ele>
        <time>2022-08-16T10:27:00Z</time>
      </trkpt>
      <trkpt lat="44.46091" lon="6.88333">
        <ele>2256.4</ele>
        <time>2022-08-16T10:27:01Z</time>
      </trkpt>
      <trkpt lat="44.4609" lon="6.88334">
        <ele>2256.6</ele>
        <time>2022-08-16T10:27:02Z</time>
      </trkpt>
      <trkpt lat="44.4609" lon="6.88336">
        <ele>2256.8</ele>
        <time>2022-08-16T10:27:03Z</time>
      </trkpt>
      <trkpt lat="44.46089" lon="6.88337">
        <ele>2257</ele>
        <time>2022-08-16T10:27:04Z</time>
      </trkpt>
      <trkpt lat="44.46089" lon="6.88339">
        <ele>2257</ele>
        <time>2022-08-16T10:27:05Z</time>
      </trkpt>
      <trkpt lat="44.46089" lon="6.8834">
        <ele>2257</ele>
        <time>2022-08-16T10:27:06Z</time>
      </trkpt>
      <trkpt lat="44.46088" lon="6.88342">
        <ele>2257.4</ele>
        <time>2022-08-16T10:27:07Z</time>
      </trkpt>
      <trkpt lat="44.46088" lon="6.88343">
        <ele>2257.6</ele>
        <time>2022-08-16T10:27:08Z</time>
      </trkpt>
      <trkpt lat="44.46088" lon="6.88345">
        <ele>2257.8</ele>
        <time>2022-08-16T10:27:09Z</time>
      </trkpt>
      <trkpt lat="44.46087" lon="6.88346">
        <ele>2258</ele>
        <time>2022-08-16T10:27:10Z</time>
      </trkpt>
      <trkpt lat="44.46087" lon="6.88348">
        <ele>2258.2</ele>
        <time>2022-08-16T10:27:11Z</time>
      </trkpt>
      <trkpt lat="44.46086" lon="6.88349">
        <ele>2258.4</ele>
        <time>2022-08-16T10:27:12Z</time>
      </trkpt>
      <trkpt lat="44.46086" lon="6.8835">
        <ele>2258.6</ele>
        <time>2022-08-16T10:27:13Z</time>
      </trkpt>
      <trkpt lat="44.46085" lon="6.88351">
        <ele>2259</ele>
        <time>2022-08-16T10:27:14Z</time>
      </trkpt>
      <trkpt lat="44.46084" lon="6.88352">
        <ele>2259.2</ele>
        <time>2022-08-16T10:27:15Z</time>
      </trkpt>
      <trkpt lat="44.46083" lon="6.88352">
        <ele>2259.4</ele>
        <time>2022-08-16T10:27:16Z</time>
      </trkpt>
      <trkpt lat="44.46082" lon="6.88353">
        <ele>2259.6</ele>
        <time>2022-08-16T10:27:17Z</time>
      </trkpt>
      <trkpt lat="44.46081" lon="6.88353">
        <ele>2259.8</ele>
        <time>2022-08-16T10:27:18Z</time>
      </trkpt>
      <trkpt lat="44.46081" lon="6.88354">
        <ele>2260.2</ele>
        <time>2022-08-16T10:27:19Z</time>
      </trkpt>
      <trkpt lat="44.4608" lon="6.88355">
        <ele>2260.6</ele>
        <time>2022-08-16T10:27:22Z</time>
      </trkpt>
      <trkpt lat="44.4608" lon="6.88355">
        <ele>2261</ele>
        <time>2022-08-16T10:27:23Z</time>
      </trkpt>
      <trkpt lat="44.4608" lon="6.88355">
        <ele>2261.6</ele>
        <time>2022-08-16T10:27:25Z</time>
      </trkpt>
      <trkpt lat="44.4608" lon="6.88355">
        <ele>2262</ele>
        <time>2022-08-16T10:27:27Z</time>
      </trkpt>
      <trkpt lat="44.4608" lon="6.88355">
        <ele>2262.4</ele>
        <time>2022-08-16T10:27:28Z</time>
      </trkpt>
      <trkpt lat="44.4608" lon="6.88355">
        <ele>2262.6</ele>
        <time>2022-08-16T10:27:29Z</time>
      </trkpt>
      <trkpt lat="44.46079" lon="6.88356">
        <ele>2262.8</ele>
        <time>2022-08-16T10:27:30Z</time>
      </trkpt>
      <trkpt lat="44.46079" lon="6.88356">
        <ele>2262.6</ele>
        <time>2022-08-16T10:27:31Z</time>
      </trkpt>
      <trkpt lat="44.46078" lon="6.88357">
        <ele>2262.8</ele>
        <time>2022-08-16T10:27:32Z</time>
      </trkpt>
      <trkpt lat="44.46077" lon="6.88358">
        <ele>2263</ele>
        <time>2022-08-16T10:27:33Z</time>
      </trkpt>
      <trkpt lat="44.46077" lon="6.88358">
        <ele>2263</ele>
        <time>2022-08-16T10:27:34Z</time>
      </trkpt>
      <trkpt lat="44.46076" lon="6.88359">
        <ele>2263.4</ele>
        <time>2022-08-16T10:27:35Z</time>
      </trkpt>
      <trkpt lat="44.46076" lon="6.8836">
        <ele>2263.6</ele>
        <time>2022-08-16T10:27:36Z</time>
      </trkpt>
      <trkpt lat="44.46075" lon="6.88361">
        <ele>2263.6</ele>
        <time>2022-08-16T10:27:37Z</time>
      </trkpt>
      <trkpt lat="44.46074" lon="6.88361">
        <ele>2263.8</ele>
        <time>2022-08-16T10:27:38Z</time>
      </trkpt>
      <trkpt lat="44.46074" lon="6.88362">
        <ele>2264</ele>
        <time>2022-08-16T10:27:39Z</time>
      </trkpt>
      <trkpt lat="44.46073" lon="6.88362">
        <ele>2264</ele>
        <time>2022-08-16T10:27:40Z</time>
      </trkpt>
      <trkpt lat="44.46072" lon="6.88363">
        <ele>2264.2</ele>
        <time>2022-08-16T10:27:41Z</time>
      </trkpt>
      <trkpt lat="44.46072" lon="6.88364">
        <ele>2264.2</ele>
        <time>2022-08-16T10:27:42Z</time>
      </trkpt>
      <trkpt lat="44.46071" lon="6.88364">
        <ele>2264.2</ele>
        <time>2022-08-16T10:27:43Z</time>
      </trkpt>
      <trkpt lat="44.46071" lon="6.88365">
        <ele>2264.2</ele>
        <time>2022-08-16T10:27:44Z</time>
      </trkpt>
      <trkpt lat="44.4607" lon="6.88366">
        <ele>2264.2</ele>
        <time>2022-08-16T10:27:45Z</time>
      </trkpt>
      <trkpt lat="44.46069" lon="6.88366">
        <ele>2264.2</ele>
        <time>2022-08-16T10:27:46Z</time>
      </trkpt>
      <trkpt lat="44.46069" lon="6.88366">
        <ele>2264.6</ele>
        <time>2022-08-16T10:27:47Z</time>
      </trkpt>
      <trkpt lat="44.46068" lon="6.88367">
        <ele>2264.8</ele>
        <time>2022-08-16T10:27:48Z</time>
      </trkpt>
      <trkpt lat="44.46067" lon="6.88367">
        <ele>2265</ele>
        <time>2022-08-16T10:27:49Z</time>
      </trkpt>
      <trkpt lat="44.46067" lon="6.88367">
        <ele>2265</ele>
        <time>2022-08-16T10:27:50Z</time>
      </trkpt>
      <trkpt lat="44.46066" lon="6.88368">
        <ele>2265.2</ele>
        <time>2022-08-16T10:27:51Z</time>
      </trkpt>
      <trkpt lat="44.46065" lon="6.88368">
        <ele>2265.4</ele>
        <time>2022-08-16T10:27:52Z</time>
      </trkpt>
      <trkpt lat="44.46064" lon="6.88368">
        <ele>2265.6</ele>
        <time>2022-08-16T10:27:53Z</time>
      </trkpt>
      <trkpt lat="44.46064" lon="6.88368">
        <ele>2265.8</ele>
        <time>2022-08-16T10:27:54Z</time>
      </trkpt>
      <trkpt lat="44.46063" lon="6.88369">
        <ele>2265.8</ele>
        <time>2022-08-16T10:27:55Z</time>
      </trkpt>
      <trkpt lat="44.46062" lon="6.88369">
        <ele>2266</ele>
        <time>2022-08-16T10:27:56Z</time>
      </trkpt>
      <trkpt lat="44.46062" lon="6.8837">
        <ele>2266.2</ele>
        <time>2022-08-16T10:27:57Z</time>
      </trkpt>
      <trkpt lat="44.46061" lon="6.8837">
        <ele>2266.2</ele>
        <time>2022-08-16T10:27:58Z</time>
      </trkpt>
      <trkpt lat="44.46061" lon="6.88371">
        <ele>2266.4</ele>
        <time>2022-08-16T10:27:59Z</time>
      </trkpt>
      <trkpt lat="44.4606" lon="6.88372">
        <ele>2266.6</ele>
        <time>2022-08-16T10:28:00Z</time>
      </trkpt>
      <trkpt lat="44.4606" lon="6.88373">
        <ele>2266.8</ele>
        <time>2022-08-16T10:28:01Z</time>
      </trkpt>
      <trkpt lat="44.4606" lon="6.88374">
        <ele>2267</ele>
        <time>2022-08-16T10:28:02Z</time>
      </trkpt>
      <trkpt lat="44.46059" lon="6.88374">
        <ele>2267</ele>
        <time>2022-08-16T10:28:03Z</time>
      </trkpt>
      <trkpt lat="44.46059" lon="6.88375">
        <ele>2267.4</ele>
        <time>2022-08-16T10:28:04Z</time>
      </trkpt>
      <trkpt lat="44.46058" lon="6.88376">
        <ele>2267.6</ele>
        <time>2022-08-16T10:28:05Z</time>
      </trkpt>
      <trkpt lat="44.46058" lon="6.88377">
        <ele>2267.6</ele>
        <time>2022-08-16T10:28:06Z</time>
      </trkpt>
      <trkpt lat="44.46058" lon="6.88377">
        <ele>2267.8</ele>
        <time>2022-08-16T10:28:07Z</time>
      </trkpt>
      <trkpt lat="44.46057" lon="6.88378">
        <ele>2268</ele>
        <time>2022-08-16T10:28:08Z</time>
      </trkpt>
      <trkpt lat="44.46057" lon="6.88378">
        <ele>2268.4</ele>
        <time>2022-08-16T10:28:09Z</time>
      </trkpt>
      <trkpt lat="44.46057" lon="6.88379">
        <ele>2268.8</ele>
        <time>2022-08-16T10:28:10Z</time>
      </trkpt>
      <trkpt lat="44.46056" lon="6.8838">
        <ele>2269</ele>
        <time>2022-08-16T10:28:11Z</time>
      </trkpt>
      <trkpt lat="44.46056" lon="6.8838">
        <ele>2269.2</ele>
        <time>2022-08-16T10:28:12Z</time>
      </trkpt>
      <trkpt lat="44.46055" lon="6.88381">
        <ele>2269.4</ele>
        <time>2022-08-16T10:28:13Z</time>
      </trkpt>
      <trkpt lat="44.46055" lon="6.88382">
        <ele>2269.6</ele>
        <time>2022-08-16T10:28:14Z</time>
      </trkpt>
      <trkpt lat="44.46054" lon="6.88382">
        <ele>2269.6</ele>
        <time>2022-08-16T10:28:15Z</time>
      </trkpt>
      <trkpt lat="44.46054" lon="6.88383">
        <ele>2269.8</ele>
        <time>2022-08-16T10:28:16Z</time>
      </trkpt>
      <trkpt lat="44.46054" lon="6.88384">
        <ele>2269.8</ele>
        <time>2022-08-16T10:28:17Z</time>
      </trkpt>
      <trkpt lat="44.46053" lon="6.88384">
        <ele>2270.2</ele>
        <time>2022-08-16T10:28:18Z</time>
      </trkpt>
      <trkpt lat="44.46053" lon="6.88385">
        <ele>2270.6</ele>
        <time>2022-08-16T10:28:21Z</time>
      </trkpt>
      <trkpt lat="44.46053" lon="6.88385">
        <ele>2271</ele>
        <time>2022-08-16T10:28:23Z</time>
      </trkpt>
      <trkpt lat="44.46052" lon="6.88386">
        <ele>2271.2</ele>
        <time>2022-08-16T10:28:24Z</time>
      </trkpt>
      <trkpt lat="44.46052" lon="6.88387">
        <ele>2271.4</ele>
        <time>2022-08-16T10:28:25Z</time>
      </trkpt>
      <trkpt lat="44.46052" lon="6.88387">
        <ele>2271.6</ele>
        <time>2022-08-16T10:28:26Z</time>
      </trkpt>
      <trkpt lat="44.46051" lon="6.88388">
        <ele>2271.6</ele>
        <time>2022-08-16T10:28:27Z</time>
      </trkpt>
      <trkpt lat="44.46051" lon="6.88388">
        <ele>2271.8</ele>
        <time>2022-08-16T10:28:28Z</time>
      </trkpt>
      <trkpt lat="44.4605" lon="6.88389">
        <ele>2271.8</ele>
        <time>2022-08-16T10:28:29Z</time>
      </trkpt>
      <trkpt lat="44.4605" lon="6.8839">
        <ele>2271.8</ele>
        <time>2022-08-16T10:28:30Z</time>
      </trkpt>
      <trkpt lat="44.46049" lon="6.8839">
        <ele>2272</ele>
        <time>2022-08-16T10:28:31Z</time>
      </trkpt>
      <trkpt lat="44.46049" lon="6.88391">
        <ele>2271.8</ele>
        <time>2022-08-16T10:28:32Z</time>
      </trkpt>
      <trkpt lat="44.46049" lon="6.88392">
        <ele>2271.8</ele>
        <time>2022-08-16T10:28:33Z</time>
      </trkpt>
      <trkpt lat="44.46048" lon="6.88392">
        <ele>2272</ele>
        <time>2022-08-16T10:28:34Z</time>
      </trkpt>
      <trkpt lat="44.46047" lon="6.88392">
        <ele>2272</ele>
        <time>2022-08-16T10:28:35Z</time>
      </trkpt>
      <trkpt lat="44.46046" lon="6.88393">
        <ele>2272.4</ele>
        <time>2022-08-16T10:28:36Z</time>
      </trkpt>
      <trkpt lat="44.46046" lon="6.88393">
        <ele>2272.6</ele>
        <time>2022-08-16T10:28:37Z</time>
      </trkpt>
      <trkpt lat="44.46045" lon="6.88394">
        <ele>2272.6</ele>
        <time>2022-08-16T10:28:38Z</time>
      </trkpt>
      <trkpt lat="44.46044" lon="6.88394">
        <ele>2272.6</ele>
        <time>2022-08-16T10:28:39Z</time>
      </trkpt>
      <trkpt lat="44.46044" lon="6.88394">
        <ele>2273</ele>
        <time>2022-08-16T10:28:40Z</time>
      </trkpt>
      <trkpt lat="44.46044" lon="6.88395">
        <ele>2273.8</ele>
        <time>2022-08-16T10:28:44Z</time>
      </trkpt>
      <trkpt lat="44.46044" lon="6.88395">
        <ele>2274.2</ele>
        <time>2022-08-16T10:28:45Z</time>
      </trkpt>
      <trkpt lat="44.46044" lon="6.88395">
        <ele>2274.2</ele>
        <time>2022-08-16T10:28:46Z</time>
      </trkpt>
      <trkpt lat="44.46043" lon="6.88395">
        <ele>2275</ele>
        <time>2022-08-16T10:28:55Z</time>
      </trkpt>
      <trkpt lat="44.46042" lon="6.88397">
        <ele>2275.2</ele>
        <time>2022-08-16T10:28:57Z</time>
      </trkpt>
      <trkpt lat="44.46042" lon="6.88398">
        <ele>2275.2</ele>
        <time>2022-08-16T10:28:58Z</time>
      </trkpt>
      <trkpt lat="44.46042" lon="6.88399">
        <ele>2275.2</ele>
        <time>2022-08-16T10:28:59Z</time>
      </trkpt>
      <trkpt lat="44.46042" lon="6.884">
        <ele>2275.2</ele>
        <time>2022-08-16T10:29:00Z</time>
      </trkpt>
      <trkpt lat="44.46042" lon="6.88401">
        <ele>2275.4</ele>
        <time>2022-08-16T10:29:01Z</time>
      </trkpt>
      <trkpt lat="44.46042" lon="6.88402">
        <ele>2275.2</ele>
        <time>2022-08-16T10:29:02Z</time>
      </trkpt>
      <trkpt lat="44.46042" lon="6.88403">
        <ele>2275.4</ele>
        <time>2022-08-16T10:29:03Z</time>
      </trkpt>
      <trkpt lat="44.46043" lon="6.88404">
        <ele>2275.4</ele>
        <time>2022-08-16T10:29:04Z</time>
      </trkpt>
      <trkpt lat="44.46043" lon="6.88405">
        <ele>2275.6</ele>
        <time>2022-08-16T10:29:05Z</time>
      </trkpt>
      <trkpt lat="44.46043" lon="6.88405">
        <ele>2275.6</ele>
        <time>2022-08-16T10:29:06Z</time>
      </trkpt>
      <trkpt lat="44.46044" lon="6.88406">
        <ele>2275.8</ele>
        <time>2022-08-16T10:29:07Z</time>
      </trkpt>
      <trkpt lat="44.46044" lon="6.88407">
        <ele>2275.8</ele>
        <time>2022-08-16T10:29:08Z</time>
      </trkpt>
      <trkpt lat="44.46044" lon="6.88408">
        <ele>2275.8</ele>
        <time>2022-08-16T10:29:09Z</time>
      </trkpt>
      <trkpt lat="44.46044" lon="6.88409">
        <ele>2276.4</ele>
        <time>2022-08-16T10:29:10Z</time>
      </trkpt>
      <trkpt lat="44.46045" lon="6.8841">
        <ele>2276.4</ele>
        <time>2022-08-16T10:29:11Z</time>
      </trkpt>
      <trkpt lat="44.46044" lon="6.88411">
        <ele>2276.6</ele>
        <time>2022-08-16T10:29:12Z</time>
      </trkpt>
      <trkpt lat="44.46043" lon="6.88411">
        <ele>2277</ele>
        <time>2022-08-16T10:29:13Z</time>
      </trkpt>
      <trkpt lat="44.46043" lon="6.88412">
        <ele>2277</ele>
        <time>2022-08-16T10:29:14Z</time>
      </trkpt>
      <trkpt lat="44.46042" lon="6.88412">
        <ele>2277.4</ele>
        <time>2022-08-16T10:29:15Z</time>
      </trkpt>
      <trkpt lat="44.46042" lon="6.88412">
        <ele>2277.6</ele>
        <time>2022-08-16T10:29:16Z</time>
      </trkpt>
      <trkpt lat="44.46041" lon="6.88413">
        <ele>2277.8</ele>
        <time>2022-08-16T10:29:17Z</time>
      </trkpt>
      <trkpt lat="44.4604" lon="6.88413">
        <ele>2278</ele>
        <time>2022-08-16T10:29:18Z</time>
      </trkpt>
      <trkpt lat="44.46039" lon="6.88413">
        <ele>2278.2</ele>
        <time>2022-08-16T10:29:19Z</time>
      </trkpt>
      <trkpt lat="44.46038" lon="6.88414">
        <ele>2278</ele>
        <time>2022-08-16T10:29:20Z</time>
      </trkpt>
      <trkpt lat="44.46037" lon="6.88414">
        <ele>2278.2</ele>
        <time>2022-08-16T10:29:21Z</time>
      </trkpt>
      <trkpt lat="44.46037" lon="6.88415">
        <ele>2278.4</ele>
        <time>2022-08-16T10:29:22Z</time>
      </trkpt>
      <trkpt lat="44.46036" lon="6.88416">
        <ele>2278.6</ele>
        <time>2022-08-16T10:29:23Z</time>
      </trkpt>
      <trkpt lat="44.46036" lon="6.88416">
        <ele>2278.6</ele>
        <time>2022-08-16T10:29:24Z</time>
      </trkpt>
      <trkpt lat="44.46035" lon="6.88417">
        <ele>2278.8</ele>
        <time>2022-08-16T10:29:25Z</time>
      </trkpt>
      <trkpt lat="44.46035" lon="6.88417">
        <ele>2279</ele>
        <time>2022-08-16T10:29:26Z</time>
      </trkpt>
      <trkpt lat="44.46034" lon="6.88418">
        <ele>2279.2</ele>
        <time>2022-08-16T10:29:27Z</time>
      </trkpt>
      <trkpt lat="44.46033" lon="6.88418">
        <ele>2279.2</ele>
        <time>2022-08-16T10:29:28Z</time>
      </trkpt>
      <trkpt lat="44.46033" lon="6.88419">
        <ele>2279.4</ele>
        <time>2022-08-16T10:29:29Z</time>
      </trkpt>
      <trkpt lat="44.46032" lon="6.88419">
        <ele>2279.6</ele>
        <time>2022-08-16T10:29:30Z</time>
      </trkpt>
      <trkpt lat="44.46031" lon="6.8842">
        <ele>2279.8</ele>
        <time>2022-08-16T10:29:31Z</time>
      </trkpt>
      <trkpt lat="44.46031" lon="6.8842">
        <ele>2279.8</ele>
        <time>2022-08-16T10:29:32Z</time>
      </trkpt>
      <trkpt lat="44.4603" lon="6.88421">
        <ele>2279.8</ele>
        <time>2022-08-16T10:29:33Z</time>
      </trkpt>
      <trkpt lat="44.4603" lon="6.88422">
        <ele>2279.8</ele>
        <time>2022-08-16T10:29:34Z</time>
      </trkpt>
      <trkpt lat="44.46029" lon="6.88422">
        <ele>2279.8</ele>
        <time>2022-08-16T10:29:35Z</time>
      </trkpt>
      <trkpt lat="44.46029" lon="6.88423">
        <ele>2279.8</ele>
        <time>2022-08-16T10:29:36Z</time>
      </trkpt>
      <trkpt lat="44.46028" lon="6.88424">
        <ele>2280</ele>
        <time>2022-08-16T10:29:37Z</time>
      </trkpt>
      <trkpt lat="44.46028" lon="6.88424">
        <ele>2280</ele>
        <time>2022-08-16T10:29:38Z</time>
      </trkpt>
      <trkpt lat="44.46027" lon="6.88424">
        <ele>2280.4</ele>
        <time>2022-08-16T10:29:39Z</time>
      </trkpt>
      <trkpt lat="44.46026" lon="6.88424">
        <ele>2280.6</ele>
        <time>2022-08-16T10:29:40Z</time>
      </trkpt>
      <trkpt lat="44.46025" lon="6.88424">
        <ele>2281</ele>
        <time>2022-08-16T10:29:41Z</time>
      </trkpt>
      <trkpt lat="44.46024" lon="6.88425">
        <ele>2281.2</ele>
        <time>2022-08-16T10:29:42Z</time>
      </trkpt>
      <trkpt lat="44.46023" lon="6.88425">
        <ele>2281.6</ele>
        <time>2022-08-16T10:29:43Z</time>
      </trkpt>
      <trkpt lat="44.46023" lon="6.88425">
        <ele>2281.8</ele>
        <time>2022-08-16T10:29:44Z</time>
      </trkpt>
      <trkpt lat="44.46022" lon="6.88426">
        <ele>2282</ele>
        <time>2022-08-16T10:29:45Z</time>
      </trkpt>
      <trkpt lat="44.46021" lon="6.88426">
        <ele>2282.2</ele>
        <time>2022-08-16T10:29:46Z</time>
      </trkpt>
      <trkpt lat="44.4602" lon="6.88425">
        <ele>2282.4</ele>
        <time>2022-08-16T10:29:47Z</time>
      </trkpt>
      <trkpt lat="44.4602" lon="6.88424">
        <ele>2282.8</ele>
        <time>2022-08-16T10:29:48Z</time>
      </trkpt>
      <trkpt lat="44.46019" lon="6.88424">
        <ele>2282.8</ele>
        <time>2022-08-16T10:29:49Z</time>
      </trkpt>
      <trkpt lat="44.46018" lon="6.88424">
        <ele>2283</ele>
        <time>2022-08-16T10:29:50Z</time>
      </trkpt>
      <trkpt lat="44.46017" lon="6.88424">
        <ele>2283.2</ele>
        <time>2022-08-16T10:29:51Z</time>
      </trkpt>
      <trkpt lat="44.46016" lon="6.88424">
        <ele>2283</ele>
        <time>2022-08-16T10:29:52Z</time>
      </trkpt>
      <trkpt lat="44.46015" lon="6.88425">
        <ele>2283.2</ele>
        <time>2022-08-16T10:29:53Z</time>
      </trkpt>
      <trkpt lat="44.46014" lon="6.88425">
        <ele>2283.4</ele>
        <time>2022-08-16T10:29:54Z</time>
      </trkpt>
      <trkpt lat="44.46013" lon="6.88426">
        <ele>2283.6</ele>
        <time>2022-08-16T10:29:55Z</time>
      </trkpt>
      <trkpt lat="44.46012" lon="6.88426">
        <ele>2283.6</ele>
        <time>2022-08-16T10:29:56Z</time>
      </trkpt>
      <trkpt lat="44.46011" lon="6.88426">
        <ele>2283.6</ele>
        <time>2022-08-16T10:29:57Z</time>
      </trkpt>
      <trkpt lat="44.4601" lon="6.88427">
        <ele>2283.8</ele>
        <time>2022-08-16T10:29:58Z</time>
      </trkpt>
      <trkpt lat="44.4601" lon="6.88427">
        <ele>2284</ele>
        <time>2022-08-16T10:29:59Z</time>
      </trkpt>
      <trkpt lat="44.46009" lon="6.88428">
        <ele>2284.2</ele>
        <time>2022-08-16T10:30:00Z</time>
      </trkpt>
      <trkpt lat="44.46008" lon="6.88429">
        <ele>2284.6</ele>
        <time>2022-08-16T10:30:01Z</time>
      </trkpt>
      <trkpt lat="44.46007" lon="6.8843">
        <ele>2284.8</ele>
        <time>2022-08-16T10:30:02Z</time>
      </trkpt>
      <trkpt lat="44.46007" lon="6.88431">
        <ele>2285</ele>
        <time>2022-08-16T10:30:03Z</time>
      </trkpt>
      <trkpt lat="44.46006" lon="6.88432">
        <ele>2285.2</ele>
        <time>2022-08-16T10:30:04Z</time>
      </trkpt>
      <trkpt lat="44.46006" lon="6.88433">
        <ele>2285.4</ele>
        <time>2022-08-16T10:30:05Z</time>
      </trkpt>
      <trkpt lat="44.46005" lon="6.88434">
        <ele>2285.6</ele>
        <time>2022-08-16T10:30:06Z</time>
      </trkpt>
      <trkpt lat="44.46005" lon="6.88435">
        <ele>2285.8</ele>
        <time>2022-08-16T10:30:07Z</time>
      </trkpt>
      <trkpt lat="44.46005" lon="6.88435">
        <ele>2286</ele>
        <time>2022-08-16T10:30:08Z</time>
      </trkpt>
      <trkpt lat="44.46004" lon="6.88436">
        <ele>2286.2</ele>
        <time>2022-08-16T10:30:09Z</time>
      </trkpt>
      <trkpt lat="44.46004" lon="6.88436">
        <ele>2286.4</ele>
        <time>2022-08-16T10:30:10Z</time>
      </trkpt>
      <trkpt lat="44.46003" lon="6.88437">
        <ele>2286.8</ele>
        <time>2022-08-16T10:30:11Z</time>
      </trkpt>
      <trkpt lat="44.46002" lon="6.88438">
        <ele>2286.8</ele>
        <time>2022-08-16T10:30:12Z</time>
      </trkpt>
      <trkpt lat="44.46001" lon="6.88439">
        <ele>2287</ele>
        <time>2022-08-16T10:30:13Z</time>
      </trkpt>
      <trkpt lat="44.46" lon="6.8844">
        <ele>2287</ele>
        <time>2022-08-16T10:30:14Z</time>
      </trkpt>
      <trkpt lat="44.45998" lon="6.8844">
        <ele>2287.2</ele>
        <time>2022-08-16T10:30:15Z</time>
      </trkpt>
      <trkpt lat="44.45997" lon="6.88441">
        <ele>2287.2</ele>
        <time>2022-08-16T10:30:16Z</time>
      </trkpt>
      <trkpt lat="44.45996" lon="6.88442">
        <ele>2287.2</ele>
        <time>2022-08-16T10:30:17Z</time>
      </trkpt>
      <trkpt lat="44.45994" lon="6.88442">
        <ele>2287.2</ele>
        <time>2022-08-16T10:30:18Z</time>
      </trkpt>
      <trkpt lat="44.45993" lon="6.88443">
        <ele>2287.4</ele>
        <time>2022-08-16T10:30:19Z</time>
      </trkpt>
      <trkpt lat="44.45992" lon="6.88444">
        <ele>2287.4</ele>
        <time>2022-08-16T10:30:20Z</time>
      </trkpt>
      <trkpt lat="44.45991" lon="6.88445">
        <ele>2287.6</ele>
        <time>2022-08-16T10:30:21Z</time>
      </trkpt>
      <trkpt lat="44.45989" lon="6.88446">
        <ele>2287.4</ele>
        <time>2022-08-16T10:30:22Z</time>
      </trkpt>
      <trkpt lat="44.45988" lon="6.88447">
        <ele>2287.6</ele>
        <time>2022-08-16T10:30:23Z</time>
      </trkpt>
      <trkpt lat="44.45987" lon="6.88448">
        <ele>2287.6</ele>
        <time>2022-08-16T10:30:24Z</time>
      </trkpt>
      <trkpt lat="44.45984" lon="6.88449">
        <ele>2287.6</ele>
        <time>2022-08-16T10:30:26Z</time>
      </trkpt>
      <trkpt lat="44.45983" lon="6.8845">
        <ele>2287.8</ele>
        <time>2022-08-16T10:30:27Z</time>
      </trkpt>
      <trkpt lat="44.45982" lon="6.8845">
        <ele>2287.8</ele>
        <time>2022-08-16T10:30:28Z</time>
      </trkpt>
      <trkpt lat="44.4598" lon="6.88451">
        <ele>2287.8</ele>
        <time>2022-08-16T10:30:29Z</time>
      </trkpt>
      <trkpt lat="44.45979" lon="6.88451">
        <ele>2288.2</ele>
        <time>2022-08-16T10:30:30Z</time>
      </trkpt>
      <trkpt lat="44.45978" lon="6.88452">
        <ele>2288.2</ele>
        <time>2022-08-16T10:30:31Z</time>
      </trkpt>
      <trkpt lat="44.45976" lon="6.88452">
        <ele>2288.4</ele>
        <time>2022-08-16T10:30:32Z</time>
      </trkpt>
      <trkpt lat="44.45975" lon="6.88451">
        <ele>2288.4</ele>
        <time>2022-08-16T10:30:33Z</time>
      </trkpt>
      <trkpt lat="44.45974" lon="6.88452">
        <ele>2288.8</ele>
        <time>2022-08-16T10:30:34Z</time>
      </trkpt>
      <trkpt lat="44.45974" lon="6.88452">
        <ele>2289.2</ele>
        <time>2022-08-16T10:30:36Z</time>
      </trkpt>
      <trkpt lat="44.45973" lon="6.88452">
        <ele>2290</ele>
        <time>2022-08-16T10:30:39Z</time>
      </trkpt>
      <trkpt lat="44.45972" lon="6.88452">
        <ele>2290</ele>
        <time>2022-08-16T10:30:40Z</time>
      </trkpt>
      <trkpt lat="44.45971" lon="6.88452">
        <ele>2290.2</ele>
        <time>2022-08-16T10:30:41Z</time>
      </trkpt>
      <trkpt lat="44.45971" lon="6.88452">
        <ele>2290.6</ele>
        <time>2022-08-16T10:30:42Z</time>
      </trkpt>
      <trkpt lat="44.4597" lon="6.88453">
        <ele>2291</ele>
        <time>2022-08-16T10:30:43Z</time>
      </trkpt>
      <trkpt lat="44.45969" lon="6.88453">
        <ele>2291.4</ele>
        <time>2022-08-16T10:30:44Z</time>
      </trkpt>
      <trkpt lat="44.45969" lon="6.88454">
        <ele>2291.6</ele>
        <time>2022-08-16T10:30:45Z</time>
      </trkpt>
      <trkpt lat="44.45968" lon="6.88454">
        <ele>2291.8</ele>
        <time>2022-08-16T10:30:46Z</time>
      </trkpt>
      <trkpt lat="44.45967" lon="6.88455">
        <ele>2291.8</ele>
        <time>2022-08-16T10:30:47Z</time>
      </trkpt>
      <trkpt lat="44.45967" lon="6.88455">
        <ele>2292</ele>
        <time>2022-08-16T10:30:48Z</time>
      </trkpt>
      <trkpt lat="44.45966" lon="6.88456">
        <ele>2292</ele>
        <time>2022-08-16T10:30:49Z</time>
      </trkpt>
      <trkpt lat="44.45966" lon="6.88457">
        <ele>2292.2</ele>
        <time>2022-08-16T10:30:50Z</time>
      </trkpt>
      <trkpt lat="44.45965" lon="6.88458">
        <ele>2292</ele>
        <time>2022-08-16T10:30:51Z</time>
      </trkpt>
      <trkpt lat="44.45965" lon="6.88458">
        <ele>2292</ele>
        <time>2022-08-16T10:30:52Z</time>
      </trkpt>
      <trkpt lat="44.45965" lon="6.88459">
        <ele>2292.2</ele>
        <time>2022-08-16T10:30:53Z</time>
      </trkpt>
      <trkpt lat="44.45965" lon="6.8846">
        <ele>2292.4</ele>
        <time>2022-08-16T10:30:54Z</time>
      </trkpt>
      <trkpt lat="44.45965" lon="6.8846">
        <ele>2292.4</ele>
        <time>2022-08-16T10:30:55Z</time>
      </trkpt>
      <trkpt lat="44.45964" lon="6.88462">
        <ele>2293</ele>
        <time>2022-08-16T10:30:58Z</time>
      </trkpt>
      <trkpt lat="44.45964" lon="6.88462">
        <ele>2293.2</ele>
        <time>2022-08-16T10:30:59Z</time>
      </trkpt>
      <trkpt lat="44.45963" lon="6.88464">
        <ele>2294.2</ele>
        <time>2022-08-16T10:31:03Z</time>
      </trkpt>
      <trkpt lat="44.45963" lon="6.88464">
        <ele>2294.8</ele>
        <time>2022-08-16T10:31:04Z</time>
      </trkpt>
      <trkpt lat="44.45962" lon="6.88465">
        <ele>2295</ele>
        <time>2022-08-16T10:31:05Z</time>
      </trkpt>
      <trkpt lat="44.45962" lon="6.88466">
        <ele>2295</ele>
        <time>2022-08-16T10:31:06Z</time>
      </trkpt>
      <trkpt lat="44.45961" lon="6.88466">
        <ele>2295.2</ele>
        <time>2022-08-16T10:31:07Z</time>
      </trkpt>
      <trkpt lat="44.45961" lon="6.88467">
        <ele>2295.2</ele>
        <time>2022-08-16T10:31:08Z</time>
      </trkpt>
      <trkpt lat="44.4596" lon="6.88467">
        <ele>2295.4</ele>
        <time>2022-08-16T10:31:09Z</time>
      </trkpt>
      <trkpt lat="44.45959" lon="6.88468">
        <ele>2295.8</ele>
        <time>2022-08-16T10:31:10Z</time>
      </trkpt>
      <trkpt lat="44.45958" lon="6.88469">
        <ele>2296.2</ele>
        <time>2022-08-16T10:31:11Z</time>
      </trkpt>
      <trkpt lat="44.45957" lon="6.88469">
        <ele>2296.4</ele>
        <time>2022-08-16T10:31:12Z</time>
      </trkpt>
      <trkpt lat="44.45957" lon="6.8847">
        <ele>2296.8</ele>
        <time>2022-08-16T10:31:13Z</time>
      </trkpt>
      <trkpt lat="44.45956" lon="6.8847">
        <ele>2296.8</ele>
        <time>2022-08-16T10:31:14Z</time>
      </trkpt>
      <trkpt lat="44.45955" lon="6.88471">
        <ele>2297.2</ele>
        <time>2022-08-16T10:31:15Z</time>
      </trkpt>
      <trkpt lat="44.45955" lon="6.88472">
        <ele>2297.4</ele>
        <time>2022-08-16T10:31:16Z</time>
      </trkpt>
      <trkpt lat="44.45954" lon="6.88473">
        <ele>2297.4</ele>
        <time>2022-08-16T10:31:17Z</time>
      </trkpt>
      <trkpt lat="44.45954" lon="6.88474">
        <ele>2297.8</ele>
        <time>2022-08-16T10:31:18Z</time>
      </trkpt>
      <trkpt lat="44.45954" lon="6.88475">
        <ele>2298.2</ele>
        <time>2022-08-16T10:31:19Z</time>
      </trkpt>
      <trkpt lat="44.45953" lon="6.88476">
        <ele>2298.4</ele>
        <time>2022-08-16T10:31:20Z</time>
      </trkpt>
      <trkpt lat="44.45953" lon="6.88477">
        <ele>2298.6</ele>
        <time>2022-08-16T10:31:22Z</time>
      </trkpt>
      <trkpt lat="44.45953" lon="6.88477">
        <ele>2298.6</ele>
        <time>2022-08-16T10:31:23Z</time>
      </trkpt>
      <trkpt lat="44.45953" lon="6.88478">
        <ele>2298.8</ele>
        <time>2022-08-16T10:31:25Z</time>
      </trkpt>
      <trkpt lat="44.45953" lon="6.8848">
        <ele>2298.6</ele>
        <time>2022-08-16T10:31:26Z</time>
      </trkpt>
      <trkpt lat="44.45952" lon="6.88481">
        <ele>2298.6</ele>
        <time>2022-08-16T10:31:27Z</time>
      </trkpt>
      <trkpt lat="44.45952" lon="6.88483">
        <ele>2298.8</ele>
        <time>2022-08-16T10:31:28Z</time>
      </trkpt>
      <trkpt lat="44.45951" lon="6.88484">
        <ele>2298.8</ele>
        <time>2022-08-16T10:31:29Z</time>
      </trkpt>
      <trkpt lat="44.4595" lon="6.88485">
        <ele>2298.8</ele>
        <time>2022-08-16T10:31:30Z</time>
      </trkpt>
      <trkpt lat="44.4595" lon="6.88487">
        <ele>2299</ele>
        <time>2022-08-16T10:31:31Z</time>
      </trkpt>
      <trkpt lat="44.45948" lon="6.88489">
        <ele>2299</ele>
        <time>2022-08-16T10:31:33Z</time>
      </trkpt>
      <trkpt lat="44.45946" lon="6.88492">
        <ele>2299</ele>
        <time>2022-08-16T10:31:35Z</time>
      </trkpt>
      <trkpt lat="44.45945" lon="6.88493">
        <ele>2299.2</ele>
        <time>2022-08-16T10:31:36Z</time>
      </trkpt>
      <trkpt lat="44.45945" lon="6.88495">
        <ele>2299.2</ele>
        <time>2022-08-16T10:31:37Z</time>
      </trkpt>
      <trkpt lat="44.45944" lon="6.88496">
        <ele>2299.2</ele>
        <time>2022-08-16T10:31:38Z</time>
      </trkpt>
      <trkpt lat="44.45943" lon="6.88498">
        <ele>2299.4</ele>
        <time>2022-08-16T10:31:39Z</time>
      </trkpt>
      <trkpt lat="44.45943" lon="6.88499">
        <ele>2299.6</ele>
        <time>2022-08-16T10:31:40Z</time>
      </trkpt>
      <trkpt lat="44.45942" lon="6.885">
        <ele>2300</ele>
        <time>2022-08-16T10:31:41Z</time>
      </trkpt>
      <trkpt lat="44.45941" lon="6.885">
        <ele>2300</ele>
        <time>2022-08-16T10:31:42Z</time>
      </trkpt>
      <trkpt lat="44.4594" lon="6.88501">
        <ele>2300.2</ele>
        <time>2022-08-16T10:31:43Z</time>
      </trkpt>
      <trkpt lat="44.45939" lon="6.88502">
        <ele>2300.4</ele>
        <time>2022-08-16T10:31:44Z</time>
      </trkpt>
      <trkpt lat="44.45939" lon="6.88504">
        <ele>2300.6</ele>
        <time>2022-08-16T10:31:45Z</time>
      </trkpt>
      <trkpt lat="44.45938" lon="6.88505">
        <ele>2300.6</ele>
        <time>2022-08-16T10:31:46Z</time>
      </trkpt>
      <trkpt lat="44.45937" lon="6.88506">
        <ele>2300.8</ele>
        <time>2022-08-16T10:31:47Z</time>
      </trkpt>
      <trkpt lat="44.45936" lon="6.88507">
        <ele>2300.8</ele>
        <time>2022-08-16T10:31:48Z</time>
      </trkpt>
      <trkpt lat="44.45935" lon="6.88508">
        <ele>2300.8</ele>
        <time>2022-08-16T10:31:49Z</time>
      </trkpt>
      <trkpt lat="44.45934" lon="6.88509">
        <ele>2301</ele>
        <time>2022-08-16T10:31:50Z</time>
      </trkpt>
      <trkpt lat="44.45933" lon="6.88511">
        <ele>2301.4</ele>
        <time>2022-08-16T10:31:51Z</time>
      </trkpt>
      <trkpt lat="44.45932" lon="6.88512">
        <ele>2301.6</ele>
        <time>2022-08-16T10:31:52Z</time>
      </trkpt>
      <trkpt lat="44.4593" lon="6.88514">
        <ele>2301.6</ele>
        <time>2022-08-16T10:31:53Z</time>
      </trkpt>
      <trkpt lat="44.4593" lon="6.88515">
        <ele>2302</ele>
        <time>2022-08-16T10:31:54Z</time>
      </trkpt>
      <trkpt lat="44.45929" lon="6.88517">
        <ele>2302</ele>
        <time>2022-08-16T10:31:55Z</time>
      </trkpt>
      <trkpt lat="44.45928" lon="6.88518">
        <ele>2302</ele>
        <time>2022-08-16T10:31:56Z</time>
      </trkpt>
      <trkpt lat="44.45928" lon="6.8852">
        <ele>2302.2</ele>
        <time>2022-08-16T10:31:57Z</time>
      </trkpt>
      <trkpt lat="44.45927" lon="6.88522">
        <ele>2302.4</ele>
        <time>2022-08-16T10:31:58Z</time>
      </trkpt>
      <trkpt lat="44.45927" lon="6.88524">
        <ele>2302.4</ele>
        <time>2022-08-16T10:31:59Z</time>
      </trkpt>
      <trkpt lat="44.45926" lon="6.88526">
        <ele>2302.6</ele>
        <time>2022-08-16T10:32:00Z</time>
      </trkpt>
      <trkpt lat="44.45926" lon="6.88527">
        <ele>2302.6</ele>
        <time>2022-08-16T10:32:01Z</time>
      </trkpt>
      <trkpt lat="44.45925" lon="6.88529">
        <ele>2302.8</ele>
        <time>2022-08-16T10:32:02Z</time>
      </trkpt>
      <trkpt lat="44.45924" lon="6.88531">
        <ele>2303</ele>
        <time>2022-08-16T10:32:03Z</time>
      </trkpt>
      <trkpt lat="44.45924" lon="6.88533">
        <ele>2303</ele>
        <time>2022-08-16T10:32:04Z</time>
      </trkpt>
      <trkpt lat="44.45923" lon="6.88535">
        <ele>2303</ele>
        <time>2022-08-16T10:32:05Z</time>
      </trkpt>
      <trkpt lat="44.45922" lon="6.88537">
        <ele>2303</ele>
        <time>2022-08-16T10:32:06Z</time>
      </trkpt>
      <trkpt lat="44.45922" lon="6.88538">
        <ele>2303.4</ele>
        <time>2022-08-16T10:32:07Z</time>
      </trkpt>
      <trkpt lat="44.45921" lon="6.8854">
        <ele>2303.4</ele>
        <time>2022-08-16T10:32:08Z</time>
      </trkpt>
      <trkpt lat="44.4592" lon="6.88542">
        <ele>2303.6</ele>
        <time>2022-08-16T10:32:09Z</time>
      </trkpt>
      <trkpt lat="44.45918" lon="6.88544">
        <ele>2303.8</ele>
        <time>2022-08-16T10:32:10Z</time>
      </trkpt>
      <trkpt lat="44.45916" lon="6.88548">
        <ele>2303.8</ele>
        <time>2022-08-16T10:32:12Z</time>
      </trkpt>
      <trkpt lat="44.45914" lon="6.88549">
        <ele>2303.8</ele>
        <time>2022-08-16T10:32:13Z</time>
      </trkpt>
      <trkpt lat="44.45912" lon="6.88549">
        <ele>2303.8</ele>
        <time>2022-08-16T10:32:14Z</time>
      </trkpt>
      <trkpt lat="44.45911" lon="6.88549">
        <ele>2303.8</ele>
        <time>2022-08-16T10:32:15Z</time>
      </trkpt>
      <trkpt lat="44.45909" lon="6.88548">
        <ele>2303.8</ele>
        <time>2022-08-16T10:32:16Z</time>
      </trkpt>
      <trkpt lat="44.45908" lon="6.88548">
        <ele>2303.8</ele>
        <time>2022-08-16T10:32:17Z</time>
      </trkpt>
      <trkpt lat="44.45906" lon="6.88548">
        <ele>2303.8</ele>
        <time>2022-08-16T10:32:19Z</time>
      </trkpt>
      <trkpt lat="44.45904" lon="6.88549">
        <ele>2303.8</ele>
        <time>2022-08-16T10:32:20Z</time>
      </trkpt>
      <trkpt lat="44.45903" lon="6.88549">
        <ele>2303.8</ele>
        <time>2022-08-16T10:32:21Z</time>
      </trkpt>
      <trkpt lat="44.45898" lon="6.88552">
        <ele>2304</ele>
        <time>2022-08-16T10:32:26Z</time>
      </trkpt>
      <trkpt lat="44.45895" lon="6.88554">
        <ele>2304.2</ele>
        <time>2022-08-16T10:32:28Z</time>
      </trkpt>
      <trkpt lat="44.45893" lon="6.88556">
        <ele>2304.6</ele>
        <time>2022-08-16T10:32:30Z</time>
      </trkpt>
      <trkpt lat="44.45892" lon="6.88557">
        <ele>2304.6</ele>
        <time>2022-08-16T10:32:31Z</time>
      </trkpt>
      <trkpt lat="44.4589" lon="6.88558">
        <ele>2304.8</ele>
        <time>2022-08-16T10:32:32Z</time>
      </trkpt>
      <trkpt lat="44.45889" lon="6.88559">
        <ele>2305</ele>
        <time>2022-08-16T10:32:33Z</time>
      </trkpt>
      <trkpt lat="44.45888" lon="6.88559">
        <ele>2305</ele>
        <time>2022-08-16T10:32:34Z</time>
      </trkpt>
      <trkpt lat="44.45886" lon="6.8856">
        <ele>2305.4</ele>
        <time>2022-08-16T10:32:35Z</time>
      </trkpt>
      <trkpt lat="44.45885" lon="6.88561">
        <ele>2305.6</ele>
        <time>2022-08-16T10:32:36Z</time>
      </trkpt>
      <trkpt lat="44.45883" lon="6.88561">
        <ele>2305.8</ele>
        <time>2022-08-16T10:32:37Z</time>
      </trkpt>
      <trkpt lat="44.45882" lon="6.88562">
        <ele>2306</ele>
        <time>2022-08-16T10:32:38Z</time>
      </trkpt>
      <trkpt lat="44.4588" lon="6.88563">
        <ele>2306</ele>
        <time>2022-08-16T10:32:39Z</time>
      </trkpt>
      <trkpt lat="44.45878" lon="6.88563">
        <ele>2306.2</ele>
        <time>2022-08-16T10:32:40Z</time>
      </trkpt>
      <trkpt lat="44.45877" lon="6.88564">
        <ele>2306.4</ele>
        <time>2022-08-16T10:32:41Z</time>
      </trkpt>
      <trkpt lat="44.45875" lon="6.88564">
        <ele>2306.6</ele>
        <time>2022-08-16T10:32:42Z</time>
      </trkpt>
      <trkpt lat="44.45873" lon="6.88565">
        <ele>2306.8</ele>
        <time>2022-08-16T10:32:43Z</time>
      </trkpt>
      <trkpt lat="44.45872" lon="6.88565">
        <ele>2306.8</ele>
        <time>2022-08-16T10:32:44Z</time>
      </trkpt>
      <trkpt lat="44.45871" lon="6.88567">
        <ele>2306.8</ele>
        <time>2022-08-16T10:32:45Z</time>
      </trkpt>
      <trkpt lat="44.45869" lon="6.88568">
        <ele>2306.8</ele>
        <time>2022-08-16T10:32:46Z</time>
      </trkpt>
      <trkpt lat="44.45868" lon="6.8857">
        <ele>2307</ele>
        <time>2022-08-16T10:32:47Z</time>
      </trkpt>
      <trkpt lat="44.45864" lon="6.88573">
        <ele>2307</ele>
        <time>2022-08-16T10:32:49Z</time>
      </trkpt>
      <trkpt lat="44.45862" lon="6.88574">
        <ele>2306.8</ele>
        <time>2022-08-16T10:32:50Z</time>
      </trkpt>
      <trkpt lat="44.45861" lon="6.88575">
        <ele>2306.8</ele>
        <time>2022-08-16T10:32:51Z</time>
      </trkpt>
      <trkpt lat="44.4586" lon="6.88576">
        <ele>2306.8</ele>
        <time>2022-08-16T10:32:52Z</time>
      </trkpt>
      <trkpt lat="44.45856" lon="6.88578">
        <ele>2306.8</ele>
        <time>2022-08-16T10:32:54Z</time>
      </trkpt>
      <trkpt lat="44.45855" lon="6.88579">
        <ele>2306.6</ele>
        <time>2022-08-16T10:32:55Z</time>
      </trkpt>
      <trkpt lat="44.45853" lon="6.88579">
        <ele>2306.6</ele>
        <time>2022-08-16T10:32:56Z</time>
      </trkpt>
      <trkpt lat="44.45852" lon="6.88578">
        <ele>2306.6</ele>
        <time>2022-08-16T10:32:57Z</time>
      </trkpt>
      <trkpt lat="44.45851" lon="6.88578">
        <ele>2306.6</ele>
        <time>2022-08-16T10:32:58Z</time>
      </trkpt>
      <trkpt lat="44.4585" lon="6.88579">
        <ele>2306.6</ele>
        <time>2022-08-16T10:32:59Z</time>
      </trkpt>
      <trkpt lat="44.45849" lon="6.8858">
        <ele>2306.6</ele>
        <time>2022-08-16T10:33:00Z</time>
      </trkpt>
      <trkpt lat="44.45848" lon="6.88581">
        <ele>2306.4</ele>
        <time>2022-08-16T10:33:01Z</time>
      </trkpt>
      <trkpt lat="44.45846" lon="6.88584">
        <ele>2306.6</ele>
        <time>2022-08-16T10:33:03Z</time>
      </trkpt>
      <trkpt lat="44.45843" lon="6.88586">
        <ele>2306.8</ele>
        <time>2022-08-16T10:33:05Z</time>
      </trkpt>
      <trkpt lat="44.4584" lon="6.88589">
        <ele>2307</ele>
        <time>2022-08-16T10:33:07Z</time>
      </trkpt>
      <trkpt lat="44.45839" lon="6.88591">
        <ele>2307.2</ele>
        <time>2022-08-16T10:33:08Z</time>
      </trkpt>
      <trkpt lat="44.45837" lon="6.88591">
        <ele>2307.4</ele>
        <time>2022-08-16T10:33:09Z</time>
      </trkpt>
      <trkpt lat="44.45836" lon="6.88592">
        <ele>2307.4</ele>
        <time>2022-08-16T10:33:10Z</time>
      </trkpt>
      <trkpt lat="44.45827" lon="6.88604">
        <ele>2307.6</ele>
        <time>2022-08-16T10:33:16Z</time>
      </trkpt>
      <trkpt lat="44.45826" lon="6.88607">
        <ele>2307.8</ele>
        <time>2022-08-16T10:33:17Z</time>
      </trkpt>
      <trkpt lat="44.45825" lon="6.88609">
        <ele>2307.8</ele>
        <time>2022-08-16T10:33:18Z</time>
      </trkpt>
      <trkpt lat="44.45823" lon="6.8861">
        <ele>2307.8</ele>
        <time>2022-08-16T10:33:19Z</time>
      </trkpt>
      <trkpt lat="44.45822" lon="6.88612">
        <ele>2308</ele>
        <time>2022-08-16T10:33:20Z</time>
      </trkpt>
      <trkpt lat="44.45821" lon="6.88614">
        <ele>2308</ele>
        <time>2022-08-16T10:33:21Z</time>
      </trkpt>
      <trkpt lat="44.4582" lon="6.88616">
        <ele>2308</ele>
        <time>2022-08-16T10:33:22Z</time>
      </trkpt>
      <trkpt lat="44.45819" lon="6.88617">
        <ele>2308</ele>
        <time>2022-08-16T10:33:23Z</time>
      </trkpt>
      <trkpt lat="44.45817" lon="6.88623">
        <ele>2308</ele>
        <time>2022-08-16T10:33:26Z</time>
      </trkpt>
      <trkpt lat="44.45817" lon="6.88625">
        <ele>2308</ele>
        <time>2022-08-16T10:33:27Z</time>
      </trkpt>
      <trkpt lat="44.45816" lon="6.88627">
        <ele>2308.2</ele>
        <time>2022-08-16T10:33:28Z</time>
      </trkpt>
      <trkpt lat="44.45815" lon="6.88628">
        <ele>2308.2</ele>
        <time>2022-08-16T10:33:29Z</time>
      </trkpt>
      <trkpt lat="44.45813" lon="6.88634">
        <ele>2308.4</ele>
        <time>2022-08-16T10:33:32Z</time>
      </trkpt>
      <trkpt lat="44.45812" lon="6.88636">
        <ele>2308.4</ele>
        <time>2022-08-16T10:33:33Z</time>
      </trkpt>
      <trkpt lat="44.45811" lon="6.88642">
        <ele>2308.4</ele>
        <time>2022-08-16T10:33:36Z</time>
      </trkpt>
      <trkpt lat="44.4581" lon="6.88646">
        <ele>2308.6</ele>
        <time>2022-08-16T10:33:38Z</time>
      </trkpt>
      <trkpt lat="44.45809" lon="6.88648">
        <ele>2308.6</ele>
        <time>2022-08-16T10:33:39Z</time>
      </trkpt>
      <trkpt lat="44.45807" lon="6.88651">
        <ele>2308.6</ele>
        <time>2022-08-16T10:33:41Z</time>
      </trkpt>
      <trkpt lat="44.45806" lon="6.88652">
        <ele>2308.8</ele>
        <time>2022-08-16T10:33:42Z</time>
      </trkpt>
      <trkpt lat="44.45801" lon="6.88656">
        <ele>2308.8</ele>
        <time>2022-08-16T10:33:45Z</time>
      </trkpt>
      <trkpt lat="44.458" lon="6.88658">
        <ele>2308.8</ele>
        <time>2022-08-16T10:33:46Z</time>
      </trkpt>
      <trkpt lat="44.45799" lon="6.8866">
        <ele>2308.8</ele>
        <time>2022-08-16T10:33:47Z</time>
      </trkpt>
      <trkpt lat="44.45798" lon="6.88661">
        <ele>2309</ele>
        <time>2022-08-16T10:33:48Z</time>
      </trkpt>
      <trkpt lat="44.45796" lon="6.88662">
        <ele>2309</ele>
        <time>2022-08-16T10:33:49Z</time>
      </trkpt>
      <trkpt lat="44.45795" lon="6.88663">
        <ele>2309</ele>
        <time>2022-08-16T10:33:50Z</time>
      </trkpt>
      <trkpt lat="44.45795" lon="6.88664">
        <ele>2309</ele>
        <time>2022-08-16T10:33:51Z</time>
      </trkpt>
      <trkpt lat="44.45793" lon="6.88664">
        <ele>2309.2</ele>
        <time>2022-08-16T10:33:52Z</time>
      </trkpt>
      <trkpt lat="44.4579" lon="6.88667">
        <ele>2309.4</ele>
        <time>2022-08-16T10:33:55Z</time>
      </trkpt>
      <trkpt lat="44.45788" lon="6.88669">
        <ele>2309.4</ele>
        <time>2022-08-16T10:33:57Z</time>
      </trkpt>
      <trkpt lat="44.45787" lon="6.88669">
        <ele>2309.4</ele>
        <time>2022-08-16T10:33:58Z</time>
      </trkpt>
      <trkpt lat="44.45786" lon="6.8867">
        <ele>2309.6</ele>
        <time>2022-08-16T10:33:59Z</time>
      </trkpt>
      <trkpt lat="44.4578" lon="6.88676">
        <ele>2310</ele>
        <time>2022-08-16T10:34:04Z</time>
      </trkpt>
      <trkpt lat="44.4578" lon="6.88677">
        <ele>2310</ele>
        <time>2022-08-16T10:34:05Z</time>
      </trkpt>
      <trkpt lat="44.45779" lon="6.88678">
        <ele>2310.2</ele>
        <time>2022-08-16T10:34:06Z</time>
      </trkpt>
      <trkpt lat="44.45776" lon="6.88682">
        <ele>2310</ele>
        <time>2022-08-16T10:34:09Z</time>
      </trkpt>
      <trkpt lat="44.45775" lon="6.88683">
        <ele>2310.2</ele>
        <time>2022-08-16T10:34:10Z</time>
      </trkpt>
      <trkpt lat="44.45774" lon="6.88684">
        <ele>2310.4</ele>
        <time>2022-08-16T10:34:11Z</time>
      </trkpt>
      <trkpt lat="44.45772" lon="6.88687">
        <ele>2310.4</ele>
        <time>2022-08-16T10:34:13Z</time>
      </trkpt>
      <trkpt lat="44.45771" lon="6.88688">
        <ele>2310.4</ele>
        <time>2022-08-16T10:34:14Z</time>
      </trkpt>
      <trkpt lat="44.4577" lon="6.88689">
        <ele>2310.6</ele>
        <time>2022-08-16T10:34:15Z</time>
      </trkpt>
      <trkpt lat="44.45769" lon="6.8869">
        <ele>2310.6</ele>
        <time>2022-08-16T10:34:16Z</time>
      </trkpt>
      <trkpt lat="44.45768" lon="6.88691">
        <ele>2310.6</ele>
        <time>2022-08-16T10:34:17Z</time>
      </trkpt>
      <trkpt lat="44.45766" lon="6.88693">
        <ele>2310.6</ele>
        <time>2022-08-16T10:34:19Z</time>
      </trkpt>
      <trkpt lat="44.45765" lon="6.88695">
        <ele>2310.6</ele>
        <time>2022-08-16T10:34:20Z</time>
      </trkpt>
      <trkpt lat="44.45765" lon="6.88696">
        <ele>2310.8</ele>
        <time>2022-08-16T10:34:21Z</time>
      </trkpt>
      <trkpt lat="44.45764" lon="6.88697">
        <ele>2310.8</ele>
        <time>2022-08-16T10:34:22Z</time>
      </trkpt>
      <trkpt lat="44.45764" lon="6.88699">
        <ele>2311</ele>
        <time>2022-08-16T10:34:23Z</time>
      </trkpt>
      <trkpt lat="44.45762" lon="6.88701">
        <ele>2311.2</ele>
        <time>2022-08-16T10:34:25Z</time>
      </trkpt>
      <trkpt lat="44.45761" lon="6.88703">
        <ele>2311.4</ele>
        <time>2022-08-16T10:34:26Z</time>
      </trkpt>
      <trkpt lat="44.45761" lon="6.88704">
        <ele>2311.4</ele>
        <time>2022-08-16T10:34:27Z</time>
      </trkpt>
      <trkpt lat="44.4576" lon="6.88705">
        <ele>2311.4</ele>
        <time>2022-08-16T10:34:28Z</time>
      </trkpt>
      <trkpt lat="44.4576" lon="6.88706">
        <ele>2311.8</ele>
        <time>2022-08-16T10:34:29Z</time>
      </trkpt>
      <trkpt lat="44.45759" lon="6.88707">
        <ele>2311.8</ele>
        <time>2022-08-16T10:34:30Z</time>
      </trkpt>
      <trkpt lat="44.45758" lon="6.88708">
        <ele>2312.2</ele>
        <time>2022-08-16T10:34:31Z</time>
      </trkpt>
      <trkpt lat="44.45757" lon="6.88709">
        <ele>2312.2</ele>
        <time>2022-08-16T10:34:32Z</time>
      </trkpt>
      <trkpt lat="44.45756" lon="6.8871">
        <ele>2312.4</ele>
        <time>2022-08-16T10:34:33Z</time>
      </trkpt>
      <trkpt lat="44.45755" lon="6.88711">
        <ele>2312.4</ele>
        <time>2022-08-16T10:34:34Z</time>
      </trkpt>
      <trkpt lat="44.45754" lon="6.88712">
        <ele>2312.8</ele>
        <time>2022-08-16T10:34:35Z</time>
      </trkpt>
      <trkpt lat="44.45753" lon="6.88713">
        <ele>2313.2</ele>
        <time>2022-08-16T10:34:36Z</time>
      </trkpt>
      <trkpt lat="44.45752" lon="6.88714">
        <ele>2313.2</ele>
        <time>2022-08-16T10:34:37Z</time>
      </trkpt>
      <trkpt lat="44.45751" lon="6.88715">
        <ele>2313.6</ele>
        <time>2022-08-16T10:34:38Z</time>
      </trkpt>
      <trkpt lat="44.4575" lon="6.88716">
        <ele>2313.8</ele>
        <time>2022-08-16T10:34:39Z</time>
      </trkpt>
      <trkpt lat="44.4575" lon="6.88717">
        <ele>2314.2</ele>
        <time>2022-08-16T10:34:40Z</time>
      </trkpt>
      <trkpt lat="44.45749" lon="6.88719">
        <ele>2314.4</ele>
        <time>2022-08-16T10:34:41Z</time>
      </trkpt>
      <trkpt lat="44.45748" lon="6.8872">
        <ele>2314.4</ele>
        <time>2022-08-16T10:34:42Z</time>
      </trkpt>
      <trkpt lat="44.45748" lon="6.88721">
        <ele>2314.6</ele>
        <time>2022-08-16T10:34:43Z</time>
      </trkpt>
      <trkpt lat="44.45747" lon="6.88723">
        <ele>2314.8</ele>
        <time>2022-08-16T10:34:44Z</time>
      </trkpt>
      <trkpt lat="44.45747" lon="6.88724">
        <ele>2315</ele>
        <time>2022-08-16T10:34:45Z</time>
      </trkpt>
      <trkpt lat="44.45746" lon="6.88726">
        <ele>2315.2</ele>
        <time>2022-08-16T10:34:46Z</time>
      </trkpt>
      <trkpt lat="44.45746" lon="6.88727">
        <ele>2315.2</ele>
        <time>2022-08-16T10:34:47Z</time>
      </trkpt>
      <trkpt lat="44.45745" lon="6.88729">
        <ele>2315.2</ele>
        <time>2022-08-16T10:34:48Z</time>
      </trkpt>
      <trkpt lat="44.45744" lon="6.88731">
        <ele>2315.2</ele>
        <time>2022-08-16T10:34:49Z</time>
      </trkpt>
      <trkpt lat="44.45744" lon="6.88732">
        <ele>2315.4</ele>
        <time>2022-08-16T10:34:50Z</time>
      </trkpt>
      <trkpt lat="44.45743" lon="6.88734">
        <ele>2315.4</ele>
        <time>2022-08-16T10:34:51Z</time>
      </trkpt>
      <trkpt lat="44.45743" lon="6.88735">
        <ele>2315.6</ele>
        <time>2022-08-16T10:34:52Z</time>
      </trkpt>
      <trkpt lat="44.45742" lon="6.88737">
        <ele>2315.6</ele>
        <time>2022-08-16T10:34:53Z</time>
      </trkpt>
      <trkpt lat="44.45742" lon="6.88738">
        <ele>2315.6</ele>
        <time>2022-08-16T10:34:54Z</time>
      </trkpt>
      <trkpt lat="44.45741" lon="6.8874">
        <ele>2315.8</ele>
        <time>2022-08-16T10:34:55Z</time>
      </trkpt>
      <trkpt lat="44.45741" lon="6.88741">
        <ele>2315.8</ele>
        <time>2022-08-16T10:34:56Z</time>
      </trkpt>
      <trkpt lat="44.4574" lon="6.88743">
        <ele>2315.8</ele>
        <time>2022-08-16T10:34:57Z</time>
      </trkpt>
      <trkpt lat="44.4574" lon="6.88744">
        <ele>2315.8</ele>
        <time>2022-08-16T10:34:58Z</time>
      </trkpt>
      <trkpt lat="44.4574" lon="6.88746">
        <ele>2316</ele>
        <time>2022-08-16T10:34:59Z</time>
      </trkpt>
      <trkpt lat="44.45739" lon="6.88747">
        <ele>2316</ele>
        <time>2022-08-16T10:35:00Z</time>
      </trkpt>
      <trkpt lat="44.45739" lon="6.88749">
        <ele>2316.2</ele>
        <time>2022-08-16T10:35:01Z</time>
      </trkpt>
      <trkpt lat="44.45738" lon="6.8875">
        <ele>2316.4</ele>
        <time>2022-08-16T10:35:02Z</time>
      </trkpt>
      <trkpt lat="44.45738" lon="6.88752">
        <ele>2316.4</ele>
        <time>2022-08-16T10:35:03Z</time>
      </trkpt>
      <trkpt lat="44.45737" lon="6.88753">
        <ele>2316.4</ele>
        <time>2022-08-16T10:35:04Z</time>
      </trkpt>
      <trkpt lat="44.45736" lon="6.88755">
        <ele>2316.8</ele>
        <time>2022-08-16T10:35:05Z</time>
      </trkpt>
      <trkpt lat="44.45735" lon="6.88756">
        <ele>2316.6</ele>
        <time>2022-08-16T10:35:06Z</time>
      </trkpt>
      <trkpt lat="44.45735" lon="6.88757">
        <ele>2317</ele>
        <time>2022-08-16T10:35:07Z</time>
      </trkpt>
      <trkpt lat="44.45734" lon="6.88759">
        <ele>2317.2</ele>
        <time>2022-08-16T10:35:08Z</time>
      </trkpt>
      <trkpt lat="44.45734" lon="6.88761">
        <ele>2317.4</ele>
        <time>2022-08-16T10:35:09Z</time>
      </trkpt>
      <trkpt lat="44.4573" lon="6.88767">
        <ele>2317.4</ele>
        <time>2022-08-16T10:35:13Z</time>
      </trkpt>
      <trkpt lat="44.45729" lon="6.88768">
        <ele>2317.4</ele>
        <time>2022-08-16T10:35:14Z</time>
      </trkpt>
      <trkpt lat="44.45728" lon="6.88772">
        <ele>2317.6</ele>
        <time>2022-08-16T10:35:16Z</time>
      </trkpt>
      <trkpt lat="44.45726" lon="6.88779">
        <ele>2318</ele>
        <time>2022-08-16T10:35:19Z</time>
      </trkpt>
      <trkpt lat="44.45725" lon="6.88781">
        <ele>2318</ele>
        <time>2022-08-16T10:35:20Z</time>
      </trkpt>
      <trkpt lat="44.45724" lon="6.88783">
        <ele>2318.2</ele>
        <time>2022-08-16T10:35:21Z</time>
      </trkpt>
      <trkpt lat="44.45723" lon="6.88787">
        <ele>2318.2</ele>
        <time>2022-08-16T10:35:23Z</time>
      </trkpt>
      <trkpt lat="44.45722" lon="6.88795">
        <ele>2318.4</ele>
        <time>2022-08-16T10:35:26Z</time>
      </trkpt>
      <trkpt lat="44.45717" lon="6.88809">
        <ele>2318.4</ele>
        <time>2022-08-16T10:35:32Z</time>
      </trkpt>
      <trkpt lat="44.45716" lon="6.88811">
        <ele>2318.4</ele>
        <time>2022-08-16T10:35:33Z</time>
      </trkpt>
      <trkpt lat="44.45715" lon="6.88813">
        <ele>2318.6</ele>
        <time>2022-08-16T10:35:34Z</time>
      </trkpt>
      <trkpt lat="44.45713" lon="6.88818">
        <ele>2318.6</ele>
        <time>2022-08-16T10:35:36Z</time>
      </trkpt>
      <trkpt lat="44.45712" lon="6.8882">
        <ele>2318.6</ele>
        <time>2022-08-16T10:35:37Z</time>
      </trkpt>
      <trkpt lat="44.45711" lon="6.88824">
        <ele>2318.6</ele>
        <time>2022-08-16T10:35:39Z</time>
      </trkpt>
      <trkpt lat="44.45711" lon="6.88826">
        <ele>2318.6</ele>
        <time>2022-08-16T10:35:40Z</time>
      </trkpt>
      <trkpt lat="44.45711" lon="6.88828">
        <ele>2318.6</ele>
        <time>2022-08-16T10:35:41Z</time>
      </trkpt>
      <trkpt lat="44.45711" lon="6.8883">
        <ele>2318.6</ele>
        <time>2022-08-16T10:35:42Z</time>
      </trkpt>
      <trkpt lat="44.4571" lon="6.88831">
        <ele>2318.6</ele>
        <time>2022-08-16T10:35:43Z</time>
      </trkpt>
      <trkpt lat="44.4571" lon="6.88833">
        <ele>2318.6</ele>
        <time>2022-08-16T10:35:44Z</time>
      </trkpt>
      <trkpt lat="44.45709" lon="6.88834">
        <ele>2318.4</ele>
        <time>2022-08-16T10:35:45Z</time>
      </trkpt>
      <trkpt lat="44.45709" lon="6.88835">
        <ele>2318.6</ele>
        <time>2022-08-16T10:35:46Z</time>
      </trkpt>
      <trkpt lat="44.45709" lon="6.88837">
        <ele>2318.6</ele>
        <time>2022-08-16T10:35:47Z</time>
      </trkpt>
      <trkpt lat="44.45707" lon="6.88839">
        <ele>2318.6</ele>
        <time>2022-08-16T10:35:49Z</time>
      </trkpt>
      <trkpt lat="44.45707" lon="6.88841">
        <ele>2318.6</ele>
        <time>2022-08-16T10:35:50Z</time>
      </trkpt>
      <trkpt lat="44.45706" lon="6.88844">
        <ele>2319</ele>
        <time>2022-08-16T10:35:52Z</time>
      </trkpt>
      <trkpt lat="44.45706" lon="6.88846">
        <ele>2319.4</ele>
        <time>2022-08-16T10:35:53Z</time>
      </trkpt>
      <trkpt lat="44.45706" lon="6.88847">
        <ele>2319.6</ele>
        <time>2022-08-16T10:35:54Z</time>
      </trkpt>
      <trkpt lat="44.45705" lon="6.88849">
        <ele>2320</ele>
        <time>2022-08-16T10:35:55Z</time>
      </trkpt>
      <trkpt lat="44.45704" lon="6.8885">
        <ele>2320</ele>
        <time>2022-08-16T10:35:56Z</time>
      </trkpt>
      <trkpt lat="44.45703" lon="6.88851">
        <ele>2320.4</ele>
        <time>2022-08-16T10:35:57Z</time>
      </trkpt>
      <trkpt lat="44.45702" lon="6.88852">
        <ele>2320.4</ele>
        <time>2022-08-16T10:35:58Z</time>
      </trkpt>
      <trkpt lat="44.45702" lon="6.88853">
        <ele>2320.6</ele>
        <time>2022-08-16T10:35:59Z</time>
      </trkpt>
      <trkpt lat="44.45701" lon="6.88854">
        <ele>2320.6</ele>
        <time>2022-08-16T10:36:00Z</time>
      </trkpt>
      <trkpt lat="44.45701" lon="6.88856">
        <ele>2320.8</ele>
        <time>2022-08-16T10:36:01Z</time>
      </trkpt>
      <trkpt lat="44.457" lon="6.88857">
        <ele>2320.8</ele>
        <time>2022-08-16T10:36:02Z</time>
      </trkpt>
      <trkpt lat="44.457" lon="6.88859">
        <ele>2321</ele>
        <time>2022-08-16T10:36:03Z</time>
      </trkpt>
      <trkpt lat="44.45699" lon="6.88861">
        <ele>2321.2</ele>
        <time>2022-08-16T10:36:04Z</time>
      </trkpt>
      <trkpt lat="44.45699" lon="6.88862">
        <ele>2321.4</ele>
        <time>2022-08-16T10:36:05Z</time>
      </trkpt>
      <trkpt lat="44.45698" lon="6.88864">
        <ele>2321.4</ele>
        <time>2022-08-16T10:36:06Z</time>
      </trkpt>
      <trkpt lat="44.45698" lon="6.88865">
        <ele>2321.8</ele>
        <time>2022-08-16T10:36:07Z</time>
      </trkpt>
      <trkpt lat="44.45697" lon="6.88867">
        <ele>2321.8</ele>
        <time>2022-08-16T10:36:08Z</time>
      </trkpt>
      <trkpt lat="44.45697" lon="6.88868">
        <ele>2322</ele>
        <time>2022-08-16T10:36:09Z</time>
      </trkpt>
      <trkpt lat="44.45696" lon="6.8887">
        <ele>2322</ele>
        <time>2022-08-16T10:36:10Z</time>
      </trkpt>
      <trkpt lat="44.45695" lon="6.88871">
        <ele>2322.2</ele>
        <time>2022-08-16T10:36:11Z</time>
      </trkpt>
      <trkpt lat="44.45694" lon="6.88872">
        <ele>2322.2</ele>
        <time>2022-08-16T10:36:12Z</time>
      </trkpt>
      <trkpt lat="44.45694" lon="6.88873">
        <ele>2322.6</ele>
        <time>2022-08-16T10:36:13Z</time>
      </trkpt>
      <trkpt lat="44.45693" lon="6.88875">
        <ele>2322.6</ele>
        <time>2022-08-16T10:36:14Z</time>
      </trkpt>
      <trkpt lat="44.45693" lon="6.88876">
        <ele>2322.8</ele>
        <time>2022-08-16T10:36:15Z</time>
      </trkpt>
      <trkpt lat="44.45693" lon="6.88878">
        <ele>2323.2</ele>
        <time>2022-08-16T10:36:16Z</time>
      </trkpt>
      <trkpt lat="44.45692" lon="6.88879">
        <ele>2323.2</ele>
        <time>2022-08-16T10:36:17Z</time>
      </trkpt>
      <trkpt lat="44.45691" lon="6.8888">
        <ele>2323.2</ele>
        <time>2022-08-16T10:36:18Z</time>
      </trkpt>
      <trkpt lat="44.45691" lon="6.88882">
        <ele>2323.2</ele>
        <time>2022-08-16T10:36:19Z</time>
      </trkpt>
      <trkpt lat="44.4569" lon="6.88883">
        <ele>2323.2</ele>
        <time>2022-08-16T10:36:20Z</time>
      </trkpt>
      <trkpt lat="44.45689" lon="6.88884">
        <ele>2323.2</ele>
        <time>2022-08-16T10:36:21Z</time>
      </trkpt>
      <trkpt lat="44.45688" lon="6.88885">
        <ele>2323.4</ele>
        <time>2022-08-16T10:36:22Z</time>
      </trkpt>
      <trkpt lat="44.45687" lon="6.88887">
        <ele>2323.4</ele>
        <time>2022-08-16T10:36:23Z</time>
      </trkpt>
      <trkpt lat="44.45687" lon="6.88888">
        <ele>2323.6</ele>
        <time>2022-08-16T10:36:24Z</time>
      </trkpt>
      <trkpt lat="44.45686" lon="6.88889">
        <ele>2323.8</ele>
        <time>2022-08-16T10:36:25Z</time>
      </trkpt>
      <trkpt lat="44.45686" lon="6.88891">
        <ele>2323.6</ele>
        <time>2022-08-16T10:36:26Z</time>
      </trkpt>
      <trkpt lat="44.45685" lon="6.88892">
        <ele>2324</ele>
        <time>2022-08-16T10:36:27Z</time>
      </trkpt>
      <trkpt lat="44.45685" lon="6.88893">
        <ele>2324</ele>
        <time>2022-08-16T10:36:28Z</time>
      </trkpt>
      <trkpt lat="44.45684" lon="6.88894">
        <ele>2324.2</ele>
        <time>2022-08-16T10:36:29Z</time>
      </trkpt>
      <trkpt lat="44.45684" lon="6.88895">
        <ele>2324.4</ele>
        <time>2022-08-16T10:36:30Z</time>
      </trkpt>
      <trkpt lat="44.45684" lon="6.88895">
        <ele>2325.6</ele>
        <time>2022-08-16T10:36:39Z</time>
      </trkpt>
      <trkpt lat="44.45683" lon="6.88897">
        <ele>2326.4</ele>
        <time>2022-08-16T10:36:57Z</time>
      </trkpt>
      <trkpt lat="44.45681" lon="6.88899">
        <ele>2326.2</ele>
        <time>2022-08-16T10:37:00Z</time>
      </trkpt>
      <trkpt lat="44.45681" lon="6.889">
        <ele>2326.4</ele>
        <time>2022-08-16T10:37:01Z</time>
      </trkpt>
      <trkpt lat="44.45679" lon="6.88902">
        <ele>2326.4</ele>
        <time>2022-08-16T10:37:03Z</time>
      </trkpt>
      <trkpt lat="44.45678" lon="6.88903">
        <ele>2326.4</ele>
        <time>2022-08-16T10:37:05Z</time>
      </trkpt>
      <trkpt lat="44.45677" lon="6.88904">
        <ele>2326.4</ele>
        <time>2022-08-16T10:37:06Z</time>
      </trkpt>
      <trkpt lat="44.45676" lon="6.88905">
        <ele>2326.4</ele>
        <time>2022-08-16T10:37:07Z</time>
      </trkpt>
      <trkpt lat="44.45676" lon="6.88906">
        <ele>2326.4</ele>
        <time>2022-08-16T10:37:08Z</time>
      </trkpt>
      <trkpt lat="44.45675" lon="6.88907">
        <ele>2326.6</ele>
        <time>2022-08-16T10:37:09Z</time>
      </trkpt>
      <trkpt lat="44.45675" lon="6.88907">
        <ele>2327</ele>
        <time>2022-08-16T10:37:10Z</time>
      </trkpt>
      <trkpt lat="44.45674" lon="6.88908">
        <ele>2326.8</ele>
        <time>2022-08-16T10:37:11Z</time>
      </trkpt>
      <trkpt lat="44.45674" lon="6.88909">
        <ele>2327</ele>
        <time>2022-08-16T10:37:12Z</time>
      </trkpt>
      <trkpt lat="44.45674" lon="6.88909">
        <ele>2327.2</ele>
        <time>2022-08-16T10:37:13Z</time>
      </trkpt>
      <trkpt lat="44.45673" lon="6.88911">
        <ele>2327.4</ele>
        <time>2022-08-16T10:37:15Z</time>
      </trkpt>
      <trkpt lat="44.45672" lon="6.88915">
        <ele>2327.6</ele>
        <time>2022-08-16T10:37:19Z</time>
      </trkpt>
      <trkpt lat="44.4567" lon="6.88918">
        <ele>2327.8</ele>
        <time>2022-08-16T10:37:22Z</time>
      </trkpt>
      <trkpt lat="44.45669" lon="6.88919">
        <ele>2328</ele>
        <time>2022-08-16T10:37:24Z</time>
      </trkpt>
      <trkpt lat="44.45669" lon="6.8892">
        <ele>2329.4</ele>
        <time>2022-08-16T10:37:36Z</time>
      </trkpt>
      <trkpt lat="44.45669" lon="6.8892">
        <ele>2329.6</ele>
        <time>2022-08-16T10:37:37Z</time>
      </trkpt>
      <trkpt lat="44.45667" lon="6.88923">
        <ele>2329.6</ele>
        <time>2022-08-16T10:37:40Z</time>
      </trkpt>
      <trkpt lat="44.45665" lon="6.88925">
        <ele>2329.8</ele>
        <time>2022-08-16T10:37:43Z</time>
      </trkpt>
      <trkpt lat="44.45664" lon="6.88926">
        <ele>2329.8</ele>
        <time>2022-08-16T10:37:44Z</time>
      </trkpt>
      <trkpt lat="44.45664" lon="6.88926">
        <ele>2329.8</ele>
        <time>2022-08-16T10:37:45Z</time>
      </trkpt>
      <trkpt lat="44.45663" lon="6.88927">
        <ele>2329.8</ele>
        <time>2022-08-16T10:37:46Z</time>
      </trkpt>
      <trkpt lat="44.45662" lon="6.88928">
        <ele>2330</ele>
        <time>2022-08-16T10:37:48Z</time>
      </trkpt>
      <trkpt lat="44.45661" lon="6.88929">
        <ele>2330.2</ele>
        <time>2022-08-16T10:37:49Z</time>
      </trkpt>
      <trkpt lat="44.45661" lon="6.8893">
        <ele>2330.2</ele>
        <time>2022-08-16T10:37:50Z</time>
      </trkpt>
      <trkpt lat="44.4566" lon="6.88931">
        <ele>2330.4</ele>
        <time>2022-08-16T10:37:51Z</time>
      </trkpt>
      <trkpt lat="44.4566" lon="6.88931">
        <ele>2330.6</ele>
        <time>2022-08-16T10:37:52Z</time>
      </trkpt>
      <trkpt lat="44.4566" lon="6.88932">
        <ele>2330.6</ele>
        <time>2022-08-16T10:37:53Z</time>
      </trkpt>
      <trkpt lat="44.45659" lon="6.88933">
        <ele>2330.8</ele>
        <time>2022-08-16T10:37:55Z</time>
      </trkpt>
      <trkpt lat="44.45658" lon="6.88934">
        <ele>2330.8</ele>
        <time>2022-08-16T10:37:56Z</time>
      </trkpt>
      <trkpt lat="44.45658" lon="6.88935">
        <ele>2331</ele>
        <time>2022-08-16T10:37:57Z</time>
      </trkpt>
      <trkpt lat="44.45658" lon="6.88936">
        <ele>2331.2</ele>
        <time>2022-08-16T10:37:58Z</time>
      </trkpt>
      <trkpt lat="44.45657" lon="6.88936">
        <ele>2331.4</ele>
        <time>2022-08-16T10:38:01Z</time>
      </trkpt>
      <trkpt lat="44.45657" lon="6.88936">
        <ele>2332.4</ele>
        <time>2022-08-16T10:38:30Z</time>
      </trkpt>
      <trkpt lat="44.45656" lon="6.88939">
        <ele>2332.2</ele>
        <time>2022-08-16T10:38:39Z</time>
      </trkpt>
      <trkpt lat="44.45655" lon="6.88939">
        <ele>2332.4</ele>
        <time>2022-08-16T10:38:40Z</time>
      </trkpt>
      <trkpt lat="44.45654" lon="6.8894">
        <ele>2332.4</ele>
        <time>2022-08-16T10:38:41Z</time>
      </trkpt>
      <trkpt lat="44.45654" lon="6.8894">
        <ele>2332.4</ele>
        <time>2022-08-16T10:38:42Z</time>
      </trkpt>
      <trkpt lat="44.45653" lon="6.88941">
        <ele>2332.4</ele>
        <time>2022-08-16T10:38:43Z</time>
      </trkpt>
      <trkpt lat="44.45653" lon="6.88942">
        <ele>2332.4</ele>
        <time>2022-08-16T10:38:47Z</time>
      </trkpt>
      <trkpt lat="44.45653" lon="6.88942">
        <ele>2332.6</ele>
        <time>2022-08-16T10:38:49Z</time>
      </trkpt>
      <trkpt lat="44.45653" lon="6.88942">
        <ele>2332.6</ele>
        <time>2022-08-16T10:38:50Z</time>
      </trkpt>
      <trkpt lat="44.45653" lon="6.88942">
        <ele>2332.8</ele>
        <time>2022-08-16T10:38:52Z</time>
      </trkpt>
      <trkpt lat="44.45653" lon="6.88942">
        <ele>2332.6</ele>
        <time>2022-08-16T10:38:53Z</time>
      </trkpt>
      <trkpt lat="44.45653" lon="6.88942">
        <ele>2332.8</ele>
        <time>2022-08-16T10:38:57Z</time>
      </trkpt>
      <trkpt lat="44.45653" lon="6.88942">
        <ele>2333.2</ele>
        <time>2022-08-16T10:39:08Z</time>
      </trkpt>
      <trkpt lat="44.45651" lon="6.88946">
        <ele>2333.2</ele>
        <time>2022-08-16T10:39:14Z</time>
      </trkpt>
      <trkpt lat="44.45649" lon="6.88948">
        <ele>2333.2</ele>
        <time>2022-08-16T10:39:16Z</time>
      </trkpt>
      <trkpt lat="44.45649" lon="6.88948">
        <ele>2333</ele>
        <time>2022-08-16T10:39:17Z</time>
      </trkpt>
      <trkpt lat="44.45648" lon="6.88949">
        <ele>2333.2</ele>
        <time>2022-08-16T10:39:18Z</time>
      </trkpt>
      <trkpt lat="44.45647" lon="6.8895">
        <ele>2333.2</ele>
        <time>2022-08-16T10:39:19Z</time>
      </trkpt>
      <trkpt lat="44.45646" lon="6.88951">
        <ele>2333.2</ele>
        <time>2022-08-16T10:39:21Z</time>
      </trkpt>
      <trkpt lat="44.45645" lon="6.88952">
        <ele>2333.2</ele>
        <time>2022-08-16T10:39:22Z</time>
      </trkpt>
      <trkpt lat="44.45645" lon="6.88952">
        <ele>2333.4</ele>
        <time>2022-08-16T10:39:23Z</time>
      </trkpt>
      <trkpt lat="44.45644" lon="6.88953">
        <ele>2333.2</ele>
        <time>2022-08-16T10:39:24Z</time>
      </trkpt>
      <trkpt lat="44.45643" lon="6.88953">
        <ele>2333.4</ele>
        <time>2022-08-16T10:39:25Z</time>
      </trkpt>
      <trkpt lat="44.45642" lon="6.88954">
        <ele>2333.6</ele>
        <time>2022-08-16T10:39:27Z</time>
      </trkpt>
      <trkpt lat="44.45642" lon="6.88955">
        <ele>2333.8</ele>
        <time>2022-08-16T10:39:29Z</time>
      </trkpt>
      <trkpt lat="44.45641" lon="6.88955">
        <ele>2334.2</ele>
        <time>2022-08-16T10:39:30Z</time>
      </trkpt>
      <trkpt lat="44.4564" lon="6.88956">
        <ele>2334.4</ele>
        <time>2022-08-16T10:39:31Z</time>
      </trkpt>
      <trkpt lat="44.4564" lon="6.88956">
        <ele>2334.6</ele>
        <time>2022-08-16T10:39:32Z</time>
      </trkpt>
      <trkpt lat="44.4564" lon="6.88957">
        <ele>2334.8</ele>
        <time>2022-08-16T10:39:33Z</time>
      </trkpt>
      <trkpt lat="44.45639" lon="6.88957">
        <ele>2335.2</ele>
        <time>2022-08-16T10:39:35Z</time>
      </trkpt>
      <trkpt lat="44.45638" lon="6.88958">
        <ele>2335.4</ele>
        <time>2022-08-16T10:39:36Z</time>
      </trkpt>
      <trkpt lat="44.45638" lon="6.88958">
        <ele>2335.8</ele>
        <time>2022-08-16T10:39:37Z</time>
      </trkpt>
      <trkpt lat="44.45637" lon="6.88959">
        <ele>2336</ele>
        <time>2022-08-16T10:39:38Z</time>
      </trkpt>
      <trkpt lat="44.45637" lon="6.88959">
        <ele>2336.2</ele>
        <time>2022-08-16T10:39:39Z</time>
      </trkpt>
      <trkpt lat="44.45637" lon="6.88959">
        <ele>2336.6</ele>
        <time>2022-08-16T10:39:40Z</time>
      </trkpt>
      <trkpt lat="44.45636" lon="6.8896">
        <ele>2336.8</ele>
        <time>2022-08-16T10:39:41Z</time>
      </trkpt>
      <trkpt lat="44.45636" lon="6.8896">
        <ele>2337</ele>
        <time>2022-08-16T10:39:42Z</time>
      </trkpt>
      <trkpt lat="44.45635" lon="6.88961">
        <ele>2337.2</ele>
        <time>2022-08-16T10:39:43Z</time>
      </trkpt>
      <trkpt lat="44.45634" lon="6.88961">
        <ele>2337.4</ele>
        <time>2022-08-16T10:39:44Z</time>
      </trkpt>
      <trkpt lat="44.45634" lon="6.88962">
        <ele>2337.6</ele>
        <time>2022-08-16T10:39:45Z</time>
      </trkpt>
      <trkpt lat="44.45633" lon="6.88962">
        <ele>2337.8</ele>
        <time>2022-08-16T10:39:46Z</time>
      </trkpt>
      <trkpt lat="44.45633" lon="6.88963">
        <ele>2338</ele>
        <time>2022-08-16T10:39:47Z</time>
      </trkpt>
      <trkpt lat="44.45632" lon="6.88963">
        <ele>2338.2</ele>
        <time>2022-08-16T10:39:48Z</time>
      </trkpt>
      <trkpt lat="44.45632" lon="6.88964">
        <ele>2338.2</ele>
        <time>2022-08-16T10:39:49Z</time>
      </trkpt>
      <trkpt lat="44.45632" lon="6.88964">
        <ele>2338.2</ele>
        <time>2022-08-16T10:39:50Z</time>
      </trkpt>
      <trkpt lat="44.45631" lon="6.88965">
        <ele>2338.2</ele>
        <time>2022-08-16T10:39:51Z</time>
      </trkpt>
      <trkpt lat="44.4563" lon="6.88965">
        <ele>2338.6</ele>
        <time>2022-08-16T10:39:52Z</time>
      </trkpt>
      <trkpt lat="44.4563" lon="6.88966">
        <ele>2338.6</ele>
        <time>2022-08-16T10:39:53Z</time>
      </trkpt>
      <trkpt lat="44.45629" lon="6.88966">
        <ele>2338.6</ele>
        <time>2022-08-16T10:39:54Z</time>
      </trkpt>
      <trkpt lat="44.45629" lon="6.88966">
        <ele>2339</ele>
        <time>2022-08-16T10:39:55Z</time>
      </trkpt>
      <trkpt lat="44.45628" lon="6.88967">
        <ele>2339.2</ele>
        <time>2022-08-16T10:39:56Z</time>
      </trkpt>
      <trkpt lat="44.45628" lon="6.88967">
        <ele>2339.4</ele>
        <time>2022-08-16T10:39:57Z</time>
      </trkpt>
      <trkpt lat="44.45627" lon="6.88968">
        <ele>2339.6</ele>
        <time>2022-08-16T10:39:59Z</time>
      </trkpt>
      <trkpt lat="44.45627" lon="6.88969">
        <ele>2340</ele>
        <time>2022-08-16T10:40:00Z</time>
      </trkpt>
      <trkpt lat="44.45627" lon="6.8897">
        <ele>2340.2</ele>
        <time>2022-08-16T10:40:01Z</time>
      </trkpt>
      <trkpt lat="44.45626" lon="6.8897">
        <ele>2340.4</ele>
        <time>2022-08-16T10:40:02Z</time>
      </trkpt>
      <trkpt lat="44.45626" lon="6.88971">
        <ele>2340.6</ele>
        <time>2022-08-16T10:40:03Z</time>
      </trkpt>
      <trkpt lat="44.45625" lon="6.88972">
        <ele>2341</ele>
        <time>2022-08-16T10:40:04Z</time>
      </trkpt>
      <trkpt lat="44.45625" lon="6.88972">
        <ele>2341</ele>
        <time>2022-08-16T10:40:05Z</time>
      </trkpt>
      <trkpt lat="44.45625" lon="6.88973">
        <ele>2341</ele>
        <time>2022-08-16T10:40:06Z</time>
      </trkpt>
      <trkpt lat="44.45624" lon="6.88973">
        <ele>2341.2</ele>
        <time>2022-08-16T10:40:07Z</time>
      </trkpt>
      <trkpt lat="44.45623" lon="6.88974">
        <ele>2341.4</ele>
        <time>2022-08-16T10:40:08Z</time>
      </trkpt>
      <trkpt lat="44.45623" lon="6.88974">
        <ele>2341.6</ele>
        <time>2022-08-16T10:40:09Z</time>
      </trkpt>
      <trkpt lat="44.45622" lon="6.88974">
        <ele>2341.8</ele>
        <time>2022-08-16T10:40:10Z</time>
      </trkpt>
      <trkpt lat="44.45622" lon="6.88975">
        <ele>2342</ele>
        <time>2022-08-16T10:40:11Z</time>
      </trkpt>
      <trkpt lat="44.45622" lon="6.88976">
        <ele>2342.2</ele>
        <time>2022-08-16T10:40:12Z</time>
      </trkpt>
      <trkpt lat="44.45621" lon="6.88976">
        <ele>2342.2</ele>
        <time>2022-08-16T10:40:13Z</time>
      </trkpt>
      <trkpt lat="44.45621" lon="6.88977">
        <ele>2342.4</ele>
        <time>2022-08-16T10:40:14Z</time>
      </trkpt>
      <trkpt lat="44.4562" lon="6.88978">
        <ele>2342.4</ele>
        <time>2022-08-16T10:40:15Z</time>
      </trkpt>
      <trkpt lat="44.4562" lon="6.88978">
        <ele>2342.8</ele>
        <time>2022-08-16T10:40:16Z</time>
      </trkpt>
      <trkpt lat="44.45619" lon="6.88979">
        <ele>2343</ele>
        <time>2022-08-16T10:40:18Z</time>
      </trkpt>
      <trkpt lat="44.45619" lon="6.88979">
        <ele>2343.4</ele>
        <time>2022-08-16T10:40:19Z</time>
      </trkpt>
      <trkpt lat="44.45619" lon="6.8898">
        <ele>2343.4</ele>
        <time>2022-08-16T10:40:20Z</time>
      </trkpt>
      <trkpt lat="44.45618" lon="6.8898">
        <ele>2343.6</ele>
        <time>2022-08-16T10:40:21Z</time>
      </trkpt>
      <trkpt lat="44.45618" lon="6.88981">
        <ele>2343.8</ele>
        <time>2022-08-16T10:40:22Z</time>
      </trkpt>
      <trkpt lat="44.45617" lon="6.88981">
        <ele>2344</ele>
        <time>2022-08-16T10:40:23Z</time>
      </trkpt>
      <trkpt lat="44.45617" lon="6.88981">
        <ele>2344.2</ele>
        <time>2022-08-16T10:40:24Z</time>
      </trkpt>
      <trkpt lat="44.45616" lon="6.88982">
        <ele>2344.4</ele>
        <time>2022-08-16T10:40:25Z</time>
      </trkpt>
      <trkpt lat="44.45615" lon="6.88982">
        <ele>2344.4</ele>
        <time>2022-08-16T10:40:26Z</time>
      </trkpt>
      <trkpt lat="44.45615" lon="6.88982">
        <ele>2344.8</ele>
        <time>2022-08-16T10:40:27Z</time>
      </trkpt>
      <trkpt lat="44.45615" lon="6.88983">
        <ele>2345</ele>
        <time>2022-08-16T10:40:28Z</time>
      </trkpt>
      <trkpt lat="44.45614" lon="6.88984">
        <ele>2345</ele>
        <time>2022-08-16T10:40:29Z</time>
      </trkpt>
      <trkpt lat="44.45614" lon="6.88985">
        <ele>2345.2</ele>
        <time>2022-08-16T10:40:30Z</time>
      </trkpt>
      <trkpt lat="44.45614" lon="6.88986">
        <ele>2345.4</ele>
        <time>2022-08-16T10:40:31Z</time>
      </trkpt>
      <trkpt lat="44.45613" lon="6.88987">
        <ele>2345.4</ele>
        <time>2022-08-16T10:40:32Z</time>
      </trkpt>
      <trkpt lat="44.45613" lon="6.88988">
        <ele>2345.4</ele>
        <time>2022-08-16T10:40:33Z</time>
      </trkpt>
      <trkpt lat="44.45613" lon="6.88989">
        <ele>2345.6</ele>
        <time>2022-08-16T10:40:34Z</time>
      </trkpt>
      <trkpt lat="44.45612" lon="6.8899">
        <ele>2345.6</ele>
        <time>2022-08-16T10:40:35Z</time>
      </trkpt>
      <trkpt lat="44.45612" lon="6.88991">
        <ele>2345.8</ele>
        <time>2022-08-16T10:40:36Z</time>
      </trkpt>
      <trkpt lat="44.45611" lon="6.88992">
        <ele>2346</ele>
        <time>2022-08-16T10:40:37Z</time>
      </trkpt>
      <trkpt lat="44.45611" lon="6.88992">
        <ele>2346</ele>
        <time>2022-08-16T10:40:38Z</time>
      </trkpt>
      <trkpt lat="44.4561" lon="6.88993">
        <ele>2346.2</ele>
        <time>2022-08-16T10:40:39Z</time>
      </trkpt>
      <trkpt lat="44.4561" lon="6.88994">
        <ele>2346.2</ele>
        <time>2022-08-16T10:40:40Z</time>
      </trkpt>
      <trkpt lat="44.45609" lon="6.88994">
        <ele>2346.4</ele>
        <time>2022-08-16T10:40:41Z</time>
      </trkpt>
      <trkpt lat="44.45609" lon="6.88995">
        <ele>2346.8</ele>
        <time>2022-08-16T10:40:42Z</time>
      </trkpt>
      <trkpt lat="44.45608" lon="6.88996">
        <ele>2346.8</ele>
        <time>2022-08-16T10:40:43Z</time>
      </trkpt>
      <trkpt lat="44.45608" lon="6.88997">
        <ele>2347</ele>
        <time>2022-08-16T10:40:44Z</time>
      </trkpt>
      <trkpt lat="44.45608" lon="6.88997">
        <ele>2347</ele>
        <time>2022-08-16T10:40:45Z</time>
      </trkpt>
      <trkpt lat="44.45607" lon="6.88998">
        <ele>2347.2</ele>
        <time>2022-08-16T10:40:46Z</time>
      </trkpt>
      <trkpt lat="44.45607" lon="6.88999">
        <ele>2347.4</ele>
        <time>2022-08-16T10:40:47Z</time>
      </trkpt>
      <trkpt lat="44.45606" lon="6.88999">
        <ele>2347.4</ele>
        <time>2022-08-16T10:40:48Z</time>
      </trkpt>
      <trkpt lat="44.45606" lon="6.89">
        <ele>2347.6</ele>
        <time>2022-08-16T10:40:49Z</time>
      </trkpt>
      <trkpt lat="44.45606" lon="6.89">
        <ele>2348.2</ele>
        <time>2022-08-16T10:40:53Z</time>
      </trkpt>
      <trkpt lat="44.45606" lon="6.89001">
        <ele>2348.6</ele>
        <time>2022-08-16T10:40:56Z</time>
      </trkpt>
      <trkpt lat="44.45606" lon="6.89002">
        <ele>2348.8</ele>
        <time>2022-08-16T10:40:57Z</time>
      </trkpt>
      <trkpt lat="44.45605" lon="6.89003">
        <ele>2348.8</ele>
        <time>2022-08-16T10:40:58Z</time>
      </trkpt>
      <trkpt lat="44.45605" lon="6.89003">
        <ele>2349</ele>
        <time>2022-08-16T10:40:59Z</time>
      </trkpt>
      <trkpt lat="44.45605" lon="6.89004">
        <ele>2349.2</ele>
        <time>2022-08-16T10:41:00Z</time>
      </trkpt>
      <trkpt lat="44.45604" lon="6.89004">
        <ele>2349.4</ele>
        <time>2022-08-16T10:41:01Z</time>
      </trkpt>
      <trkpt lat="44.45604" lon="6.89005">
        <ele>2349.6</ele>
        <time>2022-08-16T10:41:02Z</time>
      </trkpt>
      <trkpt lat="44.45603" lon="6.89006">
        <ele>2349.4</ele>
        <time>2022-08-16T10:41:03Z</time>
      </trkpt>
      <trkpt lat="44.45603" lon="6.89006">
        <ele>2349.6</ele>
        <time>2022-08-16T10:41:04Z</time>
      </trkpt>
      <trkpt lat="44.45602" lon="6.89007">
        <ele>2349.8</ele>
        <time>2022-08-16T10:41:05Z</time>
      </trkpt>
      <trkpt lat="44.45602" lon="6.89008">
        <ele>2349.8</ele>
        <time>2022-08-16T10:41:07Z</time>
      </trkpt>
      <trkpt lat="44.45602" lon="6.89008">
        <ele>2350</ele>
        <time>2022-08-16T10:41:08Z</time>
      </trkpt>
      <trkpt lat="44.45601" lon="6.89009">
        <ele>2350.2</ele>
        <time>2022-08-16T10:41:09Z</time>
      </trkpt>
      <trkpt lat="44.45601" lon="6.8901">
        <ele>2350.2</ele>
        <time>2022-08-16T10:41:10Z</time>
      </trkpt>
      <trkpt lat="44.45601" lon="6.89011">
        <ele>2350.4</ele>
        <time>2022-08-16T10:41:11Z</time>
      </trkpt>
      <trkpt lat="44.456" lon="6.89012">
        <ele>2350.6</ele>
        <time>2022-08-16T10:41:12Z</time>
      </trkpt>
      <trkpt lat="44.456" lon="6.89013">
        <ele>2351</ele>
        <time>2022-08-16T10:41:13Z</time>
      </trkpt>
      <trkpt lat="44.45599" lon="6.89014">
        <ele>2351.2</ele>
        <time>2022-08-16T10:41:14Z</time>
      </trkpt>
      <trkpt lat="44.45599" lon="6.89015">
        <ele>2351.4</ele>
        <time>2022-08-16T10:41:15Z</time>
      </trkpt>
      <trkpt lat="44.45598" lon="6.89016">
        <ele>2352</ele>
        <time>2022-08-16T10:41:16Z</time>
      </trkpt>
      <trkpt lat="44.45598" lon="6.89017">
        <ele>2352.2</ele>
        <time>2022-08-16T10:41:17Z</time>
      </trkpt>
      <trkpt lat="44.45598" lon="6.89018">
        <ele>2352.2</ele>
        <time>2022-08-16T10:41:18Z</time>
      </trkpt>
      <trkpt lat="44.45597" lon="6.89019">
        <ele>2352.2</ele>
        <time>2022-08-16T10:41:19Z</time>
      </trkpt>
      <trkpt lat="44.45597" lon="6.89019">
        <ele>2352.4</ele>
        <time>2022-08-16T10:41:20Z</time>
      </trkpt>
      <trkpt lat="44.45597" lon="6.8902">
        <ele>2352.6</ele>
        <time>2022-08-16T10:41:21Z</time>
      </trkpt>
      <trkpt lat="44.45596" lon="6.8902">
        <ele>2352.6</ele>
        <time>2022-08-16T10:41:22Z</time>
      </trkpt>
      <trkpt lat="44.45596" lon="6.89021">
        <ele>2352.6</ele>
        <time>2022-08-16T10:41:23Z</time>
      </trkpt>
      <trkpt lat="44.45596" lon="6.89022">
        <ele>2352.8</ele>
        <time>2022-08-16T10:41:24Z</time>
      </trkpt>
      <trkpt lat="44.45595" lon="6.89023">
        <ele>2353.2</ele>
        <time>2022-08-16T10:41:25Z</time>
      </trkpt>
      <trkpt lat="44.45595" lon="6.89023">
        <ele>2353.4</ele>
        <time>2022-08-16T10:41:26Z</time>
      </trkpt>
      <trkpt lat="44.45595" lon="6.89024">
        <ele>2353.6</ele>
        <time>2022-08-16T10:41:27Z</time>
      </trkpt>
      <trkpt lat="44.45595" lon="6.89025">
        <ele>2353.8</ele>
        <time>2022-08-16T10:41:28Z</time>
      </trkpt>
      <trkpt lat="44.45594" lon="6.89025">
        <ele>2353.8</ele>
        <time>2022-08-16T10:41:29Z</time>
      </trkpt>
      <trkpt lat="44.45594" lon="6.89026">
        <ele>2353.8</ele>
        <time>2022-08-16T10:41:30Z</time>
      </trkpt>
      <trkpt lat="44.45593" lon="6.89027">
        <ele>2354</ele>
        <time>2022-08-16T10:41:31Z</time>
      </trkpt>
      <trkpt lat="44.45593" lon="6.89027">
        <ele>2354.4</ele>
        <time>2022-08-16T10:41:32Z</time>
      </trkpt>
      <trkpt lat="44.45592" lon="6.89028">
        <ele>2354.6</ele>
        <time>2022-08-16T10:41:33Z</time>
      </trkpt>
      <trkpt lat="44.45592" lon="6.89029">
        <ele>2355</ele>
        <time>2022-08-16T10:41:34Z</time>
      </trkpt>
      <trkpt lat="44.45591" lon="6.89029">
        <ele>2354.8</ele>
        <time>2022-08-16T10:41:35Z</time>
      </trkpt>
      <trkpt lat="44.4559" lon="6.8903">
        <ele>2355.2</ele>
        <time>2022-08-16T10:41:36Z</time>
      </trkpt>
      <trkpt lat="44.4559" lon="6.8903">
        <ele>2355.4</ele>
        <time>2022-08-16T10:41:37Z</time>
      </trkpt>
      <trkpt lat="44.45589" lon="6.89031">
        <ele>2355.2</ele>
        <time>2022-08-16T10:41:38Z</time>
      </trkpt>
      <trkpt lat="44.45588" lon="6.89031">
        <ele>2355.8</ele>
        <time>2022-08-16T10:41:42Z</time>
      </trkpt>
      <trkpt lat="44.45588" lon="6.89031">
        <ele>2356.4</ele>
        <time>2022-08-16T10:41:45Z</time>
      </trkpt>
      <trkpt lat="44.45587" lon="6.89032">
        <ele>2356.4</ele>
        <time>2022-08-16T10:41:46Z</time>
      </trkpt>
      <trkpt lat="44.45587" lon="6.89033">
        <ele>2356.6</ele>
        <time>2022-08-16T10:41:47Z</time>
      </trkpt>
      <trkpt lat="44.45587" lon="6.89034">
        <ele>2356.4</ele>
        <time>2022-08-16T10:41:48Z</time>
      </trkpt>
      <trkpt lat="44.45586" lon="6.89035">
        <ele>2356.6</ele>
        <time>2022-08-16T10:41:49Z</time>
      </trkpt>
      <trkpt lat="44.45585" lon="6.89036">
        <ele>2356.6</ele>
        <time>2022-08-16T10:41:50Z</time>
      </trkpt>
      <trkpt lat="44.45582" lon="6.89041">
        <ele>2356.6</ele>
        <time>2022-08-16T10:41:54Z</time>
      </trkpt>
      <trkpt lat="44.45582" lon="6.89043">
        <ele>2356.8</ele>
        <time>2022-08-16T10:41:55Z</time>
      </trkpt>
      <trkpt lat="44.45581" lon="6.89044">
        <ele>2356.8</ele>
        <time>2022-08-16T10:41:56Z</time>
      </trkpt>
      <trkpt lat="44.45581" lon="6.89046">
        <ele>2356.8</ele>
        <time>2022-08-16T10:41:57Z</time>
      </trkpt>
      <trkpt lat="44.45576" lon="6.89053">
        <ele>2357.2</ele>
        <time>2022-08-16T10:42:02Z</time>
      </trkpt>
      <trkpt lat="44.45575" lon="6.89055">
        <ele>2357.4</ele>
        <time>2022-08-16T10:42:03Z</time>
      </trkpt>
      <trkpt lat="44.45575" lon="6.89056">
        <ele>2357.4</ele>
        <time>2022-08-16T10:42:04Z</time>
      </trkpt>
      <trkpt lat="44.45572" lon="6.89061">
        <ele>2357.6</ele>
        <time>2022-08-16T10:42:07Z</time>
      </trkpt>
      <trkpt lat="44.45571" lon="6.89062">
        <ele>2357.6</ele>
        <time>2022-08-16T10:42:08Z</time>
      </trkpt>
      <trkpt lat="44.4557" lon="6.89065">
        <ele>2357.6</ele>
        <time>2022-08-16T10:42:10Z</time>
      </trkpt>
      <trkpt lat="44.45569" lon="6.89067">
        <ele>2357.6</ele>
        <time>2022-08-16T10:42:11Z</time>
      </trkpt>
      <trkpt lat="44.45568" lon="6.89068">
        <ele>2357.8</ele>
        <time>2022-08-16T10:42:12Z</time>
      </trkpt>
      <trkpt lat="44.45568" lon="6.89069">
        <ele>2358</ele>
        <time>2022-08-16T10:42:13Z</time>
      </trkpt>
      <trkpt lat="44.45567" lon="6.89071">
        <ele>2358</ele>
        <time>2022-08-16T10:42:14Z</time>
      </trkpt>
      <trkpt lat="44.45567" lon="6.89073">
        <ele>2358</ele>
        <time>2022-08-16T10:42:15Z</time>
      </trkpt>
      <trkpt lat="44.45567" lon="6.89076">
        <ele>2358.2</ele>
        <time>2022-08-16T10:42:16Z</time>
      </trkpt>
      <trkpt lat="44.45567" lon="6.89078">
        <ele>2358.4</ele>
        <time>2022-08-16T10:42:17Z</time>
      </trkpt>
      <trkpt lat="44.45567" lon="6.89079">
        <ele>2358.8</ele>
        <time>2022-08-16T10:42:18Z</time>
      </trkpt>
      <trkpt lat="44.45566" lon="6.89081">
        <ele>2359</ele>
        <time>2022-08-16T10:42:19Z</time>
      </trkpt>
      <trkpt lat="44.45566" lon="6.89082">
        <ele>2359.2</ele>
        <time>2022-08-16T10:42:20Z</time>
      </trkpt>
      <trkpt lat="44.45565" lon="6.89083">
        <ele>2359.4</ele>
        <time>2022-08-16T10:42:21Z</time>
      </trkpt>
      <trkpt lat="44.45565" lon="6.89084">
        <ele>2359.4</ele>
        <time>2022-08-16T10:42:22Z</time>
      </trkpt>
      <trkpt lat="44.45564" lon="6.89086">
        <ele>2359.6</ele>
        <time>2022-08-16T10:42:23Z</time>
      </trkpt>
      <trkpt lat="44.45564" lon="6.89087">
        <ele>2359.6</ele>
        <time>2022-08-16T10:42:24Z</time>
      </trkpt>
      <trkpt lat="44.45563" lon="6.89088">
        <ele>2359.8</ele>
        <time>2022-08-16T10:42:25Z</time>
      </trkpt>
      <trkpt lat="44.45562" lon="6.89089">
        <ele>2359.8</ele>
        <time>2022-08-16T10:42:26Z</time>
      </trkpt>
      <trkpt lat="44.45562" lon="6.89091">
        <ele>2360</ele>
        <time>2022-08-16T10:42:27Z</time>
      </trkpt>
      <trkpt lat="44.45561" lon="6.89093">
        <ele>2360.4</ele>
        <time>2022-08-16T10:42:28Z</time>
      </trkpt>
      <trkpt lat="44.4556" lon="6.89095">
        <ele>2360.2</ele>
        <time>2022-08-16T10:42:29Z</time>
      </trkpt>
      <trkpt lat="44.4556" lon="6.89097">
        <ele>2360.4</ele>
        <time>2022-08-16T10:42:30Z</time>
      </trkpt>
      <trkpt lat="44.4556" lon="6.89098">
        <ele>2360.6</ele>
        <time>2022-08-16T10:42:31Z</time>
      </trkpt>
      <trkpt lat="44.45559" lon="6.891">
        <ele>2360.8</ele>
        <time>2022-08-16T10:42:32Z</time>
      </trkpt>
      <trkpt lat="44.45559" lon="6.89102">
        <ele>2360.8</ele>
        <time>2022-08-16T10:42:33Z</time>
      </trkpt>
      <trkpt lat="44.45559" lon="6.89103">
        <ele>2360.6</ele>
        <time>2022-08-16T10:42:34Z</time>
      </trkpt>
      <trkpt lat="44.45558" lon="6.89105">
        <ele>2361</ele>
        <time>2022-08-16T10:42:35Z</time>
      </trkpt>
      <trkpt lat="44.45558" lon="6.89107">
        <ele>2361</ele>
        <time>2022-08-16T10:42:36Z</time>
      </trkpt>
      <trkpt lat="44.45558" lon="6.89109">
        <ele>2361.2</ele>
        <time>2022-08-16T10:42:37Z</time>
      </trkpt>
      <trkpt lat="44.45557" lon="6.8911">
        <ele>2361.4</ele>
        <time>2022-08-16T10:42:38Z</time>
      </trkpt>
      <trkpt lat="44.45557" lon="6.89112">
        <ele>2361.4</ele>
        <time>2022-08-16T10:42:39Z</time>
      </trkpt>
      <trkpt lat="44.45556" lon="6.89114">
        <ele>2361.6</ele>
        <time>2022-08-16T10:42:40Z</time>
      </trkpt>
      <trkpt lat="44.45556" lon="6.89116">
        <ele>2361.8</ele>
        <time>2022-08-16T10:42:41Z</time>
      </trkpt>
      <trkpt lat="44.45555" lon="6.89118">
        <ele>2361.8</ele>
        <time>2022-08-16T10:42:42Z</time>
      </trkpt>
      <trkpt lat="44.45555" lon="6.89119">
        <ele>2362</ele>
        <time>2022-08-16T10:42:43Z</time>
      </trkpt>
      <trkpt lat="44.45554" lon="6.89121">
        <ele>2362.2</ele>
        <time>2022-08-16T10:42:44Z</time>
      </trkpt>
      <trkpt lat="44.45554" lon="6.89122">
        <ele>2362.2</ele>
        <time>2022-08-16T10:42:45Z</time>
      </trkpt>
      <trkpt lat="44.45553" lon="6.89124">
        <ele>2362.2</ele>
        <time>2022-08-16T10:42:46Z</time>
      </trkpt>
      <trkpt lat="44.45553" lon="6.89125">
        <ele>2362.4</ele>
        <time>2022-08-16T10:42:47Z</time>
      </trkpt>
      <trkpt lat="44.45552" lon="6.89126">
        <ele>2362.4</ele>
        <time>2022-08-16T10:42:48Z</time>
      </trkpt>
      <trkpt lat="44.45552" lon="6.89128">
        <ele>2362.6</ele>
        <time>2022-08-16T10:42:49Z</time>
      </trkpt>
      <trkpt lat="44.45552" lon="6.89129">
        <ele>2362.8</ele>
        <time>2022-08-16T10:42:50Z</time>
      </trkpt>
      <trkpt lat="44.45551" lon="6.89131">
        <ele>2363.4</ele>
        <time>2022-08-16T10:42:51Z</time>
      </trkpt>
      <trkpt lat="44.4555" lon="6.89133">
        <ele>2363.8</ele>
        <time>2022-08-16T10:42:52Z</time>
      </trkpt>
      <trkpt lat="44.4555" lon="6.89136">
        <ele>2364.2</ele>
        <time>2022-08-16T10:42:53Z</time>
      </trkpt>
      <trkpt lat="44.45549" lon="6.89138">
        <ele>2364.4</ele>
        <time>2022-08-16T10:42:54Z</time>
      </trkpt>
      <trkpt lat="44.45549" lon="6.8914">
        <ele>2364.6</ele>
        <time>2022-08-16T10:42:55Z</time>
      </trkpt>
      <trkpt lat="44.45549" lon="6.89142">
        <ele>2364.8</ele>
        <time>2022-08-16T10:42:56Z</time>
      </trkpt>
      <trkpt lat="44.45549" lon="6.89144">
        <ele>2365</ele>
        <time>2022-08-16T10:42:57Z</time>
      </trkpt>
      <trkpt lat="44.45549" lon="6.89147">
        <ele>2365</ele>
        <time>2022-08-16T10:42:58Z</time>
      </trkpt>
      <trkpt lat="44.45549" lon="6.89149">
        <ele>2365.2</ele>
        <time>2022-08-16T10:42:59Z</time>
      </trkpt>
      <trkpt lat="44.45548" lon="6.89152">
        <ele>2365</ele>
        <time>2022-08-16T10:43:00Z</time>
      </trkpt>
      <trkpt lat="44.45548" lon="6.89154">
        <ele>2365.2</ele>
        <time>2022-08-16T10:43:01Z</time>
      </trkpt>
      <trkpt lat="44.45548" lon="6.89156">
        <ele>2365.4</ele>
        <time>2022-08-16T10:43:02Z</time>
      </trkpt>
      <trkpt lat="44.45547" lon="6.89159">
        <ele>2365.4</ele>
        <time>2022-08-16T10:43:03Z</time>
      </trkpt>
      <trkpt lat="44.45547" lon="6.89161">
        <ele>2365.6</ele>
        <time>2022-08-16T10:43:04Z</time>
      </trkpt>
      <trkpt lat="44.45546" lon="6.89164">
        <ele>2365.6</ele>
        <time>2022-08-16T10:43:05Z</time>
      </trkpt>
      <trkpt lat="44.45546" lon="6.89166">
        <ele>2366.2</ele>
        <time>2022-08-16T10:43:06Z</time>
      </trkpt>
      <trkpt lat="44.45546" lon="6.89168">
        <ele>2366.2</ele>
        <time>2022-08-16T10:43:07Z</time>
      </trkpt>
      <trkpt lat="44.45545" lon="6.89171">
        <ele>2366.2</ele>
        <time>2022-08-16T10:43:08Z</time>
      </trkpt>
      <trkpt lat="44.45545" lon="6.89173">
        <ele>2366.4</ele>
        <time>2022-08-16T10:43:09Z</time>
      </trkpt>
      <trkpt lat="44.45544" lon="6.89175">
        <ele>2366.4</ele>
        <time>2022-08-16T10:43:10Z</time>
      </trkpt>
      <trkpt lat="44.45544" lon="6.89178">
        <ele>2366.4</ele>
        <time>2022-08-16T10:43:11Z</time>
      </trkpt>
      <trkpt lat="44.45543" lon="6.8918">
        <ele>2366.4</ele>
        <time>2022-08-16T10:43:12Z</time>
      </trkpt>
      <trkpt lat="44.45543" lon="6.89183">
        <ele>2366.6</ele>
        <time>2022-08-16T10:43:13Z</time>
      </trkpt>
      <trkpt lat="44.45542" lon="6.89185">
        <ele>2366.6</ele>
        <time>2022-08-16T10:43:14Z</time>
      </trkpt>
      <trkpt lat="44.45542" lon="6.89187">
        <ele>2366.6</ele>
        <time>2022-08-16T10:43:15Z</time>
      </trkpt>
      <trkpt lat="44.45538" lon="6.89194">
        <ele>2367</ele>
        <time>2022-08-16T10:43:19Z</time>
      </trkpt>
      <trkpt lat="44.45538" lon="6.89196">
        <ele>2366.8</ele>
        <time>2022-08-16T10:43:20Z</time>
      </trkpt>
      <trkpt lat="44.45537" lon="6.89197">
        <ele>2366.8</ele>
        <time>2022-08-16T10:43:21Z</time>
      </trkpt>
      <trkpt lat="44.45536" lon="6.89199">
        <ele>2366.8</ele>
        <time>2022-08-16T10:43:22Z</time>
      </trkpt>
      <trkpt lat="44.45528" lon="6.8921">
        <ele>2367.4</ele>
        <time>2022-08-16T10:43:29Z</time>
      </trkpt>
      <trkpt lat="44.45527" lon="6.89211">
        <ele>2367.8</ele>
        <time>2022-08-16T10:43:30Z</time>
      </trkpt>
      <trkpt lat="44.45526" lon="6.89212">
        <ele>2367.8</ele>
        <time>2022-08-16T10:43:31Z</time>
      </trkpt>
      <trkpt lat="44.45524" lon="6.89214">
        <ele>2367.8</ele>
        <time>2022-08-16T10:43:32Z</time>
      </trkpt>
      <trkpt lat="44.45523" lon="6.89215">
        <ele>2367.8</ele>
        <time>2022-08-16T10:43:33Z</time>
      </trkpt>
      <trkpt lat="44.45522" lon="6.89216">
        <ele>2368.2</ele>
        <time>2022-08-16T10:43:34Z</time>
      </trkpt>
      <trkpt lat="44.4552" lon="6.89218">
        <ele>2368.4</ele>
        <time>2022-08-16T10:43:35Z</time>
      </trkpt>
      <trkpt lat="44.45519" lon="6.89219">
        <ele>2368.4</ele>
        <time>2022-08-16T10:43:36Z</time>
      </trkpt>
      <trkpt lat="44.45517" lon="6.8922">
        <ele>2368.6</ele>
        <time>2022-08-16T10:43:37Z</time>
      </trkpt>
      <trkpt lat="44.45516" lon="6.89222">
        <ele>2368.8</ele>
        <time>2022-08-16T10:43:38Z</time>
      </trkpt>
      <trkpt lat="44.45514" lon="6.89223">
        <ele>2369</ele>
        <time>2022-08-16T10:43:39Z</time>
      </trkpt>
      <trkpt lat="44.45513" lon="6.89225">
        <ele>2369.2</ele>
        <time>2022-08-16T10:43:40Z</time>
      </trkpt>
      <trkpt lat="44.45512" lon="6.89226">
        <ele>2369.4</ele>
        <time>2022-08-16T10:43:41Z</time>
      </trkpt>
      <trkpt lat="44.45511" lon="6.89227">
        <ele>2369.6</ele>
        <time>2022-08-16T10:43:42Z</time>
      </trkpt>
      <trkpt lat="44.45509" lon="6.89229">
        <ele>2369.8</ele>
        <time>2022-08-16T10:43:43Z</time>
      </trkpt>
      <trkpt lat="44.45508" lon="6.8923">
        <ele>2370</ele>
        <time>2022-08-16T10:43:44Z</time>
      </trkpt>
      <trkpt lat="44.45507" lon="6.89231">
        <ele>2370.4</ele>
        <time>2022-08-16T10:43:45Z</time>
      </trkpt>
      <trkpt lat="44.45506" lon="6.89233">
        <ele>2370.8</ele>
        <time>2022-08-16T10:43:46Z</time>
      </trkpt>
      <trkpt lat="44.45505" lon="6.89235">
        <ele>2370.8</ele>
        <time>2022-08-16T10:43:47Z</time>
      </trkpt>
      <trkpt lat="44.45504" lon="6.89237">
        <ele>2370.8</ele>
        <time>2022-08-16T10:43:48Z</time>
      </trkpt>
      <trkpt lat="44.45503" lon="6.89238">
        <ele>2370.8</ele>
        <time>2022-08-16T10:43:49Z</time>
      </trkpt>
      <trkpt lat="44.45502" lon="6.8924">
        <ele>2371</ele>
        <time>2022-08-16T10:43:50Z</time>
      </trkpt>
      <trkpt lat="44.45501" lon="6.89242">
        <ele>2371</ele>
        <time>2022-08-16T10:43:51Z</time>
      </trkpt>
      <trkpt lat="44.455" lon="6.89244">
        <ele>2371</ele>
        <time>2022-08-16T10:43:52Z</time>
      </trkpt>
      <trkpt lat="44.45498" lon="6.89245">
        <ele>2371.2</ele>
        <time>2022-08-16T10:43:53Z</time>
      </trkpt>
      <trkpt lat="44.45497" lon="6.89247">
        <ele>2371.2</ele>
        <time>2022-08-16T10:43:54Z</time>
      </trkpt>
      <trkpt lat="44.45495" lon="6.89248">
        <ele>2371.2</ele>
        <time>2022-08-16T10:43:55Z</time>
      </trkpt>
      <trkpt lat="44.45494" lon="6.8925">
        <ele>2371.4</ele>
        <time>2022-08-16T10:43:56Z</time>
      </trkpt>
      <trkpt lat="44.45492" lon="6.89252">
        <ele>2371.4</ele>
        <time>2022-08-16T10:43:57Z</time>
      </trkpt>
      <trkpt lat="44.45491" lon="6.89254">
        <ele>2371.6</ele>
        <time>2022-08-16T10:43:58Z</time>
      </trkpt>
      <trkpt lat="44.45489" lon="6.89256">
        <ele>2371.8</ele>
        <time>2022-08-16T10:43:59Z</time>
      </trkpt>
      <trkpt lat="44.45487" lon="6.89258">
        <ele>2372</ele>
        <time>2022-08-16T10:44:00Z</time>
      </trkpt>
      <trkpt lat="44.45486" lon="6.89261">
        <ele>2371.8</ele>
        <time>2022-08-16T10:44:01Z</time>
      </trkpt>
      <trkpt lat="44.45484" lon="6.89263">
        <ele>2372</ele>
        <time>2022-08-16T10:44:02Z</time>
      </trkpt>
      <trkpt lat="44.45482" lon="6.89265">
        <ele>2372</ele>
        <time>2022-08-16T10:44:03Z</time>
      </trkpt>
      <trkpt lat="44.45481" lon="6.89267">
        <ele>2372</ele>
        <time>2022-08-16T10:44:04Z</time>
      </trkpt>
      <trkpt lat="44.45479" lon="6.89269">
        <ele>2372.2</ele>
        <time>2022-08-16T10:44:05Z</time>
      </trkpt>
      <trkpt lat="44.45477" lon="6.8927">
        <ele>2372.4</ele>
        <time>2022-08-16T10:44:06Z</time>
      </trkpt>
      <trkpt lat="44.45472" lon="6.89275">
        <ele>2372.6</ele>
        <time>2022-08-16T10:44:09Z</time>
      </trkpt>
      <trkpt lat="44.4547" lon="6.89277">
        <ele>2372.6</ele>
        <time>2022-08-16T10:44:10Z</time>
      </trkpt>
      <trkpt lat="44.45465" lon="6.89282">
        <ele>2372.8</ele>
        <time>2022-08-16T10:44:13Z</time>
      </trkpt>
      <trkpt lat="44.45461" lon="6.89285">
        <ele>2372.8</ele>
        <time>2022-08-16T10:44:15Z</time>
      </trkpt>
      <trkpt lat="44.4546" lon="6.89287">
        <ele>2372.8</ele>
        <time>2022-08-16T10:44:16Z</time>
      </trkpt>
      <trkpt lat="44.45458" lon="6.89289">
        <ele>2372.8</ele>
        <time>2022-08-16T10:44:17Z</time>
      </trkpt>
      <trkpt lat="44.45457" lon="6.89291">
        <ele>2372.8</ele>
        <time>2022-08-16T10:44:18Z</time>
      </trkpt>
      <trkpt lat="44.4545" lon="6.89297">
        <ele>2373</ele>
        <time>2022-08-16T10:44:22Z</time>
      </trkpt>
      <trkpt lat="44.45441" lon="6.89305">
        <ele>2373.2</ele>
        <time>2022-08-16T10:44:26Z</time>
      </trkpt>
      <trkpt lat="44.45439" lon="6.89307">
        <ele>2373.2</ele>
        <time>2022-08-16T10:44:27Z</time>
      </trkpt>
      <trkpt lat="44.45436" lon="6.89308">
        <ele>2373.2</ele>
        <time>2022-08-16T10:44:28Z</time>
      </trkpt>
      <trkpt lat="44.45434" lon="6.89309">
        <ele>2373.2</ele>
        <time>2022-08-16T10:44:29Z</time>
      </trkpt>
      <trkpt lat="44.45428" lon="6.89315">
        <ele>2373.4</ele>
        <time>2022-08-16T10:44:32Z</time>
      </trkpt>
      <trkpt lat="44.45426" lon="6.89316">
        <ele>2373.4</ele>
        <time>2022-08-16T10:44:33Z</time>
      </trkpt>
      <trkpt lat="44.45422" lon="6.89319">
        <ele>2373.6</ele>
        <time>2022-08-16T10:44:35Z</time>
      </trkpt>
      <trkpt lat="44.4542" lon="6.89321">
        <ele>2373.8</ele>
        <time>2022-08-16T10:44:36Z</time>
      </trkpt>
      <trkpt lat="44.45418" lon="6.89323">
        <ele>2373.8</ele>
        <time>2022-08-16T10:44:37Z</time>
      </trkpt>
      <trkpt lat="44.45416" lon="6.89326">
        <ele>2373.8</ele>
        <time>2022-08-16T10:44:38Z</time>
      </trkpt>
      <trkpt lat="44.4541" lon="6.89331">
        <ele>2374</ele>
        <time>2022-08-16T10:44:41Z</time>
      </trkpt>
      <trkpt lat="44.45408" lon="6.89333">
        <ele>2374.2</ele>
        <time>2022-08-16T10:44:42Z</time>
      </trkpt>
      <trkpt lat="44.45401" lon="6.89337">
        <ele>2374.4</ele>
        <time>2022-08-16T10:44:45Z</time>
      </trkpt>
      <trkpt lat="44.45396" lon="6.8934">
        <ele>2374.6</ele>
        <time>2022-08-16T10:44:47Z</time>
      </trkpt>
      <trkpt lat="44.45394" lon="6.89342">
        <ele>2374.4</ele>
        <time>2022-08-16T10:44:48Z</time>
      </trkpt>
      <trkpt lat="44.45391" lon="6.89343">
        <ele>2374.6</ele>
        <time>2022-08-16T10:44:49Z</time>
      </trkpt>
      <trkpt lat="44.45389" lon="6.89346">
        <ele>2374.6</ele>
        <time>2022-08-16T10:44:50Z</time>
      </trkpt>
      <trkpt lat="44.45387" lon="6.89348">
        <ele>2374.8</ele>
        <time>2022-08-16T10:44:51Z</time>
      </trkpt>
      <trkpt lat="44.45385" lon="6.8935">
        <ele>2374.8</ele>
        <time>2022-08-16T10:44:52Z</time>
      </trkpt>
      <trkpt lat="44.45383" lon="6.89352">
        <ele>2374.6</ele>
        <time>2022-08-16T10:44:53Z</time>
      </trkpt>
      <trkpt lat="44.45382" lon="6.89354">
        <ele>2374.6</ele>
        <time>2022-08-16T10:44:54Z</time>
      </trkpt>
      <trkpt lat="44.4538" lon="6.89356">
        <ele>2374.6</ele>
        <time>2022-08-16T10:44:55Z</time>
      </trkpt>
      <trkpt lat="44.45378" lon="6.89357">
        <ele>2374.6</ele>
        <time>2022-08-16T10:44:56Z</time>
      </trkpt>
      <trkpt lat="44.45372" lon="6.89361">
        <ele>2374.6</ele>
        <time>2022-08-16T10:44:59Z</time>
      </trkpt>
      <trkpt lat="44.4537" lon="6.89362">
        <ele>2374.6</ele>
        <time>2022-08-16T10:45:00Z</time>
      </trkpt>
      <trkpt lat="44.45366" lon="6.89365">
        <ele>2374.8</ele>
        <time>2022-08-16T10:45:02Z</time>
      </trkpt>
      <trkpt lat="44.45364" lon="6.89367">
        <ele>2374.6</ele>
        <time>2022-08-16T10:45:03Z</time>
      </trkpt>
      <trkpt lat="44.45362" lon="6.89368">
        <ele>2374.8</ele>
        <time>2022-08-16T10:45:04Z</time>
      </trkpt>
      <trkpt lat="44.45361" lon="6.8937">
        <ele>2374.6</ele>
        <time>2022-08-16T10:45:05Z</time>
      </trkpt>
      <trkpt lat="44.45357" lon="6.89373">
        <ele>2374.6</ele>
        <time>2022-08-16T10:45:07Z</time>
      </trkpt>
      <trkpt lat="44.45354" lon="6.89377">
        <ele>2374.8</ele>
        <time>2022-08-16T10:45:09Z</time>
      </trkpt>
      <trkpt lat="44.45352" lon="6.89379">
        <ele>2374.6</ele>
        <time>2022-08-16T10:45:10Z</time>
      </trkpt>
      <trkpt lat="44.4535" lon="6.8938">
        <ele>2374.6</ele>
        <time>2022-08-16T10:45:11Z</time>
      </trkpt>
      <trkpt lat="44.45349" lon="6.89382">
        <ele>2374.6</ele>
        <time>2022-08-16T10:45:12Z</time>
      </trkpt>
      <trkpt lat="44.45348" lon="6.89384">
        <ele>2374.6</ele>
        <time>2022-08-16T10:45:13Z</time>
      </trkpt>
      <trkpt lat="44.45347" lon="6.89386">
        <ele>2374.6</ele>
        <time>2022-08-16T10:45:14Z</time>
      </trkpt>
      <trkpt lat="44.45347" lon="6.89388">
        <ele>2374.6</ele>
        <time>2022-08-16T10:45:15Z</time>
      </trkpt>
      <trkpt lat="44.45346" lon="6.8939">
        <ele>2374.4</ele>
        <time>2022-08-16T10:45:16Z</time>
      </trkpt>
      <trkpt lat="44.45341" lon="6.89396">
        <ele>2374.4</ele>
        <time>2022-08-16T10:45:19Z</time>
      </trkpt>
      <trkpt lat="44.4534" lon="6.89398">
        <ele>2374.2</ele>
        <time>2022-08-16T10:45:20Z</time>
      </trkpt>
      <trkpt lat="44.4534" lon="6.894">
        <ele>2374.2</ele>
        <time>2022-08-16T10:45:21Z</time>
      </trkpt>
      <trkpt lat="44.4534" lon="6.894">
        <ele>2374.2</ele>
        <time>2022-08-16T10:45:22Z</time>
      </trkpt>
      <trkpt lat="44.45339" lon="6.89401">
        <ele>2374.2</ele>
        <time>2022-08-16T10:45:23Z</time>
      </trkpt>
      <trkpt lat="44.45339" lon="6.89402">
        <ele>2374</ele>
        <time>2022-08-16T10:45:24Z</time>
      </trkpt>
      <trkpt lat="44.45338" lon="6.89403">
        <ele>2374.2</ele>
        <time>2022-08-16T10:45:25Z</time>
      </trkpt>
      <trkpt lat="44.45338" lon="6.89404">
        <ele>2374</ele>
        <time>2022-08-16T10:45:26Z</time>
      </trkpt>
      <trkpt lat="44.45338" lon="6.89405">
        <ele>2373.8</ele>
        <time>2022-08-16T10:45:27Z</time>
      </trkpt>
      <trkpt lat="44.45338" lon="6.89405">
        <ele>2373.2</ele>
        <time>2022-08-16T10:45:31Z</time>
      </trkpt>
      <trkpt lat="44.45336" lon="6.89407">
        <ele>2372.8</ele>
        <time>2022-08-16T10:45:35Z</time>
      </trkpt>
      <trkpt lat="44.45334" lon="6.8941">
        <ele>2372.8</ele>
        <time>2022-08-16T10:45:37Z</time>
      </trkpt>
      <trkpt lat="44.45332" lon="6.89413">
        <ele>2372.8</ele>
        <time>2022-08-16T10:45:39Z</time>
      </trkpt>
      <trkpt lat="44.45332" lon="6.89414">
        <ele>2372.8</ele>
        <time>2022-08-16T10:45:40Z</time>
      </trkpt>
      <trkpt lat="44.45331" lon="6.89416">
        <ele>2372.6</ele>
        <time>2022-08-16T10:45:41Z</time>
      </trkpt>
      <trkpt lat="44.4533" lon="6.89417">
        <ele>2372.8</ele>
        <time>2022-08-16T10:45:42Z</time>
      </trkpt>
      <trkpt lat="44.4533" lon="6.89419">
        <ele>2372.6</ele>
        <time>2022-08-16T10:45:43Z</time>
      </trkpt>
      <trkpt lat="44.45329" lon="6.8942">
        <ele>2372.6</ele>
        <time>2022-08-16T10:45:44Z</time>
      </trkpt>
      <trkpt lat="44.45326" lon="6.89425">
        <ele>2372.8</ele>
        <time>2022-08-16T10:45:48Z</time>
      </trkpt>
      <trkpt lat="44.45325" lon="6.89426">
        <ele>2372.6</ele>
        <time>2022-08-16T10:45:49Z</time>
      </trkpt>
      <trkpt lat="44.45321" lon="6.89432">
        <ele>2373</ele>
        <time>2022-08-16T10:45:53Z</time>
      </trkpt>
      <trkpt lat="44.4532" lon="6.89434">
        <ele>2373</ele>
        <time>2022-08-16T10:45:54Z</time>
      </trkpt>
      <trkpt lat="44.45319" lon="6.89437">
        <ele>2373.4</ele>
        <time>2022-08-16T10:45:56Z</time>
      </trkpt>
      <trkpt lat="44.45317" lon="6.8944">
        <ele>2373.8</ele>
        <time>2022-08-16T10:45:58Z</time>
      </trkpt>
      <trkpt lat="44.45316" lon="6.89442">
        <ele>2373.6</ele>
        <time>2022-08-16T10:45:59Z</time>
      </trkpt>
      <trkpt lat="44.45315" lon="6.89443">
        <ele>2373.8</ele>
        <time>2022-08-16T10:46:00Z</time>
      </trkpt>
      <trkpt lat="44.45309" lon="6.89452">
        <ele>2374.4</ele>
        <time>2022-08-16T10:46:07Z</time>
      </trkpt>
      <trkpt lat="44.45307" lon="6.89455">
        <ele>2374.8</ele>
        <time>2022-08-16T10:46:09Z</time>
      </trkpt>
      <trkpt lat="44.45306" lon="6.89457">
        <ele>2374.8</ele>
        <time>2022-08-16T10:46:10Z</time>
      </trkpt>
      <trkpt lat="44.45304" lon="6.8946">
        <ele>2375</ele>
        <time>2022-08-16T10:46:12Z</time>
      </trkpt>
      <trkpt lat="44.45302" lon="6.89462">
        <ele>2375</ele>
        <time>2022-08-16T10:46:14Z</time>
      </trkpt>
      <trkpt lat="44.45301" lon="6.89463">
        <ele>2375.2</ele>
        <time>2022-08-16T10:46:15Z</time>
      </trkpt>
      <trkpt lat="44.45298" lon="6.89467">
        <ele>2375.4</ele>
        <time>2022-08-16T10:46:18Z</time>
      </trkpt>
      <trkpt lat="44.45297" lon="6.89468">
        <ele>2375.4</ele>
        <time>2022-08-16T10:46:19Z</time>
      </trkpt>
      <trkpt lat="44.45296" lon="6.89469">
        <ele>2375.6</ele>
        <time>2022-08-16T10:46:20Z</time>
      </trkpt>
      <trkpt lat="44.45293" lon="6.89473">
        <ele>2375.6</ele>
        <time>2022-08-16T10:46:23Z</time>
      </trkpt>
      <trkpt lat="44.45292" lon="6.89475">
        <ele>2375.4</ele>
        <time>2022-08-16T10:46:24Z</time>
      </trkpt>
      <trkpt lat="44.45291" lon="6.89476">
        <ele>2375.6</ele>
        <time>2022-08-16T10:46:25Z</time>
      </trkpt>
      <trkpt lat="44.4529" lon="6.89477">
        <ele>2376</ele>
        <time>2022-08-16T10:46:26Z</time>
      </trkpt>
      <trkpt lat="44.45289" lon="6.89478">
        <ele>2376.2</ele>
        <time>2022-08-16T10:46:27Z</time>
      </trkpt>
      <trkpt lat="44.45288" lon="6.89479">
        <ele>2376.2</ele>
        <time>2022-08-16T10:46:28Z</time>
      </trkpt>
      <trkpt lat="44.45287" lon="6.89481">
        <ele>2376.6</ele>
        <time>2022-08-16T10:46:29Z</time>
      </trkpt>
      <trkpt lat="44.45286" lon="6.89482">
        <ele>2377</ele>
        <time>2022-08-16T10:46:30Z</time>
      </trkpt>
      <trkpt lat="44.45286" lon="6.89483">
        <ele>2377.2</ele>
        <time>2022-08-16T10:46:31Z</time>
      </trkpt>
      <trkpt lat="44.45285" lon="6.89485">
        <ele>2377.4</ele>
        <time>2022-08-16T10:46:32Z</time>
      </trkpt>
      <trkpt lat="44.45284" lon="6.89486">
        <ele>2377.6</ele>
        <time>2022-08-16T10:46:33Z</time>
      </trkpt>
      <trkpt lat="44.45283" lon="6.89487">
        <ele>2377.6</ele>
        <time>2022-08-16T10:46:34Z</time>
      </trkpt>
      <trkpt lat="44.45282" lon="6.89488">
        <ele>2378</ele>
        <time>2022-08-16T10:46:35Z</time>
      </trkpt>
      <trkpt lat="44.45281" lon="6.89489">
        <ele>2378</ele>
        <time>2022-08-16T10:46:36Z</time>
      </trkpt>
      <trkpt lat="44.4528" lon="6.8949">
        <ele>2378</ele>
        <time>2022-08-16T10:46:37Z</time>
      </trkpt>
      <trkpt lat="44.45279" lon="6.89491">
        <ele>2378.2</ele>
        <time>2022-08-16T10:46:38Z</time>
      </trkpt>
      <trkpt lat="44.45278" lon="6.89492">
        <ele>2378.4</ele>
        <time>2022-08-16T10:46:39Z</time>
      </trkpt>
      <trkpt lat="44.45278" lon="6.89494">
        <ele>2378.6</ele>
        <time>2022-08-16T10:46:40Z</time>
      </trkpt>
      <trkpt lat="44.45277" lon="6.89494">
        <ele>2379.2</ele>
        <time>2022-08-16T10:46:41Z</time>
      </trkpt>
      <trkpt lat="44.45276" lon="6.89495">
        <ele>2379.4</ele>
        <time>2022-08-16T10:46:42Z</time>
      </trkpt>
      <trkpt lat="44.45275" lon="6.89496">
        <ele>2379.6</ele>
        <time>2022-08-16T10:46:43Z</time>
      </trkpt>
      <trkpt lat="44.45274" lon="6.89497">
        <ele>2379.8</ele>
        <time>2022-08-16T10:46:44Z</time>
      </trkpt>
      <trkpt lat="44.45273" lon="6.89499">
        <ele>2380.2</ele>
        <time>2022-08-16T10:46:45Z</time>
      </trkpt>
      <trkpt lat="44.45272" lon="6.895">
        <ele>2380.2</ele>
        <time>2022-08-16T10:46:46Z</time>
      </trkpt>
      <trkpt lat="44.45271" lon="6.89501">
        <ele>2380.2</ele>
        <time>2022-08-16T10:46:47Z</time>
      </trkpt>
      <trkpt lat="44.4527" lon="6.89502">
        <ele>2380.2</ele>
        <time>2022-08-16T10:46:48Z</time>
      </trkpt>
      <trkpt lat="44.45269" lon="6.89503">
        <ele>2380.4</ele>
        <time>2022-08-16T10:46:49Z</time>
      </trkpt>
      <trkpt lat="44.45268" lon="6.89504">
        <ele>2380.4</ele>
        <time>2022-08-16T10:46:50Z</time>
      </trkpt>
      <trkpt lat="44.45267" lon="6.89505">
        <ele>2380.4</ele>
        <time>2022-08-16T10:46:51Z</time>
      </trkpt>
      <trkpt lat="44.45266" lon="6.89506">
        <ele>2380.8</ele>
        <time>2022-08-16T10:46:52Z</time>
      </trkpt>
      <trkpt lat="44.45265" lon="6.89507">
        <ele>2380.8</ele>
        <time>2022-08-16T10:46:53Z</time>
      </trkpt>
      <trkpt lat="44.45264" lon="6.89508">
        <ele>2381</ele>
        <time>2022-08-16T10:46:54Z</time>
      </trkpt>
      <trkpt lat="44.45263" lon="6.89509">
        <ele>2381.2</ele>
        <time>2022-08-16T10:46:55Z</time>
      </trkpt>
      <trkpt lat="44.45263" lon="6.89511">
        <ele>2381.8</ele>
        <time>2022-08-16T10:46:56Z</time>
      </trkpt>
      <trkpt lat="44.45263" lon="6.89512">
        <ele>2381.8</ele>
        <time>2022-08-16T10:46:57Z</time>
      </trkpt>
      <trkpt lat="44.45262" lon="6.89514">
        <ele>2381.8</ele>
        <time>2022-08-16T10:46:58Z</time>
      </trkpt>
      <trkpt lat="44.45262" lon="6.89515">
        <ele>2382</ele>
        <time>2022-08-16T10:46:59Z</time>
      </trkpt>
      <trkpt lat="44.45261" lon="6.89516">
        <ele>2382.2</ele>
        <time>2022-08-16T10:47:00Z</time>
      </trkpt>
      <trkpt lat="44.4526" lon="6.89517">
        <ele>2382.4</ele>
        <time>2022-08-16T10:47:01Z</time>
      </trkpt>
      <trkpt lat="44.4526" lon="6.89518">
        <ele>2382.4</ele>
        <time>2022-08-16T10:47:02Z</time>
      </trkpt>
      <trkpt lat="44.45259" lon="6.89519">
        <ele>2382.6</ele>
        <time>2022-08-16T10:47:03Z</time>
      </trkpt>
      <trkpt lat="44.45258" lon="6.89519">
        <ele>2382.8</ele>
        <time>2022-08-16T10:47:04Z</time>
      </trkpt>
      <trkpt lat="44.45257" lon="6.8952">
        <ele>2383.2</ele>
        <time>2022-08-16T10:47:05Z</time>
      </trkpt>
      <trkpt lat="44.45256" lon="6.89521">
        <ele>2383.2</ele>
        <time>2022-08-16T10:47:06Z</time>
      </trkpt>
      <trkpt lat="44.45256" lon="6.89522">
        <ele>2383.6</ele>
        <time>2022-08-16T10:47:07Z</time>
      </trkpt>
      <trkpt lat="44.45255" lon="6.89522">
        <ele>2383.6</ele>
        <time>2022-08-16T10:47:08Z</time>
      </trkpt>
      <trkpt lat="44.45254" lon="6.89524">
        <ele>2384</ele>
        <time>2022-08-16T10:47:09Z</time>
      </trkpt>
      <trkpt lat="44.45254" lon="6.89524">
        <ele>2384</ele>
        <time>2022-08-16T10:47:10Z</time>
      </trkpt>
      <trkpt lat="44.45253" lon="6.89525">
        <ele>2384.2</ele>
        <time>2022-08-16T10:47:11Z</time>
      </trkpt>
      <trkpt lat="44.45252" lon="6.89526">
        <ele>2384.2</ele>
        <time>2022-08-16T10:47:12Z</time>
      </trkpt>
      <trkpt lat="44.45252" lon="6.89527">
        <ele>2384.6</ele>
        <time>2022-08-16T10:47:13Z</time>
      </trkpt>
      <trkpt lat="44.45251" lon="6.89528">
        <ele>2384.8</ele>
        <time>2022-08-16T10:47:14Z</time>
      </trkpt>
      <trkpt lat="44.4525" lon="6.89529">
        <ele>2385</ele>
        <time>2022-08-16T10:47:15Z</time>
      </trkpt>
      <trkpt lat="44.45249" lon="6.8953">
        <ele>2385</ele>
        <time>2022-08-16T10:47:16Z</time>
      </trkpt>
      <trkpt lat="44.45249" lon="6.89531">
        <ele>2385.4</ele>
        <time>2022-08-16T10:47:17Z</time>
      </trkpt>
      <trkpt lat="44.45249" lon="6.89532">
        <ele>2385.4</ele>
        <time>2022-08-16T10:47:18Z</time>
      </trkpt>
      <trkpt lat="44.45248" lon="6.89533">
        <ele>2385.8</ele>
        <time>2022-08-16T10:47:19Z</time>
      </trkpt>
      <trkpt lat="44.45247" lon="6.89534">
        <ele>2385.8</ele>
        <time>2022-08-16T10:47:20Z</time>
      </trkpt>
      <trkpt lat="44.45247" lon="6.89534">
        <ele>2386</ele>
        <time>2022-08-16T10:47:21Z</time>
      </trkpt>
      <trkpt lat="44.45246" lon="6.89535">
        <ele>2386.4</ele>
        <time>2022-08-16T10:47:22Z</time>
      </trkpt>
      <trkpt lat="44.45245" lon="6.89536">
        <ele>2386.8</ele>
        <time>2022-08-16T10:47:23Z</time>
      </trkpt>
      <trkpt lat="44.45245" lon="6.89537">
        <ele>2387</ele>
        <time>2022-08-16T10:47:24Z</time>
      </trkpt>
      <trkpt lat="44.45244" lon="6.89538">
        <ele>2387.2</ele>
        <time>2022-08-16T10:47:25Z</time>
      </trkpt>
      <trkpt lat="44.45243" lon="6.89539">
        <ele>2387.2</ele>
        <time>2022-08-16T10:47:26Z</time>
      </trkpt>
      <trkpt lat="44.45242" lon="6.8954">
        <ele>2387.4</ele>
        <time>2022-08-16T10:47:27Z</time>
      </trkpt>
      <trkpt lat="44.45241" lon="6.8954">
        <ele>2387.6</ele>
        <time>2022-08-16T10:47:28Z</time>
      </trkpt>
      <trkpt lat="44.45241" lon="6.89542">
        <ele>2387.8</ele>
        <time>2022-08-16T10:47:29Z</time>
      </trkpt>
      <trkpt lat="44.4524" lon="6.89543">
        <ele>2388</ele>
        <time>2022-08-16T10:47:30Z</time>
      </trkpt>
      <trkpt lat="44.4524" lon="6.89544">
        <ele>2388.2</ele>
        <time>2022-08-16T10:47:31Z</time>
      </trkpt>
      <trkpt lat="44.45239" lon="6.89545">
        <ele>2388</ele>
        <time>2022-08-16T10:47:32Z</time>
      </trkpt>
      <trkpt lat="44.45239" lon="6.89546">
        <ele>2388.2</ele>
        <time>2022-08-16T10:47:33Z</time>
      </trkpt>
      <trkpt lat="44.45238" lon="6.89548">
        <ele>2388.2</ele>
        <time>2022-08-16T10:47:34Z</time>
      </trkpt>
      <trkpt lat="44.45238" lon="6.89549">
        <ele>2388.2</ele>
        <time>2022-08-16T10:47:35Z</time>
      </trkpt>
      <trkpt lat="44.45237" lon="6.89551">
        <ele>2388.4</ele>
        <time>2022-08-16T10:47:36Z</time>
      </trkpt>
      <trkpt lat="44.45237" lon="6.89552">
        <ele>2388.6</ele>
        <time>2022-08-16T10:47:37Z</time>
      </trkpt>
      <trkpt lat="44.45236" lon="6.89553">
        <ele>2388.6</ele>
        <time>2022-08-16T10:47:38Z</time>
      </trkpt>
      <trkpt lat="44.45235" lon="6.89554">
        <ele>2388.8</ele>
        <time>2022-08-16T10:47:39Z</time>
      </trkpt>
      <trkpt lat="44.45235" lon="6.89555">
        <ele>2388.8</ele>
        <time>2022-08-16T10:47:40Z</time>
      </trkpt>
      <trkpt lat="44.45234" lon="6.89556">
        <ele>2388.8</ele>
        <time>2022-08-16T10:47:41Z</time>
      </trkpt>
      <trkpt lat="44.45234" lon="6.89558">
        <ele>2389.2</ele>
        <time>2022-08-16T10:47:42Z</time>
      </trkpt>
      <trkpt lat="44.45233" lon="6.89559">
        <ele>2389.4</ele>
        <time>2022-08-16T10:47:43Z</time>
      </trkpt>
      <trkpt lat="44.45233" lon="6.8956">
        <ele>2389.8</ele>
        <time>2022-08-16T10:47:44Z</time>
      </trkpt>
      <trkpt lat="44.45232" lon="6.89561">
        <ele>2390</ele>
        <time>2022-08-16T10:47:45Z</time>
      </trkpt>
      <trkpt lat="44.45231" lon="6.89562">
        <ele>2390</ele>
        <time>2022-08-16T10:47:46Z</time>
      </trkpt>
      <trkpt lat="44.45231" lon="6.89563">
        <ele>2390</ele>
        <time>2022-08-16T10:47:47Z</time>
      </trkpt>
      <trkpt lat="44.4523" lon="6.89564">
        <ele>2390.2</ele>
        <time>2022-08-16T10:47:48Z</time>
      </trkpt>
      <trkpt lat="44.4523" lon="6.89565">
        <ele>2390.2</ele>
        <time>2022-08-16T10:47:49Z</time>
      </trkpt>
      <trkpt lat="44.45229" lon="6.89566">
        <ele>2390.2</ele>
        <time>2022-08-16T10:47:50Z</time>
      </trkpt>
      <trkpt lat="44.45228" lon="6.89567">
        <ele>2390.2</ele>
        <time>2022-08-16T10:47:51Z</time>
      </trkpt>
      <trkpt lat="44.45228" lon="6.89568">
        <ele>2390.4</ele>
        <time>2022-08-16T10:47:52Z</time>
      </trkpt>
      <trkpt lat="44.45227" lon="6.89569">
        <ele>2390.6</ele>
        <time>2022-08-16T10:47:53Z</time>
      </trkpt>
      <trkpt lat="44.45226" lon="6.8957">
        <ele>2390.6</ele>
        <time>2022-08-16T10:47:54Z</time>
      </trkpt>
      <trkpt lat="44.45226" lon="6.89571">
        <ele>2391</ele>
        <time>2022-08-16T10:47:55Z</time>
      </trkpt>
      <trkpt lat="44.45225" lon="6.89572">
        <ele>2391</ele>
        <time>2022-08-16T10:47:56Z</time>
      </trkpt>
      <trkpt lat="44.45224" lon="6.89573">
        <ele>2391</ele>
        <time>2022-08-16T10:47:57Z</time>
      </trkpt>
      <trkpt lat="44.45223" lon="6.89574">
        <ele>2390.8</ele>
        <time>2022-08-16T10:47:58Z</time>
      </trkpt>
      <trkpt lat="44.45223" lon="6.89574">
        <ele>2391.2</ele>
        <time>2022-08-16T10:47:59Z</time>
      </trkpt>
      <trkpt lat="44.45222" lon="6.89575">
        <ele>2391.2</ele>
        <time>2022-08-16T10:48:00Z</time>
      </trkpt>
      <trkpt lat="44.45221" lon="6.89576">
        <ele>2391.2</ele>
        <time>2022-08-16T10:48:01Z</time>
      </trkpt>
      <trkpt lat="44.4522" lon="6.89576">
        <ele>2391.4</ele>
        <time>2022-08-16T10:48:02Z</time>
      </trkpt>
      <trkpt lat="44.45219" lon="6.89577">
        <ele>2391.4</ele>
        <time>2022-08-16T10:48:03Z</time>
      </trkpt>
      <trkpt lat="44.45219" lon="6.89577">
        <ele>2391.6</ele>
        <time>2022-08-16T10:48:04Z</time>
      </trkpt>
      <trkpt lat="44.45218" lon="6.89577">
        <ele>2392</ele>
        <time>2022-08-16T10:48:05Z</time>
      </trkpt>
      <trkpt lat="44.45217" lon="6.89578">
        <ele>2392.4</ele>
        <time>2022-08-16T10:48:06Z</time>
      </trkpt>
      <trkpt lat="44.45216" lon="6.89579">
        <ele>2392.6</ele>
        <time>2022-08-16T10:48:07Z</time>
      </trkpt>
      <trkpt lat="44.45215" lon="6.89579">
        <ele>2392.8</ele>
        <time>2022-08-16T10:48:08Z</time>
      </trkpt>
      <trkpt lat="44.45214" lon="6.8958">
        <ele>2393</ele>
        <time>2022-08-16T10:48:09Z</time>
      </trkpt>
      <trkpt lat="44.45213" lon="6.89581">
        <ele>2393.4</ele>
        <time>2022-08-16T10:48:10Z</time>
      </trkpt>
      <trkpt lat="44.45212" lon="6.89582">
        <ele>2393.6</ele>
        <time>2022-08-16T10:48:11Z</time>
      </trkpt>
      <trkpt lat="44.45211" lon="6.89582">
        <ele>2393.8</ele>
        <time>2022-08-16T10:48:12Z</time>
      </trkpt>
      <trkpt lat="44.4521" lon="6.89583">
        <ele>2394.2</ele>
        <time>2022-08-16T10:48:13Z</time>
      </trkpt>
      <trkpt lat="44.4521" lon="6.89584">
        <ele>2394.4</ele>
        <time>2022-08-16T10:48:14Z</time>
      </trkpt>
      <trkpt lat="44.45209" lon="6.89585">
        <ele>2394.6</ele>
        <time>2022-08-16T10:48:15Z</time>
      </trkpt>
      <trkpt lat="44.45208" lon="6.89586">
        <ele>2394.6</ele>
        <time>2022-08-16T10:48:16Z</time>
      </trkpt>
      <trkpt lat="44.45207" lon="6.89586">
        <ele>2394.6</ele>
        <time>2022-08-16T10:48:17Z</time>
      </trkpt>
      <trkpt lat="44.45206" lon="6.89587">
        <ele>2394.6</ele>
        <time>2022-08-16T10:48:18Z</time>
      </trkpt>
      <trkpt lat="44.45205" lon="6.89588">
        <ele>2394.8</ele>
        <time>2022-08-16T10:48:19Z</time>
      </trkpt>
      <trkpt lat="44.45204" lon="6.89589">
        <ele>2395</ele>
        <time>2022-08-16T10:48:20Z</time>
      </trkpt>
      <trkpt lat="44.45204" lon="6.8959">
        <ele>2395.2</ele>
        <time>2022-08-16T10:48:21Z</time>
      </trkpt>
      <trkpt lat="44.45203" lon="6.89591">
        <ele>2395.2</ele>
        <time>2022-08-16T10:48:22Z</time>
      </trkpt>
      <trkpt lat="44.45203" lon="6.89593">
        <ele>2395.8</ele>
        <time>2022-08-16T10:48:23Z</time>
      </trkpt>
      <trkpt lat="44.45202" lon="6.89594">
        <ele>2396</ele>
        <time>2022-08-16T10:48:24Z</time>
      </trkpt>
      <trkpt lat="44.45202" lon="6.89595">
        <ele>2396</ele>
        <time>2022-08-16T10:48:25Z</time>
      </trkpt>
      <trkpt lat="44.45201" lon="6.89596">
        <ele>2396.4</ele>
        <time>2022-08-16T10:48:26Z</time>
      </trkpt>
      <trkpt lat="44.452" lon="6.89597">
        <ele>2396.6</ele>
        <time>2022-08-16T10:48:27Z</time>
      </trkpt>
      <trkpt lat="44.452" lon="6.89598">
        <ele>2396.8</ele>
        <time>2022-08-16T10:48:28Z</time>
      </trkpt>
      <trkpt lat="44.45199" lon="6.89599">
        <ele>2397.2</ele>
        <time>2022-08-16T10:48:29Z</time>
      </trkpt>
      <trkpt lat="44.45199" lon="6.896">
        <ele>2397.4</ele>
        <time>2022-08-16T10:48:30Z</time>
      </trkpt>
      <trkpt lat="44.45198" lon="6.89601">
        <ele>2397.6</ele>
        <time>2022-08-16T10:48:31Z</time>
      </trkpt>
      <trkpt lat="44.45198" lon="6.89602">
        <ele>2398</ele>
        <time>2022-08-16T10:48:32Z</time>
      </trkpt>
      <trkpt lat="44.45197" lon="6.89603">
        <ele>2398</ele>
        <time>2022-08-16T10:48:33Z</time>
      </trkpt>
      <trkpt lat="44.45196" lon="6.89604">
        <ele>2398.4</ele>
        <time>2022-08-16T10:48:34Z</time>
      </trkpt>
      <trkpt lat="44.45196" lon="6.89605">
        <ele>2398.8</ele>
        <time>2022-08-16T10:48:35Z</time>
      </trkpt>
      <trkpt lat="44.45195" lon="6.89606">
        <ele>2399</ele>
        <time>2022-08-16T10:48:36Z</time>
      </trkpt>
      <trkpt lat="44.45195" lon="6.89607">
        <ele>2399.4</ele>
        <time>2022-08-16T10:48:37Z</time>
      </trkpt>
      <trkpt lat="44.45194" lon="6.89609">
        <ele>2399.8</ele>
        <time>2022-08-16T10:48:38Z</time>
      </trkpt>
      <trkpt lat="44.45194" lon="6.8961">
        <ele>2400.2</ele>
        <time>2022-08-16T10:48:39Z</time>
      </trkpt>
      <trkpt lat="44.45193" lon="6.89611">
        <ele>2400.2</ele>
        <time>2022-08-16T10:48:40Z</time>
      </trkpt>
      <trkpt lat="44.45193" lon="6.89612">
        <ele>2400.4</ele>
        <time>2022-08-16T10:48:41Z</time>
      </trkpt>
      <trkpt lat="44.45192" lon="6.89612">
        <ele>2400.6</ele>
        <time>2022-08-16T10:48:42Z</time>
      </trkpt>
      <trkpt lat="44.45192" lon="6.89613">
        <ele>2400.8</ele>
        <time>2022-08-16T10:48:43Z</time>
      </trkpt>
      <trkpt lat="44.45191" lon="6.89614">
        <ele>2400.8</ele>
        <time>2022-08-16T10:48:44Z</time>
      </trkpt>
      <trkpt lat="44.45191" lon="6.89615">
        <ele>2400.8</ele>
        <time>2022-08-16T10:48:45Z</time>
      </trkpt>
      <trkpt lat="44.4519" lon="6.89616">
        <ele>2401</ele>
        <time>2022-08-16T10:48:46Z</time>
      </trkpt>
      <trkpt lat="44.45189" lon="6.89617">
        <ele>2401.6</ele>
        <time>2022-08-16T10:48:47Z</time>
      </trkpt>
      <trkpt lat="44.45189" lon="6.89617">
        <ele>2401.8</ele>
        <time>2022-08-16T10:48:48Z</time>
      </trkpt>
      <trkpt lat="44.45188" lon="6.89618">
        <ele>2402</ele>
        <time>2022-08-16T10:48:49Z</time>
      </trkpt>
      <trkpt lat="44.45187" lon="6.89619">
        <ele>2402.4</ele>
        <time>2022-08-16T10:48:50Z</time>
      </trkpt>
      <trkpt lat="44.45186" lon="6.8962">
        <ele>2402.6</ele>
        <time>2022-08-16T10:48:51Z</time>
      </trkpt>
      <trkpt lat="44.45186" lon="6.89621">
        <ele>2402.8</ele>
        <time>2022-08-16T10:48:52Z</time>
      </trkpt>
      <trkpt lat="44.45185" lon="6.89622">
        <ele>2402.8</ele>
        <time>2022-08-16T10:48:53Z</time>
      </trkpt>
      <trkpt lat="44.45184" lon="6.89622">
        <ele>2402.8</ele>
        <time>2022-08-16T10:48:54Z</time>
      </trkpt>
      <trkpt lat="44.45184" lon="6.89623">
        <ele>2403</ele>
        <time>2022-08-16T10:48:55Z</time>
      </trkpt>
      <trkpt lat="44.45183" lon="6.89624">
        <ele>2403.2</ele>
        <time>2022-08-16T10:48:56Z</time>
      </trkpt>
      <trkpt lat="44.45182" lon="6.89626">
        <ele>2403.4</ele>
        <time>2022-08-16T10:48:57Z</time>
      </trkpt>
      <trkpt lat="44.45181" lon="6.89627">
        <ele>2403.6</ele>
        <time>2022-08-16T10:48:58Z</time>
      </trkpt>
      <trkpt lat="44.45181" lon="6.89627">
        <ele>2403.8</ele>
        <time>2022-08-16T10:49:01Z</time>
      </trkpt>
      <trkpt lat="44.45181" lon="6.89629">
        <ele>2404.4</ele>
        <time>2022-08-16T10:49:07Z</time>
      </trkpt>
      <trkpt lat="44.4518" lon="6.8963">
        <ele>2404.6</ele>
        <time>2022-08-16T10:49:08Z</time>
      </trkpt>
      <trkpt lat="44.45179" lon="6.89631">
        <ele>2404.8</ele>
        <time>2022-08-16T10:49:09Z</time>
      </trkpt>
      <trkpt lat="44.45178" lon="6.89633">
        <ele>2405</ele>
        <time>2022-08-16T10:49:10Z</time>
      </trkpt>
      <trkpt lat="44.45177" lon="6.89634">
        <ele>2405</ele>
        <time>2022-08-16T10:49:11Z</time>
      </trkpt>
      <trkpt lat="44.45176" lon="6.89636">
        <ele>2405</ele>
        <time>2022-08-16T10:49:12Z</time>
      </trkpt>
      <trkpt lat="44.45176" lon="6.89637">
        <ele>2405</ele>
        <time>2022-08-16T10:49:13Z</time>
      </trkpt>
      <trkpt lat="44.45175" lon="6.89637">
        <ele>2405</ele>
        <time>2022-08-16T10:49:14Z</time>
      </trkpt>
      <trkpt lat="44.45173" lon="6.89639">
        <ele>2405.2</ele>
        <time>2022-08-16T10:49:16Z</time>
      </trkpt>
      <trkpt lat="44.45172" lon="6.8964">
        <ele>2405.2</ele>
        <time>2022-08-16T10:49:17Z</time>
      </trkpt>
      <trkpt lat="44.45171" lon="6.89641">
        <ele>2405.2</ele>
        <time>2022-08-16T10:49:18Z</time>
      </trkpt>
      <trkpt lat="44.45169" lon="6.89643">
        <ele>2405.4</ele>
        <time>2022-08-16T10:49:20Z</time>
      </trkpt>
      <trkpt lat="44.45168" lon="6.89644">
        <ele>2405.4</ele>
        <time>2022-08-16T10:49:21Z</time>
      </trkpt>
      <trkpt lat="44.45167" lon="6.89644">
        <ele>2405.4</ele>
        <time>2022-08-16T10:49:22Z</time>
      </trkpt>
      <trkpt lat="44.45166" lon="6.89645">
        <ele>2405.6</ele>
        <time>2022-08-16T10:49:23Z</time>
      </trkpt>
      <trkpt lat="44.45165" lon="6.89646">
        <ele>2405.6</ele>
        <time>2022-08-16T10:49:24Z</time>
      </trkpt>
      <trkpt lat="44.45164" lon="6.89646">
        <ele>2406</ele>
        <time>2022-08-16T10:49:25Z</time>
      </trkpt>
      <trkpt lat="44.45162" lon="6.89647">
        <ele>2406</ele>
        <time>2022-08-16T10:49:26Z</time>
      </trkpt>
      <trkpt lat="44.45161" lon="6.89648">
        <ele>2406.2</ele>
        <time>2022-08-16T10:49:27Z</time>
      </trkpt>
      <trkpt lat="44.4516" lon="6.89648">
        <ele>2406.4</ele>
        <time>2022-08-16T10:49:28Z</time>
      </trkpt>
      <trkpt lat="44.45159" lon="6.89649">
        <ele>2406.4</ele>
        <time>2022-08-16T10:49:29Z</time>
      </trkpt>
      <trkpt lat="44.45158" lon="6.8965">
        <ele>2406.8</ele>
        <time>2022-08-16T10:49:30Z</time>
      </trkpt>
      <trkpt lat="44.45157" lon="6.89651">
        <ele>2406.8</ele>
        <time>2022-08-16T10:49:31Z</time>
      </trkpt>
      <trkpt lat="44.45156" lon="6.89652">
        <ele>2407</ele>
        <time>2022-08-16T10:49:32Z</time>
      </trkpt>
      <trkpt lat="44.45155" lon="6.89653">
        <ele>2407.2</ele>
        <time>2022-08-16T10:49:33Z</time>
      </trkpt>
      <trkpt lat="44.45155" lon="6.89654">
        <ele>2407.2</ele>
        <time>2022-08-16T10:49:34Z</time>
      </trkpt>
      <trkpt lat="44.45154" lon="6.89655">
        <ele>2407.4</ele>
        <time>2022-08-16T10:49:35Z</time>
      </trkpt>
      <trkpt lat="44.45153" lon="6.89656">
        <ele>2407.4</ele>
        <time>2022-08-16T10:49:36Z</time>
      </trkpt>
      <trkpt lat="44.45152" lon="6.89657">
        <ele>2407.4</ele>
        <time>2022-08-16T10:49:37Z</time>
      </trkpt>
      <trkpt lat="44.45151" lon="6.89657">
        <ele>2407.6</ele>
        <time>2022-08-16T10:49:38Z</time>
      </trkpt>
      <trkpt lat="44.4515" lon="6.89658">
        <ele>2407.6</ele>
        <time>2022-08-16T10:49:39Z</time>
      </trkpt>
      <trkpt lat="44.45149" lon="6.89659">
        <ele>2407.6</ele>
        <time>2022-08-16T10:49:40Z</time>
      </trkpt>
      <trkpt lat="44.45148" lon="6.8966">
        <ele>2407.8</ele>
        <time>2022-08-16T10:49:41Z</time>
      </trkpt>
      <trkpt lat="44.45147" lon="6.8966">
        <ele>2408.2</ele>
        <time>2022-08-16T10:49:42Z</time>
      </trkpt>
      <trkpt lat="44.45146" lon="6.89662">
        <ele>2408.6</ele>
        <time>2022-08-16T10:49:43Z</time>
      </trkpt>
      <trkpt lat="44.45146" lon="6.89663">
        <ele>2408.6</ele>
        <time>2022-08-16T10:49:44Z</time>
      </trkpt>
      <trkpt lat="44.45145" lon="6.89664">
        <ele>2408.8</ele>
        <time>2022-08-16T10:49:45Z</time>
      </trkpt>
      <trkpt lat="44.45144" lon="6.89666">
        <ele>2408.8</ele>
        <time>2022-08-16T10:49:46Z</time>
      </trkpt>
      <trkpt lat="44.45144" lon="6.89667">
        <ele>2409.2</ele>
        <time>2022-08-16T10:49:47Z</time>
      </trkpt>
      <trkpt lat="44.45143" lon="6.89669">
        <ele>2409.4</ele>
        <time>2022-08-16T10:49:48Z</time>
      </trkpt>
      <trkpt lat="44.45142" lon="6.8967">
        <ele>2409.8</ele>
        <time>2022-08-16T10:49:49Z</time>
      </trkpt>
      <trkpt lat="44.45142" lon="6.89672">
        <ele>2410</ele>
        <time>2022-08-16T10:49:50Z</time>
      </trkpt>
      <trkpt lat="44.45141" lon="6.89673">
        <ele>2410</ele>
        <time>2022-08-16T10:49:51Z</time>
      </trkpt>
      <trkpt lat="44.4514" lon="6.89674">
        <ele>2410</ele>
        <time>2022-08-16T10:49:52Z</time>
      </trkpt>
      <trkpt lat="44.45139" lon="6.89675">
        <ele>2410.4</ele>
        <time>2022-08-16T10:49:53Z</time>
      </trkpt>
      <trkpt lat="44.45138" lon="6.89676">
        <ele>2410.4</ele>
        <time>2022-08-16T10:49:54Z</time>
      </trkpt>
      <trkpt lat="44.45138" lon="6.89677">
        <ele>2410.6</ele>
        <time>2022-08-16T10:49:55Z</time>
      </trkpt>
      <trkpt lat="44.45137" lon="6.89678">
        <ele>2410.6</ele>
        <time>2022-08-16T10:49:56Z</time>
      </trkpt>
      <trkpt lat="44.45136" lon="6.89679">
        <ele>2411</ele>
        <time>2022-08-16T10:49:57Z</time>
      </trkpt>
      <trkpt lat="44.45136" lon="6.8968">
        <ele>2411.2</ele>
        <time>2022-08-16T10:49:58Z</time>
      </trkpt>
      <trkpt lat="44.45135" lon="6.89682">
        <ele>2411.2</ele>
        <time>2022-08-16T10:49:59Z</time>
      </trkpt>
      <trkpt lat="44.45134" lon="6.89683">
        <ele>2411.8</ele>
        <time>2022-08-16T10:50:00Z</time>
      </trkpt>
      <trkpt lat="44.45133" lon="6.89684">
        <ele>2412</ele>
        <time>2022-08-16T10:50:01Z</time>
      </trkpt>
      <trkpt lat="44.45132" lon="6.89685">
        <ele>2412.2</ele>
        <time>2022-08-16T10:50:02Z</time>
      </trkpt>
      <trkpt lat="44.45132" lon="6.89686">
        <ele>2412.4</ele>
        <time>2022-08-16T10:50:03Z</time>
      </trkpt>
      <trkpt lat="44.45131" lon="6.89686">
        <ele>2412.6</ele>
        <time>2022-08-16T10:50:04Z</time>
      </trkpt>
      <trkpt lat="44.4513" lon="6.89687">
        <ele>2412.8</ele>
        <time>2022-08-16T10:50:05Z</time>
      </trkpt>
      <trkpt lat="44.45129" lon="6.89688">
        <ele>2412.8</ele>
        <time>2022-08-16T10:50:06Z</time>
      </trkpt>
      <trkpt lat="44.45128" lon="6.89689">
        <ele>2413</ele>
        <time>2022-08-16T10:50:07Z</time>
      </trkpt>
      <trkpt lat="44.45127" lon="6.8969">
        <ele>2413</ele>
        <time>2022-08-16T10:50:08Z</time>
      </trkpt>
      <trkpt lat="44.45126" lon="6.89691">
        <ele>2413</ele>
        <time>2022-08-16T10:50:09Z</time>
      </trkpt>
      <trkpt lat="44.45126" lon="6.89693">
        <ele>2413.4</ele>
        <time>2022-08-16T10:50:10Z</time>
      </trkpt>
      <trkpt lat="44.45125" lon="6.89694">
        <ele>2413.6</ele>
        <time>2022-08-16T10:50:11Z</time>
      </trkpt>
      <trkpt lat="44.45125" lon="6.89695">
        <ele>2413.8</ele>
        <time>2022-08-16T10:50:12Z</time>
      </trkpt>
      <trkpt lat="44.45124" lon="6.89696">
        <ele>2414</ele>
        <time>2022-08-16T10:50:13Z</time>
      </trkpt>
      <trkpt lat="44.45123" lon="6.89697">
        <ele>2414.4</ele>
        <time>2022-08-16T10:50:14Z</time>
      </trkpt>
      <trkpt lat="44.45122" lon="6.89698">
        <ele>2414.6</ele>
        <time>2022-08-16T10:50:15Z</time>
      </trkpt>
      <trkpt lat="44.45122" lon="6.89699">
        <ele>2415</ele>
        <time>2022-08-16T10:50:16Z</time>
      </trkpt>
      <trkpt lat="44.45121" lon="6.897">
        <ele>2415</ele>
        <time>2022-08-16T10:50:17Z</time>
      </trkpt>
      <trkpt lat="44.45121" lon="6.89701">
        <ele>2415</ele>
        <time>2022-08-16T10:50:18Z</time>
      </trkpt>
      <trkpt lat="44.4512" lon="6.89703">
        <ele>2415.2</ele>
        <time>2022-08-16T10:50:19Z</time>
      </trkpt>
      <trkpt lat="44.45119" lon="6.89704">
        <ele>2415.4</ele>
        <time>2022-08-16T10:50:20Z</time>
      </trkpt>
      <trkpt lat="44.45118" lon="6.89705">
        <ele>2415.6</ele>
        <time>2022-08-16T10:50:21Z</time>
      </trkpt>
      <trkpt lat="44.45118" lon="6.89706">
        <ele>2416</ele>
        <time>2022-08-16T10:50:22Z</time>
      </trkpt>
      <trkpt lat="44.45117" lon="6.89707">
        <ele>2416</ele>
        <time>2022-08-16T10:50:23Z</time>
      </trkpt>
      <trkpt lat="44.45116" lon="6.89709">
        <ele>2416.4</ele>
        <time>2022-08-16T10:50:24Z</time>
      </trkpt>
      <trkpt lat="44.45115" lon="6.8971">
        <ele>2416.6</ele>
        <time>2022-08-16T10:50:25Z</time>
      </trkpt>
      <trkpt lat="44.45115" lon="6.89711">
        <ele>2416.8</ele>
        <time>2022-08-16T10:50:26Z</time>
      </trkpt>
      <trkpt lat="44.45114" lon="6.89713">
        <ele>2417</ele>
        <time>2022-08-16T10:50:27Z</time>
      </trkpt>
      <trkpt lat="44.45113" lon="6.89714">
        <ele>2417.4</ele>
        <time>2022-08-16T10:50:28Z</time>
      </trkpt>
      <trkpt lat="44.45112" lon="6.89715">
        <ele>2417.4</ele>
        <time>2022-08-16T10:50:29Z</time>
      </trkpt>
      <trkpt lat="44.45111" lon="6.89716">
        <ele>2417.4</ele>
        <time>2022-08-16T10:50:30Z</time>
      </trkpt>
      <trkpt lat="44.4511" lon="6.89717">
        <ele>2417.6</ele>
        <time>2022-08-16T10:50:31Z</time>
      </trkpt>
      <trkpt lat="44.45109" lon="6.89717">
        <ele>2417.8</ele>
        <time>2022-08-16T10:50:32Z</time>
      </trkpt>
      <trkpt lat="44.45108" lon="6.89718">
        <ele>2418.2</ele>
        <time>2022-08-16T10:50:33Z</time>
      </trkpt>
      <trkpt lat="44.45107" lon="6.89718">
        <ele>2418.4</ele>
        <time>2022-08-16T10:50:34Z</time>
      </trkpt>
      <trkpt lat="44.45106" lon="6.89719">
        <ele>2418.6</ele>
        <time>2022-08-16T10:50:35Z</time>
      </trkpt>
      <trkpt lat="44.45105" lon="6.89719">
        <ele>2419</ele>
        <time>2022-08-16T10:50:36Z</time>
      </trkpt>
      <trkpt lat="44.45104" lon="6.8972">
        <ele>2419</ele>
        <time>2022-08-16T10:50:37Z</time>
      </trkpt>
      <trkpt lat="44.45103" lon="6.89721">
        <ele>2419.2</ele>
        <time>2022-08-16T10:50:38Z</time>
      </trkpt>
      <trkpt lat="44.45102" lon="6.89722">
        <ele>2419.2</ele>
        <time>2022-08-16T10:50:39Z</time>
      </trkpt>
      <trkpt lat="44.45101" lon="6.89723">
        <ele>2419.4</ele>
        <time>2022-08-16T10:50:40Z</time>
      </trkpt>
      <trkpt lat="44.451" lon="6.89723">
        <ele>2419.6</ele>
        <time>2022-08-16T10:50:41Z</time>
      </trkpt>
      <trkpt lat="44.45099" lon="6.89724">
        <ele>2419.6</ele>
        <time>2022-08-16T10:50:42Z</time>
      </trkpt>
      <trkpt lat="44.45098" lon="6.89725">
        <ele>2419.8</ele>
        <time>2022-08-16T10:50:43Z</time>
      </trkpt>
      <trkpt lat="44.45097" lon="6.89726">
        <ele>2420</ele>
        <time>2022-08-16T10:50:44Z</time>
      </trkpt>
      <trkpt lat="44.45096" lon="6.89727">
        <ele>2420.4</ele>
        <time>2022-08-16T10:50:45Z</time>
      </trkpt>
      <trkpt lat="44.45095" lon="6.89727">
        <ele>2420.6</ele>
        <time>2022-08-16T10:50:46Z</time>
      </trkpt>
      <trkpt lat="44.45094" lon="6.89728">
        <ele>2420.6</ele>
        <time>2022-08-16T10:50:47Z</time>
      </trkpt>
      <trkpt lat="44.45094" lon="6.89728">
        <ele>2420.8</ele>
        <time>2022-08-16T10:50:48Z</time>
      </trkpt>
      <trkpt lat="44.45093" lon="6.89729">
        <ele>2420.8</ele>
        <time>2022-08-16T10:50:49Z</time>
      </trkpt>
      <trkpt lat="44.45092" lon="6.8973">
        <ele>2421</ele>
        <time>2022-08-16T10:50:50Z</time>
      </trkpt>
      <trkpt lat="44.45091" lon="6.89732">
        <ele>2421</ele>
        <time>2022-08-16T10:50:51Z</time>
      </trkpt>
      <trkpt lat="44.45091" lon="6.89733">
        <ele>2421</ele>
        <time>2022-08-16T10:50:52Z</time>
      </trkpt>
      <trkpt lat="44.4509" lon="6.89734">
        <ele>2421.2</ele>
        <time>2022-08-16T10:50:53Z</time>
      </trkpt>
      <trkpt lat="44.45089" lon="6.89735">
        <ele>2421.2</ele>
        <time>2022-08-16T10:50:54Z</time>
      </trkpt>
      <trkpt lat="44.45089" lon="6.89736">
        <ele>2421.4</ele>
        <time>2022-08-16T10:50:55Z</time>
      </trkpt>
      <trkpt lat="44.45088" lon="6.89737">
        <ele>2421.6</ele>
        <time>2022-08-16T10:50:56Z</time>
      </trkpt>
      <trkpt lat="44.45087" lon="6.89738">
        <ele>2421.6</ele>
        <time>2022-08-16T10:50:57Z</time>
      </trkpt>
      <trkpt lat="44.45086" lon="6.89739">
        <ele>2421.8</ele>
        <time>2022-08-16T10:50:58Z</time>
      </trkpt>
      <trkpt lat="44.45086" lon="6.8974">
        <ele>2421.8</ele>
        <time>2022-08-16T10:50:59Z</time>
      </trkpt>
      <trkpt lat="44.45085" lon="6.89742">
        <ele>2421.8</ele>
        <time>2022-08-16T10:51:00Z</time>
      </trkpt>
      <trkpt lat="44.45084" lon="6.89742">
        <ele>2422</ele>
        <time>2022-08-16T10:51:01Z</time>
      </trkpt>
      <trkpt lat="44.45083" lon="6.89743">
        <ele>2422.2</ele>
        <time>2022-08-16T10:51:02Z</time>
      </trkpt>
      <trkpt lat="44.45082" lon="6.89744">
        <ele>2422.6</ele>
        <time>2022-08-16T10:51:03Z</time>
      </trkpt>
      <trkpt lat="44.45082" lon="6.89745">
        <ele>2422.6</ele>
        <time>2022-08-16T10:51:04Z</time>
      </trkpt>
      <trkpt lat="44.45081" lon="6.89747">
        <ele>2422.8</ele>
        <time>2022-08-16T10:51:05Z</time>
      </trkpt>
      <trkpt lat="44.4508" lon="6.89748">
        <ele>2423.4</ele>
        <time>2022-08-16T10:51:06Z</time>
      </trkpt>
      <trkpt lat="44.45079" lon="6.89749">
        <ele>2423.6</ele>
        <time>2022-08-16T10:51:07Z</time>
      </trkpt>
      <trkpt lat="44.45078" lon="6.89749">
        <ele>2423.8</ele>
        <time>2022-08-16T10:51:08Z</time>
      </trkpt>
      <trkpt lat="44.45078" lon="6.8975">
        <ele>2424</ele>
        <time>2022-08-16T10:51:09Z</time>
      </trkpt>
      <trkpt lat="44.45077" lon="6.89751">
        <ele>2424</ele>
        <time>2022-08-16T10:51:10Z</time>
      </trkpt>
      <trkpt lat="44.45076" lon="6.89752">
        <ele>2424.2</ele>
        <time>2022-08-16T10:51:11Z</time>
      </trkpt>
      <trkpt lat="44.45075" lon="6.89752">
        <ele>2424.2</ele>
        <time>2022-08-16T10:51:12Z</time>
      </trkpt>
      <trkpt lat="44.45074" lon="6.89753">
        <ele>2424.4</ele>
        <time>2022-08-16T10:51:13Z</time>
      </trkpt>
      <trkpt lat="44.45073" lon="6.89754">
        <ele>2424.4</ele>
        <time>2022-08-16T10:51:14Z</time>
      </trkpt>
      <trkpt lat="44.45072" lon="6.89755">
        <ele>2424.6</ele>
        <time>2022-08-16T10:51:15Z</time>
      </trkpt>
      <trkpt lat="44.45071" lon="6.89755">
        <ele>2424.8</ele>
        <time>2022-08-16T10:51:16Z</time>
      </trkpt>
      <trkpt lat="44.4507" lon="6.89756">
        <ele>2424.8</ele>
        <time>2022-08-16T10:51:17Z</time>
      </trkpt>
      <trkpt lat="44.45069" lon="6.89757">
        <ele>2425</ele>
        <time>2022-08-16T10:51:18Z</time>
      </trkpt>
      <trkpt lat="44.45068" lon="6.89758">
        <ele>2425.2</ele>
        <time>2022-08-16T10:51:19Z</time>
      </trkpt>
      <trkpt lat="44.45068" lon="6.89759">
        <ele>2425.2</ele>
        <time>2022-08-16T10:51:20Z</time>
      </trkpt>
      <trkpt lat="44.45067" lon="6.89759">
        <ele>2425.4</ele>
        <time>2022-08-16T10:51:21Z</time>
      </trkpt>
      <trkpt lat="44.45065" lon="6.8976">
        <ele>2425.4</ele>
        <time>2022-08-16T10:51:22Z</time>
      </trkpt>
      <trkpt lat="44.45064" lon="6.89761">
        <ele>2425.6</ele>
        <time>2022-08-16T10:51:23Z</time>
      </trkpt>
      <trkpt lat="44.45063" lon="6.89761">
        <ele>2425.8</ele>
        <time>2022-08-16T10:51:24Z</time>
      </trkpt>
      <trkpt lat="44.45062" lon="6.89762">
        <ele>2426</ele>
        <time>2022-08-16T10:51:25Z</time>
      </trkpt>
      <trkpt lat="44.45061" lon="6.89762">
        <ele>2426.4</ele>
        <time>2022-08-16T10:51:26Z</time>
      </trkpt>
      <trkpt lat="44.4506" lon="6.89763">
        <ele>2426.4</ele>
        <time>2022-08-16T10:51:27Z</time>
      </trkpt>
      <trkpt lat="44.45059" lon="6.89763">
        <ele>2426.6</ele>
        <time>2022-08-16T10:51:28Z</time>
      </trkpt>
      <trkpt lat="44.45058" lon="6.89763">
        <ele>2426.8</ele>
        <time>2022-08-16T10:51:29Z</time>
      </trkpt>
      <trkpt lat="44.45057" lon="6.89764">
        <ele>2427</ele>
        <time>2022-08-16T10:51:30Z</time>
      </trkpt>
      <trkpt lat="44.45056" lon="6.89765">
        <ele>2427</ele>
        <time>2022-08-16T10:51:31Z</time>
      </trkpt>
      <trkpt lat="44.45055" lon="6.89766">
        <ele>2427.2</ele>
        <time>2022-08-16T10:51:32Z</time>
      </trkpt>
      <trkpt lat="44.45054" lon="6.89767">
        <ele>2427.2</ele>
        <time>2022-08-16T10:51:33Z</time>
      </trkpt>
      <trkpt lat="44.45053" lon="6.89768">
        <ele>2427.4</ele>
        <time>2022-08-16T10:51:34Z</time>
      </trkpt>
      <trkpt lat="44.45052" lon="6.89769">
        <ele>2427.6</ele>
        <time>2022-08-16T10:51:35Z</time>
      </trkpt>
      <trkpt lat="44.45051" lon="6.8977">
        <ele>2427.8</ele>
        <time>2022-08-16T10:51:36Z</time>
      </trkpt>
      <trkpt lat="44.4505" lon="6.8977">
        <ele>2427.8</ele>
        <time>2022-08-16T10:51:37Z</time>
      </trkpt>
      <trkpt lat="44.45049" lon="6.89771">
        <ele>2427.8</ele>
        <time>2022-08-16T10:51:38Z</time>
      </trkpt>
      <trkpt lat="44.45048" lon="6.89772">
        <ele>2428</ele>
        <time>2022-08-16T10:51:39Z</time>
      </trkpt>
      <trkpt lat="44.45048" lon="6.89773">
        <ele>2428.2</ele>
        <time>2022-08-16T10:51:40Z</time>
      </trkpt>
      <trkpt lat="44.45047" lon="6.89773">
        <ele>2428.4</ele>
        <time>2022-08-16T10:51:41Z</time>
      </trkpt>
      <trkpt lat="44.45046" lon="6.89775">
        <ele>2428.4</ele>
        <time>2022-08-16T10:51:42Z</time>
      </trkpt>
      <trkpt lat="44.45045" lon="6.89776">
        <ele>2428.6</ele>
        <time>2022-08-16T10:51:43Z</time>
      </trkpt>
      <trkpt lat="44.45044" lon="6.89777">
        <ele>2428.8</ele>
        <time>2022-08-16T10:51:44Z</time>
      </trkpt>
      <trkpt lat="44.45043" lon="6.89778">
        <ele>2428.8</ele>
        <time>2022-08-16T10:51:45Z</time>
      </trkpt>
      <trkpt lat="44.45042" lon="6.89779">
        <ele>2429</ele>
        <time>2022-08-16T10:51:46Z</time>
      </trkpt>
      <trkpt lat="44.45041" lon="6.8978">
        <ele>2429.4</ele>
        <time>2022-08-16T10:51:47Z</time>
      </trkpt>
      <trkpt lat="44.45041" lon="6.89781">
        <ele>2429.4</ele>
        <time>2022-08-16T10:51:48Z</time>
      </trkpt>
      <trkpt lat="44.4504" lon="6.89782">
        <ele>2429.6</ele>
        <time>2022-08-16T10:51:49Z</time>
      </trkpt>
      <trkpt lat="44.45038" lon="6.89783">
        <ele>2429.8</ele>
        <time>2022-08-16T10:51:50Z</time>
      </trkpt>
      <trkpt lat="44.45037" lon="6.89783">
        <ele>2430</ele>
        <time>2022-08-16T10:51:51Z</time>
      </trkpt>
      <trkpt lat="44.45036" lon="6.89784">
        <ele>2430</ele>
        <time>2022-08-16T10:51:52Z</time>
      </trkpt>
      <trkpt lat="44.45035" lon="6.89785">
        <ele>2430.2</ele>
        <time>2022-08-16T10:51:53Z</time>
      </trkpt>
      <trkpt lat="44.45034" lon="6.89786">
        <ele>2430.4</ele>
        <time>2022-08-16T10:51:54Z</time>
      </trkpt>
      <trkpt lat="44.45033" lon="6.89787">
        <ele>2430.4</ele>
        <time>2022-08-16T10:51:55Z</time>
      </trkpt>
      <trkpt lat="44.45032" lon="6.89788">
        <ele>2431</ele>
        <time>2022-08-16T10:51:56Z</time>
      </trkpt>
      <trkpt lat="44.45031" lon="6.89789">
        <ele>2431.2</ele>
        <time>2022-08-16T10:51:57Z</time>
      </trkpt>
      <trkpt lat="44.4503" lon="6.8979">
        <ele>2431.2</ele>
        <time>2022-08-16T10:51:58Z</time>
      </trkpt>
      <trkpt lat="44.45029" lon="6.89791">
        <ele>2431.4</ele>
        <time>2022-08-16T10:51:59Z</time>
      </trkpt>
      <trkpt lat="44.45028" lon="6.89791">
        <ele>2431.8</ele>
        <time>2022-08-16T10:52:00Z</time>
      </trkpt>
      <trkpt lat="44.45027" lon="6.89792">
        <ele>2432</ele>
        <time>2022-08-16T10:52:01Z</time>
      </trkpt>
      <trkpt lat="44.45026" lon="6.89792">
        <ele>2432.2</ele>
        <time>2022-08-16T10:52:02Z</time>
      </trkpt>
      <trkpt lat="44.45025" lon="6.89793">
        <ele>2432.4</ele>
        <time>2022-08-16T10:52:03Z</time>
      </trkpt>
      <trkpt lat="44.45024" lon="6.89793">
        <ele>2432.6</ele>
        <time>2022-08-16T10:52:04Z</time>
      </trkpt>
      <trkpt lat="44.45022" lon="6.89794">
        <ele>2432.6</ele>
        <time>2022-08-16T10:52:05Z</time>
      </trkpt>
      <trkpt lat="44.45021" lon="6.89795">
        <ele>2432.8</ele>
        <time>2022-08-16T10:52:06Z</time>
      </trkpt>
      <trkpt lat="44.4502" lon="6.89795">
        <ele>2433</ele>
        <time>2022-08-16T10:52:07Z</time>
      </trkpt>
      <trkpt lat="44.45019" lon="6.89795">
        <ele>2433.2</ele>
        <time>2022-08-16T10:52:08Z</time>
      </trkpt>
      <trkpt lat="44.45017" lon="6.89795">
        <ele>2433.8</ele>
        <time>2022-08-16T10:52:09Z</time>
      </trkpt>
      <trkpt lat="44.45016" lon="6.89796">
        <ele>2434</ele>
        <time>2022-08-16T10:52:10Z</time>
      </trkpt>
      <trkpt lat="44.45015" lon="6.89797">
        <ele>2434.4</ele>
        <time>2022-08-16T10:52:11Z</time>
      </trkpt>
      <trkpt lat="44.45014" lon="6.89797">
        <ele>2434.4</ele>
        <time>2022-08-16T10:52:12Z</time>
      </trkpt>
      <trkpt lat="44.45013" lon="6.89797">
        <ele>2434.6</ele>
        <time>2022-08-16T10:52:13Z</time>
      </trkpt>
      <trkpt lat="44.45012" lon="6.89796">
        <ele>2434.6</ele>
        <time>2022-08-16T10:52:14Z</time>
      </trkpt>
      <trkpt lat="44.45011" lon="6.89796">
        <ele>2435</ele>
        <time>2022-08-16T10:52:15Z</time>
      </trkpt>
      <trkpt lat="44.45009" lon="6.89795">
        <ele>2435</ele>
        <time>2022-08-16T10:52:16Z</time>
      </trkpt>
      <trkpt lat="44.45008" lon="6.89795">
        <ele>2435</ele>
        <time>2022-08-16T10:52:17Z</time>
      </trkpt>
      <trkpt lat="44.45007" lon="6.89795">
        <ele>2435.2</ele>
        <time>2022-08-16T10:52:18Z</time>
      </trkpt>
      <trkpt lat="44.45006" lon="6.89794">
        <ele>2435.4</ele>
        <time>2022-08-16T10:52:19Z</time>
      </trkpt>
      <trkpt lat="44.45005" lon="6.89795">
        <ele>2435.4</ele>
        <time>2022-08-16T10:52:20Z</time>
      </trkpt>
      <trkpt lat="44.45004" lon="6.89795">
        <ele>2435.6</ele>
        <time>2022-08-16T10:52:21Z</time>
      </trkpt>
      <trkpt lat="44.45003" lon="6.89796">
        <ele>2435.8</ele>
        <time>2022-08-16T10:52:22Z</time>
      </trkpt>
      <trkpt lat="44.45001" lon="6.89796">
        <ele>2435.8</ele>
        <time>2022-08-16T10:52:23Z</time>
      </trkpt>
      <trkpt lat="44.45" lon="6.89796">
        <ele>2436.2</ele>
        <time>2022-08-16T10:52:24Z</time>
      </trkpt>
      <trkpt lat="44.44999" lon="6.89796">
        <ele>2436.4</ele>
        <time>2022-08-16T10:52:25Z</time>
      </trkpt>
      <trkpt lat="44.44998" lon="6.89796">
        <ele>2436.6</ele>
        <time>2022-08-16T10:52:26Z</time>
      </trkpt>
      <trkpt lat="44.44996" lon="6.89796">
        <ele>2437</ele>
        <time>2022-08-16T10:52:27Z</time>
      </trkpt>
      <trkpt lat="44.44995" lon="6.89797">
        <ele>2437.2</ele>
        <time>2022-08-16T10:52:28Z</time>
      </trkpt>
      <trkpt lat="44.44994" lon="6.89798">
        <ele>2437.4</ele>
        <time>2022-08-16T10:52:29Z</time>
      </trkpt>
      <trkpt lat="44.44993" lon="6.89798">
        <ele>2437.6</ele>
        <time>2022-08-16T10:52:30Z</time>
      </trkpt>
      <trkpt lat="44.44992" lon="6.89799">
        <ele>2437.8</ele>
        <time>2022-08-16T10:52:31Z</time>
      </trkpt>
      <trkpt lat="44.44991" lon="6.898">
        <ele>2438.2</ele>
        <time>2022-08-16T10:52:32Z</time>
      </trkpt>
      <trkpt lat="44.4499" lon="6.89801">
        <ele>2438.2</ele>
        <time>2022-08-16T10:52:33Z</time>
      </trkpt>
      <trkpt lat="44.44989" lon="6.89802">
        <ele>2438.6</ele>
        <time>2022-08-16T10:52:34Z</time>
      </trkpt>
      <trkpt lat="44.44988" lon="6.89803">
        <ele>2438.8</ele>
        <time>2022-08-16T10:52:35Z</time>
      </trkpt>
      <trkpt lat="44.44987" lon="6.89805">
        <ele>2439.2</ele>
        <time>2022-08-16T10:52:36Z</time>
      </trkpt>
      <trkpt lat="44.44986" lon="6.89806">
        <ele>2439.4</ele>
        <time>2022-08-16T10:52:37Z</time>
      </trkpt>
      <trkpt lat="44.44986" lon="6.89808">
        <ele>2439.6</ele>
        <time>2022-08-16T10:52:38Z</time>
      </trkpt>
      <trkpt lat="44.44984" lon="6.89809">
        <ele>2440</ele>
        <time>2022-08-16T10:52:39Z</time>
      </trkpt>
      <trkpt lat="44.44983" lon="6.8981">
        <ele>2440.2</ele>
        <time>2022-08-16T10:52:40Z</time>
      </trkpt>
      <trkpt lat="44.44982" lon="6.89812">
        <ele>2440.2</ele>
        <time>2022-08-16T10:52:41Z</time>
      </trkpt>
      <trkpt lat="44.44981" lon="6.89813">
        <ele>2440.2</ele>
        <time>2022-08-16T10:52:42Z</time>
      </trkpt>
      <trkpt lat="44.44979" lon="6.89815">
        <ele>2440.4</ele>
        <time>2022-08-16T10:52:43Z</time>
      </trkpt>
      <trkpt lat="44.44978" lon="6.89816">
        <ele>2440.4</ele>
        <time>2022-08-16T10:52:44Z</time>
      </trkpt>
      <trkpt lat="44.44977" lon="6.89818">
        <ele>2440.6</ele>
        <time>2022-08-16T10:52:45Z</time>
      </trkpt>
      <trkpt lat="44.44975" lon="6.89819">
        <ele>2440.6</ele>
        <time>2022-08-16T10:52:46Z</time>
      </trkpt>
      <trkpt lat="44.44974" lon="6.89821">
        <ele>2440.6</ele>
        <time>2022-08-16T10:52:47Z</time>
      </trkpt>
      <trkpt lat="44.44974" lon="6.89823">
        <ele>2440.6</ele>
        <time>2022-08-16T10:52:48Z</time>
      </trkpt>
      <trkpt lat="44.44973" lon="6.89824">
        <ele>2441</ele>
        <time>2022-08-16T10:52:49Z</time>
      </trkpt>
      <trkpt lat="44.44972" lon="6.89825">
        <ele>2441.4</ele>
        <time>2022-08-16T10:52:50Z</time>
      </trkpt>
      <trkpt lat="44.44971" lon="6.89827">
        <ele>2441.4</ele>
        <time>2022-08-16T10:52:51Z</time>
      </trkpt>
      <trkpt lat="44.4497" lon="6.89828">
        <ele>2441.6</ele>
        <time>2022-08-16T10:52:52Z</time>
      </trkpt>
      <trkpt lat="44.44969" lon="6.89829">
        <ele>2441.8</ele>
        <time>2022-08-16T10:52:53Z</time>
      </trkpt>
      <trkpt lat="44.44968" lon="6.89831">
        <ele>2441.8</ele>
        <time>2022-08-16T10:52:54Z</time>
      </trkpt>
      <trkpt lat="44.44967" lon="6.89832">
        <ele>2442</ele>
        <time>2022-08-16T10:52:55Z</time>
      </trkpt>
      <trkpt lat="44.44966" lon="6.89834">
        <ele>2442.2</ele>
        <time>2022-08-16T10:52:56Z</time>
      </trkpt>
      <trkpt lat="44.44966" lon="6.89835">
        <ele>2442.4</ele>
        <time>2022-08-16T10:52:57Z</time>
      </trkpt>
      <trkpt lat="44.44965" lon="6.89836">
        <ele>2442.4</ele>
        <time>2022-08-16T10:52:58Z</time>
      </trkpt>
      <trkpt lat="44.44964" lon="6.89838">
        <ele>2442.6</ele>
        <time>2022-08-16T10:52:59Z</time>
      </trkpt>
      <trkpt lat="44.44963" lon="6.89839">
        <ele>2442.6</ele>
        <time>2022-08-16T10:53:00Z</time>
      </trkpt>
      <trkpt lat="44.44962" lon="6.8984">
        <ele>2442.8</ele>
        <time>2022-08-16T10:53:01Z</time>
      </trkpt>
      <trkpt lat="44.44961" lon="6.89842">
        <ele>2443</ele>
        <time>2022-08-16T10:53:02Z</time>
      </trkpt>
      <trkpt lat="44.4496" lon="6.89843">
        <ele>2443</ele>
        <time>2022-08-16T10:53:03Z</time>
      </trkpt>
      <trkpt lat="44.44959" lon="6.89844">
        <ele>2443</ele>
        <time>2022-08-16T10:53:04Z</time>
      </trkpt>
      <trkpt lat="44.44958" lon="6.89845">
        <ele>2443.2</ele>
        <time>2022-08-16T10:53:05Z</time>
      </trkpt>
      <trkpt lat="44.44956" lon="6.89847">
        <ele>2443.4</ele>
        <time>2022-08-16T10:53:06Z</time>
      </trkpt>
      <trkpt lat="44.44955" lon="6.89848">
        <ele>2443.2</ele>
        <time>2022-08-16T10:53:07Z</time>
      </trkpt>
      <trkpt lat="44.44954" lon="6.89849">
        <ele>2443.4</ele>
        <time>2022-08-16T10:53:08Z</time>
      </trkpt>
      <trkpt lat="44.44953" lon="6.89851">
        <ele>2443.4</ele>
        <time>2022-08-16T10:53:09Z</time>
      </trkpt>
      <trkpt lat="44.4495" lon="6.89855">
        <ele>2443.8</ele>
        <time>2022-08-16T10:53:12Z</time>
      </trkpt>
      <trkpt lat="44.44944" lon="6.89862">
        <ele>2443.8</ele>
        <time>2022-08-16T10:53:17Z</time>
      </trkpt>
      <trkpt lat="44.44941" lon="6.89867">
        <ele>2444</ele>
        <time>2022-08-16T10:53:20Z</time>
      </trkpt>
      <trkpt lat="44.4494" lon="6.89868">
        <ele>2444</ele>
        <time>2022-08-16T10:53:21Z</time>
      </trkpt>
      <trkpt lat="44.44939" lon="6.89869">
        <ele>2443.8</ele>
        <time>2022-08-16T10:53:22Z</time>
      </trkpt>
      <trkpt lat="44.44938" lon="6.8987">
        <ele>2444</ele>
        <time>2022-08-16T10:53:23Z</time>
      </trkpt>
      <trkpt lat="44.44937" lon="6.8987">
        <ele>2444</ele>
        <time>2022-08-16T10:53:24Z</time>
      </trkpt>
      <trkpt lat="44.44936" lon="6.8987">
        <ele>2444</ele>
        <time>2022-08-16T10:53:25Z</time>
      </trkpt>
      <trkpt lat="44.44935" lon="6.89871">
        <ele>2444</ele>
        <time>2022-08-16T10:53:26Z</time>
      </trkpt>
      <trkpt lat="44.44934" lon="6.89871">
        <ele>2444</ele>
        <time>2022-08-16T10:53:27Z</time>
      </trkpt>
      <trkpt lat="44.44933" lon="6.89871">
        <ele>2444.2</ele>
        <time>2022-08-16T10:53:28Z</time>
      </trkpt>
      <trkpt lat="44.44932" lon="6.89871">
        <ele>2444</ele>
        <time>2022-08-16T10:53:29Z</time>
      </trkpt>
      <trkpt lat="44.44932" lon="6.8987">
        <ele>2444.4</ele>
        <time>2022-08-16T10:53:34Z</time>
      </trkpt>
      <trkpt lat="44.44932" lon="6.8987">
        <ele>2444.2</ele>
        <time>2022-08-16T10:53:35Z</time>
      </trkpt>
      <trkpt lat="44.44931" lon="6.8987">
        <ele>2444.2</ele>
        <time>2022-08-16T10:53:36Z</time>
      </trkpt>
      <trkpt lat="44.44931" lon="6.8987">
        <ele>2444.2</ele>
        <time>2022-08-16T10:53:40Z</time>
      </trkpt>
      <trkpt lat="44.44931" lon="6.8987">
        <ele>2444</ele>
        <time>2022-08-16T10:53:45Z</time>
      </trkpt>
      <trkpt lat="44.44931" lon="6.8987">
        <ele>2443.6</ele>
        <time>2022-08-16T10:55:18Z</time>
      </trkpt>
      <trkpt lat="44.44931" lon="6.8987">
        <ele>2443.6</ele>
        <time>2022-08-16T10:55:24Z</time>
      </trkpt>
      <trkpt lat="44.44931" lon="6.8987">
        <ele>2443</ele>
        <time>2022-08-16T10:56:29Z</time>
      </trkpt>
      <trkpt lat="44.44931" lon="6.8987">
        <ele>2443.8</ele>
        <time>2022-08-16T10:57:14Z</time>
      </trkpt>
      <trkpt lat="44.44931" lon="6.8987">
        <ele>2443.4</ele>
        <time>2022-08-16T10:57:18Z</time>
      </trkpt>
      <trkpt lat="44.44931" lon="6.8987">
        <ele>2443</ele>
        <time>2022-08-16T10:58:22Z</time>
      </trkpt>
      <trkpt lat="44.44931" lon="6.8987">
        <ele>2442.8</ele>
        <time>2022-08-16T10:59:00Z</time>
      </trkpt>
      <trkpt lat="44.44931" lon="6.8987">
        <ele>2443.4</ele>
        <time>2022-08-16T10:59:12Z</time>
      </trkpt>
      <trkpt lat="44.44931" lon="6.8987">
        <ele>2442.8</ele>
        <time>2022-08-16T10:59:46Z</time>
      </trkpt>
      <trkpt lat="44.44932" lon="6.89873">
        <ele>2443</ele>
        <time>2022-08-16T11:00:07Z</time>
      </trkpt>
      <trkpt lat="44.44932" lon="6.89875">
        <ele>2442.8</ele>
        <time>2022-08-16T11:00:11Z</time>
      </trkpt>
      <trkpt lat="44.44932" lon="6.89875">
        <ele>2443</ele>
        <time>2022-08-16T11:00:16Z</time>
      </trkpt>
      <trkpt lat="44.44932" lon="6.89875">
        <ele>2443</ele>
        <time>2022-08-16T11:00:17Z</time>
      </trkpt>
      <trkpt lat="44.44932" lon="6.89875">
        <ele>2443</ele>
        <time>2022-08-16T11:00:20Z</time>
      </trkpt>
      <trkpt lat="44.44932" lon="6.89875">
        <ele>2443</ele>
        <time>2022-08-16T11:00:21Z</time>
      </trkpt>
      <trkpt lat="44.44932" lon="6.89875">
        <ele>2443</ele>
        <time>2022-08-16T11:00:24Z</time>
      </trkpt>
      <trkpt lat="44.44932" lon="6.89875">
        <ele>2443</ele>
        <time>2022-08-16T11:00:28Z</time>
      </trkpt>
      <trkpt lat="44.44931" lon="6.89877">
        <ele>2442.8</ele>
        <time>2022-08-16T11:00:29Z</time>
      </trkpt>
      <trkpt lat="44.44929" lon="6.89881">
        <ele>2442.8</ele>
        <time>2022-08-16T11:00:31Z</time>
      </trkpt>
      <trkpt lat="44.44928" lon="6.89884">
        <ele>2442.8</ele>
        <time>2022-08-16T11:00:32Z</time>
      </trkpt>
      <trkpt lat="44.44926" lon="6.8989">
        <ele>2442.8</ele>
        <time>2022-08-16T11:00:34Z</time>
      </trkpt>
      <trkpt lat="44.44921" lon="6.89899">
        <ele>2442.6</ele>
        <time>2022-08-16T11:00:36Z</time>
      </trkpt>
      <trkpt lat="44.44917" lon="6.89904">
        <ele>2442.6</ele>
        <time>2022-08-16T11:00:37Z</time>
      </trkpt>
      <trkpt lat="44.44913" lon="6.89909">
        <ele>2442.4</ele>
        <time>2022-08-16T11:00:38Z</time>
      </trkpt>
      <trkpt lat="44.44903" lon="6.8992">
        <ele>2442.2</ele>
        <time>2022-08-16T11:00:40Z</time>
      </trkpt>
      <trkpt lat="44.44899" lon="6.89928">
        <ele>2442</ele>
        <time>2022-08-16T11:00:41Z</time>
      </trkpt>
      <trkpt lat="44.44894" lon="6.89935">
        <ele>2442</ele>
        <time>2022-08-16T11:00:42Z</time>
      </trkpt>
      <trkpt lat="44.44889" lon="6.89942">
        <ele>2442</ele>
        <time>2022-08-16T11:00:43Z</time>
      </trkpt>
      <trkpt lat="44.44885" lon="6.89949">
        <ele>2442</ele>
        <time>2022-08-16T11:00:44Z</time>
      </trkpt>
      <trkpt lat="44.4488" lon="6.89957">
        <ele>2441.6</ele>
        <time>2022-08-16T11:00:45Z</time>
      </trkpt>
      <trkpt lat="44.44869" lon="6.89974">
        <ele>2440.2</ele>
        <time>2022-08-16T11:00:47Z</time>
      </trkpt>
      <trkpt lat="44.44864" lon="6.89983">
        <ele>2439.6</ele>
        <time>2022-08-16T11:00:48Z</time>
      </trkpt>
      <trkpt lat="44.44859" lon="6.8999">
        <ele>2439</ele>
        <time>2022-08-16T11:00:49Z</time>
      </trkpt>
      <trkpt lat="44.44854" lon="6.89996">
        <ele>2437.6</ele>
        <time>2022-08-16T11:00:50Z</time>
      </trkpt>
      <trkpt lat="44.44849" lon="6.90001">
        <ele>2436.4</ele>
        <time>2022-08-16T11:00:51Z</time>
      </trkpt>
      <trkpt lat="44.44843" lon="6.90008">
        <ele>2434.8</ele>
        <time>2022-08-16T11:00:52Z</time>
      </trkpt>
      <trkpt lat="44.44837" lon="6.90015">
        <ele>2434.2</ele>
        <time>2022-08-16T11:00:53Z</time>
      </trkpt>
      <trkpt lat="44.44831" lon="6.90025">
        <ele>2432.8</ele>
        <time>2022-08-16T11:00:54Z</time>
      </trkpt>
      <trkpt lat="44.44825" lon="6.90035">
        <ele>2431.8</ele>
        <time>2022-08-16T11:00:55Z</time>
      </trkpt>
      <trkpt lat="44.44819" lon="6.90046">
        <ele>2430.4</ele>
        <time>2022-08-16T11:00:56Z</time>
      </trkpt>
      <trkpt lat="44.44813" lon="6.90058">
        <ele>2429.4</ele>
        <time>2022-08-16T11:00:57Z</time>
      </trkpt>
      <trkpt lat="44.44807" lon="6.9007">
        <ele>2429</ele>
        <time>2022-08-16T11:00:58Z</time>
      </trkpt>
      <trkpt lat="44.448" lon="6.90083">
        <ele>2428.6</ele>
        <time>2022-08-16T11:00:59Z</time>
      </trkpt>
      <trkpt lat="44.44793" lon="6.90095">
        <ele>2428</ele>
        <time>2022-08-16T11:01:00Z</time>
      </trkpt>
      <trkpt lat="44.44785" lon="6.90107">
        <ele>2427.6</ele>
        <time>2022-08-16T11:01:01Z</time>
      </trkpt>
      <trkpt lat="44.44777" lon="6.90119">
        <ele>2426.2</ele>
        <time>2022-08-16T11:01:02Z</time>
      </trkpt>
      <trkpt lat="44.44771" lon="6.90131">
        <ele>2425</ele>
        <time>2022-08-16T11:01:03Z</time>
      </trkpt>
      <trkpt lat="44.44766" lon="6.90143">
        <ele>2422.6</ele>
        <time>2022-08-16T11:01:04Z</time>
      </trkpt>
      <trkpt lat="44.44761" lon="6.90155">
        <ele>2420</ele>
        <time>2022-08-16T11:01:05Z</time>
      </trkpt>
      <trkpt lat="44.44757" lon="6.90164">
        <ele>2420</ele>
        <time>2022-08-16T11:01:06Z</time>
      </trkpt>
      <trkpt lat="44.44753" lon="6.90173">
        <ele>2417.4</ele>
        <time>2022-08-16T11:01:07Z</time>
      </trkpt>
      <trkpt lat="44.44748" lon="6.9018">
        <ele>2413.8</ele>
        <time>2022-08-16T11:01:08Z</time>
      </trkpt>
      <trkpt lat="44.44743" lon="6.90188">
        <ele>2410.8</ele>
        <time>2022-08-16T11:01:09Z</time>
      </trkpt>
      <trkpt lat="44.44737" lon="6.90196">
        <ele>2408.4</ele>
        <time>2022-08-16T11:01:10Z</time>
      </trkpt>
      <trkpt lat="44.4473" lon="6.90205">
        <ele>2405.8</ele>
        <time>2022-08-16T11:01:11Z</time>
      </trkpt>
      <trkpt lat="44.44723" lon="6.90214">
        <ele>2404.4</ele>
        <time>2022-08-16T11:01:12Z</time>
      </trkpt>
      <trkpt lat="44.44717" lon="6.90223">
        <ele>2403.6</ele>
        <time>2022-08-16T11:01:13Z</time>
      </trkpt>
      <trkpt lat="44.44711" lon="6.90231">
        <ele>2403.4</ele>
        <time>2022-08-16T11:01:14Z</time>
      </trkpt>
      <trkpt lat="44.44705" lon="6.9024">
        <ele>2403</ele>
        <time>2022-08-16T11:01:15Z</time>
      </trkpt>
      <trkpt lat="44.447" lon="6.90249">
        <ele>2402.6</ele>
        <time>2022-08-16T11:01:16Z</time>
      </trkpt>
      <trkpt lat="44.44696" lon="6.90258">
        <ele>2402.2</ele>
        <time>2022-08-16T11:01:17Z</time>
      </trkpt>
      <trkpt lat="44.44691" lon="6.90268">
        <ele>2401.4</ele>
        <time>2022-08-16T11:01:18Z</time>
      </trkpt>
      <trkpt lat="44.44686" lon="6.90276">
        <ele>2398.6</ele>
        <time>2022-08-16T11:01:19Z</time>
      </trkpt>
      <trkpt lat="44.44682" lon="6.90283">
        <ele>2396.2</ele>
        <time>2022-08-16T11:01:20Z</time>
      </trkpt>
      <trkpt lat="44.44678" lon="6.90289">
        <ele>2394</ele>
        <time>2022-08-16T11:01:21Z</time>
      </trkpt>
      <trkpt lat="44.44675" lon="6.90295">
        <ele>2392.8</ele>
        <time>2022-08-16T11:01:22Z</time>
      </trkpt>
      <trkpt lat="44.44671" lon="6.90301">
        <ele>2391.6</ele>
        <time>2022-08-16T11:01:23Z</time>
      </trkpt>
      <trkpt lat="44.44667" lon="6.90307">
        <ele>2390.6</ele>
        <time>2022-08-16T11:01:24Z</time>
      </trkpt>
      <trkpt lat="44.44663" lon="6.90312">
        <ele>2389.6</ele>
        <time>2022-08-16T11:01:25Z</time>
      </trkpt>
      <trkpt lat="44.4466" lon="6.90314">
        <ele>2388.8</ele>
        <time>2022-08-16T11:01:26Z</time>
      </trkpt>
      <trkpt lat="44.44656" lon="6.90316">
        <ele>2388</ele>
        <time>2022-08-16T11:01:27Z</time>
      </trkpt>
      <trkpt lat="44.44651" lon="6.90317">
        <ele>2386.6</ele>
        <time>2022-08-16T11:01:28Z</time>
      </trkpt>
      <trkpt lat="44.44646" lon="6.90317">
        <ele>2386.6</ele>
        <time>2022-08-16T11:01:29Z</time>
      </trkpt>
      <trkpt lat="44.44642" lon="6.90318">
        <ele>2385.8</ele>
        <time>2022-08-16T11:01:30Z</time>
      </trkpt>
      <trkpt lat="44.44638" lon="6.90322">
        <ele>2384.6</ele>
        <time>2022-08-16T11:01:31Z</time>
      </trkpt>
      <trkpt lat="44.44634" lon="6.90326">
        <ele>2382.8</ele>
        <time>2022-08-16T11:01:32Z</time>
      </trkpt>
      <trkpt lat="44.4463" lon="6.90329">
        <ele>2381.4</ele>
        <time>2022-08-16T11:01:33Z</time>
      </trkpt>
      <trkpt lat="44.44625" lon="6.9033">
        <ele>2380.4</ele>
        <time>2022-08-16T11:01:34Z</time>
      </trkpt>
      <trkpt lat="44.44621" lon="6.90332">
        <ele>2379.8</ele>
        <time>2022-08-16T11:01:35Z</time>
      </trkpt>
      <trkpt lat="44.44616" lon="6.90334">
        <ele>2379</ele>
        <time>2022-08-16T11:01:36Z</time>
      </trkpt>
      <trkpt lat="44.44612" lon="6.90336">
        <ele>2377.8</ele>
        <time>2022-08-16T11:01:37Z</time>
      </trkpt>
      <trkpt lat="44.44609" lon="6.90339">
        <ele>2377</ele>
        <time>2022-08-16T11:01:38Z</time>
      </trkpt>
      <trkpt lat="44.44606" lon="6.90342">
        <ele>2376.6</ele>
        <time>2022-08-16T11:01:39Z</time>
      </trkpt>
      <trkpt lat="44.44604" lon="6.90346">
        <ele>2375.2</ele>
        <time>2022-08-16T11:01:40Z</time>
      </trkpt>
      <trkpt lat="44.446" lon="6.90351">
        <ele>2373</ele>
        <time>2022-08-16T11:01:41Z</time>
      </trkpt>
      <trkpt lat="44.44596" lon="6.90356">
        <ele>2372.2</ele>
        <time>2022-08-16T11:01:42Z</time>
      </trkpt>
      <trkpt lat="44.4459" lon="6.90361">
        <ele>2370.6</ele>
        <time>2022-08-16T11:01:43Z</time>
      </trkpt>
      <trkpt lat="44.44586" lon="6.90366">
        <ele>2369.8</ele>
        <time>2022-08-16T11:01:44Z</time>
      </trkpt>
      <trkpt lat="44.44582" lon="6.9037">
        <ele>2369.2</ele>
        <time>2022-08-16T11:01:45Z</time>
      </trkpt>
      <trkpt lat="44.44577" lon="6.90375">
        <ele>2368.4</ele>
        <time>2022-08-16T11:01:46Z</time>
      </trkpt>
      <trkpt lat="44.44573" lon="6.90379">
        <ele>2367.2</ele>
        <time>2022-08-16T11:01:47Z</time>
      </trkpt>
      <trkpt lat="44.44564" lon="6.90387">
        <ele>2365</ele>
        <time>2022-08-16T11:01:49Z</time>
      </trkpt>
      <trkpt lat="44.44559" lon="6.90392">
        <ele>2364</ele>
        <time>2022-08-16T11:01:50Z</time>
      </trkpt>
      <trkpt lat="44.44555" lon="6.90396">
        <ele>2364</ele>
        <time>2022-08-16T11:01:51Z</time>
      </trkpt>
      <trkpt lat="44.44552" lon="6.90401">
        <ele>2362.8</ele>
        <time>2022-08-16T11:01:52Z</time>
      </trkpt>
      <trkpt lat="44.44549" lon="6.90406">
        <ele>2361.4</ele>
        <time>2022-08-16T11:01:53Z</time>
      </trkpt>
      <trkpt lat="44.44545" lon="6.9041">
        <ele>2359.2</ele>
        <time>2022-08-16T11:01:54Z</time>
      </trkpt>
      <trkpt lat="44.4454" lon="6.90414">
        <ele>2358</ele>
        <time>2022-08-16T11:01:55Z</time>
      </trkpt>
      <trkpt lat="44.44534" lon="6.90419">
        <ele>2356.8</ele>
        <time>2022-08-16T11:01:56Z</time>
      </trkpt>
      <trkpt lat="44.44528" lon="6.90425">
        <ele>2355.8</ele>
        <time>2022-08-16T11:01:57Z</time>
      </trkpt>
      <trkpt lat="44.44517" lon="6.90435">
        <ele>2354.4</ele>
        <time>2022-08-16T11:01:59Z</time>
      </trkpt>
      <trkpt lat="44.44511" lon="6.90439">
        <ele>2353.4</ele>
        <time>2022-08-16T11:02:00Z</time>
      </trkpt>
      <trkpt lat="44.44505" lon="6.90443">
        <ele>2352.4</ele>
        <time>2022-08-16T11:02:01Z</time>
      </trkpt>
      <trkpt lat="44.44499" lon="6.90447">
        <ele>2351.4</ele>
        <time>2022-08-16T11:02:02Z</time>
      </trkpt>
      <trkpt lat="44.44494" lon="6.90451">
        <ele>2350.8</ele>
        <time>2022-08-16T11:02:03Z</time>
      </trkpt>
      <trkpt lat="44.44489" lon="6.90454">
        <ele>2349</ele>
        <time>2022-08-16T11:02:04Z</time>
      </trkpt>
      <trkpt lat="44.44487" lon="6.90457">
        <ele>2346.8</ele>
        <time>2022-08-16T11:02:05Z</time>
      </trkpt>
      <trkpt lat="44.44485" lon="6.90459">
        <ele>2345</ele>
        <time>2022-08-16T11:02:06Z</time>
      </trkpt>
      <trkpt lat="44.44484" lon="6.90459">
        <ele>2344</ele>
        <time>2022-08-16T11:02:07Z</time>
      </trkpt>
      <trkpt lat="44.44483" lon="6.9046">
        <ele>2342.4</ele>
        <time>2022-08-16T11:02:08Z</time>
      </trkpt>
      <trkpt lat="44.44482" lon="6.90459">
        <ele>2340.6</ele>
        <time>2022-08-16T11:02:09Z</time>
      </trkpt>
      <trkpt lat="44.44481" lon="6.90458">
        <ele>2339.8</ele>
        <time>2022-08-16T11:02:10Z</time>
      </trkpt>
      <trkpt lat="44.4448" lon="6.90457">
        <ele>2339.2</ele>
        <time>2022-08-16T11:02:11Z</time>
      </trkpt>
      <trkpt lat="44.44477" lon="6.90458">
        <ele>2339.2</ele>
        <time>2022-08-16T11:02:12Z</time>
      </trkpt>
      <trkpt lat="44.44474" lon="6.9046">
        <ele>2338.8</ele>
        <time>2022-08-16T11:02:13Z</time>
      </trkpt>
      <trkpt lat="44.44471" lon="6.90464">
        <ele>2338.4</ele>
        <time>2022-08-16T11:02:14Z</time>
      </trkpt>
      <trkpt lat="44.44469" lon="6.90468">
        <ele>2338.2</ele>
        <time>2022-08-16T11:02:15Z</time>
      </trkpt>
      <trkpt lat="44.44468" lon="6.90472">
        <ele>2338</ele>
        <time>2022-08-16T11:02:16Z</time>
      </trkpt>
      <trkpt lat="44.44467" lon="6.90475">
        <ele>2337.8</ele>
        <time>2022-08-16T11:02:17Z</time>
      </trkpt>
      <trkpt lat="44.44467" lon="6.90475">
        <ele>2337.6</ele>
        <time>2022-08-16T11:02:18Z</time>
      </trkpt>
      <trkpt lat="44.44467" lon="6.90476">
        <ele>2337</ele>
        <time>2022-08-16T11:02:20Z</time>
      </trkpt>
      <trkpt lat="44.44467" lon="6.90477">
        <ele>2336.4</ele>
        <time>2022-08-16T11:02:21Z</time>
      </trkpt>
      <trkpt lat="44.44466" lon="6.90477">
        <ele>2335.6</ele>
        <time>2022-08-16T11:02:22Z</time>
      </trkpt>
      <trkpt lat="44.44466" lon="6.90478">
        <ele>2334.4</ele>
        <time>2022-08-16T11:02:23Z</time>
      </trkpt>
      <trkpt lat="44.44466" lon="6.90478">
        <ele>2333.6</ele>
        <time>2022-08-16T11:02:24Z</time>
      </trkpt>
      <trkpt lat="44.44466" lon="6.90479">
        <ele>2332.6</ele>
        <time>2022-08-16T11:02:28Z</time>
      </trkpt>
      <trkpt lat="44.44466" lon="6.90479">
        <ele>2332.8</ele>
        <time>2022-08-16T11:02:29Z</time>
      </trkpt>
      <trkpt lat="44.44466" lon="6.9048">
        <ele>2332.6</ele>
        <time>2022-08-16T11:02:30Z</time>
      </trkpt>
      <trkpt lat="44.44466" lon="6.9048">
        <ele>2332.6</ele>
        <time>2022-08-16T11:02:31Z</time>
      </trkpt>
      <trkpt lat="44.44466" lon="6.9048">
        <ele>2332.8</ele>
        <time>2022-08-16T11:02:32Z</time>
      </trkpt>
      <trkpt lat="44.44465" lon="6.90479">
        <ele>2332.4</ele>
        <time>2022-08-16T11:02:39Z</time>
      </trkpt>
      <trkpt lat="44.44463" lon="6.90481">
        <ele>2332</ele>
        <time>2022-08-16T11:02:43Z</time>
      </trkpt>
      <trkpt lat="44.44459" lon="6.90485">
        <ele>2332</ele>
        <time>2022-08-16T11:02:45Z</time>
      </trkpt>
      <trkpt lat="44.44457" lon="6.90489">
        <ele>2331.8</ele>
        <time>2022-08-16T11:02:46Z</time>
      </trkpt>
      <trkpt lat="44.44455" lon="6.90494">
        <ele>2331.6</ele>
        <time>2022-08-16T11:02:47Z</time>
      </trkpt>
      <trkpt lat="44.44453" lon="6.90499">
        <ele>2331.6</ele>
        <time>2022-08-16T11:02:48Z</time>
      </trkpt>
      <trkpt lat="44.44452" lon="6.90503">
        <ele>2331.6</ele>
        <time>2022-08-16T11:02:49Z</time>
      </trkpt>
      <trkpt lat="44.4445" lon="6.90507">
        <ele>2331.4</ele>
        <time>2022-08-16T11:02:50Z</time>
      </trkpt>
      <trkpt lat="44.44445" lon="6.9052">
        <ele>2330.8</ele>
        <time>2022-08-16T11:02:53Z</time>
      </trkpt>
      <trkpt lat="44.44443" lon="6.90525">
        <ele>2330</ele>
        <time>2022-08-16T11:02:54Z</time>
      </trkpt>
      <trkpt lat="44.44441" lon="6.90529">
        <ele>2329.2</ele>
        <time>2022-08-16T11:02:55Z</time>
      </trkpt>
      <trkpt lat="44.4444" lon="6.90531">
        <ele>2329.2</ele>
        <time>2022-08-16T11:02:56Z</time>
      </trkpt>
      <trkpt lat="44.44438" lon="6.90531">
        <ele>2328</ele>
        <time>2022-08-16T11:02:57Z</time>
      </trkpt>
      <trkpt lat="44.44436" lon="6.90531">
        <ele>2327.4</ele>
        <time>2022-08-16T11:02:58Z</time>
      </trkpt>
      <trkpt lat="44.44434" lon="6.90532">
        <ele>2326.8</ele>
        <time>2022-08-16T11:02:59Z</time>
      </trkpt>
      <trkpt lat="44.44432" lon="6.90533">
        <ele>2326.2</ele>
        <time>2022-08-16T11:03:00Z</time>
      </trkpt>
      <trkpt lat="44.44431" lon="6.90534">
        <ele>2325.6</ele>
        <time>2022-08-16T11:03:01Z</time>
      </trkpt>
      <trkpt lat="44.4443" lon="6.90535">
        <ele>2325.6</ele>
        <time>2022-08-16T11:03:02Z</time>
      </trkpt>
      <trkpt lat="44.44429" lon="6.90536">
        <ele>2325.2</ele>
        <time>2022-08-16T11:03:03Z</time>
      </trkpt>
      <trkpt lat="44.44427" lon="6.90537">
        <ele>2324.6</ele>
        <time>2022-08-16T11:03:04Z</time>
      </trkpt>
      <trkpt lat="44.44421" lon="6.9054">
        <ele>2323.6</ele>
        <time>2022-08-16T11:03:06Z</time>
      </trkpt>
      <trkpt lat="44.44419" lon="6.90542">
        <ele>2323</ele>
        <time>2022-08-16T11:03:07Z</time>
      </trkpt>
      <trkpt lat="44.44418" lon="6.90546">
        <ele>2322</ele>
        <time>2022-08-16T11:03:08Z</time>
      </trkpt>
      <trkpt lat="44.44417" lon="6.90551">
        <ele>2321.6</ele>
        <time>2022-08-16T11:03:09Z</time>
      </trkpt>
      <trkpt lat="44.44415" lon="6.90556">
        <ele>2321.2</ele>
        <time>2022-08-16T11:03:10Z</time>
      </trkpt>
      <trkpt lat="44.44413" lon="6.90561">
        <ele>2320.8</ele>
        <time>2022-08-16T11:03:11Z</time>
      </trkpt>
      <trkpt lat="44.44411" lon="6.90566">
        <ele>2320.6</ele>
        <time>2022-08-16T11:03:12Z</time>
      </trkpt>
      <trkpt lat="44.44409" lon="6.90572">
        <ele>2319.6</ele>
        <time>2022-08-16T11:03:13Z</time>
      </trkpt>
      <trkpt lat="44.44407" lon="6.90577">
        <ele>2319</ele>
        <time>2022-08-16T11:03:14Z</time>
      </trkpt>
      <trkpt lat="44.44405" lon="6.90581">
        <ele>2318.4</ele>
        <time>2022-08-16T11:03:15Z</time>
      </trkpt>
      <trkpt lat="44.44404" lon="6.90585">
        <ele>2317.2</ele>
        <time>2022-08-16T11:03:16Z</time>
      </trkpt>
      <trkpt lat="44.44403" lon="6.90588">
        <ele>2316.2</ele>
        <time>2022-08-16T11:03:17Z</time>
      </trkpt>
      <trkpt lat="44.44402" lon="6.90589">
        <ele>2316.2</ele>
        <time>2022-08-16T11:03:18Z</time>
      </trkpt>
      <trkpt lat="44.444" lon="6.9059">
        <ele>2315.6</ele>
        <time>2022-08-16T11:03:19Z</time>
      </trkpt>
      <trkpt lat="44.44396" lon="6.90592">
        <ele>2315</ele>
        <time>2022-08-16T11:03:20Z</time>
      </trkpt>
      <trkpt lat="44.44392" lon="6.90595">
        <ele>2314.8</ele>
        <time>2022-08-16T11:03:21Z</time>
      </trkpt>
      <trkpt lat="44.44388" lon="6.90597">
        <ele>2314.2</ele>
        <time>2022-08-16T11:03:22Z</time>
      </trkpt>
      <trkpt lat="44.44385" lon="6.906">
        <ele>2313.6</ele>
        <time>2022-08-16T11:03:23Z</time>
      </trkpt>
      <trkpt lat="44.44377" lon="6.90605">
        <ele>2311.8</ele>
        <time>2022-08-16T11:03:25Z</time>
      </trkpt>
      <trkpt lat="44.44374" lon="6.90607">
        <ele>2311.2</ele>
        <time>2022-08-16T11:03:26Z</time>
      </trkpt>
      <trkpt lat="44.44369" lon="6.90609">
        <ele>2311</ele>
        <time>2022-08-16T11:03:27Z</time>
      </trkpt>
      <trkpt lat="44.44359" lon="6.90615">
        <ele>2309.2</ele>
        <time>2022-08-16T11:03:29Z</time>
      </trkpt>
      <trkpt lat="44.44354" lon="6.90618">
        <ele>2308</ele>
        <time>2022-08-16T11:03:30Z</time>
      </trkpt>
      <trkpt lat="44.4435" lon="6.90623">
        <ele>2307</ele>
        <time>2022-08-16T11:03:31Z</time>
      </trkpt>
      <trkpt lat="44.44347" lon="6.90629">
        <ele>2306</ele>
        <time>2022-08-16T11:03:32Z</time>
      </trkpt>
      <trkpt lat="44.44343" lon="6.90635">
        <ele>2304.8</ele>
        <time>2022-08-16T11:03:33Z</time>
      </trkpt>
      <trkpt lat="44.44339" lon="6.90641">
        <ele>2303.6</ele>
        <time>2022-08-16T11:03:34Z</time>
      </trkpt>
      <trkpt lat="44.44334" lon="6.90647">
        <ele>2302.8</ele>
        <time>2022-08-16T11:03:35Z</time>
      </trkpt>
      <trkpt lat="44.44329" lon="6.90653">
        <ele>2301</ele>
        <time>2022-08-16T11:03:36Z</time>
      </trkpt>
      <trkpt lat="44.44322" lon="6.90659">
        <ele>2300.2</ele>
        <time>2022-08-16T11:03:37Z</time>
      </trkpt>
      <trkpt lat="44.44315" lon="6.90663">
        <ele>2298.8</ele>
        <time>2022-08-16T11:03:38Z</time>
      </trkpt>
      <trkpt lat="44.44301" lon="6.90671">
        <ele>2297.6</ele>
        <time>2022-08-16T11:03:40Z</time>
      </trkpt>
      <trkpt lat="44.44295" lon="6.90674">
        <ele>2296.6</ele>
        <time>2022-08-16T11:03:41Z</time>
      </trkpt>
      <trkpt lat="44.4429" lon="6.90676">
        <ele>2295.8</ele>
        <time>2022-08-16T11:03:42Z</time>
      </trkpt>
      <trkpt lat="44.44285" lon="6.90678">
        <ele>2295.2</ele>
        <time>2022-08-16T11:03:43Z</time>
      </trkpt>
      <trkpt lat="44.44281" lon="6.90681">
        <ele>2294.2</ele>
        <time>2022-08-16T11:03:44Z</time>
      </trkpt>
      <trkpt lat="44.44279" lon="6.90682">
        <ele>2292.4</ele>
        <time>2022-08-16T11:03:45Z</time>
      </trkpt>
      <trkpt lat="44.44277" lon="6.90683">
        <ele>2291.4</ele>
        <time>2022-08-16T11:03:46Z</time>
      </trkpt>
      <trkpt lat="44.44275" lon="6.90684">
        <ele>2291</ele>
        <time>2022-08-16T11:03:47Z</time>
      </trkpt>
      <trkpt lat="44.44274" lon="6.90684">
        <ele>2290.8</ele>
        <time>2022-08-16T11:03:48Z</time>
      </trkpt>
      <trkpt lat="44.44273" lon="6.90685">
        <ele>2290.6</ele>
        <time>2022-08-16T11:03:49Z</time>
      </trkpt>
      <trkpt lat="44.44272" lon="6.90685">
        <ele>2290.2</ele>
        <time>2022-08-16T11:03:52Z</time>
      </trkpt>
      <trkpt lat="44.44272" lon="6.90686">
        <ele>2290</ele>
        <time>2022-08-16T11:03:54Z</time>
      </trkpt>
      <trkpt lat="44.44271" lon="6.90693">
        <ele>2289.8</ele>
        <time>2022-08-16T11:03:57Z</time>
      </trkpt>
      <trkpt lat="44.44268" lon="6.90713">
        <ele>2289.8</ele>
        <time>2022-08-16T11:04:02Z</time>
      </trkpt>
      <trkpt lat="44.44265" lon="6.90723">
        <ele>2289.8</ele>
        <time>2022-08-16T11:04:04Z</time>
      </trkpt>
      <trkpt lat="44.44263" lon="6.90727">
        <ele>2289.6</ele>
        <time>2022-08-16T11:04:05Z</time>
      </trkpt>
      <trkpt lat="44.44261" lon="6.90731">
        <ele>2289.6</ele>
        <time>2022-08-16T11:04:06Z</time>
      </trkpt>
      <trkpt lat="44.44259" lon="6.90733">
        <ele>2289.2</ele>
        <time>2022-08-16T11:04:07Z</time>
      </trkpt>
      <trkpt lat="44.44258" lon="6.90735">
        <ele>2289.2</ele>
        <time>2022-08-16T11:04:08Z</time>
      </trkpt>
      <trkpt lat="44.44257" lon="6.90738">
        <ele>2289.2</ele>
        <time>2022-08-16T11:04:09Z</time>
      </trkpt>
      <trkpt lat="44.44257" lon="6.90739">
        <ele>2289</ele>
        <time>2022-08-16T11:04:10Z</time>
      </trkpt>
      <trkpt lat="44.44256" lon="6.90745">
        <ele>2289.2</ele>
        <time>2022-08-16T11:04:12Z</time>
      </trkpt>
      <trkpt lat="44.44255" lon="6.90749">
        <ele>2289</ele>
        <time>2022-08-16T11:04:13Z</time>
      </trkpt>
      <trkpt lat="44.44254" lon="6.90767">
        <ele>2288.4</ele>
        <time>2022-08-16T11:04:17Z</time>
      </trkpt>
      <trkpt lat="44.44253" lon="6.90776">
        <ele>2288.4</ele>
        <time>2022-08-16T11:04:19Z</time>
      </trkpt>
      <trkpt lat="44.44253" lon="6.9078">
        <ele>2288.4</ele>
        <time>2022-08-16T11:04:20Z</time>
      </trkpt>
      <trkpt lat="44.44253" lon="6.90788">
        <ele>2288.2</ele>
        <time>2022-08-16T11:04:22Z</time>
      </trkpt>
      <trkpt lat="44.44247" lon="6.90807">
        <ele>2288</ele>
        <time>2022-08-16T11:04:27Z</time>
      </trkpt>
      <trkpt lat="44.44243" lon="6.90814">
        <ele>2287.6</ele>
        <time>2022-08-16T11:04:29Z</time>
      </trkpt>
      <trkpt lat="44.4424" lon="6.90827">
        <ele>2287</ele>
        <time>2022-08-16T11:04:32Z</time>
      </trkpt>
      <trkpt lat="44.44239" lon="6.90831">
        <ele>2286.6</ele>
        <time>2022-08-16T11:04:33Z</time>
      </trkpt>
      <trkpt lat="44.44238" lon="6.90835">
        <ele>2286.6</ele>
        <time>2022-08-16T11:04:34Z</time>
      </trkpt>
      <trkpt lat="44.44237" lon="6.90839">
        <ele>2286.6</ele>
        <time>2022-08-16T11:04:35Z</time>
      </trkpt>
      <trkpt lat="44.44234" lon="6.90847">
        <ele>2286.4</ele>
        <time>2022-08-16T11:04:37Z</time>
      </trkpt>
      <trkpt lat="44.44232" lon="6.90861">
        <ele>2286.4</ele>
        <time>2022-08-16T11:04:40Z</time>
      </trkpt>
      <trkpt lat="44.44231" lon="6.90865">
        <ele>2286.2</ele>
        <time>2022-08-16T11:04:41Z</time>
      </trkpt>
      <trkpt lat="44.4423" lon="6.90869">
        <ele>2286.2</ele>
        <time>2022-08-16T11:04:42Z</time>
      </trkpt>
      <trkpt lat="44.44229" lon="6.90872">
        <ele>2286</ele>
        <time>2022-08-16T11:04:43Z</time>
      </trkpt>
      <trkpt lat="44.44228" lon="6.90876">
        <ele>2285.8</ele>
        <time>2022-08-16T11:04:44Z</time>
      </trkpt>
      <trkpt lat="44.44225" lon="6.90883">
        <ele>2285.6</ele>
        <time>2022-08-16T11:04:46Z</time>
      </trkpt>
      <trkpt lat="44.4422" lon="6.90894">
        <ele>2285.6</ele>
        <time>2022-08-16T11:04:49Z</time>
      </trkpt>
      <trkpt lat="44.44218" lon="6.90897">
        <ele>2285.4</ele>
        <time>2022-08-16T11:04:50Z</time>
      </trkpt>
      <trkpt lat="44.44216" lon="6.909">
        <ele>2285.4</ele>
        <time>2022-08-16T11:04:51Z</time>
      </trkpt>
      <trkpt lat="44.44214" lon="6.90902">
        <ele>2285</ele>
        <time>2022-08-16T11:04:52Z</time>
      </trkpt>
      <trkpt lat="44.44214" lon="6.90904">
        <ele>2285.2</ele>
        <time>2022-08-16T11:04:53Z</time>
      </trkpt>
      <trkpt lat="44.44213" lon="6.90906">
        <ele>2285.2</ele>
        <time>2022-08-16T11:04:54Z</time>
      </trkpt>
      <trkpt lat="44.4421" lon="6.90913">
        <ele>2285.2</ele>
        <time>2022-08-16T11:04:57Z</time>
      </trkpt>
      <trkpt lat="44.4421" lon="6.90915">
        <ele>2285</ele>
        <time>2022-08-16T11:04:58Z</time>
      </trkpt>
      <trkpt lat="44.44204" lon="6.90929">
        <ele>2285.2</ele>
        <time>2022-08-16T11:05:04Z</time>
      </trkpt>
      <trkpt lat="44.44203" lon="6.90931">
        <ele>2285.4</ele>
        <time>2022-08-16T11:05:05Z</time>
      </trkpt>
      <trkpt lat="44.44199" lon="6.90945">
        <ele>2285.4</ele>
        <time>2022-08-16T11:05:10Z</time>
      </trkpt>
      <trkpt lat="44.44198" lon="6.90947">
        <ele>2285.6</ele>
        <time>2022-08-16T11:05:11Z</time>
      </trkpt>
      <trkpt lat="44.44198" lon="6.90949">
        <ele>2285.6</ele>
        <time>2022-08-16T11:05:12Z</time>
      </trkpt>
      <trkpt lat="44.44198" lon="6.90952">
        <ele>2285.6</ele>
        <time>2022-08-16T11:05:13Z</time>
      </trkpt>
      <trkpt lat="44.44195" lon="6.90969">
        <ele>2286.8</ele>
        <time>2022-08-16T11:05:20Z</time>
      </trkpt>
      <trkpt lat="44.44195" lon="6.90971">
        <ele>2287</ele>
        <time>2022-08-16T11:05:21Z</time>
      </trkpt>
      <trkpt lat="44.44195" lon="6.90974">
        <ele>2287.2</ele>
        <time>2022-08-16T11:05:22Z</time>
      </trkpt>
      <trkpt lat="44.44194" lon="6.90976">
        <ele>2287.2</ele>
        <time>2022-08-16T11:05:23Z</time>
      </trkpt>
      <trkpt lat="44.44194" lon="6.90978">
        <ele>2287</ele>
        <time>2022-08-16T11:05:24Z</time>
      </trkpt>
      <trkpt lat="44.44194" lon="6.9098">
        <ele>2287.2</ele>
        <time>2022-08-16T11:05:25Z</time>
      </trkpt>
      <trkpt lat="44.44192" lon="6.90984">
        <ele>2287.4</ele>
        <time>2022-08-16T11:05:27Z</time>
      </trkpt>
      <trkpt lat="44.44192" lon="6.90986">
        <ele>2287.4</ele>
        <time>2022-08-16T11:05:28Z</time>
      </trkpt>
      <trkpt lat="44.44191" lon="6.90988">
        <ele>2287.4</ele>
        <time>2022-08-16T11:05:29Z</time>
      </trkpt>
      <trkpt lat="44.44191" lon="6.90989">
        <ele>2287.6</ele>
        <time>2022-08-16T11:05:30Z</time>
      </trkpt>
      <trkpt lat="44.44189" lon="6.90994">
        <ele>2287.8</ele>
        <time>2022-08-16T11:05:33Z</time>
      </trkpt>
      <trkpt lat="44.44188" lon="6.90997">
        <ele>2288</ele>
        <time>2022-08-16T11:05:35Z</time>
      </trkpt>
      <trkpt lat="44.44187" lon="6.90998">
        <ele>2288.2</ele>
        <time>2022-08-16T11:05:36Z</time>
      </trkpt>
      <trkpt lat="44.44186" lon="6.91">
        <ele>2288.4</ele>
        <time>2022-08-16T11:05:37Z</time>
      </trkpt>
      <trkpt lat="44.44186" lon="6.91002">
        <ele>2288.4</ele>
        <time>2022-08-16T11:05:38Z</time>
      </trkpt>
      <trkpt lat="44.44185" lon="6.91003">
        <ele>2288.2</ele>
        <time>2022-08-16T11:05:39Z</time>
      </trkpt>
      <trkpt lat="44.44184" lon="6.91005">
        <ele>2288.4</ele>
        <time>2022-08-16T11:05:40Z</time>
      </trkpt>
      <trkpt lat="44.44184" lon="6.91006">
        <ele>2288.6</ele>
        <time>2022-08-16T11:05:41Z</time>
      </trkpt>
      <trkpt lat="44.44183" lon="6.91008">
        <ele>2288.8</ele>
        <time>2022-08-16T11:05:42Z</time>
      </trkpt>
      <trkpt lat="44.44183" lon="6.9101">
        <ele>2289.2</ele>
        <time>2022-08-16T11:05:43Z</time>
      </trkpt>
      <trkpt lat="44.44182" lon="6.91011">
        <ele>2289.6</ele>
        <time>2022-08-16T11:05:44Z</time>
      </trkpt>
      <trkpt lat="44.44181" lon="6.91012">
        <ele>2289.8</ele>
        <time>2022-08-16T11:05:45Z</time>
      </trkpt>
      <trkpt lat="44.4418" lon="6.91013">
        <ele>2290</ele>
        <time>2022-08-16T11:05:46Z</time>
      </trkpt>
      <trkpt lat="44.44179" lon="6.91015">
        <ele>2290</ele>
        <time>2022-08-16T11:05:47Z</time>
      </trkpt>
      <trkpt lat="44.44178" lon="6.91016">
        <ele>2290</ele>
        <time>2022-08-16T11:05:48Z</time>
      </trkpt>
      <trkpt lat="44.44177" lon="6.91017">
        <ele>2290</ele>
        <time>2022-08-16T11:05:49Z</time>
      </trkpt>
      <trkpt lat="44.44176" lon="6.91018">
        <ele>2290</ele>
        <time>2022-08-16T11:05:50Z</time>
      </trkpt>
      <trkpt lat="44.44175" lon="6.91019">
        <ele>2290.2</ele>
        <time>2022-08-16T11:05:51Z</time>
      </trkpt>
      <trkpt lat="44.44174" lon="6.91021">
        <ele>2290.2</ele>
        <time>2022-08-16T11:05:52Z</time>
      </trkpt>
      <trkpt lat="44.44174" lon="6.91022">
        <ele>2290.2</ele>
        <time>2022-08-16T11:05:53Z</time>
      </trkpt>
      <trkpt lat="44.44173" lon="6.91023">
        <ele>2290.2</ele>
        <time>2022-08-16T11:05:54Z</time>
      </trkpt>
      <trkpt lat="44.44171" lon="6.91026">
        <ele>2290.4</ele>
        <time>2022-08-16T11:05:56Z</time>
      </trkpt>
      <trkpt lat="44.44169" lon="6.91031">
        <ele>2290.4</ele>
        <time>2022-08-16T11:05:59Z</time>
      </trkpt>
      <trkpt lat="44.44169" lon="6.91033">
        <ele>2290.4</ele>
        <time>2022-08-16T11:06:00Z</time>
      </trkpt>
      <trkpt lat="44.44169" lon="6.91035">
        <ele>2290.6</ele>
        <time>2022-08-16T11:06:01Z</time>
      </trkpt>
      <trkpt lat="44.44168" lon="6.91036">
        <ele>2290.8</ele>
        <time>2022-08-16T11:06:02Z</time>
      </trkpt>
      <trkpt lat="44.44168" lon="6.91038">
        <ele>2291</ele>
        <time>2022-08-16T11:06:03Z</time>
      </trkpt>
      <trkpt lat="44.44168" lon="6.9104">
        <ele>2291.2</ele>
        <time>2022-08-16T11:06:04Z</time>
      </trkpt>
      <trkpt lat="44.44168" lon="6.91041">
        <ele>2291.4</ele>
        <time>2022-08-16T11:06:05Z</time>
      </trkpt>
      <trkpt lat="44.44167" lon="6.91043">
        <ele>2291.4</ele>
        <time>2022-08-16T11:06:06Z</time>
      </trkpt>
      <trkpt lat="44.44167" lon="6.91045">
        <ele>2291.6</ele>
        <time>2022-08-16T11:06:07Z</time>
      </trkpt>
      <trkpt lat="44.44166" lon="6.91047">
        <ele>2291.8</ele>
        <time>2022-08-16T11:06:08Z</time>
      </trkpt>
      <trkpt lat="44.44166" lon="6.91049">
        <ele>2292</ele>
        <time>2022-08-16T11:06:09Z</time>
      </trkpt>
      <trkpt lat="44.44165" lon="6.9105">
        <ele>2292.2</ele>
        <time>2022-08-16T11:06:10Z</time>
      </trkpt>
      <trkpt lat="44.44164" lon="6.91052">
        <ele>2292.2</ele>
        <time>2022-08-16T11:06:11Z</time>
      </trkpt>
      <trkpt lat="44.44163" lon="6.91054">
        <ele>2292.2</ele>
        <time>2022-08-16T11:06:12Z</time>
      </trkpt>
      <trkpt lat="44.44163" lon="6.91056">
        <ele>2292.4</ele>
        <time>2022-08-16T11:06:13Z</time>
      </trkpt>
      <trkpt lat="44.44162" lon="6.91058">
        <ele>2292.6</ele>
        <time>2022-08-16T11:06:14Z</time>
      </trkpt>
      <trkpt lat="44.44161" lon="6.91059">
        <ele>2292.6</ele>
        <time>2022-08-16T11:06:15Z</time>
      </trkpt>
      <trkpt lat="44.44161" lon="6.91061">
        <ele>2292.8</ele>
        <time>2022-08-16T11:06:16Z</time>
      </trkpt>
      <trkpt lat="44.4416" lon="6.91062">
        <ele>2292.8</ele>
        <time>2022-08-16T11:06:17Z</time>
      </trkpt>
      <trkpt lat="44.44159" lon="6.91064">
        <ele>2292.8</ele>
        <time>2022-08-16T11:06:18Z</time>
      </trkpt>
      <trkpt lat="44.44156" lon="6.91071">
        <ele>2293</ele>
        <time>2022-08-16T11:06:22Z</time>
      </trkpt>
      <trkpt lat="44.44155" lon="6.91072">
        <ele>2293</ele>
        <time>2022-08-16T11:06:23Z</time>
      </trkpt>
      <trkpt lat="44.44152" lon="6.91077">
        <ele>2293.4</ele>
        <time>2022-08-16T11:06:26Z</time>
      </trkpt>
      <trkpt lat="44.44151" lon="6.91078">
        <ele>2293.4</ele>
        <time>2022-08-16T11:06:27Z</time>
      </trkpt>
      <trkpt lat="44.4415" lon="6.91078">
        <ele>2293.6</ele>
        <time>2022-08-16T11:06:28Z</time>
      </trkpt>
      <trkpt lat="44.44148" lon="6.91079">
        <ele>2293.6</ele>
        <time>2022-08-16T11:06:29Z</time>
      </trkpt>
      <trkpt lat="44.44147" lon="6.9108">
        <ele>2293.8</ele>
        <time>2022-08-16T11:06:30Z</time>
      </trkpt>
      <trkpt lat="44.44146" lon="6.91081">
        <ele>2293.8</ele>
        <time>2022-08-16T11:06:31Z</time>
      </trkpt>
      <trkpt lat="44.44145" lon="6.91083">
        <ele>2294.4</ele>
        <time>2022-08-16T11:06:32Z</time>
      </trkpt>
      <trkpt lat="44.44143" lon="6.91084">
        <ele>2294.2</ele>
        <time>2022-08-16T11:06:33Z</time>
      </trkpt>
      <trkpt lat="44.44142" lon="6.91085">
        <ele>2294.6</ele>
        <time>2022-08-16T11:06:34Z</time>
      </trkpt>
      <trkpt lat="44.44141" lon="6.91087">
        <ele>2294.8</ele>
        <time>2022-08-16T11:06:35Z</time>
      </trkpt>
      <trkpt lat="44.44139" lon="6.91088">
        <ele>2295.2</ele>
        <time>2022-08-16T11:06:36Z</time>
      </trkpt>
      <trkpt lat="44.44138" lon="6.9109">
        <ele>2295.2</ele>
        <time>2022-08-16T11:06:37Z</time>
      </trkpt>
      <trkpt lat="44.44137" lon="6.91092">
        <ele>2295.4</ele>
        <time>2022-08-16T11:06:38Z</time>
      </trkpt>
      <trkpt lat="44.44136" lon="6.91094">
        <ele>2295.6</ele>
        <time>2022-08-16T11:06:39Z</time>
      </trkpt>
      <trkpt lat="44.44136" lon="6.91095">
        <ele>2295.8</ele>
        <time>2022-08-16T11:06:40Z</time>
      </trkpt>
      <trkpt lat="44.44135" lon="6.91097">
        <ele>2296</ele>
        <time>2022-08-16T11:06:41Z</time>
      </trkpt>
      <trkpt lat="44.44134" lon="6.91098">
        <ele>2296</ele>
        <time>2022-08-16T11:06:42Z</time>
      </trkpt>
      <trkpt lat="44.44134" lon="6.911">
        <ele>2296.2</ele>
        <time>2022-08-16T11:06:43Z</time>
      </trkpt>
      <trkpt lat="44.44133" lon="6.91101">
        <ele>2296</ele>
        <time>2022-08-16T11:06:44Z</time>
      </trkpt>
      <trkpt lat="44.44132" lon="6.91102">
        <ele>2296.2</ele>
        <time>2022-08-16T11:06:45Z</time>
      </trkpt>
      <trkpt lat="44.44131" lon="6.91104">
        <ele>2296.2</ele>
        <time>2022-08-16T11:06:46Z</time>
      </trkpt>
      <trkpt lat="44.44131" lon="6.91105">
        <ele>2296.2</ele>
        <time>2022-08-16T11:06:47Z</time>
      </trkpt>
      <trkpt lat="44.4413" lon="6.91107">
        <ele>2296.4</ele>
        <time>2022-08-16T11:06:48Z</time>
      </trkpt>
      <trkpt lat="44.44129" lon="6.91108">
        <ele>2296.8</ele>
        <time>2022-08-16T11:06:49Z</time>
      </trkpt>
      <trkpt lat="44.44128" lon="6.91109">
        <ele>2297</ele>
        <time>2022-08-16T11:06:50Z</time>
      </trkpt>
      <trkpt lat="44.44128" lon="6.91111">
        <ele>2297.2</ele>
        <time>2022-08-16T11:06:51Z</time>
      </trkpt>
      <trkpt lat="44.44127" lon="6.91112">
        <ele>2297.2</ele>
        <time>2022-08-16T11:06:52Z</time>
      </trkpt>
      <trkpt lat="44.44127" lon="6.91113">
        <ele>2297.4</ele>
        <time>2022-08-16T11:06:53Z</time>
      </trkpt>
      <trkpt lat="44.44126" lon="6.91114">
        <ele>2297.4</ele>
        <time>2022-08-16T11:06:54Z</time>
      </trkpt>
      <trkpt lat="44.44126" lon="6.91116">
        <ele>2297.4</ele>
        <time>2022-08-16T11:06:55Z</time>
      </trkpt>
      <trkpt lat="44.44125" lon="6.91117">
        <ele>2297.8</ele>
        <time>2022-08-16T11:06:56Z</time>
      </trkpt>
      <trkpt lat="44.44125" lon="6.91119">
        <ele>2297.8</ele>
        <time>2022-08-16T11:06:57Z</time>
      </trkpt>
      <trkpt lat="44.44124" lon="6.9112">
        <ele>2298</ele>
        <time>2022-08-16T11:06:58Z</time>
      </trkpt>
      <trkpt lat="44.44122" lon="6.91122">
        <ele>2298</ele>
        <time>2022-08-16T11:06:59Z</time>
      </trkpt>
      <trkpt lat="44.44121" lon="6.91123">
        <ele>2298</ele>
        <time>2022-08-16T11:07:00Z</time>
      </trkpt>
      <trkpt lat="44.4412" lon="6.91125">
        <ele>2298</ele>
        <time>2022-08-16T11:07:01Z</time>
      </trkpt>
      <trkpt lat="44.44119" lon="6.91126">
        <ele>2298.4</ele>
        <time>2022-08-16T11:07:02Z</time>
      </trkpt>
      <trkpt lat="44.44119" lon="6.91128">
        <ele>2298.4</ele>
        <time>2022-08-16T11:07:03Z</time>
      </trkpt>
      <trkpt lat="44.44118" lon="6.91129">
        <ele>2298.6</ele>
        <time>2022-08-16T11:07:04Z</time>
      </trkpt>
      <trkpt lat="44.44117" lon="6.9113">
        <ele>2298.4</ele>
        <time>2022-08-16T11:07:05Z</time>
      </trkpt>
      <trkpt lat="44.44116" lon="6.91132">
        <ele>2298.6</ele>
        <time>2022-08-16T11:07:06Z</time>
      </trkpt>
      <trkpt lat="44.44115" lon="6.91136">
        <ele>2298.8</ele>
        <time>2022-08-16T11:07:08Z</time>
      </trkpt>
      <trkpt lat="44.44114" lon="6.91138">
        <ele>2298.8</ele>
        <time>2022-08-16T11:07:09Z</time>
      </trkpt>
      <trkpt lat="44.44113" lon="6.9114">
        <ele>2299</ele>
        <time>2022-08-16T11:07:10Z</time>
      </trkpt>
      <trkpt lat="44.44112" lon="6.91142">
        <ele>2299</ele>
        <time>2022-08-16T11:07:11Z</time>
      </trkpt>
      <trkpt lat="44.44111" lon="6.91145">
        <ele>2299</ele>
        <time>2022-08-16T11:07:12Z</time>
      </trkpt>
      <trkpt lat="44.4411" lon="6.91148">
        <ele>2299.2</ele>
        <time>2022-08-16T11:07:13Z</time>
      </trkpt>
      <trkpt lat="44.44108" lon="6.91152">
        <ele>2299.4</ele>
        <time>2022-08-16T11:07:14Z</time>
      </trkpt>
      <trkpt lat="44.44105" lon="6.91161">
        <ele>2299.4</ele>
        <time>2022-08-16T11:07:16Z</time>
      </trkpt>
      <trkpt lat="44.441" lon="6.91176">
        <ele>2299.4</ele>
        <time>2022-08-16T11:07:19Z</time>
      </trkpt>
      <trkpt lat="44.44098" lon="6.91181">
        <ele>2299.4</ele>
        <time>2022-08-16T11:07:20Z</time>
      </trkpt>
      <trkpt lat="44.44093" lon="6.91192">
        <ele>2299.4</ele>
        <time>2022-08-16T11:07:22Z</time>
      </trkpt>
      <trkpt lat="44.44091" lon="6.91197">
        <ele>2299.2</ele>
        <time>2022-08-16T11:07:23Z</time>
      </trkpt>
      <trkpt lat="44.44088" lon="6.91203">
        <ele>2299</ele>
        <time>2022-08-16T11:07:24Z</time>
      </trkpt>
      <trkpt lat="44.44084" lon="6.91206">
        <ele>2299</ele>
        <time>2022-08-16T11:07:25Z</time>
      </trkpt>
      <trkpt lat="44.44081" lon="6.91208">
        <ele>2298.6</ele>
        <time>2022-08-16T11:07:26Z</time>
      </trkpt>
      <trkpt lat="44.44079" lon="6.91209">
        <ele>2298.4</ele>
        <time>2022-08-16T11:07:27Z</time>
      </trkpt>
      <trkpt lat="44.44077" lon="6.9121">
        <ele>2298.2</ele>
        <time>2022-08-16T11:07:28Z</time>
      </trkpt>
      <trkpt lat="44.44076" lon="6.91211">
        <ele>2298</ele>
        <time>2022-08-16T11:07:29Z</time>
      </trkpt>
      <trkpt lat="44.44075" lon="6.91212">
        <ele>2297.8</ele>
        <time>2022-08-16T11:07:30Z</time>
      </trkpt>
      <trkpt lat="44.44067" lon="6.91216">
        <ele>2297.4</ele>
        <time>2022-08-16T11:07:34Z</time>
      </trkpt>
      <trkpt lat="44.44049" lon="6.9123">
        <ele>2297.2</ele>
        <time>2022-08-16T11:07:41Z</time>
      </trkpt>
      <trkpt lat="44.44046" lon="6.91233">
        <ele>2297.2</ele>
        <time>2022-08-16T11:07:42Z</time>
      </trkpt>
      <trkpt lat="44.44044" lon="6.91235">
        <ele>2297</ele>
        <time>2022-08-16T11:07:43Z</time>
      </trkpt>
      <trkpt lat="44.44041" lon="6.91237">
        <ele>2297.2</ele>
        <time>2022-08-16T11:07:44Z</time>
      </trkpt>
      <trkpt lat="44.44039" lon="6.91239">
        <ele>2297</ele>
        <time>2022-08-16T11:07:45Z</time>
      </trkpt>
      <trkpt lat="44.44037" lon="6.91242">
        <ele>2297</ele>
        <time>2022-08-16T11:07:46Z</time>
      </trkpt>
      <trkpt lat="44.44035" lon="6.91245">
        <ele>2297.2</ele>
        <time>2022-08-16T11:07:47Z</time>
      </trkpt>
      <trkpt lat="44.44033" lon="6.91247">
        <ele>2297</ele>
        <time>2022-08-16T11:07:48Z</time>
      </trkpt>
      <trkpt lat="44.44031" lon="6.91249">
        <ele>2297.2</ele>
        <time>2022-08-16T11:07:49Z</time>
      </trkpt>
      <trkpt lat="44.44029" lon="6.91251">
        <ele>2297.2</ele>
        <time>2022-08-16T11:07:50Z</time>
      </trkpt>
      <trkpt lat="44.44028" lon="6.91253">
        <ele>2297.2</ele>
        <time>2022-08-16T11:07:51Z</time>
      </trkpt>
      <trkpt lat="44.44026" lon="6.91255">
        <ele>2297.2</ele>
        <time>2022-08-16T11:07:52Z</time>
      </trkpt>
      <trkpt lat="44.44025" lon="6.91256">
        <ele>2297.2</ele>
        <time>2022-08-16T11:07:53Z</time>
      </trkpt>
      <trkpt lat="44.44025" lon="6.91258">
        <ele>2297.2</ele>
        <time>2022-08-16T11:07:54Z</time>
      </trkpt>
      <trkpt lat="44.44024" lon="6.9126">
        <ele>2297</ele>
        <time>2022-08-16T11:07:55Z</time>
      </trkpt>
      <trkpt lat="44.44024" lon="6.91262">
        <ele>2297.2</ele>
        <time>2022-08-16T11:07:56Z</time>
      </trkpt>
      <trkpt lat="44.44024" lon="6.91264">
        <ele>2297.2</ele>
        <time>2022-08-16T11:07:57Z</time>
      </trkpt>
      <trkpt lat="44.44023" lon="6.91266">
        <ele>2297.2</ele>
        <time>2022-08-16T11:07:58Z</time>
      </trkpt>
      <trkpt lat="44.4402" lon="6.91271">
        <ele>2297.6</ele>
        <time>2022-08-16T11:08:01Z</time>
      </trkpt>
      <trkpt lat="44.44017" lon="6.91272">
        <ele>2298</ele>
        <time>2022-08-16T11:08:03Z</time>
      </trkpt>
      <trkpt lat="44.44015" lon="6.91273">
        <ele>2298</ele>
        <time>2022-08-16T11:08:04Z</time>
      </trkpt>
      <trkpt lat="44.44013" lon="6.91274">
        <ele>2298</ele>
        <time>2022-08-16T11:08:05Z</time>
      </trkpt>
      <trkpt lat="44.44011" lon="6.91275">
        <ele>2298.4</ele>
        <time>2022-08-16T11:08:06Z</time>
      </trkpt>
      <trkpt lat="44.44009" lon="6.91276">
        <ele>2298.4</ele>
        <time>2022-08-16T11:08:07Z</time>
      </trkpt>
      <trkpt lat="44.44008" lon="6.91277">
        <ele>2298.4</ele>
        <time>2022-08-16T11:08:08Z</time>
      </trkpt>
      <trkpt lat="44.44007" lon="6.91278">
        <ele>2298.6</ele>
        <time>2022-08-16T11:08:09Z</time>
      </trkpt>
      <trkpt lat="44.44006" lon="6.9128">
        <ele>2298.6</ele>
        <time>2022-08-16T11:08:10Z</time>
      </trkpt>
      <trkpt lat="44.44002" lon="6.91283">
        <ele>2298.6</ele>
        <time>2022-08-16T11:08:13Z</time>
      </trkpt>
      <trkpt lat="44.44" lon="6.91285">
        <ele>2298.8</ele>
        <time>2022-08-16T11:08:14Z</time>
      </trkpt>
      <trkpt lat="44.43999" lon="6.91286">
        <ele>2298.8</ele>
        <time>2022-08-16T11:08:15Z</time>
      </trkpt>
      <trkpt lat="44.43998" lon="6.91287">
        <ele>2298.8</ele>
        <time>2022-08-16T11:08:16Z</time>
      </trkpt>
      <trkpt lat="44.43995" lon="6.91289">
        <ele>2299</ele>
        <time>2022-08-16T11:08:18Z</time>
      </trkpt>
      <trkpt lat="44.43994" lon="6.9129">
        <ele>2298.8</ele>
        <time>2022-08-16T11:08:19Z</time>
      </trkpt>
      <trkpt lat="44.43992" lon="6.91291">
        <ele>2298.8</ele>
        <time>2022-08-16T11:08:20Z</time>
      </trkpt>
      <trkpt lat="44.43991" lon="6.91293">
        <ele>2299</ele>
        <time>2022-08-16T11:08:21Z</time>
      </trkpt>
      <trkpt lat="44.4399" lon="6.91294">
        <ele>2299</ele>
        <time>2022-08-16T11:08:22Z</time>
      </trkpt>
      <trkpt lat="44.4399" lon="6.91295">
        <ele>2299.2</ele>
        <time>2022-08-16T11:08:23Z</time>
      </trkpt>
      <trkpt lat="44.43988" lon="6.91296">
        <ele>2299.4</ele>
        <time>2022-08-16T11:08:24Z</time>
      </trkpt>
      <trkpt lat="44.43987" lon="6.91297">
        <ele>2299.4</ele>
        <time>2022-08-16T11:08:25Z</time>
      </trkpt>
      <trkpt lat="44.43986" lon="6.91299">
        <ele>2299.8</ele>
        <time>2022-08-16T11:08:26Z</time>
      </trkpt>
      <trkpt lat="44.43985" lon="6.913">
        <ele>2299.8</ele>
        <time>2022-08-16T11:08:27Z</time>
      </trkpt>
      <trkpt lat="44.43984" lon="6.91301">
        <ele>2300</ele>
        <time>2022-08-16T11:08:28Z</time>
      </trkpt>
      <trkpt lat="44.43983" lon="6.91302">
        <ele>2300.4</ele>
        <time>2022-08-16T11:08:29Z</time>
      </trkpt>
      <trkpt lat="44.43982" lon="6.91303">
        <ele>2300.6</ele>
        <time>2022-08-16T11:08:30Z</time>
      </trkpt>
      <trkpt lat="44.43981" lon="6.91305">
        <ele>2301.2</ele>
        <time>2022-08-16T11:08:31Z</time>
      </trkpt>
      <trkpt lat="44.4398" lon="6.91306">
        <ele>2301.4</ele>
        <time>2022-08-16T11:08:32Z</time>
      </trkpt>
      <trkpt lat="44.43979" lon="6.91307">
        <ele>2301.6</ele>
        <time>2022-08-16T11:08:33Z</time>
      </trkpt>
      <trkpt lat="44.43977" lon="6.91307">
        <ele>2301.8</ele>
        <time>2022-08-16T11:08:34Z</time>
      </trkpt>
      <trkpt lat="44.43976" lon="6.91307">
        <ele>2301.8</ele>
        <time>2022-08-16T11:08:35Z</time>
      </trkpt>
      <trkpt lat="44.43975" lon="6.91308">
        <ele>2301.8</ele>
        <time>2022-08-16T11:08:36Z</time>
      </trkpt>
      <trkpt lat="44.43973" lon="6.91308">
        <ele>2302</ele>
        <time>2022-08-16T11:08:37Z</time>
      </trkpt>
      <trkpt lat="44.43972" lon="6.91309">
        <ele>2302.2</ele>
        <time>2022-08-16T11:08:38Z</time>
      </trkpt>
      <trkpt lat="44.43971" lon="6.9131">
        <ele>2302</ele>
        <time>2022-08-16T11:08:39Z</time>
      </trkpt>
      <trkpt lat="44.4397" lon="6.91311">
        <ele>2302</ele>
        <time>2022-08-16T11:08:40Z</time>
      </trkpt>
      <trkpt lat="44.43969" lon="6.91312">
        <ele>2302.2</ele>
        <time>2022-08-16T11:08:41Z</time>
      </trkpt>
      <trkpt lat="44.43968" lon="6.91313">
        <ele>2302.4</ele>
        <time>2022-08-16T11:08:42Z</time>
      </trkpt>
      <trkpt lat="44.43967" lon="6.91314">
        <ele>2302.4</ele>
        <time>2022-08-16T11:08:43Z</time>
      </trkpt>
      <trkpt lat="44.43967" lon="6.91316">
        <ele>2302.6</ele>
        <time>2022-08-16T11:08:44Z</time>
      </trkpt>
      <trkpt lat="44.43966" lon="6.91317">
        <ele>2302.8</ele>
        <time>2022-08-16T11:08:45Z</time>
      </trkpt>
      <trkpt lat="44.43965" lon="6.91319">
        <ele>2303.2</ele>
        <time>2022-08-16T11:08:46Z</time>
      </trkpt>
      <trkpt lat="44.43964" lon="6.9132">
        <ele>2303.6</ele>
        <time>2022-08-16T11:08:47Z</time>
      </trkpt>
      <trkpt lat="44.43963" lon="6.91322">
        <ele>2303.6</ele>
        <time>2022-08-16T11:08:48Z</time>
      </trkpt>
      <trkpt lat="44.43962" lon="6.91324">
        <ele>2303.6</ele>
        <time>2022-08-16T11:08:49Z</time>
      </trkpt>
      <trkpt lat="44.4396" lon="6.91325">
        <ele>2304</ele>
        <time>2022-08-16T11:08:50Z</time>
      </trkpt>
      <trkpt lat="44.43958" lon="6.91327">
        <ele>2304</ele>
        <time>2022-08-16T11:08:51Z</time>
      </trkpt>
      <trkpt lat="44.43956" lon="6.91329">
        <ele>2304.2</ele>
        <time>2022-08-16T11:08:52Z</time>
      </trkpt>
      <trkpt lat="44.43954" lon="6.9133">
        <ele>2304.2</ele>
        <time>2022-08-16T11:08:53Z</time>
      </trkpt>
      <trkpt lat="44.43953" lon="6.91331">
        <ele>2304</ele>
        <time>2022-08-16T11:08:54Z</time>
      </trkpt>
      <trkpt lat="44.43952" lon="6.91333">
        <ele>2304.2</ele>
        <time>2022-08-16T11:08:55Z</time>
      </trkpt>
      <trkpt lat="44.4395" lon="6.91333">
        <ele>2304.6</ele>
        <time>2022-08-16T11:08:56Z</time>
      </trkpt>
      <trkpt lat="44.43949" lon="6.91334">
        <ele>2304.4</ele>
        <time>2022-08-16T11:08:57Z</time>
      </trkpt>
      <trkpt lat="44.43948" lon="6.91335">
        <ele>2304.6</ele>
        <time>2022-08-16T11:08:58Z</time>
      </trkpt>
      <trkpt lat="44.43947" lon="6.91336">
        <ele>2304.6</ele>
        <time>2022-08-16T11:08:59Z</time>
      </trkpt>
      <trkpt lat="44.43946" lon="6.91337">
        <ele>2304.6</ele>
        <time>2022-08-16T11:09:00Z</time>
      </trkpt>
      <trkpt lat="44.43945" lon="6.91339">
        <ele>2304.8</ele>
        <time>2022-08-16T11:09:01Z</time>
      </trkpt>
      <trkpt lat="44.43944" lon="6.91341">
        <ele>2304.8</ele>
        <time>2022-08-16T11:09:02Z</time>
      </trkpt>
      <trkpt lat="44.43942" lon="6.91344">
        <ele>2304.8</ele>
        <time>2022-08-16T11:09:04Z</time>
      </trkpt>
      <trkpt lat="44.4394" lon="6.91345">
        <ele>2305</ele>
        <time>2022-08-16T11:09:05Z</time>
      </trkpt>
      <trkpt lat="44.43939" lon="6.91346">
        <ele>2305</ele>
        <time>2022-08-16T11:09:06Z</time>
      </trkpt>
      <trkpt lat="44.43938" lon="6.91347">
        <ele>2305.2</ele>
        <time>2022-08-16T11:09:07Z</time>
      </trkpt>
      <trkpt lat="44.43937" lon="6.91347">
        <ele>2305.2</ele>
        <time>2022-08-16T11:09:08Z</time>
      </trkpt>
      <trkpt lat="44.43935" lon="6.9135">
        <ele>2305.4</ele>
        <time>2022-08-16T11:09:10Z</time>
      </trkpt>
      <trkpt lat="44.43933" lon="6.91352">
        <ele>2305.4</ele>
        <time>2022-08-16T11:09:12Z</time>
      </trkpt>
      <trkpt lat="44.43932" lon="6.91353">
        <ele>2305.4</ele>
        <time>2022-08-16T11:09:13Z</time>
      </trkpt>
      <trkpt lat="44.43931" lon="6.91355">
        <ele>2305.4</ele>
        <time>2022-08-16T11:09:14Z</time>
      </trkpt>
      <trkpt lat="44.4393" lon="6.91357">
        <ele>2305.8</ele>
        <time>2022-08-16T11:09:15Z</time>
      </trkpt>
      <trkpt lat="44.43929" lon="6.91358">
        <ele>2306</ele>
        <time>2022-08-16T11:09:16Z</time>
      </trkpt>
      <trkpt lat="44.43928" lon="6.9136">
        <ele>2306.2</ele>
        <time>2022-08-16T11:09:17Z</time>
      </trkpt>
      <trkpt lat="44.43927" lon="6.91362">
        <ele>2306.4</ele>
        <time>2022-08-16T11:09:18Z</time>
      </trkpt>
      <trkpt lat="44.43925" lon="6.91368">
        <ele>2306.4</ele>
        <time>2022-08-16T11:09:21Z</time>
      </trkpt>
      <trkpt lat="44.43924" lon="6.9137">
        <ele>2306.6</ele>
        <time>2022-08-16T11:09:22Z</time>
      </trkpt>
      <trkpt lat="44.43924" lon="6.91372">
        <ele>2306.6</ele>
        <time>2022-08-16T11:09:23Z</time>
      </trkpt>
      <trkpt lat="44.43923" lon="6.91374">
        <ele>2306.8</ele>
        <time>2022-08-16T11:09:24Z</time>
      </trkpt>
      <trkpt lat="44.43923" lon="6.91376">
        <ele>2306.8</ele>
        <time>2022-08-16T11:09:25Z</time>
      </trkpt>
      <trkpt lat="44.43923" lon="6.91378">
        <ele>2306.8</ele>
        <time>2022-08-16T11:09:26Z</time>
      </trkpt>
      <trkpt lat="44.43922" lon="6.91382">
        <ele>2307</ele>
        <time>2022-08-16T11:09:28Z</time>
      </trkpt>
      <trkpt lat="44.43922" lon="6.91383">
        <ele>2306.8</ele>
        <time>2022-08-16T11:09:29Z</time>
      </trkpt>
      <trkpt lat="44.43921" lon="6.91392">
        <ele>2307.2</ele>
        <time>2022-08-16T11:09:34Z</time>
      </trkpt>
      <trkpt lat="44.43921" lon="6.91395">
        <ele>2307.2</ele>
        <time>2022-08-16T11:09:35Z</time>
      </trkpt>
      <trkpt lat="44.43918" lon="6.91404">
        <ele>2307.4</ele>
        <time>2022-08-16T11:09:38Z</time>
      </trkpt>
      <trkpt lat="44.43917" lon="6.91406">
        <ele>2307.2</ele>
        <time>2022-08-16T11:09:39Z</time>
      </trkpt>
      <trkpt lat="44.43916" lon="6.91408">
        <ele>2307.4</ele>
        <time>2022-08-16T11:09:40Z</time>
      </trkpt>
      <trkpt lat="44.43916" lon="6.9141">
        <ele>2307.4</ele>
        <time>2022-08-16T11:09:41Z</time>
      </trkpt>
      <trkpt lat="44.43915" lon="6.91412">
        <ele>2307.6</ele>
        <time>2022-08-16T11:09:42Z</time>
      </trkpt>
      <trkpt lat="44.43914" lon="6.91413">
        <ele>2307.4</ele>
        <time>2022-08-16T11:09:43Z</time>
      </trkpt>
      <trkpt lat="44.43913" lon="6.91415">
        <ele>2307.6</ele>
        <time>2022-08-16T11:09:44Z</time>
      </trkpt>
      <trkpt lat="44.43912" lon="6.91416">
        <ele>2307.6</ele>
        <time>2022-08-16T11:09:45Z</time>
      </trkpt>
      <trkpt lat="44.43911" lon="6.91417">
        <ele>2307.6</ele>
        <time>2022-08-16T11:09:46Z</time>
      </trkpt>
      <trkpt lat="44.4391" lon="6.91418">
        <ele>2307.8</ele>
        <time>2022-08-16T11:09:47Z</time>
      </trkpt>
      <trkpt lat="44.43909" lon="6.91419">
        <ele>2307.8</ele>
        <time>2022-08-16T11:09:48Z</time>
      </trkpt>
      <trkpt lat="44.43906" lon="6.9142">
        <ele>2308</ele>
        <time>2022-08-16T11:09:50Z</time>
      </trkpt>
      <trkpt lat="44.43905" lon="6.91421">
        <ele>2307.8</ele>
        <time>2022-08-16T11:09:51Z</time>
      </trkpt>
      <trkpt lat="44.43904" lon="6.91422">
        <ele>2308.2</ele>
        <time>2022-08-16T11:09:52Z</time>
      </trkpt>
      <trkpt lat="44.43903" lon="6.91422">
        <ele>2308.2</ele>
        <time>2022-08-16T11:09:53Z</time>
      </trkpt>
      <trkpt lat="44.43902" lon="6.91423">
        <ele>2308.4</ele>
        <time>2022-08-16T11:09:54Z</time>
      </trkpt>
      <trkpt lat="44.43902" lon="6.91424">
        <ele>2308.6</ele>
        <time>2022-08-16T11:09:55Z</time>
      </trkpt>
      <trkpt lat="44.43901" lon="6.91425">
        <ele>2308.8</ele>
        <time>2022-08-16T11:09:56Z</time>
      </trkpt>
      <trkpt lat="44.439" lon="6.91426">
        <ele>2309</ele>
        <time>2022-08-16T11:09:57Z</time>
      </trkpt>
      <trkpt lat="44.43899" lon="6.91427">
        <ele>2309.2</ele>
        <time>2022-08-16T11:09:58Z</time>
      </trkpt>
      <trkpt lat="44.43898" lon="6.91427">
        <ele>2309.2</ele>
        <time>2022-08-16T11:09:59Z</time>
      </trkpt>
      <trkpt lat="44.43897" lon="6.91429">
        <ele>2309.6</ele>
        <time>2022-08-16T11:10:00Z</time>
      </trkpt>
      <trkpt lat="44.43896" lon="6.91429">
        <ele>2310.2</ele>
        <time>2022-08-16T11:10:01Z</time>
      </trkpt>
      <trkpt lat="44.43895" lon="6.9143">
        <ele>2310.4</ele>
        <time>2022-08-16T11:10:02Z</time>
      </trkpt>
      <trkpt lat="44.43894" lon="6.91431">
        <ele>2310.8</ele>
        <time>2022-08-16T11:10:03Z</time>
      </trkpt>
      <trkpt lat="44.43893" lon="6.91432">
        <ele>2311</ele>
        <time>2022-08-16T11:10:04Z</time>
      </trkpt>
      <trkpt lat="44.43892" lon="6.91434">
        <ele>2311.2</ele>
        <time>2022-08-16T11:10:05Z</time>
      </trkpt>
      <trkpt lat="44.43891" lon="6.91435">
        <ele>2311.4</ele>
        <time>2022-08-16T11:10:06Z</time>
      </trkpt>
      <trkpt lat="44.4389" lon="6.91436">
        <ele>2311.4</ele>
        <time>2022-08-16T11:10:07Z</time>
      </trkpt>
      <trkpt lat="44.43889" lon="6.91438">
        <ele>2311.8</ele>
        <time>2022-08-16T11:10:08Z</time>
      </trkpt>
      <trkpt lat="44.43889" lon="6.91439">
        <ele>2312</ele>
        <time>2022-08-16T11:10:09Z</time>
      </trkpt>
      <trkpt lat="44.43888" lon="6.91441">
        <ele>2312</ele>
        <time>2022-08-16T11:10:10Z</time>
      </trkpt>
      <trkpt lat="44.43887" lon="6.91442">
        <ele>2312.6</ele>
        <time>2022-08-16T11:10:11Z</time>
      </trkpt>
      <trkpt lat="44.43886" lon="6.91443">
        <ele>2312.8</ele>
        <time>2022-08-16T11:10:12Z</time>
      </trkpt>
      <trkpt lat="44.43885" lon="6.91444">
        <ele>2313</ele>
        <time>2022-08-16T11:10:13Z</time>
      </trkpt>
      <trkpt lat="44.43884" lon="6.91446">
        <ele>2313.2</ele>
        <time>2022-08-16T11:10:14Z</time>
      </trkpt>
      <trkpt lat="44.43883" lon="6.91447">
        <ele>2313.2</ele>
        <time>2022-08-16T11:10:15Z</time>
      </trkpt>
      <trkpt lat="44.43882" lon="6.91449">
        <ele>2313.2</ele>
        <time>2022-08-16T11:10:16Z</time>
      </trkpt>
      <trkpt lat="44.43881" lon="6.9145">
        <ele>2313.6</ele>
        <time>2022-08-16T11:10:17Z</time>
      </trkpt>
      <trkpt lat="44.4388" lon="6.91452">
        <ele>2313.8</ele>
        <time>2022-08-16T11:10:18Z</time>
      </trkpt>
      <trkpt lat="44.43879" lon="6.91453">
        <ele>2314.2</ele>
        <time>2022-08-16T11:10:19Z</time>
      </trkpt>
      <trkpt lat="44.43878" lon="6.91455">
        <ele>2314.4</ele>
        <time>2022-08-16T11:10:20Z</time>
      </trkpt>
      <trkpt lat="44.43877" lon="6.91457">
        <ele>2314.8</ele>
        <time>2022-08-16T11:10:21Z</time>
      </trkpt>
      <trkpt lat="44.43877" lon="6.91458">
        <ele>2315</ele>
        <time>2022-08-16T11:10:22Z</time>
      </trkpt>
      <trkpt lat="44.43876" lon="6.9146">
        <ele>2315</ele>
        <time>2022-08-16T11:10:23Z</time>
      </trkpt>
      <trkpt lat="44.43876" lon="6.91461">
        <ele>2315.4</ele>
        <time>2022-08-16T11:10:24Z</time>
      </trkpt>
      <trkpt lat="44.43875" lon="6.91462">
        <ele>2315.8</ele>
        <time>2022-08-16T11:10:25Z</time>
      </trkpt>
      <trkpt lat="44.43875" lon="6.91464">
        <ele>2315.8</ele>
        <time>2022-08-16T11:10:26Z</time>
      </trkpt>
      <trkpt lat="44.43874" lon="6.91465">
        <ele>2316.2</ele>
        <time>2022-08-16T11:10:27Z</time>
      </trkpt>
      <trkpt lat="44.43873" lon="6.91466">
        <ele>2316.4</ele>
        <time>2022-08-16T11:10:28Z</time>
      </trkpt>
      <trkpt lat="44.43873" lon="6.91468">
        <ele>2316.8</ele>
        <time>2022-08-16T11:10:29Z</time>
      </trkpt>
      <trkpt lat="44.43872" lon="6.91469">
        <ele>2317</ele>
        <time>2022-08-16T11:10:30Z</time>
      </trkpt>
      <trkpt lat="44.43872" lon="6.9147">
        <ele>2317.2</ele>
        <time>2022-08-16T11:10:31Z</time>
      </trkpt>
      <trkpt lat="44.43871" lon="6.91472">
        <ele>2317.4</ele>
        <time>2022-08-16T11:10:32Z</time>
      </trkpt>
      <trkpt lat="44.43871" lon="6.91473">
        <ele>2317.6</ele>
        <time>2022-08-16T11:10:33Z</time>
      </trkpt>
      <trkpt lat="44.4387" lon="6.91475">
        <ele>2317.6</ele>
        <time>2022-08-16T11:10:34Z</time>
      </trkpt>
      <trkpt lat="44.4387" lon="6.91476">
        <ele>2317.8</ele>
        <time>2022-08-16T11:10:35Z</time>
      </trkpt>
      <trkpt lat="44.43869" lon="6.91478">
        <ele>2318</ele>
        <time>2022-08-16T11:10:36Z</time>
      </trkpt>
      <trkpt lat="44.43869" lon="6.91479">
        <ele>2318</ele>
        <time>2022-08-16T11:10:37Z</time>
      </trkpt>
      <trkpt lat="44.43868" lon="6.9148">
        <ele>2318.2</ele>
        <time>2022-08-16T11:10:38Z</time>
      </trkpt>
      <trkpt lat="44.43867" lon="6.91481">
        <ele>2318.4</ele>
        <time>2022-08-16T11:10:39Z</time>
      </trkpt>
      <trkpt lat="44.43867" lon="6.91483">
        <ele>2318.6</ele>
        <time>2022-08-16T11:10:40Z</time>
      </trkpt>
      <trkpt lat="44.43866" lon="6.91484">
        <ele>2318.6</ele>
        <time>2022-08-16T11:10:41Z</time>
      </trkpt>
      <trkpt lat="44.43865" lon="6.91485">
        <ele>2318.6</ele>
        <time>2022-08-16T11:10:42Z</time>
      </trkpt>
      <trkpt lat="44.43865" lon="6.91486">
        <ele>2318.8</ele>
        <time>2022-08-16T11:10:43Z</time>
      </trkpt>
      <trkpt lat="44.43864" lon="6.91487">
        <ele>2318.8</ele>
        <time>2022-08-16T11:10:44Z</time>
      </trkpt>
      <trkpt lat="44.43863" lon="6.91489">
        <ele>2319.2</ele>
        <time>2022-08-16T11:10:45Z</time>
      </trkpt>
      <trkpt lat="44.43863" lon="6.9149">
        <ele>2319.4</ele>
        <time>2022-08-16T11:10:46Z</time>
      </trkpt>
      <trkpt lat="44.43862" lon="6.91491">
        <ele>2319.6</ele>
        <time>2022-08-16T11:10:47Z</time>
      </trkpt>
      <trkpt lat="44.43861" lon="6.91492">
        <ele>2320</ele>
        <time>2022-08-16T11:10:48Z</time>
      </trkpt>
      <trkpt lat="44.43861" lon="6.91493">
        <ele>2320.2</ele>
        <time>2022-08-16T11:10:49Z</time>
      </trkpt>
      <trkpt lat="44.4386" lon="6.91495">
        <ele>2320.4</ele>
        <time>2022-08-16T11:10:50Z</time>
      </trkpt>
      <trkpt lat="44.43859" lon="6.91496">
        <ele>2320.6</ele>
        <time>2022-08-16T11:10:51Z</time>
      </trkpt>
      <trkpt lat="44.43859" lon="6.91497">
        <ele>2320.8</ele>
        <time>2022-08-16T11:10:52Z</time>
      </trkpt>
      <trkpt lat="44.43858" lon="6.91498">
        <ele>2321.2</ele>
        <time>2022-08-16T11:10:53Z</time>
      </trkpt>
      <trkpt lat="44.43857" lon="6.91499">
        <ele>2321.4</ele>
        <time>2022-08-16T11:10:54Z</time>
      </trkpt>
      <trkpt lat="44.43857" lon="6.915">
        <ele>2321.4</ele>
        <time>2022-08-16T11:10:55Z</time>
      </trkpt>
      <trkpt lat="44.43856" lon="6.91502">
        <ele>2321.8</ele>
        <time>2022-08-16T11:10:56Z</time>
      </trkpt>
      <trkpt lat="44.43855" lon="6.91503">
        <ele>2322</ele>
        <time>2022-08-16T11:10:57Z</time>
      </trkpt>
      <trkpt lat="44.43855" lon="6.91504">
        <ele>2322.2</ele>
        <time>2022-08-16T11:10:58Z</time>
      </trkpt>
      <trkpt lat="44.43854" lon="6.91506">
        <ele>2322.2</ele>
        <time>2022-08-16T11:10:59Z</time>
      </trkpt>
      <trkpt lat="44.43853" lon="6.91507">
        <ele>2322.4</ele>
        <time>2022-08-16T11:11:00Z</time>
      </trkpt>
      <trkpt lat="44.43853" lon="6.91509">
        <ele>2322.6</ele>
        <time>2022-08-16T11:11:01Z</time>
      </trkpt>
      <trkpt lat="44.43853" lon="6.9151">
        <ele>2322.8</ele>
        <time>2022-08-16T11:11:02Z</time>
      </trkpt>
      <trkpt lat="44.43852" lon="6.91512">
        <ele>2323.2</ele>
        <time>2022-08-16T11:11:03Z</time>
      </trkpt>
      <trkpt lat="44.43851" lon="6.91513">
        <ele>2323.6</ele>
        <time>2022-08-16T11:11:04Z</time>
      </trkpt>
      <trkpt lat="44.4385" lon="6.91514">
        <ele>2323.8</ele>
        <time>2022-08-16T11:11:05Z</time>
      </trkpt>
      <trkpt lat="44.4385" lon="6.91515">
        <ele>2323.8</ele>
        <time>2022-08-16T11:11:06Z</time>
      </trkpt>
      <trkpt lat="44.43849" lon="6.91516">
        <ele>2324</ele>
        <time>2022-08-16T11:11:07Z</time>
      </trkpt>
      <trkpt lat="44.43848" lon="6.91517">
        <ele>2324.2</ele>
        <time>2022-08-16T11:11:08Z</time>
      </trkpt>
      <trkpt lat="44.43847" lon="6.91518">
        <ele>2324.4</ele>
        <time>2022-08-16T11:11:09Z</time>
      </trkpt>
      <trkpt lat="44.43846" lon="6.91519">
        <ele>2324.4</ele>
        <time>2022-08-16T11:11:10Z</time>
      </trkpt>
      <trkpt lat="44.43845" lon="6.9152">
        <ele>2324.6</ele>
        <time>2022-08-16T11:11:11Z</time>
      </trkpt>
      <trkpt lat="44.43844" lon="6.91521">
        <ele>2324.8</ele>
        <time>2022-08-16T11:11:12Z</time>
      </trkpt>
      <trkpt lat="44.43843" lon="6.91522">
        <ele>2325.4</ele>
        <time>2022-08-16T11:11:13Z</time>
      </trkpt>
      <trkpt lat="44.43842" lon="6.91523">
        <ele>2325.8</ele>
        <time>2022-08-16T11:11:14Z</time>
      </trkpt>
      <trkpt lat="44.43842" lon="6.91524">
        <ele>2326</ele>
        <time>2022-08-16T11:11:15Z</time>
      </trkpt>
      <trkpt lat="44.43841" lon="6.91526">
        <ele>2326.2</ele>
        <time>2022-08-16T11:11:16Z</time>
      </trkpt>
      <trkpt lat="44.4384" lon="6.91527">
        <ele>2326.6</ele>
        <time>2022-08-16T11:11:17Z</time>
      </trkpt>
      <trkpt lat="44.4384" lon="6.91529">
        <ele>2326.8</ele>
        <time>2022-08-16T11:11:18Z</time>
      </trkpt>
      <trkpt lat="44.43839" lon="6.9153">
        <ele>2326.8</ele>
        <time>2022-08-16T11:11:19Z</time>
      </trkpt>
      <trkpt lat="44.43838" lon="6.91532">
        <ele>2327</ele>
        <time>2022-08-16T11:11:20Z</time>
      </trkpt>
      <trkpt lat="44.43837" lon="6.91533">
        <ele>2327</ele>
        <time>2022-08-16T11:11:21Z</time>
      </trkpt>
      <trkpt lat="44.43837" lon="6.91534">
        <ele>2327</ele>
        <time>2022-08-16T11:11:22Z</time>
      </trkpt>
      <trkpt lat="44.43836" lon="6.91536">
        <ele>2327</ele>
        <time>2022-08-16T11:11:23Z</time>
      </trkpt>
      <trkpt lat="44.43836" lon="6.91537">
        <ele>2327.4</ele>
        <time>2022-08-16T11:11:24Z</time>
      </trkpt>
      <trkpt lat="44.43835" lon="6.91539">
        <ele>2327.4</ele>
        <time>2022-08-16T11:11:25Z</time>
      </trkpt>
      <trkpt lat="44.43835" lon="6.91541">
        <ele>2327.6</ele>
        <time>2022-08-16T11:11:26Z</time>
      </trkpt>
      <trkpt lat="44.43834" lon="6.91543">
        <ele>2327.8</ele>
        <time>2022-08-16T11:11:27Z</time>
      </trkpt>
      <trkpt lat="44.43833" lon="6.91545">
        <ele>2328</ele>
        <time>2022-08-16T11:11:28Z</time>
      </trkpt>
      <trkpt lat="44.43832" lon="6.91548">
        <ele>2328</ele>
        <time>2022-08-16T11:11:29Z</time>
      </trkpt>
      <trkpt lat="44.43831" lon="6.9155">
        <ele>2328.2</ele>
        <time>2022-08-16T11:11:30Z</time>
      </trkpt>
      <trkpt lat="44.4383" lon="6.91552">
        <ele>2328.2</ele>
        <time>2022-08-16T11:11:31Z</time>
      </trkpt>
      <trkpt lat="44.43829" lon="6.91555">
        <ele>2328</ele>
        <time>2022-08-16T11:11:32Z</time>
      </trkpt>
      <trkpt lat="44.43829" lon="6.91558">
        <ele>2328.2</ele>
        <time>2022-08-16T11:11:33Z</time>
      </trkpt>
      <trkpt lat="44.43829" lon="6.91562">
        <ele>2328.4</ele>
        <time>2022-08-16T11:11:34Z</time>
      </trkpt>
      <trkpt lat="44.43829" lon="6.91565">
        <ele>2328.4</ele>
        <time>2022-08-16T11:11:35Z</time>
      </trkpt>
      <trkpt lat="44.43829" lon="6.91569">
        <ele>2328.2</ele>
        <time>2022-08-16T11:11:36Z</time>
      </trkpt>
      <trkpt lat="44.43829" lon="6.91572">
        <ele>2328.2</ele>
        <time>2022-08-16T11:11:37Z</time>
      </trkpt>
      <trkpt lat="44.43828" lon="6.91574">
        <ele>2328.4</ele>
        <time>2022-08-16T11:11:38Z</time>
      </trkpt>
      <trkpt lat="44.43827" lon="6.91576">
        <ele>2328.4</ele>
        <time>2022-08-16T11:11:39Z</time>
      </trkpt>
      <trkpt lat="44.43826" lon="6.91578">
        <ele>2328.6</ele>
        <time>2022-08-16T11:11:40Z</time>
      </trkpt>
      <trkpt lat="44.43825" lon="6.9158">
        <ele>2328.4</ele>
        <time>2022-08-16T11:11:41Z</time>
      </trkpt>
      <trkpt lat="44.43824" lon="6.91581">
        <ele>2328.4</ele>
        <time>2022-08-16T11:11:42Z</time>
      </trkpt>
      <trkpt lat="44.43823" lon="6.91582">
        <ele>2328.4</ele>
        <time>2022-08-16T11:11:43Z</time>
      </trkpt>
      <trkpt lat="44.43821" lon="6.91585">
        <ele>2328.6</ele>
        <time>2022-08-16T11:11:45Z</time>
      </trkpt>
      <trkpt lat="44.43819" lon="6.91586">
        <ele>2328.6</ele>
        <time>2022-08-16T11:11:46Z</time>
      </trkpt>
      <trkpt lat="44.43819" lon="6.91588">
        <ele>2328.8</ele>
        <time>2022-08-16T11:11:47Z</time>
      </trkpt>
      <trkpt lat="44.43818" lon="6.9159">
        <ele>2329</ele>
        <time>2022-08-16T11:11:48Z</time>
      </trkpt>
      <trkpt lat="44.43817" lon="6.91591">
        <ele>2329.2</ele>
        <time>2022-08-16T11:11:49Z</time>
      </trkpt>
      <trkpt lat="44.43817" lon="6.91593">
        <ele>2329.8</ele>
        <time>2022-08-16T11:11:50Z</time>
      </trkpt>
      <trkpt lat="44.43816" lon="6.91594">
        <ele>2330</ele>
        <time>2022-08-16T11:11:51Z</time>
      </trkpt>
      <trkpt lat="44.43815" lon="6.91596">
        <ele>2330</ele>
        <time>2022-08-16T11:11:52Z</time>
      </trkpt>
      <trkpt lat="44.43815" lon="6.91598">
        <ele>2330.2</ele>
        <time>2022-08-16T11:11:53Z</time>
      </trkpt>
      <trkpt lat="44.43814" lon="6.91599">
        <ele>2330.4</ele>
        <time>2022-08-16T11:11:54Z</time>
      </trkpt>
      <trkpt lat="44.43813" lon="6.916">
        <ele>2330.4</ele>
        <time>2022-08-16T11:11:55Z</time>
      </trkpt>
      <trkpt lat="44.43812" lon="6.91601">
        <ele>2330.4</ele>
        <time>2022-08-16T11:11:56Z</time>
      </trkpt>
      <trkpt lat="44.43811" lon="6.91602">
        <ele>2330.6</ele>
        <time>2022-08-16T11:11:57Z</time>
      </trkpt>
      <trkpt lat="44.4381" lon="6.91603">
        <ele>2330.6</ele>
        <time>2022-08-16T11:11:58Z</time>
      </trkpt>
      <trkpt lat="44.43809" lon="6.91604">
        <ele>2330.4</ele>
        <time>2022-08-16T11:11:59Z</time>
      </trkpt>
      <trkpt lat="44.43808" lon="6.91604">
        <ele>2330.4</ele>
        <time>2022-08-16T11:12:00Z</time>
      </trkpt>
      <trkpt lat="44.43801" lon="6.91608">
        <ele>2331</ele>
        <time>2022-08-16T11:12:06Z</time>
      </trkpt>
      <trkpt lat="44.43799" lon="6.9161">
        <ele>2331</ele>
        <time>2022-08-16T11:12:08Z</time>
      </trkpt>
      <trkpt lat="44.43798" lon="6.91611">
        <ele>2331.2</ele>
        <time>2022-08-16T11:12:09Z</time>
      </trkpt>
      <trkpt lat="44.43797" lon="6.91613">
        <ele>2331.4</ele>
        <time>2022-08-16T11:12:10Z</time>
      </trkpt>
      <trkpt lat="44.43796" lon="6.91614">
        <ele>2331.6</ele>
        <time>2022-08-16T11:12:11Z</time>
      </trkpt>
      <trkpt lat="44.43795" lon="6.91616">
        <ele>2331.8</ele>
        <time>2022-08-16T11:12:12Z</time>
      </trkpt>
      <trkpt lat="44.43794" lon="6.91617">
        <ele>2331.8</ele>
        <time>2022-08-16T11:12:13Z</time>
      </trkpt>
      <trkpt lat="44.43793" lon="6.91618">
        <ele>2332</ele>
        <time>2022-08-16T11:12:14Z</time>
      </trkpt>
      <trkpt lat="44.43792" lon="6.9162">
        <ele>2332.2</ele>
        <time>2022-08-16T11:12:15Z</time>
      </trkpt>
      <trkpt lat="44.43791" lon="6.91621">
        <ele>2332.2</ele>
        <time>2022-08-16T11:12:16Z</time>
      </trkpt>
      <trkpt lat="44.4379" lon="6.91622">
        <ele>2332.6</ele>
        <time>2022-08-16T11:12:17Z</time>
      </trkpt>
      <trkpt lat="44.43789" lon="6.91623">
        <ele>2332.6</ele>
        <time>2022-08-16T11:12:18Z</time>
      </trkpt>
      <trkpt lat="44.43789" lon="6.91625">
        <ele>2332.8</ele>
        <time>2022-08-16T11:12:19Z</time>
      </trkpt>
      <trkpt lat="44.43787" lon="6.91626">
        <ele>2333</ele>
        <time>2022-08-16T11:12:20Z</time>
      </trkpt>
      <trkpt lat="44.43787" lon="6.91627">
        <ele>2333.2</ele>
        <time>2022-08-16T11:12:21Z</time>
      </trkpt>
      <trkpt lat="44.43786" lon="6.91628">
        <ele>2333.4</ele>
        <time>2022-08-16T11:12:22Z</time>
      </trkpt>
      <trkpt lat="44.43786" lon="6.91629">
        <ele>2333.4</ele>
        <time>2022-08-16T11:12:23Z</time>
      </trkpt>
      <trkpt lat="44.43785" lon="6.9163">
        <ele>2333.6</ele>
        <time>2022-08-16T11:12:24Z</time>
      </trkpt>
      <trkpt lat="44.43784" lon="6.91632">
        <ele>2333.6</ele>
        <time>2022-08-16T11:12:25Z</time>
      </trkpt>
      <trkpt lat="44.43782" lon="6.91633">
        <ele>2333.6</ele>
        <time>2022-08-16T11:12:26Z</time>
      </trkpt>
      <trkpt lat="44.43781" lon="6.91634">
        <ele>2333.6</ele>
        <time>2022-08-16T11:12:27Z</time>
      </trkpt>
      <trkpt lat="44.43779" lon="6.91637">
        <ele>2333.8</ele>
        <time>2022-08-16T11:12:29Z</time>
      </trkpt>
      <trkpt lat="44.43778" lon="6.91638">
        <ele>2333.8</ele>
        <time>2022-08-16T11:12:30Z</time>
      </trkpt>
      <trkpt lat="44.43775" lon="6.91643">
        <ele>2333.8</ele>
        <time>2022-08-16T11:12:33Z</time>
      </trkpt>
      <trkpt lat="44.43774" lon="6.91644">
        <ele>2333.8</ele>
        <time>2022-08-16T11:12:34Z</time>
      </trkpt>
      <trkpt lat="44.43771" lon="6.91647">
        <ele>2334.2</ele>
        <time>2022-08-16T11:12:37Z</time>
      </trkpt>
      <trkpt lat="44.4377" lon="6.91649">
        <ele>2334.2</ele>
        <time>2022-08-16T11:12:38Z</time>
      </trkpt>
      <trkpt lat="44.43769" lon="6.9165">
        <ele>2334.4</ele>
        <time>2022-08-16T11:12:39Z</time>
      </trkpt>
      <trkpt lat="44.43768" lon="6.91651">
        <ele>2334.4</ele>
        <time>2022-08-16T11:12:40Z</time>
      </trkpt>
      <trkpt lat="44.43766" lon="6.91654">
        <ele>2334.4</ele>
        <time>2022-08-16T11:12:42Z</time>
      </trkpt>
      <trkpt lat="44.43765" lon="6.91655">
        <ele>2334.6</ele>
        <time>2022-08-16T11:12:43Z</time>
      </trkpt>
      <trkpt lat="44.43764" lon="6.91656">
        <ele>2334.6</ele>
        <time>2022-08-16T11:12:44Z</time>
      </trkpt>
      <trkpt lat="44.43759" lon="6.9166">
        <ele>2335</ele>
        <time>2022-08-16T11:12:48Z</time>
      </trkpt>
      <trkpt lat="44.43758" lon="6.91661">
        <ele>2335</ele>
        <time>2022-08-16T11:12:49Z</time>
      </trkpt>
      <trkpt lat="44.43756" lon="6.91663">
        <ele>2335.4</ele>
        <time>2022-08-16T11:12:51Z</time>
      </trkpt>
      <trkpt lat="44.43756" lon="6.91664">
        <ele>2335.6</ele>
        <time>2022-08-16T11:12:52Z</time>
      </trkpt>
      <trkpt lat="44.43755" lon="6.91665">
        <ele>2335.8</ele>
        <time>2022-08-16T11:12:53Z</time>
      </trkpt>
      <trkpt lat="44.43754" lon="6.91666">
        <ele>2335.8</ele>
        <time>2022-08-16T11:12:54Z</time>
      </trkpt>
      <trkpt lat="44.43753" lon="6.91667">
        <ele>2335.8</ele>
        <time>2022-08-16T11:12:55Z</time>
      </trkpt>
      <trkpt lat="44.43752" lon="6.91669">
        <ele>2336</ele>
        <time>2022-08-16T11:12:56Z</time>
      </trkpt>
      <trkpt lat="44.43751" lon="6.9167">
        <ele>2336.2</ele>
        <time>2022-08-16T11:12:57Z</time>
      </trkpt>
      <trkpt lat="44.4375" lon="6.91671">
        <ele>2336.6</ele>
        <time>2022-08-16T11:12:58Z</time>
      </trkpt>
      <trkpt lat="44.43749" lon="6.91672">
        <ele>2336.6</ele>
        <time>2022-08-16T11:12:59Z</time>
      </trkpt>
      <trkpt lat="44.43748" lon="6.91673">
        <ele>2336.8</ele>
        <time>2022-08-16T11:13:00Z</time>
      </trkpt>
      <trkpt lat="44.43747" lon="6.91675">
        <ele>2337</ele>
        <time>2022-08-16T11:13:01Z</time>
      </trkpt>
      <trkpt lat="44.43746" lon="6.91676">
        <ele>2337</ele>
        <time>2022-08-16T11:13:02Z</time>
      </trkpt>
      <trkpt lat="44.43745" lon="6.91677">
        <ele>2337</ele>
        <time>2022-08-16T11:13:03Z</time>
      </trkpt>
      <trkpt lat="44.43744" lon="6.91678">
        <ele>2337</ele>
        <time>2022-08-16T11:13:04Z</time>
      </trkpt>
      <trkpt lat="44.43743" lon="6.91679">
        <ele>2337.2</ele>
        <time>2022-08-16T11:13:05Z</time>
      </trkpt>
      <trkpt lat="44.43742" lon="6.91681">
        <ele>2337.4</ele>
        <time>2022-08-16T11:13:06Z</time>
      </trkpt>
      <trkpt lat="44.43741" lon="6.91682">
        <ele>2337.4</ele>
        <time>2022-08-16T11:13:07Z</time>
      </trkpt>
      <trkpt lat="44.4374" lon="6.91684">
        <ele>2337.4</ele>
        <time>2022-08-16T11:13:08Z</time>
      </trkpt>
      <trkpt lat="44.43739" lon="6.91685">
        <ele>2337.8</ele>
        <time>2022-08-16T11:13:09Z</time>
      </trkpt>
      <trkpt lat="44.43738" lon="6.91686">
        <ele>2337.8</ele>
        <time>2022-08-16T11:13:10Z</time>
      </trkpt>
      <trkpt lat="44.43737" lon="6.91688">
        <ele>2338</ele>
        <time>2022-08-16T11:13:11Z</time>
      </trkpt>
      <trkpt lat="44.43736" lon="6.91689">
        <ele>2338.2</ele>
        <time>2022-08-16T11:13:12Z</time>
      </trkpt>
      <trkpt lat="44.43734" lon="6.9169">
        <ele>2338.4</ele>
        <time>2022-08-16T11:13:13Z</time>
      </trkpt>
      <trkpt lat="44.43733" lon="6.91691">
        <ele>2338.4</ele>
        <time>2022-08-16T11:13:14Z</time>
      </trkpt>
      <trkpt lat="44.43732" lon="6.91692">
        <ele>2338.4</ele>
        <time>2022-08-16T11:13:15Z</time>
      </trkpt>
      <trkpt lat="44.43731" lon="6.91693">
        <ele>2338.6</ele>
        <time>2022-08-16T11:13:16Z</time>
      </trkpt>
      <trkpt lat="44.4373" lon="6.91694">
        <ele>2338.6</ele>
        <time>2022-08-16T11:13:17Z</time>
      </trkpt>
      <trkpt lat="44.43728" lon="6.91694">
        <ele>2339</ele>
        <time>2022-08-16T11:13:18Z</time>
      </trkpt>
      <trkpt lat="44.43726" lon="6.91695">
        <ele>2339</ele>
        <time>2022-08-16T11:13:20Z</time>
      </trkpt>
      <trkpt lat="44.43725" lon="6.91695">
        <ele>2339</ele>
        <time>2022-08-16T11:13:21Z</time>
      </trkpt>
      <trkpt lat="44.43721" lon="6.91696">
        <ele>2339.2</ele>
        <time>2022-08-16T11:13:24Z</time>
      </trkpt>
      <trkpt lat="44.43716" lon="6.91698">
        <ele>2339.4</ele>
        <time>2022-08-16T11:13:28Z</time>
      </trkpt>
      <trkpt lat="44.43714" lon="6.91698">
        <ele>2339.4</ele>
        <time>2022-08-16T11:13:29Z</time>
      </trkpt>
      <trkpt lat="44.43713" lon="6.91699">
        <ele>2339.6</ele>
        <time>2022-08-16T11:13:30Z</time>
      </trkpt>
      <trkpt lat="44.43711" lon="6.91701">
        <ele>2339.8</ele>
        <time>2022-08-16T11:13:32Z</time>
      </trkpt>
      <trkpt lat="44.43708" lon="6.91703">
        <ele>2340</ele>
        <time>2022-08-16T11:13:35Z</time>
      </trkpt>
      <trkpt lat="44.43707" lon="6.91703">
        <ele>2340</ele>
        <time>2022-08-16T11:13:36Z</time>
      </trkpt>
      <trkpt lat="44.43702" lon="6.91707">
        <ele>2340.6</ele>
        <time>2022-08-16T11:13:40Z</time>
      </trkpt>
      <trkpt lat="44.43696" lon="6.91713">
        <ele>2341.2</ele>
        <time>2022-08-16T11:13:45Z</time>
      </trkpt>
      <trkpt lat="44.43695" lon="6.91714">
        <ele>2341.2</ele>
        <time>2022-08-16T11:13:46Z</time>
      </trkpt>
      <trkpt lat="44.43692" lon="6.91718">
        <ele>2341.2</ele>
        <time>2022-08-16T11:13:48Z</time>
      </trkpt>
      <trkpt lat="44.43688" lon="6.91724">
        <ele>2341.2</ele>
        <time>2022-08-16T11:13:51Z</time>
      </trkpt>
      <trkpt lat="44.43687" lon="6.91726">
        <ele>2341.4</ele>
        <time>2022-08-16T11:13:52Z</time>
      </trkpt>
      <trkpt lat="44.43686" lon="6.91727">
        <ele>2341.2</ele>
        <time>2022-08-16T11:13:53Z</time>
      </trkpt>
      <trkpt lat="44.43685" lon="6.91728">
        <ele>2341.2</ele>
        <time>2022-08-16T11:13:54Z</time>
      </trkpt>
      <trkpt lat="44.43684" lon="6.91729">
        <ele>2341.2</ele>
        <time>2022-08-16T11:13:55Z</time>
      </trkpt>
      <trkpt lat="44.43682" lon="6.91729">
        <ele>2341.2</ele>
        <time>2022-08-16T11:13:56Z</time>
      </trkpt>
      <trkpt lat="44.43681" lon="6.91729">
        <ele>2341.2</ele>
        <time>2022-08-16T11:13:57Z</time>
      </trkpt>
      <trkpt lat="44.43679" lon="6.9173">
        <ele>2341.2</ele>
        <time>2022-08-16T11:13:59Z</time>
      </trkpt>
      <trkpt lat="44.43677" lon="6.9173">
        <ele>2341.2</ele>
        <time>2022-08-16T11:14:00Z</time>
      </trkpt>
      <trkpt lat="44.43676" lon="6.9173">
        <ele>2341.4</ele>
        <time>2022-08-16T11:14:01Z</time>
      </trkpt>
      <trkpt lat="44.43675" lon="6.9173">
        <ele>2341.4</ele>
        <time>2022-08-16T11:14:02Z</time>
      </trkpt>
      <trkpt lat="44.43674" lon="6.9173">
        <ele>2341.4</ele>
        <time>2022-08-16T11:14:03Z</time>
      </trkpt>
      <trkpt lat="44.43671" lon="6.91733">
        <ele>2341.4</ele>
        <time>2022-08-16T11:14:06Z</time>
      </trkpt>
      <trkpt lat="44.4367" lon="6.91733">
        <ele>2341.4</ele>
        <time>2022-08-16T11:14:07Z</time>
      </trkpt>
      <trkpt lat="44.43669" lon="6.91734">
        <ele>2341.8</ele>
        <time>2022-08-16T11:14:08Z</time>
      </trkpt>
      <trkpt lat="44.43667" lon="6.91735">
        <ele>2342</ele>
        <time>2022-08-16T11:14:10Z</time>
      </trkpt>
      <trkpt lat="44.43666" lon="6.91735">
        <ele>2342.4</ele>
        <time>2022-08-16T11:14:11Z</time>
      </trkpt>
      <trkpt lat="44.43665" lon="6.91736">
        <ele>2342.6</ele>
        <time>2022-08-16T11:14:12Z</time>
      </trkpt>
      <trkpt lat="44.43664" lon="6.91737">
        <ele>2342.6</ele>
        <time>2022-08-16T11:14:13Z</time>
      </trkpt>
      <trkpt lat="44.43663" lon="6.91738">
        <ele>2342.6</ele>
        <time>2022-08-16T11:14:14Z</time>
      </trkpt>
      <trkpt lat="44.43662" lon="6.91739">
        <ele>2343</ele>
        <time>2022-08-16T11:14:15Z</time>
      </trkpt>
      <trkpt lat="44.43661" lon="6.9174">
        <ele>2343</ele>
        <time>2022-08-16T11:14:16Z</time>
      </trkpt>
      <trkpt lat="44.4366" lon="6.91741">
        <ele>2343.2</ele>
        <time>2022-08-16T11:14:17Z</time>
      </trkpt>
      <trkpt lat="44.43659" lon="6.91742">
        <ele>2343.6</ele>
        <time>2022-08-16T11:14:18Z</time>
      </trkpt>
      <trkpt lat="44.43658" lon="6.91742">
        <ele>2343.6</ele>
        <time>2022-08-16T11:14:19Z</time>
      </trkpt>
      <trkpt lat="44.43657" lon="6.91743">
        <ele>2343.8</ele>
        <time>2022-08-16T11:14:20Z</time>
      </trkpt>
      <trkpt lat="44.43656" lon="6.91743">
        <ele>2344</ele>
        <time>2022-08-16T11:14:21Z</time>
      </trkpt>
      <trkpt lat="44.43655" lon="6.91744">
        <ele>2344.2</ele>
        <time>2022-08-16T11:14:22Z</time>
      </trkpt>
      <trkpt lat="44.43654" lon="6.91744">
        <ele>2344.4</ele>
        <time>2022-08-16T11:14:23Z</time>
      </trkpt>
      <trkpt lat="44.43653" lon="6.91745">
        <ele>2344.4</ele>
        <time>2022-08-16T11:14:24Z</time>
      </trkpt>
      <trkpt lat="44.43652" lon="6.91746">
        <ele>2344.8</ele>
        <time>2022-08-16T11:14:25Z</time>
      </trkpt>
      <trkpt lat="44.43651" lon="6.91747">
        <ele>2344.8</ele>
        <time>2022-08-16T11:14:26Z</time>
      </trkpt>
      <trkpt lat="44.4365" lon="6.91748">
        <ele>2345.2</ele>
        <time>2022-08-16T11:14:27Z</time>
      </trkpt>
      <trkpt lat="44.43649" lon="6.91749">
        <ele>2345.2</ele>
        <time>2022-08-16T11:14:28Z</time>
      </trkpt>
      <trkpt lat="44.43648" lon="6.9175">
        <ele>2345.6</ele>
        <time>2022-08-16T11:14:29Z</time>
      </trkpt>
      <trkpt lat="44.43647" lon="6.91751">
        <ele>2345.8</ele>
        <time>2022-08-16T11:14:30Z</time>
      </trkpt>
      <trkpt lat="44.43646" lon="6.91751">
        <ele>2346</ele>
        <time>2022-08-16T11:14:31Z</time>
      </trkpt>
      <trkpt lat="44.43645" lon="6.91752">
        <ele>2346</ele>
        <time>2022-08-16T11:14:32Z</time>
      </trkpt>
      <trkpt lat="44.43644" lon="6.91753">
        <ele>2346</ele>
        <time>2022-08-16T11:14:33Z</time>
      </trkpt>
      <trkpt lat="44.43643" lon="6.91754">
        <ele>2346.4</ele>
        <time>2022-08-16T11:14:34Z</time>
      </trkpt>
      <trkpt lat="44.43642" lon="6.91754">
        <ele>2346.4</ele>
        <time>2022-08-16T11:14:35Z</time>
      </trkpt>
      <trkpt lat="44.43641" lon="6.91755">
        <ele>2346.6</ele>
        <time>2022-08-16T11:14:36Z</time>
      </trkpt>
      <trkpt lat="44.4364" lon="6.91756">
        <ele>2347</ele>
        <time>2022-08-16T11:14:37Z</time>
      </trkpt>
      <trkpt lat="44.43639" lon="6.91757">
        <ele>2347</ele>
        <time>2022-08-16T11:14:38Z</time>
      </trkpt>
      <trkpt lat="44.43638" lon="6.91757">
        <ele>2347</ele>
        <time>2022-08-16T11:14:39Z</time>
      </trkpt>
      <trkpt lat="44.43636" lon="6.91757">
        <ele>2347</ele>
        <time>2022-08-16T11:14:40Z</time>
      </trkpt>
      <trkpt lat="44.43635" lon="6.91758">
        <ele>2347.2</ele>
        <time>2022-08-16T11:14:41Z</time>
      </trkpt>
      <trkpt lat="44.43634" lon="6.91758">
        <ele>2347.4</ele>
        <time>2022-08-16T11:14:42Z</time>
      </trkpt>
      <trkpt lat="44.43633" lon="6.91759">
        <ele>2347.6</ele>
        <time>2022-08-16T11:14:43Z</time>
      </trkpt>
      <trkpt lat="44.43632" lon="6.91759">
        <ele>2348</ele>
        <time>2022-08-16T11:14:44Z</time>
      </trkpt>
      <trkpt lat="44.43631" lon="6.9176">
        <ele>2348.2</ele>
        <time>2022-08-16T11:14:45Z</time>
      </trkpt>
      <trkpt lat="44.43629" lon="6.91761">
        <ele>2348.4</ele>
        <time>2022-08-16T11:14:46Z</time>
      </trkpt>
      <trkpt lat="44.43628" lon="6.91761">
        <ele>2348.6</ele>
        <time>2022-08-16T11:14:47Z</time>
      </trkpt>
      <trkpt lat="44.43627" lon="6.91762">
        <ele>2348.8</ele>
        <time>2022-08-16T11:14:48Z</time>
      </trkpt>
      <trkpt lat="44.43626" lon="6.91762">
        <ele>2349</ele>
        <time>2022-08-16T11:14:49Z</time>
      </trkpt>
      <trkpt lat="44.43625" lon="6.91762">
        <ele>2349.2</ele>
        <time>2022-08-16T11:14:50Z</time>
      </trkpt>
      <trkpt lat="44.43624" lon="6.91763">
        <ele>2349.2</ele>
        <time>2022-08-16T11:14:51Z</time>
      </trkpt>
      <trkpt lat="44.43623" lon="6.91764">
        <ele>2349.4</ele>
        <time>2022-08-16T11:14:52Z</time>
      </trkpt>
      <trkpt lat="44.43621" lon="6.91764">
        <ele>2349.4</ele>
        <time>2022-08-16T11:14:53Z</time>
      </trkpt>
      <trkpt lat="44.4362" lon="6.91765">
        <ele>2349.6</ele>
        <time>2022-08-16T11:14:54Z</time>
      </trkpt>
      <trkpt lat="44.43619" lon="6.91765">
        <ele>2349.6</ele>
        <time>2022-08-16T11:14:55Z</time>
      </trkpt>
      <trkpt lat="44.43618" lon="6.91766">
        <ele>2349.8</ele>
        <time>2022-08-16T11:14:56Z</time>
      </trkpt>
      <trkpt lat="44.43617" lon="6.91766">
        <ele>2350</ele>
        <time>2022-08-16T11:14:57Z</time>
      </trkpt>
      <trkpt lat="44.43616" lon="6.91767">
        <ele>2350.2</ele>
        <time>2022-08-16T11:14:58Z</time>
      </trkpt>
      <trkpt lat="44.43615" lon="6.91767">
        <ele>2350.2</ele>
        <time>2022-08-16T11:14:59Z</time>
      </trkpt>
      <trkpt lat="44.43613" lon="6.91768">
        <ele>2350.2</ele>
        <time>2022-08-16T11:15:00Z</time>
      </trkpt>
      <trkpt lat="44.43612" lon="6.91768">
        <ele>2350.2</ele>
        <time>2022-08-16T11:15:01Z</time>
      </trkpt>
      <trkpt lat="44.43611" lon="6.91769">
        <ele>2350.4</ele>
        <time>2022-08-16T11:15:02Z</time>
      </trkpt>
      <trkpt lat="44.4361" lon="6.91769">
        <ele>2350.6</ele>
        <time>2022-08-16T11:15:03Z</time>
      </trkpt>
      <trkpt lat="44.43609" lon="6.9177">
        <ele>2350.8</ele>
        <time>2022-08-16T11:15:04Z</time>
      </trkpt>
      <trkpt lat="44.43608" lon="6.91771">
        <ele>2351</ele>
        <time>2022-08-16T11:15:05Z</time>
      </trkpt>
      <trkpt lat="44.43607" lon="6.91772">
        <ele>2351</ele>
        <time>2022-08-16T11:15:06Z</time>
      </trkpt>
      <trkpt lat="44.43606" lon="6.91773">
        <ele>2351.4</ele>
        <time>2022-08-16T11:15:07Z</time>
      </trkpt>
      <trkpt lat="44.43605" lon="6.91773">
        <ele>2351.4</ele>
        <time>2022-08-16T11:15:08Z</time>
      </trkpt>
      <trkpt lat="44.43604" lon="6.91773">
        <ele>2351.6</ele>
        <time>2022-08-16T11:15:09Z</time>
      </trkpt>
      <trkpt lat="44.43603" lon="6.91774">
        <ele>2351.8</ele>
        <time>2022-08-16T11:15:10Z</time>
      </trkpt>
      <trkpt lat="44.43602" lon="6.91775">
        <ele>2352.2</ele>
        <time>2022-08-16T11:15:11Z</time>
      </trkpt>
      <trkpt lat="44.43601" lon="6.91776">
        <ele>2352.2</ele>
        <time>2022-08-16T11:15:12Z</time>
      </trkpt>
      <trkpt lat="44.436" lon="6.91777">
        <ele>2352.6</ele>
        <time>2022-08-16T11:15:13Z</time>
      </trkpt>
      <trkpt lat="44.43599" lon="6.91778">
        <ele>2352.6</ele>
        <time>2022-08-16T11:15:14Z</time>
      </trkpt>
      <trkpt lat="44.43598" lon="6.91778">
        <ele>2353</ele>
        <time>2022-08-16T11:15:15Z</time>
      </trkpt>
      <trkpt lat="44.43596" lon="6.91779">
        <ele>2353.4</ele>
        <time>2022-08-16T11:15:16Z</time>
      </trkpt>
      <trkpt lat="44.43596" lon="6.91779">
        <ele>2353.6</ele>
        <time>2022-08-16T11:15:17Z</time>
      </trkpt>
      <trkpt lat="44.43595" lon="6.9178">
        <ele>2353.6</ele>
        <time>2022-08-16T11:15:18Z</time>
      </trkpt>
      <trkpt lat="44.43594" lon="6.91781">
        <ele>2353.6</ele>
        <time>2022-08-16T11:15:19Z</time>
      </trkpt>
      <trkpt lat="44.43593" lon="6.91781">
        <ele>2354</ele>
        <time>2022-08-16T11:15:20Z</time>
      </trkpt>
      <trkpt lat="44.43592" lon="6.91782">
        <ele>2354</ele>
        <time>2022-08-16T11:15:21Z</time>
      </trkpt>
      <trkpt lat="44.43591" lon="6.91783">
        <ele>2354.2</ele>
        <time>2022-08-16T11:15:22Z</time>
      </trkpt>
      <trkpt lat="44.4359" lon="6.91784">
        <ele>2354.6</ele>
        <time>2022-08-16T11:15:23Z</time>
      </trkpt>
      <trkpt lat="44.43589" lon="6.91785">
        <ele>2354.8</ele>
        <time>2022-08-16T11:15:24Z</time>
      </trkpt>
      <trkpt lat="44.43588" lon="6.91785">
        <ele>2354.8</ele>
        <time>2022-08-16T11:15:25Z</time>
      </trkpt>
      <trkpt lat="44.43586" lon="6.91786">
        <ele>2355</ele>
        <time>2022-08-16T11:15:26Z</time>
      </trkpt>
      <trkpt lat="44.43585" lon="6.91787">
        <ele>2355.4</ele>
        <time>2022-08-16T11:15:27Z</time>
      </trkpt>
      <trkpt lat="44.43584" lon="6.91787">
        <ele>2355.4</ele>
        <time>2022-08-16T11:15:28Z</time>
      </trkpt>
      <trkpt lat="44.43583" lon="6.91788">
        <ele>2355.4</ele>
        <time>2022-08-16T11:15:29Z</time>
      </trkpt>
      <trkpt lat="44.43582" lon="6.91789">
        <ele>2355.4</ele>
        <time>2022-08-16T11:15:30Z</time>
      </trkpt>
      <trkpt lat="44.4358" lon="6.91789">
        <ele>2355.6</ele>
        <time>2022-08-16T11:15:31Z</time>
      </trkpt>
      <trkpt lat="44.43579" lon="6.91789">
        <ele>2355.6</ele>
        <time>2022-08-16T11:15:32Z</time>
      </trkpt>
      <trkpt lat="44.43578" lon="6.9179">
        <ele>2355.6</ele>
        <time>2022-08-16T11:15:33Z</time>
      </trkpt>
      <trkpt lat="44.43577" lon="6.91791">
        <ele>2355.8</ele>
        <time>2022-08-16T11:15:34Z</time>
      </trkpt>
      <trkpt lat="44.43575" lon="6.91792">
        <ele>2356</ele>
        <time>2022-08-16T11:15:35Z</time>
      </trkpt>
      <trkpt lat="44.43574" lon="6.91793">
        <ele>2356</ele>
        <time>2022-08-16T11:15:36Z</time>
      </trkpt>
      <trkpt lat="44.43573" lon="6.91793">
        <ele>2356</ele>
        <time>2022-08-16T11:15:37Z</time>
      </trkpt>
      <trkpt lat="44.43572" lon="6.91794">
        <ele>2356</ele>
        <time>2022-08-16T11:15:38Z</time>
      </trkpt>
      <trkpt lat="44.43571" lon="6.91794">
        <ele>2356.2</ele>
        <time>2022-08-16T11:15:39Z</time>
      </trkpt>
      <trkpt lat="44.4357" lon="6.91794">
        <ele>2356.4</ele>
        <time>2022-08-16T11:15:40Z</time>
      </trkpt>
      <trkpt lat="44.43569" lon="6.91795">
        <ele>2356.4</ele>
        <time>2022-08-16T11:15:41Z</time>
      </trkpt>
      <trkpt lat="44.43568" lon="6.91796">
        <ele>2356.4</ele>
        <time>2022-08-16T11:15:42Z</time>
      </trkpt>
      <trkpt lat="44.43567" lon="6.91796">
        <ele>2356.4</ele>
        <time>2022-08-16T11:15:43Z</time>
      </trkpt>
      <trkpt lat="44.43565" lon="6.91797">
        <ele>2356.6</ele>
        <time>2022-08-16T11:15:44Z</time>
      </trkpt>
      <trkpt lat="44.43564" lon="6.91798">
        <ele>2356.8</ele>
        <time>2022-08-16T11:15:45Z</time>
      </trkpt>
      <trkpt lat="44.43563" lon="6.91798">
        <ele>2356.8</ele>
        <time>2022-08-16T11:15:46Z</time>
      </trkpt>
      <trkpt lat="44.43562" lon="6.91799">
        <ele>2357</ele>
        <time>2022-08-16T11:15:47Z</time>
      </trkpt>
      <trkpt lat="44.43561" lon="6.918">
        <ele>2357</ele>
        <time>2022-08-16T11:15:48Z</time>
      </trkpt>
      <trkpt lat="44.4356" lon="6.91801">
        <ele>2357.2</ele>
        <time>2022-08-16T11:15:49Z</time>
      </trkpt>
      <trkpt lat="44.43559" lon="6.91802">
        <ele>2357.6</ele>
        <time>2022-08-16T11:15:50Z</time>
      </trkpt>
      <trkpt lat="44.43558" lon="6.91803">
        <ele>2357.4</ele>
        <time>2022-08-16T11:15:51Z</time>
      </trkpt>
      <trkpt lat="44.43557" lon="6.91803">
        <ele>2357.6</ele>
        <time>2022-08-16T11:15:52Z</time>
      </trkpt>
      <trkpt lat="44.43556" lon="6.91804">
        <ele>2358</ele>
        <time>2022-08-16T11:15:53Z</time>
      </trkpt>
      <trkpt lat="44.43555" lon="6.91805">
        <ele>2358</ele>
        <time>2022-08-16T11:15:54Z</time>
      </trkpt>
      <trkpt lat="44.43554" lon="6.91806">
        <ele>2358</ele>
        <time>2022-08-16T11:15:55Z</time>
      </trkpt>
      <trkpt lat="44.43553" lon="6.91807">
        <ele>2358.2</ele>
        <time>2022-08-16T11:15:56Z</time>
      </trkpt>
      <trkpt lat="44.43552" lon="6.91808">
        <ele>2358.6</ele>
        <time>2022-08-16T11:15:57Z</time>
      </trkpt>
      <trkpt lat="44.43551" lon="6.91809">
        <ele>2358.8</ele>
        <time>2022-08-16T11:15:58Z</time>
      </trkpt>
      <trkpt lat="44.4355" lon="6.9181">
        <ele>2359</ele>
        <time>2022-08-16T11:15:59Z</time>
      </trkpt>
      <trkpt lat="44.43549" lon="6.9181">
        <ele>2359.2</ele>
        <time>2022-08-16T11:16:00Z</time>
      </trkpt>
      <trkpt lat="44.43548" lon="6.91811">
        <ele>2359.2</ele>
        <time>2022-08-16T11:16:01Z</time>
      </trkpt>
      <trkpt lat="44.43547" lon="6.91812">
        <ele>2359.6</ele>
        <time>2022-08-16T11:16:02Z</time>
      </trkpt>
      <trkpt lat="44.43545" lon="6.91812">
        <ele>2359.8</ele>
        <time>2022-08-16T11:16:03Z</time>
      </trkpt>
      <trkpt lat="44.43544" lon="6.91813">
        <ele>2359.8</ele>
        <time>2022-08-16T11:16:04Z</time>
      </trkpt>
      <trkpt lat="44.43543" lon="6.91813">
        <ele>2359.8</ele>
        <time>2022-08-16T11:16:05Z</time>
      </trkpt>
      <trkpt lat="44.43542" lon="6.91814">
        <ele>2360</ele>
        <time>2022-08-16T11:16:06Z</time>
      </trkpt>
      <trkpt lat="44.43541" lon="6.91815">
        <ele>2360.2</ele>
        <time>2022-08-16T11:16:07Z</time>
      </trkpt>
      <trkpt lat="44.4354" lon="6.91815">
        <ele>2360.4</ele>
        <time>2022-08-16T11:16:08Z</time>
      </trkpt>
      <trkpt lat="44.43539" lon="6.91816">
        <ele>2360.6</ele>
        <time>2022-08-16T11:16:09Z</time>
      </trkpt>
      <trkpt lat="44.43538" lon="6.91817">
        <ele>2360.8</ele>
        <time>2022-08-16T11:16:10Z</time>
      </trkpt>
      <trkpt lat="44.43537" lon="6.91818">
        <ele>2360.8</ele>
        <time>2022-08-16T11:16:11Z</time>
      </trkpt>
      <trkpt lat="44.43536" lon="6.91819">
        <ele>2361.2</ele>
        <time>2022-08-16T11:16:12Z</time>
      </trkpt>
      <trkpt lat="44.43536" lon="6.91819">
        <ele>2361.4</ele>
        <time>2022-08-16T11:16:13Z</time>
      </trkpt>
      <trkpt lat="44.43535" lon="6.9182">
        <ele>2361.4</ele>
        <time>2022-08-16T11:16:14Z</time>
      </trkpt>
      <trkpt lat="44.43534" lon="6.9182">
        <ele>2361.6</ele>
        <time>2022-08-16T11:16:15Z</time>
      </trkpt>
      <trkpt lat="44.43533" lon="6.9182">
        <ele>2361.8</ele>
        <time>2022-08-16T11:16:16Z</time>
      </trkpt>
      <trkpt lat="44.43531" lon="6.9182">
        <ele>2362</ele>
        <time>2022-08-16T11:16:17Z</time>
      </trkpt>
      <trkpt lat="44.4353" lon="6.91821">
        <ele>2362.2</ele>
        <time>2022-08-16T11:16:18Z</time>
      </trkpt>
      <trkpt lat="44.43529" lon="6.91822">
        <ele>2362.6</ele>
        <time>2022-08-16T11:16:19Z</time>
      </trkpt>
      <trkpt lat="44.43528" lon="6.91823">
        <ele>2362.8</ele>
        <time>2022-08-16T11:16:20Z</time>
      </trkpt>
      <trkpt lat="44.43527" lon="6.91823">
        <ele>2362.8</ele>
        <time>2022-08-16T11:16:21Z</time>
      </trkpt>
      <trkpt lat="44.43526" lon="6.91824">
        <ele>2363</ele>
        <time>2022-08-16T11:16:22Z</time>
      </trkpt>
      <trkpt lat="44.43525" lon="6.91825">
        <ele>2363</ele>
        <time>2022-08-16T11:16:23Z</time>
      </trkpt>
      <trkpt lat="44.43524" lon="6.91826">
        <ele>2363</ele>
        <time>2022-08-16T11:16:24Z</time>
      </trkpt>
      <trkpt lat="44.43522" lon="6.91828">
        <ele>2363.2</ele>
        <time>2022-08-16T11:16:25Z</time>
      </trkpt>
      <trkpt lat="44.43521" lon="6.91829">
        <ele>2363.2</ele>
        <time>2022-08-16T11:16:26Z</time>
      </trkpt>
      <trkpt lat="44.4352" lon="6.91831">
        <ele>2363.2</ele>
        <time>2022-08-16T11:16:27Z</time>
      </trkpt>
      <trkpt lat="44.43519" lon="6.91832">
        <ele>2363.2</ele>
        <time>2022-08-16T11:16:28Z</time>
      </trkpt>
      <trkpt lat="44.43517" lon="6.91834">
        <ele>2363.2</ele>
        <time>2022-08-16T11:16:29Z</time>
      </trkpt>
      <trkpt lat="44.43516" lon="6.91835">
        <ele>2363.4</ele>
        <time>2022-08-16T11:16:30Z</time>
      </trkpt>
      <trkpt lat="44.43515" lon="6.91836">
        <ele>2363.4</ele>
        <time>2022-08-16T11:16:31Z</time>
      </trkpt>
      <trkpt lat="44.43514" lon="6.91837">
        <ele>2363.8</ele>
        <time>2022-08-16T11:16:32Z</time>
      </trkpt>
      <trkpt lat="44.43513" lon="6.91838">
        <ele>2363.8</ele>
        <time>2022-08-16T11:16:33Z</time>
      </trkpt>
      <trkpt lat="44.43511" lon="6.91839">
        <ele>2363.8</ele>
        <time>2022-08-16T11:16:34Z</time>
      </trkpt>
      <trkpt lat="44.43511" lon="6.9184">
        <ele>2364.2</ele>
        <time>2022-08-16T11:16:35Z</time>
      </trkpt>
      <trkpt lat="44.4351" lon="6.91841">
        <ele>2364.4</ele>
        <time>2022-08-16T11:16:36Z</time>
      </trkpt>
      <trkpt lat="44.43509" lon="6.91841">
        <ele>2364.4</ele>
        <time>2022-08-16T11:16:37Z</time>
      </trkpt>
      <trkpt lat="44.43509" lon="6.91842">
        <ele>2364.4</ele>
        <time>2022-08-16T11:16:38Z</time>
      </trkpt>
      <trkpt lat="44.43508" lon="6.91842">
        <ele>2364.6</ele>
        <time>2022-08-16T11:16:39Z</time>
      </trkpt>
      <trkpt lat="44.43508" lon="6.91843">
        <ele>2364.8</ele>
        <time>2022-08-16T11:16:41Z</time>
      </trkpt>
      <trkpt lat="44.43507" lon="6.91843">
        <ele>2364.8</ele>
        <time>2022-08-16T11:16:42Z</time>
      </trkpt>
      <trkpt lat="44.43507" lon="6.91844">
        <ele>2364.8</ele>
        <time>2022-08-16T11:16:43Z</time>
      </trkpt>
      <trkpt lat="44.43505" lon="6.91846">
        <ele>2365.2</ele>
        <time>2022-08-16T11:16:44Z</time>
      </trkpt>
      <trkpt lat="44.43504" lon="6.91847">
        <ele>2365.6</ele>
        <time>2022-08-16T11:16:45Z</time>
      </trkpt>
      <trkpt lat="44.43503" lon="6.91849">
        <ele>2365.6</ele>
        <time>2022-08-16T11:16:46Z</time>
      </trkpt>
      <trkpt lat="44.43502" lon="6.91851">
        <ele>2365.8</ele>
        <time>2022-08-16T11:16:47Z</time>
      </trkpt>
      <trkpt lat="44.43501" lon="6.91852">
        <ele>2365.8</ele>
        <time>2022-08-16T11:16:48Z</time>
      </trkpt>
      <trkpt lat="44.435" lon="6.91854">
        <ele>2365.8</ele>
        <time>2022-08-16T11:16:49Z</time>
      </trkpt>
      <trkpt lat="44.43499" lon="6.91856">
        <ele>2365.8</ele>
        <time>2022-08-16T11:16:50Z</time>
      </trkpt>
      <trkpt lat="44.43497" lon="6.91858">
        <ele>2365.8</ele>
        <time>2022-08-16T11:16:51Z</time>
      </trkpt>
      <trkpt lat="44.43496" lon="6.9186">
        <ele>2366</ele>
        <time>2022-08-16T11:16:52Z</time>
      </trkpt>
      <trkpt lat="44.43493" lon="6.91863">
        <ele>2366</ele>
        <time>2022-08-16T11:16:54Z</time>
      </trkpt>
      <trkpt lat="44.43491" lon="6.91867">
        <ele>2366.2</ele>
        <time>2022-08-16T11:16:56Z</time>
      </trkpt>
      <trkpt lat="44.4349" lon="6.91869">
        <ele>2366</ele>
        <time>2022-08-16T11:16:57Z</time>
      </trkpt>
      <trkpt lat="44.43489" lon="6.91871">
        <ele>2366</ele>
        <time>2022-08-16T11:16:58Z</time>
      </trkpt>
      <trkpt lat="44.43488" lon="6.91873">
        <ele>2366</ele>
        <time>2022-08-16T11:16:59Z</time>
      </trkpt>
      <trkpt lat="44.43487" lon="6.91874">
        <ele>2366.2</ele>
        <time>2022-08-16T11:17:00Z</time>
      </trkpt>
      <trkpt lat="44.43484" lon="6.91876">
        <ele>2366.2</ele>
        <time>2022-08-16T11:17:02Z</time>
      </trkpt>
      <trkpt lat="44.43482" lon="6.91877">
        <ele>2366.2</ele>
        <time>2022-08-16T11:17:03Z</time>
      </trkpt>
      <trkpt lat="44.43481" lon="6.91879">
        <ele>2366.4</ele>
        <time>2022-08-16T11:17:04Z</time>
      </trkpt>
      <trkpt lat="44.4348" lon="6.9188">
        <ele>2366.4</ele>
        <time>2022-08-16T11:17:05Z</time>
      </trkpt>
      <trkpt lat="44.43476" lon="6.91885">
        <ele>2366.4</ele>
        <time>2022-08-16T11:17:08Z</time>
      </trkpt>
      <trkpt lat="44.43474" lon="6.91888">
        <ele>2366.8</ele>
        <time>2022-08-16T11:17:10Z</time>
      </trkpt>
      <trkpt lat="44.43472" lon="6.9189">
        <ele>2366.8</ele>
        <time>2022-08-16T11:17:11Z</time>
      </trkpt>
      <trkpt lat="44.43471" lon="6.91892">
        <ele>2366.8</ele>
        <time>2022-08-16T11:17:12Z</time>
      </trkpt>
      <trkpt lat="44.43469" lon="6.91894">
        <ele>2367</ele>
        <time>2022-08-16T11:17:13Z</time>
      </trkpt>
      <trkpt lat="44.43468" lon="6.91895">
        <ele>2367.2</ele>
        <time>2022-08-16T11:17:14Z</time>
      </trkpt>
      <trkpt lat="44.43468" lon="6.91897">
        <ele>2367.6</ele>
        <time>2022-08-16T11:17:15Z</time>
      </trkpt>
      <trkpt lat="44.43467" lon="6.91899">
        <ele>2367.8</ele>
        <time>2022-08-16T11:17:16Z</time>
      </trkpt>
      <trkpt lat="44.43467" lon="6.91901">
        <ele>2368</ele>
        <time>2022-08-16T11:17:17Z</time>
      </trkpt>
      <trkpt lat="44.43466" lon="6.91904">
        <ele>2368.6</ele>
        <time>2022-08-16T11:17:18Z</time>
      </trkpt>
      <trkpt lat="44.43465" lon="6.91907">
        <ele>2369</ele>
        <time>2022-08-16T11:17:19Z</time>
      </trkpt>
      <trkpt lat="44.43465" lon="6.91909">
        <ele>2369.2</ele>
        <time>2022-08-16T11:17:20Z</time>
      </trkpt>
      <trkpt lat="44.43465" lon="6.91911">
        <ele>2369.2</ele>
        <time>2022-08-16T11:17:21Z</time>
      </trkpt>
      <trkpt lat="44.43464" lon="6.91913">
        <ele>2369.4</ele>
        <time>2022-08-16T11:17:22Z</time>
      </trkpt>
      <trkpt lat="44.43463" lon="6.91915">
        <ele>2369.2</ele>
        <time>2022-08-16T11:17:23Z</time>
      </trkpt>
      <trkpt lat="44.43463" lon="6.91917">
        <ele>2369.4</ele>
        <time>2022-08-16T11:17:24Z</time>
      </trkpt>
      <trkpt lat="44.43461" lon="6.91919">
        <ele>2369.4</ele>
        <time>2022-08-16T11:17:25Z</time>
      </trkpt>
      <trkpt lat="44.4346" lon="6.9192">
        <ele>2369.4</ele>
        <time>2022-08-16T11:17:26Z</time>
      </trkpt>
      <trkpt lat="44.4346" lon="6.91922">
        <ele>2369.6</ele>
        <time>2022-08-16T11:17:27Z</time>
      </trkpt>
      <trkpt lat="44.43459" lon="6.91923">
        <ele>2369.4</ele>
        <time>2022-08-16T11:17:28Z</time>
      </trkpt>
      <trkpt lat="44.43458" lon="6.91925">
        <ele>2369.4</ele>
        <time>2022-08-16T11:17:29Z</time>
      </trkpt>
      <trkpt lat="44.43458" lon="6.91927">
        <ele>2369.4</ele>
        <time>2022-08-16T11:17:30Z</time>
      </trkpt>
      <trkpt lat="44.43457" lon="6.91929">
        <ele>2369.4</ele>
        <time>2022-08-16T11:17:31Z</time>
      </trkpt>
      <trkpt lat="44.43457" lon="6.9193">
        <ele>2369.6</ele>
        <time>2022-08-16T11:17:32Z</time>
      </trkpt>
      <trkpt lat="44.4345" lon="6.91942">
        <ele>2370</ele>
        <time>2022-08-16T11:17:39Z</time>
      </trkpt>
      <trkpt lat="44.43449" lon="6.91943">
        <ele>2370</ele>
        <time>2022-08-16T11:17:40Z</time>
      </trkpt>
      <trkpt lat="44.43447" lon="6.91947">
        <ele>2370.2</ele>
        <time>2022-08-16T11:17:42Z</time>
      </trkpt>
      <trkpt lat="44.43446" lon="6.91948">
        <ele>2370.4</ele>
        <time>2022-08-16T11:17:43Z</time>
      </trkpt>
      <trkpt lat="44.43445" lon="6.91949">
        <ele>2370.6</ele>
        <time>2022-08-16T11:17:44Z</time>
      </trkpt>
      <trkpt lat="44.43445" lon="6.9195">
        <ele>2370.6</ele>
        <time>2022-08-16T11:17:45Z</time>
      </trkpt>
      <trkpt lat="44.43444" lon="6.91951">
        <ele>2370.6</ele>
        <time>2022-08-16T11:17:46Z</time>
      </trkpt>
      <trkpt lat="44.43442" lon="6.91952">
        <ele>2370.8</ele>
        <time>2022-08-16T11:17:47Z</time>
      </trkpt>
      <trkpt lat="44.43441" lon="6.91953">
        <ele>2371.2</ele>
        <time>2022-08-16T11:17:48Z</time>
      </trkpt>
      <trkpt lat="44.43441" lon="6.91955">
        <ele>2371.4</ele>
        <time>2022-08-16T11:17:49Z</time>
      </trkpt>
      <trkpt lat="44.4344" lon="6.91957">
        <ele>2371.8</ele>
        <time>2022-08-16T11:17:50Z</time>
      </trkpt>
      <trkpt lat="44.43439" lon="6.91958">
        <ele>2371.8</ele>
        <time>2022-08-16T11:17:51Z</time>
      </trkpt>
      <trkpt lat="44.43438" lon="6.91959">
        <ele>2372.2</ele>
        <time>2022-08-16T11:17:52Z</time>
      </trkpt>
      <trkpt lat="44.43437" lon="6.91961">
        <ele>2372.6</ele>
        <time>2022-08-16T11:17:53Z</time>
      </trkpt>
      <trkpt lat="44.43437" lon="6.91962">
        <ele>2372.8</ele>
        <time>2022-08-16T11:17:54Z</time>
      </trkpt>
      <trkpt lat="44.43436" lon="6.91963">
        <ele>2372.8</ele>
        <time>2022-08-16T11:17:55Z</time>
      </trkpt>
      <trkpt lat="44.43435" lon="6.91964">
        <ele>2373</ele>
        <time>2022-08-16T11:17:56Z</time>
      </trkpt>
      <trkpt lat="44.43435" lon="6.91965">
        <ele>2373</ele>
        <time>2022-08-16T11:17:57Z</time>
      </trkpt>
      <trkpt lat="44.43434" lon="6.91967">
        <ele>2373</ele>
        <time>2022-08-16T11:17:58Z</time>
      </trkpt>
      <trkpt lat="44.43433" lon="6.91969">
        <ele>2373.2</ele>
        <time>2022-08-16T11:17:59Z</time>
      </trkpt>
      <trkpt lat="44.43432" lon="6.9197">
        <ele>2373.2</ele>
        <time>2022-08-16T11:18:00Z</time>
      </trkpt>
      <trkpt lat="44.43431" lon="6.91972">
        <ele>2373.4</ele>
        <time>2022-08-16T11:18:01Z</time>
      </trkpt>
      <trkpt lat="44.43431" lon="6.91974">
        <ele>2373.6</ele>
        <time>2022-08-16T11:18:02Z</time>
      </trkpt>
      <trkpt lat="44.43431" lon="6.91976">
        <ele>2373.8</ele>
        <time>2022-08-16T11:18:03Z</time>
      </trkpt>
      <trkpt lat="44.43431" lon="6.91978">
        <ele>2374</ele>
        <time>2022-08-16T11:18:04Z</time>
      </trkpt>
      <trkpt lat="44.43431" lon="6.9198">
        <ele>2374</ele>
        <time>2022-08-16T11:18:05Z</time>
      </trkpt>
      <trkpt lat="44.43431" lon="6.91982">
        <ele>2374</ele>
        <time>2022-08-16T11:18:06Z</time>
      </trkpt>
      <trkpt lat="44.4343" lon="6.91984">
        <ele>2374.2</ele>
        <time>2022-08-16T11:18:07Z</time>
      </trkpt>
      <trkpt lat="44.4343" lon="6.91985">
        <ele>2374.4</ele>
        <time>2022-08-16T11:18:08Z</time>
      </trkpt>
      <trkpt lat="44.4343" lon="6.91987">
        <ele>2374.4</ele>
        <time>2022-08-16T11:18:09Z</time>
      </trkpt>
      <trkpt lat="44.43429" lon="6.91988">
        <ele>2374.6</ele>
        <time>2022-08-16T11:18:10Z</time>
      </trkpt>
      <trkpt lat="44.43429" lon="6.9199">
        <ele>2374.6</ele>
        <time>2022-08-16T11:18:11Z</time>
      </trkpt>
      <trkpt lat="44.43428" lon="6.91992">
        <ele>2374.8</ele>
        <time>2022-08-16T11:18:12Z</time>
      </trkpt>
      <trkpt lat="44.43427" lon="6.91993">
        <ele>2374.8</ele>
        <time>2022-08-16T11:18:13Z</time>
      </trkpt>
      <trkpt lat="44.43426" lon="6.91995">
        <ele>2375</ele>
        <time>2022-08-16T11:18:14Z</time>
      </trkpt>
      <trkpt lat="44.43426" lon="6.91997">
        <ele>2375</ele>
        <time>2022-08-16T11:18:15Z</time>
      </trkpt>
      <trkpt lat="44.43425" lon="6.91998">
        <ele>2375.2</ele>
        <time>2022-08-16T11:18:16Z</time>
      </trkpt>
      <trkpt lat="44.43425" lon="6.92">
        <ele>2375.2</ele>
        <time>2022-08-16T11:18:17Z</time>
      </trkpt>
      <trkpt lat="44.43424" lon="6.92001">
        <ele>2375.4</ele>
        <time>2022-08-16T11:18:18Z</time>
      </trkpt>
      <trkpt lat="44.43423" lon="6.92003">
        <ele>2375.6</ele>
        <time>2022-08-16T11:18:19Z</time>
      </trkpt>
      <trkpt lat="44.43423" lon="6.92005">
        <ele>2375.8</ele>
        <time>2022-08-16T11:18:20Z</time>
      </trkpt>
      <trkpt lat="44.43422" lon="6.92006">
        <ele>2376</ele>
        <time>2022-08-16T11:18:21Z</time>
      </trkpt>
      <trkpt lat="44.43421" lon="6.92009">
        <ele>2376</ele>
        <time>2022-08-16T11:18:22Z</time>
      </trkpt>
      <trkpt lat="44.43421" lon="6.92011">
        <ele>2376</ele>
        <time>2022-08-16T11:18:23Z</time>
      </trkpt>
      <trkpt lat="44.4342" lon="6.92012">
        <ele>2376</ele>
        <time>2022-08-16T11:18:24Z</time>
      </trkpt>
      <trkpt lat="44.43419" lon="6.92014">
        <ele>2376.2</ele>
        <time>2022-08-16T11:18:25Z</time>
      </trkpt>
      <trkpt lat="44.43419" lon="6.92016">
        <ele>2376.4</ele>
        <time>2022-08-16T11:18:26Z</time>
      </trkpt>
      <trkpt lat="44.43418" lon="6.92018">
        <ele>2376.6</ele>
        <time>2022-08-16T11:18:27Z</time>
      </trkpt>
      <trkpt lat="44.43418" lon="6.92019">
        <ele>2376.4</ele>
        <time>2022-08-16T11:18:28Z</time>
      </trkpt>
      <trkpt lat="44.43417" lon="6.92021">
        <ele>2376.6</ele>
        <time>2022-08-16T11:18:29Z</time>
      </trkpt>
      <trkpt lat="44.43416" lon="6.92023">
        <ele>2376.8</ele>
        <time>2022-08-16T11:18:30Z</time>
      </trkpt>
      <trkpt lat="44.43415" lon="6.92027">
        <ele>2376.6</ele>
        <time>2022-08-16T11:18:32Z</time>
      </trkpt>
      <trkpt lat="44.43414" lon="6.92029">
        <ele>2376.8</ele>
        <time>2022-08-16T11:18:33Z</time>
      </trkpt>
      <trkpt lat="44.43412" lon="6.92034">
        <ele>2377.2</ele>
        <time>2022-08-16T11:18:36Z</time>
      </trkpt>
      <trkpt lat="44.4341" lon="6.92038">
        <ele>2377.2</ele>
        <time>2022-08-16T11:18:38Z</time>
      </trkpt>
      <trkpt lat="44.43409" lon="6.9204">
        <ele>2377.2</ele>
        <time>2022-08-16T11:18:39Z</time>
      </trkpt>
      <trkpt lat="44.43408" lon="6.92044">
        <ele>2377.4</ele>
        <time>2022-08-16T11:18:41Z</time>
      </trkpt>
      <trkpt lat="44.43406" lon="6.92048">
        <ele>2377.8</ele>
        <time>2022-08-16T11:18:43Z</time>
      </trkpt>
      <trkpt lat="44.43406" lon="6.92049">
        <ele>2377.8</ele>
        <time>2022-08-16T11:18:44Z</time>
      </trkpt>
      <trkpt lat="44.43405" lon="6.92051">
        <ele>2377.8</ele>
        <time>2022-08-16T11:18:45Z</time>
      </trkpt>
      <trkpt lat="44.43402" lon="6.92052">
        <ele>2378</ele>
        <time>2022-08-16T11:18:47Z</time>
      </trkpt>
      <trkpt lat="44.43399" lon="6.92052">
        <ele>2378</ele>
        <time>2022-08-16T11:18:49Z</time>
      </trkpt>
      <trkpt lat="44.43398" lon="6.92052">
        <ele>2378.2</ele>
        <time>2022-08-16T11:18:50Z</time>
      </trkpt>
      <trkpt lat="44.43394" lon="6.92051">
        <ele>2378.2</ele>
        <time>2022-08-16T11:18:52Z</time>
      </trkpt>
      <trkpt lat="44.43392" lon="6.9205">
        <ele>2378.2</ele>
        <time>2022-08-16T11:18:53Z</time>
      </trkpt>
      <trkpt lat="44.43391" lon="6.92049">
        <ele>2378.4</ele>
        <time>2022-08-16T11:18:54Z</time>
      </trkpt>
      <trkpt lat="44.4339" lon="6.92048">
        <ele>2378.4</ele>
        <time>2022-08-16T11:18:55Z</time>
      </trkpt>
      <trkpt lat="44.43386" lon="6.92046">
        <ele>2378.6</ele>
        <time>2022-08-16T11:18:58Z</time>
      </trkpt>
      <trkpt lat="44.43385" lon="6.92045">
        <ele>2378.6</ele>
        <time>2022-08-16T11:18:59Z</time>
      </trkpt>
      <trkpt lat="44.43384" lon="6.92044">
        <ele>2378.8</ele>
        <time>2022-08-16T11:19:00Z</time>
      </trkpt>
      <trkpt lat="44.43383" lon="6.92044">
        <ele>2378.8</ele>
        <time>2022-08-16T11:19:01Z</time>
      </trkpt>
      <trkpt lat="44.43383" lon="6.92042">
        <ele>2379.2</ele>
        <time>2022-08-16T11:19:09Z</time>
      </trkpt>
      <trkpt lat="44.43383" lon="6.92042">
        <ele>2379.2</ele>
        <time>2022-08-16T11:19:26Z</time>
      </trkpt>
      <trkpt lat="44.43383" lon="6.92042">
        <ele>2379</ele>
        <time>2022-08-16T11:19:29Z</time>
      </trkpt>
      <trkpt lat="44.43382" lon="6.92043">
        <ele>2379.2</ele>
        <time>2022-08-16T11:19:38Z</time>
      </trkpt>
      <trkpt lat="44.43382" lon="6.92044">
        <ele>2379.2</ele>
        <time>2022-08-16T11:19:39Z</time>
      </trkpt>
      <trkpt lat="44.43381" lon="6.92053">
        <ele>2379.2</ele>
        <time>2022-08-16T11:19:43Z</time>
      </trkpt>
      <trkpt lat="44.43377" lon="6.92071">
        <ele>2379.2</ele>
        <time>2022-08-16T11:19:49Z</time>
      </trkpt>
      <trkpt lat="44.43376" lon="6.92073">
        <ele>2379.2</ele>
        <time>2022-08-16T11:19:50Z</time>
      </trkpt>
      <trkpt lat="44.43375" lon="6.92076">
        <ele>2379.2</ele>
        <time>2022-08-16T11:19:51Z</time>
      </trkpt>
      <trkpt lat="44.43365" lon="6.92091">
        <ele>2379.2</ele>
        <time>2022-08-16T11:19:56Z</time>
      </trkpt>
      <trkpt lat="44.43363" lon="6.92094">
        <ele>2379</ele>
        <time>2022-08-16T11:19:57Z</time>
      </trkpt>
      <trkpt lat="44.43355" lon="6.92106">
        <ele>2378.8</ele>
        <time>2022-08-16T11:20:00Z</time>
      </trkpt>
      <trkpt lat="44.43349" lon="6.92115">
        <ele>2378.4</ele>
        <time>2022-08-16T11:20:02Z</time>
      </trkpt>
      <trkpt lat="44.43341" lon="6.92127">
        <ele>2377.8</ele>
        <time>2022-08-16T11:20:05Z</time>
      </trkpt>
      <trkpt lat="44.43335" lon="6.92136">
        <ele>2377.4</ele>
        <time>2022-08-16T11:20:07Z</time>
      </trkpt>
      <trkpt lat="44.43333" lon="6.92139">
        <ele>2377.2</ele>
        <time>2022-08-16T11:20:08Z</time>
      </trkpt>
      <trkpt lat="44.43331" lon="6.92143">
        <ele>2376.8</ele>
        <time>2022-08-16T11:20:09Z</time>
      </trkpt>
      <trkpt lat="44.43329" lon="6.92146">
        <ele>2376.4</ele>
        <time>2022-08-16T11:20:10Z</time>
      </trkpt>
      <trkpt lat="44.43328" lon="6.9215">
        <ele>2376.2</ele>
        <time>2022-08-16T11:20:11Z</time>
      </trkpt>
      <trkpt lat="44.43326" lon="6.92153">
        <ele>2376</ele>
        <time>2022-08-16T11:20:12Z</time>
      </trkpt>
      <trkpt lat="44.43325" lon="6.92156">
        <ele>2375.8</ele>
        <time>2022-08-16T11:20:13Z</time>
      </trkpt>
      <trkpt lat="44.43325" lon="6.9216">
        <ele>2375.8</ele>
        <time>2022-08-16T11:20:14Z</time>
      </trkpt>
      <trkpt lat="44.43323" lon="6.92163">
        <ele>2375.8</ele>
        <time>2022-08-16T11:20:15Z</time>
      </trkpt>
      <trkpt lat="44.43322" lon="6.92166">
        <ele>2375.6</ele>
        <time>2022-08-16T11:20:16Z</time>
      </trkpt>
      <trkpt lat="44.4332" lon="6.92168">
        <ele>2375.8</ele>
        <time>2022-08-16T11:20:17Z</time>
      </trkpt>
      <trkpt lat="44.43318" lon="6.92171">
        <ele>2375.6</ele>
        <time>2022-08-16T11:20:18Z</time>
      </trkpt>
      <trkpt lat="44.43317" lon="6.92174">
        <ele>2375.6</ele>
        <time>2022-08-16T11:20:19Z</time>
      </trkpt>
      <trkpt lat="44.43316" lon="6.92177">
        <ele>2375.8</ele>
        <time>2022-08-16T11:20:20Z</time>
      </trkpt>
      <trkpt lat="44.43313" lon="6.92183">
        <ele>2375.6</ele>
        <time>2022-08-16T11:20:22Z</time>
      </trkpt>
      <trkpt lat="44.43311" lon="6.92186">
        <ele>2375.6</ele>
        <time>2022-08-16T11:20:23Z</time>
      </trkpt>
      <trkpt lat="44.43309" lon="6.92192">
        <ele>2375.6</ele>
        <time>2022-08-16T11:20:25Z</time>
      </trkpt>
      <trkpt lat="44.43307" lon="6.92198">
        <ele>2375.6</ele>
        <time>2022-08-16T11:20:27Z</time>
      </trkpt>
      <trkpt lat="44.43303" lon="6.92204">
        <ele>2375.6</ele>
        <time>2022-08-16T11:20:29Z</time>
      </trkpt>
      <trkpt lat="44.433" lon="6.9221">
        <ele>2375.4</ele>
        <time>2022-08-16T11:20:31Z</time>
      </trkpt>
      <trkpt lat="44.43298" lon="6.92213">
        <ele>2375.4</ele>
        <time>2022-08-16T11:20:32Z</time>
      </trkpt>
      <trkpt lat="44.43292" lon="6.9222">
        <ele>2375.6</ele>
        <time>2022-08-16T11:20:35Z</time>
      </trkpt>
      <trkpt lat="44.4329" lon="6.92223">
        <ele>2375.6</ele>
        <time>2022-08-16T11:20:36Z</time>
      </trkpt>
      <trkpt lat="44.43288" lon="6.92225">
        <ele>2375.4</ele>
        <time>2022-08-16T11:20:37Z</time>
      </trkpt>
      <trkpt lat="44.43286" lon="6.92228">
        <ele>2375.4</ele>
        <time>2022-08-16T11:20:38Z</time>
      </trkpt>
      <trkpt lat="44.43284" lon="6.9223">
        <ele>2375.2</ele>
        <time>2022-08-16T11:20:39Z</time>
      </trkpt>
      <trkpt lat="44.43282" lon="6.92232">
        <ele>2375.2</ele>
        <time>2022-08-16T11:20:40Z</time>
      </trkpt>
      <trkpt lat="44.4328" lon="6.92235">
        <ele>2375.2</ele>
        <time>2022-08-16T11:20:41Z</time>
      </trkpt>
      <trkpt lat="44.43279" lon="6.92237">
        <ele>2375.4</ele>
        <time>2022-08-16T11:20:42Z</time>
      </trkpt>
      <trkpt lat="44.43273" lon="6.92244">
        <ele>2375.2</ele>
        <time>2022-08-16T11:20:45Z</time>
      </trkpt>
      <trkpt lat="44.43272" lon="6.92247">
        <ele>2375.4</ele>
        <time>2022-08-16T11:20:46Z</time>
      </trkpt>
      <trkpt lat="44.4327" lon="6.92249">
        <ele>2375.4</ele>
        <time>2022-08-16T11:20:47Z</time>
      </trkpt>
      <trkpt lat="44.43268" lon="6.92251">
        <ele>2375.4</ele>
        <time>2022-08-16T11:20:48Z</time>
      </trkpt>
      <trkpt lat="44.43267" lon="6.92252">
        <ele>2375.4</ele>
        <time>2022-08-16T11:20:49Z</time>
      </trkpt>
      <trkpt lat="44.43258" lon="6.92261">
        <ele>2375.4</ele>
        <time>2022-08-16T11:20:54Z</time>
      </trkpt>
      <trkpt lat="44.43247" lon="6.9227">
        <ele>2375.8</ele>
        <time>2022-08-16T11:20:59Z</time>
      </trkpt>
      <trkpt lat="44.43245" lon="6.92272">
        <ele>2375.8</ele>
        <time>2022-08-16T11:21:00Z</time>
      </trkpt>
      <trkpt lat="44.43244" lon="6.92274">
        <ele>2376</ele>
        <time>2022-08-16T11:21:01Z</time>
      </trkpt>
      <trkpt lat="44.43235" lon="6.92281">
        <ele>2376.4</ele>
        <time>2022-08-16T11:21:05Z</time>
      </trkpt>
      <trkpt lat="44.43234" lon="6.92283">
        <ele>2376.4</ele>
        <time>2022-08-16T11:21:06Z</time>
      </trkpt>
      <trkpt lat="44.43232" lon="6.92285">
        <ele>2376.4</ele>
        <time>2022-08-16T11:21:07Z</time>
      </trkpt>
      <trkpt lat="44.4323" lon="6.92287">
        <ele>2376.4</ele>
        <time>2022-08-16T11:21:08Z</time>
      </trkpt>
      <trkpt lat="44.43228" lon="6.92289">
        <ele>2376.6</ele>
        <time>2022-08-16T11:21:09Z</time>
      </trkpt>
      <trkpt lat="44.43222" lon="6.92298">
        <ele>2376.6</ele>
        <time>2022-08-16T11:21:13Z</time>
      </trkpt>
      <trkpt lat="44.43218" lon="6.92306">
        <ele>2376.8</ele>
        <time>2022-08-16T11:21:16Z</time>
      </trkpt>
      <trkpt lat="44.43212" lon="6.92314">
        <ele>2376.8</ele>
        <time>2022-08-16T11:21:19Z</time>
      </trkpt>
      <trkpt lat="44.4321" lon="6.92316">
        <ele>2376.8</ele>
        <time>2022-08-16T11:21:20Z</time>
      </trkpt>
      <trkpt lat="44.43208" lon="6.92317">
        <ele>2377</ele>
        <time>2022-08-16T11:21:21Z</time>
      </trkpt>
      <trkpt lat="44.43206" lon="6.92318">
        <ele>2377</ele>
        <time>2022-08-16T11:21:22Z</time>
      </trkpt>
      <trkpt lat="44.43203" lon="6.92319">
        <ele>2377.2</ele>
        <time>2022-08-16T11:21:23Z</time>
      </trkpt>
      <trkpt lat="44.43194" lon="6.92323">
        <ele>2377.2</ele>
        <time>2022-08-16T11:21:26Z</time>
      </trkpt>
      <trkpt lat="44.43192" lon="6.92325">
        <ele>2377.2</ele>
        <time>2022-08-16T11:21:27Z</time>
      </trkpt>
      <trkpt lat="44.43189" lon="6.92328">
        <ele>2377.2</ele>
        <time>2022-08-16T11:21:28Z</time>
      </trkpt>
      <trkpt lat="44.43187" lon="6.92331">
        <ele>2377.2</ele>
        <time>2022-08-16T11:21:29Z</time>
      </trkpt>
      <trkpt lat="44.43186" lon="6.92334">
        <ele>2377.2</ele>
        <time>2022-08-16T11:21:30Z</time>
      </trkpt>
      <trkpt lat="44.43184" lon="6.92337">
        <ele>2377.2</ele>
        <time>2022-08-16T11:21:31Z</time>
      </trkpt>
      <trkpt lat="44.43176" lon="6.92347">
        <ele>2377.2</ele>
        <time>2022-08-16T11:21:34Z</time>
      </trkpt>
      <trkpt lat="44.43174" lon="6.92349">
        <ele>2377.2</ele>
        <time>2022-08-16T11:21:35Z</time>
      </trkpt>
      <trkpt lat="44.43172" lon="6.9235">
        <ele>2377</ele>
        <time>2022-08-16T11:21:36Z</time>
      </trkpt>
      <trkpt lat="44.43171" lon="6.92353">
        <ele>2377</ele>
        <time>2022-08-16T11:21:37Z</time>
      </trkpt>
      <trkpt lat="44.43169" lon="6.92355">
        <ele>2377.2</ele>
        <time>2022-08-16T11:21:38Z</time>
      </trkpt>
      <trkpt lat="44.43168" lon="6.92357">
        <ele>2377</ele>
        <time>2022-08-16T11:21:39Z</time>
      </trkpt>
      <trkpt lat="44.43166" lon="6.92359">
        <ele>2377</ele>
        <time>2022-08-16T11:21:40Z</time>
      </trkpt>
      <trkpt lat="44.43164" lon="6.92361">
        <ele>2377.2</ele>
        <time>2022-08-16T11:21:41Z</time>
      </trkpt>
      <trkpt lat="44.43163" lon="6.92363">
        <ele>2377</ele>
        <time>2022-08-16T11:21:42Z</time>
      </trkpt>
      <trkpt lat="44.43158" lon="6.92375">
        <ele>2377</ele>
        <time>2022-08-16T11:21:46Z</time>
      </trkpt>
      <trkpt lat="44.43156" lon="6.92378">
        <ele>2377</ele>
        <time>2022-08-16T11:21:47Z</time>
      </trkpt>
      <trkpt lat="44.43155" lon="6.92382">
        <ele>2377</ele>
        <time>2022-08-16T11:21:48Z</time>
      </trkpt>
      <trkpt lat="44.43154" lon="6.92385">
        <ele>2377</ele>
        <time>2022-08-16T11:21:49Z</time>
      </trkpt>
      <trkpt lat="44.43153" lon="6.92388">
        <ele>2377</ele>
        <time>2022-08-16T11:21:50Z</time>
      </trkpt>
      <trkpt lat="44.43151" lon="6.9239">
        <ele>2377</ele>
        <time>2022-08-16T11:21:51Z</time>
      </trkpt>
      <trkpt lat="44.43147" lon="6.92395">
        <ele>2377</ele>
        <time>2022-08-16T11:21:53Z</time>
      </trkpt>
      <trkpt lat="44.43144" lon="6.92397">
        <ele>2377</ele>
        <time>2022-08-16T11:21:54Z</time>
      </trkpt>
      <trkpt lat="44.43134" lon="6.92405">
        <ele>2377</ele>
        <time>2022-08-16T11:21:58Z</time>
      </trkpt>
      <trkpt lat="44.43132" lon="6.92406">
        <ele>2376.8</ele>
        <time>2022-08-16T11:21:59Z</time>
      </trkpt>
      <trkpt lat="44.4313" lon="6.92408">
        <ele>2376.8</ele>
        <time>2022-08-16T11:22:00Z</time>
      </trkpt>
      <trkpt lat="44.43128" lon="6.9241">
        <ele>2376.8</ele>
        <time>2022-08-16T11:22:01Z</time>
      </trkpt>
      <trkpt lat="44.43126" lon="6.92411">
        <ele>2376.8</ele>
        <time>2022-08-16T11:22:02Z</time>
      </trkpt>
      <trkpt lat="44.43123" lon="6.92414">
        <ele>2376.8</ele>
        <time>2022-08-16T11:22:04Z</time>
      </trkpt>
      <trkpt lat="44.43121" lon="6.92415">
        <ele>2376.6</ele>
        <time>2022-08-16T11:22:05Z</time>
      </trkpt>
      <trkpt lat="44.43119" lon="6.92416">
        <ele>2376.8</ele>
        <time>2022-08-16T11:22:06Z</time>
      </trkpt>
      <trkpt lat="44.43117" lon="6.92417">
        <ele>2376.6</ele>
        <time>2022-08-16T11:22:07Z</time>
      </trkpt>
      <trkpt lat="44.43116" lon="6.92419">
        <ele>2376.8</ele>
        <time>2022-08-16T11:22:08Z</time>
      </trkpt>
      <trkpt lat="44.43115" lon="6.9242">
        <ele>2376.6</ele>
        <time>2022-08-16T11:22:09Z</time>
      </trkpt>
      <trkpt lat="44.43114" lon="6.92421">
        <ele>2376.8</ele>
        <time>2022-08-16T11:22:12Z</time>
      </trkpt>
      <trkpt lat="44.43114" lon="6.92421">
        <ele>2376.8</ele>
        <time>2022-08-16T11:22:13Z</time>
      </trkpt>
      <trkpt lat="44.43115" lon="6.92421">
        <ele>2377.4</ele>
        <time>2022-08-16T11:22:26Z</time>
      </trkpt>
      <trkpt lat="44.43114" lon="6.92421">
        <ele>2377.6</ele>
        <time>2022-08-16T11:22:32Z</time>
      </trkpt>
      <trkpt lat="44.43114" lon="6.92421">
        <ele>2377.6</ele>
        <time>2022-08-16T11:22:36Z</time>
      </trkpt>
      <trkpt lat="44.43114" lon="6.9242">
        <ele>2378</ele>
        <time>2022-08-16T11:22:59Z</time>
      </trkpt>
      <trkpt lat="44.43114" lon="6.9242">
        <ele>2378</ele>
        <time>2022-08-16T11:23:04Z</time>
      </trkpt>
      <trkpt lat="44.43114" lon="6.9242">
        <ele>2378.2</ele>
        <time>2022-08-16T11:23:34Z</time>
      </trkpt>
      <trkpt lat="44.43114" lon="6.9242">
        <ele>2378.2</ele>
        <time>2022-08-16T11:23:37Z</time>
      </trkpt>
      <trkpt lat="44.43114" lon="6.92421">
        <ele>2378.2</ele>
        <time>2022-08-16T11:23:52Z</time>
      </trkpt>
      <trkpt lat="44.43113" lon="6.92422">
        <ele>2378.2</ele>
        <time>2022-08-16T11:23:53Z</time>
      </trkpt>
      <trkpt lat="44.43112" lon="6.92423">
        <ele>2378.2</ele>
        <time>2022-08-16T11:23:54Z</time>
      </trkpt>
      <trkpt lat="44.43102" lon="6.92431">
        <ele>2378</ele>
        <time>2022-08-16T11:23:59Z</time>
      </trkpt>
      <trkpt lat="44.43093" lon="6.9244">
        <ele>2378</ele>
        <time>2022-08-16T11:24:02Z</time>
      </trkpt>
      <trkpt lat="44.4309" lon="6.92445">
        <ele>2378</ele>
        <time>2022-08-16T11:24:03Z</time>
      </trkpt>
      <trkpt lat="44.43087" lon="6.9245">
        <ele>2378</ele>
        <time>2022-08-16T11:24:04Z</time>
      </trkpt>
      <trkpt lat="44.43081" lon="6.92459">
        <ele>2377.8</ele>
        <time>2022-08-16T11:24:06Z</time>
      </trkpt>
      <trkpt lat="44.43076" lon="6.92463">
        <ele>2377.6</ele>
        <time>2022-08-16T11:24:07Z</time>
      </trkpt>
      <trkpt lat="44.43072" lon="6.92465">
        <ele>2377.2</ele>
        <time>2022-08-16T11:24:08Z</time>
      </trkpt>
      <trkpt lat="44.43068" lon="6.92466">
        <ele>2377</ele>
        <time>2022-08-16T11:24:09Z</time>
      </trkpt>
      <trkpt lat="44.43065" lon="6.92467">
        <ele>2376.6</ele>
        <time>2022-08-16T11:24:10Z</time>
      </trkpt>
      <trkpt lat="44.43062" lon="6.92468">
        <ele>2376.6</ele>
        <time>2022-08-16T11:24:11Z</time>
      </trkpt>
      <trkpt lat="44.43059" lon="6.92468">
        <ele>2376.2</ele>
        <time>2022-08-16T11:24:12Z</time>
      </trkpt>
      <trkpt lat="44.43057" lon="6.92469">
        <ele>2376.2</ele>
        <time>2022-08-16T11:24:13Z</time>
      </trkpt>
      <trkpt lat="44.43054" lon="6.9247">
        <ele>2376.2</ele>
        <time>2022-08-16T11:24:14Z</time>
      </trkpt>
      <trkpt lat="44.43053" lon="6.92471">
        <ele>2376.2</ele>
        <time>2022-08-16T11:24:15Z</time>
      </trkpt>
      <trkpt lat="44.43051" lon="6.92471">
        <ele>2376</ele>
        <time>2022-08-16T11:24:16Z</time>
      </trkpt>
      <trkpt lat="44.4305" lon="6.92471">
        <ele>2376</ele>
        <time>2022-08-16T11:24:17Z</time>
      </trkpt>
      <trkpt lat="44.43045" lon="6.92472">
        <ele>2376</ele>
        <time>2022-08-16T11:24:20Z</time>
      </trkpt>
      <trkpt lat="44.43044" lon="6.92473">
        <ele>2376</ele>
        <time>2022-08-16T11:24:21Z</time>
      </trkpt>
      <trkpt lat="44.43042" lon="6.92473">
        <ele>2376</ele>
        <time>2022-08-16T11:24:22Z</time>
      </trkpt>
      <trkpt lat="44.43036" lon="6.92472">
        <ele>2376</ele>
        <time>2022-08-16T11:24:26Z</time>
      </trkpt>
      <trkpt lat="44.43032" lon="6.92469">
        <ele>2376.2</ele>
        <time>2022-08-16T11:24:28Z</time>
      </trkpt>
      <trkpt lat="44.43031" lon="6.92468">
        <ele>2376.2</ele>
        <time>2022-08-16T11:24:29Z</time>
      </trkpt>
      <trkpt lat="44.4303" lon="6.92466">
        <ele>2376.2</ele>
        <time>2022-08-16T11:24:30Z</time>
      </trkpt>
      <trkpt lat="44.43028" lon="6.92465">
        <ele>2376.2</ele>
        <time>2022-08-16T11:24:31Z</time>
      </trkpt>
      <trkpt lat="44.43023" lon="6.92459">
        <ele>2376.4</ele>
        <time>2022-08-16T11:24:35Z</time>
      </trkpt>
      <trkpt lat="44.43022" lon="6.92457">
        <ele>2376.4</ele>
        <time>2022-08-16T11:24:36Z</time>
      </trkpt>
      <trkpt lat="44.43021" lon="6.92455">
        <ele>2376.2</ele>
        <time>2022-08-16T11:24:37Z</time>
      </trkpt>
      <trkpt lat="44.43018" lon="6.92452">
        <ele>2376.4</ele>
        <time>2022-08-16T11:24:39Z</time>
      </trkpt>
      <trkpt lat="44.43017" lon="6.92451">
        <ele>2376.4</ele>
        <time>2022-08-16T11:24:40Z</time>
      </trkpt>
      <trkpt lat="44.43016" lon="6.9245">
        <ele>2376.4</ele>
        <time>2022-08-16T11:24:41Z</time>
      </trkpt>
      <trkpt lat="44.43015" lon="6.92448">
        <ele>2376.2</ele>
        <time>2022-08-16T11:24:42Z</time>
      </trkpt>
      <trkpt lat="44.43016" lon="6.92448">
        <ele>2376.2</ele>
        <time>2022-08-16T11:24:46Z</time>
      </trkpt>
      <trkpt lat="44.43016" lon="6.92448">
        <ele>2375.8</ele>
        <time>2022-08-16T11:24:57Z</time>
      </trkpt>
      <trkpt lat="44.43016" lon="6.92448">
        <ele>2375.6</ele>
        <time>2022-08-16T11:25:02Z</time>
      </trkpt>
      <trkpt lat="44.43016" lon="6.92448">
        <ele>2375.6</ele>
        <time>2022-08-16T11:25:03Z</time>
      </trkpt>
      <trkpt lat="44.43017" lon="6.92448">
        <ele>2375</ele>
        <time>2022-08-16T11:25:17Z</time>
      </trkpt>
      <trkpt lat="44.43017" lon="6.92448">
        <ele>2375.2</ele>
        <time>2022-08-16T11:25:26Z</time>
      </trkpt>
      <trkpt lat="44.43017" lon="6.92448">
        <ele>2375.2</ele>
        <time>2022-08-16T11:25:31Z</time>
      </trkpt>
      <trkpt lat="44.43017" lon="6.92448">
        <ele>2375.2</ele>
        <time>2022-08-16T11:25:54Z</time>
      </trkpt>
      <trkpt lat="44.43015" lon="6.92449">
        <ele>2375.2</ele>
        <time>2022-08-16T11:25:57Z</time>
      </trkpt>
      <trkpt lat="44.43014" lon="6.9245">
        <ele>2375.2</ele>
        <time>2022-08-16T11:25:58Z</time>
      </trkpt>
      <trkpt lat="44.43012" lon="6.92461">
        <ele>2376</ele>
        <time>2022-08-16T11:26:04Z</time>
      </trkpt>
      <trkpt lat="44.4301" lon="6.92465">
        <ele>2376.2</ele>
        <time>2022-08-16T11:26:06Z</time>
      </trkpt>
      <trkpt lat="44.4301" lon="6.92467">
        <ele>2376.4</ele>
        <time>2022-08-16T11:26:07Z</time>
      </trkpt>
      <trkpt lat="44.43007" lon="6.92474">
        <ele>2376.8</ele>
        <time>2022-08-16T11:26:11Z</time>
      </trkpt>
      <trkpt lat="44.43006" lon="6.92476">
        <ele>2376.8</ele>
        <time>2022-08-16T11:26:12Z</time>
      </trkpt>
      <trkpt lat="44.43005" lon="6.92478">
        <ele>2376.8</ele>
        <time>2022-08-16T11:26:13Z</time>
      </trkpt>
      <trkpt lat="44.43004" lon="6.9248">
        <ele>2376.8</ele>
        <time>2022-08-16T11:26:14Z</time>
      </trkpt>
      <trkpt lat="44.43003" lon="6.92481">
        <ele>2376.6</ele>
        <time>2022-08-16T11:26:15Z</time>
      </trkpt>
      <trkpt lat="44.43001" lon="6.92484">
        <ele>2376.8</ele>
        <time>2022-08-16T11:26:17Z</time>
      </trkpt>
      <trkpt lat="44.42998" lon="6.92486">
        <ele>2376.8</ele>
        <time>2022-08-16T11:26:19Z</time>
      </trkpt>
      <trkpt lat="44.42996" lon="6.92487">
        <ele>2376.8</ele>
        <time>2022-08-16T11:26:20Z</time>
      </trkpt>
      <trkpt lat="44.42994" lon="6.92488">
        <ele>2376.8</ele>
        <time>2022-08-16T11:26:21Z</time>
      </trkpt>
      <trkpt lat="44.42991" lon="6.92489">
        <ele>2376.8</ele>
        <time>2022-08-16T11:26:23Z</time>
      </trkpt>
      <trkpt lat="44.42989" lon="6.9249">
        <ele>2376.8</ele>
        <time>2022-08-16T11:26:24Z</time>
      </trkpt>
      <trkpt lat="44.42988" lon="6.92491">
        <ele>2377</ele>
        <time>2022-08-16T11:26:25Z</time>
      </trkpt>
      <trkpt lat="44.42986" lon="6.92492">
        <ele>2376.8</ele>
        <time>2022-08-16T11:26:26Z</time>
      </trkpt>
      <trkpt lat="44.42985" lon="6.92493">
        <ele>2377</ele>
        <time>2022-08-16T11:26:27Z</time>
      </trkpt>
      <trkpt lat="44.42978" lon="6.92497">
        <ele>2377.4</ele>
        <time>2022-08-16T11:26:31Z</time>
      </trkpt>
      <trkpt lat="44.42972" lon="6.925">
        <ele>2377.6</ele>
        <time>2022-08-16T11:26:35Z</time>
      </trkpt>
      <trkpt lat="44.42968" lon="6.92502">
        <ele>2377.6</ele>
        <time>2022-08-16T11:26:37Z</time>
      </trkpt>
      <trkpt lat="44.42954" lon="6.92512">
        <ele>2378</ele>
        <time>2022-08-16T11:26:46Z</time>
      </trkpt>
      <trkpt lat="44.42951" lon="6.92514">
        <ele>2378</ele>
        <time>2022-08-16T11:26:48Z</time>
      </trkpt>
      <trkpt lat="44.42949" lon="6.92515">
        <ele>2378</ele>
        <time>2022-08-16T11:26:49Z</time>
      </trkpt>
      <trkpt lat="44.42947" lon="6.92516">
        <ele>2378</ele>
        <time>2022-08-16T11:26:50Z</time>
      </trkpt>
      <trkpt lat="44.42944" lon="6.92518">
        <ele>2378.2</ele>
        <time>2022-08-16T11:26:52Z</time>
      </trkpt>
      <trkpt lat="44.42943" lon="6.92519">
        <ele>2378.2</ele>
        <time>2022-08-16T11:26:53Z</time>
      </trkpt>
      <trkpt lat="44.42939" lon="6.92521">
        <ele>2378.2</ele>
        <time>2022-08-16T11:26:55Z</time>
      </trkpt>
      <trkpt lat="44.42938" lon="6.92521">
        <ele>2378.2</ele>
        <time>2022-08-16T11:26:56Z</time>
      </trkpt>
      <trkpt lat="44.4293" lon="6.92525">
        <ele>2379</ele>
        <time>2022-08-16T11:27:01Z</time>
      </trkpt>
      <trkpt lat="44.42928" lon="6.92526">
        <ele>2379.2</ele>
        <time>2022-08-16T11:27:02Z</time>
      </trkpt>
      <trkpt lat="44.42926" lon="6.92527">
        <ele>2379.2</ele>
        <time>2022-08-16T11:27:03Z</time>
      </trkpt>
      <trkpt lat="44.42925" lon="6.92528">
        <ele>2379.4</ele>
        <time>2022-08-16T11:27:04Z</time>
      </trkpt>
      <trkpt lat="44.4292" lon="6.92531">
        <ele>2379.4</ele>
        <time>2022-08-16T11:27:07Z</time>
      </trkpt>
      <trkpt lat="44.42919" lon="6.92532">
        <ele>2379.4</ele>
        <time>2022-08-16T11:27:08Z</time>
      </trkpt>
      <trkpt lat="44.42917" lon="6.92533">
        <ele>2379.4</ele>
        <time>2022-08-16T11:27:09Z</time>
      </trkpt>
      <trkpt lat="44.42916" lon="6.92534">
        <ele>2379.4</ele>
        <time>2022-08-16T11:27:10Z</time>
      </trkpt>
      <trkpt lat="44.42911" lon="6.92537">
        <ele>2379.4</ele>
        <time>2022-08-16T11:27:13Z</time>
      </trkpt>
      <trkpt lat="44.42906" lon="6.9254">
        <ele>2379.8</ele>
        <time>2022-08-16T11:27:16Z</time>
      </trkpt>
      <trkpt lat="44.42903" lon="6.92542">
        <ele>2380</ele>
        <time>2022-08-16T11:27:18Z</time>
      </trkpt>
      <trkpt lat="44.429" lon="6.92543">
        <ele>2380.2</ele>
        <time>2022-08-16T11:27:20Z</time>
      </trkpt>
      <trkpt lat="44.42898" lon="6.92544">
        <ele>2380.4</ele>
        <time>2022-08-16T11:27:21Z</time>
      </trkpt>
      <trkpt lat="44.42895" lon="6.92545">
        <ele>2380.8</ele>
        <time>2022-08-16T11:27:23Z</time>
      </trkpt>
      <trkpt lat="44.42893" lon="6.92545">
        <ele>2380.6</ele>
        <time>2022-08-16T11:27:24Z</time>
      </trkpt>
      <trkpt lat="44.42891" lon="6.92546">
        <ele>2380.8</ele>
        <time>2022-08-16T11:27:25Z</time>
      </trkpt>
      <trkpt lat="44.4289" lon="6.92547">
        <ele>2380.8</ele>
        <time>2022-08-16T11:27:26Z</time>
      </trkpt>
      <trkpt lat="44.42881" lon="6.9255">
        <ele>2381</ele>
        <time>2022-08-16T11:27:31Z</time>
      </trkpt>
      <trkpt lat="44.42878" lon="6.92552">
        <ele>2381.2</ele>
        <time>2022-08-16T11:27:33Z</time>
      </trkpt>
      <trkpt lat="44.42876" lon="6.92553">
        <ele>2381.2</ele>
        <time>2022-08-16T11:27:34Z</time>
      </trkpt>
      <trkpt lat="44.42873" lon="6.92554">
        <ele>2381.4</ele>
        <time>2022-08-16T11:27:36Z</time>
      </trkpt>
      <trkpt lat="44.42871" lon="6.92555">
        <ele>2381.4</ele>
        <time>2022-08-16T11:27:37Z</time>
      </trkpt>
      <trkpt lat="44.4287" lon="6.92556">
        <ele>2381.6</ele>
        <time>2022-08-16T11:27:38Z</time>
      </trkpt>
      <trkpt lat="44.42868" lon="6.92557">
        <ele>2381.6</ele>
        <time>2022-08-16T11:27:39Z</time>
      </trkpt>
      <trkpt lat="44.42867" lon="6.92558">
        <ele>2381.8</ele>
        <time>2022-08-16T11:27:40Z</time>
      </trkpt>
      <trkpt lat="44.42864" lon="6.92561">
        <ele>2381.8</ele>
        <time>2022-08-16T11:27:42Z</time>
      </trkpt>
      <trkpt lat="44.42863" lon="6.92562">
        <ele>2382</ele>
        <time>2022-08-16T11:27:43Z</time>
      </trkpt>
      <trkpt lat="44.42861" lon="6.92563">
        <ele>2381.8</ele>
        <time>2022-08-16T11:27:44Z</time>
      </trkpt>
      <trkpt lat="44.42857" lon="6.92567">
        <ele>2382.4</ele>
        <time>2022-08-16T11:27:47Z</time>
      </trkpt>
      <trkpt lat="44.42855" lon="6.92567">
        <ele>2382.2</ele>
        <time>2022-08-16T11:27:48Z</time>
      </trkpt>
      <trkpt lat="44.42853" lon="6.92567">
        <ele>2382.4</ele>
        <time>2022-08-16T11:27:49Z</time>
      </trkpt>
      <trkpt lat="44.42852" lon="6.92567">
        <ele>2382.6</ele>
        <time>2022-08-16T11:27:50Z</time>
      </trkpt>
      <trkpt lat="44.4285" lon="6.92567">
        <ele>2382.6</ele>
        <time>2022-08-16T11:27:51Z</time>
      </trkpt>
      <trkpt lat="44.42848" lon="6.92568">
        <ele>2382.6</ele>
        <time>2022-08-16T11:27:52Z</time>
      </trkpt>
      <trkpt lat="44.42847" lon="6.92568">
        <ele>2382.8</ele>
        <time>2022-08-16T11:27:53Z</time>
      </trkpt>
      <trkpt lat="44.42845" lon="6.92569">
        <ele>2383.2</ele>
        <time>2022-08-16T11:27:54Z</time>
      </trkpt>
      <trkpt lat="44.42842" lon="6.92571">
        <ele>2383.4</ele>
        <time>2022-08-16T11:27:56Z</time>
      </trkpt>
      <trkpt lat="44.42841" lon="6.92571">
        <ele>2383.4</ele>
        <time>2022-08-16T11:27:57Z</time>
      </trkpt>
      <trkpt lat="44.4284" lon="6.92572">
        <ele>2383.4</ele>
        <time>2022-08-16T11:27:58Z</time>
      </trkpt>
      <trkpt lat="44.42838" lon="6.92573">
        <ele>2383.6</ele>
        <time>2022-08-16T11:27:59Z</time>
      </trkpt>
      <trkpt lat="44.42837" lon="6.92573">
        <ele>2383.6</ele>
        <time>2022-08-16T11:28:00Z</time>
      </trkpt>
      <trkpt lat="44.42836" lon="6.92574">
        <ele>2383.6</ele>
        <time>2022-08-16T11:28:01Z</time>
      </trkpt>
      <trkpt lat="44.42835" lon="6.92574">
        <ele>2383.8</ele>
        <time>2022-08-16T11:28:02Z</time>
      </trkpt>
      <trkpt lat="44.42834" lon="6.92575">
        <ele>2383.8</ele>
        <time>2022-08-16T11:28:04Z</time>
      </trkpt>
      <trkpt lat="44.42834" lon="6.92575">
        <ele>2385.4</ele>
        <time>2022-08-16T11:28:14Z</time>
      </trkpt>
      <trkpt lat="44.42834" lon="6.92575">
        <ele>2385.4</ele>
        <time>2022-08-16T11:28:16Z</time>
      </trkpt>
      <trkpt lat="44.42833" lon="6.92576">
        <ele>2385.6</ele>
        <time>2022-08-16T11:28:18Z</time>
      </trkpt>
      <trkpt lat="44.42832" lon="6.92576">
        <ele>2385.6</ele>
        <time>2022-08-16T11:28:20Z</time>
      </trkpt>
      <trkpt lat="44.42831" lon="6.92577">
        <ele>2385.6</ele>
        <time>2022-08-16T11:28:21Z</time>
      </trkpt>
      <trkpt lat="44.4283" lon="6.92577">
        <ele>2385.6</ele>
        <time>2022-08-16T11:28:22Z</time>
      </trkpt>
      <trkpt lat="44.4283" lon="6.92577">
        <ele>2385.6</ele>
        <time>2022-08-16T11:28:23Z</time>
      </trkpt>
      <trkpt lat="44.4283" lon="6.92578">
        <ele>2385.8</ele>
        <time>2022-08-16T11:28:28Z</time>
      </trkpt>
      <trkpt lat="44.42831" lon="6.92577">
        <ele>2386</ele>
        <time>2022-08-16T11:28:29Z</time>
      </trkpt>
      <trkpt lat="44.42832" lon="6.92577">
        <ele>2386.2</ele>
        <time>2022-08-16T11:28:32Z</time>
      </trkpt>
      <trkpt lat="44.42832" lon="6.92577">
        <ele>2386.4</ele>
        <time>2022-08-16T11:28:33Z</time>
      </trkpt>
      <trkpt lat="44.42832" lon="6.92577">
        <ele>2386.4</ele>
        <time>2022-08-16T11:28:34Z</time>
      </trkpt>
      <trkpt lat="44.42832" lon="6.92578">
        <ele>2386.2</ele>
        <time>2022-08-16T11:28:50Z</time>
      </trkpt>
      <trkpt lat="44.42828" lon="6.92579">
        <ele>2386.2</ele>
        <time>2022-08-16T11:28:55Z</time>
      </trkpt>
      <trkpt lat="44.42825" lon="6.92579">
        <ele>2386.4</ele>
        <time>2022-08-16T11:28:59Z</time>
      </trkpt>
      <trkpt lat="44.42824" lon="6.9258">
        <ele>2386.6</ele>
        <time>2022-08-16T11:29:00Z</time>
      </trkpt>
      <trkpt lat="44.42822" lon="6.92581">
        <ele>2386.8</ele>
        <time>2022-08-16T11:29:02Z</time>
      </trkpt>
      <trkpt lat="44.42822" lon="6.92581">
        <ele>2387</ele>
        <time>2022-08-16T11:29:03Z</time>
      </trkpt>
      <trkpt lat="44.42821" lon="6.92582">
        <ele>2387</ele>
        <time>2022-08-16T11:29:04Z</time>
      </trkpt>
      <trkpt lat="44.42821" lon="6.92582">
        <ele>2387.2</ele>
        <time>2022-08-16T11:29:05Z</time>
      </trkpt>
      <trkpt lat="44.4282" lon="6.92583">
        <ele>2387.6</ele>
        <time>2022-08-16T11:29:06Z</time>
      </trkpt>
      <trkpt lat="44.42819" lon="6.92583">
        <ele>2387.8</ele>
        <time>2022-08-16T11:29:07Z</time>
      </trkpt>
      <trkpt lat="44.42818" lon="6.92583">
        <ele>2388</ele>
        <time>2022-08-16T11:29:08Z</time>
      </trkpt>
      <trkpt lat="44.42818" lon="6.92583">
        <ele>2388.2</ele>
        <time>2022-08-16T11:29:09Z</time>
      </trkpt>
      <trkpt lat="44.42818" lon="6.92583">
        <ele>2388.6</ele>
        <time>2022-08-16T11:29:10Z</time>
      </trkpt>
      <trkpt lat="44.42817" lon="6.92584">
        <ele>2388.8</ele>
        <time>2022-08-16T11:29:11Z</time>
      </trkpt>
      <trkpt lat="44.42817" lon="6.92585">
        <ele>2388.8</ele>
        <time>2022-08-16T11:29:12Z</time>
      </trkpt>
      <trkpt lat="44.42816" lon="6.92585">
        <ele>2389</ele>
        <time>2022-08-16T11:29:13Z</time>
      </trkpt>
      <trkpt lat="44.42816" lon="6.92586">
        <ele>2389.2</ele>
        <time>2022-08-16T11:29:14Z</time>
      </trkpt>
      <trkpt lat="44.42816" lon="6.92587">
        <ele>2389.2</ele>
        <time>2022-08-16T11:29:15Z</time>
      </trkpt>
      <trkpt lat="44.42815" lon="6.92588">
        <ele>2389.4</ele>
        <time>2022-08-16T11:29:16Z</time>
      </trkpt>
      <trkpt lat="44.42814" lon="6.92588">
        <ele>2389.6</ele>
        <time>2022-08-16T11:29:17Z</time>
      </trkpt>
      <trkpt lat="44.42814" lon="6.92589">
        <ele>2389.8</ele>
        <time>2022-08-16T11:29:18Z</time>
      </trkpt>
      <trkpt lat="44.42814" lon="6.9259">
        <ele>2390.2</ele>
        <time>2022-08-16T11:29:19Z</time>
      </trkpt>
      <trkpt lat="44.42813" lon="6.92591">
        <ele>2390.2</ele>
        <time>2022-08-16T11:29:20Z</time>
      </trkpt>
      <trkpt lat="44.42813" lon="6.92592">
        <ele>2390.4</ele>
        <time>2022-08-16T11:29:21Z</time>
      </trkpt>
      <trkpt lat="44.42812" lon="6.92593">
        <ele>2390.6</ele>
        <time>2022-08-16T11:29:22Z</time>
      </trkpt>
      <trkpt lat="44.42811" lon="6.92594">
        <ele>2390.8</ele>
        <time>2022-08-16T11:29:23Z</time>
      </trkpt>
      <trkpt lat="44.42811" lon="6.92595">
        <ele>2391.2</ele>
        <time>2022-08-16T11:29:24Z</time>
      </trkpt>
      <trkpt lat="44.42811" lon="6.92596">
        <ele>2391.4</ele>
        <time>2022-08-16T11:29:25Z</time>
      </trkpt>
      <trkpt lat="44.4281" lon="6.92597">
        <ele>2391.6</ele>
        <time>2022-08-16T11:29:26Z</time>
      </trkpt>
      <trkpt lat="44.4281" lon="6.92597">
        <ele>2391.6</ele>
        <time>2022-08-16T11:29:27Z</time>
      </trkpt>
      <trkpt lat="44.4281" lon="6.92598">
        <ele>2391.8</ele>
        <time>2022-08-16T11:29:28Z</time>
      </trkpt>
      <trkpt lat="44.4281" lon="6.92598">
        <ele>2392.2</ele>
        <time>2022-08-16T11:29:29Z</time>
      </trkpt>
      <trkpt lat="44.42809" lon="6.92598">
        <ele>2392.2</ele>
        <time>2022-08-16T11:29:30Z</time>
      </trkpt>
      <trkpt lat="44.42809" lon="6.92599">
        <ele>2392.2</ele>
        <time>2022-08-16T11:29:31Z</time>
      </trkpt>
      <trkpt lat="44.42808" lon="6.92599">
        <ele>2392.6</ele>
        <time>2022-08-16T11:29:32Z</time>
      </trkpt>
      <trkpt lat="44.42808" lon="6.92599">
        <ele>2392.8</ele>
        <time>2022-08-16T11:29:33Z</time>
      </trkpt>
      <trkpt lat="44.42808" lon="6.926">
        <ele>2393</ele>
        <time>2022-08-16T11:29:34Z</time>
      </trkpt>
      <trkpt lat="44.42807" lon="6.926">
        <ele>2393.2</ele>
        <time>2022-08-16T11:29:35Z</time>
      </trkpt>
      <trkpt lat="44.42807" lon="6.92601">
        <ele>2393.4</ele>
        <time>2022-08-16T11:29:36Z</time>
      </trkpt>
      <trkpt lat="44.42807" lon="6.92602">
        <ele>2393.4</ele>
        <time>2022-08-16T11:29:37Z</time>
      </trkpt>
      <trkpt lat="44.42806" lon="6.92602">
        <ele>2393.4</ele>
        <time>2022-08-16T11:29:38Z</time>
      </trkpt>
      <trkpt lat="44.42806" lon="6.92603">
        <ele>2393.6</ele>
        <time>2022-08-16T11:29:39Z</time>
      </trkpt>
      <trkpt lat="44.42805" lon="6.92604">
        <ele>2393.8</ele>
        <time>2022-08-16T11:29:40Z</time>
      </trkpt>
      <trkpt lat="44.42805" lon="6.92605">
        <ele>2394.2</ele>
        <time>2022-08-16T11:29:41Z</time>
      </trkpt>
      <trkpt lat="44.42805" lon="6.92605">
        <ele>2394.6</ele>
        <time>2022-08-16T11:29:42Z</time>
      </trkpt>
      <trkpt lat="44.42804" lon="6.92605">
        <ele>2394.6</ele>
        <time>2022-08-16T11:29:43Z</time>
      </trkpt>
      <trkpt lat="44.42804" lon="6.92605">
        <ele>2395</ele>
        <time>2022-08-16T11:29:44Z</time>
      </trkpt>
      <trkpt lat="44.42804" lon="6.92606">
        <ele>2395</ele>
        <time>2022-08-16T11:29:45Z</time>
      </trkpt>
      <trkpt lat="44.42803" lon="6.92606">
        <ele>2395.2</ele>
        <time>2022-08-16T11:29:46Z</time>
      </trkpt>
      <trkpt lat="44.42803" lon="6.92607">
        <ele>2395.4</ele>
        <time>2022-08-16T11:29:47Z</time>
      </trkpt>
      <trkpt lat="44.42802" lon="6.92607">
        <ele>2395.4</ele>
        <time>2022-08-16T11:29:48Z</time>
      </trkpt>
      <trkpt lat="44.42801" lon="6.92606">
        <ele>2395.8</ele>
        <time>2022-08-16T11:29:49Z</time>
      </trkpt>
      <trkpt lat="44.42801" lon="6.92607">
        <ele>2395.8</ele>
        <time>2022-08-16T11:29:50Z</time>
      </trkpt>
      <trkpt lat="44.428" lon="6.92607">
        <ele>2396</ele>
        <time>2022-08-16T11:29:51Z</time>
      </trkpt>
      <trkpt lat="44.428" lon="6.92608">
        <ele>2395.8</ele>
        <time>2022-08-16T11:29:52Z</time>
      </trkpt>
      <trkpt lat="44.42799" lon="6.92608">
        <ele>2396</ele>
        <time>2022-08-16T11:29:53Z</time>
      </trkpt>
      <trkpt lat="44.42799" lon="6.92608">
        <ele>2396.2</ele>
        <time>2022-08-16T11:29:54Z</time>
      </trkpt>
      <trkpt lat="44.42798" lon="6.92609">
        <ele>2396.6</ele>
        <time>2022-08-16T11:29:55Z</time>
      </trkpt>
      <trkpt lat="44.42798" lon="6.9261">
        <ele>2396.6</ele>
        <time>2022-08-16T11:29:56Z</time>
      </trkpt>
      <trkpt lat="44.42797" lon="6.9261">
        <ele>2396.8</ele>
        <time>2022-08-16T11:29:57Z</time>
      </trkpt>
      <trkpt lat="44.42797" lon="6.92611">
        <ele>2397</ele>
        <time>2022-08-16T11:29:58Z</time>
      </trkpt>
      <trkpt lat="44.42796" lon="6.92612">
        <ele>2397.4</ele>
        <time>2022-08-16T11:29:59Z</time>
      </trkpt>
      <trkpt lat="44.42796" lon="6.92612">
        <ele>2397.4</ele>
        <time>2022-08-16T11:30:00Z</time>
      </trkpt>
      <trkpt lat="44.42796" lon="6.92613">
        <ele>2397.6</ele>
        <time>2022-08-16T11:30:01Z</time>
      </trkpt>
      <trkpt lat="44.42796" lon="6.92613">
        <ele>2397.6</ele>
        <time>2022-08-16T11:30:02Z</time>
      </trkpt>
      <trkpt lat="44.42794" lon="6.92612">
        <ele>2397.6</ele>
        <time>2022-08-16T11:30:03Z</time>
      </trkpt>
      <trkpt lat="44.42794" lon="6.92612">
        <ele>2397.8</ele>
        <time>2022-08-16T11:30:04Z</time>
      </trkpt>
      <trkpt lat="44.42793" lon="6.92612">
        <ele>2398.2</ele>
        <time>2022-08-16T11:30:05Z</time>
      </trkpt>
      <trkpt lat="44.42792" lon="6.92612">
        <ele>2398.2</ele>
        <time>2022-08-16T11:30:06Z</time>
      </trkpt>
      <trkpt lat="44.42791" lon="6.92612">
        <ele>2398.2</ele>
        <time>2022-08-16T11:30:07Z</time>
      </trkpt>
      <trkpt lat="44.4279" lon="6.92612">
        <ele>2398.2</ele>
        <time>2022-08-16T11:30:08Z</time>
      </trkpt>
      <trkpt lat="44.4279" lon="6.92612">
        <ele>2398.2</ele>
        <time>2022-08-16T11:30:09Z</time>
      </trkpt>
      <trkpt lat="44.42789" lon="6.92613">
        <ele>2398.4</ele>
        <time>2022-08-16T11:30:10Z</time>
      </trkpt>
      <trkpt lat="44.42789" lon="6.92613">
        <ele>2398.4</ele>
        <time>2022-08-16T11:30:11Z</time>
      </trkpt>
      <trkpt lat="44.42788" lon="6.92614">
        <ele>2398.4</ele>
        <time>2022-08-16T11:30:12Z</time>
      </trkpt>
      <trkpt lat="44.42788" lon="6.92614">
        <ele>2398.6</ele>
        <time>2022-08-16T11:30:13Z</time>
      </trkpt>
      <trkpt lat="44.42787" lon="6.92614">
        <ele>2398.6</ele>
        <time>2022-08-16T11:30:14Z</time>
      </trkpt>
      <trkpt lat="44.42787" lon="6.92615">
        <ele>2398.6</ele>
        <time>2022-08-16T11:30:15Z</time>
      </trkpt>
      <trkpt lat="44.42786" lon="6.92616">
        <ele>2398.8</ele>
        <time>2022-08-16T11:30:16Z</time>
      </trkpt>
      <trkpt lat="44.42786" lon="6.92616">
        <ele>2398.8</ele>
        <time>2022-08-16T11:30:17Z</time>
      </trkpt>
      <trkpt lat="44.42785" lon="6.92617">
        <ele>2399</ele>
        <time>2022-08-16T11:30:18Z</time>
      </trkpt>
      <trkpt lat="44.42784" lon="6.92617">
        <ele>2399.2</ele>
        <time>2022-08-16T11:30:19Z</time>
      </trkpt>
      <trkpt lat="44.42784" lon="6.92618">
        <ele>2399.2</ele>
        <time>2022-08-16T11:30:20Z</time>
      </trkpt>
      <trkpt lat="44.42784" lon="6.92618">
        <ele>2399.8</ele>
        <time>2022-08-16T11:30:21Z</time>
      </trkpt>
      <trkpt lat="44.42783" lon="6.92618">
        <ele>2400</ele>
        <time>2022-08-16T11:30:22Z</time>
      </trkpt>
      <trkpt lat="44.42783" lon="6.92619">
        <ele>2400.2</ele>
        <time>2022-08-16T11:30:23Z</time>
      </trkpt>
      <trkpt lat="44.42782" lon="6.9262">
        <ele>2400.4</ele>
        <time>2022-08-16T11:30:24Z</time>
      </trkpt>
      <trkpt lat="44.42782" lon="6.9262">
        <ele>2400.4</ele>
        <time>2022-08-16T11:30:25Z</time>
      </trkpt>
      <trkpt lat="44.42781" lon="6.92621">
        <ele>2400.6</ele>
        <time>2022-08-16T11:30:26Z</time>
      </trkpt>
      <trkpt lat="44.4278" lon="6.92621">
        <ele>2400.8</ele>
        <time>2022-08-16T11:30:27Z</time>
      </trkpt>
      <trkpt lat="44.4278" lon="6.92622">
        <ele>2400.8</ele>
        <time>2022-08-16T11:30:28Z</time>
      </trkpt>
      <trkpt lat="44.42779" lon="6.92623">
        <ele>2400.8</ele>
        <time>2022-08-16T11:30:29Z</time>
      </trkpt>
      <trkpt lat="44.42779" lon="6.92623">
        <ele>2401</ele>
        <time>2022-08-16T11:30:30Z</time>
      </trkpt>
      <trkpt lat="44.42778" lon="6.92624">
        <ele>2401</ele>
        <time>2022-08-16T11:30:31Z</time>
      </trkpt>
      <trkpt lat="44.42778" lon="6.92625">
        <ele>2401</ele>
        <time>2022-08-16T11:30:32Z</time>
      </trkpt>
      <trkpt lat="44.42778" lon="6.92625">
        <ele>2401.4</ele>
        <time>2022-08-16T11:30:33Z</time>
      </trkpt>
      <trkpt lat="44.42777" lon="6.92625">
        <ele>2401.6</ele>
        <time>2022-08-16T11:30:34Z</time>
      </trkpt>
      <trkpt lat="44.42776" lon="6.92625">
        <ele>2401.6</ele>
        <time>2022-08-16T11:30:35Z</time>
      </trkpt>
      <trkpt lat="44.42776" lon="6.92626">
        <ele>2401.8</ele>
        <time>2022-08-16T11:30:36Z</time>
      </trkpt>
      <trkpt lat="44.42775" lon="6.92627">
        <ele>2401.8</ele>
        <time>2022-08-16T11:30:37Z</time>
      </trkpt>
      <trkpt lat="44.42775" lon="6.92627">
        <ele>2402</ele>
        <time>2022-08-16T11:30:38Z</time>
      </trkpt>
      <trkpt lat="44.42774" lon="6.92628">
        <ele>2402.2</ele>
        <time>2022-08-16T11:30:39Z</time>
      </trkpt>
      <trkpt lat="44.42774" lon="6.92629">
        <ele>2402.4</ele>
        <time>2022-08-16T11:30:40Z</time>
      </trkpt>
      <trkpt lat="44.42774" lon="6.92629">
        <ele>2402.4</ele>
        <time>2022-08-16T11:30:41Z</time>
      </trkpt>
      <trkpt lat="44.42773" lon="6.9263">
        <ele>2402.4</ele>
        <time>2022-08-16T11:30:42Z</time>
      </trkpt>
      <trkpt lat="44.42772" lon="6.9263">
        <ele>2402.6</ele>
        <time>2022-08-16T11:30:43Z</time>
      </trkpt>
      <trkpt lat="44.42772" lon="6.92631">
        <ele>2403</ele>
        <time>2022-08-16T11:30:44Z</time>
      </trkpt>
      <trkpt lat="44.42771" lon="6.92633">
        <ele>2403.6</ele>
        <time>2022-08-16T11:30:47Z</time>
      </trkpt>
      <trkpt lat="44.42771" lon="6.92634">
        <ele>2403.8</ele>
        <time>2022-08-16T11:30:48Z</time>
      </trkpt>
      <trkpt lat="44.4277" lon="6.92634">
        <ele>2404</ele>
        <time>2022-08-16T11:30:49Z</time>
      </trkpt>
      <trkpt lat="44.4277" lon="6.92634">
        <ele>2404</ele>
        <time>2022-08-16T11:30:50Z</time>
      </trkpt>
      <trkpt lat="44.42769" lon="6.92635">
        <ele>2404.2</ele>
        <time>2022-08-16T11:30:51Z</time>
      </trkpt>
      <trkpt lat="44.42769" lon="6.92635">
        <ele>2404.6</ele>
        <time>2022-08-16T11:30:52Z</time>
      </trkpt>
      <trkpt lat="44.42768" lon="6.92636">
        <ele>2405</ele>
        <time>2022-08-16T11:30:53Z</time>
      </trkpt>
      <trkpt lat="44.42768" lon="6.92636">
        <ele>2405</ele>
        <time>2022-08-16T11:30:54Z</time>
      </trkpt>
      <trkpt lat="44.42767" lon="6.92636">
        <ele>2405.2</ele>
        <time>2022-08-16T11:30:55Z</time>
      </trkpt>
      <trkpt lat="44.42767" lon="6.92637">
        <ele>2405.6</ele>
        <time>2022-08-16T11:30:57Z</time>
      </trkpt>
      <trkpt lat="44.42766" lon="6.92638">
        <ele>2406</ele>
        <time>2022-08-16T11:30:58Z</time>
      </trkpt>
      <trkpt lat="44.42766" lon="6.92638">
        <ele>2406.4</ele>
        <time>2022-08-16T11:30:59Z</time>
      </trkpt>
      <trkpt lat="44.42765" lon="6.92639">
        <ele>2406.4</ele>
        <time>2022-08-16T11:31:00Z</time>
      </trkpt>
      <trkpt lat="44.42765" lon="6.9264">
        <ele>2406.8</ele>
        <time>2022-08-16T11:31:01Z</time>
      </trkpt>
      <trkpt lat="44.42765" lon="6.9264">
        <ele>2407</ele>
        <time>2022-08-16T11:31:02Z</time>
      </trkpt>
      <trkpt lat="44.42764" lon="6.92641">
        <ele>2407.4</ele>
        <time>2022-08-16T11:31:03Z</time>
      </trkpt>
      <trkpt lat="44.42764" lon="6.92641">
        <ele>2407.4</ele>
        <time>2022-08-16T11:31:04Z</time>
      </trkpt>
      <trkpt lat="44.42763" lon="6.92643">
        <ele>2407.6</ele>
        <time>2022-08-16T11:31:05Z</time>
      </trkpt>
      <trkpt lat="44.42763" lon="6.92643">
        <ele>2407.6</ele>
        <time>2022-08-16T11:31:06Z</time>
      </trkpt>
      <trkpt lat="44.42762" lon="6.92644">
        <ele>2407.8</ele>
        <time>2022-08-16T11:31:07Z</time>
      </trkpt>
      <trkpt lat="44.42762" lon="6.92645">
        <ele>2408.2</ele>
        <time>2022-08-16T11:31:08Z</time>
      </trkpt>
      <trkpt lat="44.42761" lon="6.92646">
        <ele>2408.4</ele>
        <time>2022-08-16T11:31:09Z</time>
      </trkpt>
      <trkpt lat="44.42761" lon="6.92646">
        <ele>2408.4</ele>
        <time>2022-08-16T11:31:10Z</time>
      </trkpt>
      <trkpt lat="44.4276" lon="6.92647">
        <ele>2408.8</ele>
        <time>2022-08-16T11:31:11Z</time>
      </trkpt>
      <trkpt lat="44.4276" lon="6.92647">
        <ele>2409</ele>
        <time>2022-08-16T11:31:12Z</time>
      </trkpt>
      <trkpt lat="44.42759" lon="6.9265">
        <ele>2409</ele>
        <time>2022-08-16T11:31:13Z</time>
      </trkpt>
      <trkpt lat="44.42758" lon="6.92653">
        <ele>2409</ele>
        <time>2022-08-16T11:31:14Z</time>
      </trkpt>
      <trkpt lat="44.42758" lon="6.92653">
        <ele>2409.4</ele>
        <time>2022-08-16T11:31:15Z</time>
      </trkpt>
      <trkpt lat="44.42758" lon="6.92654">
        <ele>2409.8</ele>
        <time>2022-08-16T11:31:17Z</time>
      </trkpt>
      <trkpt lat="44.42757" lon="6.92655">
        <ele>2410.2</ele>
        <time>2022-08-16T11:31:19Z</time>
      </trkpt>
      <trkpt lat="44.42755" lon="6.92658">
        <ele>2411.2</ele>
        <time>2022-08-16T11:31:30Z</time>
      </trkpt>
      <trkpt lat="44.42755" lon="6.92659">
        <ele>2411.2</ele>
        <time>2022-08-16T11:31:31Z</time>
      </trkpt>
      <trkpt lat="44.42754" lon="6.9266">
        <ele>2411.2</ele>
        <time>2022-08-16T11:31:34Z</time>
      </trkpt>
      <trkpt lat="44.42754" lon="6.92662">
        <ele>2411.2</ele>
        <time>2022-08-16T11:31:35Z</time>
      </trkpt>
      <trkpt lat="44.42753" lon="6.92663">
        <ele>2411.4</ele>
        <time>2022-08-16T11:31:36Z</time>
      </trkpt>
      <trkpt lat="44.42753" lon="6.92663">
        <ele>2411.6</ele>
        <time>2022-08-16T11:31:37Z</time>
      </trkpt>
      <trkpt lat="44.42753" lon="6.92663">
        <ele>2411.8</ele>
        <time>2022-08-16T11:31:38Z</time>
      </trkpt>
      <trkpt lat="44.42752" lon="6.92663">
        <ele>2412</ele>
        <time>2022-08-16T11:31:39Z</time>
      </trkpt>
      <trkpt lat="44.42752" lon="6.92663">
        <ele>2412</ele>
        <time>2022-08-16T11:31:40Z</time>
      </trkpt>
      <trkpt lat="44.42752" lon="6.92664">
        <ele>2412</ele>
        <time>2022-08-16T11:31:41Z</time>
      </trkpt>
      <trkpt lat="44.42753" lon="6.92665">
        <ele>2412</ele>
        <time>2022-08-16T11:31:42Z</time>
      </trkpt>
      <trkpt lat="44.42753" lon="6.92666">
        <ele>2412.6</ele>
        <time>2022-08-16T11:31:43Z</time>
      </trkpt>
      <trkpt lat="44.42753" lon="6.92667">
        <ele>2413</ele>
        <time>2022-08-16T11:31:44Z</time>
      </trkpt>
      <trkpt lat="44.42753" lon="6.92668">
        <ele>2413</ele>
        <time>2022-08-16T11:31:45Z</time>
      </trkpt>
      <trkpt lat="44.42754" lon="6.92669">
        <ele>2413.4</ele>
        <time>2022-08-16T11:31:46Z</time>
      </trkpt>
      <trkpt lat="44.42754" lon="6.9267">
        <ele>2413.4</ele>
        <time>2022-08-16T11:31:47Z</time>
      </trkpt>
      <trkpt lat="44.42754" lon="6.92672">
        <ele>2413.6</ele>
        <time>2022-08-16T11:31:48Z</time>
      </trkpt>
      <trkpt lat="44.42754" lon="6.92672">
        <ele>2413.8</ele>
        <time>2022-08-16T11:31:49Z</time>
      </trkpt>
      <trkpt lat="44.42754" lon="6.92674">
        <ele>2413.8</ele>
        <time>2022-08-16T11:31:50Z</time>
      </trkpt>
      <trkpt lat="44.42754" lon="6.92674">
        <ele>2414</ele>
        <time>2022-08-16T11:31:51Z</time>
      </trkpt>
      <trkpt lat="44.42754" lon="6.92675">
        <ele>2414</ele>
        <time>2022-08-16T11:31:52Z</time>
      </trkpt>
      <trkpt lat="44.42754" lon="6.92676">
        <ele>2414.2</ele>
        <time>2022-08-16T11:31:53Z</time>
      </trkpt>
      <trkpt lat="44.42754" lon="6.92677">
        <ele>2414.2</ele>
        <time>2022-08-16T11:31:54Z</time>
      </trkpt>
      <trkpt lat="44.42754" lon="6.92678">
        <ele>2414.4</ele>
        <time>2022-08-16T11:31:55Z</time>
      </trkpt>
      <trkpt lat="44.42754" lon="6.9268">
        <ele>2414.2</ele>
        <time>2022-08-16T11:31:56Z</time>
      </trkpt>
      <trkpt lat="44.42754" lon="6.92682">
        <ele>2414.2</ele>
        <time>2022-08-16T11:31:57Z</time>
      </trkpt>
      <trkpt lat="44.42753" lon="6.92683">
        <ele>2414.4</ele>
        <time>2022-08-16T11:31:58Z</time>
      </trkpt>
      <trkpt lat="44.42753" lon="6.92684">
        <ele>2414.4</ele>
        <time>2022-08-16T11:31:59Z</time>
      </trkpt>
      <trkpt lat="44.42753" lon="6.92685">
        <ele>2414.4</ele>
        <time>2022-08-16T11:32:00Z</time>
      </trkpt>
      <trkpt lat="44.42752" lon="6.92687">
        <ele>2414.6</ele>
        <time>2022-08-16T11:32:01Z</time>
      </trkpt>
      <trkpt lat="44.42752" lon="6.92688">
        <ele>2414.8</ele>
        <time>2022-08-16T11:32:02Z</time>
      </trkpt>
      <trkpt lat="44.42751" lon="6.92689">
        <ele>2415.2</ele>
        <time>2022-08-16T11:32:03Z</time>
      </trkpt>
      <trkpt lat="44.42751" lon="6.9269">
        <ele>2415.2</ele>
        <time>2022-08-16T11:32:04Z</time>
      </trkpt>
      <trkpt lat="44.42751" lon="6.92691">
        <ele>2415.4</ele>
        <time>2022-08-16T11:32:05Z</time>
      </trkpt>
      <trkpt lat="44.4275" lon="6.92692">
        <ele>2415.4</ele>
        <time>2022-08-16T11:32:06Z</time>
      </trkpt>
      <trkpt lat="44.4275" lon="6.92694">
        <ele>2415.6</ele>
        <time>2022-08-16T11:32:07Z</time>
      </trkpt>
      <trkpt lat="44.4275" lon="6.92695">
        <ele>2415.6</ele>
        <time>2022-08-16T11:32:08Z</time>
      </trkpt>
      <trkpt lat="44.42749" lon="6.92696">
        <ele>2415.8</ele>
        <time>2022-08-16T11:32:09Z</time>
      </trkpt>
      <trkpt lat="44.42749" lon="6.92697">
        <ele>2416</ele>
        <time>2022-08-16T11:32:10Z</time>
      </trkpt>
      <trkpt lat="44.42749" lon="6.92698">
        <ele>2416</ele>
        <time>2022-08-16T11:32:11Z</time>
      </trkpt>
      <trkpt lat="44.42749" lon="6.92699">
        <ele>2416.2</ele>
        <time>2022-08-16T11:32:12Z</time>
      </trkpt>
      <trkpt lat="44.42749" lon="6.927">
        <ele>2416.4</ele>
        <time>2022-08-16T11:32:13Z</time>
      </trkpt>
      <trkpt lat="44.42748" lon="6.92701">
        <ele>2416.6</ele>
        <time>2022-08-16T11:32:14Z</time>
      </trkpt>
      <trkpt lat="44.42748" lon="6.92702">
        <ele>2416.6</ele>
        <time>2022-08-16T11:32:15Z</time>
      </trkpt>
      <trkpt lat="44.42748" lon="6.92703">
        <ele>2417</ele>
        <time>2022-08-16T11:32:16Z</time>
      </trkpt>
      <trkpt lat="44.42748" lon="6.92705">
        <ele>2417</ele>
        <time>2022-08-16T11:32:17Z</time>
      </trkpt>
      <trkpt lat="44.42749" lon="6.92707">
        <ele>2417.2</ele>
        <time>2022-08-16T11:32:18Z</time>
      </trkpt>
      <trkpt lat="44.42748" lon="6.92708">
        <ele>2417.2</ele>
        <time>2022-08-16T11:32:19Z</time>
      </trkpt>
      <trkpt lat="44.42748" lon="6.92711">
        <ele>2417.4</ele>
        <time>2022-08-16T11:32:20Z</time>
      </trkpt>
      <trkpt lat="44.42748" lon="6.92712">
        <ele>2417.6</ele>
        <time>2022-08-16T11:32:21Z</time>
      </trkpt>
      <trkpt lat="44.42748" lon="6.92713">
        <ele>2417.8</ele>
        <time>2022-08-16T11:32:22Z</time>
      </trkpt>
      <trkpt lat="44.42748" lon="6.92714">
        <ele>2418.2</ele>
        <time>2022-08-16T11:32:23Z</time>
      </trkpt>
      <trkpt lat="44.42748" lon="6.92715">
        <ele>2418</ele>
        <time>2022-08-16T11:32:24Z</time>
      </trkpt>
      <trkpt lat="44.42749" lon="6.92716">
        <ele>2418.2</ele>
        <time>2022-08-16T11:32:25Z</time>
      </trkpt>
      <trkpt lat="44.42749" lon="6.92717">
        <ele>2418.4</ele>
        <time>2022-08-16T11:32:26Z</time>
      </trkpt>
      <trkpt lat="44.42749" lon="6.92718">
        <ele>2418.2</ele>
        <time>2022-08-16T11:32:27Z</time>
      </trkpt>
      <trkpt lat="44.42749" lon="6.92719">
        <ele>2418.6</ele>
        <time>2022-08-16T11:32:28Z</time>
      </trkpt>
      <trkpt lat="44.42749" lon="6.9272">
        <ele>2418.6</ele>
        <time>2022-08-16T11:32:29Z</time>
      </trkpt>
      <trkpt lat="44.42748" lon="6.9272">
        <ele>2418.8</ele>
        <time>2022-08-16T11:32:30Z</time>
      </trkpt>
      <trkpt lat="44.42748" lon="6.92721">
        <ele>2418.8</ele>
        <time>2022-08-16T11:32:31Z</time>
      </trkpt>
      <trkpt lat="44.42748" lon="6.92722">
        <ele>2419</ele>
        <time>2022-08-16T11:32:32Z</time>
      </trkpt>
      <trkpt lat="44.42748" lon="6.92723">
        <ele>2419.2</ele>
        <time>2022-08-16T11:32:33Z</time>
      </trkpt>
      <trkpt lat="44.42748" lon="6.92723">
        <ele>2419.4</ele>
        <time>2022-08-16T11:32:34Z</time>
      </trkpt>
      <trkpt lat="44.42748" lon="6.92724">
        <ele>2419.4</ele>
        <time>2022-08-16T11:32:35Z</time>
      </trkpt>
      <trkpt lat="44.42748" lon="6.92725">
        <ele>2419.6</ele>
        <time>2022-08-16T11:32:36Z</time>
      </trkpt>
      <trkpt lat="44.42748" lon="6.92725">
        <ele>2420</ele>
        <time>2022-08-16T11:32:37Z</time>
      </trkpt>
      <trkpt lat="44.42748" lon="6.92727">
        <ele>2420.2</ele>
        <time>2022-08-16T11:32:38Z</time>
      </trkpt>
      <trkpt lat="44.42748" lon="6.92728">
        <ele>2420.6</ele>
        <time>2022-08-16T11:32:39Z</time>
      </trkpt>
      <trkpt lat="44.42749" lon="6.9273">
        <ele>2420.8</ele>
        <time>2022-08-16T11:32:40Z</time>
      </trkpt>
      <trkpt lat="44.42748" lon="6.92732">
        <ele>2420.8</ele>
        <time>2022-08-16T11:32:41Z</time>
      </trkpt>
      <trkpt lat="44.42748" lon="6.92732">
        <ele>2421</ele>
        <time>2022-08-16T11:32:42Z</time>
      </trkpt>
      <trkpt lat="44.42749" lon="6.92734">
        <ele>2421</ele>
        <time>2022-08-16T11:32:43Z</time>
      </trkpt>
      <trkpt lat="44.42749" lon="6.92736">
        <ele>2421.2</ele>
        <time>2022-08-16T11:32:44Z</time>
      </trkpt>
      <trkpt lat="44.42749" lon="6.92736">
        <ele>2422.6</ele>
        <time>2022-08-16T11:32:53Z</time>
      </trkpt>
      <trkpt lat="44.4275" lon="6.92736">
        <ele>2422.6</ele>
        <time>2022-08-16T11:33:02Z</time>
      </trkpt>
      <trkpt lat="44.4275" lon="6.92737">
        <ele>2422.6</ele>
        <time>2022-08-16T11:33:03Z</time>
      </trkpt>
      <trkpt lat="44.42752" lon="6.92738">
        <ele>2422.6</ele>
        <time>2022-08-16T11:33:07Z</time>
      </trkpt>
      <trkpt lat="44.42752" lon="6.92738">
        <ele>2422.8</ele>
        <time>2022-08-16T11:33:08Z</time>
      </trkpt>
      <trkpt lat="44.42753" lon="6.9274">
        <ele>2422.6</ele>
        <time>2022-08-16T11:33:10Z</time>
      </trkpt>
      <trkpt lat="44.42753" lon="6.92741">
        <ele>2422.8</ele>
        <time>2022-08-16T11:33:12Z</time>
      </trkpt>
      <trkpt lat="44.42753" lon="6.92743">
        <ele>2422.6</ele>
        <time>2022-08-16T11:33:14Z</time>
      </trkpt>
      <trkpt lat="44.42752" lon="6.92743">
        <ele>2422.8</ele>
        <time>2022-08-16T11:33:15Z</time>
      </trkpt>
      <trkpt lat="44.42753" lon="6.92744">
        <ele>2423.2</ele>
        <time>2022-08-16T11:33:16Z</time>
      </trkpt>
      <trkpt lat="44.42753" lon="6.92745">
        <ele>2423.4</ele>
        <time>2022-08-16T11:33:17Z</time>
      </trkpt>
      <trkpt lat="44.42754" lon="6.92745">
        <ele>2424.4</ele>
        <time>2022-08-16T11:33:23Z</time>
      </trkpt>
      <trkpt lat="44.42755" lon="6.92744">
        <ele>2424.8</ele>
        <time>2022-08-16T11:33:30Z</time>
      </trkpt>
      <trkpt lat="44.42754" lon="6.92742">
        <ele>2424.8</ele>
        <time>2022-08-16T11:33:35Z</time>
      </trkpt>
      <trkpt lat="44.42755" lon="6.92741">
        <ele>2424.8</ele>
        <time>2022-08-16T11:33:38Z</time>
      </trkpt>
      <trkpt lat="44.42755" lon="6.92741">
        <ele>2424.8</ele>
        <time>2022-08-16T11:33:41Z</time>
      </trkpt>
      <trkpt lat="44.42755" lon="6.92741">
        <ele>2424.8</ele>
        <time>2022-08-16T11:33:42Z</time>
      </trkpt>
      <trkpt lat="44.42755" lon="6.92741">
        <ele>2424.6</ele>
        <time>2022-08-16T11:33:44Z</time>
      </trkpt>
      <trkpt lat="44.42755" lon="6.92741">
        <ele>2424.8</ele>
        <time>2022-08-16T11:33:45Z</time>
      </trkpt>
      <trkpt lat="44.42755" lon="6.92741">
        <ele>2424.8</ele>
        <time>2022-08-16T11:33:46Z</time>
      </trkpt>
      <trkpt lat="44.42755" lon="6.92741">
        <ele>2424.8</ele>
        <time>2022-08-16T11:33:47Z</time>
      </trkpt>
      <trkpt lat="44.42757" lon="6.92742">
        <ele>2425.2</ele>
        <time>2022-08-16T11:33:54Z</time>
      </trkpt>
      <trkpt lat="44.42757" lon="6.92743">
        <ele>2425.2</ele>
        <time>2022-08-16T11:33:55Z</time>
      </trkpt>
      <trkpt lat="44.42757" lon="6.92743">
        <ele>2425.2</ele>
        <time>2022-08-16T11:33:56Z</time>
      </trkpt>
      <trkpt lat="44.42757" lon="6.92744">
        <ele>2425.4</ele>
        <time>2022-08-16T11:33:59Z</time>
      </trkpt>
      <trkpt lat="44.42757" lon="6.92744">
        <ele>2425.4</ele>
        <time>2022-08-16T11:34:00Z</time>
      </trkpt>
      <trkpt lat="44.42756" lon="6.92744">
        <ele>2425.4</ele>
        <time>2022-08-16T11:34:01Z</time>
      </trkpt>
      <trkpt lat="44.42757" lon="6.92746">
        <ele>2425.6</ele>
        <time>2022-08-16T11:34:03Z</time>
      </trkpt>
      <trkpt lat="44.42757" lon="6.92747">
        <ele>2425.4</ele>
        <time>2022-08-16T11:34:04Z</time>
      </trkpt>
      <trkpt lat="44.42758" lon="6.92751">
        <ele>2426.2</ele>
        <time>2022-08-16T11:34:06Z</time>
      </trkpt>
      <trkpt lat="44.42759" lon="6.92753">
        <ele>2426.4</ele>
        <time>2022-08-16T11:34:07Z</time>
      </trkpt>
      <trkpt lat="44.4276" lon="6.92757">
        <ele>2426.4</ele>
        <time>2022-08-16T11:34:09Z</time>
      </trkpt>
      <trkpt lat="44.42762" lon="6.92773">
        <ele>2426.6</ele>
        <time>2022-08-16T11:34:16Z</time>
      </trkpt>
      <trkpt lat="44.42762" lon="6.92776">
        <ele>2426.8</ele>
        <time>2022-08-16T11:34:17Z</time>
      </trkpt>
      <trkpt lat="44.42762" lon="6.92778">
        <ele>2427</ele>
        <time>2022-08-16T11:34:18Z</time>
      </trkpt>
      <trkpt lat="44.42763" lon="6.92784">
        <ele>2427</ele>
        <time>2022-08-16T11:34:21Z</time>
      </trkpt>
      <trkpt lat="44.42763" lon="6.92786">
        <ele>2427.2</ele>
        <time>2022-08-16T11:34:22Z</time>
      </trkpt>
      <trkpt lat="44.42763" lon="6.92788">
        <ele>2427</ele>
        <time>2022-08-16T11:34:23Z</time>
      </trkpt>
      <trkpt lat="44.42763" lon="6.92792">
        <ele>2427.2</ele>
        <time>2022-08-16T11:34:25Z</time>
      </trkpt>
      <trkpt lat="44.42763" lon="6.92793">
        <ele>2427.4</ele>
        <time>2022-08-16T11:34:26Z</time>
      </trkpt>
      <trkpt lat="44.42763" lon="6.92795">
        <ele>2427.4</ele>
        <time>2022-08-16T11:34:27Z</time>
      </trkpt>
      <trkpt lat="44.42763" lon="6.92797">
        <ele>2427.6</ele>
        <time>2022-08-16T11:34:28Z</time>
      </trkpt>
      <trkpt lat="44.42762" lon="6.92798">
        <ele>2427.8</ele>
        <time>2022-08-16T11:34:29Z</time>
      </trkpt>
      <trkpt lat="44.42762" lon="6.928">
        <ele>2427.8</ele>
        <time>2022-08-16T11:34:30Z</time>
      </trkpt>
      <trkpt lat="44.42761" lon="6.92801">
        <ele>2428</ele>
        <time>2022-08-16T11:34:31Z</time>
      </trkpt>
      <trkpt lat="44.4276" lon="6.92803">
        <ele>2428.2</ele>
        <time>2022-08-16T11:34:32Z</time>
      </trkpt>
      <trkpt lat="44.4276" lon="6.92805">
        <ele>2428.2</ele>
        <time>2022-08-16T11:34:33Z</time>
      </trkpt>
      <trkpt lat="44.42759" lon="6.92807">
        <ele>2428.4</ele>
        <time>2022-08-16T11:34:34Z</time>
      </trkpt>
      <trkpt lat="44.42759" lon="6.92809">
        <ele>2428.6</ele>
        <time>2022-08-16T11:34:35Z</time>
      </trkpt>
      <trkpt lat="44.42758" lon="6.92811">
        <ele>2428.8</ele>
        <time>2022-08-16T11:34:36Z</time>
      </trkpt>
      <trkpt lat="44.42757" lon="6.92813">
        <ele>2429.2</ele>
        <time>2022-08-16T11:34:37Z</time>
      </trkpt>
      <trkpt lat="44.42756" lon="6.92815">
        <ele>2429.2</ele>
        <time>2022-08-16T11:34:38Z</time>
      </trkpt>
      <trkpt lat="44.42755" lon="6.92817">
        <ele>2429.4</ele>
        <time>2022-08-16T11:34:39Z</time>
      </trkpt>
      <trkpt lat="44.42754" lon="6.92819">
        <ele>2429.2</ele>
        <time>2022-08-16T11:34:40Z</time>
      </trkpt>
      <trkpt lat="44.42754" lon="6.92821">
        <ele>2429.4</ele>
        <time>2022-08-16T11:34:41Z</time>
      </trkpt>
      <trkpt lat="44.42753" lon="6.92823">
        <ele>2429.6</ele>
        <time>2022-08-16T11:34:42Z</time>
      </trkpt>
      <trkpt lat="44.42752" lon="6.92825">
        <ele>2429.6</ele>
        <time>2022-08-16T11:34:43Z</time>
      </trkpt>
      <trkpt lat="44.4275" lon="6.92827">
        <ele>2429.4</ele>
        <time>2022-08-16T11:34:44Z</time>
      </trkpt>
      <trkpt lat="44.42748" lon="6.92832">
        <ele>2429.6</ele>
        <time>2022-08-16T11:34:46Z</time>
      </trkpt>
      <trkpt lat="44.42747" lon="6.92834">
        <ele>2429.8</ele>
        <time>2022-08-16T11:34:47Z</time>
      </trkpt>
      <trkpt lat="44.42746" lon="6.92836">
        <ele>2429.8</ele>
        <time>2022-08-16T11:34:48Z</time>
      </trkpt>
      <trkpt lat="44.42745" lon="6.92839">
        <ele>2429.8</ele>
        <time>2022-08-16T11:34:49Z</time>
      </trkpt>
      <trkpt lat="44.42745" lon="6.92841">
        <ele>2430</ele>
        <time>2022-08-16T11:34:50Z</time>
      </trkpt>
      <trkpt lat="44.42744" lon="6.92843">
        <ele>2430.4</ele>
        <time>2022-08-16T11:34:51Z</time>
      </trkpt>
      <trkpt lat="44.42743" lon="6.92845">
        <ele>2430.4</ele>
        <time>2022-08-16T11:34:52Z</time>
      </trkpt>
      <trkpt lat="44.42742" lon="6.92847">
        <ele>2430.6</ele>
        <time>2022-08-16T11:34:53Z</time>
      </trkpt>
      <trkpt lat="44.42741" lon="6.92849">
        <ele>2430.6</ele>
        <time>2022-08-16T11:34:54Z</time>
      </trkpt>
      <trkpt lat="44.4274" lon="6.92851">
        <ele>2430.6</ele>
        <time>2022-08-16T11:34:55Z</time>
      </trkpt>
      <trkpt lat="44.42739" lon="6.92853">
        <ele>2430.6</ele>
        <time>2022-08-16T11:34:56Z</time>
      </trkpt>
      <trkpt lat="44.42738" lon="6.92855">
        <ele>2431</ele>
        <time>2022-08-16T11:34:57Z</time>
      </trkpt>
      <trkpt lat="44.42738" lon="6.92857">
        <ele>2431.2</ele>
        <time>2022-08-16T11:34:58Z</time>
      </trkpt>
      <trkpt lat="44.42737" lon="6.92859">
        <ele>2431.2</ele>
        <time>2022-08-16T11:34:59Z</time>
      </trkpt>
      <trkpt lat="44.42736" lon="6.92861">
        <ele>2431.4</ele>
        <time>2022-08-16T11:35:00Z</time>
      </trkpt>
      <trkpt lat="44.42735" lon="6.92863">
        <ele>2431.4</ele>
        <time>2022-08-16T11:35:01Z</time>
      </trkpt>
      <trkpt lat="44.42734" lon="6.92866">
        <ele>2431.6</ele>
        <time>2022-08-16T11:35:02Z</time>
      </trkpt>
      <trkpt lat="44.42734" lon="6.92868">
        <ele>2431.6</ele>
        <time>2022-08-16T11:35:03Z</time>
      </trkpt>
      <trkpt lat="44.42733" lon="6.9287">
        <ele>2431.8</ele>
        <time>2022-08-16T11:35:04Z</time>
      </trkpt>
      <trkpt lat="44.42732" lon="6.92872">
        <ele>2431.8</ele>
        <time>2022-08-16T11:35:05Z</time>
      </trkpt>
      <trkpt lat="44.4273" lon="6.92876">
        <ele>2432</ele>
        <time>2022-08-16T11:35:07Z</time>
      </trkpt>
      <trkpt lat="44.42729" lon="6.92878">
        <ele>2432</ele>
        <time>2022-08-16T11:35:08Z</time>
      </trkpt>
      <trkpt lat="44.42727" lon="6.92883">
        <ele>2432</ele>
        <time>2022-08-16T11:35:10Z</time>
      </trkpt>
      <trkpt lat="44.42724" lon="6.92891">
        <ele>2432.2</ele>
        <time>2022-08-16T11:35:14Z</time>
      </trkpt>
      <trkpt lat="44.42723" lon="6.92893">
        <ele>2432.4</ele>
        <time>2022-08-16T11:35:15Z</time>
      </trkpt>
      <trkpt lat="44.42719" lon="6.92905">
        <ele>2433</ele>
        <time>2022-08-16T11:35:20Z</time>
      </trkpt>
      <trkpt lat="44.42718" lon="6.92907">
        <ele>2433</ele>
        <time>2022-08-16T11:35:21Z</time>
      </trkpt>
      <trkpt lat="44.42718" lon="6.92909">
        <ele>2433</ele>
        <time>2022-08-16T11:35:22Z</time>
      </trkpt>
      <trkpt lat="44.42717" lon="6.92914">
        <ele>2433.2</ele>
        <time>2022-08-16T11:35:24Z</time>
      </trkpt>
      <trkpt lat="44.42716" lon="6.92916">
        <ele>2433.2</ele>
        <time>2022-08-16T11:35:25Z</time>
      </trkpt>
      <trkpt lat="44.4271" lon="6.92935">
        <ele>2434.2</ele>
        <time>2022-08-16T11:35:33Z</time>
      </trkpt>
      <trkpt lat="44.42709" lon="6.92938">
        <ele>2434.2</ele>
        <time>2022-08-16T11:35:34Z</time>
      </trkpt>
      <trkpt lat="44.42708" lon="6.9294">
        <ele>2434.2</ele>
        <time>2022-08-16T11:35:35Z</time>
      </trkpt>
      <trkpt lat="44.42707" lon="6.92942">
        <ele>2434.2</ele>
        <time>2022-08-16T11:35:36Z</time>
      </trkpt>
      <trkpt lat="44.42704" lon="6.92949">
        <ele>2434.8</ele>
        <time>2022-08-16T11:35:39Z</time>
      </trkpt>
      <trkpt lat="44.42703" lon="6.92951">
        <ele>2434.8</ele>
        <time>2022-08-16T11:35:40Z</time>
      </trkpt>
      <trkpt lat="44.42702" lon="6.92952">
        <ele>2434.8</ele>
        <time>2022-08-16T11:35:41Z</time>
      </trkpt>
      <trkpt lat="44.42701" lon="6.92954">
        <ele>2434.8</ele>
        <time>2022-08-16T11:35:42Z</time>
      </trkpt>
      <trkpt lat="44.427" lon="6.92956">
        <ele>2435</ele>
        <time>2022-08-16T11:35:43Z</time>
      </trkpt>
      <trkpt lat="44.42698" lon="6.92958">
        <ele>2435.2</ele>
        <time>2022-08-16T11:35:44Z</time>
      </trkpt>
      <trkpt lat="44.42698" lon="6.9296">
        <ele>2435.2</ele>
        <time>2022-08-16T11:35:45Z</time>
      </trkpt>
      <trkpt lat="44.42697" lon="6.92963">
        <ele>2435.2</ele>
        <time>2022-08-16T11:35:46Z</time>
      </trkpt>
      <trkpt lat="44.42696" lon="6.92965">
        <ele>2435.2</ele>
        <time>2022-08-16T11:35:47Z</time>
      </trkpt>
      <trkpt lat="44.42695" lon="6.92967">
        <ele>2435.2</ele>
        <time>2022-08-16T11:35:48Z</time>
      </trkpt>
      <trkpt lat="44.42694" lon="6.9297">
        <ele>2435.6</ele>
        <time>2022-08-16T11:35:49Z</time>
      </trkpt>
      <trkpt lat="44.42693" lon="6.92972">
        <ele>2435.6</ele>
        <time>2022-08-16T11:35:50Z</time>
      </trkpt>
      <trkpt lat="44.42692" lon="6.92973">
        <ele>2435.8</ele>
        <time>2022-08-16T11:35:51Z</time>
      </trkpt>
      <trkpt lat="44.42692" lon="6.92976">
        <ele>2436</ele>
        <time>2022-08-16T11:35:52Z</time>
      </trkpt>
      <trkpt lat="44.42691" lon="6.92978">
        <ele>2436.2</ele>
        <time>2022-08-16T11:35:53Z</time>
      </trkpt>
      <trkpt lat="44.4269" lon="6.9298">
        <ele>2436.4</ele>
        <time>2022-08-16T11:35:54Z</time>
      </trkpt>
      <trkpt lat="44.42689" lon="6.92981">
        <ele>2436.4</ele>
        <time>2022-08-16T11:35:55Z</time>
      </trkpt>
      <trkpt lat="44.42688" lon="6.92983">
        <ele>2436.8</ele>
        <time>2022-08-16T11:35:56Z</time>
      </trkpt>
      <trkpt lat="44.42687" lon="6.92985">
        <ele>2436.8</ele>
        <time>2022-08-16T11:35:57Z</time>
      </trkpt>
      <trkpt lat="44.42686" lon="6.92987">
        <ele>2436.8</ele>
        <time>2022-08-16T11:35:58Z</time>
      </trkpt>
      <trkpt lat="44.42686" lon="6.92988">
        <ele>2437</ele>
        <time>2022-08-16T11:35:59Z</time>
      </trkpt>
      <trkpt lat="44.42685" lon="6.9299">
        <ele>2437.2</ele>
        <time>2022-08-16T11:36:00Z</time>
      </trkpt>
      <trkpt lat="44.42684" lon="6.92992">
        <ele>2437.4</ele>
        <time>2022-08-16T11:36:01Z</time>
      </trkpt>
      <trkpt lat="44.42683" lon="6.92994">
        <ele>2437.4</ele>
        <time>2022-08-16T11:36:02Z</time>
      </trkpt>
      <trkpt lat="44.42683" lon="6.92995">
        <ele>2437.4</ele>
        <time>2022-08-16T11:36:03Z</time>
      </trkpt>
      <trkpt lat="44.42682" lon="6.92997">
        <ele>2437.4</ele>
        <time>2022-08-16T11:36:04Z</time>
      </trkpt>
      <trkpt lat="44.42681" lon="6.92999">
        <ele>2437.8</ele>
        <time>2022-08-16T11:36:05Z</time>
      </trkpt>
      <trkpt lat="44.4268" lon="6.93001">
        <ele>2438</ele>
        <time>2022-08-16T11:36:06Z</time>
      </trkpt>
      <trkpt lat="44.4268" lon="6.93003">
        <ele>2438.2</ele>
        <time>2022-08-16T11:36:07Z</time>
      </trkpt>
      <trkpt lat="44.42679" lon="6.93004">
        <ele>2438.4</ele>
        <time>2022-08-16T11:36:08Z</time>
      </trkpt>
      <trkpt lat="44.42678" lon="6.93006">
        <ele>2438.6</ele>
        <time>2022-08-16T11:36:09Z</time>
      </trkpt>
      <trkpt lat="44.42677" lon="6.93008">
        <ele>2438.6</ele>
        <time>2022-08-16T11:36:10Z</time>
      </trkpt>
      <trkpt lat="44.42677" lon="6.93009">
        <ele>2438.8</ele>
        <time>2022-08-16T11:36:11Z</time>
      </trkpt>
      <trkpt lat="44.42676" lon="6.93011">
        <ele>2439</ele>
        <time>2022-08-16T11:36:12Z</time>
      </trkpt>
      <trkpt lat="44.42675" lon="6.93013">
        <ele>2439</ele>
        <time>2022-08-16T11:36:13Z</time>
      </trkpt>
      <trkpt lat="44.42675" lon="6.93015">
        <ele>2439.2</ele>
        <time>2022-08-16T11:36:14Z</time>
      </trkpt>
      <trkpt lat="44.42674" lon="6.93016">
        <ele>2439.2</ele>
        <time>2022-08-16T11:36:15Z</time>
      </trkpt>
      <trkpt lat="44.42673" lon="6.93018">
        <ele>2439</ele>
        <time>2022-08-16T11:36:16Z</time>
      </trkpt>
      <trkpt lat="44.42673" lon="6.9302">
        <ele>2439.4</ele>
        <time>2022-08-16T11:36:17Z</time>
      </trkpt>
      <trkpt lat="44.42672" lon="6.93021">
        <ele>2439.2</ele>
        <time>2022-08-16T11:36:18Z</time>
      </trkpt>
      <trkpt lat="44.42671" lon="6.93023">
        <ele>2439.4</ele>
        <time>2022-08-16T11:36:19Z</time>
      </trkpt>
      <trkpt lat="44.42671" lon="6.93025">
        <ele>2439.6</ele>
        <time>2022-08-16T11:36:20Z</time>
      </trkpt>
      <trkpt lat="44.4267" lon="6.93026">
        <ele>2439.8</ele>
        <time>2022-08-16T11:36:21Z</time>
      </trkpt>
      <trkpt lat="44.42669" lon="6.93028">
        <ele>2439.8</ele>
        <time>2022-08-16T11:36:22Z</time>
      </trkpt>
      <trkpt lat="44.42668" lon="6.9303">
        <ele>2440.2</ele>
        <time>2022-08-16T11:36:23Z</time>
      </trkpt>
      <trkpt lat="44.42668" lon="6.93031">
        <ele>2440.2</ele>
        <time>2022-08-16T11:36:24Z</time>
      </trkpt>
      <trkpt lat="44.42667" lon="6.93033">
        <ele>2440.2</ele>
        <time>2022-08-16T11:36:25Z</time>
      </trkpt>
      <trkpt lat="44.42666" lon="6.93035">
        <ele>2440.4</ele>
        <time>2022-08-16T11:36:26Z</time>
      </trkpt>
      <trkpt lat="44.42665" lon="6.93036">
        <ele>2440.6</ele>
        <time>2022-08-16T11:36:27Z</time>
      </trkpt>
      <trkpt lat="44.42664" lon="6.93038">
        <ele>2440.6</ele>
        <time>2022-08-16T11:36:28Z</time>
      </trkpt>
      <trkpt lat="44.42664" lon="6.93039">
        <ele>2440.8</ele>
        <time>2022-08-16T11:36:29Z</time>
      </trkpt>
      <trkpt lat="44.42663" lon="6.93041">
        <ele>2441</ele>
        <time>2022-08-16T11:36:30Z</time>
      </trkpt>
      <trkpt lat="44.42662" lon="6.93042">
        <ele>2441.2</ele>
        <time>2022-08-16T11:36:31Z</time>
      </trkpt>
      <trkpt lat="44.42661" lon="6.93044">
        <ele>2441.4</ele>
        <time>2022-08-16T11:36:32Z</time>
      </trkpt>
      <trkpt lat="44.42661" lon="6.93045">
        <ele>2441.4</ele>
        <time>2022-08-16T11:36:33Z</time>
      </trkpt>
      <trkpt lat="44.4266" lon="6.93046">
        <ele>2441.8</ele>
        <time>2022-08-16T11:36:34Z</time>
      </trkpt>
      <trkpt lat="44.42659" lon="6.93048">
        <ele>2442</ele>
        <time>2022-08-16T11:36:35Z</time>
      </trkpt>
      <trkpt lat="44.42659" lon="6.9305">
        <ele>2442.2</ele>
        <time>2022-08-16T11:36:36Z</time>
      </trkpt>
      <trkpt lat="44.42658" lon="6.93051">
        <ele>2442.2</ele>
        <time>2022-08-16T11:36:37Z</time>
      </trkpt>
      <trkpt lat="44.42657" lon="6.93053">
        <ele>2442.4</ele>
        <time>2022-08-16T11:36:38Z</time>
      </trkpt>
      <trkpt lat="44.42656" lon="6.93054">
        <ele>2442.6</ele>
        <time>2022-08-16T11:36:39Z</time>
      </trkpt>
      <trkpt lat="44.42655" lon="6.93056">
        <ele>2443</ele>
        <time>2022-08-16T11:36:40Z</time>
      </trkpt>
      <trkpt lat="44.42655" lon="6.93057">
        <ele>2443.2</ele>
        <time>2022-08-16T11:36:41Z</time>
      </trkpt>
      <trkpt lat="44.42654" lon="6.93059">
        <ele>2443.4</ele>
        <time>2022-08-16T11:36:42Z</time>
      </trkpt>
      <trkpt lat="44.42654" lon="6.9306">
        <ele>2443.6</ele>
        <time>2022-08-16T11:36:43Z</time>
      </trkpt>
      <trkpt lat="44.42653" lon="6.93062">
        <ele>2443.6</ele>
        <time>2022-08-16T11:36:44Z</time>
      </trkpt>
      <trkpt lat="44.42653" lon="6.93064">
        <ele>2443.6</ele>
        <time>2022-08-16T11:36:45Z</time>
      </trkpt>
      <trkpt lat="44.42652" lon="6.93065">
        <ele>2443.8</ele>
        <time>2022-08-16T11:36:46Z</time>
      </trkpt>
      <trkpt lat="44.42651" lon="6.93067">
        <ele>2443.8</ele>
        <time>2022-08-16T11:36:47Z</time>
      </trkpt>
      <trkpt lat="44.42651" lon="6.93069">
        <ele>2444</ele>
        <time>2022-08-16T11:36:48Z</time>
      </trkpt>
      <trkpt lat="44.4265" lon="6.9307">
        <ele>2444.2</ele>
        <time>2022-08-16T11:36:49Z</time>
      </trkpt>
      <trkpt lat="44.42649" lon="6.93072">
        <ele>2444.4</ele>
        <time>2022-08-16T11:36:50Z</time>
      </trkpt>
      <trkpt lat="44.42648" lon="6.93073">
        <ele>2444.4</ele>
        <time>2022-08-16T11:36:51Z</time>
      </trkpt>
      <trkpt lat="44.42648" lon="6.93075">
        <ele>2444.6</ele>
        <time>2022-08-16T11:36:52Z</time>
      </trkpt>
      <trkpt lat="44.42647" lon="6.93076">
        <ele>2444.8</ele>
        <time>2022-08-16T11:36:53Z</time>
      </trkpt>
      <trkpt lat="44.42646" lon="6.93078">
        <ele>2445</ele>
        <time>2022-08-16T11:36:54Z</time>
      </trkpt>
      <trkpt lat="44.42645" lon="6.93079">
        <ele>2445.2</ele>
        <time>2022-08-16T11:36:55Z</time>
      </trkpt>
      <trkpt lat="44.42645" lon="6.9308">
        <ele>2445.4</ele>
        <time>2022-08-16T11:36:56Z</time>
      </trkpt>
      <trkpt lat="44.42644" lon="6.93082">
        <ele>2445.6</ele>
        <time>2022-08-16T11:36:57Z</time>
      </trkpt>
      <trkpt lat="44.42643" lon="6.93083">
        <ele>2446</ele>
        <time>2022-08-16T11:36:58Z</time>
      </trkpt>
      <trkpt lat="44.42642" lon="6.93085">
        <ele>2446.2</ele>
        <time>2022-08-16T11:36:59Z</time>
      </trkpt>
      <trkpt lat="44.42641" lon="6.93086">
        <ele>2446.6</ele>
        <time>2022-08-16T11:37:00Z</time>
      </trkpt>
      <trkpt lat="44.4264" lon="6.93087">
        <ele>2446.6</ele>
        <time>2022-08-16T11:37:01Z</time>
      </trkpt>
      <trkpt lat="44.42639" lon="6.93089">
        <ele>2446.6</ele>
        <time>2022-08-16T11:37:02Z</time>
      </trkpt>
      <trkpt lat="44.42638" lon="6.9309">
        <ele>2446.8</ele>
        <time>2022-08-16T11:37:03Z</time>
      </trkpt>
      <trkpt lat="44.42637" lon="6.93092">
        <ele>2447</ele>
        <time>2022-08-16T11:37:04Z</time>
      </trkpt>
      <trkpt lat="44.42636" lon="6.93093">
        <ele>2447.2</ele>
        <time>2022-08-16T11:37:05Z</time>
      </trkpt>
      <trkpt lat="44.42636" lon="6.93094">
        <ele>2447.4</ele>
        <time>2022-08-16T11:37:06Z</time>
      </trkpt>
      <trkpt lat="44.42635" lon="6.93096">
        <ele>2447.4</ele>
        <time>2022-08-16T11:37:07Z</time>
      </trkpt>
      <trkpt lat="44.42634" lon="6.93097">
        <ele>2447.6</ele>
        <time>2022-08-16T11:37:08Z</time>
      </trkpt>
      <trkpt lat="44.42633" lon="6.93099">
        <ele>2447.8</ele>
        <time>2022-08-16T11:37:09Z</time>
      </trkpt>
      <trkpt lat="44.42632" lon="6.93101">
        <ele>2448.2</ele>
        <time>2022-08-16T11:37:10Z</time>
      </trkpt>
      <trkpt lat="44.42631" lon="6.93102">
        <ele>2448.2</ele>
        <time>2022-08-16T11:37:11Z</time>
      </trkpt>
      <trkpt lat="44.42631" lon="6.93104">
        <ele>2448.2</ele>
        <time>2022-08-16T11:37:12Z</time>
      </trkpt>
      <trkpt lat="44.4263" lon="6.93106">
        <ele>2448.4</ele>
        <time>2022-08-16T11:37:13Z</time>
      </trkpt>
      <trkpt lat="44.42629" lon="6.93107">
        <ele>2448.6</ele>
        <time>2022-08-16T11:37:14Z</time>
      </trkpt>
      <trkpt lat="44.42628" lon="6.93109">
        <ele>2448.8</ele>
        <time>2022-08-16T11:37:15Z</time>
      </trkpt>
      <trkpt lat="44.42628" lon="6.93111">
        <ele>2448.8</ele>
        <time>2022-08-16T11:37:16Z</time>
      </trkpt>
      <trkpt lat="44.42627" lon="6.93113">
        <ele>2449</ele>
        <time>2022-08-16T11:37:17Z</time>
      </trkpt>
      <trkpt lat="44.42626" lon="6.93115">
        <ele>2449</ele>
        <time>2022-08-16T11:37:18Z</time>
      </trkpt>
      <trkpt lat="44.42625" lon="6.93116">
        <ele>2449</ele>
        <time>2022-08-16T11:37:19Z</time>
      </trkpt>
      <trkpt lat="44.42625" lon="6.93118">
        <ele>2449.2</ele>
        <time>2022-08-16T11:37:20Z</time>
      </trkpt>
      <trkpt lat="44.42624" lon="6.9312">
        <ele>2449.4</ele>
        <time>2022-08-16T11:37:21Z</time>
      </trkpt>
      <trkpt lat="44.42623" lon="6.93121">
        <ele>2449.6</ele>
        <time>2022-08-16T11:37:22Z</time>
      </trkpt>
      <trkpt lat="44.42622" lon="6.93123">
        <ele>2449.6</ele>
        <time>2022-08-16T11:37:23Z</time>
      </trkpt>
      <trkpt lat="44.42621" lon="6.93125">
        <ele>2449.6</ele>
        <time>2022-08-16T11:37:24Z</time>
      </trkpt>
      <trkpt lat="44.4262" lon="6.93127">
        <ele>2450</ele>
        <time>2022-08-16T11:37:25Z</time>
      </trkpt>
      <trkpt lat="44.4262" lon="6.93129">
        <ele>2450.2</ele>
        <time>2022-08-16T11:37:26Z</time>
      </trkpt>
      <trkpt lat="44.42619" lon="6.93131">
        <ele>2450.2</ele>
        <time>2022-08-16T11:37:27Z</time>
      </trkpt>
      <trkpt lat="44.42619" lon="6.93133">
        <ele>2450.4</ele>
        <time>2022-08-16T11:37:28Z</time>
      </trkpt>
      <trkpt lat="44.42619" lon="6.93136">
        <ele>2450.6</ele>
        <time>2022-08-16T11:37:29Z</time>
      </trkpt>
      <trkpt lat="44.42619" lon="6.93139">
        <ele>2450.6</ele>
        <time>2022-08-16T11:37:30Z</time>
      </trkpt>
      <trkpt lat="44.42619" lon="6.93141">
        <ele>2450.8</ele>
        <time>2022-08-16T11:37:31Z</time>
      </trkpt>
      <trkpt lat="44.42619" lon="6.93144">
        <ele>2451</ele>
        <time>2022-08-16T11:37:32Z</time>
      </trkpt>
      <trkpt lat="44.42618" lon="6.93146">
        <ele>2451.2</ele>
        <time>2022-08-16T11:37:33Z</time>
      </trkpt>
      <trkpt lat="44.42618" lon="6.93149">
        <ele>2451.2</ele>
        <time>2022-08-16T11:37:34Z</time>
      </trkpt>
      <trkpt lat="44.42618" lon="6.93151">
        <ele>2451.2</ele>
        <time>2022-08-16T11:37:35Z</time>
      </trkpt>
      <trkpt lat="44.42618" lon="6.93153">
        <ele>2451.2</ele>
        <time>2022-08-16T11:37:36Z</time>
      </trkpt>
      <trkpt lat="44.42618" lon="6.93156">
        <ele>2451.4</ele>
        <time>2022-08-16T11:37:37Z</time>
      </trkpt>
      <trkpt lat="44.42618" lon="6.93158">
        <ele>2451.4</ele>
        <time>2022-08-16T11:37:38Z</time>
      </trkpt>
      <trkpt lat="44.42618" lon="6.93161">
        <ele>2451.4</ele>
        <time>2022-08-16T11:37:39Z</time>
      </trkpt>
      <trkpt lat="44.42617" lon="6.93163">
        <ele>2451.6</ele>
        <time>2022-08-16T11:37:40Z</time>
      </trkpt>
      <trkpt lat="44.42617" lon="6.93165">
        <ele>2451.8</ele>
        <time>2022-08-16T11:37:41Z</time>
      </trkpt>
      <trkpt lat="44.42617" lon="6.93168">
        <ele>2451.6</ele>
        <time>2022-08-16T11:37:42Z</time>
      </trkpt>
      <trkpt lat="44.42617" lon="6.9317">
        <ele>2451.8</ele>
        <time>2022-08-16T11:37:43Z</time>
      </trkpt>
      <trkpt lat="44.42616" lon="6.93173">
        <ele>2451.8</ele>
        <time>2022-08-16T11:37:44Z</time>
      </trkpt>
      <trkpt lat="44.42616" lon="6.93175">
        <ele>2451.8</ele>
        <time>2022-08-16T11:37:45Z</time>
      </trkpt>
      <trkpt lat="44.42615" lon="6.93177">
        <ele>2452</ele>
        <time>2022-08-16T11:37:46Z</time>
      </trkpt>
      <trkpt lat="44.42615" lon="6.9318">
        <ele>2452</ele>
        <time>2022-08-16T11:37:47Z</time>
      </trkpt>
      <trkpt lat="44.42614" lon="6.93182">
        <ele>2452.2</ele>
        <time>2022-08-16T11:37:48Z</time>
      </trkpt>
      <trkpt lat="44.42614" lon="6.93185">
        <ele>2452.4</ele>
        <time>2022-08-16T11:37:49Z</time>
      </trkpt>
      <trkpt lat="44.42613" lon="6.93187">
        <ele>2452.6</ele>
        <time>2022-08-16T11:37:50Z</time>
      </trkpt>
      <trkpt lat="44.42613" lon="6.9319">
        <ele>2452.8</ele>
        <time>2022-08-16T11:37:51Z</time>
      </trkpt>
      <trkpt lat="44.42612" lon="6.93192">
        <ele>2452.8</ele>
        <time>2022-08-16T11:37:52Z</time>
      </trkpt>
      <trkpt lat="44.42611" lon="6.93195">
        <ele>2453.2</ele>
        <time>2022-08-16T11:37:53Z</time>
      </trkpt>
      <trkpt lat="44.42611" lon="6.93198">
        <ele>2453.2</ele>
        <time>2022-08-16T11:37:54Z</time>
      </trkpt>
      <trkpt lat="44.4261" lon="6.932">
        <ele>2453.2</ele>
        <time>2022-08-16T11:37:55Z</time>
      </trkpt>
      <trkpt lat="44.42609" lon="6.93203">
        <ele>2453.2</ele>
        <time>2022-08-16T11:37:56Z</time>
      </trkpt>
      <trkpt lat="44.42609" lon="6.93205">
        <ele>2453.4</ele>
        <time>2022-08-16T11:37:57Z</time>
      </trkpt>
      <trkpt lat="44.42608" lon="6.93207">
        <ele>2453.2</ele>
        <time>2022-08-16T11:37:58Z</time>
      </trkpt>
      <trkpt lat="44.42606" lon="6.93215">
        <ele>2453.4</ele>
        <time>2022-08-16T11:38:01Z</time>
      </trkpt>
      <trkpt lat="44.42606" lon="6.93218">
        <ele>2453.6</ele>
        <time>2022-08-16T11:38:02Z</time>
      </trkpt>
      <trkpt lat="44.42605" lon="6.93224">
        <ele>2453.6</ele>
        <time>2022-08-16T11:38:04Z</time>
      </trkpt>
      <trkpt lat="44.42605" lon="6.93237">
        <ele>2454</ele>
        <time>2022-08-16T11:38:08Z</time>
      </trkpt>
      <trkpt lat="44.42606" lon="6.93239">
        <ele>2454</ele>
        <time>2022-08-16T11:38:09Z</time>
      </trkpt>
      <trkpt lat="44.42606" lon="6.93242">
        <ele>2454.2</ele>
        <time>2022-08-16T11:38:10Z</time>
      </trkpt>
      <trkpt lat="44.42607" lon="6.93245">
        <ele>2454.4</ele>
        <time>2022-08-16T11:38:11Z</time>
      </trkpt>
      <trkpt lat="44.42607" lon="6.93248">
        <ele>2454.4</ele>
        <time>2022-08-16T11:38:12Z</time>
      </trkpt>
      <trkpt lat="44.42607" lon="6.9325">
        <ele>2454.6</ele>
        <time>2022-08-16T11:38:13Z</time>
      </trkpt>
      <trkpt lat="44.4261" lon="6.93261">
        <ele>2454.6</ele>
        <time>2022-08-16T11:38:17Z</time>
      </trkpt>
      <trkpt lat="44.4261" lon="6.93264">
        <ele>2454.6</ele>
        <time>2022-08-16T11:38:18Z</time>
      </trkpt>
      <trkpt lat="44.42611" lon="6.93266">
        <ele>2454.8</ele>
        <time>2022-08-16T11:38:19Z</time>
      </trkpt>
      <trkpt lat="44.42612" lon="6.93269">
        <ele>2455</ele>
        <time>2022-08-16T11:38:20Z</time>
      </trkpt>
      <trkpt lat="44.42613" lon="6.93272">
        <ele>2455</ele>
        <time>2022-08-16T11:38:21Z</time>
      </trkpt>
      <trkpt lat="44.42613" lon="6.93274">
        <ele>2455.4</ele>
        <time>2022-08-16T11:38:22Z</time>
      </trkpt>
      <trkpt lat="44.42614" lon="6.93277">
        <ele>2455.6</ele>
        <time>2022-08-16T11:38:23Z</time>
      </trkpt>
      <trkpt lat="44.42615" lon="6.9328">
        <ele>2456</ele>
        <time>2022-08-16T11:38:24Z</time>
      </trkpt>
      <trkpt lat="44.42616" lon="6.93283">
        <ele>2456</ele>
        <time>2022-08-16T11:38:25Z</time>
      </trkpt>
      <trkpt lat="44.42617" lon="6.93285">
        <ele>2456.2</ele>
        <time>2022-08-16T11:38:26Z</time>
      </trkpt>
      <trkpt lat="44.42618" lon="6.93288">
        <ele>2456.4</ele>
        <time>2022-08-16T11:38:27Z</time>
      </trkpt>
      <trkpt lat="44.42618" lon="6.9329">
        <ele>2456.6</ele>
        <time>2022-08-16T11:38:28Z</time>
      </trkpt>
      <trkpt lat="44.42619" lon="6.93293">
        <ele>2456.8</ele>
        <time>2022-08-16T11:38:29Z</time>
      </trkpt>
      <trkpt lat="44.42619" lon="6.93296">
        <ele>2457</ele>
        <time>2022-08-16T11:38:30Z</time>
      </trkpt>
      <trkpt lat="44.4262" lon="6.93298">
        <ele>2457.2</ele>
        <time>2022-08-16T11:38:31Z</time>
      </trkpt>
      <trkpt lat="44.42621" lon="6.933">
        <ele>2457</ele>
        <time>2022-08-16T11:38:32Z</time>
      </trkpt>
      <trkpt lat="44.42623" lon="6.93302">
        <ele>2457.2</ele>
        <time>2022-08-16T11:38:33Z</time>
      </trkpt>
      <trkpt lat="44.42624" lon="6.93305">
        <ele>2457.4</ele>
        <time>2022-08-16T11:38:34Z</time>
      </trkpt>
      <trkpt lat="44.42626" lon="6.93307">
        <ele>2457.6</ele>
        <time>2022-08-16T11:38:35Z</time>
      </trkpt>
      <trkpt lat="44.42628" lon="6.93309">
        <ele>2457.8</ele>
        <time>2022-08-16T11:38:36Z</time>
      </trkpt>
      <trkpt lat="44.42629" lon="6.93312">
        <ele>2457.8</ele>
        <time>2022-08-16T11:38:37Z</time>
      </trkpt>
      <trkpt lat="44.42631" lon="6.93315">
        <ele>2457.8</ele>
        <time>2022-08-16T11:38:38Z</time>
      </trkpt>
      <trkpt lat="44.42632" lon="6.93318">
        <ele>2457.8</ele>
        <time>2022-08-16T11:38:39Z</time>
      </trkpt>
      <trkpt lat="44.42633" lon="6.93321">
        <ele>2458</ele>
        <time>2022-08-16T11:38:40Z</time>
      </trkpt>
      <trkpt lat="44.42634" lon="6.93324">
        <ele>2458</ele>
        <time>2022-08-16T11:38:41Z</time>
      </trkpt>
      <trkpt lat="44.42634" lon="6.93327">
        <ele>2458.2</ele>
        <time>2022-08-16T11:38:42Z</time>
      </trkpt>
      <trkpt lat="44.42635" lon="6.9333">
        <ele>2458.4</ele>
        <time>2022-08-16T11:38:43Z</time>
      </trkpt>
      <trkpt lat="44.42635" lon="6.93333">
        <ele>2458.4</ele>
        <time>2022-08-16T11:38:44Z</time>
      </trkpt>
      <trkpt lat="44.42638" lon="6.93344">
        <ele>2458.6</ele>
        <time>2022-08-16T11:38:48Z</time>
      </trkpt>
      <trkpt lat="44.42638" lon="6.93346">
        <ele>2458.6</ele>
        <time>2022-08-16T11:38:49Z</time>
      </trkpt>
      <trkpt lat="44.42639" lon="6.93348">
        <ele>2458.6</ele>
        <time>2022-08-16T11:38:50Z</time>
      </trkpt>
      <trkpt lat="44.42639" lon="6.9335">
        <ele>2458.8</ele>
        <time>2022-08-16T11:38:51Z</time>
      </trkpt>
      <trkpt lat="44.42639" lon="6.93352">
        <ele>2459</ele>
        <time>2022-08-16T11:38:52Z</time>
      </trkpt>
      <trkpt lat="44.4264" lon="6.93354">
        <ele>2459</ele>
        <time>2022-08-16T11:38:53Z</time>
      </trkpt>
      <trkpt lat="44.42641" lon="6.93355">
        <ele>2459</ele>
        <time>2022-08-16T11:38:54Z</time>
      </trkpt>
      <trkpt lat="44.42642" lon="6.93357">
        <ele>2459</ele>
        <time>2022-08-16T11:38:55Z</time>
      </trkpt>
      <trkpt lat="44.42643" lon="6.93359">
        <ele>2459.2</ele>
        <time>2022-08-16T11:38:56Z</time>
      </trkpt>
      <trkpt lat="44.42643" lon="6.9336">
        <ele>2459.4</ele>
        <time>2022-08-16T11:38:57Z</time>
      </trkpt>
      <trkpt lat="44.42644" lon="6.93361">
        <ele>2460</ele>
        <time>2022-08-16T11:38:58Z</time>
      </trkpt>
      <trkpt lat="44.42644" lon="6.93363">
        <ele>2460</ele>
        <time>2022-08-16T11:38:59Z</time>
      </trkpt>
      <trkpt lat="44.42644" lon="6.93365">
        <ele>2460.4</ele>
        <time>2022-08-16T11:39:00Z</time>
      </trkpt>
      <trkpt lat="44.42645" lon="6.93368">
        <ele>2460.8</ele>
        <time>2022-08-16T11:39:01Z</time>
      </trkpt>
      <trkpt lat="44.42645" lon="6.9337">
        <ele>2461</ele>
        <time>2022-08-16T11:39:02Z</time>
      </trkpt>
      <trkpt lat="44.42645" lon="6.93373">
        <ele>2461.4</ele>
        <time>2022-08-16T11:39:03Z</time>
      </trkpt>
      <trkpt lat="44.42645" lon="6.93375">
        <ele>2461.4</ele>
        <time>2022-08-16T11:39:04Z</time>
      </trkpt>
      <trkpt lat="44.42645" lon="6.93378">
        <ele>2461.4</ele>
        <time>2022-08-16T11:39:05Z</time>
      </trkpt>
      <trkpt lat="44.42644" lon="6.9338">
        <ele>2461.6</ele>
        <time>2022-08-16T11:39:06Z</time>
      </trkpt>
      <trkpt lat="44.42644" lon="6.93382">
        <ele>2461.6</ele>
        <time>2022-08-16T11:39:07Z</time>
      </trkpt>
      <trkpt lat="44.42643" lon="6.93383">
        <ele>2461.6</ele>
        <time>2022-08-16T11:39:08Z</time>
      </trkpt>
      <trkpt lat="44.42643" lon="6.93383">
        <ele>2461.8</ele>
        <time>2022-08-16T11:39:15Z</time>
      </trkpt>
      <trkpt lat="44.42643" lon="6.93383">
        <ele>2461.2</ele>
        <time>2022-08-16T11:39:32Z</time>
      </trkpt>
      <trkpt lat="44.42643" lon="6.93383">
        <ele>2461.2</ele>
        <time>2022-08-16T11:39:35Z</time>
      </trkpt>
      <trkpt lat="44.42642" lon="6.93383">
        <ele>2461.2</ele>
        <time>2022-08-16T11:39:36Z</time>
      </trkpt>
      <trkpt lat="44.42641" lon="6.93383">
        <ele>2461.2</ele>
        <time>2022-08-16T11:39:37Z</time>
      </trkpt>
      <trkpt lat="44.4264" lon="6.93386">
        <ele>2461</ele>
        <time>2022-08-16T11:39:38Z</time>
      </trkpt>
      <trkpt lat="44.42638" lon="6.9339">
        <ele>2461</ele>
        <time>2022-08-16T11:39:39Z</time>
      </trkpt>
      <trkpt lat="44.42635" lon="6.93398">
        <ele>2460.8</ele>
        <time>2022-08-16T11:39:41Z</time>
      </trkpt>
      <trkpt lat="44.42634" lon="6.93401">
        <ele>2460.8</ele>
        <time>2022-08-16T11:39:42Z</time>
      </trkpt>
      <trkpt lat="44.42633" lon="6.93404">
        <ele>2460.8</ele>
        <time>2022-08-16T11:39:43Z</time>
      </trkpt>
      <trkpt lat="44.42632" lon="6.93407">
        <ele>2460.8</ele>
        <time>2022-08-16T11:39:44Z</time>
      </trkpt>
      <trkpt lat="44.42627" lon="6.93421">
        <ele>2458.4</ele>
        <time>2022-08-16T11:39:48Z</time>
      </trkpt>
      <trkpt lat="44.42625" lon="6.9343">
        <ele>2457.8</ele>
        <time>2022-08-16T11:39:50Z</time>
      </trkpt>
      <trkpt lat="44.4262" lon="6.93446">
        <ele>2457</ele>
        <time>2022-08-16T11:39:53Z</time>
      </trkpt>
      <trkpt lat="44.42617" lon="6.93457">
        <ele>2456.8</ele>
        <time>2022-08-16T11:39:55Z</time>
      </trkpt>
      <trkpt lat="44.42615" lon="6.93463">
        <ele>2456.8</ele>
        <time>2022-08-16T11:39:56Z</time>
      </trkpt>
      <trkpt lat="44.42614" lon="6.9347">
        <ele>2456.4</ele>
        <time>2022-08-16T11:39:57Z</time>
      </trkpt>
      <trkpt lat="44.42612" lon="6.93483">
        <ele>2455.4</ele>
        <time>2022-08-16T11:39:59Z</time>
      </trkpt>
      <trkpt lat="44.4261" lon="6.93489">
        <ele>2455.4</ele>
        <time>2022-08-16T11:40:00Z</time>
      </trkpt>
      <trkpt lat="44.42609" lon="6.93494">
        <ele>2455.2</ele>
        <time>2022-08-16T11:40:01Z</time>
      </trkpt>
      <trkpt lat="44.42608" lon="6.93498">
        <ele>2454.6</ele>
        <time>2022-08-16T11:40:02Z</time>
      </trkpt>
      <trkpt lat="44.42606" lon="6.93501">
        <ele>2454.4</ele>
        <time>2022-08-16T11:40:03Z</time>
      </trkpt>
      <trkpt lat="44.42604" lon="6.93503">
        <ele>2454.2</ele>
        <time>2022-08-16T11:40:04Z</time>
      </trkpt>
      <trkpt lat="44.42603" lon="6.93504">
        <ele>2453.2</ele>
        <time>2022-08-16T11:40:05Z</time>
      </trkpt>
      <trkpt lat="44.42602" lon="6.93505">
        <ele>2453.2</ele>
        <time>2022-08-16T11:40:06Z</time>
      </trkpt>
      <trkpt lat="44.42601" lon="6.93506">
        <ele>2452.6</ele>
        <time>2022-08-16T11:40:07Z</time>
      </trkpt>
      <trkpt lat="44.42598" lon="6.9351">
        <ele>2452</ele>
        <time>2022-08-16T11:40:09Z</time>
      </trkpt>
      <trkpt lat="44.42592" lon="6.93517">
        <ele>2451.4</ele>
        <time>2022-08-16T11:40:12Z</time>
      </trkpt>
      <trkpt lat="44.42587" lon="6.9352">
        <ele>2451.2</ele>
        <time>2022-08-16T11:40:14Z</time>
      </trkpt>
      <trkpt lat="44.42585" lon="6.93522">
        <ele>2451.2</ele>
        <time>2022-08-16T11:40:15Z</time>
      </trkpt>
      <trkpt lat="44.42584" lon="6.93523">
        <ele>2451</ele>
        <time>2022-08-16T11:40:16Z</time>
      </trkpt>
      <trkpt lat="44.42583" lon="6.93525">
        <ele>2450.8</ele>
        <time>2022-08-16T11:40:17Z</time>
      </trkpt>
      <trkpt lat="44.42582" lon="6.93527">
        <ele>2450.8</ele>
        <time>2022-08-16T11:40:18Z</time>
      </trkpt>
      <trkpt lat="44.42581" lon="6.93529">
        <ele>2450.4</ele>
        <time>2022-08-16T11:40:19Z</time>
      </trkpt>
      <trkpt lat="44.4258" lon="6.9353">
        <ele>2450.2</ele>
        <time>2022-08-16T11:40:20Z</time>
      </trkpt>
      <trkpt lat="44.4258" lon="6.93531">
        <ele>2449.8</ele>
        <time>2022-08-16T11:40:23Z</time>
      </trkpt>
      <trkpt lat="44.42579" lon="6.93531">
        <ele>2449</ele>
        <time>2022-08-16T11:40:28Z</time>
      </trkpt>
      <trkpt lat="44.42576" lon="6.93531">
        <ele>2448.6</ele>
        <time>2022-08-16T11:40:30Z</time>
      </trkpt>
      <trkpt lat="44.42573" lon="6.93531">
        <ele>2448.4</ele>
        <time>2022-08-16T11:40:32Z</time>
      </trkpt>
      <trkpt lat="44.42571" lon="6.93531">
        <ele>2448.2</ele>
        <time>2022-08-16T11:40:33Z</time>
      </trkpt>
      <trkpt lat="44.4257" lon="6.93532">
        <ele>2448.4</ele>
        <time>2022-08-16T11:40:34Z</time>
      </trkpt>
      <trkpt lat="44.42569" lon="6.93533">
        <ele>2448.4</ele>
        <time>2022-08-16T11:40:35Z</time>
      </trkpt>
      <trkpt lat="44.42568" lon="6.93534">
        <ele>2448.4</ele>
        <time>2022-08-16T11:40:36Z</time>
      </trkpt>
      <trkpt lat="44.42565" lon="6.93536">
        <ele>2448.2</ele>
        <time>2022-08-16T11:40:38Z</time>
      </trkpt>
      <trkpt lat="44.42559" lon="6.93538">
        <ele>2447.6</ele>
        <time>2022-08-16T11:40:41Z</time>
      </trkpt>
      <trkpt lat="44.42555" lon="6.93538">
        <ele>2447.2</ele>
        <time>2022-08-16T11:40:43Z</time>
      </trkpt>
      <trkpt lat="44.42553" lon="6.93539">
        <ele>2447</ele>
        <time>2022-08-16T11:40:44Z</time>
      </trkpt>
      <trkpt lat="44.42551" lon="6.93539">
        <ele>2446.8</ele>
        <time>2022-08-16T11:40:45Z</time>
      </trkpt>
      <trkpt lat="44.42549" lon="6.9354">
        <ele>2446.6</ele>
        <time>2022-08-16T11:40:46Z</time>
      </trkpt>
      <trkpt lat="44.42542" lon="6.93542">
        <ele>2445.4</ele>
        <time>2022-08-16T11:40:49Z</time>
      </trkpt>
      <trkpt lat="44.42538" lon="6.93544">
        <ele>2445.4</ele>
        <time>2022-08-16T11:40:51Z</time>
      </trkpt>
      <trkpt lat="44.42536" lon="6.93545">
        <ele>2445.4</ele>
        <time>2022-08-16T11:40:52Z</time>
      </trkpt>
      <trkpt lat="44.42535" lon="6.93545">
        <ele>2445.4</ele>
        <time>2022-08-16T11:40:53Z</time>
      </trkpt>
      <trkpt lat="44.42533" lon="6.93546">
        <ele>2445.4</ele>
        <time>2022-08-16T11:40:54Z</time>
      </trkpt>
      <trkpt lat="44.42524" lon="6.93547">
        <ele>2445</ele>
        <time>2022-08-16T11:40:58Z</time>
      </trkpt>
      <trkpt lat="44.42519" lon="6.93548">
        <ele>2445</ele>
        <time>2022-08-16T11:41:00Z</time>
      </trkpt>
      <trkpt lat="44.42513" lon="6.93548">
        <ele>2445.2</ele>
        <time>2022-08-16T11:41:02Z</time>
      </trkpt>
      <trkpt lat="44.4251" lon="6.93548">
        <ele>2445</ele>
        <time>2022-08-16T11:41:03Z</time>
      </trkpt>
      <trkpt lat="44.42508" lon="6.93548">
        <ele>2445</ele>
        <time>2022-08-16T11:41:04Z</time>
      </trkpt>
      <trkpt lat="44.42507" lon="6.93548">
        <ele>2445</ele>
        <time>2022-08-16T11:41:05Z</time>
      </trkpt>
      <trkpt lat="44.42505" lon="6.93548">
        <ele>2445.2</ele>
        <time>2022-08-16T11:41:06Z</time>
      </trkpt>
      <trkpt lat="44.42503" lon="6.93548">
        <ele>2444.8</ele>
        <time>2022-08-16T11:41:07Z</time>
      </trkpt>
      <trkpt lat="44.42502" lon="6.93548">
        <ele>2444.8</ele>
        <time>2022-08-16T11:41:08Z</time>
      </trkpt>
      <trkpt lat="44.42501" lon="6.93549">
        <ele>2444.8</ele>
        <time>2022-08-16T11:41:09Z</time>
      </trkpt>
      <trkpt lat="44.425" lon="6.93549">
        <ele>2444.8</ele>
        <time>2022-08-16T11:41:10Z</time>
      </trkpt>
      <trkpt lat="44.42499" lon="6.9355">
        <ele>2444.8</ele>
        <time>2022-08-16T11:41:11Z</time>
      </trkpt>
      <trkpt lat="44.42499" lon="6.9355">
        <ele>2444.6</ele>
        <time>2022-08-16T11:41:12Z</time>
      </trkpt>
      <trkpt lat="44.42499" lon="6.9355">
        <ele>2444</ele>
        <time>2022-08-16T11:41:18Z</time>
      </trkpt>
      <trkpt lat="44.42499" lon="6.9355">
        <ele>2443.4</ele>
        <time>2022-08-16T11:41:20Z</time>
      </trkpt>
      <trkpt lat="44.42499" lon="6.9355">
        <ele>2443</ele>
        <time>2022-08-16T11:41:35Z</time>
      </trkpt>
      <trkpt lat="44.42499" lon="6.9355">
        <ele>2443</ele>
        <time>2022-08-16T11:41:47Z</time>
      </trkpt>
      <trkpt lat="44.42499" lon="6.9355">
        <ele>2443</ele>
        <time>2022-08-16T11:41:57Z</time>
      </trkpt>
      <trkpt lat="44.42499" lon="6.9355">
        <ele>2443.2</ele>
        <time>2022-08-16T11:42:23Z</time>
      </trkpt>
      <trkpt lat="44.42499" lon="6.9355">
        <ele>2442.6</ele>
        <time>2022-08-16T11:42:57Z</time>
      </trkpt>
      <trkpt lat="44.42499" lon="6.9355">
        <ele>2443</ele>
        <time>2022-08-16T11:43:43Z</time>
      </trkpt>
      <trkpt lat="44.42499" lon="6.9355">
        <ele>2442.8</ele>
        <time>2022-08-16T11:43:50Z</time>
      </trkpt>
      <trkpt lat="44.42498" lon="6.93552">
        <ele>2443</ele>
        <time>2022-08-16T11:44:01Z</time>
      </trkpt>
      <trkpt lat="44.42497" lon="6.93553">
        <ele>2442.8</ele>
        <time>2022-08-16T11:44:02Z</time>
      </trkpt>
      <trkpt lat="44.42493" lon="6.93558">
        <ele>2442.6</ele>
        <time>2022-08-16T11:44:05Z</time>
      </trkpt>
      <trkpt lat="44.4249" lon="6.93563">
        <ele>2442.6</ele>
        <time>2022-08-16T11:44:07Z</time>
      </trkpt>
      <trkpt lat="44.42488" lon="6.93565">
        <ele>2442.4</ele>
        <time>2022-08-16T11:44:08Z</time>
      </trkpt>
      <trkpt lat="44.42481" lon="6.93573">
        <ele>2441.6</ele>
        <time>2022-08-16T11:44:11Z</time>
      </trkpt>
      <trkpt lat="44.42479" lon="6.93575">
        <ele>2441</ele>
        <time>2022-08-16T11:44:12Z</time>
      </trkpt>
      <trkpt lat="44.42478" lon="6.93577">
        <ele>2440.8</ele>
        <time>2022-08-16T11:44:13Z</time>
      </trkpt>
      <trkpt lat="44.42476" lon="6.93579">
        <ele>2440.8</ele>
        <time>2022-08-16T11:44:14Z</time>
      </trkpt>
      <trkpt lat="44.42469" lon="6.93586">
        <ele>2439.2</ele>
        <time>2022-08-16T11:44:17Z</time>
      </trkpt>
      <trkpt lat="44.42467" lon="6.93588">
        <ele>2438</ele>
        <time>2022-08-16T11:44:18Z</time>
      </trkpt>
      <trkpt lat="44.42465" lon="6.9359">
        <ele>2437.4</ele>
        <time>2022-08-16T11:44:19Z</time>
      </trkpt>
      <trkpt lat="44.42463" lon="6.93592">
        <ele>2436.8</ele>
        <time>2022-08-16T11:44:20Z</time>
      </trkpt>
      <trkpt lat="44.42462" lon="6.93593">
        <ele>2436</ele>
        <time>2022-08-16T11:44:21Z</time>
      </trkpt>
      <trkpt lat="44.42461" lon="6.93594">
        <ele>2435.4</ele>
        <time>2022-08-16T11:44:22Z</time>
      </trkpt>
      <trkpt lat="44.42461" lon="6.93596">
        <ele>2434.8</ele>
        <time>2022-08-16T11:44:23Z</time>
      </trkpt>
      <trkpt lat="44.42459" lon="6.93598">
        <ele>2434.4</ele>
        <time>2022-08-16T11:44:24Z</time>
      </trkpt>
      <trkpt lat="44.42458" lon="6.93599">
        <ele>2433.8</ele>
        <time>2022-08-16T11:44:25Z</time>
      </trkpt>
      <trkpt lat="44.42457" lon="6.936">
        <ele>2433.2</ele>
        <time>2022-08-16T11:44:26Z</time>
      </trkpt>
      <trkpt lat="44.42456" lon="6.93601">
        <ele>2432.6</ele>
        <time>2022-08-16T11:44:27Z</time>
      </trkpt>
      <trkpt lat="44.42454" lon="6.93602">
        <ele>2432</ele>
        <time>2022-08-16T11:44:28Z</time>
      </trkpt>
      <trkpt lat="44.42453" lon="6.93603">
        <ele>2431.6</ele>
        <time>2022-08-16T11:44:29Z</time>
      </trkpt>
      <trkpt lat="44.42452" lon="6.93604">
        <ele>2431</ele>
        <time>2022-08-16T11:44:30Z</time>
      </trkpt>
      <trkpt lat="44.42451" lon="6.93604">
        <ele>2430.8</ele>
        <time>2022-08-16T11:44:31Z</time>
      </trkpt>
      <trkpt lat="44.4245" lon="6.93605">
        <ele>2430</ele>
        <time>2022-08-16T11:44:32Z</time>
      </trkpt>
      <trkpt lat="44.42449" lon="6.93605">
        <ele>2429.6</ele>
        <time>2022-08-16T11:44:33Z</time>
      </trkpt>
      <trkpt lat="44.42448" lon="6.93605">
        <ele>2429.2</ele>
        <time>2022-08-16T11:44:34Z</time>
      </trkpt>
      <trkpt lat="44.42448" lon="6.93605">
        <ele>2428.6</ele>
        <time>2022-08-16T11:44:35Z</time>
      </trkpt>
      <trkpt lat="44.42447" lon="6.93603">
        <ele>2426.6</ele>
        <time>2022-08-16T11:44:43Z</time>
      </trkpt>
      <trkpt lat="44.42447" lon="6.93603">
        <ele>2426.4</ele>
        <time>2022-08-16T11:44:44Z</time>
      </trkpt>
      <trkpt lat="44.42447" lon="6.93605">
        <ele>2426.4</ele>
        <time>2022-08-16T11:44:46Z</time>
      </trkpt>
      <trkpt lat="44.42448" lon="6.93607">
        <ele>2426.2</ele>
        <time>2022-08-16T11:44:48Z</time>
      </trkpt>
      <trkpt lat="44.42447" lon="6.93609">
        <ele>2426.4</ele>
        <time>2022-08-16T11:44:49Z</time>
      </trkpt>
      <trkpt lat="44.42447" lon="6.93609">
        <ele>2426.2</ele>
        <time>2022-08-16T11:44:50Z</time>
      </trkpt>
      <trkpt lat="44.42447" lon="6.9361">
        <ele>2426.2</ele>
        <time>2022-08-16T11:44:51Z</time>
      </trkpt>
      <trkpt lat="44.42447" lon="6.93611">
        <ele>2426.2</ele>
        <time>2022-08-16T11:44:52Z</time>
      </trkpt>
      <trkpt lat="44.42446" lon="6.93613">
        <ele>2426.2</ele>
        <time>2022-08-16T11:44:55Z</time>
      </trkpt>
      <trkpt lat="44.42445" lon="6.93614">
        <ele>2426.2</ele>
        <time>2022-08-16T11:44:56Z</time>
      </trkpt>
      <trkpt lat="44.42444" lon="6.93615">
        <ele>2426</ele>
        <time>2022-08-16T11:44:58Z</time>
      </trkpt>
      <trkpt lat="44.42444" lon="6.93616">
        <ele>2425.6</ele>
        <time>2022-08-16T11:45:00Z</time>
      </trkpt>
      <trkpt lat="44.42443" lon="6.93617">
        <ele>2425</ele>
        <time>2022-08-16T11:45:02Z</time>
      </trkpt>
      <trkpt lat="44.42441" lon="6.93618">
        <ele>2424.4</ele>
        <time>2022-08-16T11:45:04Z</time>
      </trkpt>
      <trkpt lat="44.42441" lon="6.93618">
        <ele>2424.2</ele>
        <time>2022-08-16T11:45:05Z</time>
      </trkpt>
      <trkpt lat="44.42441" lon="6.93618">
        <ele>2423</ele>
        <time>2022-08-16T11:45:10Z</time>
      </trkpt>
      <trkpt lat="44.42441" lon="6.93618">
        <ele>2421</ele>
        <time>2022-08-16T11:45:21Z</time>
      </trkpt>
      <trkpt lat="44.42441" lon="6.93617">
        <ele>2421</ele>
        <time>2022-08-16T11:45:33Z</time>
      </trkpt>
      <trkpt lat="44.42441" lon="6.93617">
        <ele>2421</ele>
        <time>2022-08-16T11:45:38Z</time>
      </trkpt>
      <trkpt lat="44.42441" lon="6.93617">
        <ele>2421.2</ele>
        <time>2022-08-16T11:45:59Z</time>
      </trkpt>
      <trkpt lat="44.42438" lon="6.93617">
        <ele>2421.2</ele>
        <time>2022-08-16T11:46:05Z</time>
      </trkpt>
      <trkpt lat="44.42436" lon="6.93617">
        <ele>2421.2</ele>
        <time>2022-08-16T11:46:07Z</time>
      </trkpt>
      <trkpt lat="44.42435" lon="6.93618">
        <ele>2421.4</ele>
        <time>2022-08-16T11:46:08Z</time>
      </trkpt>
      <trkpt lat="44.42434" lon="6.93619">
        <ele>2421.4</ele>
        <time>2022-08-16T11:46:09Z</time>
      </trkpt>
      <trkpt lat="44.42432" lon="6.9362">
        <ele>2421.2</ele>
        <time>2022-08-16T11:46:10Z</time>
      </trkpt>
      <trkpt lat="44.4243" lon="6.9362">
        <ele>2421.4</ele>
        <time>2022-08-16T11:46:11Z</time>
      </trkpt>
      <trkpt lat="44.42428" lon="6.93621">
        <ele>2421.2</ele>
        <time>2022-08-16T11:46:12Z</time>
      </trkpt>
      <trkpt lat="44.42427" lon="6.93623">
        <ele>2421.2</ele>
        <time>2022-08-16T11:46:13Z</time>
      </trkpt>
      <trkpt lat="44.42426" lon="6.93625">
        <ele>2420.8</ele>
        <time>2022-08-16T11:46:14Z</time>
      </trkpt>
      <trkpt lat="44.42424" lon="6.93628">
        <ele>2420.8</ele>
        <time>2022-08-16T11:46:15Z</time>
      </trkpt>
      <trkpt lat="44.42423" lon="6.9363">
        <ele>2420.6</ele>
        <time>2022-08-16T11:46:16Z</time>
      </trkpt>
      <trkpt lat="44.42422" lon="6.9363">
        <ele>2419.4</ele>
        <time>2022-08-16T11:46:17Z</time>
      </trkpt>
      <trkpt lat="44.4242" lon="6.93631">
        <ele>2418.8</ele>
        <time>2022-08-16T11:46:18Z</time>
      </trkpt>
      <trkpt lat="44.42418" lon="6.93631">
        <ele>2418</ele>
        <time>2022-08-16T11:46:19Z</time>
      </trkpt>
      <trkpt lat="44.42417" lon="6.93633">
        <ele>2416.8</ele>
        <time>2022-08-16T11:46:20Z</time>
      </trkpt>
      <trkpt lat="44.42416" lon="6.93634">
        <ele>2416</ele>
        <time>2022-08-16T11:46:21Z</time>
      </trkpt>
      <trkpt lat="44.42415" lon="6.93635">
        <ele>2415.2</ele>
        <time>2022-08-16T11:46:22Z</time>
      </trkpt>
      <trkpt lat="44.42414" lon="6.93636">
        <ele>2414.6</ele>
        <time>2022-08-16T11:46:23Z</time>
      </trkpt>
      <trkpt lat="44.42412" lon="6.93638">
        <ele>2413.6</ele>
        <time>2022-08-16T11:46:25Z</time>
      </trkpt>
      <trkpt lat="44.42411" lon="6.93639">
        <ele>2413.6</ele>
        <time>2022-08-16T11:46:26Z</time>
      </trkpt>
      <trkpt lat="44.4241" lon="6.9364">
        <ele>2412.8</ele>
        <time>2022-08-16T11:46:27Z</time>
      </trkpt>
      <trkpt lat="44.42409" lon="6.93641">
        <ele>2411.8</ele>
        <time>2022-08-16T11:46:28Z</time>
      </trkpt>
      <trkpt lat="44.42408" lon="6.93643">
        <ele>2410.8</ele>
        <time>2022-08-16T11:46:29Z</time>
      </trkpt>
      <trkpt lat="44.42408" lon="6.93644">
        <ele>2410.4</ele>
        <time>2022-08-16T11:46:30Z</time>
      </trkpt>
      <trkpt lat="44.42408" lon="6.93645">
        <ele>2409.6</ele>
        <time>2022-08-16T11:46:31Z</time>
      </trkpt>
      <trkpt lat="44.42407" lon="6.93646">
        <ele>2409</ele>
        <time>2022-08-16T11:46:32Z</time>
      </trkpt>
      <trkpt lat="44.42407" lon="6.93647">
        <ele>2408.4</ele>
        <time>2022-08-16T11:46:33Z</time>
      </trkpt>
      <trkpt lat="44.42408" lon="6.93648">
        <ele>2408</ele>
        <time>2022-08-16T11:46:34Z</time>
      </trkpt>
      <trkpt lat="44.42408" lon="6.93648">
        <ele>2405.4</ele>
        <time>2022-08-16T11:46:38Z</time>
      </trkpt>
      <trkpt lat="44.42407" lon="6.93648">
        <ele>2405</ele>
        <time>2022-08-16T11:46:39Z</time>
      </trkpt>
      <trkpt lat="44.42407" lon="6.93648">
        <ele>2404.4</ele>
        <time>2022-08-16T11:46:43Z</time>
      </trkpt>
      <trkpt lat="44.42407" lon="6.93644">
        <ele>2404.4</ele>
        <time>2022-08-16T11:46:45Z</time>
      </trkpt>
      <trkpt lat="44.42408" lon="6.93643">
        <ele>2404.2</ele>
        <time>2022-08-16T11:46:46Z</time>
      </trkpt>
      <trkpt lat="44.42407" lon="6.93644">
        <ele>2404.2</ele>
        <time>2022-08-16T11:46:47Z</time>
      </trkpt>
      <trkpt lat="44.42407" lon="6.93644">
        <ele>2404.2</ele>
        <time>2022-08-16T11:46:48Z</time>
      </trkpt>
      <trkpt lat="44.42405" lon="6.93645">
        <ele>2404</ele>
        <time>2022-08-16T11:46:50Z</time>
      </trkpt>
      <trkpt lat="44.42404" lon="6.93645">
        <ele>2403.8</ele>
        <time>2022-08-16T11:46:51Z</time>
      </trkpt>
      <trkpt lat="44.42402" lon="6.93645">
        <ele>2403.8</ele>
        <time>2022-08-16T11:46:52Z</time>
      </trkpt>
      <trkpt lat="44.42401" lon="6.93645">
        <ele>2403.6</ele>
        <time>2022-08-16T11:46:53Z</time>
      </trkpt>
      <trkpt lat="44.424" lon="6.93646">
        <ele>2403.6</ele>
        <time>2022-08-16T11:46:54Z</time>
      </trkpt>
      <trkpt lat="44.42399" lon="6.93647">
        <ele>2403.2</ele>
        <time>2022-08-16T11:46:55Z</time>
      </trkpt>
      <trkpt lat="44.42399" lon="6.93649">
        <ele>2402.6</ele>
        <time>2022-08-16T11:46:56Z</time>
      </trkpt>
      <trkpt lat="44.42398" lon="6.93651">
        <ele>2402.2</ele>
        <time>2022-08-16T11:46:57Z</time>
      </trkpt>
      <trkpt lat="44.42398" lon="6.93653">
        <ele>2401.8</ele>
        <time>2022-08-16T11:46:58Z</time>
      </trkpt>
      <trkpt lat="44.42397" lon="6.93654">
        <ele>2401.4</ele>
        <time>2022-08-16T11:46:59Z</time>
      </trkpt>
      <trkpt lat="44.42397" lon="6.93655">
        <ele>2401</ele>
        <time>2022-08-16T11:47:00Z</time>
      </trkpt>
      <trkpt lat="44.42396" lon="6.93656">
        <ele>2400.4</ele>
        <time>2022-08-16T11:47:01Z</time>
      </trkpt>
      <trkpt lat="44.42394" lon="6.93657">
        <ele>2400.2</ele>
        <time>2022-08-16T11:47:02Z</time>
      </trkpt>
      <trkpt lat="44.42392" lon="6.93658">
        <ele>2399.8</ele>
        <time>2022-08-16T11:47:03Z</time>
      </trkpt>
      <trkpt lat="44.4239" lon="6.9366">
        <ele>2399</ele>
        <time>2022-08-16T11:47:04Z</time>
      </trkpt>
      <trkpt lat="44.42386" lon="6.93664">
        <ele>2397.6</ele>
        <time>2022-08-16T11:47:06Z</time>
      </trkpt>
      <trkpt lat="44.42386" lon="6.93665">
        <ele>2397.2</ele>
        <time>2022-08-16T11:47:07Z</time>
      </trkpt>
      <trkpt lat="44.42386" lon="6.93666">
        <ele>2396.6</ele>
        <time>2022-08-16T11:47:08Z</time>
      </trkpt>
      <trkpt lat="44.42384" lon="6.93666">
        <ele>2390</ele>
        <time>2022-08-16T11:47:18Z</time>
      </trkpt>
      <trkpt lat="44.42385" lon="6.93667">
        <ele>2389.8</ele>
        <time>2022-08-16T11:47:24Z</time>
      </trkpt>
      <trkpt lat="44.42385" lon="6.93669">
        <ele>2390</ele>
        <time>2022-08-16T11:47:25Z</time>
      </trkpt>
      <trkpt lat="44.42386" lon="6.93671">
        <ele>2389.8</ele>
        <time>2022-08-16T11:47:26Z</time>
      </trkpt>
      <trkpt lat="44.42387" lon="6.93673">
        <ele>2389.8</ele>
        <time>2022-08-16T11:47:27Z</time>
      </trkpt>
      <trkpt lat="44.42388" lon="6.93675">
        <ele>2390</ele>
        <time>2022-08-16T11:47:28Z</time>
      </trkpt>
      <trkpt lat="44.42391" lon="6.93681">
        <ele>2389.8</ele>
        <time>2022-08-16T11:47:31Z</time>
      </trkpt>
      <trkpt lat="44.42392" lon="6.93683">
        <ele>2389.8</ele>
        <time>2022-08-16T11:47:32Z</time>
      </trkpt>
      <trkpt lat="44.42393" lon="6.93685">
        <ele>2389.6</ele>
        <time>2022-08-16T11:47:33Z</time>
      </trkpt>
      <trkpt lat="44.42394" lon="6.93686">
        <ele>2389.6</ele>
        <time>2022-08-16T11:47:34Z</time>
      </trkpt>
      <trkpt lat="44.42396" lon="6.93691">
        <ele>2389.4</ele>
        <time>2022-08-16T11:47:37Z</time>
      </trkpt>
      <trkpt lat="44.42397" lon="6.93693">
        <ele>2389.4</ele>
        <time>2022-08-16T11:47:38Z</time>
      </trkpt>
      <trkpt lat="44.42397" lon="6.93696">
        <ele>2389.2</ele>
        <time>2022-08-16T11:47:39Z</time>
      </trkpt>
      <trkpt lat="44.42398" lon="6.937">
        <ele>2389.2</ele>
        <time>2022-08-16T11:47:41Z</time>
      </trkpt>
      <trkpt lat="44.42399" lon="6.93702">
        <ele>2389</ele>
        <time>2022-08-16T11:47:42Z</time>
      </trkpt>
      <trkpt lat="44.424" lon="6.93703">
        <ele>2389</ele>
        <time>2022-08-16T11:47:43Z</time>
      </trkpt>
      <trkpt lat="44.42401" lon="6.93705">
        <ele>2389</ele>
        <time>2022-08-16T11:47:44Z</time>
      </trkpt>
      <trkpt lat="44.42402" lon="6.93706">
        <ele>2389</ele>
        <time>2022-08-16T11:47:45Z</time>
      </trkpt>
      <trkpt lat="44.42403" lon="6.93707">
        <ele>2389</ele>
        <time>2022-08-16T11:47:46Z</time>
      </trkpt>
      <trkpt lat="44.42405" lon="6.93709">
        <ele>2389</ele>
        <time>2022-08-16T11:47:48Z</time>
      </trkpt>
      <trkpt lat="44.42406" lon="6.93709">
        <ele>2389</ele>
        <time>2022-08-16T11:47:49Z</time>
      </trkpt>
      <trkpt lat="44.42407" lon="6.93709">
        <ele>2389</ele>
        <time>2022-08-16T11:47:50Z</time>
      </trkpt>
      <trkpt lat="44.42408" lon="6.9371">
        <ele>2389.2</ele>
        <time>2022-08-16T11:47:51Z</time>
      </trkpt>
      <trkpt lat="44.42408" lon="6.93711">
        <ele>2389.4</ele>
        <time>2022-08-16T11:47:52Z</time>
      </trkpt>
      <trkpt lat="44.42409" lon="6.93712">
        <ele>2389.4</ele>
        <time>2022-08-16T11:47:53Z</time>
      </trkpt>
      <trkpt lat="44.4241" lon="6.93714">
        <ele>2389.4</ele>
        <time>2022-08-16T11:47:55Z</time>
      </trkpt>
      <trkpt lat="44.42411" lon="6.93715">
        <ele>2389.6</ele>
        <time>2022-08-16T11:47:56Z</time>
      </trkpt>
      <trkpt lat="44.42411" lon="6.93716">
        <ele>2389.6</ele>
        <time>2022-08-16T11:47:57Z</time>
      </trkpt>
      <trkpt lat="44.42412" lon="6.93718">
        <ele>2390.2</ele>
        <time>2022-08-16T11:47:58Z</time>
      </trkpt>
      <trkpt lat="44.42412" lon="6.9372">
        <ele>2390.4</ele>
        <time>2022-08-16T11:47:59Z</time>
      </trkpt>
      <trkpt lat="44.42412" lon="6.93722">
        <ele>2390.6</ele>
        <time>2022-08-16T11:48:00Z</time>
      </trkpt>
      <trkpt lat="44.42412" lon="6.93728">
        <ele>2390.6</ele>
        <time>2022-08-16T11:48:02Z</time>
      </trkpt>
      <trkpt lat="44.42413" lon="6.93751">
        <ele>2390.8</ele>
        <time>2022-08-16T11:48:08Z</time>
      </trkpt>
      <trkpt lat="44.42415" lon="6.93759">
        <ele>2390.6</ele>
        <time>2022-08-16T11:48:10Z</time>
      </trkpt>
      <trkpt lat="44.42416" lon="6.93762">
        <ele>2390.8</ele>
        <time>2022-08-16T11:48:11Z</time>
      </trkpt>
      <trkpt lat="44.42418" lon="6.9377">
        <ele>2390.6</ele>
        <time>2022-08-16T11:48:13Z</time>
      </trkpt>
      <trkpt lat="44.42419" lon="6.93775">
        <ele>2390.6</ele>
        <time>2022-08-16T11:48:14Z</time>
      </trkpt>
      <trkpt lat="44.4242" lon="6.93781">
        <ele>2390.6</ele>
        <time>2022-08-16T11:48:15Z</time>
      </trkpt>
      <trkpt lat="44.4242" lon="6.93786">
        <ele>2390.4</ele>
        <time>2022-08-16T11:48:16Z</time>
      </trkpt>
      <trkpt lat="44.4242" lon="6.9379">
        <ele>2390.4</ele>
        <time>2022-08-16T11:48:17Z</time>
      </trkpt>
      <trkpt lat="44.4242" lon="6.93793">
        <ele>2390.4</ele>
        <time>2022-08-16T11:48:18Z</time>
      </trkpt>
      <trkpt lat="44.42419" lon="6.93796">
        <ele>2390.4</ele>
        <time>2022-08-16T11:48:19Z</time>
      </trkpt>
      <trkpt lat="44.42418" lon="6.93798">
        <ele>2390.4</ele>
        <time>2022-08-16T11:48:20Z</time>
      </trkpt>
      <trkpt lat="44.42417" lon="6.938">
        <ele>2390.4</ele>
        <time>2022-08-16T11:48:21Z</time>
      </trkpt>
      <trkpt lat="44.42416" lon="6.93802">
        <ele>2390.6</ele>
        <time>2022-08-16T11:48:22Z</time>
      </trkpt>
      <trkpt lat="44.42412" lon="6.93803">
        <ele>2390.6</ele>
        <time>2022-08-16T11:48:24Z</time>
      </trkpt>
      <trkpt lat="44.42409" lon="6.93804">
        <ele>2390.6</ele>
        <time>2022-08-16T11:48:25Z</time>
      </trkpt>
      <trkpt lat="44.42407" lon="6.93804">
        <ele>2390.8</ele>
        <time>2022-08-16T11:48:26Z</time>
      </trkpt>
      <trkpt lat="44.42399" lon="6.93806">
        <ele>2390.8</ele>
        <time>2022-08-16T11:48:29Z</time>
      </trkpt>
      <trkpt lat="44.42393" lon="6.9381">
        <ele>2390.8</ele>
        <time>2022-08-16T11:48:31Z</time>
      </trkpt>
      <trkpt lat="44.42391" lon="6.93813">
        <ele>2390.8</ele>
        <time>2022-08-16T11:48:32Z</time>
      </trkpt>
      <trkpt lat="44.42389" lon="6.93814">
        <ele>2390.6</ele>
        <time>2022-08-16T11:48:33Z</time>
      </trkpt>
      <trkpt lat="44.42386" lon="6.93816">
        <ele>2390.4</ele>
        <time>2022-08-16T11:48:34Z</time>
      </trkpt>
      <trkpt lat="44.42384" lon="6.93817">
        <ele>2390.6</ele>
        <time>2022-08-16T11:48:35Z</time>
      </trkpt>
      <trkpt lat="44.42381" lon="6.93818">
        <ele>2390.6</ele>
        <time>2022-08-16T11:48:36Z</time>
      </trkpt>
      <trkpt lat="44.42379" lon="6.93819">
        <ele>2390.6</ele>
        <time>2022-08-16T11:48:37Z</time>
      </trkpt>
      <trkpt lat="44.42377" lon="6.9382">
        <ele>2390.8</ele>
        <time>2022-08-16T11:48:38Z</time>
      </trkpt>
      <trkpt lat="44.42374" lon="6.93821">
        <ele>2391</ele>
        <time>2022-08-16T11:48:39Z</time>
      </trkpt>
      <trkpt lat="44.42366" lon="6.93823">
        <ele>2390.8</ele>
        <time>2022-08-16T11:48:42Z</time>
      </trkpt>
      <trkpt lat="44.42361" lon="6.93824">
        <ele>2390.8</ele>
        <time>2022-08-16T11:48:44Z</time>
      </trkpt>
      <trkpt lat="44.42355" lon="6.93825">
        <ele>2390.8</ele>
        <time>2022-08-16T11:48:46Z</time>
      </trkpt>
      <trkpt lat="44.42353" lon="6.93826">
        <ele>2391</ele>
        <time>2022-08-16T11:48:47Z</time>
      </trkpt>
      <trkpt lat="44.42351" lon="6.93827">
        <ele>2391.2</ele>
        <time>2022-08-16T11:48:48Z</time>
      </trkpt>
      <trkpt lat="44.42348" lon="6.93827">
        <ele>2391.4</ele>
        <time>2022-08-16T11:48:49Z</time>
      </trkpt>
      <trkpt lat="44.42346" lon="6.93828">
        <ele>2391.4</ele>
        <time>2022-08-16T11:48:50Z</time>
      </trkpt>
      <trkpt lat="44.42344" lon="6.93828">
        <ele>2392</ele>
        <time>2022-08-16T11:48:51Z</time>
      </trkpt>
      <trkpt lat="44.42342" lon="6.93829">
        <ele>2392.2</ele>
        <time>2022-08-16T11:48:52Z</time>
      </trkpt>
      <trkpt lat="44.4234" lon="6.9383">
        <ele>2392.6</ele>
        <time>2022-08-16T11:48:53Z</time>
      </trkpt>
      <trkpt lat="44.42338" lon="6.9383">
        <ele>2392.6</ele>
        <time>2022-08-16T11:48:54Z</time>
      </trkpt>
      <trkpt lat="44.42336" lon="6.93831">
        <ele>2392.6</ele>
        <time>2022-08-16T11:48:55Z</time>
      </trkpt>
      <trkpt lat="44.42334" lon="6.93831">
        <ele>2392.8</ele>
        <time>2022-08-16T11:48:56Z</time>
      </trkpt>
      <trkpt lat="44.42331" lon="6.93831">
        <ele>2392.8</ele>
        <time>2022-08-16T11:48:57Z</time>
      </trkpt>
      <trkpt lat="44.42329" lon="6.93831">
        <ele>2393.2</ele>
        <time>2022-08-16T11:48:58Z</time>
      </trkpt>
      <trkpt lat="44.42327" lon="6.93831">
        <ele>2393.4</ele>
        <time>2022-08-16T11:48:59Z</time>
      </trkpt>
      <trkpt lat="44.42324" lon="6.93831">
        <ele>2393.4</ele>
        <time>2022-08-16T11:49:00Z</time>
      </trkpt>
      <trkpt lat="44.42322" lon="6.93831">
        <ele>2393.6</ele>
        <time>2022-08-16T11:49:01Z</time>
      </trkpt>
      <trkpt lat="44.4232" lon="6.93831">
        <ele>2393.6</ele>
        <time>2022-08-16T11:49:02Z</time>
      </trkpt>
      <trkpt lat="44.42317" lon="6.93831">
        <ele>2394</ele>
        <time>2022-08-16T11:49:03Z</time>
      </trkpt>
      <trkpt lat="44.42315" lon="6.93831">
        <ele>2394</ele>
        <time>2022-08-16T11:49:04Z</time>
      </trkpt>
      <trkpt lat="44.42312" lon="6.93831">
        <ele>2394</ele>
        <time>2022-08-16T11:49:05Z</time>
      </trkpt>
      <trkpt lat="44.4231" lon="6.93831">
        <ele>2394.2</ele>
        <time>2022-08-16T11:49:06Z</time>
      </trkpt>
      <trkpt lat="44.42308" lon="6.93831">
        <ele>2394</ele>
        <time>2022-08-16T11:49:07Z</time>
      </trkpt>
      <trkpt lat="44.42305" lon="6.93831">
        <ele>2394.2</ele>
        <time>2022-08-16T11:49:08Z</time>
      </trkpt>
      <trkpt lat="44.42303" lon="6.93831">
        <ele>2394.2</ele>
        <time>2022-08-16T11:49:09Z</time>
      </trkpt>
      <trkpt lat="44.423" lon="6.9383">
        <ele>2394.4</ele>
        <time>2022-08-16T11:49:10Z</time>
      </trkpt>
      <trkpt lat="44.42296" lon="6.9383">
        <ele>2394.6</ele>
        <time>2022-08-16T11:49:12Z</time>
      </trkpt>
      <trkpt lat="44.42291" lon="6.93831">
        <ele>2394.6</ele>
        <time>2022-08-16T11:49:14Z</time>
      </trkpt>
      <trkpt lat="44.42288" lon="6.93831">
        <ele>2394.8</ele>
        <time>2022-08-16T11:49:15Z</time>
      </trkpt>
      <trkpt lat="44.42286" lon="6.93831">
        <ele>2394.8</ele>
        <time>2022-08-16T11:49:16Z</time>
      </trkpt>
      <trkpt lat="44.42284" lon="6.93831">
        <ele>2395</ele>
        <time>2022-08-16T11:49:17Z</time>
      </trkpt>
      <trkpt lat="44.42277" lon="6.93834">
        <ele>2395.2</ele>
        <time>2022-08-16T11:49:20Z</time>
      </trkpt>
      <trkpt lat="44.42275" lon="6.93835">
        <ele>2395.2</ele>
        <time>2022-08-16T11:49:21Z</time>
      </trkpt>
      <trkpt lat="44.42273" lon="6.93836">
        <ele>2395.2</ele>
        <time>2022-08-16T11:49:22Z</time>
      </trkpt>
      <trkpt lat="44.42272" lon="6.93838">
        <ele>2395.2</ele>
        <time>2022-08-16T11:49:23Z</time>
      </trkpt>
      <trkpt lat="44.42261" lon="6.93844">
        <ele>2395.6</ele>
        <time>2022-08-16T11:49:28Z</time>
      </trkpt>
      <trkpt lat="44.42258" lon="6.93844">
        <ele>2395.8</ele>
        <time>2022-08-16T11:49:29Z</time>
      </trkpt>
      <trkpt lat="44.42254" lon="6.93846">
        <ele>2396</ele>
        <time>2022-08-16T11:49:31Z</time>
      </trkpt>
      <trkpt lat="44.42247" lon="6.93851">
        <ele>2396</ele>
        <time>2022-08-16T11:49:34Z</time>
      </trkpt>
      <trkpt lat="44.42245" lon="6.93853">
        <ele>2396.2</ele>
        <time>2022-08-16T11:49:35Z</time>
      </trkpt>
      <trkpt lat="44.42243" lon="6.93855">
        <ele>2396.2</ele>
        <time>2022-08-16T11:49:36Z</time>
      </trkpt>
      <trkpt lat="44.42242" lon="6.93857">
        <ele>2396.2</ele>
        <time>2022-08-16T11:49:37Z</time>
      </trkpt>
      <trkpt lat="44.42242" lon="6.9386">
        <ele>2396.4</ele>
        <time>2022-08-16T11:49:38Z</time>
      </trkpt>
      <trkpt lat="44.42242" lon="6.93862">
        <ele>2396.4</ele>
        <time>2022-08-16T11:49:39Z</time>
      </trkpt>
      <trkpt lat="44.42242" lon="6.93865">
        <ele>2396.4</ele>
        <time>2022-08-16T11:49:40Z</time>
      </trkpt>
      <trkpt lat="44.42241" lon="6.93867">
        <ele>2396.8</ele>
        <time>2022-08-16T11:49:41Z</time>
      </trkpt>
      <trkpt lat="44.42241" lon="6.9388">
        <ele>2397.2</ele>
        <time>2022-08-16T11:49:45Z</time>
      </trkpt>
      <trkpt lat="44.42239" lon="6.93892">
        <ele>2397.4</ele>
        <time>2022-08-16T11:49:48Z</time>
      </trkpt>
      <trkpt lat="44.42239" lon="6.93896">
        <ele>2397.2</ele>
        <time>2022-08-16T11:49:49Z</time>
      </trkpt>
      <trkpt lat="44.42239" lon="6.93899">
        <ele>2397.4</ele>
        <time>2022-08-16T11:49:50Z</time>
      </trkpt>
      <trkpt lat="44.42239" lon="6.93903">
        <ele>2397.2</ele>
        <time>2022-08-16T11:49:51Z</time>
      </trkpt>
      <trkpt lat="44.42238" lon="6.93906">
        <ele>2397.2</ele>
        <time>2022-08-16T11:49:52Z</time>
      </trkpt>
      <trkpt lat="44.42238" lon="6.93909">
        <ele>2397.4</ele>
        <time>2022-08-16T11:49:53Z</time>
      </trkpt>
      <trkpt lat="44.42239" lon="6.93912">
        <ele>2397.4</ele>
        <time>2022-08-16T11:49:54Z</time>
      </trkpt>
      <trkpt lat="44.4224" lon="6.93919">
        <ele>2397.2</ele>
        <time>2022-08-16T11:49:56Z</time>
      </trkpt>
      <trkpt lat="44.42244" lon="6.9393">
        <ele>2397.2</ele>
        <time>2022-08-16T11:49:59Z</time>
      </trkpt>
      <trkpt lat="44.42248" lon="6.93936">
        <ele>2397.4</ele>
        <time>2022-08-16T11:50:01Z</time>
      </trkpt>
      <trkpt lat="44.4225" lon="6.93939">
        <ele>2397.4</ele>
        <time>2022-08-16T11:50:02Z</time>
      </trkpt>
      <trkpt lat="44.42256" lon="6.93948">
        <ele>2397.4</ele>
        <time>2022-08-16T11:50:05Z</time>
      </trkpt>
      <trkpt lat="44.4226" lon="6.93955">
        <ele>2397.6</ele>
        <time>2022-08-16T11:50:07Z</time>
      </trkpt>
      <trkpt lat="44.42265" lon="6.93969">
        <ele>2397.6</ele>
        <time>2022-08-16T11:50:10Z</time>
      </trkpt>
      <trkpt lat="44.42266" lon="6.93974">
        <ele>2397.8</ele>
        <time>2022-08-16T11:50:11Z</time>
      </trkpt>
      <trkpt lat="44.42267" lon="6.93978">
        <ele>2397.8</ele>
        <time>2022-08-16T11:50:12Z</time>
      </trkpt>
      <trkpt lat="44.42268" lon="6.93982">
        <ele>2397.8</ele>
        <time>2022-08-16T11:50:13Z</time>
      </trkpt>
      <trkpt lat="44.42268" lon="6.93991">
        <ele>2398</ele>
        <time>2022-08-16T11:50:15Z</time>
      </trkpt>
      <trkpt lat="44.42269" lon="6.93995">
        <ele>2398.4</ele>
        <time>2022-08-16T11:50:16Z</time>
      </trkpt>
      <trkpt lat="44.42269" lon="6.94014">
        <ele>2398.6</ele>
        <time>2022-08-16T11:50:20Z</time>
      </trkpt>
      <trkpt lat="44.42268" lon="6.94024">
        <ele>2398.4</ele>
        <time>2022-08-16T11:50:22Z</time>
      </trkpt>
      <trkpt lat="44.42268" lon="6.94029">
        <ele>2398.2</ele>
        <time>2022-08-16T11:50:23Z</time>
      </trkpt>
      <trkpt lat="44.42267" lon="6.94034">
        <ele>2398.2</ele>
        <time>2022-08-16T11:50:24Z</time>
      </trkpt>
      <trkpt lat="44.42265" lon="6.94039">
        <ele>2398.2</ele>
        <time>2022-08-16T11:50:25Z</time>
      </trkpt>
      <trkpt lat="44.42262" lon="6.94043">
        <ele>2398</ele>
        <time>2022-08-16T11:50:26Z</time>
      </trkpt>
      <trkpt lat="44.42259" lon="6.94046">
        <ele>2398.2</ele>
        <time>2022-08-16T11:50:27Z</time>
      </trkpt>
      <trkpt lat="44.42256" lon="6.94049">
        <ele>2398</ele>
        <time>2022-08-16T11:50:28Z</time>
      </trkpt>
      <trkpt lat="44.42253" lon="6.94051">
        <ele>2398.2</ele>
        <time>2022-08-16T11:50:29Z</time>
      </trkpt>
      <trkpt lat="44.4225" lon="6.94053">
        <ele>2398</ele>
        <time>2022-08-16T11:50:30Z</time>
      </trkpt>
      <trkpt lat="44.42244" lon="6.94058">
        <ele>2398</ele>
        <time>2022-08-16T11:50:32Z</time>
      </trkpt>
      <trkpt lat="44.42238" lon="6.94062">
        <ele>2397.8</ele>
        <time>2022-08-16T11:50:34Z</time>
      </trkpt>
      <trkpt lat="44.42235" lon="6.94065">
        <ele>2397.6</ele>
        <time>2022-08-16T11:50:35Z</time>
      </trkpt>
      <trkpt lat="44.42232" lon="6.94066">
        <ele>2397.4</ele>
        <time>2022-08-16T11:50:36Z</time>
      </trkpt>
      <trkpt lat="44.42229" lon="6.94067">
        <ele>2397.4</ele>
        <time>2022-08-16T11:50:37Z</time>
      </trkpt>
      <trkpt lat="44.42226" lon="6.94067">
        <ele>2397.2</ele>
        <time>2022-08-16T11:50:38Z</time>
      </trkpt>
      <trkpt lat="44.42224" lon="6.94067">
        <ele>2397.2</ele>
        <time>2022-08-16T11:50:39Z</time>
      </trkpt>
      <trkpt lat="44.42221" lon="6.94069">
        <ele>2397</ele>
        <time>2022-08-16T11:50:40Z</time>
      </trkpt>
      <trkpt lat="44.42216" lon="6.94071">
        <ele>2397.2</ele>
        <time>2022-08-16T11:50:42Z</time>
      </trkpt>
      <trkpt lat="44.42211" lon="6.94075">
        <ele>2397</ele>
        <time>2022-08-16T11:50:44Z</time>
      </trkpt>
      <trkpt lat="44.42191" lon="6.9409">
        <ele>2397.2</ele>
        <time>2022-08-16T11:50:51Z</time>
      </trkpt>
      <trkpt lat="44.42188" lon="6.94093">
        <ele>2397.2</ele>
        <time>2022-08-16T11:50:52Z</time>
      </trkpt>
      <trkpt lat="44.42177" lon="6.94098">
        <ele>2397.4</ele>
        <time>2022-08-16T11:50:55Z</time>
      </trkpt>
      <trkpt lat="44.42173" lon="6.94098">
        <ele>2397.2</ele>
        <time>2022-08-16T11:50:56Z</time>
      </trkpt>
      <trkpt lat="44.4217" lon="6.94098">
        <ele>2397.4</ele>
        <time>2022-08-16T11:50:57Z</time>
      </trkpt>
      <trkpt lat="44.42167" lon="6.94099">
        <ele>2397.4</ele>
        <time>2022-08-16T11:50:58Z</time>
      </trkpt>
      <trkpt lat="44.42165" lon="6.941">
        <ele>2397.2</ele>
        <time>2022-08-16T11:50:59Z</time>
      </trkpt>
      <trkpt lat="44.42163" lon="6.94101">
        <ele>2397.2</ele>
        <time>2022-08-16T11:51:00Z</time>
      </trkpt>
      <trkpt lat="44.42161" lon="6.94102">
        <ele>2397.2</ele>
        <time>2022-08-16T11:51:01Z</time>
      </trkpt>
      <trkpt lat="44.42159" lon="6.94103">
        <ele>2397.4</ele>
        <time>2022-08-16T11:51:02Z</time>
      </trkpt>
      <trkpt lat="44.42152" lon="6.94107">
        <ele>2397.4</ele>
        <time>2022-08-16T11:51:05Z</time>
      </trkpt>
      <trkpt lat="44.42139" lon="6.94114">
        <ele>2397.4</ele>
        <time>2022-08-16T11:51:10Z</time>
      </trkpt>
      <trkpt lat="44.42134" lon="6.94117">
        <ele>2397.4</ele>
        <time>2022-08-16T11:51:12Z</time>
      </trkpt>
      <trkpt lat="44.42132" lon="6.94119">
        <ele>2397.4</ele>
        <time>2022-08-16T11:51:13Z</time>
      </trkpt>
      <trkpt lat="44.4213" lon="6.94122">
        <ele>2397.4</ele>
        <time>2022-08-16T11:51:14Z</time>
      </trkpt>
      <trkpt lat="44.42126" lon="6.94127">
        <ele>2397.4</ele>
        <time>2022-08-16T11:51:16Z</time>
      </trkpt>
      <trkpt lat="44.42124" lon="6.94129">
        <ele>2397.4</ele>
        <time>2022-08-16T11:51:17Z</time>
      </trkpt>
      <trkpt lat="44.42122" lon="6.94131">
        <ele>2397.4</ele>
        <time>2022-08-16T11:51:18Z</time>
      </trkpt>
      <trkpt lat="44.42121" lon="6.94133">
        <ele>2397.2</ele>
        <time>2022-08-16T11:51:19Z</time>
      </trkpt>
      <trkpt lat="44.42119" lon="6.94136">
        <ele>2397.4</ele>
        <time>2022-08-16T11:51:20Z</time>
      </trkpt>
      <trkpt lat="44.42118" lon="6.94138">
        <ele>2397</ele>
        <time>2022-08-16T11:51:21Z</time>
      </trkpt>
      <trkpt lat="44.42105" lon="6.94152">
        <ele>2395.4</ele>
        <time>2022-08-16T11:51:26Z</time>
      </trkpt>
      <trkpt lat="44.42102" lon="6.94154">
        <ele>2395.4</ele>
        <time>2022-08-16T11:51:27Z</time>
      </trkpt>
      <trkpt lat="44.42094" lon="6.94157">
        <ele>2395.2</ele>
        <time>2022-08-16T11:51:29Z</time>
      </trkpt>
      <trkpt lat="44.4209" lon="6.94158">
        <ele>2395.2</ele>
        <time>2022-08-16T11:51:30Z</time>
      </trkpt>
      <trkpt lat="44.42086" lon="6.94158">
        <ele>2395.2</ele>
        <time>2022-08-16T11:51:31Z</time>
      </trkpt>
      <trkpt lat="44.42083" lon="6.94158">
        <ele>2395.2</ele>
        <time>2022-08-16T11:51:32Z</time>
      </trkpt>
      <trkpt lat="44.42064" lon="6.94155">
        <ele>2395</ele>
        <time>2022-08-16T11:51:37Z</time>
      </trkpt>
      <trkpt lat="44.42053" lon="6.9415">
        <ele>2395</ele>
        <time>2022-08-16T11:51:40Z</time>
      </trkpt>
      <trkpt lat="44.4205" lon="6.94148">
        <ele>2395</ele>
        <time>2022-08-16T11:51:41Z</time>
      </trkpt>
      <trkpt lat="44.42047" lon="6.94147">
        <ele>2395.2</ele>
        <time>2022-08-16T11:51:42Z</time>
      </trkpt>
      <trkpt lat="44.42039" lon="6.94145">
        <ele>2395</ele>
        <time>2022-08-16T11:51:44Z</time>
      </trkpt>
      <trkpt lat="44.42025" lon="6.94141">
        <ele>2395</ele>
        <time>2022-08-16T11:51:48Z</time>
      </trkpt>
      <trkpt lat="44.42022" lon="6.9414">
        <ele>2395</ele>
        <time>2022-08-16T11:51:49Z</time>
      </trkpt>
      <trkpt lat="44.42019" lon="6.9414">
        <ele>2395.2</ele>
        <time>2022-08-16T11:51:50Z</time>
      </trkpt>
      <trkpt lat="44.42016" lon="6.9414">
        <ele>2395</ele>
        <time>2022-08-16T11:51:51Z</time>
      </trkpt>
      <trkpt lat="44.41999" lon="6.94139">
        <ele>2395.2</ele>
        <time>2022-08-16T11:51:56Z</time>
      </trkpt>
      <trkpt lat="44.41997" lon="6.94139">
        <ele>2395.2</ele>
        <time>2022-08-16T11:51:57Z</time>
      </trkpt>
      <trkpt lat="44.41994" lon="6.9414">
        <ele>2395.4</ele>
        <time>2022-08-16T11:51:58Z</time>
      </trkpt>
      <trkpt lat="44.41992" lon="6.9414">
        <ele>2395.4</ele>
        <time>2022-08-16T11:51:59Z</time>
      </trkpt>
      <trkpt lat="44.4199" lon="6.9414">
        <ele>2395.4</ele>
        <time>2022-08-16T11:52:00Z</time>
      </trkpt>
      <trkpt lat="44.41988" lon="6.94141">
        <ele>2395.4</ele>
        <time>2022-08-16T11:52:01Z</time>
      </trkpt>
      <trkpt lat="44.41986" lon="6.94142">
        <ele>2395.6</ele>
        <time>2022-08-16T11:52:02Z</time>
      </trkpt>
      <trkpt lat="44.41985" lon="6.94142">
        <ele>2395.4</ele>
        <time>2022-08-16T11:52:03Z</time>
      </trkpt>
      <trkpt lat="44.41983" lon="6.94143">
        <ele>2395.6</ele>
        <time>2022-08-16T11:52:04Z</time>
      </trkpt>
      <trkpt lat="44.41974" lon="6.94145">
        <ele>2396</ele>
        <time>2022-08-16T11:52:10Z</time>
      </trkpt>
      <trkpt lat="44.41973" lon="6.94145">
        <ele>2396.2</ele>
        <time>2022-08-16T11:52:11Z</time>
      </trkpt>
      <trkpt lat="44.41972" lon="6.94145">
        <ele>2396.6</ele>
        <time>2022-08-16T11:52:12Z</time>
      </trkpt>
      <trkpt lat="44.4197" lon="6.94146">
        <ele>2396.8</ele>
        <time>2022-08-16T11:52:13Z</time>
      </trkpt>
      <trkpt lat="44.41969" lon="6.94146">
        <ele>2397</ele>
        <time>2022-08-16T11:52:14Z</time>
      </trkpt>
      <trkpt lat="44.41968" lon="6.94146">
        <ele>2397.2</ele>
        <time>2022-08-16T11:52:15Z</time>
      </trkpt>
      <trkpt lat="44.41966" lon="6.94147">
        <ele>2397.2</ele>
        <time>2022-08-16T11:52:16Z</time>
      </trkpt>
      <trkpt lat="44.41965" lon="6.94148">
        <ele>2397.4</ele>
        <time>2022-08-16T11:52:17Z</time>
      </trkpt>
      <trkpt lat="44.41964" lon="6.94149">
        <ele>2397.6</ele>
        <time>2022-08-16T11:52:18Z</time>
      </trkpt>
      <trkpt lat="44.41963" lon="6.94149">
        <ele>2398</ele>
        <time>2022-08-16T11:52:19Z</time>
      </trkpt>
      <trkpt lat="44.41961" lon="6.9415">
        <ele>2398.2</ele>
        <time>2022-08-16T11:52:20Z</time>
      </trkpt>
      <trkpt lat="44.4196" lon="6.94151">
        <ele>2398.2</ele>
        <time>2022-08-16T11:52:21Z</time>
      </trkpt>
      <trkpt lat="44.41959" lon="6.94151">
        <ele>2398.8</ele>
        <time>2022-08-16T11:52:22Z</time>
      </trkpt>
      <trkpt lat="44.41957" lon="6.94152">
        <ele>2398.8</ele>
        <time>2022-08-16T11:52:23Z</time>
      </trkpt>
      <trkpt lat="44.41956" lon="6.94153">
        <ele>2399.2</ele>
        <time>2022-08-16T11:52:24Z</time>
      </trkpt>
      <trkpt lat="44.41954" lon="6.94153">
        <ele>2399.2</ele>
        <time>2022-08-16T11:52:25Z</time>
      </trkpt>
      <trkpt lat="44.41952" lon="6.94153">
        <ele>2399.4</ele>
        <time>2022-08-16T11:52:26Z</time>
      </trkpt>
      <trkpt lat="44.41951" lon="6.94153">
        <ele>2399.6</ele>
        <time>2022-08-16T11:52:27Z</time>
      </trkpt>
      <trkpt lat="44.41948" lon="6.94154">
        <ele>2399.6</ele>
        <time>2022-08-16T11:52:28Z</time>
      </trkpt>
      <trkpt lat="44.41946" lon="6.94155">
        <ele>2399.6</ele>
        <time>2022-08-16T11:52:29Z</time>
      </trkpt>
      <trkpt lat="44.41944" lon="6.94156">
        <ele>2399.6</ele>
        <time>2022-08-16T11:52:30Z</time>
      </trkpt>
      <trkpt lat="44.41941" lon="6.94157">
        <ele>2399.8</ele>
        <time>2022-08-16T11:52:31Z</time>
      </trkpt>
      <trkpt lat="44.41938" lon="6.94159">
        <ele>2400</ele>
        <time>2022-08-16T11:52:32Z</time>
      </trkpt>
      <trkpt lat="44.41936" lon="6.94161">
        <ele>2400</ele>
        <time>2022-08-16T11:52:33Z</time>
      </trkpt>
      <trkpt lat="44.41933" lon="6.94163">
        <ele>2399.8</ele>
        <time>2022-08-16T11:52:34Z</time>
      </trkpt>
      <trkpt lat="44.41915" lon="6.94181">
        <ele>2400</ele>
        <time>2022-08-16T11:52:41Z</time>
      </trkpt>
      <trkpt lat="44.41913" lon="6.94183">
        <ele>2400.2</ele>
        <time>2022-08-16T11:52:42Z</time>
      </trkpt>
      <trkpt lat="44.4191" lon="6.94185">
        <ele>2400.4</ele>
        <time>2022-08-16T11:52:43Z</time>
      </trkpt>
      <trkpt lat="44.41903" lon="6.94187">
        <ele>2400.4</ele>
        <time>2022-08-16T11:52:45Z</time>
      </trkpt>
      <trkpt lat="44.41899" lon="6.94187">
        <ele>2400.6</ele>
        <time>2022-08-16T11:52:46Z</time>
      </trkpt>
      <trkpt lat="44.41894" lon="6.94187">
        <ele>2400.6</ele>
        <time>2022-08-16T11:52:47Z</time>
      </trkpt>
      <trkpt lat="44.4189" lon="6.94188">
        <ele>2400.2</ele>
        <time>2022-08-16T11:52:48Z</time>
      </trkpt>
      <trkpt lat="44.41882" lon="6.94191">
        <ele>2400</ele>
        <time>2022-08-16T11:52:50Z</time>
      </trkpt>
      <trkpt lat="44.41877" lon="6.94193">
        <ele>2400</ele>
        <time>2022-08-16T11:52:51Z</time>
      </trkpt>
      <trkpt lat="44.41871" lon="6.94196">
        <ele>2400</ele>
        <time>2022-08-16T11:52:52Z</time>
      </trkpt>
      <trkpt lat="44.41865" lon="6.942">
        <ele>2400</ele>
        <time>2022-08-16T11:52:53Z</time>
      </trkpt>
      <trkpt lat="44.41859" lon="6.94204">
        <ele>2400</ele>
        <time>2022-08-16T11:52:54Z</time>
      </trkpt>
      <trkpt lat="44.41854" lon="6.9421">
        <ele>2400</ele>
        <time>2022-08-16T11:52:55Z</time>
      </trkpt>
      <trkpt lat="44.41849" lon="6.94216">
        <ele>2400</ele>
        <time>2022-08-16T11:52:56Z</time>
      </trkpt>
      <trkpt lat="44.41845" lon="6.94224">
        <ele>2399.8</ele>
        <time>2022-08-16T11:52:57Z</time>
      </trkpt>
      <trkpt lat="44.41842" lon="6.9423">
        <ele>2399.8</ele>
        <time>2022-08-16T11:52:58Z</time>
      </trkpt>
      <trkpt lat="44.41839" lon="6.94236">
        <ele>2399</ele>
        <time>2022-08-16T11:52:59Z</time>
      </trkpt>
      <trkpt lat="44.41837" lon="6.94241">
        <ele>2397.4</ele>
        <time>2022-08-16T11:53:00Z</time>
      </trkpt>
      <trkpt lat="44.41835" lon="6.94246">
        <ele>2396.4</ele>
        <time>2022-08-16T11:53:01Z</time>
      </trkpt>
      <trkpt lat="44.41833" lon="6.94251">
        <ele>2394.8</ele>
        <time>2022-08-16T11:53:02Z</time>
      </trkpt>
      <trkpt lat="44.41832" lon="6.94255">
        <ele>2394</ele>
        <time>2022-08-16T11:53:03Z</time>
      </trkpt>
      <trkpt lat="44.41831" lon="6.94258">
        <ele>2393.6</ele>
        <time>2022-08-16T11:53:04Z</time>
      </trkpt>
      <trkpt lat="44.4183" lon="6.94261">
        <ele>2393.4</ele>
        <time>2022-08-16T11:53:05Z</time>
      </trkpt>
      <trkpt lat="44.41829" lon="6.94264">
        <ele>2393.4</ele>
        <time>2022-08-16T11:53:06Z</time>
      </trkpt>
      <trkpt lat="44.41826" lon="6.9427">
        <ele>2393.2</ele>
        <time>2022-08-16T11:53:08Z</time>
      </trkpt>
      <trkpt lat="44.41824" lon="6.94273">
        <ele>2393</ele>
        <time>2022-08-16T11:53:09Z</time>
      </trkpt>
      <trkpt lat="44.41823" lon="6.94276">
        <ele>2393</ele>
        <time>2022-08-16T11:53:10Z</time>
      </trkpt>
      <trkpt lat="44.41821" lon="6.94277">
        <ele>2393</ele>
        <time>2022-08-16T11:53:11Z</time>
      </trkpt>
      <trkpt lat="44.4182" lon="6.94279">
        <ele>2392.8</ele>
        <time>2022-08-16T11:53:12Z</time>
      </trkpt>
      <trkpt lat="44.41819" lon="6.9428">
        <ele>2393</ele>
        <time>2022-08-16T11:53:13Z</time>
      </trkpt>
      <trkpt lat="44.41819" lon="6.94281">
        <ele>2392.8</ele>
        <time>2022-08-16T11:53:14Z</time>
      </trkpt>
      <trkpt lat="44.41818" lon="6.94282">
        <ele>2393.2</ele>
        <time>2022-08-16T11:53:15Z</time>
      </trkpt>
      <trkpt lat="44.41818" lon="6.94284">
        <ele>2393.2</ele>
        <time>2022-08-16T11:53:16Z</time>
      </trkpt>
      <trkpt lat="44.41817" lon="6.94285">
        <ele>2393.2</ele>
        <time>2022-08-16T11:53:17Z</time>
      </trkpt>
      <trkpt lat="44.41817" lon="6.94285">
        <ele>2393.2</ele>
        <time>2022-08-16T11:53:18Z</time>
      </trkpt>
      <trkpt lat="44.41816" lon="6.94286">
        <ele>2393.2</ele>
        <time>2022-08-16T11:53:19Z</time>
      </trkpt>
      <trkpt lat="44.41815" lon="6.94288">
        <ele>2393.4</ele>
        <time>2022-08-16T11:53:20Z</time>
      </trkpt>
      <trkpt lat="44.41814" lon="6.94289">
        <ele>2393.4</ele>
        <time>2022-08-16T11:53:21Z</time>
      </trkpt>
      <trkpt lat="44.41814" lon="6.94291">
        <ele>2393.4</ele>
        <time>2022-08-16T11:53:22Z</time>
      </trkpt>
      <trkpt lat="44.41813" lon="6.94292">
        <ele>2393.4</ele>
        <time>2022-08-16T11:53:23Z</time>
      </trkpt>
      <trkpt lat="44.41812" lon="6.94292">
        <ele>2393.4</ele>
        <time>2022-08-16T11:53:24Z</time>
      </trkpt>
      <trkpt lat="44.4181" lon="6.94293">
        <ele>2393.4</ele>
        <time>2022-08-16T11:53:25Z</time>
      </trkpt>
      <trkpt lat="44.41809" lon="6.94294">
        <ele>2393.4</ele>
        <time>2022-08-16T11:53:26Z</time>
      </trkpt>
      <trkpt lat="44.41809" lon="6.94294">
        <ele>2393.6</ele>
        <time>2022-08-16T11:53:27Z</time>
      </trkpt>
      <trkpt lat="44.41808" lon="6.94295">
        <ele>2393.6</ele>
        <time>2022-08-16T11:53:29Z</time>
      </trkpt>
      <trkpt lat="44.41807" lon="6.94296">
        <ele>2393.6</ele>
        <time>2022-08-16T11:53:30Z</time>
      </trkpt>
      <trkpt lat="44.41807" lon="6.94296">
        <ele>2393.8</ele>
        <time>2022-08-16T11:53:31Z</time>
      </trkpt>
      <trkpt lat="44.41807" lon="6.94299">
        <ele>2393.8</ele>
        <time>2022-08-16T11:53:33Z</time>
      </trkpt>
      <trkpt lat="44.41807" lon="6.94302">
        <ele>2393.8</ele>
        <time>2022-08-16T11:53:35Z</time>
      </trkpt>
      <trkpt lat="44.41807" lon="6.94303">
        <ele>2393.8</ele>
        <time>2022-08-16T11:53:36Z</time>
      </trkpt>
      <trkpt lat="44.41806" lon="6.94306">
        <ele>2393.8</ele>
        <time>2022-08-16T11:53:38Z</time>
      </trkpt>
      <trkpt lat="44.41805" lon="6.94306">
        <ele>2393.8</ele>
        <time>2022-08-16T11:53:39Z</time>
      </trkpt>
      <trkpt lat="44.41805" lon="6.94308">
        <ele>2394</ele>
        <time>2022-08-16T11:53:40Z</time>
      </trkpt>
      <trkpt lat="44.41804" lon="6.94308">
        <ele>2394</ele>
        <time>2022-08-16T11:53:41Z</time>
      </trkpt>
      <trkpt lat="44.41803" lon="6.9431">
        <ele>2393.8</ele>
        <time>2022-08-16T11:53:42Z</time>
      </trkpt>
      <trkpt lat="44.41802" lon="6.94311">
        <ele>2394</ele>
        <time>2022-08-16T11:53:43Z</time>
      </trkpt>
      <trkpt lat="44.418" lon="6.94313">
        <ele>2394.2</ele>
        <time>2022-08-16T11:53:45Z</time>
      </trkpt>
      <trkpt lat="44.41798" lon="6.94315">
        <ele>2394.6</ele>
        <time>2022-08-16T11:53:47Z</time>
      </trkpt>
      <trkpt lat="44.41797" lon="6.94316">
        <ele>2394.8</ele>
        <time>2022-08-16T11:53:48Z</time>
      </trkpt>
      <trkpt lat="44.41796" lon="6.94318">
        <ele>2395.2</ele>
        <time>2022-08-16T11:53:49Z</time>
      </trkpt>
      <trkpt lat="44.41794" lon="6.94319">
        <ele>2395.2</ele>
        <time>2022-08-16T11:53:50Z</time>
      </trkpt>
      <trkpt lat="44.41793" lon="6.9432">
        <ele>2395.6</ele>
        <time>2022-08-16T11:53:51Z</time>
      </trkpt>
      <trkpt lat="44.41792" lon="6.94321">
        <ele>2396</ele>
        <time>2022-08-16T11:53:52Z</time>
      </trkpt>
      <trkpt lat="44.41791" lon="6.94323">
        <ele>2396.2</ele>
        <time>2022-08-16T11:53:53Z</time>
      </trkpt>
      <trkpt lat="44.41789" lon="6.94325">
        <ele>2396.2</ele>
        <time>2022-08-16T11:53:54Z</time>
      </trkpt>
      <trkpt lat="44.41788" lon="6.94326">
        <ele>2396.4</ele>
        <time>2022-08-16T11:53:55Z</time>
      </trkpt>
      <trkpt lat="44.41786" lon="6.94328">
        <ele>2396.4</ele>
        <time>2022-08-16T11:53:56Z</time>
      </trkpt>
      <trkpt lat="44.41784" lon="6.9433">
        <ele>2396.4</ele>
        <time>2022-08-16T11:53:57Z</time>
      </trkpt>
      <trkpt lat="44.41782" lon="6.94332">
        <ele>2396.6</ele>
        <time>2022-08-16T11:53:58Z</time>
      </trkpt>
      <trkpt lat="44.4178" lon="6.94334">
        <ele>2396.4</ele>
        <time>2022-08-16T11:53:59Z</time>
      </trkpt>
      <trkpt lat="44.41779" lon="6.94337">
        <ele>2396.6</ele>
        <time>2022-08-16T11:54:00Z</time>
      </trkpt>
      <trkpt lat="44.41778" lon="6.94339">
        <ele>2396.4</ele>
        <time>2022-08-16T11:54:01Z</time>
      </trkpt>
      <trkpt lat="44.41778" lon="6.94341">
        <ele>2396.6</ele>
        <time>2022-08-16T11:54:02Z</time>
      </trkpt>
      <trkpt lat="44.41777" lon="6.94343">
        <ele>2396.4</ele>
        <time>2022-08-16T11:54:03Z</time>
      </trkpt>
      <trkpt lat="44.41775" lon="6.94345">
        <ele>2396.4</ele>
        <time>2022-08-16T11:54:04Z</time>
      </trkpt>
      <trkpt lat="44.41774" lon="6.94345">
        <ele>2396.8</ele>
        <time>2022-08-16T11:54:05Z</time>
      </trkpt>
      <trkpt lat="44.41772" lon="6.94346">
        <ele>2396.6</ele>
        <time>2022-08-16T11:54:06Z</time>
      </trkpt>
      <trkpt lat="44.41771" lon="6.94347">
        <ele>2396.8</ele>
        <time>2022-08-16T11:54:07Z</time>
      </trkpt>
      <trkpt lat="44.4177" lon="6.94349">
        <ele>2397</ele>
        <time>2022-08-16T11:54:08Z</time>
      </trkpt>
      <trkpt lat="44.41769" lon="6.9435">
        <ele>2396.8</ele>
        <time>2022-08-16T11:54:09Z</time>
      </trkpt>
      <trkpt lat="44.41766" lon="6.94351">
        <ele>2397</ele>
        <time>2022-08-16T11:54:11Z</time>
      </trkpt>
      <trkpt lat="44.41765" lon="6.94352">
        <ele>2397</ele>
        <time>2022-08-16T11:54:12Z</time>
      </trkpt>
      <trkpt lat="44.41763" lon="6.94352">
        <ele>2397</ele>
        <time>2022-08-16T11:54:13Z</time>
      </trkpt>
      <trkpt lat="44.41758" lon="6.94354">
        <ele>2397.2</ele>
        <time>2022-08-16T11:54:16Z</time>
      </trkpt>
      <trkpt lat="44.41755" lon="6.94357">
        <ele>2397.6</ele>
        <time>2022-08-16T11:54:18Z</time>
      </trkpt>
      <trkpt lat="44.41754" lon="6.94358">
        <ele>2397.6</ele>
        <time>2022-08-16T11:54:19Z</time>
      </trkpt>
      <trkpt lat="44.41753" lon="6.9436">
        <ele>2397.6</ele>
        <time>2022-08-16T11:54:20Z</time>
      </trkpt>
      <trkpt lat="44.41747" lon="6.94364">
        <ele>2397.6</ele>
        <time>2022-08-16T11:54:23Z</time>
      </trkpt>
      <trkpt lat="44.41746" lon="6.94364">
        <ele>2397.8</ele>
        <time>2022-08-16T11:54:24Z</time>
      </trkpt>
      <trkpt lat="44.41746" lon="6.94365">
        <ele>2397.8</ele>
        <time>2022-08-16T11:54:25Z</time>
      </trkpt>
      <trkpt lat="44.41746" lon="6.94366">
        <ele>2397.8</ele>
        <time>2022-08-16T11:54:29Z</time>
      </trkpt>
      <trkpt lat="44.41746" lon="6.94366">
        <ele>2396.8</ele>
        <time>2022-08-16T11:54:38Z</time>
      </trkpt>
      <trkpt lat="44.41746" lon="6.94367">
        <ele>2396.4</ele>
        <time>2022-08-16T11:54:51Z</time>
      </trkpt>
      <trkpt lat="44.41746" lon="6.94367">
        <ele>2396.4</ele>
        <time>2022-08-16T11:54:54Z</time>
      </trkpt>
      <trkpt lat="44.41745" lon="6.94366">
        <ele>2396.4</ele>
        <time>2022-08-16T11:54:57Z</time>
      </trkpt>
      <trkpt lat="44.41744" lon="6.94366">
        <ele>2396.4</ele>
        <time>2022-08-16T11:54:58Z</time>
      </trkpt>
      <trkpt lat="44.41743" lon="6.94366">
        <ele>2396.6</ele>
        <time>2022-08-16T11:54:59Z</time>
      </trkpt>
      <trkpt lat="44.41742" lon="6.94365">
        <ele>2396.4</ele>
        <time>2022-08-16T11:55:00Z</time>
      </trkpt>
      <trkpt lat="44.41741" lon="6.94364">
        <ele>2396.6</ele>
        <time>2022-08-16T11:55:01Z</time>
      </trkpt>
      <trkpt lat="44.4174" lon="6.94364">
        <ele>2396.6</ele>
        <time>2022-08-16T11:55:02Z</time>
      </trkpt>
      <trkpt lat="44.41739" lon="6.94363">
        <ele>2396.6</ele>
        <time>2022-08-16T11:55:03Z</time>
      </trkpt>
      <trkpt lat="44.41738" lon="6.94363">
        <ele>2396.6</ele>
        <time>2022-08-16T11:55:04Z</time>
      </trkpt>
      <trkpt lat="44.41736" lon="6.94363">
        <ele>2396.6</ele>
        <time>2022-08-16T11:55:05Z</time>
      </trkpt>
      <trkpt lat="44.41734" lon="6.94363">
        <ele>2396.8</ele>
        <time>2022-08-16T11:55:06Z</time>
      </trkpt>
      <trkpt lat="44.4173" lon="6.94362">
        <ele>2396.8</ele>
        <time>2022-08-16T11:55:08Z</time>
      </trkpt>
      <trkpt lat="44.41729" lon="6.94364">
        <ele>2396.6</ele>
        <time>2022-08-16T11:55:09Z</time>
      </trkpt>
      <trkpt lat="44.41727" lon="6.94366">
        <ele>2396.6</ele>
        <time>2022-08-16T11:55:10Z</time>
      </trkpt>
      <trkpt lat="44.41724" lon="6.94368">
        <ele>2396.2</ele>
        <time>2022-08-16T11:55:11Z</time>
      </trkpt>
      <trkpt lat="44.41721" lon="6.94369">
        <ele>2395.8</ele>
        <time>2022-08-16T11:55:12Z</time>
      </trkpt>
      <trkpt lat="44.41718" lon="6.94371">
        <ele>2395.4</ele>
        <time>2022-08-16T11:55:13Z</time>
      </trkpt>
      <trkpt lat="44.41709" lon="6.94382">
        <ele>2391.4</ele>
        <time>2022-08-16T11:55:17Z</time>
      </trkpt>
      <trkpt lat="44.41706" lon="6.94385">
        <ele>2391.4</ele>
        <time>2022-08-16T11:55:18Z</time>
      </trkpt>
      <trkpt lat="44.41697" lon="6.9439">
        <ele>2389</ele>
        <time>2022-08-16T11:55:21Z</time>
      </trkpt>
      <trkpt lat="44.41694" lon="6.94391">
        <ele>2388.6</ele>
        <time>2022-08-16T11:55:22Z</time>
      </trkpt>
      <trkpt lat="44.41693" lon="6.94391">
        <ele>2388.2</ele>
        <time>2022-08-16T11:55:23Z</time>
      </trkpt>
      <trkpt lat="44.41691" lon="6.94392">
        <ele>2387.8</ele>
        <time>2022-08-16T11:55:24Z</time>
      </trkpt>
      <trkpt lat="44.41687" lon="6.94394">
        <ele>2387.4</ele>
        <time>2022-08-16T11:55:26Z</time>
      </trkpt>
      <trkpt lat="44.41682" lon="6.94395">
        <ele>2386.6</ele>
        <time>2022-08-16T11:55:28Z</time>
      </trkpt>
      <trkpt lat="44.41679" lon="6.94396">
        <ele>2386.2</ele>
        <time>2022-08-16T11:55:29Z</time>
      </trkpt>
      <trkpt lat="44.41675" lon="6.94397">
        <ele>2385.8</ele>
        <time>2022-08-16T11:55:30Z</time>
      </trkpt>
      <trkpt lat="44.41671" lon="6.94398">
        <ele>2385.4</ele>
        <time>2022-08-16T11:55:31Z</time>
      </trkpt>
      <trkpt lat="44.41657" lon="6.94401">
        <ele>2384.2</ele>
        <time>2022-08-16T11:55:34Z</time>
      </trkpt>
      <trkpt lat="44.41654" lon="6.94403">
        <ele>2384.2</ele>
        <time>2022-08-16T11:55:35Z</time>
      </trkpt>
      <trkpt lat="44.41651" lon="6.94407">
        <ele>2384.2</ele>
        <time>2022-08-16T11:55:36Z</time>
      </trkpt>
      <trkpt lat="44.41648" lon="6.9441">
        <ele>2383.8</ele>
        <time>2022-08-16T11:55:37Z</time>
      </trkpt>
      <trkpt lat="44.41645" lon="6.94411">
        <ele>2383.6</ele>
        <time>2022-08-16T11:55:38Z</time>
      </trkpt>
      <trkpt lat="44.41642" lon="6.94412">
        <ele>2383.4</ele>
        <time>2022-08-16T11:55:39Z</time>
      </trkpt>
      <trkpt lat="44.41639" lon="6.94413">
        <ele>2382.6</ele>
        <time>2022-08-16T11:55:40Z</time>
      </trkpt>
      <trkpt lat="44.41636" lon="6.94413">
        <ele>2382.6</ele>
        <time>2022-08-16T11:55:41Z</time>
      </trkpt>
      <trkpt lat="44.41634" lon="6.94414">
        <ele>2382.2</ele>
        <time>2022-08-16T11:55:42Z</time>
      </trkpt>
      <trkpt lat="44.41631" lon="6.94415">
        <ele>2381.8</ele>
        <time>2022-08-16T11:55:43Z</time>
      </trkpt>
      <trkpt lat="44.41629" lon="6.94416">
        <ele>2381.2</ele>
        <time>2022-08-16T11:55:44Z</time>
      </trkpt>
      <trkpt lat="44.41626" lon="6.94417">
        <ele>2380.4</ele>
        <time>2022-08-16T11:55:45Z</time>
      </trkpt>
      <trkpt lat="44.41624" lon="6.94419">
        <ele>2379.2</ele>
        <time>2022-08-16T11:55:46Z</time>
      </trkpt>
      <trkpt lat="44.41622" lon="6.94421">
        <ele>2378.4</ele>
        <time>2022-08-16T11:55:47Z</time>
      </trkpt>
      <trkpt lat="44.4162" lon="6.94423">
        <ele>2378</ele>
        <time>2022-08-16T11:55:48Z</time>
      </trkpt>
      <trkpt lat="44.41618" lon="6.94425">
        <ele>2377.6</ele>
        <time>2022-08-16T11:55:49Z</time>
      </trkpt>
      <trkpt lat="44.41617" lon="6.94426">
        <ele>2377.6</ele>
        <time>2022-08-16T11:55:50Z</time>
      </trkpt>
      <trkpt lat="44.41615" lon="6.94428">
        <ele>2377.4</ele>
        <time>2022-08-16T11:55:51Z</time>
      </trkpt>
      <trkpt lat="44.41614" lon="6.94429">
        <ele>2377</ele>
        <time>2022-08-16T11:55:52Z</time>
      </trkpt>
      <trkpt lat="44.41612" lon="6.9443">
        <ele>2376.6</ele>
        <time>2022-08-16T11:55:53Z</time>
      </trkpt>
      <trkpt lat="44.41612" lon="6.9443">
        <ele>2376.4</ele>
        <time>2022-08-16T11:55:54Z</time>
      </trkpt>
      <trkpt lat="44.41611" lon="6.94432">
        <ele>2376</ele>
        <time>2022-08-16T11:55:55Z</time>
      </trkpt>
      <trkpt lat="44.4161" lon="6.94434">
        <ele>2375</ele>
        <time>2022-08-16T11:55:56Z</time>
      </trkpt>
      <trkpt lat="44.41606" lon="6.94437">
        <ele>2374</ele>
        <time>2022-08-16T11:55:58Z</time>
      </trkpt>
      <trkpt lat="44.41604" lon="6.94439">
        <ele>2373.6</ele>
        <time>2022-08-16T11:55:59Z</time>
      </trkpt>
      <trkpt lat="44.41603" lon="6.94441">
        <ele>2373.4</ele>
        <time>2022-08-16T11:56:00Z</time>
      </trkpt>
      <trkpt lat="44.41603" lon="6.94442">
        <ele>2373.2</ele>
        <time>2022-08-16T11:56:01Z</time>
      </trkpt>
      <trkpt lat="44.41602" lon="6.94442">
        <ele>2373</ele>
        <time>2022-08-16T11:56:02Z</time>
      </trkpt>
      <trkpt lat="44.41601" lon="6.94443">
        <ele>2373</ele>
        <time>2022-08-16T11:56:03Z</time>
      </trkpt>
      <trkpt lat="44.416" lon="6.94444">
        <ele>2372.6</ele>
        <time>2022-08-16T11:56:04Z</time>
      </trkpt>
      <trkpt lat="44.41598" lon="6.94444">
        <ele>2372.2</ele>
        <time>2022-08-16T11:56:05Z</time>
      </trkpt>
      <trkpt lat="44.41595" lon="6.94445">
        <ele>2371.2</ele>
        <time>2022-08-16T11:56:06Z</time>
      </trkpt>
      <trkpt lat="44.41593" lon="6.94448">
        <ele>2370.8</ele>
        <time>2022-08-16T11:56:07Z</time>
      </trkpt>
      <trkpt lat="44.41589" lon="6.94452">
        <ele>2370.2</ele>
        <time>2022-08-16T11:56:09Z</time>
      </trkpt>
      <trkpt lat="44.41587" lon="6.94453">
        <ele>2370</ele>
        <time>2022-08-16T11:56:10Z</time>
      </trkpt>
      <trkpt lat="44.41585" lon="6.94454">
        <ele>2369.8</ele>
        <time>2022-08-16T11:56:11Z</time>
      </trkpt>
      <trkpt lat="44.4158" lon="6.94455">
        <ele>2369.2</ele>
        <time>2022-08-16T11:56:13Z</time>
      </trkpt>
      <trkpt lat="44.41574" lon="6.94454">
        <ele>2368.8</ele>
        <time>2022-08-16T11:56:15Z</time>
      </trkpt>
      <trkpt lat="44.4157" lon="6.94455">
        <ele>2368.6</ele>
        <time>2022-08-16T11:56:16Z</time>
      </trkpt>
      <trkpt lat="44.41563" lon="6.94456">
        <ele>2368.4</ele>
        <time>2022-08-16T11:56:18Z</time>
      </trkpt>
      <trkpt lat="44.41561" lon="6.9446">
        <ele>2368.2</ele>
        <time>2022-08-16T11:56:19Z</time>
      </trkpt>
      <trkpt lat="44.41559" lon="6.94464">
        <ele>2368.2</ele>
        <time>2022-08-16T11:56:20Z</time>
      </trkpt>
      <trkpt lat="44.41558" lon="6.94468">
        <ele>2368.2</ele>
        <time>2022-08-16T11:56:21Z</time>
      </trkpt>
      <trkpt lat="44.41557" lon="6.94472">
        <ele>2368.2</ele>
        <time>2022-08-16T11:56:22Z</time>
      </trkpt>
      <trkpt lat="44.41557" lon="6.94476">
        <ele>2367.8</ele>
        <time>2022-08-16T11:56:23Z</time>
      </trkpt>
      <trkpt lat="44.41557" lon="6.94479">
        <ele>2367.6</ele>
        <time>2022-08-16T11:56:24Z</time>
      </trkpt>
      <trkpt lat="44.41554" lon="6.94486">
        <ele>2367.6</ele>
        <time>2022-08-16T11:56:26Z</time>
      </trkpt>
      <trkpt lat="44.41551" lon="6.94489">
        <ele>2367</ele>
        <time>2022-08-16T11:56:27Z</time>
      </trkpt>
      <trkpt lat="44.41548" lon="6.94491">
        <ele>2366</ele>
        <time>2022-08-16T11:56:28Z</time>
      </trkpt>
      <trkpt lat="44.41545" lon="6.94495">
        <ele>2364.8</ele>
        <time>2022-08-16T11:56:29Z</time>
      </trkpt>
      <trkpt lat="44.41543" lon="6.94498">
        <ele>2364</ele>
        <time>2022-08-16T11:56:30Z</time>
      </trkpt>
      <trkpt lat="44.41542" lon="6.94502">
        <ele>2362.8</ele>
        <time>2022-08-16T11:56:31Z</time>
      </trkpt>
      <trkpt lat="44.4154" lon="6.94505">
        <ele>2361.8</ele>
        <time>2022-08-16T11:56:32Z</time>
      </trkpt>
      <trkpt lat="44.41539" lon="6.94507">
        <ele>2361.2</ele>
        <time>2022-08-16T11:56:33Z</time>
      </trkpt>
      <trkpt lat="44.41537" lon="6.94513">
        <ele>2360.2</ele>
        <time>2022-08-16T11:56:35Z</time>
      </trkpt>
      <trkpt lat="44.41536" lon="6.94515">
        <ele>2359.8</ele>
        <time>2022-08-16T11:56:36Z</time>
      </trkpt>
      <trkpt lat="44.41535" lon="6.94518">
        <ele>2358.8</ele>
        <time>2022-08-16T11:56:37Z</time>
      </trkpt>
      <trkpt lat="44.41535" lon="6.94521">
        <ele>2357.8</ele>
        <time>2022-08-16T11:56:38Z</time>
      </trkpt>
      <trkpt lat="44.41535" lon="6.94524">
        <ele>2357.2</ele>
        <time>2022-08-16T11:56:39Z</time>
      </trkpt>
      <trkpt lat="44.41535" lon="6.94527">
        <ele>2356.6</ele>
        <time>2022-08-16T11:56:40Z</time>
      </trkpt>
      <trkpt lat="44.41536" lon="6.9453">
        <ele>2356.4</ele>
        <time>2022-08-16T11:56:41Z</time>
      </trkpt>
      <trkpt lat="44.41536" lon="6.94534">
        <ele>2355.6</ele>
        <time>2022-08-16T11:56:42Z</time>
      </trkpt>
      <trkpt lat="44.41537" lon="6.94537">
        <ele>2355</ele>
        <time>2022-08-16T11:56:43Z</time>
      </trkpt>
      <trkpt lat="44.41536" lon="6.94539">
        <ele>2354</ele>
        <time>2022-08-16T11:56:44Z</time>
      </trkpt>
      <trkpt lat="44.41536" lon="6.94541">
        <ele>2353.6</ele>
        <time>2022-08-16T11:56:45Z</time>
      </trkpt>
      <trkpt lat="44.41536" lon="6.94546">
        <ele>2352.2</ele>
        <time>2022-08-16T11:56:47Z</time>
      </trkpt>
      <trkpt lat="44.41535" lon="6.94548">
        <ele>2351.6</ele>
        <time>2022-08-16T11:56:48Z</time>
      </trkpt>
      <trkpt lat="44.41534" lon="6.9455">
        <ele>2351.6</ele>
        <time>2022-08-16T11:56:49Z</time>
      </trkpt>
      <trkpt lat="44.41533" lon="6.94552">
        <ele>2350.6</ele>
        <time>2022-08-16T11:56:50Z</time>
      </trkpt>
      <trkpt lat="44.41532" lon="6.94555">
        <ele>2350</ele>
        <time>2022-08-16T11:56:51Z</time>
      </trkpt>
      <trkpt lat="44.41531" lon="6.94556">
        <ele>2349.8</ele>
        <time>2022-08-16T11:56:52Z</time>
      </trkpt>
      <trkpt lat="44.41529" lon="6.94558">
        <ele>2349.2</ele>
        <time>2022-08-16T11:56:53Z</time>
      </trkpt>
      <trkpt lat="44.41528" lon="6.94559">
        <ele>2348.6</ele>
        <time>2022-08-16T11:56:54Z</time>
      </trkpt>
      <trkpt lat="44.41527" lon="6.94561">
        <ele>2348</ele>
        <time>2022-08-16T11:56:55Z</time>
      </trkpt>
      <trkpt lat="44.41527" lon="6.94562">
        <ele>2347.8</ele>
        <time>2022-08-16T11:56:56Z</time>
      </trkpt>
      <trkpt lat="44.41528" lon="6.94563">
        <ele>2347.2</ele>
        <time>2022-08-16T11:56:57Z</time>
      </trkpt>
      <trkpt lat="44.41532" lon="6.94564">
        <ele>2346</ele>
        <time>2022-08-16T11:56:59Z</time>
      </trkpt>
      <trkpt lat="44.41534" lon="6.94564">
        <ele>2345.4</ele>
        <time>2022-08-16T11:57:00Z</time>
      </trkpt>
      <trkpt lat="44.41536" lon="6.94564">
        <ele>2344.6</ele>
        <time>2022-08-16T11:57:01Z</time>
      </trkpt>
      <trkpt lat="44.41538" lon="6.94564">
        <ele>2343.8</ele>
        <time>2022-08-16T11:57:02Z</time>
      </trkpt>
      <trkpt lat="44.41545" lon="6.94567">
        <ele>2341.6</ele>
        <time>2022-08-16T11:57:05Z</time>
      </trkpt>
      <trkpt lat="44.41548" lon="6.94567">
        <ele>2341.2</ele>
        <time>2022-08-16T11:57:06Z</time>
      </trkpt>
      <trkpt lat="44.41549" lon="6.94568">
        <ele>2340.6</ele>
        <time>2022-08-16T11:57:07Z</time>
      </trkpt>
      <trkpt lat="44.41551" lon="6.9457">
        <ele>2340.2</ele>
        <time>2022-08-16T11:57:08Z</time>
      </trkpt>
      <trkpt lat="44.41555" lon="6.94574">
        <ele>2339.8</ele>
        <time>2022-08-16T11:57:10Z</time>
      </trkpt>
      <trkpt lat="44.41558" lon="6.94577">
        <ele>2339.6</ele>
        <time>2022-08-16T11:57:11Z</time>
      </trkpt>
      <trkpt lat="44.41561" lon="6.94585">
        <ele>2339.6</ele>
        <time>2022-08-16T11:57:13Z</time>
      </trkpt>
      <trkpt lat="44.4156" lon="6.94588">
        <ele>2339.4</ele>
        <time>2022-08-16T11:57:14Z</time>
      </trkpt>
      <trkpt lat="44.41559" lon="6.94591">
        <ele>2339.4</ele>
        <time>2022-08-16T11:57:15Z</time>
      </trkpt>
      <trkpt lat="44.41556" lon="6.94595">
        <ele>2339.2</ele>
        <time>2022-08-16T11:57:17Z</time>
      </trkpt>
      <trkpt lat="44.41554" lon="6.94596">
        <ele>2339.2</ele>
        <time>2022-08-16T11:57:18Z</time>
      </trkpt>
      <trkpt lat="44.4155" lon="6.94591">
        <ele>2337.2</ele>
        <time>2022-08-16T11:57:21Z</time>
      </trkpt>
      <trkpt lat="44.41548" lon="6.94593">
        <ele>2336</ele>
        <time>2022-08-16T11:57:22Z</time>
      </trkpt>
      <trkpt lat="44.41543" lon="6.94601">
        <ele>2334.8</ele>
        <time>2022-08-16T11:57:24Z</time>
      </trkpt>
      <trkpt lat="44.41541" lon="6.94607">
        <ele>2334.4</ele>
        <time>2022-08-16T11:57:25Z</time>
      </trkpt>
      <trkpt lat="44.41538" lon="6.94612">
        <ele>2333.6</ele>
        <time>2022-08-16T11:57:26Z</time>
      </trkpt>
      <trkpt lat="44.41536" lon="6.94624">
        <ele>2333</ele>
        <time>2022-08-16T11:57:28Z</time>
      </trkpt>
      <trkpt lat="44.41534" lon="6.94632">
        <ele>2332.6</ele>
        <time>2022-08-16T11:57:29Z</time>
      </trkpt>
      <trkpt lat="44.41533" lon="6.94641">
        <ele>2331.8</ele>
        <time>2022-08-16T11:57:30Z</time>
      </trkpt>
      <trkpt lat="44.4153" lon="6.94648">
        <ele>2330.6</ele>
        <time>2022-08-16T11:57:31Z</time>
      </trkpt>
      <trkpt lat="44.41526" lon="6.94653">
        <ele>2330</ele>
        <time>2022-08-16T11:57:32Z</time>
      </trkpt>
      <trkpt lat="44.41521" lon="6.94658">
        <ele>2328.6</ele>
        <time>2022-08-16T11:57:33Z</time>
      </trkpt>
      <trkpt lat="44.41516" lon="6.94664">
        <ele>2328.6</ele>
        <time>2022-08-16T11:57:34Z</time>
      </trkpt>
      <trkpt lat="44.41511" lon="6.9467">
        <ele>2327.6</ele>
        <time>2022-08-16T11:57:35Z</time>
      </trkpt>
      <trkpt lat="44.41505" lon="6.94675">
        <ele>2325.8</ele>
        <time>2022-08-16T11:57:36Z</time>
      </trkpt>
      <trkpt lat="44.415" lon="6.94678">
        <ele>2324.8</ele>
        <time>2022-08-16T11:57:37Z</time>
      </trkpt>
      <trkpt lat="44.41494" lon="6.94679">
        <ele>2324</ele>
        <time>2022-08-16T11:57:38Z</time>
      </trkpt>
      <trkpt lat="44.41489" lon="6.94678">
        <ele>2321.6</ele>
        <time>2022-08-16T11:57:39Z</time>
      </trkpt>
      <trkpt lat="44.41485" lon="6.94676">
        <ele>2319.8</ele>
        <time>2022-08-16T11:57:40Z</time>
      </trkpt>
      <trkpt lat="44.41482" lon="6.94672">
        <ele>2318.2</ele>
        <time>2022-08-16T11:57:41Z</time>
      </trkpt>
      <trkpt lat="44.4148" lon="6.94668">
        <ele>2317.2</ele>
        <time>2022-08-16T11:57:42Z</time>
      </trkpt>
      <trkpt lat="44.41477" lon="6.94665">
        <ele>2316</ele>
        <time>2022-08-16T11:57:43Z</time>
      </trkpt>
      <trkpt lat="44.41475" lon="6.94662">
        <ele>2315.2</ele>
        <time>2022-08-16T11:57:44Z</time>
      </trkpt>
      <trkpt lat="44.41472" lon="6.94662">
        <ele>2314.8</ele>
        <time>2022-08-16T11:57:45Z</time>
      </trkpt>
      <trkpt lat="44.41469" lon="6.94661">
        <ele>2314.4</ele>
        <time>2022-08-16T11:57:46Z</time>
      </trkpt>
      <trkpt lat="44.41461" lon="6.94659">
        <ele>2313.6</ele>
        <time>2022-08-16T11:57:48Z</time>
      </trkpt>
      <trkpt lat="44.41457" lon="6.94658">
        <ele>2313.2</ele>
        <time>2022-08-16T11:57:49Z</time>
      </trkpt>
      <trkpt lat="44.41453" lon="6.94658">
        <ele>2313.2</ele>
        <time>2022-08-16T11:57:50Z</time>
      </trkpt>
      <trkpt lat="44.41449" lon="6.94659">
        <ele>2313</ele>
        <time>2022-08-16T11:57:51Z</time>
      </trkpt>
      <trkpt lat="44.41445" lon="6.9466">
        <ele>2312.6</ele>
        <time>2022-08-16T11:57:52Z</time>
      </trkpt>
      <trkpt lat="44.41441" lon="6.9466">
        <ele>2312.2</ele>
        <time>2022-08-16T11:57:53Z</time>
      </trkpt>
      <trkpt lat="44.41432" lon="6.94654">
        <ele>2310</ele>
        <time>2022-08-16T11:57:55Z</time>
      </trkpt>
      <trkpt lat="44.41428" lon="6.94649">
        <ele>2310</ele>
        <time>2022-08-16T11:57:56Z</time>
      </trkpt>
      <trkpt lat="44.41423" lon="6.94642">
        <ele>2309</ele>
        <time>2022-08-16T11:57:57Z</time>
      </trkpt>
      <trkpt lat="44.41417" lon="6.94638">
        <ele>2308.2</ele>
        <time>2022-08-16T11:57:58Z</time>
      </trkpt>
      <trkpt lat="44.41411" lon="6.94634">
        <ele>2306.4</ele>
        <time>2022-08-16T11:57:59Z</time>
      </trkpt>
      <trkpt lat="44.41404" lon="6.9463">
        <ele>2304.8</ele>
        <time>2022-08-16T11:58:00Z</time>
      </trkpt>
      <trkpt lat="44.41398" lon="6.94628">
        <ele>2303.4</ele>
        <time>2022-08-16T11:58:01Z</time>
      </trkpt>
      <trkpt lat="44.41392" lon="6.94628">
        <ele>2302.2</ele>
        <time>2022-08-16T11:58:02Z</time>
      </trkpt>
      <trkpt lat="44.41386" lon="6.94629">
        <ele>2301.6</ele>
        <time>2022-08-16T11:58:03Z</time>
      </trkpt>
      <trkpt lat="44.41381" lon="6.9463">
        <ele>2301</ele>
        <time>2022-08-16T11:58:04Z</time>
      </trkpt>
      <trkpt lat="44.41377" lon="6.9463">
        <ele>2300.4</ele>
        <time>2022-08-16T11:58:05Z</time>
      </trkpt>
      <trkpt lat="44.41373" lon="6.94632">
        <ele>2300</ele>
        <time>2022-08-16T11:58:06Z</time>
      </trkpt>
      <trkpt lat="44.4137" lon="6.94635">
        <ele>2299.8</ele>
        <time>2022-08-16T11:58:07Z</time>
      </trkpt>
      <trkpt lat="44.41367" lon="6.94637">
        <ele>2299</ele>
        <time>2022-08-16T11:58:08Z</time>
      </trkpt>
      <trkpt lat="44.41359" lon="6.94641">
        <ele>2298.4</ele>
        <time>2022-08-16T11:58:10Z</time>
      </trkpt>
      <trkpt lat="44.41355" lon="6.94642">
        <ele>2298.2</ele>
        <time>2022-08-16T11:58:11Z</time>
      </trkpt>
      <trkpt lat="44.41351" lon="6.94643">
        <ele>2298.2</ele>
        <time>2022-08-16T11:58:12Z</time>
      </trkpt>
      <trkpt lat="44.41347" lon="6.94645">
        <ele>2298</ele>
        <time>2022-08-16T11:58:13Z</time>
      </trkpt>
      <trkpt lat="44.41344" lon="6.94646">
        <ele>2298</ele>
        <time>2022-08-16T11:58:14Z</time>
      </trkpt>
      <trkpt lat="44.41341" lon="6.94647">
        <ele>2298.2</ele>
        <time>2022-08-16T11:58:15Z</time>
      </trkpt>
      <trkpt lat="44.41339" lon="6.94648">
        <ele>2298.2</ele>
        <time>2022-08-16T11:58:16Z</time>
      </trkpt>
      <trkpt lat="44.41337" lon="6.94649">
        <ele>2298.2</ele>
        <time>2022-08-16T11:58:17Z</time>
      </trkpt>
      <trkpt lat="44.41336" lon="6.9465">
        <ele>2298.4</ele>
        <time>2022-08-16T11:58:18Z</time>
      </trkpt>
      <trkpt lat="44.41332" lon="6.94653">
        <ele>2298.4</ele>
        <time>2022-08-16T11:58:20Z</time>
      </trkpt>
      <trkpt lat="44.4133" lon="6.94653">
        <ele>2298.6</ele>
        <time>2022-08-16T11:58:21Z</time>
      </trkpt>
      <trkpt lat="44.41328" lon="6.94653">
        <ele>2298.6</ele>
        <time>2022-08-16T11:58:22Z</time>
      </trkpt>
      <trkpt lat="44.41325" lon="6.94654">
        <ele>2299.2</ele>
        <time>2022-08-16T11:58:24Z</time>
      </trkpt>
      <trkpt lat="44.41323" lon="6.94655">
        <ele>2299.6</ele>
        <time>2022-08-16T11:58:25Z</time>
      </trkpt>
      <trkpt lat="44.41321" lon="6.94656">
        <ele>2300</ele>
        <time>2022-08-16T11:58:26Z</time>
      </trkpt>
      <trkpt lat="44.41319" lon="6.94656">
        <ele>2300</ele>
        <time>2022-08-16T11:58:27Z</time>
      </trkpt>
      <trkpt lat="44.41318" lon="6.94657">
        <ele>2300.2</ele>
        <time>2022-08-16T11:58:28Z</time>
      </trkpt>
      <trkpt lat="44.41316" lon="6.94658">
        <ele>2300.2</ele>
        <time>2022-08-16T11:58:29Z</time>
      </trkpt>
      <trkpt lat="44.41314" lon="6.94658">
        <ele>2300.4</ele>
        <time>2022-08-16T11:58:30Z</time>
      </trkpt>
      <trkpt lat="44.41313" lon="6.94659">
        <ele>2300.6</ele>
        <time>2022-08-16T11:58:31Z</time>
      </trkpt>
      <trkpt lat="44.41311" lon="6.94661">
        <ele>2300.6</ele>
        <time>2022-08-16T11:58:32Z</time>
      </trkpt>
      <trkpt lat="44.41301" lon="6.94664">
        <ele>2301</ele>
        <time>2022-08-16T11:58:36Z</time>
      </trkpt>
      <trkpt lat="44.41299" lon="6.94664">
        <ele>2301.2</ele>
        <time>2022-08-16T11:58:37Z</time>
      </trkpt>
      <trkpt lat="44.41296" lon="6.94665">
        <ele>2301</ele>
        <time>2022-08-16T11:58:38Z</time>
      </trkpt>
      <trkpt lat="44.41288" lon="6.94668">
        <ele>2301</ele>
        <time>2022-08-16T11:58:41Z</time>
      </trkpt>
      <trkpt lat="44.41285" lon="6.94669">
        <ele>2301</ele>
        <time>2022-08-16T11:58:42Z</time>
      </trkpt>
      <trkpt lat="44.41282" lon="6.9467">
        <ele>2300.8</ele>
        <time>2022-08-16T11:58:43Z</time>
      </trkpt>
      <trkpt lat="44.41279" lon="6.94672">
        <ele>2300.6</ele>
        <time>2022-08-16T11:58:44Z</time>
      </trkpt>
      <trkpt lat="44.41277" lon="6.94672">
        <ele>2300.6</ele>
        <time>2022-08-16T11:58:45Z</time>
      </trkpt>
      <trkpt lat="44.41274" lon="6.94673">
        <ele>2300.4</ele>
        <time>2022-08-16T11:58:46Z</time>
      </trkpt>
      <trkpt lat="44.41271" lon="6.94673">
        <ele>2300.6</ele>
        <time>2022-08-16T11:58:47Z</time>
      </trkpt>
      <trkpt lat="44.41269" lon="6.94673">
        <ele>2300.8</ele>
        <time>2022-08-16T11:58:48Z</time>
      </trkpt>
      <trkpt lat="44.41267" lon="6.94673">
        <ele>2301</ele>
        <time>2022-08-16T11:58:49Z</time>
      </trkpt>
      <trkpt lat="44.41265" lon="6.94673">
        <ele>2301.2</ele>
        <time>2022-08-16T11:58:50Z</time>
      </trkpt>
      <trkpt lat="44.41264" lon="6.94674">
        <ele>2301</ele>
        <time>2022-08-16T11:58:51Z</time>
      </trkpt>
      <trkpt lat="44.41262" lon="6.94674">
        <ele>2301.2</ele>
        <time>2022-08-16T11:58:52Z</time>
      </trkpt>
      <trkpt lat="44.41261" lon="6.94675">
        <ele>2301</ele>
        <time>2022-08-16T11:58:53Z</time>
      </trkpt>
      <trkpt lat="44.4126" lon="6.94676">
        <ele>2301.2</ele>
        <time>2022-08-16T11:58:54Z</time>
      </trkpt>
      <trkpt lat="44.41258" lon="6.94676">
        <ele>2301.2</ele>
        <time>2022-08-16T11:58:55Z</time>
      </trkpt>
      <trkpt lat="44.41257" lon="6.94677">
        <ele>2301.2</ele>
        <time>2022-08-16T11:58:56Z</time>
      </trkpt>
      <trkpt lat="44.41252" lon="6.94679">
        <ele>2302</ele>
        <time>2022-08-16T11:58:59Z</time>
      </trkpt>
      <trkpt lat="44.41251" lon="6.94679">
        <ele>2302.2</ele>
        <time>2022-08-16T11:59:00Z</time>
      </trkpt>
      <trkpt lat="44.41249" lon="6.94681">
        <ele>2302.4</ele>
        <time>2022-08-16T11:59:01Z</time>
      </trkpt>
      <trkpt lat="44.41248" lon="6.94682">
        <ele>2302.6</ele>
        <time>2022-08-16T11:59:02Z</time>
      </trkpt>
      <trkpt lat="44.41246" lon="6.94683">
        <ele>2302.6</ele>
        <time>2022-08-16T11:59:03Z</time>
      </trkpt>
      <trkpt lat="44.41245" lon="6.94683">
        <ele>2302.8</ele>
        <time>2022-08-16T11:59:04Z</time>
      </trkpt>
      <trkpt lat="44.41244" lon="6.94684">
        <ele>2302.8</ele>
        <time>2022-08-16T11:59:05Z</time>
      </trkpt>
      <trkpt lat="44.41242" lon="6.94684">
        <ele>2303</ele>
        <time>2022-08-16T11:59:06Z</time>
      </trkpt>
      <trkpt lat="44.41241" lon="6.94684">
        <ele>2303</ele>
        <time>2022-08-16T11:59:07Z</time>
      </trkpt>
      <trkpt lat="44.4124" lon="6.94683">
        <ele>2303.2</ele>
        <time>2022-08-16T11:59:08Z</time>
      </trkpt>
      <trkpt lat="44.41238" lon="6.94683">
        <ele>2303.4</ele>
        <time>2022-08-16T11:59:09Z</time>
      </trkpt>
      <trkpt lat="44.41237" lon="6.94682">
        <ele>2303.8</ele>
        <time>2022-08-16T11:59:10Z</time>
      </trkpt>
      <trkpt lat="44.41236" lon="6.94682">
        <ele>2304.2</ele>
        <time>2022-08-16T11:59:11Z</time>
      </trkpt>
      <trkpt lat="44.41234" lon="6.94681">
        <ele>2304.4</ele>
        <time>2022-08-16T11:59:12Z</time>
      </trkpt>
      <trkpt lat="44.41232" lon="6.94681">
        <ele>2304.6</ele>
        <time>2022-08-16T11:59:13Z</time>
      </trkpt>
      <trkpt lat="44.4123" lon="6.94681">
        <ele>2304.8</ele>
        <time>2022-08-16T11:59:14Z</time>
      </trkpt>
      <trkpt lat="44.41228" lon="6.94682">
        <ele>2305.2</ele>
        <time>2022-08-16T11:59:15Z</time>
      </trkpt>
      <trkpt lat="44.41225" lon="6.94683">
        <ele>2305.8</ele>
        <time>2022-08-16T11:59:16Z</time>
      </trkpt>
      <trkpt lat="44.41222" lon="6.94684">
        <ele>2305.8</ele>
        <time>2022-08-16T11:59:17Z</time>
      </trkpt>
      <trkpt lat="44.41219" lon="6.94686">
        <ele>2306</ele>
        <time>2022-08-16T11:59:18Z</time>
      </trkpt>
      <trkpt lat="44.41217" lon="6.94688">
        <ele>2306.2</ele>
        <time>2022-08-16T11:59:19Z</time>
      </trkpt>
      <trkpt lat="44.41214" lon="6.9469">
        <ele>2306.2</ele>
        <time>2022-08-16T11:59:20Z</time>
      </trkpt>
      <trkpt lat="44.41212" lon="6.94692">
        <ele>2306.4</ele>
        <time>2022-08-16T11:59:21Z</time>
      </trkpt>
      <trkpt lat="44.41209" lon="6.94694">
        <ele>2306.4</ele>
        <time>2022-08-16T11:59:22Z</time>
      </trkpt>
      <trkpt lat="44.41206" lon="6.94696">
        <ele>2306.2</ele>
        <time>2022-08-16T11:59:23Z</time>
      </trkpt>
      <trkpt lat="44.41203" lon="6.94699">
        <ele>2306.4</ele>
        <time>2022-08-16T11:59:24Z</time>
      </trkpt>
      <trkpt lat="44.41191" lon="6.94706">
        <ele>2306.4</ele>
        <time>2022-08-16T11:59:28Z</time>
      </trkpt>
      <trkpt lat="44.41189" lon="6.94707">
        <ele>2306.4</ele>
        <time>2022-08-16T11:59:29Z</time>
      </trkpt>
      <trkpt lat="44.41186" lon="6.94708">
        <ele>2306.4</ele>
        <time>2022-08-16T11:59:30Z</time>
      </trkpt>
      <trkpt lat="44.41184" lon="6.9471">
        <ele>2306.2</ele>
        <time>2022-08-16T11:59:31Z</time>
      </trkpt>
      <trkpt lat="44.41181" lon="6.94712">
        <ele>2305</ele>
        <time>2022-08-16T11:59:32Z</time>
      </trkpt>
      <trkpt lat="44.41179" lon="6.94714">
        <ele>2303.6</ele>
        <time>2022-08-16T11:59:33Z</time>
      </trkpt>
      <trkpt lat="44.41177" lon="6.94715">
        <ele>2302.8</ele>
        <time>2022-08-16T11:59:34Z</time>
      </trkpt>
      <trkpt lat="44.41174" lon="6.94715">
        <ele>2302.4</ele>
        <time>2022-08-16T11:59:35Z</time>
      </trkpt>
      <trkpt lat="44.41172" lon="6.94714">
        <ele>2302.2</ele>
        <time>2022-08-16T11:59:36Z</time>
      </trkpt>
      <trkpt lat="44.4117" lon="6.94714">
        <ele>2302</ele>
        <time>2022-08-16T11:59:37Z</time>
      </trkpt>
      <trkpt lat="44.41169" lon="6.94715">
        <ele>2301.8</ele>
        <time>2022-08-16T11:59:38Z</time>
      </trkpt>
      <trkpt lat="44.41168" lon="6.94718">
        <ele>2301.6</ele>
        <time>2022-08-16T11:59:39Z</time>
      </trkpt>
      <trkpt lat="44.41166" lon="6.9472">
        <ele>2301</ele>
        <time>2022-08-16T11:59:40Z</time>
      </trkpt>
      <trkpt lat="44.41164" lon="6.94722">
        <ele>2299</ele>
        <time>2022-08-16T11:59:41Z</time>
      </trkpt>
      <trkpt lat="44.4116" lon="6.94725">
        <ele>2297.2</ele>
        <time>2022-08-16T11:59:42Z</time>
      </trkpt>
      <trkpt lat="44.41153" lon="6.94731">
        <ele>2295.6</ele>
        <time>2022-08-16T11:59:44Z</time>
      </trkpt>
      <trkpt lat="44.41149" lon="6.94736">
        <ele>2294.6</ele>
        <time>2022-08-16T11:59:45Z</time>
      </trkpt>
      <trkpt lat="44.41144" lon="6.94741">
        <ele>2293.2</ele>
        <time>2022-08-16T11:59:46Z</time>
      </trkpt>
      <trkpt lat="44.4114" lon="6.94746">
        <ele>2291.8</ele>
        <time>2022-08-16T11:59:47Z</time>
      </trkpt>
      <trkpt lat="44.41136" lon="6.94751">
        <ele>2290.6</ele>
        <time>2022-08-16T11:59:48Z</time>
      </trkpt>
      <trkpt lat="44.41132" lon="6.94755">
        <ele>2289.8</ele>
        <time>2022-08-16T11:59:49Z</time>
      </trkpt>
      <trkpt lat="44.41129" lon="6.9476">
        <ele>2289.8</ele>
        <time>2022-08-16T11:59:50Z</time>
      </trkpt>
      <trkpt lat="44.41127" lon="6.94764">
        <ele>2288.8</ele>
        <time>2022-08-16T11:59:51Z</time>
      </trkpt>
      <trkpt lat="44.41124" lon="6.94768">
        <ele>2286.8</ele>
        <time>2022-08-16T11:59:52Z</time>
      </trkpt>
      <trkpt lat="44.41122" lon="6.94773">
        <ele>2285.4</ele>
        <time>2022-08-16T11:59:53Z</time>
      </trkpt>
      <trkpt lat="44.41119" lon="6.94779">
        <ele>2284.6</ele>
        <time>2022-08-16T11:59:54Z</time>
      </trkpt>
      <trkpt lat="44.41116" lon="6.94784">
        <ele>2283.6</ele>
        <time>2022-08-16T11:59:55Z</time>
      </trkpt>
      <trkpt lat="44.41113" lon="6.9479">
        <ele>2281.8</ele>
        <time>2022-08-16T11:59:56Z</time>
      </trkpt>
      <trkpt lat="44.41109" lon="6.94795">
        <ele>2280.8</ele>
        <time>2022-08-16T11:59:57Z</time>
      </trkpt>
      <trkpt lat="44.41099" lon="6.94805">
        <ele>2279.6</ele>
        <time>2022-08-16T11:59:59Z</time>
      </trkpt>
      <trkpt lat="44.41092" lon="6.94808">
        <ele>2277.8</ele>
        <time>2022-08-16T12:00:00Z</time>
      </trkpt>
      <trkpt lat="44.41086" lon="6.94809">
        <ele>2276.8</ele>
        <time>2022-08-16T12:00:01Z</time>
      </trkpt>
      <trkpt lat="44.4108" lon="6.94809">
        <ele>2275.6</ele>
        <time>2022-08-16T12:00:02Z</time>
      </trkpt>
      <trkpt lat="44.41076" lon="6.94808">
        <ele>2273.8</ele>
        <time>2022-08-16T12:00:03Z</time>
      </trkpt>
      <trkpt lat="44.41074" lon="6.94806">
        <ele>2273</ele>
        <time>2022-08-16T12:00:04Z</time>
      </trkpt>
      <trkpt lat="44.41074" lon="6.94803">
        <ele>2271.2</ele>
        <time>2022-08-16T12:00:05Z</time>
      </trkpt>
      <trkpt lat="44.41072" lon="6.94798">
        <ele>2269</ele>
        <time>2022-08-16T12:00:06Z</time>
      </trkpt>
      <trkpt lat="44.4107" lon="6.94788">
        <ele>2265</ele>
        <time>2022-08-16T12:00:08Z</time>
      </trkpt>
      <trkpt lat="44.41068" lon="6.94785">
        <ele>2263.4</ele>
        <time>2022-08-16T12:00:09Z</time>
      </trkpt>
      <trkpt lat="44.41066" lon="6.94784">
        <ele>2261.4</ele>
        <time>2022-08-16T12:00:10Z</time>
      </trkpt>
      <trkpt lat="44.41063" lon="6.94784">
        <ele>2260</ele>
        <time>2022-08-16T12:00:11Z</time>
      </trkpt>
      <trkpt lat="44.41057" lon="6.94788">
        <ele>2259.4</ele>
        <time>2022-08-16T12:00:13Z</time>
      </trkpt>
      <trkpt lat="44.41055" lon="6.94788">
        <ele>2258.8</ele>
        <time>2022-08-16T12:00:14Z</time>
      </trkpt>
      <trkpt lat="44.41053" lon="6.94788">
        <ele>2258</ele>
        <time>2022-08-16T12:00:15Z</time>
      </trkpt>
      <trkpt lat="44.41052" lon="6.94786">
        <ele>2257.4</ele>
        <time>2022-08-16T12:00:16Z</time>
      </trkpt>
      <trkpt lat="44.41051" lon="6.94784">
        <ele>2256.8</ele>
        <time>2022-08-16T12:00:17Z</time>
      </trkpt>
      <trkpt lat="44.41049" lon="6.94782">
        <ele>2256.4</ele>
        <time>2022-08-16T12:00:18Z</time>
      </trkpt>
      <trkpt lat="44.41047" lon="6.9478">
        <ele>2255.4</ele>
        <time>2022-08-16T12:00:19Z</time>
      </trkpt>
      <trkpt lat="44.41045" lon="6.94779">
        <ele>2254.8</ele>
        <time>2022-08-16T12:00:20Z</time>
      </trkpt>
      <trkpt lat="44.41043" lon="6.94778">
        <ele>2254.6</ele>
        <time>2022-08-16T12:00:21Z</time>
      </trkpt>
      <trkpt lat="44.41042" lon="6.94776">
        <ele>2252.4</ele>
        <time>2022-08-16T12:00:22Z</time>
      </trkpt>
      <trkpt lat="44.4104" lon="6.94774">
        <ele>2250.6</ele>
        <time>2022-08-16T12:00:23Z</time>
      </trkpt>
      <trkpt lat="44.41039" lon="6.94773">
        <ele>2249.6</ele>
        <time>2022-08-16T12:00:24Z</time>
      </trkpt>
      <trkpt lat="44.41038" lon="6.94771">
        <ele>2249.2</ele>
        <time>2022-08-16T12:00:25Z</time>
      </trkpt>
      <trkpt lat="44.41036" lon="6.94769">
        <ele>2248.8</ele>
        <time>2022-08-16T12:00:26Z</time>
      </trkpt>
      <trkpt lat="44.41033" lon="6.94768">
        <ele>2247.6</ele>
        <time>2022-08-16T12:00:27Z</time>
      </trkpt>
      <trkpt lat="44.41031" lon="6.94767">
        <ele>2246.6</ele>
        <time>2022-08-16T12:00:28Z</time>
      </trkpt>
      <trkpt lat="44.41028" lon="6.94768">
        <ele>2245.6</ele>
        <time>2022-08-16T12:00:29Z</time>
      </trkpt>
      <trkpt lat="44.41026" lon="6.94768">
        <ele>2244.2</ele>
        <time>2022-08-16T12:00:30Z</time>
      </trkpt>
      <trkpt lat="44.41025" lon="6.94768">
        <ele>2243.6</ele>
        <time>2022-08-16T12:00:31Z</time>
      </trkpt>
      <trkpt lat="44.41024" lon="6.94766">
        <ele>2243.4</ele>
        <time>2022-08-16T12:00:32Z</time>
      </trkpt>
      <trkpt lat="44.41024" lon="6.94764">
        <ele>2242.6</ele>
        <time>2022-08-16T12:00:33Z</time>
      </trkpt>
      <trkpt lat="44.41026" lon="6.9475">
        <ele>2240</ele>
        <time>2022-08-16T12:00:36Z</time>
      </trkpt>
      <trkpt lat="44.41026" lon="6.94745">
        <ele>2238.2</ele>
        <time>2022-08-16T12:00:37Z</time>
      </trkpt>
      <trkpt lat="44.41025" lon="6.94739">
        <ele>2237.4</ele>
        <time>2022-08-16T12:00:38Z</time>
      </trkpt>
      <trkpt lat="44.41025" lon="6.94734">
        <ele>2236.6</ele>
        <time>2022-08-16T12:00:39Z</time>
      </trkpt>
      <trkpt lat="44.41027" lon="6.94724">
        <ele>2235.4</ele>
        <time>2022-08-16T12:00:41Z</time>
      </trkpt>
      <trkpt lat="44.4103" lon="6.94712">
        <ele>2235</ele>
        <time>2022-08-16T12:00:43Z</time>
      </trkpt>
      <trkpt lat="44.41033" lon="6.94708">
        <ele>2234.6</ele>
        <time>2022-08-16T12:00:44Z</time>
      </trkpt>
      <trkpt lat="44.41035" lon="6.94704">
        <ele>2233.8</ele>
        <time>2022-08-16T12:00:45Z</time>
      </trkpt>
      <trkpt lat="44.41036" lon="6.94701">
        <ele>2232.6</ele>
        <time>2022-08-16T12:00:46Z</time>
      </trkpt>
      <trkpt lat="44.41037" lon="6.94697">
        <ele>2230.6</ele>
        <time>2022-08-16T12:00:47Z</time>
      </trkpt>
      <trkpt lat="44.41039" lon="6.94694">
        <ele>2229.2</ele>
        <time>2022-08-16T12:00:48Z</time>
      </trkpt>
      <trkpt lat="44.4104" lon="6.94691">
        <ele>2228.4</ele>
        <time>2022-08-16T12:00:49Z</time>
      </trkpt>
      <trkpt lat="44.41042" lon="6.94689">
        <ele>2227.6</ele>
        <time>2022-08-16T12:00:50Z</time>
      </trkpt>
      <trkpt lat="44.41044" lon="6.94686">
        <ele>2227.4</ele>
        <time>2022-08-16T12:00:51Z</time>
      </trkpt>
      <trkpt lat="44.41052" lon="6.94676">
        <ele>2227</ele>
        <time>2022-08-16T12:00:54Z</time>
      </trkpt>
      <trkpt lat="44.41055" lon="6.94671">
        <ele>2227</ele>
        <time>2022-08-16T12:00:55Z</time>
      </trkpt>
      <trkpt lat="44.41056" lon="6.94667">
        <ele>2226.8</ele>
        <time>2022-08-16T12:00:56Z</time>
      </trkpt>
      <trkpt lat="44.41057" lon="6.94662">
        <ele>2226.6</ele>
        <time>2022-08-16T12:00:57Z</time>
      </trkpt>
      <trkpt lat="44.41058" lon="6.94658">
        <ele>2226.6</ele>
        <time>2022-08-16T12:00:58Z</time>
      </trkpt>
      <trkpt lat="44.41058" lon="6.94656">
        <ele>2226.6</ele>
        <time>2022-08-16T12:00:59Z</time>
      </trkpt>
      <trkpt lat="44.41057" lon="6.94656">
        <ele>2226.2</ele>
        <time>2022-08-16T12:01:00Z</time>
      </trkpt>
      <trkpt lat="44.41056" lon="6.94657">
        <ele>2225.8</ele>
        <time>2022-08-16T12:01:01Z</time>
      </trkpt>
      <trkpt lat="44.41053" lon="6.94659">
        <ele>2225.6</ele>
        <time>2022-08-16T12:01:02Z</time>
      </trkpt>
      <trkpt lat="44.41046" lon="6.94664">
        <ele>2225.2</ele>
        <time>2022-08-16T12:01:04Z</time>
      </trkpt>
      <trkpt lat="44.41043" lon="6.94665">
        <ele>2225</ele>
        <time>2022-08-16T12:01:05Z</time>
      </trkpt>
      <trkpt lat="44.4104" lon="6.94664">
        <ele>2224.4</ele>
        <time>2022-08-16T12:01:06Z</time>
      </trkpt>
      <trkpt lat="44.41037" lon="6.94664">
        <ele>2223.8</ele>
        <time>2022-08-16T12:01:07Z</time>
      </trkpt>
      <trkpt lat="44.41034" lon="6.94666">
        <ele>2223.2</ele>
        <time>2022-08-16T12:01:08Z</time>
      </trkpt>
      <trkpt lat="44.41032" lon="6.94668">
        <ele>2222.6</ele>
        <time>2022-08-16T12:01:09Z</time>
      </trkpt>
      <trkpt lat="44.4103" lon="6.94669">
        <ele>2221.8</ele>
        <time>2022-08-16T12:01:10Z</time>
      </trkpt>
      <trkpt lat="44.41028" lon="6.94668">
        <ele>2220.4</ele>
        <time>2022-08-16T12:01:11Z</time>
      </trkpt>
      <trkpt lat="44.41025" lon="6.94668">
        <ele>2219.6</ele>
        <time>2022-08-16T12:01:12Z</time>
      </trkpt>
      <trkpt lat="44.41023" lon="6.94669">
        <ele>2218.6</ele>
        <time>2022-08-16T12:01:13Z</time>
      </trkpt>
      <trkpt lat="44.41021" lon="6.94668">
        <ele>2218</ele>
        <time>2022-08-16T12:01:14Z</time>
      </trkpt>
      <trkpt lat="44.4102" lon="6.94665">
        <ele>2217.4</ele>
        <time>2022-08-16T12:01:15Z</time>
      </trkpt>
      <trkpt lat="44.41019" lon="6.94661">
        <ele>2217</ele>
        <time>2022-08-16T12:01:16Z</time>
      </trkpt>
      <trkpt lat="44.41018" lon="6.94656">
        <ele>2216.4</ele>
        <time>2022-08-16T12:01:17Z</time>
      </trkpt>
      <trkpt lat="44.41019" lon="6.94652">
        <ele>2216</ele>
        <time>2022-08-16T12:01:18Z</time>
      </trkpt>
      <trkpt lat="44.41022" lon="6.94648">
        <ele>2215.2</ele>
        <time>2022-08-16T12:01:19Z</time>
      </trkpt>
      <trkpt lat="44.4103" lon="6.94639">
        <ele>2214.6</ele>
        <time>2022-08-16T12:01:21Z</time>
      </trkpt>
      <trkpt lat="44.41035" lon="6.94635">
        <ele>2213.4</ele>
        <time>2022-08-16T12:01:22Z</time>
      </trkpt>
      <trkpt lat="44.41038" lon="6.9463">
        <ele>2212.6</ele>
        <time>2022-08-16T12:01:23Z</time>
      </trkpt>
      <trkpt lat="44.4104" lon="6.94626">
        <ele>2212.2</ele>
        <time>2022-08-16T12:01:24Z</time>
      </trkpt>
      <trkpt lat="44.41041" lon="6.94621">
        <ele>2211.8</ele>
        <time>2022-08-16T12:01:25Z</time>
      </trkpt>
      <trkpt lat="44.41043" lon="6.94615">
        <ele>2211.2</ele>
        <time>2022-08-16T12:01:26Z</time>
      </trkpt>
      <trkpt lat="44.41044" lon="6.94609">
        <ele>2210.2</ele>
        <time>2022-08-16T12:01:27Z</time>
      </trkpt>
      <trkpt lat="44.41045" lon="6.94604">
        <ele>2208.6</ele>
        <time>2022-08-16T12:01:28Z</time>
      </trkpt>
      <trkpt lat="44.41045" lon="6.94599">
        <ele>2207.8</ele>
        <time>2022-08-16T12:01:29Z</time>
      </trkpt>
      <trkpt lat="44.41046" lon="6.94595">
        <ele>2207.4</ele>
        <time>2022-08-16T12:01:30Z</time>
      </trkpt>
      <trkpt lat="44.41047" lon="6.94591">
        <ele>2206.8</ele>
        <time>2022-08-16T12:01:31Z</time>
      </trkpt>
      <trkpt lat="44.41047" lon="6.94587">
        <ele>2206.4</ele>
        <time>2022-08-16T12:01:32Z</time>
      </trkpt>
      <trkpt lat="44.41047" lon="6.94584">
        <ele>2205.8</ele>
        <time>2022-08-16T12:01:33Z</time>
      </trkpt>
      <trkpt lat="44.41046" lon="6.94582">
        <ele>2205.2</ele>
        <time>2022-08-16T12:01:34Z</time>
      </trkpt>
      <trkpt lat="44.41046" lon="6.9458">
        <ele>2204.8</ele>
        <time>2022-08-16T12:01:35Z</time>
      </trkpt>
      <trkpt lat="44.41046" lon="6.94579">
        <ele>2203.4</ele>
        <time>2022-08-16T12:01:36Z</time>
      </trkpt>
      <trkpt lat="44.41047" lon="6.94576">
        <ele>2201.2</ele>
        <time>2022-08-16T12:01:37Z</time>
      </trkpt>
      <trkpt lat="44.41049" lon="6.94573">
        <ele>2200</ele>
        <time>2022-08-16T12:01:38Z</time>
      </trkpt>
      <trkpt lat="44.41051" lon="6.9457">
        <ele>2198.8</ele>
        <time>2022-08-16T12:01:39Z</time>
      </trkpt>
      <trkpt lat="44.41053" lon="6.94564">
        <ele>2196.8</ele>
        <time>2022-08-16T12:01:40Z</time>
      </trkpt>
      <trkpt lat="44.41055" lon="6.94558">
        <ele>2195.4</ele>
        <time>2022-08-16T12:01:41Z</time>
      </trkpt>
      <trkpt lat="44.41057" lon="6.94552">
        <ele>2194.4</ele>
        <time>2022-08-16T12:01:42Z</time>
      </trkpt>
      <trkpt lat="44.41064" lon="6.94542">
        <ele>2194</ele>
        <time>2022-08-16T12:01:44Z</time>
      </trkpt>
      <trkpt lat="44.41068" lon="6.94536">
        <ele>2193.6</ele>
        <time>2022-08-16T12:01:45Z</time>
      </trkpt>
      <trkpt lat="44.41072" lon="6.94531">
        <ele>2193</ele>
        <time>2022-08-16T12:01:46Z</time>
      </trkpt>
      <trkpt lat="44.41077" lon="6.94528">
        <ele>2192.2</ele>
        <time>2022-08-16T12:01:47Z</time>
      </trkpt>
      <trkpt lat="44.41081" lon="6.94526">
        <ele>2191</ele>
        <time>2022-08-16T12:01:48Z</time>
      </trkpt>
      <trkpt lat="44.41085" lon="6.94523">
        <ele>2190</ele>
        <time>2022-08-16T12:01:49Z</time>
      </trkpt>
      <trkpt lat="44.41088" lon="6.94519">
        <ele>2189.4</ele>
        <time>2022-08-16T12:01:50Z</time>
      </trkpt>
      <trkpt lat="44.41096" lon="6.9451">
        <ele>2186.4</ele>
        <time>2022-08-16T12:01:52Z</time>
      </trkpt>
      <trkpt lat="44.411" lon="6.94502">
        <ele>2185.6</ele>
        <time>2022-08-16T12:01:53Z</time>
      </trkpt>
      <trkpt lat="44.41105" lon="6.94495">
        <ele>2184.4</ele>
        <time>2022-08-16T12:01:54Z</time>
      </trkpt>
      <trkpt lat="44.4111" lon="6.94489">
        <ele>2183.4</ele>
        <time>2022-08-16T12:01:55Z</time>
      </trkpt>
      <trkpt lat="44.41113" lon="6.94484">
        <ele>2182.8</ele>
        <time>2022-08-16T12:01:56Z</time>
      </trkpt>
      <trkpt lat="44.41117" lon="6.9448">
        <ele>2182.4</ele>
        <time>2022-08-16T12:01:57Z</time>
      </trkpt>
      <trkpt lat="44.4112" lon="6.94475">
        <ele>2182.2</ele>
        <time>2022-08-16T12:01:58Z</time>
      </trkpt>
      <trkpt lat="44.41123" lon="6.9447">
        <ele>2181.8</ele>
        <time>2022-08-16T12:01:59Z</time>
      </trkpt>
      <trkpt lat="44.41125" lon="6.94465">
        <ele>2181.6</ele>
        <time>2022-08-16T12:02:00Z</time>
      </trkpt>
      <trkpt lat="44.41126" lon="6.9446">
        <ele>2179.8</ele>
        <time>2022-08-16T12:02:01Z</time>
      </trkpt>
      <trkpt lat="44.41128" lon="6.94455">
        <ele>2177.8</ele>
        <time>2022-08-16T12:02:02Z</time>
      </trkpt>
      <trkpt lat="44.41128" lon="6.94451">
        <ele>2175.8</ele>
        <time>2022-08-16T12:02:03Z</time>
      </trkpt>
      <trkpt lat="44.41127" lon="6.94447">
        <ele>2174.4</ele>
        <time>2022-08-16T12:02:04Z</time>
      </trkpt>
      <trkpt lat="44.41125" lon="6.94444">
        <ele>2173.2</ele>
        <time>2022-08-16T12:02:05Z</time>
      </trkpt>
      <trkpt lat="44.41122" lon="6.94441">
        <ele>2173.2</ele>
        <time>2022-08-16T12:02:06Z</time>
      </trkpt>
      <trkpt lat="44.41118" lon="6.94438">
        <ele>2172.6</ele>
        <time>2022-08-16T12:02:07Z</time>
      </trkpt>
      <trkpt lat="44.41111" lon="6.94432">
        <ele>2170.6</ele>
        <time>2022-08-16T12:02:09Z</time>
      </trkpt>
      <trkpt lat="44.41109" lon="6.94429">
        <ele>2169.4</ele>
        <time>2022-08-16T12:02:10Z</time>
      </trkpt>
      <trkpt lat="44.41108" lon="6.94426">
        <ele>2168.4</ele>
        <time>2022-08-16T12:02:11Z</time>
      </trkpt>
      <trkpt lat="44.41109" lon="6.94424">
        <ele>2167.8</ele>
        <time>2022-08-16T12:02:12Z</time>
      </trkpt>
      <trkpt lat="44.4111" lon="6.94423">
        <ele>2167.4</ele>
        <time>2022-08-16T12:02:13Z</time>
      </trkpt>
      <trkpt lat="44.41111" lon="6.9442">
        <ele>2166.6</ele>
        <time>2022-08-16T12:02:14Z</time>
      </trkpt>
      <trkpt lat="44.41112" lon="6.94416">
        <ele>2165.8</ele>
        <time>2022-08-16T12:02:15Z</time>
      </trkpt>
      <trkpt lat="44.41111" lon="6.9441">
        <ele>2163.8</ele>
        <time>2022-08-16T12:02:16Z</time>
      </trkpt>
      <trkpt lat="44.41112" lon="6.94404">
        <ele>2162.4</ele>
        <time>2022-08-16T12:02:17Z</time>
      </trkpt>
      <trkpt lat="44.41112" lon="6.94398">
        <ele>2161.4</ele>
        <time>2022-08-16T12:02:18Z</time>
      </trkpt>
      <trkpt lat="44.41113" lon="6.94391">
        <ele>2160.6</ele>
        <time>2022-08-16T12:02:19Z</time>
      </trkpt>
      <trkpt lat="44.41113" lon="6.94383">
        <ele>2159.6</ele>
        <time>2022-08-16T12:02:20Z</time>
      </trkpt>
      <trkpt lat="44.41115" lon="6.94376">
        <ele>2158.6</ele>
        <time>2022-08-16T12:02:21Z</time>
      </trkpt>
      <trkpt lat="44.41116" lon="6.9437">
        <ele>2157.8</ele>
        <time>2022-08-16T12:02:22Z</time>
      </trkpt>
      <trkpt lat="44.41116" lon="6.94365">
        <ele>2157</ele>
        <time>2022-08-16T12:02:23Z</time>
      </trkpt>
      <trkpt lat="44.41114" lon="6.9436">
        <ele>2156.2</ele>
        <time>2022-08-16T12:02:24Z</time>
      </trkpt>
      <trkpt lat="44.41113" lon="6.94356">
        <ele>2155.4</ele>
        <time>2022-08-16T12:02:25Z</time>
      </trkpt>
      <trkpt lat="44.41111" lon="6.94352">
        <ele>2154.4</ele>
        <time>2022-08-16T12:02:26Z</time>
      </trkpt>
      <trkpt lat="44.41109" lon="6.94348">
        <ele>2153.8</ele>
        <time>2022-08-16T12:02:27Z</time>
      </trkpt>
      <trkpt lat="44.41109" lon="6.94342">
        <ele>2153.8</ele>
        <time>2022-08-16T12:02:28Z</time>
      </trkpt>
      <trkpt lat="44.41108" lon="6.94336">
        <ele>2152.6</ele>
        <time>2022-08-16T12:02:29Z</time>
      </trkpt>
      <trkpt lat="44.41108" lon="6.94329">
        <ele>2151.8</ele>
        <time>2022-08-16T12:02:30Z</time>
      </trkpt>
      <trkpt lat="44.41107" lon="6.94324">
        <ele>2150.8</ele>
        <time>2022-08-16T12:02:31Z</time>
      </trkpt>
      <trkpt lat="44.41106" lon="6.9432">
        <ele>2150.2</ele>
        <time>2022-08-16T12:02:32Z</time>
      </trkpt>
      <trkpt lat="44.41105" lon="6.94316">
        <ele>2149.8</ele>
        <time>2022-08-16T12:02:33Z</time>
      </trkpt>
      <trkpt lat="44.41105" lon="6.94312">
        <ele>2149.2</ele>
        <time>2022-08-16T12:02:34Z</time>
      </trkpt>
      <trkpt lat="44.41105" lon="6.94308">
        <ele>2148.6</ele>
        <time>2022-08-16T12:02:35Z</time>
      </trkpt>
      <trkpt lat="44.41105" lon="6.94305">
        <ele>2147.6</ele>
        <time>2022-08-16T12:02:36Z</time>
      </trkpt>
      <trkpt lat="44.41105" lon="6.94304">
        <ele>2146</ele>
        <time>2022-08-16T12:02:37Z</time>
      </trkpt>
      <trkpt lat="44.41104" lon="6.94302">
        <ele>2145</ele>
        <time>2022-08-16T12:02:38Z</time>
      </trkpt>
      <trkpt lat="44.41103" lon="6.943">
        <ele>2143.4</ele>
        <time>2022-08-16T12:02:39Z</time>
      </trkpt>
      <trkpt lat="44.41101" lon="6.94298">
        <ele>2142.4</ele>
        <time>2022-08-16T12:02:40Z</time>
      </trkpt>
      <trkpt lat="44.411" lon="6.94295">
        <ele>2142</ele>
        <time>2022-08-16T12:02:41Z</time>
      </trkpt>
      <trkpt lat="44.41098" lon="6.94293">
        <ele>2141.6</ele>
        <time>2022-08-16T12:02:42Z</time>
      </trkpt>
      <trkpt lat="44.41093" lon="6.94286">
        <ele>2140.8</ele>
        <time>2022-08-16T12:02:44Z</time>
      </trkpt>
      <trkpt lat="44.41091" lon="6.94283">
        <ele>2140.4</ele>
        <time>2022-08-16T12:02:45Z</time>
      </trkpt>
      <trkpt lat="44.4109" lon="6.94279">
        <ele>2140</ele>
        <time>2022-08-16T12:02:46Z</time>
      </trkpt>
      <trkpt lat="44.41089" lon="6.94276">
        <ele>2140</ele>
        <time>2022-08-16T12:02:47Z</time>
      </trkpt>
      <trkpt lat="44.41088" lon="6.94272">
        <ele>2139.6</ele>
        <time>2022-08-16T12:02:48Z</time>
      </trkpt>
      <trkpt lat="44.41087" lon="6.94269">
        <ele>2139.4</ele>
        <time>2022-08-16T12:02:49Z</time>
      </trkpt>
      <trkpt lat="44.41086" lon="6.94265">
        <ele>2139</ele>
        <time>2022-08-16T12:02:50Z</time>
      </trkpt>
      <trkpt lat="44.41086" lon="6.94262">
        <ele>2139</ele>
        <time>2022-08-16T12:02:51Z</time>
      </trkpt>
      <trkpt lat="44.41085" lon="6.94253">
        <ele>2138.4</ele>
        <time>2022-08-16T12:02:53Z</time>
      </trkpt>
      <trkpt lat="44.41085" lon="6.9425">
        <ele>2138</ele>
        <time>2022-08-16T12:02:54Z</time>
      </trkpt>
      <trkpt lat="44.41084" lon="6.94246">
        <ele>2137.6</ele>
        <time>2022-08-16T12:02:55Z</time>
      </trkpt>
      <trkpt lat="44.41083" lon="6.94243">
        <ele>2137.4</ele>
        <time>2022-08-16T12:02:56Z</time>
      </trkpt>
      <trkpt lat="44.41082" lon="6.9424">
        <ele>2137.4</ele>
        <time>2022-08-16T12:02:57Z</time>
      </trkpt>
      <trkpt lat="44.41082" lon="6.94238">
        <ele>2137.2</ele>
        <time>2022-08-16T12:02:58Z</time>
      </trkpt>
      <trkpt lat="44.41081" lon="6.94236">
        <ele>2137</ele>
        <time>2022-08-16T12:02:59Z</time>
      </trkpt>
      <trkpt lat="44.41081" lon="6.94236">
        <ele>2137</ele>
        <time>2022-08-16T12:03:02Z</time>
      </trkpt>
      <trkpt lat="44.41081" lon="6.9423">
        <ele>2135</ele>
        <time>2022-08-16T12:03:08Z</time>
      </trkpt>
      <trkpt lat="44.41081" lon="6.94229">
        <ele>2134.8</ele>
        <time>2022-08-16T12:03:09Z</time>
      </trkpt>
      <trkpt lat="44.41082" lon="6.94229">
        <ele>2134.8</ele>
        <time>2022-08-16T12:03:10Z</time>
      </trkpt>
      <trkpt lat="44.41082" lon="6.94229">
        <ele>2134.8</ele>
        <time>2022-08-16T12:03:11Z</time>
      </trkpt>
      <trkpt lat="44.41083" lon="6.94228">
        <ele>2134.8</ele>
        <time>2022-08-16T12:03:12Z</time>
      </trkpt>
      <trkpt lat="44.41083" lon="6.94227">
        <ele>2134.8</ele>
        <time>2022-08-16T12:03:13Z</time>
      </trkpt>
      <trkpt lat="44.41084" lon="6.94227">
        <ele>2134.8</ele>
        <time>2022-08-16T12:03:14Z</time>
      </trkpt>
      <trkpt lat="44.41084" lon="6.94226">
        <ele>2134.8</ele>
        <time>2022-08-16T12:03:15Z</time>
      </trkpt>
      <trkpt lat="44.41084" lon="6.94225">
        <ele>2134.8</ele>
        <time>2022-08-16T12:03:16Z</time>
      </trkpt>
      <trkpt lat="44.41085" lon="6.94224">
        <ele>2134.8</ele>
        <time>2022-08-16T12:03:17Z</time>
      </trkpt>
      <trkpt lat="44.41085" lon="6.94223">
        <ele>2134.8</ele>
        <time>2022-08-16T12:03:18Z</time>
      </trkpt>
      <trkpt lat="44.41085" lon="6.94222">
        <ele>2134.8</ele>
        <time>2022-08-16T12:03:20Z</time>
      </trkpt>
      <trkpt lat="44.41087" lon="6.94216">
        <ele>2134.8</ele>
        <time>2022-08-16T12:03:29Z</time>
      </trkpt>
      <trkpt lat="44.41088" lon="6.9421">
        <ele>2134.6</ele>
        <time>2022-08-16T12:03:30Z</time>
      </trkpt>
      <trkpt lat="44.41089" lon="6.94203">
        <ele>2134.4</ele>
        <time>2022-08-16T12:03:31Z</time>
      </trkpt>
      <trkpt lat="44.4109" lon="6.94197">
        <ele>2134.6</ele>
        <time>2022-08-16T12:03:32Z</time>
      </trkpt>
      <trkpt lat="44.4109" lon="6.94191">
        <ele>2134.4</ele>
        <time>2022-08-16T12:03:33Z</time>
      </trkpt>
      <trkpt lat="44.41087" lon="6.94163">
        <ele>2134.2</ele>
        <time>2022-08-16T12:03:37Z</time>
      </trkpt>
      <trkpt lat="44.41086" lon="6.94155">
        <ele>2134.2</ele>
        <time>2022-08-16T12:03:38Z</time>
      </trkpt>
      <trkpt lat="44.41086" lon="6.94147">
        <ele>2133.4</ele>
        <time>2022-08-16T12:03:39Z</time>
      </trkpt>
      <trkpt lat="44.41086" lon="6.94138">
        <ele>2132.8</ele>
        <time>2022-08-16T12:03:40Z</time>
      </trkpt>
      <trkpt lat="44.41086" lon="6.9413">
        <ele>2131.4</ele>
        <time>2022-08-16T12:03:41Z</time>
      </trkpt>
      <trkpt lat="44.41087" lon="6.94121">
        <ele>2130.6</ele>
        <time>2022-08-16T12:03:42Z</time>
      </trkpt>
      <trkpt lat="44.41088" lon="6.94113">
        <ele>2130.4</ele>
        <time>2022-08-16T12:03:43Z</time>
      </trkpt>
      <trkpt lat="44.41088" lon="6.94105">
        <ele>2130</ele>
        <time>2022-08-16T12:03:44Z</time>
      </trkpt>
      <trkpt lat="44.41088" lon="6.94097">
        <ele>2129.4</ele>
        <time>2022-08-16T12:03:45Z</time>
      </trkpt>
      <trkpt lat="44.41087" lon="6.9409">
        <ele>2129</ele>
        <time>2022-08-16T12:03:46Z</time>
      </trkpt>
      <trkpt lat="44.41087" lon="6.94084">
        <ele>2128.6</ele>
        <time>2022-08-16T12:03:47Z</time>
      </trkpt>
      <trkpt lat="44.41088" lon="6.94069">
        <ele>2126.6</ele>
        <time>2022-08-16T12:03:49Z</time>
      </trkpt>
      <trkpt lat="44.41089" lon="6.94061">
        <ele>2126</ele>
        <time>2022-08-16T12:03:50Z</time>
      </trkpt>
      <trkpt lat="44.41091" lon="6.94053">
        <ele>2125.2</ele>
        <time>2022-08-16T12:03:51Z</time>
      </trkpt>
      <trkpt lat="44.41097" lon="6.94039">
        <ele>2122.4</ele>
        <time>2022-08-16T12:03:53Z</time>
      </trkpt>
      <trkpt lat="44.41099" lon="6.94032">
        <ele>2121.6</ele>
        <time>2022-08-16T12:03:54Z</time>
      </trkpt>
      <trkpt lat="44.41101" lon="6.94025">
        <ele>2120.4</ele>
        <time>2022-08-16T12:03:55Z</time>
      </trkpt>
      <trkpt lat="44.41104" lon="6.94019">
        <ele>2119.6</ele>
        <time>2022-08-16T12:03:56Z</time>
      </trkpt>
      <trkpt lat="44.41105" lon="6.94013">
        <ele>2119</ele>
        <time>2022-08-16T12:03:57Z</time>
      </trkpt>
      <trkpt lat="44.41105" lon="6.94006">
        <ele>2119</ele>
        <time>2022-08-16T12:03:58Z</time>
      </trkpt>
      <trkpt lat="44.41105" lon="6.94">
        <ele>2119</ele>
        <time>2022-08-16T12:03:59Z</time>
      </trkpt>
      <trkpt lat="44.41105" lon="6.93994">
        <ele>2117.8</ele>
        <time>2022-08-16T12:04:00Z</time>
      </trkpt>
      <trkpt lat="44.41105" lon="6.93989">
        <ele>2117</ele>
        <time>2022-08-16T12:04:01Z</time>
      </trkpt>
      <trkpt lat="44.41106" lon="6.93986">
        <ele>2116.6</ele>
        <time>2022-08-16T12:04:02Z</time>
      </trkpt>
      <trkpt lat="44.41106" lon="6.93984">
        <ele>2116.2</ele>
        <time>2022-08-16T12:04:03Z</time>
      </trkpt>
      <trkpt lat="44.41105" lon="6.93981">
        <ele>2116</ele>
        <time>2022-08-16T12:04:04Z</time>
      </trkpt>
      <trkpt lat="44.41105" lon="6.93978">
        <ele>2116</ele>
        <time>2022-08-16T12:04:05Z</time>
      </trkpt>
      <trkpt lat="44.41105" lon="6.93975">
        <ele>2116</ele>
        <time>2022-08-16T12:04:06Z</time>
      </trkpt>
      <trkpt lat="44.41105" lon="6.93972">
        <ele>2116</ele>
        <time>2022-08-16T12:04:07Z</time>
      </trkpt>
      <trkpt lat="44.41105" lon="6.9397">
        <ele>2115.8</ele>
        <time>2022-08-16T12:04:08Z</time>
      </trkpt>
      <trkpt lat="44.41106" lon="6.93967">
        <ele>2115.8</ele>
        <time>2022-08-16T12:04:09Z</time>
      </trkpt>
      <trkpt lat="44.41107" lon="6.93965">
        <ele>2115.8</ele>
        <time>2022-08-16T12:04:10Z</time>
      </trkpt>
      <trkpt lat="44.41112" lon="6.93952">
        <ele>2116.4</ele>
        <time>2022-08-16T12:04:15Z</time>
      </trkpt>
      <trkpt lat="44.41113" lon="6.93949">
        <ele>2116.6</ele>
        <time>2022-08-16T12:04:16Z</time>
      </trkpt>
      <trkpt lat="44.41113" lon="6.93942">
        <ele>2116.8</ele>
        <time>2022-08-16T12:04:18Z</time>
      </trkpt>
      <trkpt lat="44.41114" lon="6.93939">
        <ele>2117</ele>
        <time>2022-08-16T12:04:19Z</time>
      </trkpt>
      <trkpt lat="44.41114" lon="6.93934">
        <ele>2117</ele>
        <time>2022-08-16T12:04:20Z</time>
      </trkpt>
      <trkpt lat="44.41114" lon="6.9392">
        <ele>2116.8</ele>
        <time>2022-08-16T12:04:23Z</time>
      </trkpt>
      <trkpt lat="44.41115" lon="6.93917">
        <ele>2116.8</ele>
        <time>2022-08-16T12:04:24Z</time>
      </trkpt>
      <trkpt lat="44.41115" lon="6.93915">
        <ele>2116.8</ele>
        <time>2022-08-16T12:04:25Z</time>
      </trkpt>
      <trkpt lat="44.41116" lon="6.93913">
        <ele>2117</ele>
        <time>2022-08-16T12:04:26Z</time>
      </trkpt>
      <trkpt lat="44.41117" lon="6.93911">
        <ele>2117</ele>
        <time>2022-08-16T12:04:27Z</time>
      </trkpt>
      <trkpt lat="44.41117" lon="6.93909">
        <ele>2116.8</ele>
        <time>2022-08-16T12:04:28Z</time>
      </trkpt>
      <trkpt lat="44.41117" lon="6.93908">
        <ele>2117</ele>
        <time>2022-08-16T12:04:29Z</time>
      </trkpt>
      <trkpt lat="44.41118" lon="6.93904">
        <ele>2116.8</ele>
        <time>2022-08-16T12:04:31Z</time>
      </trkpt>
      <trkpt lat="44.41118" lon="6.93903">
        <ele>2116.8</ele>
        <time>2022-08-16T12:04:32Z</time>
      </trkpt>
      <trkpt lat="44.41119" lon="6.93897">
        <ele>2116.8</ele>
        <time>2022-08-16T12:04:35Z</time>
      </trkpt>
      <trkpt lat="44.41119" lon="6.93895">
        <ele>2116.8</ele>
        <time>2022-08-16T12:04:36Z</time>
      </trkpt>
      <trkpt lat="44.41118" lon="6.93894">
        <ele>2116.8</ele>
        <time>2022-08-16T12:04:37Z</time>
      </trkpt>
      <trkpt lat="44.41118" lon="6.93892">
        <ele>2117</ele>
        <time>2022-08-16T12:04:38Z</time>
      </trkpt>
      <trkpt lat="44.41118" lon="6.93892">
        <ele>2117.2</ele>
        <time>2022-08-16T12:04:39Z</time>
      </trkpt>
      <trkpt lat="44.41119" lon="6.93891">
        <ele>2117.2</ele>
        <time>2022-08-16T12:04:40Z</time>
      </trkpt>
      <trkpt lat="44.41119" lon="6.93892">
        <ele>2118.4</ele>
        <time>2022-08-16T12:04:46Z</time>
      </trkpt>
      <trkpt lat="44.41119" lon="6.93892">
        <ele>2119.2</ele>
        <time>2022-08-16T12:04:49Z</time>
      </trkpt>
      <trkpt lat="44.41119" lon="6.93892">
        <ele>2119.6</ele>
        <time>2022-08-16T12:04:56Z</time>
      </trkpt>
      <trkpt lat="44.4112" lon="6.93888">
        <ele>2119.8</ele>
        <time>2022-08-16T12:05:00Z</time>
      </trkpt>
      <trkpt lat="44.41121" lon="6.93888">
        <ele>2119.8</ele>
        <time>2022-08-16T12:05:01Z</time>
      </trkpt>
      <trkpt lat="44.41121" lon="6.93887">
        <ele>2119.8</ele>
        <time>2022-08-16T12:05:02Z</time>
      </trkpt>
      <trkpt lat="44.41121" lon="6.93886">
        <ele>2120</ele>
        <time>2022-08-16T12:05:03Z</time>
      </trkpt>
      <trkpt lat="44.41121" lon="6.93884">
        <ele>2120.2</ele>
        <time>2022-08-16T12:05:06Z</time>
      </trkpt>
      <trkpt lat="44.41121" lon="6.93883">
        <ele>2120.2</ele>
        <time>2022-08-16T12:05:07Z</time>
      </trkpt>
      <trkpt lat="44.41121" lon="6.93882">
        <ele>2120.2</ele>
        <time>2022-08-16T12:05:08Z</time>
      </trkpt>
      <trkpt lat="44.41121" lon="6.9388">
        <ele>2120.4</ele>
        <time>2022-08-16T12:05:10Z</time>
      </trkpt>
      <trkpt lat="44.41121" lon="6.93879">
        <ele>2120.4</ele>
        <time>2022-08-16T12:05:11Z</time>
      </trkpt>
      <trkpt lat="44.41121" lon="6.93878">
        <ele>2120.6</ele>
        <time>2022-08-16T12:05:12Z</time>
      </trkpt>
      <trkpt lat="44.41121" lon="6.93877">
        <ele>2120.8</ele>
        <time>2022-08-16T12:05:13Z</time>
      </trkpt>
      <trkpt lat="44.4112" lon="6.93876">
        <ele>2120.8</ele>
        <time>2022-08-16T12:05:14Z</time>
      </trkpt>
      <trkpt lat="44.4112" lon="6.93875">
        <ele>2121</ele>
        <time>2022-08-16T12:05:15Z</time>
      </trkpt>
      <trkpt lat="44.4112" lon="6.93874">
        <ele>2121.4</ele>
        <time>2022-08-16T12:05:16Z</time>
      </trkpt>
      <trkpt lat="44.41121" lon="6.93873">
        <ele>2121.6</ele>
        <time>2022-08-16T12:05:17Z</time>
      </trkpt>
      <trkpt lat="44.4112" lon="6.93872">
        <ele>2122</ele>
        <time>2022-08-16T12:05:18Z</time>
      </trkpt>
      <trkpt lat="44.4112" lon="6.93871">
        <ele>2122.2</ele>
        <time>2022-08-16T12:05:19Z</time>
      </trkpt>
      <trkpt lat="44.4112" lon="6.9387">
        <ele>2122.2</ele>
        <time>2022-08-16T12:05:20Z</time>
      </trkpt>
      <trkpt lat="44.4112" lon="6.93869">
        <ele>2122.6</ele>
        <time>2022-08-16T12:05:21Z</time>
      </trkpt>
      <trkpt lat="44.4112" lon="6.93868">
        <ele>2122.8</ele>
        <time>2022-08-16T12:05:22Z</time>
      </trkpt>
      <trkpt lat="44.4112" lon="6.93867">
        <ele>2123</ele>
        <time>2022-08-16T12:05:23Z</time>
      </trkpt>
      <trkpt lat="44.4112" lon="6.93866">
        <ele>2123</ele>
        <time>2022-08-16T12:05:24Z</time>
      </trkpt>
      <trkpt lat="44.4112" lon="6.93865">
        <ele>2123.2</ele>
        <time>2022-08-16T12:05:25Z</time>
      </trkpt>
      <trkpt lat="44.41119" lon="6.93864">
        <ele>2123.4</ele>
        <time>2022-08-16T12:05:26Z</time>
      </trkpt>
      <trkpt lat="44.41119" lon="6.93863">
        <ele>2123.4</ele>
        <time>2022-08-16T12:05:27Z</time>
      </trkpt>
      <trkpt lat="44.41119" lon="6.93863">
        <ele>2123.6</ele>
        <time>2022-08-16T12:05:28Z</time>
      </trkpt>
      <trkpt lat="44.41118" lon="6.93862">
        <ele>2123.8</ele>
        <time>2022-08-16T12:05:29Z</time>
      </trkpt>
      <trkpt lat="44.41118" lon="6.93861">
        <ele>2123.8</ele>
        <time>2022-08-16T12:05:30Z</time>
      </trkpt>
      <trkpt lat="44.41118" lon="6.9386">
        <ele>2124.2</ele>
        <time>2022-08-16T12:05:31Z</time>
      </trkpt>
      <trkpt lat="44.41117" lon="6.93859">
        <ele>2124.2</ele>
        <time>2022-08-16T12:05:32Z</time>
      </trkpt>
      <trkpt lat="44.41117" lon="6.93858">
        <ele>2124.6</ele>
        <time>2022-08-16T12:05:33Z</time>
      </trkpt>
      <trkpt lat="44.41116" lon="6.93857">
        <ele>2124.8</ele>
        <time>2022-08-16T12:05:34Z</time>
      </trkpt>
      <trkpt lat="44.41116" lon="6.93857">
        <ele>2124.8</ele>
        <time>2022-08-16T12:05:35Z</time>
      </trkpt>
      <trkpt lat="44.41115" lon="6.93856">
        <ele>2125</ele>
        <time>2022-08-16T12:05:36Z</time>
      </trkpt>
      <trkpt lat="44.41115" lon="6.93856">
        <ele>2125.4</ele>
        <time>2022-08-16T12:05:37Z</time>
      </trkpt>
      <trkpt lat="44.41114" lon="6.93855">
        <ele>2125.6</ele>
        <time>2022-08-16T12:05:38Z</time>
      </trkpt>
      <trkpt lat="44.41114" lon="6.93855">
        <ele>2126</ele>
        <time>2022-08-16T12:05:39Z</time>
      </trkpt>
      <trkpt lat="44.41113" lon="6.93854">
        <ele>2126.2</ele>
        <time>2022-08-16T12:05:40Z</time>
      </trkpt>
      <trkpt lat="44.41112" lon="6.93853">
        <ele>2126.4</ele>
        <time>2022-08-16T12:05:41Z</time>
      </trkpt>
      <trkpt lat="44.41112" lon="6.93853">
        <ele>2126.4</ele>
        <time>2022-08-16T12:05:42Z</time>
      </trkpt>
      <trkpt lat="44.41111" lon="6.93852">
        <ele>2126.6</ele>
        <time>2022-08-16T12:05:43Z</time>
      </trkpt>
      <trkpt lat="44.41111" lon="6.93851">
        <ele>2127</ele>
        <time>2022-08-16T12:05:44Z</time>
      </trkpt>
      <trkpt lat="44.4111" lon="6.93851">
        <ele>2127.2</ele>
        <time>2022-08-16T12:05:45Z</time>
      </trkpt>
      <trkpt lat="44.41109" lon="6.9385">
        <ele>2127.2</ele>
        <time>2022-08-16T12:05:46Z</time>
      </trkpt>
      <trkpt lat="44.41108" lon="6.9385">
        <ele>2127.4</ele>
        <time>2022-08-16T12:05:47Z</time>
      </trkpt>
      <trkpt lat="44.41108" lon="6.93849">
        <ele>2127.8</ele>
        <time>2022-08-16T12:05:48Z</time>
      </trkpt>
      <trkpt lat="44.41107" lon="6.93849">
        <ele>2128</ele>
        <time>2022-08-16T12:05:49Z</time>
      </trkpt>
      <trkpt lat="44.41106" lon="6.93848">
        <ele>2128</ele>
        <time>2022-08-16T12:05:50Z</time>
      </trkpt>
      <trkpt lat="44.41105" lon="6.93848">
        <ele>2128.2</ele>
        <time>2022-08-16T12:05:51Z</time>
      </trkpt>
      <trkpt lat="44.41104" lon="6.93847">
        <ele>2128.2</ele>
        <time>2022-08-16T12:05:52Z</time>
      </trkpt>
      <trkpt lat="44.41103" lon="6.93847">
        <ele>2128.6</ele>
        <time>2022-08-16T12:05:54Z</time>
      </trkpt>
      <trkpt lat="44.41103" lon="6.93846">
        <ele>2128.8</ele>
        <time>2022-08-16T12:05:58Z</time>
      </trkpt>
      <trkpt lat="44.41102" lon="6.93846">
        <ele>2128.8</ele>
        <time>2022-08-16T12:05:59Z</time>
      </trkpt>
      <trkpt lat="44.41102" lon="6.93845">
        <ele>2129</ele>
        <time>2022-08-16T12:06:00Z</time>
      </trkpt>
      <trkpt lat="44.41101" lon="6.93845">
        <ele>2129.2</ele>
        <time>2022-08-16T12:06:01Z</time>
      </trkpt>
      <trkpt lat="44.41101" lon="6.93844">
        <ele>2129.2</ele>
        <time>2022-08-16T12:06:02Z</time>
      </trkpt>
      <trkpt lat="44.411" lon="6.93844">
        <ele>2129.2</ele>
        <time>2022-08-16T12:06:03Z</time>
      </trkpt>
      <trkpt lat="44.411" lon="6.93843">
        <ele>2129.4</ele>
        <time>2022-08-16T12:06:04Z</time>
      </trkpt>
      <trkpt lat="44.41099" lon="6.93843">
        <ele>2129.6</ele>
        <time>2022-08-16T12:06:05Z</time>
      </trkpt>
      <trkpt lat="44.41099" lon="6.93842">
        <ele>2129.4</ele>
        <time>2022-08-16T12:06:06Z</time>
      </trkpt>
      <trkpt lat="44.41098" lon="6.93842">
        <ele>2129.8</ele>
        <time>2022-08-16T12:06:07Z</time>
      </trkpt>
      <trkpt lat="44.41098" lon="6.93841">
        <ele>2129.6</ele>
        <time>2022-08-16T12:06:08Z</time>
      </trkpt>
      <trkpt lat="44.41097" lon="6.93841">
        <ele>2129.8</ele>
        <time>2022-08-16T12:06:09Z</time>
      </trkpt>
      <trkpt lat="44.41097" lon="6.9384">
        <ele>2130</ele>
        <time>2022-08-16T12:06:10Z</time>
      </trkpt>
      <trkpt lat="44.41096" lon="6.93839">
        <ele>2130</ele>
        <time>2022-08-16T12:06:11Z</time>
      </trkpt>
      <trkpt lat="44.41095" lon="6.93839">
        <ele>2130</ele>
        <time>2022-08-16T12:06:12Z</time>
      </trkpt>
      <trkpt lat="44.41095" lon="6.93838">
        <ele>2130.2</ele>
        <time>2022-08-16T12:06:13Z</time>
      </trkpt>
      <trkpt lat="44.41094" lon="6.93837">
        <ele>2130.2</ele>
        <time>2022-08-16T12:06:14Z</time>
      </trkpt>
      <trkpt lat="44.41094" lon="6.93837">
        <ele>2130.2</ele>
        <time>2022-08-16T12:06:15Z</time>
      </trkpt>
      <trkpt lat="44.41093" lon="6.93836">
        <ele>2130.6</ele>
        <time>2022-08-16T12:06:16Z</time>
      </trkpt>
      <trkpt lat="44.41093" lon="6.93835">
        <ele>2130.8</ele>
        <time>2022-08-16T12:06:17Z</time>
      </trkpt>
      <trkpt lat="44.41092" lon="6.93834">
        <ele>2130.8</ele>
        <time>2022-08-16T12:06:18Z</time>
      </trkpt>
      <trkpt lat="44.41092" lon="6.93833">
        <ele>2130.8</ele>
        <time>2022-08-16T12:06:19Z</time>
      </trkpt>
      <trkpt lat="44.41091" lon="6.93832">
        <ele>2131.2</ele>
        <time>2022-08-16T12:06:20Z</time>
      </trkpt>
      <trkpt lat="44.4109" lon="6.93831">
        <ele>2131.2</ele>
        <time>2022-08-16T12:06:21Z</time>
      </trkpt>
      <trkpt lat="44.41089" lon="6.9383">
        <ele>2131.4</ele>
        <time>2022-08-16T12:06:22Z</time>
      </trkpt>
      <trkpt lat="44.41088" lon="6.9383">
        <ele>2131.8</ele>
        <time>2022-08-16T12:06:23Z</time>
      </trkpt>
      <trkpt lat="44.41087" lon="6.93829">
        <ele>2131.8</ele>
        <time>2022-08-16T12:06:24Z</time>
      </trkpt>
      <trkpt lat="44.41086" lon="6.93828">
        <ele>2132</ele>
        <time>2022-08-16T12:06:25Z</time>
      </trkpt>
      <trkpt lat="44.41085" lon="6.93827">
        <ele>2132</ele>
        <time>2022-08-16T12:06:26Z</time>
      </trkpt>
      <trkpt lat="44.41085" lon="6.93826">
        <ele>2132.2</ele>
        <time>2022-08-16T12:06:27Z</time>
      </trkpt>
      <trkpt lat="44.41084" lon="6.93825">
        <ele>2132.4</ele>
        <time>2022-08-16T12:06:28Z</time>
      </trkpt>
      <trkpt lat="44.41083" lon="6.93824">
        <ele>2132.6</ele>
        <time>2022-08-16T12:06:29Z</time>
      </trkpt>
      <trkpt lat="44.41082" lon="6.93823">
        <ele>2133</ele>
        <time>2022-08-16T12:06:30Z</time>
      </trkpt>
      <trkpt lat="44.41081" lon="6.93823">
        <ele>2133</ele>
        <time>2022-08-16T12:06:31Z</time>
      </trkpt>
      <trkpt lat="44.41079" lon="6.93822">
        <ele>2133.2</ele>
        <time>2022-08-16T12:06:32Z</time>
      </trkpt>
      <trkpt lat="44.41078" lon="6.93821">
        <ele>2133.2</ele>
        <time>2022-08-16T12:06:33Z</time>
      </trkpt>
      <trkpt lat="44.41077" lon="6.9382">
        <ele>2133.4</ele>
        <time>2022-08-16T12:06:34Z</time>
      </trkpt>
      <trkpt lat="44.41076" lon="6.9382">
        <ele>2133.6</ele>
        <time>2022-08-16T12:06:35Z</time>
      </trkpt>
      <trkpt lat="44.41076" lon="6.93819">
        <ele>2133.6</ele>
        <time>2022-08-16T12:06:36Z</time>
      </trkpt>
      <trkpt lat="44.41074" lon="6.93819">
        <ele>2133.8</ele>
        <time>2022-08-16T12:06:37Z</time>
      </trkpt>
      <trkpt lat="44.41074" lon="6.93818">
        <ele>2133.8</ele>
        <time>2022-08-16T12:06:38Z</time>
      </trkpt>
      <trkpt lat="44.41073" lon="6.93818">
        <ele>2134</ele>
        <time>2022-08-16T12:06:39Z</time>
      </trkpt>
      <trkpt lat="44.41071" lon="6.93818">
        <ele>2134.2</ele>
        <time>2022-08-16T12:06:40Z</time>
      </trkpt>
      <trkpt lat="44.41071" lon="6.93817">
        <ele>2134.2</ele>
        <time>2022-08-16T12:06:41Z</time>
      </trkpt>
      <trkpt lat="44.4107" lon="6.93817">
        <ele>2134.8</ele>
        <time>2022-08-16T12:06:42Z</time>
      </trkpt>
      <trkpt lat="44.41069" lon="6.93817">
        <ele>2135</ele>
        <time>2022-08-16T12:06:43Z</time>
      </trkpt>
      <trkpt lat="44.41068" lon="6.93817">
        <ele>2135</ele>
        <time>2022-08-16T12:06:44Z</time>
      </trkpt>
      <trkpt lat="44.41067" lon="6.93816">
        <ele>2135.2</ele>
        <time>2022-08-16T12:06:45Z</time>
      </trkpt>
      <trkpt lat="44.41065" lon="6.93816">
        <ele>2135.4</ele>
        <time>2022-08-16T12:06:46Z</time>
      </trkpt>
      <trkpt lat="44.41064" lon="6.93816">
        <ele>2135.6</ele>
        <time>2022-08-16T12:06:47Z</time>
      </trkpt>
      <trkpt lat="44.41063" lon="6.93816">
        <ele>2135.8</ele>
        <time>2022-08-16T12:06:48Z</time>
      </trkpt>
      <trkpt lat="44.41062" lon="6.93817">
        <ele>2136.2</ele>
        <time>2022-08-16T12:06:49Z</time>
      </trkpt>
      <trkpt lat="44.41061" lon="6.93817">
        <ele>2136.2</ele>
        <time>2022-08-16T12:06:50Z</time>
      </trkpt>
      <trkpt lat="44.4106" lon="6.93818">
        <ele>2136.6</ele>
        <time>2022-08-16T12:06:51Z</time>
      </trkpt>
      <trkpt lat="44.41059" lon="6.93818">
        <ele>2136.8</ele>
        <time>2022-08-16T12:06:52Z</time>
      </trkpt>
      <trkpt lat="44.41058" lon="6.93818">
        <ele>2137</ele>
        <time>2022-08-16T12:06:53Z</time>
      </trkpt>
      <trkpt lat="44.41057" lon="6.93818">
        <ele>2137.2</ele>
        <time>2022-08-16T12:06:54Z</time>
      </trkpt>
      <trkpt lat="44.41056" lon="6.93818">
        <ele>2137.2</ele>
        <time>2022-08-16T12:06:55Z</time>
      </trkpt>
      <trkpt lat="44.41056" lon="6.93817">
        <ele>2137.2</ele>
        <time>2022-08-16T12:06:56Z</time>
      </trkpt>
      <trkpt lat="44.41055" lon="6.93817">
        <ele>2137.8</ele>
        <time>2022-08-16T12:06:57Z</time>
      </trkpt>
      <trkpt lat="44.41054" lon="6.93816">
        <ele>2137.6</ele>
        <time>2022-08-16T12:06:58Z</time>
      </trkpt>
      <trkpt lat="44.41053" lon="6.93816">
        <ele>2137.6</ele>
        <time>2022-08-16T12:06:59Z</time>
      </trkpt>
      <trkpt lat="44.41052" lon="6.93815">
        <ele>2138</ele>
        <time>2022-08-16T12:07:00Z</time>
      </trkpt>
      <trkpt lat="44.41051" lon="6.93814">
        <ele>2138.4</ele>
        <time>2022-08-16T12:07:01Z</time>
      </trkpt>
      <trkpt lat="44.41051" lon="6.93813">
        <ele>2138.4</ele>
        <time>2022-08-16T12:07:02Z</time>
      </trkpt>
      <trkpt lat="44.4105" lon="6.93812">
        <ele>2138.8</ele>
        <time>2022-08-16T12:07:03Z</time>
      </trkpt>
      <trkpt lat="44.41049" lon="6.93812">
        <ele>2138.8</ele>
        <time>2022-08-16T12:07:04Z</time>
      </trkpt>
      <trkpt lat="44.41048" lon="6.93811">
        <ele>2139.2</ele>
        <time>2022-08-16T12:07:05Z</time>
      </trkpt>
      <trkpt lat="44.41047" lon="6.9381">
        <ele>2139.2</ele>
        <time>2022-08-16T12:07:06Z</time>
      </trkpt>
      <trkpt lat="44.41046" lon="6.93809">
        <ele>2139.2</ele>
        <time>2022-08-16T12:07:07Z</time>
      </trkpt>
      <trkpt lat="44.41045" lon="6.93808">
        <ele>2139.4</ele>
        <time>2022-08-16T12:07:08Z</time>
      </trkpt>
      <trkpt lat="44.41044" lon="6.93808">
        <ele>2139.4</ele>
        <time>2022-08-16T12:07:09Z</time>
      </trkpt>
      <trkpt lat="44.41043" lon="6.93807">
        <ele>2139.6</ele>
        <time>2022-08-16T12:07:10Z</time>
      </trkpt>
      <trkpt lat="44.41041" lon="6.93808">
        <ele>2139.6</ele>
        <time>2022-08-16T12:07:11Z</time>
      </trkpt>
      <trkpt lat="44.41041" lon="6.93808">
        <ele>2139.8</ele>
        <time>2022-08-16T12:07:12Z</time>
      </trkpt>
      <trkpt lat="44.41039" lon="6.93808">
        <ele>2139.8</ele>
        <time>2022-08-16T12:07:13Z</time>
      </trkpt>
      <trkpt lat="44.41038" lon="6.93809">
        <ele>2140</ele>
        <time>2022-08-16T12:07:14Z</time>
      </trkpt>
      <trkpt lat="44.41037" lon="6.93809">
        <ele>2140.2</ele>
        <time>2022-08-16T12:07:15Z</time>
      </trkpt>
      <trkpt lat="44.41036" lon="6.93809">
        <ele>2140.6</ele>
        <time>2022-08-16T12:07:16Z</time>
      </trkpt>
      <trkpt lat="44.41035" lon="6.9381">
        <ele>2140.6</ele>
        <time>2022-08-16T12:07:17Z</time>
      </trkpt>
      <trkpt lat="44.41034" lon="6.9381">
        <ele>2140.6</ele>
        <time>2022-08-16T12:07:18Z</time>
      </trkpt>
      <trkpt lat="44.41033" lon="6.9381">
        <ele>2140.8</ele>
        <time>2022-08-16T12:07:19Z</time>
      </trkpt>
      <trkpt lat="44.41032" lon="6.9381">
        <ele>2140.8</ele>
        <time>2022-08-16T12:07:21Z</time>
      </trkpt>
      <trkpt lat="44.41032" lon="6.93809">
        <ele>2141.2</ele>
        <time>2022-08-16T12:07:24Z</time>
      </trkpt>
      <trkpt lat="44.41031" lon="6.93809">
        <ele>2141.6</ele>
        <time>2022-08-16T12:07:25Z</time>
      </trkpt>
      <trkpt lat="44.4103" lon="6.93809">
        <ele>2141.6</ele>
        <time>2022-08-16T12:07:26Z</time>
      </trkpt>
      <trkpt lat="44.41029" lon="6.93809">
        <ele>2141.6</ele>
        <time>2022-08-16T12:07:27Z</time>
      </trkpt>
      <trkpt lat="44.41028" lon="6.9381">
        <ele>2141.8</ele>
        <time>2022-08-16T12:07:28Z</time>
      </trkpt>
      <trkpt lat="44.41026" lon="6.9381">
        <ele>2142</ele>
        <time>2022-08-16T12:07:29Z</time>
      </trkpt>
      <trkpt lat="44.41024" lon="6.93809">
        <ele>2142</ele>
        <time>2022-08-16T12:07:30Z</time>
      </trkpt>
      <trkpt lat="44.41023" lon="6.93809">
        <ele>2142</ele>
        <time>2022-08-16T12:07:31Z</time>
      </trkpt>
      <trkpt lat="44.41022" lon="6.9381">
        <ele>2142.2</ele>
        <time>2022-08-16T12:07:32Z</time>
      </trkpt>
      <trkpt lat="44.41021" lon="6.9381">
        <ele>2142.2</ele>
        <time>2022-08-16T12:07:33Z</time>
      </trkpt>
      <trkpt lat="44.41019" lon="6.93811">
        <ele>2142.4</ele>
        <time>2022-08-16T12:07:34Z</time>
      </trkpt>
      <trkpt lat="44.41018" lon="6.93811">
        <ele>2142.2</ele>
        <time>2022-08-16T12:07:35Z</time>
      </trkpt>
      <trkpt lat="44.41017" lon="6.93812">
        <ele>2142.4</ele>
        <time>2022-08-16T12:07:36Z</time>
      </trkpt>
      <trkpt lat="44.41015" lon="6.93813">
        <ele>2142.4</ele>
        <time>2022-08-16T12:07:37Z</time>
      </trkpt>
      <trkpt lat="44.41013" lon="6.93813">
        <ele>2142.6</ele>
        <time>2022-08-16T12:07:38Z</time>
      </trkpt>
      <trkpt lat="44.41012" lon="6.93813">
        <ele>2142.8</ele>
        <time>2022-08-16T12:07:39Z</time>
      </trkpt>
      <trkpt lat="44.4101" lon="6.93813">
        <ele>2142.8</ele>
        <time>2022-08-16T12:07:40Z</time>
      </trkpt>
      <trkpt lat="44.41008" lon="6.93812">
        <ele>2143.2</ele>
        <time>2022-08-16T12:07:41Z</time>
      </trkpt>
      <trkpt lat="44.41007" lon="6.93811">
        <ele>2143.2</ele>
        <time>2022-08-16T12:07:42Z</time>
      </trkpt>
      <trkpt lat="44.41005" lon="6.9381">
        <ele>2143.2</ele>
        <time>2022-08-16T12:07:43Z</time>
      </trkpt>
      <trkpt lat="44.41003" lon="6.9381">
        <ele>2143.4</ele>
        <time>2022-08-16T12:07:44Z</time>
      </trkpt>
      <trkpt lat="44.41001" lon="6.93809">
        <ele>2143.4</ele>
        <time>2022-08-16T12:07:45Z</time>
      </trkpt>
      <trkpt lat="44.41" lon="6.93808">
        <ele>2143.6</ele>
        <time>2022-08-16T12:07:46Z</time>
      </trkpt>
      <trkpt lat="44.40998" lon="6.93808">
        <ele>2143.6</ele>
        <time>2022-08-16T12:07:47Z</time>
      </trkpt>
      <trkpt lat="44.40997" lon="6.93807">
        <ele>2143.8</ele>
        <time>2022-08-16T12:07:48Z</time>
      </trkpt>
      <trkpt lat="44.40995" lon="6.93807">
        <ele>2144</ele>
        <time>2022-08-16T12:07:49Z</time>
      </trkpt>
      <trkpt lat="44.40994" lon="6.93806">
        <ele>2144</ele>
        <time>2022-08-16T12:07:50Z</time>
      </trkpt>
      <trkpt lat="44.40992" lon="6.93806">
        <ele>2144.2</ele>
        <time>2022-08-16T12:07:51Z</time>
      </trkpt>
      <trkpt lat="44.40991" lon="6.93805">
        <ele>2144.4</ele>
        <time>2022-08-16T12:07:52Z</time>
      </trkpt>
      <trkpt lat="44.40989" lon="6.93805">
        <ele>2144.6</ele>
        <time>2022-08-16T12:07:53Z</time>
      </trkpt>
      <trkpt lat="44.40987" lon="6.93804">
        <ele>2144.8</ele>
        <time>2022-08-16T12:07:54Z</time>
      </trkpt>
      <trkpt lat="44.40986" lon="6.93804">
        <ele>2144.8</ele>
        <time>2022-08-16T12:07:55Z</time>
      </trkpt>
      <trkpt lat="44.40985" lon="6.93803">
        <ele>2144.8</ele>
        <time>2022-08-16T12:07:56Z</time>
      </trkpt>
      <trkpt lat="44.40983" lon="6.93802">
        <ele>2145.2</ele>
        <time>2022-08-16T12:07:57Z</time>
      </trkpt>
      <trkpt lat="44.40982" lon="6.93802">
        <ele>2145.2</ele>
        <time>2022-08-16T12:07:58Z</time>
      </trkpt>
      <trkpt lat="44.40981" lon="6.93801">
        <ele>2145.2</ele>
        <time>2022-08-16T12:07:59Z</time>
      </trkpt>
      <trkpt lat="44.40979" lon="6.938">
        <ele>2145.4</ele>
        <time>2022-08-16T12:08:00Z</time>
      </trkpt>
      <trkpt lat="44.40978" lon="6.93799">
        <ele>2145.6</ele>
        <time>2022-08-16T12:08:01Z</time>
      </trkpt>
      <trkpt lat="44.40976" lon="6.93798">
        <ele>2145.8</ele>
        <time>2022-08-16T12:08:02Z</time>
      </trkpt>
      <trkpt lat="44.40975" lon="6.93797">
        <ele>2145.8</ele>
        <time>2022-08-16T12:08:03Z</time>
      </trkpt>
      <trkpt lat="44.40974" lon="6.93796">
        <ele>2146</ele>
        <time>2022-08-16T12:08:04Z</time>
      </trkpt>
      <trkpt lat="44.40972" lon="6.93795">
        <ele>2146</ele>
        <time>2022-08-16T12:08:05Z</time>
      </trkpt>
      <trkpt lat="44.40971" lon="6.93795">
        <ele>2146</ele>
        <time>2022-08-16T12:08:06Z</time>
      </trkpt>
      <trkpt lat="44.4097" lon="6.93794">
        <ele>2146</ele>
        <time>2022-08-16T12:08:07Z</time>
      </trkpt>
      <trkpt lat="44.40968" lon="6.93793">
        <ele>2146.4</ele>
        <time>2022-08-16T12:08:08Z</time>
      </trkpt>
      <trkpt lat="44.40967" lon="6.93792">
        <ele>2146.4</ele>
        <time>2022-08-16T12:08:09Z</time>
      </trkpt>
      <trkpt lat="44.40966" lon="6.93791">
        <ele>2146.6</ele>
        <time>2022-08-16T12:08:10Z</time>
      </trkpt>
      <trkpt lat="44.40965" lon="6.93791">
        <ele>2147</ele>
        <time>2022-08-16T12:08:11Z</time>
      </trkpt>
      <trkpt lat="44.40964" lon="6.9379">
        <ele>2147.2</ele>
        <time>2022-08-16T12:08:12Z</time>
      </trkpt>
      <trkpt lat="44.40962" lon="6.93789">
        <ele>2147.2</ele>
        <time>2022-08-16T12:08:13Z</time>
      </trkpt>
      <trkpt lat="44.4096" lon="6.93788">
        <ele>2147.6</ele>
        <time>2022-08-16T12:08:14Z</time>
      </trkpt>
      <trkpt lat="44.40958" lon="6.93787">
        <ele>2147.6</ele>
        <time>2022-08-16T12:08:15Z</time>
      </trkpt>
      <trkpt lat="44.40955" lon="6.93787">
        <ele>2147.6</ele>
        <time>2022-08-16T12:08:16Z</time>
      </trkpt>
      <trkpt lat="44.40952" lon="6.93786">
        <ele>2147.8</ele>
        <time>2022-08-16T12:08:17Z</time>
      </trkpt>
      <trkpt lat="44.40949" lon="6.93784">
        <ele>2147.6</ele>
        <time>2022-08-16T12:08:18Z</time>
      </trkpt>
      <trkpt lat="44.40946" lon="6.93782">
        <ele>2147.8</ele>
        <time>2022-08-16T12:08:19Z</time>
      </trkpt>
      <trkpt lat="44.40943" lon="6.93781">
        <ele>2147.8</ele>
        <time>2022-08-16T12:08:20Z</time>
      </trkpt>
      <trkpt lat="44.40941" lon="6.93781">
        <ele>2147.8</ele>
        <time>2022-08-16T12:08:21Z</time>
      </trkpt>
      <trkpt lat="44.40938" lon="6.93782">
        <ele>2147.8</ele>
        <time>2022-08-16T12:08:22Z</time>
      </trkpt>
      <trkpt lat="44.40935" lon="6.93784">
        <ele>2147.6</ele>
        <time>2022-08-16T12:08:23Z</time>
      </trkpt>
      <trkpt lat="44.40932" lon="6.93785">
        <ele>2147.6</ele>
        <time>2022-08-16T12:08:24Z</time>
      </trkpt>
      <trkpt lat="44.40928" lon="6.93785">
        <ele>2147.6</ele>
        <time>2022-08-16T12:08:25Z</time>
      </trkpt>
      <trkpt lat="44.40925" lon="6.93784">
        <ele>2147.4</ele>
        <time>2022-08-16T12:08:26Z</time>
      </trkpt>
      <trkpt lat="44.40922" lon="6.93781">
        <ele>2147.4</ele>
        <time>2022-08-16T12:08:27Z</time>
      </trkpt>
      <trkpt lat="44.40918" lon="6.93777">
        <ele>2147.4</ele>
        <time>2022-08-16T12:08:28Z</time>
      </trkpt>
      <trkpt lat="44.40915" lon="6.93772">
        <ele>2147.2</ele>
        <time>2022-08-16T12:08:29Z</time>
      </trkpt>
      <trkpt lat="44.40911" lon="6.93769">
        <ele>2147</ele>
        <time>2022-08-16T12:08:30Z</time>
      </trkpt>
      <trkpt lat="44.40907" lon="6.93765">
        <ele>2146.8</ele>
        <time>2022-08-16T12:08:31Z</time>
      </trkpt>
      <trkpt lat="44.40904" lon="6.93762">
        <ele>2146.6</ele>
        <time>2022-08-16T12:08:32Z</time>
      </trkpt>
      <trkpt lat="44.40901" lon="6.93759">
        <ele>2146.4</ele>
        <time>2022-08-16T12:08:33Z</time>
      </trkpt>
      <trkpt lat="44.40898" lon="6.93757">
        <ele>2146.2</ele>
        <time>2022-08-16T12:08:34Z</time>
      </trkpt>
      <trkpt lat="44.40896" lon="6.93755">
        <ele>2146</ele>
        <time>2022-08-16T12:08:35Z</time>
      </trkpt>
      <trkpt lat="44.40893" lon="6.93753">
        <ele>2145.6</ele>
        <time>2022-08-16T12:08:36Z</time>
      </trkpt>
      <trkpt lat="44.40889" lon="6.93748">
        <ele>2145</ele>
        <time>2022-08-16T12:08:38Z</time>
      </trkpt>
      <trkpt lat="44.40886" lon="6.93742">
        <ele>2144.8</ele>
        <time>2022-08-16T12:08:40Z</time>
      </trkpt>
      <trkpt lat="44.40884" lon="6.9374">
        <ele>2144.6</ele>
        <time>2022-08-16T12:08:41Z</time>
      </trkpt>
      <trkpt lat="44.40882" lon="6.93737">
        <ele>2144.6</ele>
        <time>2022-08-16T12:08:42Z</time>
      </trkpt>
      <trkpt lat="44.40877" lon="6.93734">
        <ele>2144.4</ele>
        <time>2022-08-16T12:08:44Z</time>
      </trkpt>
      <trkpt lat="44.40874" lon="6.93733">
        <ele>2144.4</ele>
        <time>2022-08-16T12:08:45Z</time>
      </trkpt>
      <trkpt lat="44.40871" lon="6.93732">
        <ele>2144.4</ele>
        <time>2022-08-16T12:08:46Z</time>
      </trkpt>
      <trkpt lat="44.40869" lon="6.93731">
        <ele>2144.4</ele>
        <time>2022-08-16T12:08:47Z</time>
      </trkpt>
      <trkpt lat="44.40867" lon="6.9373">
        <ele>2144.4</ele>
        <time>2022-08-16T12:08:48Z</time>
      </trkpt>
      <trkpt lat="44.40864" lon="6.93728">
        <ele>2144.4</ele>
        <time>2022-08-16T12:08:49Z</time>
      </trkpt>
      <trkpt lat="44.40862" lon="6.93727">
        <ele>2144.4</ele>
        <time>2022-08-16T12:08:50Z</time>
      </trkpt>
      <trkpt lat="44.4086" lon="6.93725">
        <ele>2144.4</ele>
        <time>2022-08-16T12:08:51Z</time>
      </trkpt>
      <trkpt lat="44.40856" lon="6.93723">
        <ele>2144.2</ele>
        <time>2022-08-16T12:08:53Z</time>
      </trkpt>
      <trkpt lat="44.40854" lon="6.93723">
        <ele>2144.2</ele>
        <time>2022-08-16T12:08:54Z</time>
      </trkpt>
      <trkpt lat="44.40852" lon="6.93723">
        <ele>2144.2</ele>
        <time>2022-08-16T12:08:55Z</time>
      </trkpt>
      <trkpt lat="44.4085" lon="6.93723">
        <ele>2144.2</ele>
        <time>2022-08-16T12:08:56Z</time>
      </trkpt>
      <trkpt lat="44.40848" lon="6.93724">
        <ele>2144.4</ele>
        <time>2022-08-16T12:08:57Z</time>
      </trkpt>
      <trkpt lat="44.40846" lon="6.93726">
        <ele>2144.2</ele>
        <time>2022-08-16T12:08:58Z</time>
      </trkpt>
      <trkpt lat="44.40833" lon="6.93729">
        <ele>2144.6</ele>
        <time>2022-08-16T12:09:03Z</time>
      </trkpt>
      <trkpt lat="44.40821" lon="6.9373">
        <ele>2144.8</ele>
        <time>2022-08-16T12:09:07Z</time>
      </trkpt>
      <trkpt lat="44.40818" lon="6.9373">
        <ele>2144.8</ele>
        <time>2022-08-16T12:09:08Z</time>
      </trkpt>
      <trkpt lat="44.40815" lon="6.93729">
        <ele>2145</ele>
        <time>2022-08-16T12:09:09Z</time>
      </trkpt>
      <trkpt lat="44.40808" lon="6.93728">
        <ele>2145</ele>
        <time>2022-08-16T12:09:11Z</time>
      </trkpt>
      <trkpt lat="44.40805" lon="6.93729">
        <ele>2145</ele>
        <time>2022-08-16T12:09:12Z</time>
      </trkpt>
      <trkpt lat="44.40803" lon="6.9373">
        <ele>2145</ele>
        <time>2022-08-16T12:09:13Z</time>
      </trkpt>
      <trkpt lat="44.40797" lon="6.93732">
        <ele>2145</ele>
        <time>2022-08-16T12:09:15Z</time>
      </trkpt>
      <trkpt lat="44.40791" lon="6.93734">
        <ele>2145.2</ele>
        <time>2022-08-16T12:09:17Z</time>
      </trkpt>
      <trkpt lat="44.40785" lon="6.93739">
        <ele>2145.4</ele>
        <time>2022-08-16T12:09:19Z</time>
      </trkpt>
      <trkpt lat="44.40782" lon="6.9374">
        <ele>2145.6</ele>
        <time>2022-08-16T12:09:20Z</time>
      </trkpt>
      <trkpt lat="44.4078" lon="6.93742">
        <ele>2145.6</ele>
        <time>2022-08-16T12:09:21Z</time>
      </trkpt>
      <trkpt lat="44.40778" lon="6.93743">
        <ele>2145.6</ele>
        <time>2022-08-16T12:09:22Z</time>
      </trkpt>
      <trkpt lat="44.40777" lon="6.93744">
        <ele>2145.8</ele>
        <time>2022-08-16T12:09:23Z</time>
      </trkpt>
      <trkpt lat="44.40775" lon="6.93745">
        <ele>2145.8</ele>
        <time>2022-08-16T12:09:24Z</time>
      </trkpt>
      <trkpt lat="44.40773" lon="6.93746">
        <ele>2146</ele>
        <time>2022-08-16T12:09:25Z</time>
      </trkpt>
      <trkpt lat="44.40772" lon="6.93746">
        <ele>2146</ele>
        <time>2022-08-16T12:09:26Z</time>
      </trkpt>
      <trkpt lat="44.4077" lon="6.93746">
        <ele>2146</ele>
        <time>2022-08-16T12:09:27Z</time>
      </trkpt>
      <trkpt lat="44.40769" lon="6.93746">
        <ele>2146</ele>
        <time>2022-08-16T12:09:28Z</time>
      </trkpt>
      <trkpt lat="44.40768" lon="6.93746">
        <ele>2146</ele>
        <time>2022-08-16T12:09:29Z</time>
      </trkpt>
      <trkpt lat="44.40768" lon="6.93745">
        <ele>2146</ele>
        <time>2022-08-16T12:09:30Z</time>
      </trkpt>
      <trkpt lat="44.40768" lon="6.93745">
        <ele>2145.8</ele>
        <time>2022-08-16T12:09:31Z</time>
      </trkpt>
      <trkpt lat="44.40769" lon="6.93745">
        <ele>2145.8</ele>
        <time>2022-08-16T12:09:36Z</time>
      </trkpt>
      <trkpt lat="44.40769" lon="6.93745">
        <ele>2145</ele>
        <time>2022-08-16T12:09:44Z</time>
      </trkpt>
      <trkpt lat="44.40767" lon="6.93739">
        <ele>2144.8</ele>
        <time>2022-08-16T12:10:01Z</time>
      </trkpt>
      <trkpt lat="44.40765" lon="6.93734">
        <ele>2144.8</ele>
        <time>2022-08-16T12:10:03Z</time>
      </trkpt>
      <trkpt lat="44.40764" lon="6.93733">
        <ele>2144.8</ele>
        <time>2022-08-16T12:10:04Z</time>
      </trkpt>
      <trkpt lat="44.40762" lon="6.93733">
        <ele>2144.8</ele>
        <time>2022-08-16T12:10:05Z</time>
      </trkpt>
      <trkpt lat="44.40761" lon="6.93734">
        <ele>2144.8</ele>
        <time>2022-08-16T12:10:06Z</time>
      </trkpt>
      <trkpt lat="44.40759" lon="6.93736">
        <ele>2144.8</ele>
        <time>2022-08-16T12:10:07Z</time>
      </trkpt>
      <trkpt lat="44.40757" lon="6.9374">
        <ele>2144.6</ele>
        <time>2022-08-16T12:10:08Z</time>
      </trkpt>
      <trkpt lat="44.40755" lon="6.93744">
        <ele>2144.6</ele>
        <time>2022-08-16T12:10:09Z</time>
      </trkpt>
      <trkpt lat="44.40753" lon="6.93749">
        <ele>2143.6</ele>
        <time>2022-08-16T12:10:10Z</time>
      </trkpt>
      <trkpt lat="44.40752" lon="6.93752">
        <ele>2142.8</ele>
        <time>2022-08-16T12:10:11Z</time>
      </trkpt>
      <trkpt lat="44.40748" lon="6.93758">
        <ele>2141.6</ele>
        <time>2022-08-16T12:10:13Z</time>
      </trkpt>
      <trkpt lat="44.40747" lon="6.93762">
        <ele>2140.8</ele>
        <time>2022-08-16T12:10:14Z</time>
      </trkpt>
      <trkpt lat="44.40745" lon="6.93766">
        <ele>2139.8</ele>
        <time>2022-08-16T12:10:15Z</time>
      </trkpt>
      <trkpt lat="44.4074" lon="6.9378">
        <ele>2136.8</ele>
        <time>2022-08-16T12:10:18Z</time>
      </trkpt>
      <trkpt lat="44.40738" lon="6.93784">
        <ele>2136.8</ele>
        <time>2022-08-16T12:10:19Z</time>
      </trkpt>
      <trkpt lat="44.40736" lon="6.93788">
        <ele>2135.8</ele>
        <time>2022-08-16T12:10:20Z</time>
      </trkpt>
      <trkpt lat="44.40734" lon="6.93792">
        <ele>2135.2</ele>
        <time>2022-08-16T12:10:21Z</time>
      </trkpt>
      <trkpt lat="44.40728" lon="6.93798">
        <ele>2133.4</ele>
        <time>2022-08-16T12:10:23Z</time>
      </trkpt>
      <trkpt lat="44.40725" lon="6.93801">
        <ele>2131.8</ele>
        <time>2022-08-16T12:10:24Z</time>
      </trkpt>
      <trkpt lat="44.40718" lon="6.93804">
        <ele>2129.6</ele>
        <time>2022-08-16T12:10:26Z</time>
      </trkpt>
      <trkpt lat="44.40715" lon="6.93806">
        <ele>2128.8</ele>
        <time>2022-08-16T12:10:27Z</time>
      </trkpt>
      <trkpt lat="44.40713" lon="6.93807">
        <ele>2128</ele>
        <time>2022-08-16T12:10:28Z</time>
      </trkpt>
      <trkpt lat="44.40712" lon="6.93808">
        <ele>2127.4</ele>
        <time>2022-08-16T12:10:29Z</time>
      </trkpt>
      <trkpt lat="44.4071" lon="6.93809">
        <ele>2126.2</ele>
        <time>2022-08-16T12:10:30Z</time>
      </trkpt>
      <trkpt lat="44.40706" lon="6.93813">
        <ele>2124.6</ele>
        <time>2022-08-16T12:10:32Z</time>
      </trkpt>
      <trkpt lat="44.40704" lon="6.93815">
        <ele>2123.8</ele>
        <time>2022-08-16T12:10:33Z</time>
      </trkpt>
      <trkpt lat="44.40701" lon="6.93817">
        <ele>2123.2</ele>
        <time>2022-08-16T12:10:34Z</time>
      </trkpt>
      <trkpt lat="44.40699" lon="6.9382">
        <ele>2121.8</ele>
        <time>2022-08-16T12:10:35Z</time>
      </trkpt>
      <trkpt lat="44.40696" lon="6.93823">
        <ele>2120.8</ele>
        <time>2022-08-16T12:10:36Z</time>
      </trkpt>
      <trkpt lat="44.40693" lon="6.93826">
        <ele>2120.4</ele>
        <time>2022-08-16T12:10:37Z</time>
      </trkpt>
      <trkpt lat="44.40691" lon="6.93828">
        <ele>2120</ele>
        <time>2022-08-16T12:10:38Z</time>
      </trkpt>
      <trkpt lat="44.40689" lon="6.9383">
        <ele>2119.6</ele>
        <time>2022-08-16T12:10:39Z</time>
      </trkpt>
      <trkpt lat="44.40688" lon="6.93832">
        <ele>2119</ele>
        <time>2022-08-16T12:10:40Z</time>
      </trkpt>
      <trkpt lat="44.40684" lon="6.93837">
        <ele>2118</ele>
        <time>2022-08-16T12:10:42Z</time>
      </trkpt>
      <trkpt lat="44.40682" lon="6.9384">
        <ele>2117.4</ele>
        <time>2022-08-16T12:10:43Z</time>
      </trkpt>
      <trkpt lat="44.4068" lon="6.93843">
        <ele>2116.2</ele>
        <time>2022-08-16T12:10:44Z</time>
      </trkpt>
      <trkpt lat="44.40678" lon="6.93846">
        <ele>2115.2</ele>
        <time>2022-08-16T12:10:45Z</time>
      </trkpt>
      <trkpt lat="44.40677" lon="6.93849">
        <ele>2114</ele>
        <time>2022-08-16T12:10:46Z</time>
      </trkpt>
      <trkpt lat="44.40675" lon="6.93851">
        <ele>2112.6</ele>
        <time>2022-08-16T12:10:47Z</time>
      </trkpt>
      <trkpt lat="44.40674" lon="6.93852">
        <ele>2111.2</ele>
        <time>2022-08-16T12:10:48Z</time>
      </trkpt>
      <trkpt lat="44.40672" lon="6.93854">
        <ele>2110.2</ele>
        <time>2022-08-16T12:10:49Z</time>
      </trkpt>
      <trkpt lat="44.40671" lon="6.93856">
        <ele>2109.2</ele>
        <time>2022-08-16T12:10:50Z</time>
      </trkpt>
      <trkpt lat="44.4067" lon="6.93859">
        <ele>2108.4</ele>
        <time>2022-08-16T12:10:51Z</time>
      </trkpt>
      <trkpt lat="44.40669" lon="6.93861">
        <ele>2107.4</ele>
        <time>2022-08-16T12:10:52Z</time>
      </trkpt>
      <trkpt lat="44.40668" lon="6.93864">
        <ele>2106.8</ele>
        <time>2022-08-16T12:10:53Z</time>
      </trkpt>
      <trkpt lat="44.40668" lon="6.93866">
        <ele>2105.6</ele>
        <time>2022-08-16T12:10:54Z</time>
      </trkpt>
      <trkpt lat="44.40666" lon="6.93869">
        <ele>2104.2</ele>
        <time>2022-08-16T12:10:55Z</time>
      </trkpt>
      <trkpt lat="44.40665" lon="6.93872">
        <ele>2103.2</ele>
        <time>2022-08-16T12:10:56Z</time>
      </trkpt>
      <trkpt lat="44.40663" lon="6.93875">
        <ele>2102.8</ele>
        <time>2022-08-16T12:10:57Z</time>
      </trkpt>
      <trkpt lat="44.40661" lon="6.93878">
        <ele>2102.2</ele>
        <time>2022-08-16T12:10:58Z</time>
      </trkpt>
      <trkpt lat="44.4066" lon="6.93881">
        <ele>2101.2</ele>
        <time>2022-08-16T12:10:59Z</time>
      </trkpt>
      <trkpt lat="44.40656" lon="6.93886">
        <ele>2099.2</ele>
        <time>2022-08-16T12:11:01Z</time>
      </trkpt>
      <trkpt lat="44.40655" lon="6.93889">
        <ele>2098.4</ele>
        <time>2022-08-16T12:11:02Z</time>
      </trkpt>
      <trkpt lat="44.40655" lon="6.93893">
        <ele>2097.8</ele>
        <time>2022-08-16T12:11:03Z</time>
      </trkpt>
      <trkpt lat="44.40654" lon="6.93896">
        <ele>2097.2</ele>
        <time>2022-08-16T12:11:04Z</time>
      </trkpt>
      <trkpt lat="44.40653" lon="6.93899">
        <ele>2097.2</ele>
        <time>2022-08-16T12:11:05Z</time>
      </trkpt>
      <trkpt lat="44.40652" lon="6.93902">
        <ele>2096.2</ele>
        <time>2022-08-16T12:11:06Z</time>
      </trkpt>
      <trkpt lat="44.40651" lon="6.93906">
        <ele>2095.4</ele>
        <time>2022-08-16T12:11:07Z</time>
      </trkpt>
      <trkpt lat="44.4065" lon="6.93909">
        <ele>2094.2</ele>
        <time>2022-08-16T12:11:08Z</time>
      </trkpt>
      <trkpt lat="44.40648" lon="6.93912">
        <ele>2093.8</ele>
        <time>2022-08-16T12:11:09Z</time>
      </trkpt>
      <trkpt lat="44.40647" lon="6.93915">
        <ele>2093.2</ele>
        <time>2022-08-16T12:11:10Z</time>
      </trkpt>
      <trkpt lat="44.40647" lon="6.93918">
        <ele>2092.2</ele>
        <time>2022-08-16T12:11:11Z</time>
      </trkpt>
      <trkpt lat="44.40647" lon="6.93921">
        <ele>2090.8</ele>
        <time>2022-08-16T12:11:12Z</time>
      </trkpt>
      <trkpt lat="44.40648" lon="6.93923">
        <ele>2089.6</ele>
        <time>2022-08-16T12:11:13Z</time>
      </trkpt>
      <trkpt lat="44.40649" lon="6.93925">
        <ele>2088.8</ele>
        <time>2022-08-16T12:11:14Z</time>
      </trkpt>
      <trkpt lat="44.4065" lon="6.93928">
        <ele>2088</ele>
        <time>2022-08-16T12:11:15Z</time>
      </trkpt>
      <trkpt lat="44.40649" lon="6.93934">
        <ele>2085.6</ele>
        <time>2022-08-16T12:11:17Z</time>
      </trkpt>
      <trkpt lat="44.40649" lon="6.93938">
        <ele>2084.4</ele>
        <time>2022-08-16T12:11:18Z</time>
      </trkpt>
      <trkpt lat="44.40648" lon="6.93942">
        <ele>2084</ele>
        <time>2022-08-16T12:11:19Z</time>
      </trkpt>
      <trkpt lat="44.40646" lon="6.93946">
        <ele>2083</ele>
        <time>2022-08-16T12:11:20Z</time>
      </trkpt>
      <trkpt lat="44.40645" lon="6.93949">
        <ele>2082</ele>
        <time>2022-08-16T12:11:21Z</time>
      </trkpt>
      <trkpt lat="44.40643" lon="6.93952">
        <ele>2080.8</ele>
        <time>2022-08-16T12:11:22Z</time>
      </trkpt>
      <trkpt lat="44.40642" lon="6.93955">
        <ele>2079.6</ele>
        <time>2022-08-16T12:11:23Z</time>
      </trkpt>
      <trkpt lat="44.40641" lon="6.93958">
        <ele>2079.2</ele>
        <time>2022-08-16T12:11:24Z</time>
      </trkpt>
      <trkpt lat="44.40638" lon="6.93965">
        <ele>2077.8</ele>
        <time>2022-08-16T12:11:26Z</time>
      </trkpt>
      <trkpt lat="44.40635" lon="6.93973">
        <ele>2076.4</ele>
        <time>2022-08-16T12:11:28Z</time>
      </trkpt>
      <trkpt lat="44.40634" lon="6.93976">
        <ele>2075.6</ele>
        <time>2022-08-16T12:11:29Z</time>
      </trkpt>
      <trkpt lat="44.40632" lon="6.9398">
        <ele>2075</ele>
        <time>2022-08-16T12:11:30Z</time>
      </trkpt>
      <trkpt lat="44.40629" lon="6.93989">
        <ele>2073</ele>
        <time>2022-08-16T12:11:32Z</time>
      </trkpt>
      <trkpt lat="44.40627" lon="6.93992">
        <ele>2072.2</ele>
        <time>2022-08-16T12:11:33Z</time>
      </trkpt>
      <trkpt lat="44.40626" lon="6.93996">
        <ele>2071.4</ele>
        <time>2022-08-16T12:11:34Z</time>
      </trkpt>
      <trkpt lat="44.40625" lon="6.93999">
        <ele>2070.6</ele>
        <time>2022-08-16T12:11:35Z</time>
      </trkpt>
      <trkpt lat="44.40625" lon="6.94003">
        <ele>2069.4</ele>
        <time>2022-08-16T12:11:36Z</time>
      </trkpt>
      <trkpt lat="44.40625" lon="6.94007">
        <ele>2068</ele>
        <time>2022-08-16T12:11:37Z</time>
      </trkpt>
      <trkpt lat="44.40625" lon="6.94011">
        <ele>2067.2</ele>
        <time>2022-08-16T12:11:38Z</time>
      </trkpt>
      <trkpt lat="44.40624" lon="6.94017">
        <ele>2066.2</ele>
        <time>2022-08-16T12:11:39Z</time>
      </trkpt>
      <trkpt lat="44.40622" lon="6.94028">
        <ele>2064.2</ele>
        <time>2022-08-16T12:11:41Z</time>
      </trkpt>
      <trkpt lat="44.40621" lon="6.94032">
        <ele>2063.4</ele>
        <time>2022-08-16T12:11:42Z</time>
      </trkpt>
      <trkpt lat="44.40621" lon="6.94036">
        <ele>2062.6</ele>
        <time>2022-08-16T12:11:43Z</time>
      </trkpt>
      <trkpt lat="44.4062" lon="6.94039">
        <ele>2061.6</ele>
        <time>2022-08-16T12:11:44Z</time>
      </trkpt>
      <trkpt lat="44.4062" lon="6.94041">
        <ele>2060.8</ele>
        <time>2022-08-16T12:11:45Z</time>
      </trkpt>
      <trkpt lat="44.40619" lon="6.94042">
        <ele>2059.4</ele>
        <time>2022-08-16T12:11:46Z</time>
      </trkpt>
      <trkpt lat="44.40617" lon="6.94043">
        <ele>2058.6</ele>
        <time>2022-08-16T12:11:47Z</time>
      </trkpt>
      <trkpt lat="44.40616" lon="6.94045">
        <ele>2058.2</ele>
        <time>2022-08-16T12:11:48Z</time>
      </trkpt>
      <trkpt lat="44.40614" lon="6.94047">
        <ele>2058.2</ele>
        <time>2022-08-16T12:11:49Z</time>
      </trkpt>
      <trkpt lat="44.40612" lon="6.94048">
        <ele>2057.8</ele>
        <time>2022-08-16T12:11:50Z</time>
      </trkpt>
      <trkpt lat="44.4061" lon="6.94048">
        <ele>2056.8</ele>
        <time>2022-08-16T12:11:51Z</time>
      </trkpt>
      <trkpt lat="44.40606" lon="6.94051">
        <ele>2055.4</ele>
        <time>2022-08-16T12:11:53Z</time>
      </trkpt>
      <trkpt lat="44.40605" lon="6.94054">
        <ele>2055</ele>
        <time>2022-08-16T12:11:54Z</time>
      </trkpt>
      <trkpt lat="44.40605" lon="6.94058">
        <ele>2054.6</ele>
        <time>2022-08-16T12:11:55Z</time>
      </trkpt>
      <trkpt lat="44.40604" lon="6.94062">
        <ele>2054.2</ele>
        <time>2022-08-16T12:11:56Z</time>
      </trkpt>
      <trkpt lat="44.40604" lon="6.94067">
        <ele>2053.8</ele>
        <time>2022-08-16T12:11:57Z</time>
      </trkpt>
      <trkpt lat="44.40605" lon="6.94072">
        <ele>2053.2</ele>
        <time>2022-08-16T12:11:58Z</time>
      </trkpt>
      <trkpt lat="44.40605" lon="6.94077">
        <ele>2052.8</ele>
        <time>2022-08-16T12:11:59Z</time>
      </trkpt>
      <trkpt lat="44.40605" lon="6.94083">
        <ele>2052.4</ele>
        <time>2022-08-16T12:12:00Z</time>
      </trkpt>
      <trkpt lat="44.40604" lon="6.94089">
        <ele>2052</ele>
        <time>2022-08-16T12:12:01Z</time>
      </trkpt>
      <trkpt lat="44.40603" lon="6.94094">
        <ele>2050.6</ele>
        <time>2022-08-16T12:12:02Z</time>
      </trkpt>
      <trkpt lat="44.40601" lon="6.94099">
        <ele>2048.2</ele>
        <time>2022-08-16T12:12:03Z</time>
      </trkpt>
      <trkpt lat="44.406" lon="6.94104">
        <ele>2046.8</ele>
        <time>2022-08-16T12:12:04Z</time>
      </trkpt>
      <trkpt lat="44.40599" lon="6.9411">
        <ele>2045.8</ele>
        <time>2022-08-16T12:12:05Z</time>
      </trkpt>
      <trkpt lat="44.40599" lon="6.94123">
        <ele>2042.6</ele>
        <time>2022-08-16T12:12:07Z</time>
      </trkpt>
      <trkpt lat="44.40598" lon="6.94128">
        <ele>2041.4</ele>
        <time>2022-08-16T12:12:08Z</time>
      </trkpt>
      <trkpt lat="44.40596" lon="6.94133">
        <ele>2040.2</ele>
        <time>2022-08-16T12:12:09Z</time>
      </trkpt>
      <trkpt lat="44.40594" lon="6.94137">
        <ele>2039.6</ele>
        <time>2022-08-16T12:12:10Z</time>
      </trkpt>
      <trkpt lat="44.40592" lon="6.9414">
        <ele>2038.6</ele>
        <time>2022-08-16T12:12:11Z</time>
      </trkpt>
      <trkpt lat="44.40591" lon="6.94143">
        <ele>2038.6</ele>
        <time>2022-08-16T12:12:12Z</time>
      </trkpt>
      <trkpt lat="44.40589" lon="6.94147">
        <ele>2038.2</ele>
        <time>2022-08-16T12:12:13Z</time>
      </trkpt>
      <trkpt lat="44.40587" lon="6.94151">
        <ele>2036.8</ele>
        <time>2022-08-16T12:12:14Z</time>
      </trkpt>
      <trkpt lat="44.40584" lon="6.94158">
        <ele>2033.2</ele>
        <time>2022-08-16T12:12:16Z</time>
      </trkpt>
      <trkpt lat="44.40578" lon="6.94163">
        <ele>2032</ele>
        <time>2022-08-16T12:12:18Z</time>
      </trkpt>
      <trkpt lat="44.40576" lon="6.94165">
        <ele>2031.6</ele>
        <time>2022-08-16T12:12:19Z</time>
      </trkpt>
      <trkpt lat="44.40574" lon="6.94168">
        <ele>2030.8</ele>
        <time>2022-08-16T12:12:20Z</time>
      </trkpt>
      <trkpt lat="44.40573" lon="6.9417">
        <ele>2030.4</ele>
        <time>2022-08-16T12:12:21Z</time>
      </trkpt>
      <trkpt lat="44.40567" lon="6.94175">
        <ele>2028.2</ele>
        <time>2022-08-16T12:12:23Z</time>
      </trkpt>
      <trkpt lat="44.40559" lon="6.94185">
        <ele>2025</ele>
        <time>2022-08-16T12:12:26Z</time>
      </trkpt>
      <trkpt lat="44.40556" lon="6.9419">
        <ele>2023.8</ele>
        <time>2022-08-16T12:12:27Z</time>
      </trkpt>
      <trkpt lat="44.40553" lon="6.94196">
        <ele>2023.2</ele>
        <time>2022-08-16T12:12:28Z</time>
      </trkpt>
      <trkpt lat="44.4055" lon="6.94201">
        <ele>2021.8</ele>
        <time>2022-08-16T12:12:29Z</time>
      </trkpt>
      <trkpt lat="44.40547" lon="6.94205">
        <ele>2021</ele>
        <time>2022-08-16T12:12:30Z</time>
      </trkpt>
      <trkpt lat="44.40542" lon="6.94209">
        <ele>2020.4</ele>
        <time>2022-08-16T12:12:31Z</time>
      </trkpt>
      <trkpt lat="44.40538" lon="6.94213">
        <ele>2019</ele>
        <time>2022-08-16T12:12:32Z</time>
      </trkpt>
      <trkpt lat="44.40534" lon="6.94217">
        <ele>2018.2</ele>
        <time>2022-08-16T12:12:33Z</time>
      </trkpt>
      <trkpt lat="44.40532" lon="6.94222">
        <ele>2017.8</ele>
        <time>2022-08-16T12:12:34Z</time>
      </trkpt>
      <trkpt lat="44.40529" lon="6.94227">
        <ele>2017.8</ele>
        <time>2022-08-16T12:12:35Z</time>
      </trkpt>
      <trkpt lat="44.40525" lon="6.94232">
        <ele>2016.6</ele>
        <time>2022-08-16T12:12:36Z</time>
      </trkpt>
      <trkpt lat="44.4052" lon="6.94236">
        <ele>2015</ele>
        <time>2022-08-16T12:12:37Z</time>
      </trkpt>
      <trkpt lat="44.40515" lon="6.94239">
        <ele>2013.6</ele>
        <time>2022-08-16T12:12:38Z</time>
      </trkpt>
      <trkpt lat="44.4051" lon="6.94242">
        <ele>2012.6</ele>
        <time>2022-08-16T12:12:39Z</time>
      </trkpt>
      <trkpt lat="44.40506" lon="6.94246">
        <ele>2012</ele>
        <time>2022-08-16T12:12:40Z</time>
      </trkpt>
      <trkpt lat="44.40502" lon="6.94249">
        <ele>2011.2</ele>
        <time>2022-08-16T12:12:41Z</time>
      </trkpt>
      <trkpt lat="44.40498" lon="6.94251">
        <ele>2009.8</ele>
        <time>2022-08-16T12:12:42Z</time>
      </trkpt>
      <trkpt lat="44.40495" lon="6.94251">
        <ele>2009.2</ele>
        <time>2022-08-16T12:12:43Z</time>
      </trkpt>
      <trkpt lat="44.40492" lon="6.94251">
        <ele>2008.4</ele>
        <time>2022-08-16T12:12:44Z</time>
      </trkpt>
      <trkpt lat="44.4049" lon="6.94252">
        <ele>2007.8</ele>
        <time>2022-08-16T12:12:45Z</time>
      </trkpt>
      <trkpt lat="44.40488" lon="6.94254">
        <ele>2007.2</ele>
        <time>2022-08-16T12:12:46Z</time>
      </trkpt>
      <trkpt lat="44.40486" lon="6.94257">
        <ele>2006.4</ele>
        <time>2022-08-16T12:12:47Z</time>
      </trkpt>
      <trkpt lat="44.40483" lon="6.94261">
        <ele>2006.2</ele>
        <time>2022-08-16T12:12:48Z</time>
      </trkpt>
      <trkpt lat="44.4048" lon="6.94265">
        <ele>2005.4</ele>
        <time>2022-08-16T12:12:49Z</time>
      </trkpt>
      <trkpt lat="44.40478" lon="6.94269">
        <ele>2005</ele>
        <time>2022-08-16T12:12:50Z</time>
      </trkpt>
      <trkpt lat="44.40475" lon="6.94275">
        <ele>2004.4</ele>
        <time>2022-08-16T12:12:51Z</time>
      </trkpt>
      <trkpt lat="44.40471" lon="6.94281">
        <ele>2004.2</ele>
        <time>2022-08-16T12:12:52Z</time>
      </trkpt>
      <trkpt lat="44.40468" lon="6.94286">
        <ele>2003.8</ele>
        <time>2022-08-16T12:12:53Z</time>
      </trkpt>
      <trkpt lat="44.40463" lon="6.9429">
        <ele>2003.4</ele>
        <time>2022-08-16T12:12:54Z</time>
      </trkpt>
      <trkpt lat="44.4046" lon="6.94295">
        <ele>2002.8</ele>
        <time>2022-08-16T12:12:55Z</time>
      </trkpt>
      <trkpt lat="44.40451" lon="6.94305">
        <ele>2001.6</ele>
        <time>2022-08-16T12:12:57Z</time>
      </trkpt>
      <trkpt lat="44.40447" lon="6.94311">
        <ele>2001.6</ele>
        <time>2022-08-16T12:12:58Z</time>
      </trkpt>
      <trkpt lat="44.40443" lon="6.94316">
        <ele>2001</ele>
        <time>2022-08-16T12:12:59Z</time>
      </trkpt>
      <trkpt lat="44.40438" lon="6.94318">
        <ele>2000.4</ele>
        <time>2022-08-16T12:13:00Z</time>
      </trkpt>
      <trkpt lat="44.40433" lon="6.9432">
        <ele>1999.8</ele>
        <time>2022-08-16T12:13:01Z</time>
      </trkpt>
      <trkpt lat="44.40429" lon="6.94322">
        <ele>1998.6</ele>
        <time>2022-08-16T12:13:02Z</time>
      </trkpt>
      <trkpt lat="44.40425" lon="6.94323">
        <ele>1997.8</ele>
        <time>2022-08-16T12:13:03Z</time>
      </trkpt>
      <trkpt lat="44.40422" lon="6.94323">
        <ele>1997.4</ele>
        <time>2022-08-16T12:13:04Z</time>
      </trkpt>
      <trkpt lat="44.40421" lon="6.94325">
        <ele>1997.4</ele>
        <time>2022-08-16T12:13:05Z</time>
      </trkpt>
      <trkpt lat="44.40419" lon="6.94326">
        <ele>1997</ele>
        <time>2022-08-16T12:13:06Z</time>
      </trkpt>
      <trkpt lat="44.40417" lon="6.94327">
        <ele>1997</ele>
        <time>2022-08-16T12:13:07Z</time>
      </trkpt>
      <trkpt lat="44.40415" lon="6.94329">
        <ele>1996.8</ele>
        <time>2022-08-16T12:13:08Z</time>
      </trkpt>
      <trkpt lat="44.40413" lon="6.94329">
        <ele>1996.8</ele>
        <time>2022-08-16T12:13:09Z</time>
      </trkpt>
      <trkpt lat="44.40412" lon="6.9433">
        <ele>1996.8</ele>
        <time>2022-08-16T12:13:10Z</time>
      </trkpt>
      <trkpt lat="44.4041" lon="6.94331">
        <ele>1996.8</ele>
        <time>2022-08-16T12:13:11Z</time>
      </trkpt>
      <trkpt lat="44.40408" lon="6.94331">
        <ele>1996.8</ele>
        <time>2022-08-16T12:13:12Z</time>
      </trkpt>
      <trkpt lat="44.40397" lon="6.94336">
        <ele>1996.4</ele>
        <time>2022-08-16T12:13:17Z</time>
      </trkpt>
      <trkpt lat="44.40396" lon="6.94337">
        <ele>1996.6</ele>
        <time>2022-08-16T12:13:18Z</time>
      </trkpt>
      <trkpt lat="44.40394" lon="6.94337">
        <ele>1996.6</ele>
        <time>2022-08-16T12:13:19Z</time>
      </trkpt>
      <trkpt lat="44.40392" lon="6.94337">
        <ele>1996.6</ele>
        <time>2022-08-16T12:13:20Z</time>
      </trkpt>
      <trkpt lat="44.40391" lon="6.94338">
        <ele>1996.8</ele>
        <time>2022-08-16T12:13:21Z</time>
      </trkpt>
      <trkpt lat="44.40389" lon="6.94338">
        <ele>1996.8</ele>
        <time>2022-08-16T12:13:22Z</time>
      </trkpt>
      <trkpt lat="44.40388" lon="6.94339">
        <ele>1996.8</ele>
        <time>2022-08-16T12:13:23Z</time>
      </trkpt>
      <trkpt lat="44.40387" lon="6.94339">
        <ele>1996.8</ele>
        <time>2022-08-16T12:13:24Z</time>
      </trkpt>
      <trkpt lat="44.40386" lon="6.94339">
        <ele>1996.8</ele>
        <time>2022-08-16T12:13:25Z</time>
      </trkpt>
      <trkpt lat="44.40386" lon="6.94339">
        <ele>1997.4</ele>
        <time>2022-08-16T12:13:30Z</time>
      </trkpt>
      <trkpt lat="44.40386" lon="6.94339">
        <ele>1997.2</ele>
        <time>2022-08-16T12:13:39Z</time>
      </trkpt>
      <trkpt lat="44.40386" lon="6.94339">
        <ele>1997.6</ele>
        <time>2022-08-16T12:14:22Z</time>
      </trkpt>
      <trkpt lat="44.40382" lon="6.94341">
        <ele>1997.6</ele>
        <time>2022-08-16T12:14:28Z</time>
      </trkpt>
      <trkpt lat="44.40369" lon="6.94348">
        <ele>1997.6</ele>
        <time>2022-08-16T12:14:34Z</time>
      </trkpt>
      <trkpt lat="44.40367" lon="6.9435">
        <ele>1997.6</ele>
        <time>2022-08-16T12:14:35Z</time>
      </trkpt>
      <trkpt lat="44.40358" lon="6.94358">
        <ele>1997.8</ele>
        <time>2022-08-16T12:14:39Z</time>
      </trkpt>
      <trkpt lat="44.40352" lon="6.94363">
        <ele>1997.6</ele>
        <time>2022-08-16T12:14:41Z</time>
      </trkpt>
      <trkpt lat="44.40345" lon="6.94368">
        <ele>1997.8</ele>
        <time>2022-08-16T12:14:43Z</time>
      </trkpt>
      <trkpt lat="44.40339" lon="6.94374">
        <ele>1997.8</ele>
        <time>2022-08-16T12:14:45Z</time>
      </trkpt>
      <trkpt lat="44.40336" lon="6.94377">
        <ele>1998</ele>
        <time>2022-08-16T12:14:46Z</time>
      </trkpt>
      <trkpt lat="44.40324" lon="6.94385">
        <ele>1997.8</ele>
        <time>2022-08-16T12:14:49Z</time>
      </trkpt>
      <trkpt lat="44.40321" lon="6.94387">
        <ele>1997.6</ele>
        <time>2022-08-16T12:14:50Z</time>
      </trkpt>
      <trkpt lat="44.40319" lon="6.94387">
        <ele>1997.6</ele>
        <time>2022-08-16T12:14:51Z</time>
      </trkpt>
      <trkpt lat="44.40318" lon="6.94388">
        <ele>1997.6</ele>
        <time>2022-08-16T12:14:52Z</time>
      </trkpt>
      <trkpt lat="44.40318" lon="6.9439">
        <ele>1997.6</ele>
        <time>2022-08-16T12:14:53Z</time>
      </trkpt>
      <trkpt lat="44.40317" lon="6.94392">
        <ele>1997.4</ele>
        <time>2022-08-16T12:14:54Z</time>
      </trkpt>
      <trkpt lat="44.40315" lon="6.94394">
        <ele>1997.2</ele>
        <time>2022-08-16T12:14:55Z</time>
      </trkpt>
      <trkpt lat="44.40306" lon="6.94405">
        <ele>1995.4</ele>
        <time>2022-08-16T12:14:59Z</time>
      </trkpt>
      <trkpt lat="44.40304" lon="6.94407">
        <ele>1995.2</ele>
        <time>2022-08-16T12:15:00Z</time>
      </trkpt>
      <trkpt lat="44.40303" lon="6.94409">
        <ele>1994.8</ele>
        <time>2022-08-16T12:15:01Z</time>
      </trkpt>
      <trkpt lat="44.40301" lon="6.9441">
        <ele>1994.6</ele>
        <time>2022-08-16T12:15:02Z</time>
      </trkpt>
      <trkpt lat="44.403" lon="6.94411">
        <ele>1994.4</ele>
        <time>2022-08-16T12:15:04Z</time>
      </trkpt>
      <trkpt lat="44.403" lon="6.9441">
        <ele>1994.2</ele>
        <time>2022-08-16T12:15:19Z</time>
      </trkpt>
      <trkpt lat="44.40299" lon="6.94411">
        <ele>1994</ele>
        <time>2022-08-16T12:15:40Z</time>
      </trkpt>
      <trkpt lat="44.40287" lon="6.94421">
        <ele>1993.8</ele>
        <time>2022-08-16T12:15:46Z</time>
      </trkpt>
      <trkpt lat="44.40279" lon="6.94427">
        <ele>1993.8</ele>
        <time>2022-08-16T12:15:49Z</time>
      </trkpt>
      <trkpt lat="44.40273" lon="6.9443">
        <ele>1993.6</ele>
        <time>2022-08-16T12:15:51Z</time>
      </trkpt>
      <trkpt lat="44.40271" lon="6.94432">
        <ele>1993.6</ele>
        <time>2022-08-16T12:15:52Z</time>
      </trkpt>
      <trkpt lat="44.40268" lon="6.94434">
        <ele>1993.6</ele>
        <time>2022-08-16T12:15:53Z</time>
      </trkpt>
      <trkpt lat="44.40263" lon="6.94439">
        <ele>1993.4</ele>
        <time>2022-08-16T12:15:55Z</time>
      </trkpt>
      <trkpt lat="44.40258" lon="6.94444">
        <ele>1993.2</ele>
        <time>2022-08-16T12:15:57Z</time>
      </trkpt>
      <trkpt lat="44.40252" lon="6.94447">
        <ele>1993.2</ele>
        <time>2022-08-16T12:15:59Z</time>
      </trkpt>
      <trkpt lat="44.40246" lon="6.94451">
        <ele>1993</ele>
        <time>2022-08-16T12:16:01Z</time>
      </trkpt>
      <trkpt lat="44.40238" lon="6.94459">
        <ele>1992.4</ele>
        <time>2022-08-16T12:16:04Z</time>
      </trkpt>
      <trkpt lat="44.40235" lon="6.94462">
        <ele>1992.2</ele>
        <time>2022-08-16T12:16:05Z</time>
      </trkpt>
      <trkpt lat="44.40226" lon="6.94469">
        <ele>1991.8</ele>
        <time>2022-08-16T12:16:08Z</time>
      </trkpt>
      <trkpt lat="44.40223" lon="6.94472">
        <ele>1991.6</ele>
        <time>2022-08-16T12:16:09Z</time>
      </trkpt>
      <trkpt lat="44.4022" lon="6.94475">
        <ele>1991.4</ele>
        <time>2022-08-16T12:16:10Z</time>
      </trkpt>
      <trkpt lat="44.4021" lon="6.94486">
        <ele>1991</ele>
        <time>2022-08-16T12:16:13Z</time>
      </trkpt>
      <trkpt lat="44.40207" lon="6.9449">
        <ele>1991</ele>
        <time>2022-08-16T12:16:14Z</time>
      </trkpt>
      <trkpt lat="44.40203" lon="6.94494">
        <ele>1991</ele>
        <time>2022-08-16T12:16:15Z</time>
      </trkpt>
      <trkpt lat="44.402" lon="6.94498">
        <ele>1991</ele>
        <time>2022-08-16T12:16:16Z</time>
      </trkpt>
      <trkpt lat="44.40192" lon="6.94506">
        <ele>1990.8</ele>
        <time>2022-08-16T12:16:18Z</time>
      </trkpt>
      <trkpt lat="44.40189" lon="6.9451">
        <ele>1990.6</ele>
        <time>2022-08-16T12:16:19Z</time>
      </trkpt>
      <trkpt lat="44.40185" lon="6.94514">
        <ele>1990.6</ele>
        <time>2022-08-16T12:16:20Z</time>
      </trkpt>
      <trkpt lat="44.40182" lon="6.94517">
        <ele>1990.6</ele>
        <time>2022-08-16T12:16:21Z</time>
      </trkpt>
      <trkpt lat="44.40179" lon="6.9452">
        <ele>1990.4</ele>
        <time>2022-08-16T12:16:22Z</time>
      </trkpt>
      <trkpt lat="44.40176" lon="6.94523">
        <ele>1990.4</ele>
        <time>2022-08-16T12:16:23Z</time>
      </trkpt>
      <trkpt lat="44.4017" lon="6.94528">
        <ele>1990.4</ele>
        <time>2022-08-16T12:16:25Z</time>
      </trkpt>
      <trkpt lat="44.40167" lon="6.9453">
        <ele>1990.4</ele>
        <time>2022-08-16T12:16:26Z</time>
      </trkpt>
      <trkpt lat="44.40164" lon="6.94533">
        <ele>1990.2</ele>
        <time>2022-08-16T12:16:27Z</time>
      </trkpt>
      <trkpt lat="44.40162" lon="6.94536">
        <ele>1990</ele>
        <time>2022-08-16T12:16:28Z</time>
      </trkpt>
      <trkpt lat="44.4016" lon="6.94539">
        <ele>1989.6</ele>
        <time>2022-08-16T12:16:29Z</time>
      </trkpt>
      <trkpt lat="44.40158" lon="6.9454">
        <ele>1989.6</ele>
        <time>2022-08-16T12:16:30Z</time>
      </trkpt>
      <trkpt lat="44.40156" lon="6.94542">
        <ele>1989.4</ele>
        <time>2022-08-16T12:16:31Z</time>
      </trkpt>
      <trkpt lat="44.40147" lon="6.94548">
        <ele>1989</ele>
        <time>2022-08-16T12:16:35Z</time>
      </trkpt>
      <trkpt lat="44.40145" lon="6.9455">
        <ele>1989</ele>
        <time>2022-08-16T12:16:36Z</time>
      </trkpt>
      <trkpt lat="44.40143" lon="6.94551">
        <ele>1988.8</ele>
        <time>2022-08-16T12:16:37Z</time>
      </trkpt>
      <trkpt lat="44.40142" lon="6.94552">
        <ele>1989</ele>
        <time>2022-08-16T12:16:38Z</time>
      </trkpt>
      <trkpt lat="44.4014" lon="6.94553">
        <ele>1989</ele>
        <time>2022-08-16T12:16:39Z</time>
      </trkpt>
      <trkpt lat="44.40138" lon="6.94554">
        <ele>1988.8</ele>
        <time>2022-08-16T12:16:40Z</time>
      </trkpt>
      <trkpt lat="44.40132" lon="6.9456">
        <ele>1989</ele>
        <time>2022-08-16T12:16:44Z</time>
      </trkpt>
      <trkpt lat="44.4013" lon="6.94561">
        <ele>1989</ele>
        <time>2022-08-16T12:16:45Z</time>
      </trkpt>
      <trkpt lat="44.40128" lon="6.94563">
        <ele>1989.2</ele>
        <time>2022-08-16T12:16:46Z</time>
      </trkpt>
      <trkpt lat="44.40125" lon="6.94566">
        <ele>1990</ele>
        <time>2022-08-16T12:16:48Z</time>
      </trkpt>
      <trkpt lat="44.40123" lon="6.94567">
        <ele>1990.4</ele>
        <time>2022-08-16T12:16:49Z</time>
      </trkpt>
      <trkpt lat="44.40117" lon="6.94572">
        <ele>1991</ele>
        <time>2022-08-16T12:16:52Z</time>
      </trkpt>
      <trkpt lat="44.40115" lon="6.94573">
        <ele>1991</ele>
        <time>2022-08-16T12:16:53Z</time>
      </trkpt>
      <trkpt lat="44.40112" lon="6.94575">
        <ele>1991.2</ele>
        <time>2022-08-16T12:16:54Z</time>
      </trkpt>
      <trkpt lat="44.40108" lon="6.94577">
        <ele>1991.2</ele>
        <time>2022-08-16T12:16:55Z</time>
      </trkpt>
      <trkpt lat="44.40104" lon="6.94579">
        <ele>1991.4</ele>
        <time>2022-08-16T12:16:56Z</time>
      </trkpt>
      <trkpt lat="44.40099" lon="6.94584">
        <ele>1991.4</ele>
        <time>2022-08-16T12:16:57Z</time>
      </trkpt>
      <trkpt lat="44.40095" lon="6.94589">
        <ele>1991.4</ele>
        <time>2022-08-16T12:16:58Z</time>
      </trkpt>
      <trkpt lat="44.40092" lon="6.94596">
        <ele>1991.6</ele>
        <time>2022-08-16T12:16:59Z</time>
      </trkpt>
      <trkpt lat="44.40087" lon="6.94601">
        <ele>1991.6</ele>
        <time>2022-08-16T12:17:00Z</time>
      </trkpt>
      <trkpt lat="44.40082" lon="6.94606">
        <ele>1991.4</ele>
        <time>2022-08-16T12:17:01Z</time>
      </trkpt>
      <trkpt lat="44.40071" lon="6.94617">
        <ele>1991.4</ele>
        <time>2022-08-16T12:17:03Z</time>
      </trkpt>
      <trkpt lat="44.40066" lon="6.94622">
        <ele>1991.4</ele>
        <time>2022-08-16T12:17:04Z</time>
      </trkpt>
      <trkpt lat="44.40061" lon="6.94626">
        <ele>1991.4</ele>
        <time>2022-08-16T12:17:05Z</time>
      </trkpt>
      <trkpt lat="44.40057" lon="6.9463">
        <ele>1991.4</ele>
        <time>2022-08-16T12:17:06Z</time>
      </trkpt>
      <trkpt lat="44.40053" lon="6.94634">
        <ele>1991</ele>
        <time>2022-08-16T12:17:07Z</time>
      </trkpt>
      <trkpt lat="44.40051" lon="6.94638">
        <ele>1990.4</ele>
        <time>2022-08-16T12:17:08Z</time>
      </trkpt>
      <trkpt lat="44.40048" lon="6.94642">
        <ele>1990</ele>
        <time>2022-08-16T12:17:09Z</time>
      </trkpt>
      <trkpt lat="44.40046" lon="6.94645">
        <ele>1989.8</ele>
        <time>2022-08-16T12:17:10Z</time>
      </trkpt>
      <trkpt lat="44.40043" lon="6.94649">
        <ele>1989.6</ele>
        <time>2022-08-16T12:17:11Z</time>
      </trkpt>
      <trkpt lat="44.4004" lon="6.94651">
        <ele>1989.6</ele>
        <time>2022-08-16T12:17:12Z</time>
      </trkpt>
      <trkpt lat="44.40034" lon="6.94655">
        <ele>1989.6</ele>
        <time>2022-08-16T12:17:14Z</time>
      </trkpt>
      <trkpt lat="44.40032" lon="6.94658">
        <ele>1989.4</ele>
        <time>2022-08-16T12:17:15Z</time>
      </trkpt>
      <trkpt lat="44.4003" lon="6.9466">
        <ele>1989.4</ele>
        <time>2022-08-16T12:17:16Z</time>
      </trkpt>
      <trkpt lat="44.40028" lon="6.94662">
        <ele>1989.4</ele>
        <time>2022-08-16T12:17:17Z</time>
      </trkpt>
      <trkpt lat="44.40023" lon="6.94667">
        <ele>1989.2</ele>
        <time>2022-08-16T12:17:19Z</time>
      </trkpt>
      <trkpt lat="44.40013" lon="6.94675">
        <ele>1989</ele>
        <time>2022-08-16T12:17:23Z</time>
      </trkpt>
      <trkpt lat="44.4001" lon="6.94677">
        <ele>1989</ele>
        <time>2022-08-16T12:17:24Z</time>
      </trkpt>
      <trkpt lat="44.40008" lon="6.94679">
        <ele>1989</ele>
        <time>2022-08-16T12:17:25Z</time>
      </trkpt>
      <trkpt lat="44.40006" lon="6.94681">
        <ele>1989.2</ele>
        <time>2022-08-16T12:17:26Z</time>
      </trkpt>
      <trkpt lat="44.40005" lon="6.94682">
        <ele>1989.4</ele>
        <time>2022-08-16T12:17:27Z</time>
      </trkpt>
      <trkpt lat="44.40003" lon="6.94683">
        <ele>1989.4</ele>
        <time>2022-08-16T12:17:28Z</time>
      </trkpt>
      <trkpt lat="44.40002" lon="6.94684">
        <ele>1989.4</ele>
        <time>2022-08-16T12:17:29Z</time>
      </trkpt>
      <trkpt lat="44.40001" lon="6.94685">
        <ele>1989.4</ele>
        <time>2022-08-16T12:17:30Z</time>
      </trkpt>
      <trkpt lat="44.39999" lon="6.94685">
        <ele>1989.2</ele>
        <time>2022-08-16T12:17:31Z</time>
      </trkpt>
      <trkpt lat="44.39998" lon="6.94686">
        <ele>1989.4</ele>
        <time>2022-08-16T12:17:32Z</time>
      </trkpt>
      <trkpt lat="44.39995" lon="6.94686">
        <ele>1989.4</ele>
        <time>2022-08-16T12:17:34Z</time>
      </trkpt>
      <trkpt lat="44.39994" lon="6.94687">
        <ele>1989.4</ele>
        <time>2022-08-16T12:17:35Z</time>
      </trkpt>
      <trkpt lat="44.39992" lon="6.94687">
        <ele>1989.4</ele>
        <time>2022-08-16T12:17:36Z</time>
      </trkpt>
      <trkpt lat="44.39991" lon="6.94688">
        <ele>1989.6</ele>
        <time>2022-08-16T12:17:37Z</time>
      </trkpt>
      <trkpt lat="44.3999" lon="6.94688">
        <ele>1989.6</ele>
        <time>2022-08-16T12:17:38Z</time>
      </trkpt>
      <trkpt lat="44.39989" lon="6.94688">
        <ele>1989.8</ele>
        <time>2022-08-16T12:17:39Z</time>
      </trkpt>
      <trkpt lat="44.39987" lon="6.94688">
        <ele>1990</ele>
        <time>2022-08-16T12:17:40Z</time>
      </trkpt>
      <trkpt lat="44.39985" lon="6.94689">
        <ele>1990.4</ele>
        <time>2022-08-16T12:17:41Z</time>
      </trkpt>
      <trkpt lat="44.39984" lon="6.9469">
        <ele>1991.2</ele>
        <time>2022-08-16T12:17:42Z</time>
      </trkpt>
      <trkpt lat="44.39983" lon="6.9469">
        <ele>1991.6</ele>
        <time>2022-08-16T12:17:43Z</time>
      </trkpt>
      <trkpt lat="44.39981" lon="6.94691">
        <ele>1992</ele>
        <time>2022-08-16T12:17:44Z</time>
      </trkpt>
      <trkpt lat="44.3998" lon="6.94691">
        <ele>1992.2</ele>
        <time>2022-08-16T12:17:45Z</time>
      </trkpt>
      <trkpt lat="44.39979" lon="6.94692">
        <ele>1992.2</ele>
        <time>2022-08-16T12:17:46Z</time>
      </trkpt>
      <trkpt lat="44.39978" lon="6.94692">
        <ele>1992.6</ele>
        <time>2022-08-16T12:17:47Z</time>
      </trkpt>
      <trkpt lat="44.39977" lon="6.94693">
        <ele>1993</ele>
        <time>2022-08-16T12:17:48Z</time>
      </trkpt>
      <trkpt lat="44.39976" lon="6.94693">
        <ele>1993.4</ele>
        <time>2022-08-16T12:17:49Z</time>
      </trkpt>
      <trkpt lat="44.39975" lon="6.94694">
        <ele>1993.6</ele>
        <time>2022-08-16T12:17:50Z</time>
      </trkpt>
      <trkpt lat="44.39974" lon="6.94694">
        <ele>1993.6</ele>
        <time>2022-08-16T12:17:51Z</time>
      </trkpt>
      <trkpt lat="44.39972" lon="6.94695">
        <ele>1993.8</ele>
        <time>2022-08-16T12:17:52Z</time>
      </trkpt>
      <trkpt lat="44.39971" lon="6.94696">
        <ele>1994.2</ele>
        <time>2022-08-16T12:17:53Z</time>
      </trkpt>
      <trkpt lat="44.3997" lon="6.94696">
        <ele>1994.4</ele>
        <time>2022-08-16T12:17:54Z</time>
      </trkpt>
      <trkpt lat="44.39969" lon="6.94697">
        <ele>1994.6</ele>
        <time>2022-08-16T12:17:55Z</time>
      </trkpt>
      <trkpt lat="44.39967" lon="6.94697">
        <ele>1994.6</ele>
        <time>2022-08-16T12:17:56Z</time>
      </trkpt>
      <trkpt lat="44.39966" lon="6.94697">
        <ele>1994.6</ele>
        <time>2022-08-16T12:17:57Z</time>
      </trkpt>
      <trkpt lat="44.39965" lon="6.94698">
        <ele>1994.8</ele>
        <time>2022-08-16T12:17:58Z</time>
      </trkpt>
      <trkpt lat="44.39964" lon="6.94698">
        <ele>1994.8</ele>
        <time>2022-08-16T12:17:59Z</time>
      </trkpt>
      <trkpt lat="44.39962" lon="6.94699">
        <ele>1995</ele>
        <time>2022-08-16T12:18:00Z</time>
      </trkpt>
      <trkpt lat="44.39961" lon="6.94699">
        <ele>1995</ele>
        <time>2022-08-16T12:18:01Z</time>
      </trkpt>
      <trkpt lat="44.39959" lon="6.947">
        <ele>1995.2</ele>
        <time>2022-08-16T12:18:02Z</time>
      </trkpt>
      <trkpt lat="44.39958" lon="6.94701">
        <ele>1995.2</ele>
        <time>2022-08-16T12:18:03Z</time>
      </trkpt>
      <trkpt lat="44.39956" lon="6.94701">
        <ele>1995.2</ele>
        <time>2022-08-16T12:18:04Z</time>
      </trkpt>
      <trkpt lat="44.39955" lon="6.94702">
        <ele>1995.2</ele>
        <time>2022-08-16T12:18:05Z</time>
      </trkpt>
      <trkpt lat="44.39953" lon="6.94703">
        <ele>1995.4</ele>
        <time>2022-08-16T12:18:06Z</time>
      </trkpt>
      <trkpt lat="44.3995" lon="6.94704">
        <ele>1995.6</ele>
        <time>2022-08-16T12:18:08Z</time>
      </trkpt>
      <trkpt lat="44.39949" lon="6.94705">
        <ele>1995.4</ele>
        <time>2022-08-16T12:18:09Z</time>
      </trkpt>
      <trkpt lat="44.39939" lon="6.94709">
        <ele>1995.8</ele>
        <time>2022-08-16T12:18:15Z</time>
      </trkpt>
      <trkpt lat="44.39938" lon="6.94709">
        <ele>1996</ele>
        <time>2022-08-16T12:18:16Z</time>
      </trkpt>
      <trkpt lat="44.39936" lon="6.94708">
        <ele>1996</ele>
        <time>2022-08-16T12:18:17Z</time>
      </trkpt>
      <trkpt lat="44.39935" lon="6.94708">
        <ele>1996.2</ele>
        <time>2022-08-16T12:18:18Z</time>
      </trkpt>
      <trkpt lat="44.39931" lon="6.94708">
        <ele>1996.2</ele>
        <time>2022-08-16T12:18:20Z</time>
      </trkpt>
      <trkpt lat="44.3993" lon="6.94709">
        <ele>1996.4</ele>
        <time>2022-08-16T12:18:21Z</time>
      </trkpt>
      <trkpt lat="44.39928" lon="6.9471">
        <ele>1996.4</ele>
        <time>2022-08-16T12:18:22Z</time>
      </trkpt>
      <trkpt lat="44.39926" lon="6.94712">
        <ele>1996.6</ele>
        <time>2022-08-16T12:18:23Z</time>
      </trkpt>
      <trkpt lat="44.39924" lon="6.94713">
        <ele>1997</ele>
        <time>2022-08-16T12:18:24Z</time>
      </trkpt>
      <trkpt lat="44.39923" lon="6.94715">
        <ele>1997</ele>
        <time>2022-08-16T12:18:25Z</time>
      </trkpt>
      <trkpt lat="44.39922" lon="6.94715">
        <ele>1997.2</ele>
        <time>2022-08-16T12:18:26Z</time>
      </trkpt>
      <trkpt lat="44.39921" lon="6.94716">
        <ele>1997.6</ele>
        <time>2022-08-16T12:18:27Z</time>
      </trkpt>
      <trkpt lat="44.39919" lon="6.94717">
        <ele>1997.6</ele>
        <time>2022-08-16T12:18:28Z</time>
      </trkpt>
      <trkpt lat="44.39917" lon="6.94717">
        <ele>1997.8</ele>
        <time>2022-08-16T12:18:29Z</time>
      </trkpt>
      <trkpt lat="44.39914" lon="6.94716">
        <ele>1998</ele>
        <time>2022-08-16T12:18:30Z</time>
      </trkpt>
      <trkpt lat="44.39911" lon="6.94714">
        <ele>1998.2</ele>
        <time>2022-08-16T12:18:31Z</time>
      </trkpt>
      <trkpt lat="44.39907" lon="6.94713">
        <ele>1998.2</ele>
        <time>2022-08-16T12:18:32Z</time>
      </trkpt>
      <trkpt lat="44.39904" lon="6.94711">
        <ele>1998.2</ele>
        <time>2022-08-16T12:18:33Z</time>
      </trkpt>
      <trkpt lat="44.39902" lon="6.9471">
        <ele>1998.4</ele>
        <time>2022-08-16T12:18:34Z</time>
      </trkpt>
      <trkpt lat="44.399" lon="6.94709">
        <ele>1998.2</ele>
        <time>2022-08-16T12:18:35Z</time>
      </trkpt>
      <trkpt lat="44.39898" lon="6.94708">
        <ele>1998.2</ele>
        <time>2022-08-16T12:18:36Z</time>
      </trkpt>
      <trkpt lat="44.39897" lon="6.94708">
        <ele>1998.2</ele>
        <time>2022-08-16T12:18:37Z</time>
      </trkpt>
      <trkpt lat="44.39895" lon="6.94707">
        <ele>1998.2</ele>
        <time>2022-08-16T12:18:38Z</time>
      </trkpt>
      <trkpt lat="44.39893" lon="6.94707">
        <ele>1998.2</ele>
        <time>2022-08-16T12:18:39Z</time>
      </trkpt>
      <trkpt lat="44.39892" lon="6.94707">
        <ele>1998.2</ele>
        <time>2022-08-16T12:18:40Z</time>
      </trkpt>
      <trkpt lat="44.39891" lon="6.94707">
        <ele>1998</ele>
        <time>2022-08-16T12:18:41Z</time>
      </trkpt>
      <trkpt lat="44.39891" lon="6.94707">
        <ele>1998.2</ele>
        <time>2022-08-16T12:18:42Z</time>
      </trkpt>
      <trkpt lat="44.39891" lon="6.94707">
        <ele>1998.2</ele>
        <time>2022-08-16T12:18:43Z</time>
      </trkpt>
      <trkpt lat="44.39893" lon="6.94708">
        <ele>1998.4</ele>
        <time>2022-08-16T12:18:54Z</time>
      </trkpt>
      <trkpt lat="44.39895" lon="6.94708">
        <ele>1998.6</ele>
        <time>2022-08-16T12:18:56Z</time>
      </trkpt>
      <trkpt lat="44.39896" lon="6.94709">
        <ele>1998.4</ele>
        <time>2022-08-16T12:18:57Z</time>
      </trkpt>
      <trkpt lat="44.39898" lon="6.9471">
        <ele>1998.6</ele>
        <time>2022-08-16T12:18:58Z</time>
      </trkpt>
      <trkpt lat="44.39898" lon="6.9471">
        <ele>1998.6</ele>
        <time>2022-08-16T12:18:59Z</time>
      </trkpt>
      <trkpt lat="44.39899" lon="6.94709">
        <ele>1998.6</ele>
        <time>2022-08-16T12:19:00Z</time>
      </trkpt>
      <trkpt lat="44.39899" lon="6.94708">
        <ele>1998.4</ele>
        <time>2022-08-16T12:19:01Z</time>
      </trkpt>
      <trkpt lat="44.39899" lon="6.94707">
        <ele>1998.4</ele>
        <time>2022-08-16T12:19:02Z</time>
      </trkpt>
      <trkpt lat="44.39898" lon="6.94705">
        <ele>1998.4</ele>
        <time>2022-08-16T12:19:03Z</time>
      </trkpt>
      <trkpt lat="44.39897" lon="6.94704">
        <ele>1998.6</ele>
        <time>2022-08-16T12:19:04Z</time>
      </trkpt>
      <trkpt lat="44.39897" lon="6.94702">
        <ele>1998.4</ele>
        <time>2022-08-16T12:19:05Z</time>
      </trkpt>
      <trkpt lat="44.39895" lon="6.94701">
        <ele>1998.4</ele>
        <time>2022-08-16T12:19:06Z</time>
      </trkpt>
      <trkpt lat="44.39894" lon="6.94699">
        <ele>1998.4</ele>
        <time>2022-08-16T12:19:07Z</time>
      </trkpt>
      <trkpt lat="44.39894" lon="6.94697">
        <ele>1998.2</ele>
        <time>2022-08-16T12:19:08Z</time>
      </trkpt>
      <trkpt lat="44.39895" lon="6.94695">
        <ele>1998.4</ele>
        <time>2022-08-16T12:19:09Z</time>
      </trkpt>
      <trkpt lat="44.39895" lon="6.94694">
        <ele>1998.2</ele>
        <time>2022-08-16T12:19:10Z</time>
      </trkpt>
      <trkpt lat="44.39895" lon="6.94693">
        <ele>1998.2</ele>
        <time>2022-08-16T12:19:11Z</time>
      </trkpt>
      <trkpt lat="44.39895" lon="6.94692">
        <ele>1998</ele>
        <time>2022-08-16T12:19:12Z</time>
      </trkpt>
      <trkpt lat="44.39893" lon="6.94692">
        <ele>1997.8</ele>
        <time>2022-08-16T12:19:13Z</time>
      </trkpt>
      <trkpt lat="44.39892" lon="6.94692">
        <ele>1997.4</ele>
        <time>2022-08-16T12:19:14Z</time>
      </trkpt>
      <trkpt lat="44.39891" lon="6.94691">
        <ele>1996.8</ele>
        <time>2022-08-16T12:19:15Z</time>
      </trkpt>
      <trkpt lat="44.39891" lon="6.9469">
        <ele>1996</ele>
        <time>2022-08-16T12:19:18Z</time>
      </trkpt>
      <trkpt lat="44.39891" lon="6.94689">
        <ele>1995.4</ele>
        <time>2022-08-16T12:19:19Z</time>
      </trkpt>
      <trkpt lat="44.39891" lon="6.94688">
        <ele>1995.2</ele>
        <time>2022-08-16T12:19:20Z</time>
      </trkpt>
      <trkpt lat="44.39891" lon="6.94689">
        <ele>1993</ele>
        <time>2022-08-16T12:19:24Z</time>
      </trkpt>
      <trkpt lat="44.39889" lon="6.94689">
        <ele>1992.6</ele>
        <time>2022-08-16T12:19:25Z</time>
      </trkpt>
      <trkpt lat="44.39887" lon="6.9469">
        <ele>1992.2</ele>
        <time>2022-08-16T12:19:26Z</time>
      </trkpt>
      <trkpt lat="44.39883" lon="6.94691">
        <ele>1992</ele>
        <time>2022-08-16T12:19:28Z</time>
      </trkpt>
      <trkpt lat="44.39881" lon="6.94692">
        <ele>1991.4</ele>
        <time>2022-08-16T12:19:29Z</time>
      </trkpt>
      <trkpt lat="44.3988" lon="6.94691">
        <ele>1991.2</ele>
        <time>2022-08-16T12:19:30Z</time>
      </trkpt>
      <trkpt lat="44.3988" lon="6.94689">
        <ele>1991</ele>
        <time>2022-08-16T12:19:31Z</time>
      </trkpt>
      <trkpt lat="44.3988" lon="6.94682">
        <ele>1990.4</ele>
        <time>2022-08-16T12:19:33Z</time>
      </trkpt>
      <trkpt lat="44.39883" lon="6.94675">
        <ele>1988.8</ele>
        <time>2022-08-16T12:19:35Z</time>
      </trkpt>
      <trkpt lat="44.39884" lon="6.94671">
        <ele>1988</ele>
        <time>2022-08-16T12:19:36Z</time>
      </trkpt>
      <trkpt lat="44.39886" lon="6.94668">
        <ele>1987</ele>
        <time>2022-08-16T12:19:37Z</time>
      </trkpt>
      <trkpt lat="44.39887" lon="6.94665">
        <ele>1986.6</ele>
        <time>2022-08-16T12:19:38Z</time>
      </trkpt>
      <trkpt lat="44.39886" lon="6.94662">
        <ele>1986</ele>
        <time>2022-08-16T12:19:39Z</time>
      </trkpt>
      <trkpt lat="44.39886" lon="6.94661">
        <ele>1985.4</ele>
        <time>2022-08-16T12:19:40Z</time>
      </trkpt>
      <trkpt lat="44.39884" lon="6.94661">
        <ele>1985</ele>
        <time>2022-08-16T12:19:41Z</time>
      </trkpt>
      <trkpt lat="44.39883" lon="6.94662">
        <ele>1984.2</ele>
        <time>2022-08-16T12:19:42Z</time>
      </trkpt>
      <trkpt lat="44.39881" lon="6.94662">
        <ele>1984.2</ele>
        <time>2022-08-16T12:19:43Z</time>
      </trkpt>
      <trkpt lat="44.39881" lon="6.94662">
        <ele>1982.6</ele>
        <time>2022-08-16T12:19:45Z</time>
      </trkpt>
      <trkpt lat="44.39882" lon="6.9466">
        <ele>1981.8</ele>
        <time>2022-08-16T12:19:46Z</time>
      </trkpt>
      <trkpt lat="44.39882" lon="6.94658">
        <ele>1980.8</ele>
        <time>2022-08-16T12:19:47Z</time>
      </trkpt>
      <trkpt lat="44.39883" lon="6.94656">
        <ele>1980.2</ele>
        <time>2022-08-16T12:19:48Z</time>
      </trkpt>
      <trkpt lat="44.39884" lon="6.94653">
        <ele>1979</ele>
        <time>2022-08-16T12:19:50Z</time>
      </trkpt>
      <trkpt lat="44.39884" lon="6.94651">
        <ele>1978.2</ele>
        <time>2022-08-16T12:19:51Z</time>
      </trkpt>
      <trkpt lat="44.39884" lon="6.9465">
        <ele>1977.6</ele>
        <time>2022-08-16T12:19:52Z</time>
      </trkpt>
      <trkpt lat="44.39884" lon="6.94648">
        <ele>1977.2</ele>
        <time>2022-08-16T12:19:53Z</time>
      </trkpt>
      <trkpt lat="44.39883" lon="6.94645">
        <ele>1977</ele>
        <time>2022-08-16T12:19:54Z</time>
      </trkpt>
      <trkpt lat="44.39883" lon="6.94643">
        <ele>1976.8</ele>
        <time>2022-08-16T12:19:55Z</time>
      </trkpt>
      <trkpt lat="44.39882" lon="6.94643">
        <ele>1976.4</ele>
        <time>2022-08-16T12:19:56Z</time>
      </trkpt>
      <trkpt lat="44.39879" lon="6.94645">
        <ele>1975.6</ele>
        <time>2022-08-16T12:19:58Z</time>
      </trkpt>
      <trkpt lat="44.39875" lon="6.9465">
        <ele>1974.6</ele>
        <time>2022-08-16T12:20:00Z</time>
      </trkpt>
      <trkpt lat="44.39872" lon="6.94654">
        <ele>1974</ele>
        <time>2022-08-16T12:20:01Z</time>
      </trkpt>
      <trkpt lat="44.3987" lon="6.94657">
        <ele>1973.4</ele>
        <time>2022-08-16T12:20:02Z</time>
      </trkpt>
      <trkpt lat="44.39868" lon="6.9466">
        <ele>1972.8</ele>
        <time>2022-08-16T12:20:03Z</time>
      </trkpt>
      <trkpt lat="44.39867" lon="6.94662">
        <ele>1972.4</ele>
        <time>2022-08-16T12:20:04Z</time>
      </trkpt>
      <trkpt lat="44.39865" lon="6.94664">
        <ele>1971.8</ele>
        <time>2022-08-16T12:20:05Z</time>
      </trkpt>
      <trkpt lat="44.39865" lon="6.94667">
        <ele>1971.8</ele>
        <time>2022-08-16T12:20:06Z</time>
      </trkpt>
      <trkpt lat="44.39864" lon="6.9467">
        <ele>1971.2</ele>
        <time>2022-08-16T12:20:07Z</time>
      </trkpt>
      <trkpt lat="44.39863" lon="6.94671">
        <ele>1970.6</ele>
        <time>2022-08-16T12:20:08Z</time>
      </trkpt>
      <trkpt lat="44.39861" lon="6.94671">
        <ele>1970</ele>
        <time>2022-08-16T12:20:09Z</time>
      </trkpt>
      <trkpt lat="44.3986" lon="6.94671">
        <ele>1968.8</ele>
        <time>2022-08-16T12:20:10Z</time>
      </trkpt>
      <trkpt lat="44.39852" lon="6.94673">
        <ele>1965.8</ele>
        <time>2022-08-16T12:20:13Z</time>
      </trkpt>
      <trkpt lat="44.3985" lon="6.94673">
        <ele>1965.2</ele>
        <time>2022-08-16T12:20:14Z</time>
      </trkpt>
      <trkpt lat="44.39849" lon="6.94673">
        <ele>1964.8</ele>
        <time>2022-08-16T12:20:15Z</time>
      </trkpt>
      <trkpt lat="44.39849" lon="6.94671">
        <ele>1964.6</ele>
        <time>2022-08-16T12:20:16Z</time>
      </trkpt>
      <trkpt lat="44.3985" lon="6.9467">
        <ele>1964.2</ele>
        <time>2022-08-16T12:20:17Z</time>
      </trkpt>
      <trkpt lat="44.39852" lon="6.94667">
        <ele>1963.8</ele>
        <time>2022-08-16T12:20:18Z</time>
      </trkpt>
      <trkpt lat="44.39852" lon="6.94664">
        <ele>1963</ele>
        <time>2022-08-16T12:20:19Z</time>
      </trkpt>
      <trkpt lat="44.39854" lon="6.94657">
        <ele>1962</ele>
        <time>2022-08-16T12:20:21Z</time>
      </trkpt>
      <trkpt lat="44.39854" lon="6.94654">
        <ele>1961</ele>
        <time>2022-08-16T12:20:22Z</time>
      </trkpt>
      <trkpt lat="44.39854" lon="6.94653">
        <ele>1960.4</ele>
        <time>2022-08-16T12:20:23Z</time>
      </trkpt>
      <trkpt lat="44.39853" lon="6.94652">
        <ele>1959.4</ele>
        <time>2022-08-16T12:20:26Z</time>
      </trkpt>
      <trkpt lat="44.39852" lon="6.94654">
        <ele>1958</ele>
        <time>2022-08-16T12:20:28Z</time>
      </trkpt>
      <trkpt lat="44.3985" lon="6.94654">
        <ele>1958</ele>
        <time>2022-08-16T12:20:29Z</time>
      </trkpt>
      <trkpt lat="44.39848" lon="6.94654">
        <ele>1956.8</ele>
        <time>2022-08-16T12:20:31Z</time>
      </trkpt>
      <trkpt lat="44.39847" lon="6.94654">
        <ele>1956</ele>
        <time>2022-08-16T12:20:32Z</time>
      </trkpt>
      <trkpt lat="44.39846" lon="6.94653">
        <ele>1955.8</ele>
        <time>2022-08-16T12:20:33Z</time>
      </trkpt>
      <trkpt lat="44.39845" lon="6.94653">
        <ele>1955.8</ele>
        <time>2022-08-16T12:20:34Z</time>
      </trkpt>
      <trkpt lat="44.39845" lon="6.94654">
        <ele>1955.6</ele>
        <time>2022-08-16T12:20:35Z</time>
      </trkpt>
      <trkpt lat="44.39843" lon="6.94655">
        <ele>1955.6</ele>
        <time>2022-08-16T12:20:36Z</time>
      </trkpt>
      <trkpt lat="44.39841" lon="6.94656">
        <ele>1955</ele>
        <time>2022-08-16T12:20:37Z</time>
      </trkpt>
      <trkpt lat="44.39839" lon="6.94656">
        <ele>1954.8</ele>
        <time>2022-08-16T12:20:38Z</time>
      </trkpt>
      <trkpt lat="44.39835" lon="6.94658">
        <ele>1953.8</ele>
        <time>2022-08-16T12:20:40Z</time>
      </trkpt>
      <trkpt lat="44.39834" lon="6.94658">
        <ele>1953.4</ele>
        <time>2022-08-16T12:20:41Z</time>
      </trkpt>
      <trkpt lat="44.39833" lon="6.94657">
        <ele>1953</ele>
        <time>2022-08-16T12:20:42Z</time>
      </trkpt>
      <trkpt lat="44.39833" lon="6.94656">
        <ele>1952.8</ele>
        <time>2022-08-16T12:20:43Z</time>
      </trkpt>
      <trkpt lat="44.39834" lon="6.94654">
        <ele>1952.6</ele>
        <time>2022-08-16T12:20:44Z</time>
      </trkpt>
      <trkpt lat="44.39837" lon="6.94648">
        <ele>1950.2</ele>
        <time>2022-08-16T12:20:47Z</time>
      </trkpt>
      <trkpt lat="44.39838" lon="6.94645">
        <ele>1949.6</ele>
        <time>2022-08-16T12:20:48Z</time>
      </trkpt>
      <trkpt lat="44.39839" lon="6.94642">
        <ele>1948.8</ele>
        <time>2022-08-16T12:20:49Z</time>
      </trkpt>
      <trkpt lat="44.39839" lon="6.94638">
        <ele>1947.8</ele>
        <time>2022-08-16T12:20:50Z</time>
      </trkpt>
      <trkpt lat="44.39839" lon="6.94635">
        <ele>1947.2</ele>
        <time>2022-08-16T12:20:51Z</time>
      </trkpt>
      <trkpt lat="44.39838" lon="6.94631">
        <ele>1947.2</ele>
        <time>2022-08-16T12:20:52Z</time>
      </trkpt>
      <trkpt lat="44.39839" lon="6.94628">
        <ele>1946.8</ele>
        <time>2022-08-16T12:20:53Z</time>
      </trkpt>
      <trkpt lat="44.39839" lon="6.94625">
        <ele>1946.2</ele>
        <time>2022-08-16T12:20:54Z</time>
      </trkpt>
      <trkpt lat="44.39839" lon="6.94624">
        <ele>1945.8</ele>
        <time>2022-08-16T12:20:55Z</time>
      </trkpt>
      <trkpt lat="44.39839" lon="6.94623">
        <ele>1945.2</ele>
        <time>2022-08-16T12:20:56Z</time>
      </trkpt>
      <trkpt lat="44.39838" lon="6.94622">
        <ele>1944.2</ele>
        <time>2022-08-16T12:20:57Z</time>
      </trkpt>
      <trkpt lat="44.39837" lon="6.94623">
        <ele>1943.6</ele>
        <time>2022-08-16T12:20:58Z</time>
      </trkpt>
      <trkpt lat="44.39837" lon="6.94624">
        <ele>1943</ele>
        <time>2022-08-16T12:20:59Z</time>
      </trkpt>
      <trkpt lat="44.39835" lon="6.94624">
        <ele>1940.8</ele>
        <time>2022-08-16T12:21:01Z</time>
      </trkpt>
      <trkpt lat="44.39834" lon="6.94624">
        <ele>1939.8</ele>
        <time>2022-08-16T12:21:02Z</time>
      </trkpt>
      <trkpt lat="44.39834" lon="6.94624">
        <ele>1939</ele>
        <time>2022-08-16T12:21:03Z</time>
      </trkpt>
      <trkpt lat="44.39834" lon="6.94624">
        <ele>1938.4</ele>
        <time>2022-08-16T12:21:04Z</time>
      </trkpt>
      <trkpt lat="44.39835" lon="6.94623">
        <ele>1935.6</ele>
        <time>2022-08-16T12:21:10Z</time>
      </trkpt>
      <trkpt lat="44.39836" lon="6.9462">
        <ele>1935</ele>
        <time>2022-08-16T12:21:12Z</time>
      </trkpt>
      <trkpt lat="44.39836" lon="6.94617">
        <ele>1934.8</ele>
        <time>2022-08-16T12:21:14Z</time>
      </trkpt>
      <trkpt lat="44.39837" lon="6.94616">
        <ele>1934.6</ele>
        <time>2022-08-16T12:21:18Z</time>
      </trkpt>
      <trkpt lat="44.39837" lon="6.94616">
        <ele>1934.4</ele>
        <time>2022-08-16T12:21:20Z</time>
      </trkpt>
      <trkpt lat="44.39837" lon="6.94615">
        <ele>1934.4</ele>
        <time>2022-08-16T12:21:21Z</time>
      </trkpt>
      <trkpt lat="44.39838" lon="6.94615">
        <ele>1933.6</ele>
        <time>2022-08-16T12:21:24Z</time>
      </trkpt>
      <trkpt lat="44.39836" lon="6.94612">
        <ele>1933.2</ele>
        <time>2022-08-16T12:21:31Z</time>
      </trkpt>
      <trkpt lat="44.39835" lon="6.94611">
        <ele>1933.4</ele>
        <time>2022-08-16T12:21:32Z</time>
      </trkpt>
      <trkpt lat="44.39835" lon="6.94609">
        <ele>1933.2</ele>
        <time>2022-08-16T12:21:33Z</time>
      </trkpt>
      <trkpt lat="44.39835" lon="6.94608">
        <ele>1933.2</ele>
        <time>2022-08-16T12:21:34Z</time>
      </trkpt>
      <trkpt lat="44.39834" lon="6.94606">
        <ele>1933.2</ele>
        <time>2022-08-16T12:21:35Z</time>
      </trkpt>
      <trkpt lat="44.39832" lon="6.94602">
        <ele>1933.4</ele>
        <time>2022-08-16T12:21:37Z</time>
      </trkpt>
      <trkpt lat="44.39831" lon="6.94598">
        <ele>1933.2</ele>
        <time>2022-08-16T12:21:38Z</time>
      </trkpt>
      <trkpt lat="44.3983" lon="6.94595">
        <ele>1933.2</ele>
        <time>2022-08-16T12:21:39Z</time>
      </trkpt>
      <trkpt lat="44.3983" lon="6.94592">
        <ele>1933</ele>
        <time>2022-08-16T12:21:40Z</time>
      </trkpt>
      <trkpt lat="44.39827" lon="6.94586">
        <ele>1931.8</ele>
        <time>2022-08-16T12:21:42Z</time>
      </trkpt>
      <trkpt lat="44.39825" lon="6.9458">
        <ele>1931</ele>
        <time>2022-08-16T12:21:44Z</time>
      </trkpt>
      <trkpt lat="44.39824" lon="6.94577">
        <ele>1930</ele>
        <time>2022-08-16T12:21:45Z</time>
      </trkpt>
      <trkpt lat="44.39823" lon="6.94574">
        <ele>1929.2</ele>
        <time>2022-08-16T12:21:46Z</time>
      </trkpt>
      <trkpt lat="44.39823" lon="6.94571">
        <ele>1928.4</ele>
        <time>2022-08-16T12:21:47Z</time>
      </trkpt>
      <trkpt lat="44.39823" lon="6.94569">
        <ele>1927.4</ele>
        <time>2022-08-16T12:21:48Z</time>
      </trkpt>
      <trkpt lat="44.39821" lon="6.94567">
        <ele>1926.8</ele>
        <time>2022-08-16T12:21:49Z</time>
      </trkpt>
      <trkpt lat="44.39821" lon="6.94567">
        <ele>1926.2</ele>
        <time>2022-08-16T12:21:50Z</time>
      </trkpt>
      <trkpt lat="44.39821" lon="6.94569">
        <ele>1925.2</ele>
        <time>2022-08-16T12:21:51Z</time>
      </trkpt>
      <trkpt lat="44.3982" lon="6.94571">
        <ele>1924.4</ele>
        <time>2022-08-16T12:21:52Z</time>
      </trkpt>
      <trkpt lat="44.39819" lon="6.94573">
        <ele>1923.8</ele>
        <time>2022-08-16T12:21:53Z</time>
      </trkpt>
      <trkpt lat="44.39818" lon="6.94573">
        <ele>1922.8</ele>
        <time>2022-08-16T12:21:54Z</time>
      </trkpt>
      <trkpt lat="44.39817" lon="6.94572">
        <ele>1922.2</ele>
        <time>2022-08-16T12:21:55Z</time>
      </trkpt>
      <trkpt lat="44.39817" lon="6.94571">
        <ele>1921.6</ele>
        <time>2022-08-16T12:21:56Z</time>
      </trkpt>
      <trkpt lat="44.39816" lon="6.94566">
        <ele>1921</ele>
        <time>2022-08-16T12:21:57Z</time>
      </trkpt>
      <trkpt lat="44.39815" lon="6.94555">
        <ele>1920.6</ele>
        <time>2022-08-16T12:21:59Z</time>
      </trkpt>
      <trkpt lat="44.39815" lon="6.94548">
        <ele>1920.2</ele>
        <time>2022-08-16T12:22:00Z</time>
      </trkpt>
      <trkpt lat="44.39815" lon="6.94542">
        <ele>1919.8</ele>
        <time>2022-08-16T12:22:01Z</time>
      </trkpt>
      <trkpt lat="44.39815" lon="6.94535">
        <ele>1919.6</ele>
        <time>2022-08-16T12:22:02Z</time>
      </trkpt>
      <trkpt lat="44.39815" lon="6.94529">
        <ele>1919.2</ele>
        <time>2022-08-16T12:22:03Z</time>
      </trkpt>
      <trkpt lat="44.39814" lon="6.94522">
        <ele>1918.6</ele>
        <time>2022-08-16T12:22:04Z</time>
      </trkpt>
      <trkpt lat="44.39813" lon="6.94516">
        <ele>1918</ele>
        <time>2022-08-16T12:22:05Z</time>
      </trkpt>
      <trkpt lat="44.39813" lon="6.94512">
        <ele>1917.2</ele>
        <time>2022-08-16T12:22:06Z</time>
      </trkpt>
      <trkpt lat="44.39812" lon="6.94509">
        <ele>1916</ele>
        <time>2022-08-16T12:22:07Z</time>
      </trkpt>
      <trkpt lat="44.39811" lon="6.94507">
        <ele>1915.2</ele>
        <time>2022-08-16T12:22:08Z</time>
      </trkpt>
      <trkpt lat="44.3981" lon="6.94506">
        <ele>1913.8</ele>
        <time>2022-08-16T12:22:09Z</time>
      </trkpt>
      <trkpt lat="44.39809" lon="6.94505">
        <ele>1912.6</ele>
        <time>2022-08-16T12:22:10Z</time>
      </trkpt>
      <trkpt lat="44.39808" lon="6.94505">
        <ele>1911.6</ele>
        <time>2022-08-16T12:22:11Z</time>
      </trkpt>
      <trkpt lat="44.39806" lon="6.94504">
        <ele>1910.2</ele>
        <time>2022-08-16T12:22:12Z</time>
      </trkpt>
      <trkpt lat="44.39805" lon="6.94502">
        <ele>1909.4</ele>
        <time>2022-08-16T12:22:13Z</time>
      </trkpt>
      <trkpt lat="44.39804" lon="6.945">
        <ele>1907.8</ele>
        <time>2022-08-16T12:22:14Z</time>
      </trkpt>
      <trkpt lat="44.39803" lon="6.94497">
        <ele>1907</ele>
        <time>2022-08-16T12:22:15Z</time>
      </trkpt>
      <trkpt lat="44.39803" lon="6.94492">
        <ele>1906</ele>
        <time>2022-08-16T12:22:16Z</time>
      </trkpt>
      <trkpt lat="44.39801" lon="6.94487">
        <ele>1905.4</ele>
        <time>2022-08-16T12:22:17Z</time>
      </trkpt>
      <trkpt lat="44.39801" lon="6.94478">
        <ele>1904.2</ele>
        <time>2022-08-16T12:22:19Z</time>
      </trkpt>
      <trkpt lat="44.398" lon="6.94474">
        <ele>1903.6</ele>
        <time>2022-08-16T12:22:20Z</time>
      </trkpt>
      <trkpt lat="44.39798" lon="6.9447">
        <ele>1903.6</ele>
        <time>2022-08-16T12:22:21Z</time>
      </trkpt>
      <trkpt lat="44.39797" lon="6.94464">
        <ele>1902.2</ele>
        <time>2022-08-16T12:22:22Z</time>
      </trkpt>
      <trkpt lat="44.39796" lon="6.94451">
        <ele>1901</ele>
        <time>2022-08-16T12:22:24Z</time>
      </trkpt>
      <trkpt lat="44.39795" lon="6.94445">
        <ele>1899.4</ele>
        <time>2022-08-16T12:22:25Z</time>
      </trkpt>
      <trkpt lat="44.39795" lon="6.94439">
        <ele>1898.4</ele>
        <time>2022-08-16T12:22:26Z</time>
      </trkpt>
      <trkpt lat="44.39794" lon="6.94433">
        <ele>1897.4</ele>
        <time>2022-08-16T12:22:27Z</time>
      </trkpt>
      <trkpt lat="44.39792" lon="6.9443">
        <ele>1896.6</ele>
        <time>2022-08-16T12:22:28Z</time>
      </trkpt>
      <trkpt lat="44.39791" lon="6.94427">
        <ele>1895.6</ele>
        <time>2022-08-16T12:22:29Z</time>
      </trkpt>
      <trkpt lat="44.39789" lon="6.94418">
        <ele>1893.8</ele>
        <time>2022-08-16T12:22:31Z</time>
      </trkpt>
      <trkpt lat="44.39788" lon="6.94413">
        <ele>1892.8</ele>
        <time>2022-08-16T12:22:32Z</time>
      </trkpt>
      <trkpt lat="44.39787" lon="6.94409">
        <ele>1891.8</ele>
        <time>2022-08-16T12:22:33Z</time>
      </trkpt>
      <trkpt lat="44.39786" lon="6.94405">
        <ele>1891</ele>
        <time>2022-08-16T12:22:34Z</time>
      </trkpt>
      <trkpt lat="44.39785" lon="6.94398">
        <ele>1890.4</ele>
        <time>2022-08-16T12:22:35Z</time>
      </trkpt>
      <trkpt lat="44.39784" lon="6.94386">
        <ele>1889.4</ele>
        <time>2022-08-16T12:22:37Z</time>
      </trkpt>
      <trkpt lat="44.39785" lon="6.94382">
        <ele>1888.4</ele>
        <time>2022-08-16T12:22:38Z</time>
      </trkpt>
      <trkpt lat="44.39787" lon="6.94378">
        <ele>1888</ele>
        <time>2022-08-16T12:22:39Z</time>
      </trkpt>
      <trkpt lat="44.39788" lon="6.94375">
        <ele>1886.8</ele>
        <time>2022-08-16T12:22:40Z</time>
      </trkpt>
      <trkpt lat="44.39788" lon="6.94372">
        <ele>1886</ele>
        <time>2022-08-16T12:22:41Z</time>
      </trkpt>
      <trkpt lat="44.39787" lon="6.94369">
        <ele>1886</ele>
        <time>2022-08-16T12:22:42Z</time>
      </trkpt>
      <trkpt lat="44.39787" lon="6.94365">
        <ele>1885</ele>
        <time>2022-08-16T12:22:43Z</time>
      </trkpt>
      <trkpt lat="44.39786" lon="6.94361">
        <ele>1884.4</ele>
        <time>2022-08-16T12:22:44Z</time>
      </trkpt>
      <trkpt lat="44.39786" lon="6.94356">
        <ele>1883</ele>
        <time>2022-08-16T12:22:45Z</time>
      </trkpt>
      <trkpt lat="44.39787" lon="6.94346">
        <ele>1881.2</ele>
        <time>2022-08-16T12:22:47Z</time>
      </trkpt>
      <trkpt lat="44.39788" lon="6.9434">
        <ele>1879.8</ele>
        <time>2022-08-16T12:22:48Z</time>
      </trkpt>
      <trkpt lat="44.39788" lon="6.94333">
        <ele>1879.2</ele>
        <time>2022-08-16T12:22:49Z</time>
      </trkpt>
      <trkpt lat="44.39788" lon="6.94327">
        <ele>1878.6</ele>
        <time>2022-08-16T12:22:50Z</time>
      </trkpt>
      <trkpt lat="44.39787" lon="6.94321">
        <ele>1877.6</ele>
        <time>2022-08-16T12:22:51Z</time>
      </trkpt>
      <trkpt lat="44.39786" lon="6.94308">
        <ele>1875.8</ele>
        <time>2022-08-16T12:22:53Z</time>
      </trkpt>
      <trkpt lat="44.39785" lon="6.94302">
        <ele>1874.8</ele>
        <time>2022-08-16T12:22:54Z</time>
      </trkpt>
      <trkpt lat="44.39785" lon="6.94297">
        <ele>1874</ele>
        <time>2022-08-16T12:22:55Z</time>
      </trkpt>
      <trkpt lat="44.39785" lon="6.94291">
        <ele>1873.2</ele>
        <time>2022-08-16T12:22:56Z</time>
      </trkpt>
      <trkpt lat="44.39785" lon="6.94288">
        <ele>1872</ele>
        <time>2022-08-16T12:22:57Z</time>
      </trkpt>
      <trkpt lat="44.39785" lon="6.94284">
        <ele>1870.2</ele>
        <time>2022-08-16T12:22:58Z</time>
      </trkpt>
      <trkpt lat="44.39785" lon="6.94281">
        <ele>1868.4</ele>
        <time>2022-08-16T12:22:59Z</time>
      </trkpt>
      <trkpt lat="44.39784" lon="6.94276">
        <ele>1866.8</ele>
        <time>2022-08-16T12:23:00Z</time>
      </trkpt>
      <trkpt lat="44.39783" lon="6.94265">
        <ele>1864.4</ele>
        <time>2022-08-16T12:23:02Z</time>
      </trkpt>
      <trkpt lat="44.39782" lon="6.94261">
        <ele>1863.2</ele>
        <time>2022-08-16T12:23:03Z</time>
      </trkpt>
      <trkpt lat="44.39783" lon="6.94259">
        <ele>1861.6</ele>
        <time>2022-08-16T12:23:04Z</time>
      </trkpt>
      <trkpt lat="44.39782" lon="6.94257">
        <ele>1861.6</ele>
        <time>2022-08-16T12:23:05Z</time>
      </trkpt>
      <trkpt lat="44.39782" lon="6.94255">
        <ele>1860.6</ele>
        <time>2022-08-16T12:23:06Z</time>
      </trkpt>
      <trkpt lat="44.39781" lon="6.94253">
        <ele>1860</ele>
        <time>2022-08-16T12:23:07Z</time>
      </trkpt>
      <trkpt lat="44.3978" lon="6.94251">
        <ele>1858.2</ele>
        <time>2022-08-16T12:23:09Z</time>
      </trkpt>
      <trkpt lat="44.39779" lon="6.94252">
        <ele>1856</ele>
        <time>2022-08-16T12:23:10Z</time>
      </trkpt>
      <trkpt lat="44.39778" lon="6.94252">
        <ele>1854.6</ele>
        <time>2022-08-16T12:23:11Z</time>
      </trkpt>
      <trkpt lat="44.39776" lon="6.94252">
        <ele>1853.6</ele>
        <time>2022-08-16T12:23:12Z</time>
      </trkpt>
      <trkpt lat="44.39775" lon="6.94252">
        <ele>1852.8</ele>
        <time>2022-08-16T12:23:13Z</time>
      </trkpt>
      <trkpt lat="44.39774" lon="6.94252">
        <ele>1850.6</ele>
        <time>2022-08-16T12:23:16Z</time>
      </trkpt>
      <trkpt lat="44.39775" lon="6.94253">
        <ele>1848.2</ele>
        <time>2022-08-16T12:23:21Z</time>
      </trkpt>
      <trkpt lat="44.39775" lon="6.94253">
        <ele>1847.4</ele>
        <time>2022-08-16T12:23:26Z</time>
      </trkpt>
      <trkpt lat="44.39777" lon="6.94252">
        <ele>1847.2</ele>
        <time>2022-08-16T12:23:34Z</time>
      </trkpt>
      <trkpt lat="44.39777" lon="6.9425">
        <ele>1847.4</ele>
        <time>2022-08-16T12:23:35Z</time>
      </trkpt>
      <trkpt lat="44.39776" lon="6.94248">
        <ele>1847.2</ele>
        <time>2022-08-16T12:23:36Z</time>
      </trkpt>
      <trkpt lat="44.39775" lon="6.94246">
        <ele>1847.4</ele>
        <time>2022-08-16T12:23:37Z</time>
      </trkpt>
      <trkpt lat="44.39774" lon="6.94245">
        <ele>1847.2</ele>
        <time>2022-08-16T12:23:38Z</time>
      </trkpt>
      <trkpt lat="44.39772" lon="6.94246">
        <ele>1847.2</ele>
        <time>2022-08-16T12:23:39Z</time>
      </trkpt>
      <trkpt lat="44.39771" lon="6.94246">
        <ele>1847.4</ele>
        <time>2022-08-16T12:23:40Z</time>
      </trkpt>
      <trkpt lat="44.39771" lon="6.94244">
        <ele>1847.2</ele>
        <time>2022-08-16T12:23:41Z</time>
      </trkpt>
      <trkpt lat="44.39771" lon="6.94241">
        <ele>1847.4</ele>
        <time>2022-08-16T12:23:42Z</time>
      </trkpt>
      <trkpt lat="44.39772" lon="6.94234">
        <ele>1846.4</ele>
        <time>2022-08-16T12:23:44Z</time>
      </trkpt>
      <trkpt lat="44.39772" lon="6.94231">
        <ele>1845.8</ele>
        <time>2022-08-16T12:23:45Z</time>
      </trkpt>
      <trkpt lat="44.39772" lon="6.94229">
        <ele>1845</ele>
        <time>2022-08-16T12:23:46Z</time>
      </trkpt>
      <trkpt lat="44.39772" lon="6.94227">
        <ele>1844.2</ele>
        <time>2022-08-16T12:23:47Z</time>
      </trkpt>
      <trkpt lat="44.39771" lon="6.94227">
        <ele>1843.4</ele>
        <time>2022-08-16T12:23:49Z</time>
      </trkpt>
      <trkpt lat="44.3977" lon="6.94228">
        <ele>1842.8</ele>
        <time>2022-08-16T12:23:50Z</time>
      </trkpt>
      <trkpt lat="44.39766" lon="6.94233">
        <ele>1841.8</ele>
        <time>2022-08-16T12:23:52Z</time>
      </trkpt>
      <trkpt lat="44.39759" lon="6.9424">
        <ele>1839.2</ele>
        <time>2022-08-16T12:23:55Z</time>
      </trkpt>
      <trkpt lat="44.39757" lon="6.94241">
        <ele>1838.6</ele>
        <time>2022-08-16T12:23:56Z</time>
      </trkpt>
      <trkpt lat="44.39755" lon="6.9424">
        <ele>1838.2</ele>
        <time>2022-08-16T12:23:57Z</time>
      </trkpt>
      <trkpt lat="44.39754" lon="6.94239">
        <ele>1837.2</ele>
        <time>2022-08-16T12:23:59Z</time>
      </trkpt>
      <trkpt lat="44.39755" lon="6.94239">
        <ele>1836.6</ele>
        <time>2022-08-16T12:24:00Z</time>
      </trkpt>
      <trkpt lat="44.39755" lon="6.94236">
        <ele>1835.4</ele>
        <time>2022-08-16T12:24:02Z</time>
      </trkpt>
      <trkpt lat="44.39754" lon="6.94235">
        <ele>1834.8</ele>
        <time>2022-08-16T12:24:03Z</time>
      </trkpt>
      <trkpt lat="44.39754" lon="6.94235">
        <ele>1834.6</ele>
        <time>2022-08-16T12:24:04Z</time>
      </trkpt>
      <trkpt lat="44.39752" lon="6.94236">
        <ele>1834</ele>
        <time>2022-08-16T12:24:05Z</time>
      </trkpt>
      <trkpt lat="44.39748" lon="6.94241">
        <ele>1832.8</ele>
        <time>2022-08-16T12:24:08Z</time>
      </trkpt>
      <trkpt lat="44.39747" lon="6.94242">
        <ele>1832.6</ele>
        <time>2022-08-16T12:24:09Z</time>
      </trkpt>
      <trkpt lat="44.39745" lon="6.94242">
        <ele>1832.6</ele>
        <time>2022-08-16T12:24:10Z</time>
      </trkpt>
      <trkpt lat="44.39744" lon="6.94241">
        <ele>1832.2</ele>
        <time>2022-08-16T12:24:11Z</time>
      </trkpt>
      <trkpt lat="44.39744" lon="6.9424">
        <ele>1831.8</ele>
        <time>2022-08-16T12:24:12Z</time>
      </trkpt>
      <trkpt lat="44.39745" lon="6.94238">
        <ele>1831.2</ele>
        <time>2022-08-16T12:24:13Z</time>
      </trkpt>
      <trkpt lat="44.39746" lon="6.94235">
        <ele>1831</ele>
        <time>2022-08-16T12:24:14Z</time>
      </trkpt>
      <trkpt lat="44.39749" lon="6.94227">
        <ele>1830</ele>
        <time>2022-08-16T12:24:16Z</time>
      </trkpt>
      <trkpt lat="44.3975" lon="6.94224">
        <ele>1829.8</ele>
        <time>2022-08-16T12:24:17Z</time>
      </trkpt>
      <trkpt lat="44.39751" lon="6.94221">
        <ele>1829.2</ele>
        <time>2022-08-16T12:24:18Z</time>
      </trkpt>
      <trkpt lat="44.39752" lon="6.94218">
        <ele>1828.4</ele>
        <time>2022-08-16T12:24:19Z</time>
      </trkpt>
      <trkpt lat="44.39753" lon="6.94215">
        <ele>1827.8</ele>
        <time>2022-08-16T12:24:20Z</time>
      </trkpt>
      <trkpt lat="44.39753" lon="6.94205">
        <ele>1826.8</ele>
        <time>2022-08-16T12:24:22Z</time>
      </trkpt>
      <trkpt lat="44.39753" lon="6.942">
        <ele>1826.4</ele>
        <time>2022-08-16T12:24:23Z</time>
      </trkpt>
      <trkpt lat="44.39753" lon="6.94195">
        <ele>1825.8</ele>
        <time>2022-08-16T12:24:24Z</time>
      </trkpt>
      <trkpt lat="44.39752" lon="6.94191">
        <ele>1825.2</ele>
        <time>2022-08-16T12:24:25Z</time>
      </trkpt>
      <trkpt lat="44.39752" lon="6.94187">
        <ele>1824.4</ele>
        <time>2022-08-16T12:24:26Z</time>
      </trkpt>
      <trkpt lat="44.39751" lon="6.94184">
        <ele>1823.8</ele>
        <time>2022-08-16T12:24:27Z</time>
      </trkpt>
      <trkpt lat="44.3975" lon="6.94184">
        <ele>1823.4</ele>
        <time>2022-08-16T12:24:28Z</time>
      </trkpt>
      <trkpt lat="44.3975" lon="6.94184">
        <ele>1822.6</ele>
        <time>2022-08-16T12:24:29Z</time>
      </trkpt>
      <trkpt lat="44.39749" lon="6.94186">
        <ele>1821.8</ele>
        <time>2022-08-16T12:24:30Z</time>
      </trkpt>
      <trkpt lat="44.39743" lon="6.94191">
        <ele>1819.8</ele>
        <time>2022-08-16T12:24:33Z</time>
      </trkpt>
      <trkpt lat="44.39743" lon="6.9419">
        <ele>1819.2</ele>
        <time>2022-08-16T12:24:34Z</time>
      </trkpt>
      <trkpt lat="44.39742" lon="6.94188">
        <ele>1817.8</ele>
        <time>2022-08-16T12:24:35Z</time>
      </trkpt>
      <trkpt lat="44.39742" lon="6.94183">
        <ele>1817</ele>
        <time>2022-08-16T12:24:36Z</time>
      </trkpt>
      <trkpt lat="44.39742" lon="6.94178">
        <ele>1816.2</ele>
        <time>2022-08-16T12:24:37Z</time>
      </trkpt>
      <trkpt lat="44.39742" lon="6.94165">
        <ele>1815</ele>
        <time>2022-08-16T12:24:39Z</time>
      </trkpt>
      <trkpt lat="44.39742" lon="6.94158">
        <ele>1814.2</ele>
        <time>2022-08-16T12:24:40Z</time>
      </trkpt>
      <trkpt lat="44.39744" lon="6.94153">
        <ele>1813.2</ele>
        <time>2022-08-16T12:24:41Z</time>
      </trkpt>
      <trkpt lat="44.39744" lon="6.94147">
        <ele>1812.4</ele>
        <time>2022-08-16T12:24:42Z</time>
      </trkpt>
      <trkpt lat="44.39744" lon="6.94141">
        <ele>1812</ele>
        <time>2022-08-16T12:24:43Z</time>
      </trkpt>
      <trkpt lat="44.39744" lon="6.94135">
        <ele>1811.4</ele>
        <time>2022-08-16T12:24:44Z</time>
      </trkpt>
      <trkpt lat="44.39744" lon="6.94129">
        <ele>1810.8</ele>
        <time>2022-08-16T12:24:45Z</time>
      </trkpt>
      <trkpt lat="44.39743" lon="6.94125">
        <ele>1810</ele>
        <time>2022-08-16T12:24:46Z</time>
      </trkpt>
      <trkpt lat="44.39742" lon="6.94115">
        <ele>1809</ele>
        <time>2022-08-16T12:24:48Z</time>
      </trkpt>
      <trkpt lat="44.39742" lon="6.94111">
        <ele>1808.8</ele>
        <time>2022-08-16T12:24:49Z</time>
      </trkpt>
      <trkpt lat="44.39742" lon="6.94109">
        <ele>1808.6</ele>
        <time>2022-08-16T12:24:50Z</time>
      </trkpt>
      <trkpt lat="44.39741" lon="6.94106">
        <ele>1808.4</ele>
        <time>2022-08-16T12:24:51Z</time>
      </trkpt>
      <trkpt lat="44.3974" lon="6.94105">
        <ele>1807.8</ele>
        <time>2022-08-16T12:24:52Z</time>
      </trkpt>
      <trkpt lat="44.39738" lon="6.94103">
        <ele>1807.6</ele>
        <time>2022-08-16T12:24:53Z</time>
      </trkpt>
      <trkpt lat="44.39737" lon="6.941">
        <ele>1807.4</ele>
        <time>2022-08-16T12:24:54Z</time>
      </trkpt>
      <trkpt lat="44.39737" lon="6.94097">
        <ele>1807.4</ele>
        <time>2022-08-16T12:24:55Z</time>
      </trkpt>
      <trkpt lat="44.39737" lon="6.94094">
        <ele>1807.2</ele>
        <time>2022-08-16T12:24:56Z</time>
      </trkpt>
      <trkpt lat="44.39737" lon="6.94091">
        <ele>1807</ele>
        <time>2022-08-16T12:24:57Z</time>
      </trkpt>
      <trkpt lat="44.39736" lon="6.94089">
        <ele>1807</ele>
        <time>2022-08-16T12:24:58Z</time>
      </trkpt>
      <trkpt lat="44.39732" lon="6.94086">
        <ele>1806.8</ele>
        <time>2022-08-16T12:25:00Z</time>
      </trkpt>
      <trkpt lat="44.3973" lon="6.94085">
        <ele>1806.8</ele>
        <time>2022-08-16T12:25:01Z</time>
      </trkpt>
      <trkpt lat="44.39728" lon="6.94083">
        <ele>1806.6</ele>
        <time>2022-08-16T12:25:02Z</time>
      </trkpt>
      <trkpt lat="44.39728" lon="6.9408">
        <ele>1806.2</ele>
        <time>2022-08-16T12:25:03Z</time>
      </trkpt>
      <trkpt lat="44.39728" lon="6.94077">
        <ele>1805.8</ele>
        <time>2022-08-16T12:25:04Z</time>
      </trkpt>
      <trkpt lat="44.39727" lon="6.94075">
        <ele>1805.2</ele>
        <time>2022-08-16T12:25:05Z</time>
      </trkpt>
      <trkpt lat="44.39727" lon="6.94074">
        <ele>1804.6</ele>
        <time>2022-08-16T12:25:06Z</time>
      </trkpt>
      <trkpt lat="44.39726" lon="6.94074">
        <ele>1804</ele>
        <time>2022-08-16T12:25:07Z</time>
      </trkpt>
      <trkpt lat="44.39725" lon="6.94074">
        <ele>1803</ele>
        <time>2022-08-16T12:25:08Z</time>
      </trkpt>
      <trkpt lat="44.39724" lon="6.94073">
        <ele>1802.6</ele>
        <time>2022-08-16T12:25:09Z</time>
      </trkpt>
      <trkpt lat="44.39721" lon="6.94068">
        <ele>1801</ele>
        <time>2022-08-16T12:25:11Z</time>
      </trkpt>
      <trkpt lat="44.39718" lon="6.94061">
        <ele>1800.2</ele>
        <time>2022-08-16T12:25:13Z</time>
      </trkpt>
      <trkpt lat="44.39717" lon="6.94059">
        <ele>1799.8</ele>
        <time>2022-08-16T12:25:14Z</time>
      </trkpt>
      <trkpt lat="44.39716" lon="6.94058">
        <ele>1799.6</ele>
        <time>2022-08-16T12:25:15Z</time>
      </trkpt>
      <trkpt lat="44.39715" lon="6.94059">
        <ele>1799.2</ele>
        <time>2022-08-16T12:25:16Z</time>
      </trkpt>
      <trkpt lat="44.39714" lon="6.94059">
        <ele>1799.2</ele>
        <time>2022-08-16T12:25:17Z</time>
      </trkpt>
      <trkpt lat="44.39713" lon="6.94058">
        <ele>1799.2</ele>
        <time>2022-08-16T12:25:18Z</time>
      </trkpt>
      <trkpt lat="44.39712" lon="6.94057">
        <ele>1798.6</ele>
        <time>2022-08-16T12:25:19Z</time>
      </trkpt>
      <trkpt lat="44.39712" lon="6.94058">
        <ele>1798.4</ele>
        <time>2022-08-16T12:25:20Z</time>
      </trkpt>
      <trkpt lat="44.39711" lon="6.94058">
        <ele>1797.8</ele>
        <time>2022-08-16T12:25:21Z</time>
      </trkpt>
      <trkpt lat="44.39711" lon="6.94059">
        <ele>1797.2</ele>
        <time>2022-08-16T12:25:22Z</time>
      </trkpt>
      <trkpt lat="44.3971" lon="6.94061">
        <ele>1796.6</ele>
        <time>2022-08-16T12:25:23Z</time>
      </trkpt>
      <trkpt lat="44.39709" lon="6.94061">
        <ele>1796</ele>
        <time>2022-08-16T12:25:24Z</time>
      </trkpt>
      <trkpt lat="44.39709" lon="6.94061">
        <ele>1795.6</ele>
        <time>2022-08-16T12:25:25Z</time>
      </trkpt>
      <trkpt lat="44.39708" lon="6.94059">
        <ele>1795.2</ele>
        <time>2022-08-16T12:25:26Z</time>
      </trkpt>
      <trkpt lat="44.39708" lon="6.94057">
        <ele>1794.8</ele>
        <time>2022-08-16T12:25:27Z</time>
      </trkpt>
      <trkpt lat="44.39707" lon="6.94057">
        <ele>1794.2</ele>
        <time>2022-08-16T12:25:28Z</time>
      </trkpt>
      <trkpt lat="44.39706" lon="6.94058">
        <ele>1793.8</ele>
        <time>2022-08-16T12:25:29Z</time>
      </trkpt>
      <trkpt lat="44.39705" lon="6.9406">
        <ele>1793.8</ele>
        <time>2022-08-16T12:25:30Z</time>
      </trkpt>
      <trkpt lat="44.39703" lon="6.94063">
        <ele>1793.4</ele>
        <time>2022-08-16T12:25:31Z</time>
      </trkpt>
      <trkpt lat="44.397" lon="6.94067">
        <ele>1793</ele>
        <time>2022-08-16T12:25:32Z</time>
      </trkpt>
      <trkpt lat="44.39698" lon="6.9407">
        <ele>1792.4</ele>
        <time>2022-08-16T12:25:33Z</time>
      </trkpt>
      <trkpt lat="44.39697" lon="6.94074">
        <ele>1792.2</ele>
        <time>2022-08-16T12:25:34Z</time>
      </trkpt>
      <trkpt lat="44.39697" lon="6.94078">
        <ele>1791.8</ele>
        <time>2022-08-16T12:25:35Z</time>
      </trkpt>
      <trkpt lat="44.39699" lon="6.94086">
        <ele>1790.8</ele>
        <time>2022-08-16T12:25:37Z</time>
      </trkpt>
      <trkpt lat="44.397" lon="6.94089">
        <ele>1790.4</ele>
        <time>2022-08-16T12:25:38Z</time>
      </trkpt>
      <trkpt lat="44.39701" lon="6.94093">
        <ele>1790.2</ele>
        <time>2022-08-16T12:25:39Z</time>
      </trkpt>
      <trkpt lat="44.39701" lon="6.94096">
        <ele>1790.2</ele>
        <time>2022-08-16T12:25:40Z</time>
      </trkpt>
      <trkpt lat="44.397" lon="6.94098">
        <ele>1789.4</ele>
        <time>2022-08-16T12:25:41Z</time>
      </trkpt>
      <trkpt lat="44.397" lon="6.94099">
        <ele>1788.8</ele>
        <time>2022-08-16T12:25:42Z</time>
      </trkpt>
      <trkpt lat="44.39699" lon="6.94102">
        <ele>1787.8</ele>
        <time>2022-08-16T12:25:43Z</time>
      </trkpt>
      <trkpt lat="44.39698" lon="6.94104">
        <ele>1787.2</ele>
        <time>2022-08-16T12:25:44Z</time>
      </trkpt>
      <trkpt lat="44.39696" lon="6.9411">
        <ele>1784.8</ele>
        <time>2022-08-16T12:25:46Z</time>
      </trkpt>
      <trkpt lat="44.39693" lon="6.94117">
        <ele>1783.2</ele>
        <time>2022-08-16T12:25:48Z</time>
      </trkpt>
      <trkpt lat="44.39692" lon="6.9412">
        <ele>1782.8</ele>
        <time>2022-08-16T12:25:49Z</time>
      </trkpt>
      <trkpt lat="44.3969" lon="6.94122">
        <ele>1782</ele>
        <time>2022-08-16T12:25:50Z</time>
      </trkpt>
      <trkpt lat="44.39688" lon="6.94125">
        <ele>1781.4</ele>
        <time>2022-08-16T12:25:51Z</time>
      </trkpt>
      <trkpt lat="44.39685" lon="6.94133">
        <ele>1780</ele>
        <time>2022-08-16T12:25:53Z</time>
      </trkpt>
      <trkpt lat="44.39684" lon="6.94138">
        <ele>1779.2</ele>
        <time>2022-08-16T12:25:54Z</time>
      </trkpt>
      <trkpt lat="44.39682" lon="6.94142">
        <ele>1777.8</ele>
        <time>2022-08-16T12:25:55Z</time>
      </trkpt>
      <trkpt lat="44.39679" lon="6.94145">
        <ele>1776.8</ele>
        <time>2022-08-16T12:25:56Z</time>
      </trkpt>
      <trkpt lat="44.39677" lon="6.94147">
        <ele>1775.6</ele>
        <time>2022-08-16T12:25:57Z</time>
      </trkpt>
      <trkpt lat="44.39674" lon="6.9415">
        <ele>1774.8</ele>
        <time>2022-08-16T12:25:58Z</time>
      </trkpt>
      <trkpt lat="44.3967" lon="6.94154">
        <ele>1774.4</ele>
        <time>2022-08-16T12:25:59Z</time>
      </trkpt>
      <trkpt lat="44.39666" lon="6.94159">
        <ele>1773.4</ele>
        <time>2022-08-16T12:26:00Z</time>
      </trkpt>
      <trkpt lat="44.39662" lon="6.94164">
        <ele>1772.8</ele>
        <time>2022-08-16T12:26:01Z</time>
      </trkpt>
      <trkpt lat="44.39653" lon="6.94169">
        <ele>1772</ele>
        <time>2022-08-16T12:26:03Z</time>
      </trkpt>
      <trkpt lat="44.39648" lon="6.94167">
        <ele>1770.8</ele>
        <time>2022-08-16T12:26:04Z</time>
      </trkpt>
      <trkpt lat="44.39645" lon="6.94165">
        <ele>1770</ele>
        <time>2022-08-16T12:26:05Z</time>
      </trkpt>
      <trkpt lat="44.39644" lon="6.94163">
        <ele>1769</ele>
        <time>2022-08-16T12:26:06Z</time>
      </trkpt>
      <trkpt lat="44.39644" lon="6.94161">
        <ele>1767.8</ele>
        <time>2022-08-16T12:26:07Z</time>
      </trkpt>
      <trkpt lat="44.39646" lon="6.94154">
        <ele>1764.6</ele>
        <time>2022-08-16T12:26:09Z</time>
      </trkpt>
      <trkpt lat="44.39647" lon="6.94149">
        <ele>1762.4</ele>
        <time>2022-08-16T12:26:10Z</time>
      </trkpt>
      <trkpt lat="44.39647" lon="6.94146">
        <ele>1760.6</ele>
        <time>2022-08-16T12:26:11Z</time>
      </trkpt>
      <trkpt lat="44.39647" lon="6.94143">
        <ele>1759</ele>
        <time>2022-08-16T12:26:12Z</time>
      </trkpt>
      <trkpt lat="44.39647" lon="6.94139">
        <ele>1758</ele>
        <time>2022-08-16T12:26:13Z</time>
      </trkpt>
      <trkpt lat="44.39646" lon="6.94133">
        <ele>1756.6</ele>
        <time>2022-08-16T12:26:14Z</time>
      </trkpt>
      <trkpt lat="44.39645" lon="6.94127">
        <ele>1755.8</ele>
        <time>2022-08-16T12:26:15Z</time>
      </trkpt>
      <trkpt lat="44.39645" lon="6.94122">
        <ele>1755</ele>
        <time>2022-08-16T12:26:16Z</time>
      </trkpt>
      <trkpt lat="44.39645" lon="6.94117">
        <ele>1754.6</ele>
        <time>2022-08-16T12:26:17Z</time>
      </trkpt>
      <trkpt lat="44.39646" lon="6.94114">
        <ele>1753.6</ele>
        <time>2022-08-16T12:26:18Z</time>
      </trkpt>
      <trkpt lat="44.39648" lon="6.94112">
        <ele>1753</ele>
        <time>2022-08-16T12:26:19Z</time>
      </trkpt>
      <trkpt lat="44.39649" lon="6.94109">
        <ele>1752.4</ele>
        <time>2022-08-16T12:26:20Z</time>
      </trkpt>
      <trkpt lat="44.3965" lon="6.94107">
        <ele>1751.4</ele>
        <time>2022-08-16T12:26:21Z</time>
      </trkpt>
      <trkpt lat="44.3965" lon="6.94107">
        <ele>1750.4</ele>
        <time>2022-08-16T12:26:22Z</time>
      </trkpt>
      <trkpt lat="44.3965" lon="6.94106">
        <ele>1748.6</ele>
        <time>2022-08-16T12:26:23Z</time>
      </trkpt>
      <trkpt lat="44.39651" lon="6.94104">
        <ele>1748.6</ele>
        <time>2022-08-16T12:26:24Z</time>
      </trkpt>
      <trkpt lat="44.39651" lon="6.94102">
        <ele>1747</ele>
        <time>2022-08-16T12:26:25Z</time>
      </trkpt>
      <trkpt lat="44.39649" lon="6.941">
        <ele>1745.6</ele>
        <time>2022-08-16T12:26:26Z</time>
      </trkpt>
      <trkpt lat="44.39649" lon="6.94099">
        <ele>1744.6</ele>
        <time>2022-08-16T12:26:27Z</time>
      </trkpt>
      <trkpt lat="44.39649" lon="6.94098">
        <ele>1743.8</ele>
        <time>2022-08-16T12:26:28Z</time>
      </trkpt>
      <trkpt lat="44.39649" lon="6.94097">
        <ele>1742.4</ele>
        <time>2022-08-16T12:26:30Z</time>
      </trkpt>
      <trkpt lat="44.39648" lon="6.94092">
        <ele>1740.4</ele>
        <time>2022-08-16T12:26:34Z</time>
      </trkpt>
      <trkpt lat="44.39645" lon="6.94091">
        <ele>1739.6</ele>
        <time>2022-08-16T12:26:35Z</time>
      </trkpt>
      <trkpt lat="44.39644" lon="6.94089">
        <ele>1739</ele>
        <time>2022-08-16T12:26:36Z</time>
      </trkpt>
      <trkpt lat="44.39644" lon="6.94088">
        <ele>1738.6</ele>
        <time>2022-08-16T12:26:37Z</time>
      </trkpt>
      <trkpt lat="44.39645" lon="6.94087">
        <ele>1738.4</ele>
        <time>2022-08-16T12:26:38Z</time>
      </trkpt>
      <trkpt lat="44.39645" lon="6.94084">
        <ele>1738</ele>
        <time>2022-08-16T12:26:39Z</time>
      </trkpt>
      <trkpt lat="44.39646" lon="6.94078">
        <ele>1737.6</ele>
        <time>2022-08-16T12:26:40Z</time>
      </trkpt>
      <trkpt lat="44.39647" lon="6.9407">
        <ele>1737.4</ele>
        <time>2022-08-16T12:26:41Z</time>
      </trkpt>
      <trkpt lat="44.39648" lon="6.94063">
        <ele>1736.8</ele>
        <time>2022-08-16T12:26:42Z</time>
      </trkpt>
      <trkpt lat="44.39648" lon="6.94049">
        <ele>1735.4</ele>
        <time>2022-08-16T12:26:44Z</time>
      </trkpt>
      <trkpt lat="44.39648" lon="6.94043">
        <ele>1734.8</ele>
        <time>2022-08-16T12:26:45Z</time>
      </trkpt>
      <trkpt lat="44.39649" lon="6.94039">
        <ele>1734.8</ele>
        <time>2022-08-16T12:26:46Z</time>
      </trkpt>
      <trkpt lat="44.39651" lon="6.94034">
        <ele>1734.6</ele>
        <time>2022-08-16T12:26:47Z</time>
      </trkpt>
      <trkpt lat="44.39651" lon="6.9403">
        <ele>1734</ele>
        <time>2022-08-16T12:26:48Z</time>
      </trkpt>
      <trkpt lat="44.3965" lon="6.94027">
        <ele>1732.6</ele>
        <time>2022-08-16T12:26:49Z</time>
      </trkpt>
      <trkpt lat="44.39651" lon="6.94023">
        <ele>1731.6</ele>
        <time>2022-08-16T12:26:50Z</time>
      </trkpt>
      <trkpt lat="44.39651" lon="6.94019">
        <ele>1730.6</ele>
        <time>2022-08-16T12:26:51Z</time>
      </trkpt>
      <trkpt lat="44.39651" lon="6.94015">
        <ele>1729.4</ele>
        <time>2022-08-16T12:26:52Z</time>
      </trkpt>
      <trkpt lat="44.39652" lon="6.94011">
        <ele>1728.4</ele>
        <time>2022-08-16T12:26:53Z</time>
      </trkpt>
      <trkpt lat="44.39652" lon="6.94007">
        <ele>1727.8</ele>
        <time>2022-08-16T12:26:54Z</time>
      </trkpt>
      <trkpt lat="44.39653" lon="6.94004">
        <ele>1726.6</ele>
        <time>2022-08-16T12:26:55Z</time>
      </trkpt>
      <trkpt lat="44.39652" lon="6.94">
        <ele>1726</ele>
        <time>2022-08-16T12:26:56Z</time>
      </trkpt>
      <trkpt lat="44.39651" lon="6.93997">
        <ele>1725.6</ele>
        <time>2022-08-16T12:26:57Z</time>
      </trkpt>
      <trkpt lat="44.39651" lon="6.93993">
        <ele>1725</ele>
        <time>2022-08-16T12:26:58Z</time>
      </trkpt>
      <trkpt lat="44.39652" lon="6.93989">
        <ele>1724.6</ele>
        <time>2022-08-16T12:26:59Z</time>
      </trkpt>
      <trkpt lat="44.39652" lon="6.93986">
        <ele>1723.6</ele>
        <time>2022-08-16T12:27:00Z</time>
      </trkpt>
      <trkpt lat="44.39652" lon="6.93981">
        <ele>1722.6</ele>
        <time>2022-08-16T12:27:01Z</time>
      </trkpt>
      <trkpt lat="44.39652" lon="6.93975">
        <ele>1721.8</ele>
        <time>2022-08-16T12:27:02Z</time>
      </trkpt>
      <trkpt lat="44.39654" lon="6.93969">
        <ele>1721.2</ele>
        <time>2022-08-16T12:27:03Z</time>
      </trkpt>
      <trkpt lat="44.39654" lon="6.93962">
        <ele>1720.8</ele>
        <time>2022-08-16T12:27:04Z</time>
      </trkpt>
      <trkpt lat="44.39654" lon="6.93957">
        <ele>1720</ele>
        <time>2022-08-16T12:27:05Z</time>
      </trkpt>
      <trkpt lat="44.39654" lon="6.93952">
        <ele>1719</ele>
        <time>2022-08-16T12:27:06Z</time>
      </trkpt>
      <trkpt lat="44.39653" lon="6.93946">
        <ele>1718.4</ele>
        <time>2022-08-16T12:27:07Z</time>
      </trkpt>
      <trkpt lat="44.39652" lon="6.9394">
        <ele>1718.4</ele>
        <time>2022-08-16T12:27:08Z</time>
      </trkpt>
      <trkpt lat="44.39651" lon="6.93934">
        <ele>1717.8</ele>
        <time>2022-08-16T12:27:09Z</time>
      </trkpt>
      <trkpt lat="44.3965" lon="6.93926">
        <ele>1716.6</ele>
        <time>2022-08-16T12:27:10Z</time>
      </trkpt>
      <trkpt lat="44.39649" lon="6.93911">
        <ele>1714.6</ele>
        <time>2022-08-16T12:27:12Z</time>
      </trkpt>
      <trkpt lat="44.39649" lon="6.93904">
        <ele>1714</ele>
        <time>2022-08-16T12:27:13Z</time>
      </trkpt>
      <trkpt lat="44.3965" lon="6.93898">
        <ele>1713</ele>
        <time>2022-08-16T12:27:14Z</time>
      </trkpt>
      <trkpt lat="44.39651" lon="6.93893">
        <ele>1712.6</ele>
        <time>2022-08-16T12:27:15Z</time>
      </trkpt>
      <trkpt lat="44.39651" lon="6.93889">
        <ele>1711.8</ele>
        <time>2022-08-16T12:27:16Z</time>
      </trkpt>
      <trkpt lat="44.39652" lon="6.93884">
        <ele>1710.4</ele>
        <time>2022-08-16T12:27:17Z</time>
      </trkpt>
      <trkpt lat="44.39651" lon="6.93879">
        <ele>1709</ele>
        <time>2022-08-16T12:27:18Z</time>
      </trkpt>
      <trkpt lat="44.39651" lon="6.93874">
        <ele>1707.8</ele>
        <time>2022-08-16T12:27:19Z</time>
      </trkpt>
      <trkpt lat="44.3965" lon="6.93868">
        <ele>1707</ele>
        <time>2022-08-16T12:27:20Z</time>
      </trkpt>
      <trkpt lat="44.3965" lon="6.93862">
        <ele>1706.4</ele>
        <time>2022-08-16T12:27:21Z</time>
      </trkpt>
      <trkpt lat="44.39651" lon="6.93855">
        <ele>1705.4</ele>
        <time>2022-08-16T12:27:22Z</time>
      </trkpt>
      <trkpt lat="44.39651" lon="6.93849">
        <ele>1705.2</ele>
        <time>2022-08-16T12:27:23Z</time>
      </trkpt>
      <trkpt lat="44.39652" lon="6.93845">
        <ele>1704.8</ele>
        <time>2022-08-16T12:27:24Z</time>
      </trkpt>
      <trkpt lat="44.39654" lon="6.93841">
        <ele>1704.4</ele>
        <time>2022-08-16T12:27:25Z</time>
      </trkpt>
      <trkpt lat="44.39654" lon="6.93836">
        <ele>1704</ele>
        <time>2022-08-16T12:27:26Z</time>
      </trkpt>
      <trkpt lat="44.39654" lon="6.93831">
        <ele>1703.2</ele>
        <time>2022-08-16T12:27:27Z</time>
      </trkpt>
      <trkpt lat="44.39653" lon="6.93827">
        <ele>1701.6</ele>
        <time>2022-08-16T12:27:28Z</time>
      </trkpt>
      <trkpt lat="44.39652" lon="6.93825">
        <ele>1700.8</ele>
        <time>2022-08-16T12:27:29Z</time>
      </trkpt>
      <trkpt lat="44.3965" lon="6.93823">
        <ele>1700</ele>
        <time>2022-08-16T12:27:30Z</time>
      </trkpt>
      <trkpt lat="44.39649" lon="6.93821">
        <ele>1700</ele>
        <time>2022-08-16T12:27:31Z</time>
      </trkpt>
      <trkpt lat="44.3965" lon="6.93819">
        <ele>1699.2</ele>
        <time>2022-08-16T12:27:32Z</time>
      </trkpt>
      <trkpt lat="44.39649" lon="6.93817">
        <ele>1698.6</ele>
        <time>2022-08-16T12:27:33Z</time>
      </trkpt>
      <trkpt lat="44.39648" lon="6.93816">
        <ele>1698.4</ele>
        <time>2022-08-16T12:27:34Z</time>
      </trkpt>
      <trkpt lat="44.39645" lon="6.93816">
        <ele>1697.8</ele>
        <time>2022-08-16T12:27:35Z</time>
      </trkpt>
      <trkpt lat="44.39642" lon="6.93816">
        <ele>1696.8</ele>
        <time>2022-08-16T12:27:37Z</time>
      </trkpt>
      <trkpt lat="44.3964" lon="6.93815">
        <ele>1696.2</ele>
        <time>2022-08-16T12:27:38Z</time>
      </trkpt>
      <trkpt lat="44.39639" lon="6.93814">
        <ele>1695.6</ele>
        <time>2022-08-16T12:27:39Z</time>
      </trkpt>
      <trkpt lat="44.39637" lon="6.93814">
        <ele>1695.4</ele>
        <time>2022-08-16T12:27:40Z</time>
      </trkpt>
      <trkpt lat="44.39635" lon="6.93812">
        <ele>1694.8</ele>
        <time>2022-08-16T12:27:41Z</time>
      </trkpt>
      <trkpt lat="44.39634" lon="6.93809">
        <ele>1694.2</ele>
        <time>2022-08-16T12:27:42Z</time>
      </trkpt>
      <trkpt lat="44.39634" lon="6.93806">
        <ele>1693.4</ele>
        <time>2022-08-16T12:27:43Z</time>
      </trkpt>
      <trkpt lat="44.39636" lon="6.93798">
        <ele>1691.4</ele>
        <time>2022-08-16T12:27:45Z</time>
      </trkpt>
      <trkpt lat="44.39636" lon="6.93793">
        <ele>1690.8</ele>
        <time>2022-08-16T12:27:46Z</time>
      </trkpt>
      <trkpt lat="44.39635" lon="6.9379">
        <ele>1690.4</ele>
        <time>2022-08-16T12:27:47Z</time>
      </trkpt>
      <trkpt lat="44.39634" lon="6.93786">
        <ele>1689.8</ele>
        <time>2022-08-16T12:27:48Z</time>
      </trkpt>
      <trkpt lat="44.39629" lon="6.93782">
        <ele>1688.6</ele>
        <time>2022-08-16T12:27:50Z</time>
      </trkpt>
      <trkpt lat="44.39627" lon="6.93779">
        <ele>1687.6</ele>
        <time>2022-08-16T12:27:51Z</time>
      </trkpt>
      <trkpt lat="44.39625" lon="6.93776">
        <ele>1687</ele>
        <time>2022-08-16T12:27:52Z</time>
      </trkpt>
      <trkpt lat="44.39625" lon="6.93774">
        <ele>1687</ele>
        <time>2022-08-16T12:27:53Z</time>
      </trkpt>
      <trkpt lat="44.39624" lon="6.93772">
        <ele>1686.6</ele>
        <time>2022-08-16T12:27:54Z</time>
      </trkpt>
      <trkpt lat="44.39625" lon="6.9377">
        <ele>1686.4</ele>
        <time>2022-08-16T12:27:55Z</time>
      </trkpt>
      <trkpt lat="44.39625" lon="6.93768">
        <ele>1686.2</ele>
        <time>2022-08-16T12:27:56Z</time>
      </trkpt>
      <trkpt lat="44.39627" lon="6.93766">
        <ele>1685.4</ele>
        <time>2022-08-16T12:27:58Z</time>
      </trkpt>
      <trkpt lat="44.39628" lon="6.93764">
        <ele>1685</ele>
        <time>2022-08-16T12:27:59Z</time>
      </trkpt>
      <trkpt lat="44.39629" lon="6.9376">
        <ele>1684.2</ele>
        <time>2022-08-16T12:28:01Z</time>
      </trkpt>
      <trkpt lat="44.39631" lon="6.93755">
        <ele>1684</ele>
        <time>2022-08-16T12:28:03Z</time>
      </trkpt>
      <trkpt lat="44.39632" lon="6.93753">
        <ele>1684</ele>
        <time>2022-08-16T12:28:04Z</time>
      </trkpt>
      <trkpt lat="44.39637" lon="6.93746">
        <ele>1683.8</ele>
        <time>2022-08-16T12:28:07Z</time>
      </trkpt>
      <trkpt lat="44.39638" lon="6.93743">
        <ele>1684</ele>
        <time>2022-08-16T12:28:08Z</time>
      </trkpt>
      <trkpt lat="44.39638" lon="6.9374">
        <ele>1684</ele>
        <time>2022-08-16T12:28:09Z</time>
      </trkpt>
      <trkpt lat="44.39638" lon="6.93737">
        <ele>1684</ele>
        <time>2022-08-16T12:28:10Z</time>
      </trkpt>
      <trkpt lat="44.39639" lon="6.93733">
        <ele>1684</ele>
        <time>2022-08-16T12:28:11Z</time>
      </trkpt>
      <trkpt lat="44.39639" lon="6.9373">
        <ele>1684</ele>
        <time>2022-08-16T12:28:12Z</time>
      </trkpt>
      <trkpt lat="44.3964" lon="6.93726">
        <ele>1684.2</ele>
        <time>2022-08-16T12:28:13Z</time>
      </trkpt>
      <trkpt lat="44.3964" lon="6.93723">
        <ele>1684</ele>
        <time>2022-08-16T12:28:14Z</time>
      </trkpt>
      <trkpt lat="44.39641" lon="6.9372">
        <ele>1684.4</ele>
        <time>2022-08-16T12:28:15Z</time>
      </trkpt>
      <trkpt lat="44.39641" lon="6.93717">
        <ele>1684.4</ele>
        <time>2022-08-16T12:28:16Z</time>
      </trkpt>
      <trkpt lat="44.39643" lon="6.93704">
        <ele>1685</ele>
        <time>2022-08-16T12:28:20Z</time>
      </trkpt>
      <trkpt lat="44.39643" lon="6.93701">
        <ele>1685.2</ele>
        <time>2022-08-16T12:28:21Z</time>
      </trkpt>
      <trkpt lat="44.39644" lon="6.93698">
        <ele>1685</ele>
        <time>2022-08-16T12:28:22Z</time>
      </trkpt>
      <trkpt lat="44.39645" lon="6.93696">
        <ele>1685.2</ele>
        <time>2022-08-16T12:28:23Z</time>
      </trkpt>
      <trkpt lat="44.39645" lon="6.93693">
        <ele>1685.2</ele>
        <time>2022-08-16T12:28:24Z</time>
      </trkpt>
      <trkpt lat="44.39647" lon="6.9369">
        <ele>1685.6</ele>
        <time>2022-08-16T12:28:25Z</time>
      </trkpt>
      <trkpt lat="44.39648" lon="6.93688">
        <ele>1685.6</ele>
        <time>2022-08-16T12:28:26Z</time>
      </trkpt>
      <trkpt lat="44.39649" lon="6.93686">
        <ele>1685.8</ele>
        <time>2022-08-16T12:28:27Z</time>
      </trkpt>
      <trkpt lat="44.3965" lon="6.93683">
        <ele>1685.8</ele>
        <time>2022-08-16T12:28:28Z</time>
      </trkpt>
      <trkpt lat="44.3965" lon="6.93681">
        <ele>1686</ele>
        <time>2022-08-16T12:28:29Z</time>
      </trkpt>
      <trkpt lat="44.39651" lon="6.93678">
        <ele>1686</ele>
        <time>2022-08-16T12:28:30Z</time>
      </trkpt>
      <trkpt lat="44.39652" lon="6.93675">
        <ele>1686.4</ele>
        <time>2022-08-16T12:28:31Z</time>
      </trkpt>
      <trkpt lat="44.39653" lon="6.93673">
        <ele>1686.6</ele>
        <time>2022-08-16T12:28:32Z</time>
      </trkpt>
      <trkpt lat="44.39654" lon="6.9367">
        <ele>1687</ele>
        <time>2022-08-16T12:28:33Z</time>
      </trkpt>
      <trkpt lat="44.39656" lon="6.93668">
        <ele>1687.2</ele>
        <time>2022-08-16T12:28:34Z</time>
      </trkpt>
      <trkpt lat="44.39657" lon="6.93666">
        <ele>1687.4</ele>
        <time>2022-08-16T12:28:35Z</time>
      </trkpt>
      <trkpt lat="44.39658" lon="6.93663">
        <ele>1687.6</ele>
        <time>2022-08-16T12:28:36Z</time>
      </trkpt>
      <trkpt lat="44.39659" lon="6.93661">
        <ele>1687.6</ele>
        <time>2022-08-16T12:28:37Z</time>
      </trkpt>
      <trkpt lat="44.3966" lon="6.93658">
        <ele>1687.8</ele>
        <time>2022-08-16T12:28:38Z</time>
      </trkpt>
      <trkpt lat="44.39661" lon="6.93656">
        <ele>1687.8</ele>
        <time>2022-08-16T12:28:39Z</time>
      </trkpt>
      <trkpt lat="44.39662" lon="6.93653">
        <ele>1688</ele>
        <time>2022-08-16T12:28:40Z</time>
      </trkpt>
      <trkpt lat="44.39663" lon="6.93651">
        <ele>1688</ele>
        <time>2022-08-16T12:28:41Z</time>
      </trkpt>
      <trkpt lat="44.39664" lon="6.93648">
        <ele>1688.2</ele>
        <time>2022-08-16T12:28:42Z</time>
      </trkpt>
      <trkpt lat="44.39665" lon="6.93646">
        <ele>1688.4</ele>
        <time>2022-08-16T12:28:43Z</time>
      </trkpt>
      <trkpt lat="44.39666" lon="6.93644">
        <ele>1688.6</ele>
        <time>2022-08-16T12:28:44Z</time>
      </trkpt>
      <trkpt lat="44.39667" lon="6.93641">
        <ele>1688.6</ele>
        <time>2022-08-16T12:28:45Z</time>
      </trkpt>
      <trkpt lat="44.39668" lon="6.93639">
        <ele>1688.8</ele>
        <time>2022-08-16T12:28:46Z</time>
      </trkpt>
      <trkpt lat="44.39669" lon="6.93636">
        <ele>1689</ele>
        <time>2022-08-16T12:28:47Z</time>
      </trkpt>
      <trkpt lat="44.39671" lon="6.93634">
        <ele>1689.2</ele>
        <time>2022-08-16T12:28:48Z</time>
      </trkpt>
      <trkpt lat="44.39672" lon="6.93631">
        <ele>1689.4</ele>
        <time>2022-08-16T12:28:49Z</time>
      </trkpt>
      <trkpt lat="44.39673" lon="6.93629">
        <ele>1689.8</ele>
        <time>2022-08-16T12:28:50Z</time>
      </trkpt>
      <trkpt lat="44.39674" lon="6.93626">
        <ele>1689.8</ele>
        <time>2022-08-16T12:28:51Z</time>
      </trkpt>
      <trkpt lat="44.39675" lon="6.93624">
        <ele>1690</ele>
        <time>2022-08-16T12:28:52Z</time>
      </trkpt>
      <trkpt lat="44.39676" lon="6.93622">
        <ele>1690.2</ele>
        <time>2022-08-16T12:28:53Z</time>
      </trkpt>
      <trkpt lat="44.39677" lon="6.93619">
        <ele>1690.6</ele>
        <time>2022-08-16T12:28:54Z</time>
      </trkpt>
      <trkpt lat="44.39677" lon="6.93617">
        <ele>1690.6</ele>
        <time>2022-08-16T12:28:55Z</time>
      </trkpt>
      <trkpt lat="44.39678" lon="6.93614">
        <ele>1690.8</ele>
        <time>2022-08-16T12:28:56Z</time>
      </trkpt>
      <trkpt lat="44.39679" lon="6.93612">
        <ele>1691</ele>
        <time>2022-08-16T12:28:57Z</time>
      </trkpt>
      <trkpt lat="44.3968" lon="6.93609">
        <ele>1691.2</ele>
        <time>2022-08-16T12:28:58Z</time>
      </trkpt>
      <trkpt lat="44.39681" lon="6.93607">
        <ele>1691.2</ele>
        <time>2022-08-16T12:28:59Z</time>
      </trkpt>
      <trkpt lat="44.39682" lon="6.93604">
        <ele>1691.2</ele>
        <time>2022-08-16T12:29:00Z</time>
      </trkpt>
      <trkpt lat="44.39683" lon="6.93602">
        <ele>1691.2</ele>
        <time>2022-08-16T12:29:01Z</time>
      </trkpt>
      <trkpt lat="44.39684" lon="6.936">
        <ele>1691.4</ele>
        <time>2022-08-16T12:29:02Z</time>
      </trkpt>
      <trkpt lat="44.39685" lon="6.93597">
        <ele>1691.4</ele>
        <time>2022-08-16T12:29:03Z</time>
      </trkpt>
      <trkpt lat="44.39686" lon="6.93595">
        <ele>1691.4</ele>
        <time>2022-08-16T12:29:04Z</time>
      </trkpt>
      <trkpt lat="44.39687" lon="6.93593">
        <ele>1691.6</ele>
        <time>2022-08-16T12:29:05Z</time>
      </trkpt>
      <trkpt lat="44.39688" lon="6.9359">
        <ele>1691.8</ele>
        <time>2022-08-16T12:29:06Z</time>
      </trkpt>
      <trkpt lat="44.39689" lon="6.93588">
        <ele>1691.8</ele>
        <time>2022-08-16T12:29:07Z</time>
      </trkpt>
      <trkpt lat="44.39689" lon="6.93585">
        <ele>1692</ele>
        <time>2022-08-16T12:29:08Z</time>
      </trkpt>
      <trkpt lat="44.3969" lon="6.93583">
        <ele>1692.4</ele>
        <time>2022-08-16T12:29:09Z</time>
      </trkpt>
      <trkpt lat="44.39691" lon="6.9358">
        <ele>1692.6</ele>
        <time>2022-08-16T12:29:10Z</time>
      </trkpt>
      <trkpt lat="44.39691" lon="6.93578">
        <ele>1693</ele>
        <time>2022-08-16T12:29:11Z</time>
      </trkpt>
      <trkpt lat="44.39692" lon="6.93575">
        <ele>1693.2</ele>
        <time>2022-08-16T12:29:12Z</time>
      </trkpt>
      <trkpt lat="44.39692" lon="6.93573">
        <ele>1693.4</ele>
        <time>2022-08-16T12:29:13Z</time>
      </trkpt>
      <trkpt lat="44.39693" lon="6.9357">
        <ele>1693.8</ele>
        <time>2022-08-16T12:29:14Z</time>
      </trkpt>
      <trkpt lat="44.39693" lon="6.93567">
        <ele>1694</ele>
        <time>2022-08-16T12:29:15Z</time>
      </trkpt>
      <trkpt lat="44.39693" lon="6.93564">
        <ele>1694.2</ele>
        <time>2022-08-16T12:29:16Z</time>
      </trkpt>
      <trkpt lat="44.39693" lon="6.93562">
        <ele>1694.6</ele>
        <time>2022-08-16T12:29:17Z</time>
      </trkpt>
      <trkpt lat="44.39693" lon="6.93559">
        <ele>1694.6</ele>
        <time>2022-08-16T12:29:18Z</time>
      </trkpt>
      <trkpt lat="44.39694" lon="6.93556">
        <ele>1694.8</ele>
        <time>2022-08-16T12:29:19Z</time>
      </trkpt>
      <trkpt lat="44.39694" lon="6.93553">
        <ele>1695</ele>
        <time>2022-08-16T12:29:20Z</time>
      </trkpt>
      <trkpt lat="44.39694" lon="6.93551">
        <ele>1695</ele>
        <time>2022-08-16T12:29:21Z</time>
      </trkpt>
      <trkpt lat="44.39694" lon="6.93548">
        <ele>1695.2</ele>
        <time>2022-08-16T12:29:22Z</time>
      </trkpt>
      <trkpt lat="44.39694" lon="6.93545">
        <ele>1695.2</ele>
        <time>2022-08-16T12:29:23Z</time>
      </trkpt>
      <trkpt lat="44.39694" lon="6.93542">
        <ele>1695.2</ele>
        <time>2022-08-16T12:29:24Z</time>
      </trkpt>
      <trkpt lat="44.39694" lon="6.93539">
        <ele>1695</ele>
        <time>2022-08-16T12:29:25Z</time>
      </trkpt>
      <trkpt lat="44.39694" lon="6.93536">
        <ele>1695.4</ele>
        <time>2022-08-16T12:29:26Z</time>
      </trkpt>
      <trkpt lat="44.39695" lon="6.93534">
        <ele>1695.4</ele>
        <time>2022-08-16T12:29:27Z</time>
      </trkpt>
      <trkpt lat="44.39695" lon="6.93531">
        <ele>1695.6</ele>
        <time>2022-08-16T12:29:28Z</time>
      </trkpt>
      <trkpt lat="44.39695" lon="6.93528">
        <ele>1695.8</ele>
        <time>2022-08-16T12:29:29Z</time>
      </trkpt>
      <trkpt lat="44.39695" lon="6.93525">
        <ele>1695.8</ele>
        <time>2022-08-16T12:29:30Z</time>
      </trkpt>
      <trkpt lat="44.39695" lon="6.93522">
        <ele>1695.8</ele>
        <time>2022-08-16T12:29:31Z</time>
      </trkpt>
      <trkpt lat="44.39696" lon="6.9352">
        <ele>1695.8</ele>
        <time>2022-08-16T12:29:32Z</time>
      </trkpt>
      <trkpt lat="44.39696" lon="6.93517">
        <ele>1696</ele>
        <time>2022-08-16T12:29:33Z</time>
      </trkpt>
      <trkpt lat="44.39696" lon="6.93514">
        <ele>1696</ele>
        <time>2022-08-16T12:29:34Z</time>
      </trkpt>
      <trkpt lat="44.39697" lon="6.93511">
        <ele>1696</ele>
        <time>2022-08-16T12:29:35Z</time>
      </trkpt>
      <trkpt lat="44.39697" lon="6.93508">
        <ele>1696.2</ele>
        <time>2022-08-16T12:29:36Z</time>
      </trkpt>
      <trkpt lat="44.39697" lon="6.93506">
        <ele>1696.4</ele>
        <time>2022-08-16T12:29:37Z</time>
      </trkpt>
      <trkpt lat="44.39698" lon="6.93503">
        <ele>1696.4</ele>
        <time>2022-08-16T12:29:38Z</time>
      </trkpt>
      <trkpt lat="44.39698" lon="6.935">
        <ele>1696.6</ele>
        <time>2022-08-16T12:29:39Z</time>
      </trkpt>
      <trkpt lat="44.397" lon="6.93489">
        <ele>1697</ele>
        <time>2022-08-16T12:29:43Z</time>
      </trkpt>
      <trkpt lat="44.39702" lon="6.9348">
        <ele>1697.2</ele>
        <time>2022-08-16T12:29:46Z</time>
      </trkpt>
      <trkpt lat="44.39703" lon="6.93478">
        <ele>1697.2</ele>
        <time>2022-08-16T12:29:47Z</time>
      </trkpt>
      <trkpt lat="44.39704" lon="6.93472">
        <ele>1697.4</ele>
        <time>2022-08-16T12:29:49Z</time>
      </trkpt>
      <trkpt lat="44.39706" lon="6.93464">
        <ele>1697.6</ele>
        <time>2022-08-16T12:29:52Z</time>
      </trkpt>
      <trkpt lat="44.39706" lon="6.93461">
        <ele>1697.8</ele>
        <time>2022-08-16T12:29:53Z</time>
      </trkpt>
      <trkpt lat="44.39707" lon="6.93459">
        <ele>1698</ele>
        <time>2022-08-16T12:29:54Z</time>
      </trkpt>
      <trkpt lat="44.39708" lon="6.93456">
        <ele>1698</ele>
        <time>2022-08-16T12:29:55Z</time>
      </trkpt>
      <trkpt lat="44.39709" lon="6.93453">
        <ele>1698.2</ele>
        <time>2022-08-16T12:29:56Z</time>
      </trkpt>
      <trkpt lat="44.3971" lon="6.93451">
        <ele>1698.4</ele>
        <time>2022-08-16T12:29:57Z</time>
      </trkpt>
      <trkpt lat="44.3971" lon="6.93448">
        <ele>1698.8</ele>
        <time>2022-08-16T12:29:58Z</time>
      </trkpt>
      <trkpt lat="44.39711" lon="6.93445">
        <ele>1699</ele>
        <time>2022-08-16T12:29:59Z</time>
      </trkpt>
      <trkpt lat="44.39712" lon="6.93443">
        <ele>1699.4</ele>
        <time>2022-08-16T12:30:00Z</time>
      </trkpt>
      <trkpt lat="44.39713" lon="6.9344">
        <ele>1699.4</ele>
        <time>2022-08-16T12:30:01Z</time>
      </trkpt>
      <trkpt lat="44.39714" lon="6.93438">
        <ele>1699.6</ele>
        <time>2022-08-16T12:30:02Z</time>
      </trkpt>
      <trkpt lat="44.39714" lon="6.93435">
        <ele>1699.6</ele>
        <time>2022-08-16T12:30:03Z</time>
      </trkpt>
      <trkpt lat="44.39715" lon="6.93432">
        <ele>1699.8</ele>
        <time>2022-08-16T12:30:04Z</time>
      </trkpt>
      <trkpt lat="44.39716" lon="6.93429">
        <ele>1700</ele>
        <time>2022-08-16T12:30:05Z</time>
      </trkpt>
      <trkpt lat="44.39716" lon="6.93427">
        <ele>1700</ele>
        <time>2022-08-16T12:30:06Z</time>
      </trkpt>
      <trkpt lat="44.39717" lon="6.93424">
        <ele>1700.2</ele>
        <time>2022-08-16T12:30:07Z</time>
      </trkpt>
      <trkpt lat="44.39718" lon="6.93421">
        <ele>1700.2</ele>
        <time>2022-08-16T12:30:08Z</time>
      </trkpt>
      <trkpt lat="44.39719" lon="6.93419">
        <ele>1700.6</ele>
        <time>2022-08-16T12:30:09Z</time>
      </trkpt>
      <trkpt lat="44.3972" lon="6.93416">
        <ele>1700.6</ele>
        <time>2022-08-16T12:30:10Z</time>
      </trkpt>
      <trkpt lat="44.39721" lon="6.93413">
        <ele>1700.8</ele>
        <time>2022-08-16T12:30:11Z</time>
      </trkpt>
      <trkpt lat="44.39721" lon="6.93411">
        <ele>1701</ele>
        <time>2022-08-16T12:30:12Z</time>
      </trkpt>
      <trkpt lat="44.39722" lon="6.93408">
        <ele>1701</ele>
        <time>2022-08-16T12:30:13Z</time>
      </trkpt>
      <trkpt lat="44.39723" lon="6.93405">
        <ele>1701.2</ele>
        <time>2022-08-16T12:30:14Z</time>
      </trkpt>
      <trkpt lat="44.39723" lon="6.93403">
        <ele>1701.2</ele>
        <time>2022-08-16T12:30:15Z</time>
      </trkpt>
      <trkpt lat="44.39724" lon="6.934">
        <ele>1701.4</ele>
        <time>2022-08-16T12:30:16Z</time>
      </trkpt>
      <trkpt lat="44.39725" lon="6.93397">
        <ele>1701.6</ele>
        <time>2022-08-16T12:30:17Z</time>
      </trkpt>
      <trkpt lat="44.39725" lon="6.93395">
        <ele>1701.6</ele>
        <time>2022-08-16T12:30:18Z</time>
      </trkpt>
      <trkpt lat="44.39726" lon="6.93392">
        <ele>1701.8</ele>
        <time>2022-08-16T12:30:19Z</time>
      </trkpt>
      <trkpt lat="44.39727" lon="6.93389">
        <ele>1701.8</ele>
        <time>2022-08-16T12:30:20Z</time>
      </trkpt>
      <trkpt lat="44.39728" lon="6.93387">
        <ele>1702</ele>
        <time>2022-08-16T12:30:21Z</time>
      </trkpt>
      <trkpt lat="44.39729" lon="6.93384">
        <ele>1702</ele>
        <time>2022-08-16T12:30:22Z</time>
      </trkpt>
      <trkpt lat="44.39729" lon="6.93381">
        <ele>1702.2</ele>
        <time>2022-08-16T12:30:23Z</time>
      </trkpt>
      <trkpt lat="44.3973" lon="6.93378">
        <ele>1702.4</ele>
        <time>2022-08-16T12:30:24Z</time>
      </trkpt>
      <trkpt lat="44.39731" lon="6.93376">
        <ele>1702.6</ele>
        <time>2022-08-16T12:30:25Z</time>
      </trkpt>
      <trkpt lat="44.39732" lon="6.93373">
        <ele>1702.8</ele>
        <time>2022-08-16T12:30:26Z</time>
      </trkpt>
      <trkpt lat="44.39732" lon="6.9337">
        <ele>1703.2</ele>
        <time>2022-08-16T12:30:27Z</time>
      </trkpt>
      <trkpt lat="44.39733" lon="6.93368">
        <ele>1703.4</ele>
        <time>2022-08-16T12:30:28Z</time>
      </trkpt>
      <trkpt lat="44.39734" lon="6.93365">
        <ele>1703.6</ele>
        <time>2022-08-16T12:30:29Z</time>
      </trkpt>
      <trkpt lat="44.39735" lon="6.93363">
        <ele>1703.8</ele>
        <time>2022-08-16T12:30:30Z</time>
      </trkpt>
      <trkpt lat="44.39735" lon="6.93361">
        <ele>1703.8</ele>
        <time>2022-08-16T12:30:31Z</time>
      </trkpt>
      <trkpt lat="44.39736" lon="6.9336">
        <ele>1703.8</ele>
        <time>2022-08-16T12:30:32Z</time>
      </trkpt>
      <trkpt lat="44.39735" lon="6.9336">
        <ele>1704.6</ele>
        <time>2022-08-16T12:30:45Z</time>
      </trkpt>
      <trkpt lat="44.39736" lon="6.9336">
        <ele>1704.8</ele>
        <time>2022-08-16T12:30:51Z</time>
      </trkpt>
      <trkpt lat="44.39737" lon="6.9336">
        <ele>1704.8</ele>
        <time>2022-08-16T12:30:52Z</time>
      </trkpt>
      <trkpt lat="44.39737" lon="6.9336">
        <ele>1704.6</ele>
        <time>2022-08-16T12:31:05Z</time>
      </trkpt>
      <trkpt lat="44.39737" lon="6.9336">
        <ele>1704.6</ele>
        <time>2022-08-16T12:31:06Z</time>
      </trkpt>
      <trkpt lat="44.39737" lon="6.93361">
        <ele>1704.2</ele>
        <time>2022-08-16T12:31:45Z</time>
      </trkpt>
      <trkpt lat="44.39737" lon="6.93361">
        <ele>1704.4</ele>
        <time>2022-08-16T12:32:26Z</time>
      </trkpt>
      <trkpt lat="44.39737" lon="6.93361">
        <ele>1704.4</ele>
        <time>2022-08-16T12:32:39Z</time>
      </trkpt>
      <trkpt lat="44.39737" lon="6.93361">
        <ele>1704.6</ele>
        <time>2022-08-16T12:33:33Z</time>
      </trkpt>
      <trkpt lat="44.39737" lon="6.93361">
        <ele>1704.8</ele>
        <time>2022-08-16T12:33:35Z</time>
      </trkpt>
      <trkpt lat="44.39737" lon="6.93361">
        <ele>1705</ele>
        <time>2022-08-16T12:33:45Z</time>
      </trkpt>
      <trkpt lat="44.39738" lon="6.93356">
        <ele>1705</ele>
        <time>2022-08-16T12:33:49Z</time>
      </trkpt>
      <trkpt lat="44.39738" lon="6.93354">
        <ele>1705</ele>
        <time>2022-08-16T12:33:50Z</time>
      </trkpt>
      <trkpt lat="44.3974" lon="6.93349">
        <ele>1705.2</ele>
        <time>2022-08-16T12:33:52Z</time>
      </trkpt>
      <trkpt lat="44.3974" lon="6.93348">
        <ele>1705.2</ele>
        <time>2022-08-16T12:33:53Z</time>
      </trkpt>
      <trkpt lat="44.3974" lon="6.93347">
        <ele>1705.2</ele>
        <time>2022-08-16T12:33:54Z</time>
      </trkpt>
      <trkpt lat="44.39741" lon="6.93345">
        <ele>1705.2</ele>
        <time>2022-08-16T12:33:55Z</time>
      </trkpt>
      <trkpt lat="44.39744" lon="6.93333">
        <ele>1705.8</ele>
        <time>2022-08-16T12:34:00Z</time>
      </trkpt>
      <trkpt lat="44.39746" lon="6.93326">
        <ele>1706</ele>
        <time>2022-08-16T12:34:03Z</time>
      </trkpt>
      <trkpt lat="44.39747" lon="6.93323">
        <ele>1706</ele>
        <time>2022-08-16T12:34:04Z</time>
      </trkpt>
      <trkpt lat="44.39747" lon="6.93321">
        <ele>1706.2</ele>
        <time>2022-08-16T12:34:05Z</time>
      </trkpt>
      <trkpt lat="44.39749" lon="6.93315">
        <ele>1706.4</ele>
        <time>2022-08-16T12:34:07Z</time>
      </trkpt>
      <trkpt lat="44.39749" lon="6.93313">
        <ele>1706.6</ele>
        <time>2022-08-16T12:34:08Z</time>
      </trkpt>
      <trkpt lat="44.39751" lon="6.93308">
        <ele>1706.8</ele>
        <time>2022-08-16T12:34:10Z</time>
      </trkpt>
      <trkpt lat="44.39752" lon="6.93303">
        <ele>1707.2</ele>
        <time>2022-08-16T12:34:12Z</time>
      </trkpt>
      <trkpt lat="44.39753" lon="6.93301">
        <ele>1707.2</ele>
        <time>2022-08-16T12:34:13Z</time>
      </trkpt>
      <trkpt lat="44.39753" lon="6.93299">
        <ele>1707.2</ele>
        <time>2022-08-16T12:34:14Z</time>
      </trkpt>
      <trkpt lat="44.39754" lon="6.93296">
        <ele>1707.4</ele>
        <time>2022-08-16T12:34:15Z</time>
      </trkpt>
      <trkpt lat="44.39754" lon="6.93294">
        <ele>1707.4</ele>
        <time>2022-08-16T12:34:16Z</time>
      </trkpt>
      <trkpt lat="44.39755" lon="6.93291">
        <ele>1707.8</ele>
        <time>2022-08-16T12:34:17Z</time>
      </trkpt>
      <trkpt lat="44.39755" lon="6.93289">
        <ele>1708</ele>
        <time>2022-08-16T12:34:18Z</time>
      </trkpt>
      <trkpt lat="44.39756" lon="6.93287">
        <ele>1708</ele>
        <time>2022-08-16T12:34:19Z</time>
      </trkpt>
      <trkpt lat="44.39757" lon="6.93284">
        <ele>1708.2</ele>
        <time>2022-08-16T12:34:20Z</time>
      </trkpt>
      <trkpt lat="44.39758" lon="6.93282">
        <ele>1708.2</ele>
        <time>2022-08-16T12:34:21Z</time>
      </trkpt>
      <trkpt lat="44.39758" lon="6.9328">
        <ele>1708.2</ele>
        <time>2022-08-16T12:34:22Z</time>
      </trkpt>
      <trkpt lat="44.39759" lon="6.93277">
        <ele>1708.4</ele>
        <time>2022-08-16T12:34:23Z</time>
      </trkpt>
      <trkpt lat="44.39759" lon="6.93275">
        <ele>1708.8</ele>
        <time>2022-08-16T12:34:24Z</time>
      </trkpt>
      <trkpt lat="44.3976" lon="6.93273">
        <ele>1708.8</ele>
        <time>2022-08-16T12:34:25Z</time>
      </trkpt>
      <trkpt lat="44.3976" lon="6.9327">
        <ele>1709</ele>
        <time>2022-08-16T12:34:26Z</time>
      </trkpt>
      <trkpt lat="44.39761" lon="6.93268">
        <ele>1709</ele>
        <time>2022-08-16T12:34:27Z</time>
      </trkpt>
      <trkpt lat="44.39762" lon="6.93266">
        <ele>1709.4</ele>
        <time>2022-08-16T12:34:28Z</time>
      </trkpt>
      <trkpt lat="44.39763" lon="6.93263">
        <ele>1709.2</ele>
        <time>2022-08-16T12:34:29Z</time>
      </trkpt>
      <trkpt lat="44.39763" lon="6.93261">
        <ele>1709.4</ele>
        <time>2022-08-16T12:34:30Z</time>
      </trkpt>
      <trkpt lat="44.39767" lon="6.93249">
        <ele>1709.8</ele>
        <time>2022-08-16T12:34:35Z</time>
      </trkpt>
      <trkpt lat="44.39768" lon="6.93247">
        <ele>1709.8</ele>
        <time>2022-08-16T12:34:36Z</time>
      </trkpt>
      <trkpt lat="44.39768" lon="6.93244">
        <ele>1709.8</ele>
        <time>2022-08-16T12:34:37Z</time>
      </trkpt>
      <trkpt lat="44.39769" lon="6.93242">
        <ele>1710</ele>
        <time>2022-08-16T12:34:38Z</time>
      </trkpt>
      <trkpt lat="44.39769" lon="6.93239">
        <ele>1710</ele>
        <time>2022-08-16T12:34:39Z</time>
      </trkpt>
      <trkpt lat="44.3977" lon="6.93237">
        <ele>1710.2</ele>
        <time>2022-08-16T12:34:40Z</time>
      </trkpt>
      <trkpt lat="44.3977" lon="6.93235">
        <ele>1710.2</ele>
        <time>2022-08-16T12:34:41Z</time>
      </trkpt>
      <trkpt lat="44.39771" lon="6.93233">
        <ele>1710.2</ele>
        <time>2022-08-16T12:34:42Z</time>
      </trkpt>
      <trkpt lat="44.39772" lon="6.9323">
        <ele>1710.4</ele>
        <time>2022-08-16T12:34:43Z</time>
      </trkpt>
      <trkpt lat="44.39772" lon="6.93228">
        <ele>1710.6</ele>
        <time>2022-08-16T12:34:44Z</time>
      </trkpt>
      <trkpt lat="44.39773" lon="6.93226">
        <ele>1710.8</ele>
        <time>2022-08-16T12:34:45Z</time>
      </trkpt>
      <trkpt lat="44.39773" lon="6.93223">
        <ele>1711</ele>
        <time>2022-08-16T12:34:46Z</time>
      </trkpt>
      <trkpt lat="44.39774" lon="6.93221">
        <ele>1711.2</ele>
        <time>2022-08-16T12:34:47Z</time>
      </trkpt>
      <trkpt lat="44.39774" lon="6.93219">
        <ele>1711.4</ele>
        <time>2022-08-16T12:34:48Z</time>
      </trkpt>
      <trkpt lat="44.39775" lon="6.93216">
        <ele>1711.4</ele>
        <time>2022-08-16T12:34:49Z</time>
      </trkpt>
      <trkpt lat="44.39775" lon="6.93214">
        <ele>1711.8</ele>
        <time>2022-08-16T12:34:50Z</time>
      </trkpt>
      <trkpt lat="44.39775" lon="6.93212">
        <ele>1712</ele>
        <time>2022-08-16T12:34:51Z</time>
      </trkpt>
      <trkpt lat="44.39775" lon="6.93209">
        <ele>1712.2</ele>
        <time>2022-08-16T12:34:52Z</time>
      </trkpt>
      <trkpt lat="44.39776" lon="6.93206">
        <ele>1712.4</ele>
        <time>2022-08-16T12:34:53Z</time>
      </trkpt>
      <trkpt lat="44.39776" lon="6.93204">
        <ele>1712.4</ele>
        <time>2022-08-16T12:34:54Z</time>
      </trkpt>
      <trkpt lat="44.39776" lon="6.93201">
        <ele>1712.8</ele>
        <time>2022-08-16T12:34:55Z</time>
      </trkpt>
      <trkpt lat="44.39777" lon="6.93199">
        <ele>1713</ele>
        <time>2022-08-16T12:34:56Z</time>
      </trkpt>
      <trkpt lat="44.39777" lon="6.93196">
        <ele>1713.2</ele>
        <time>2022-08-16T12:34:57Z</time>
      </trkpt>
      <trkpt lat="44.39777" lon="6.93194">
        <ele>1713.2</ele>
        <time>2022-08-16T12:34:58Z</time>
      </trkpt>
      <trkpt lat="44.39777" lon="6.93191">
        <ele>1713.4</ele>
        <time>2022-08-16T12:34:59Z</time>
      </trkpt>
      <trkpt lat="44.39777" lon="6.93189">
        <ele>1713.4</ele>
        <time>2022-08-16T12:35:00Z</time>
      </trkpt>
      <trkpt lat="44.39777" lon="6.93186">
        <ele>1713.6</ele>
        <time>2022-08-16T12:35:01Z</time>
      </trkpt>
      <trkpt lat="44.39777" lon="6.93184">
        <ele>1713.6</ele>
        <time>2022-08-16T12:35:02Z</time>
      </trkpt>
      <trkpt lat="44.39777" lon="6.93181">
        <ele>1713.8</ele>
        <time>2022-08-16T12:35:03Z</time>
      </trkpt>
      <trkpt lat="44.39777" lon="6.93179">
        <ele>1713.8</ele>
        <time>2022-08-16T12:35:04Z</time>
      </trkpt>
      <trkpt lat="44.39778" lon="6.93176">
        <ele>1714.2</ele>
        <time>2022-08-16T12:35:05Z</time>
      </trkpt>
      <trkpt lat="44.39778" lon="6.93174">
        <ele>1714.2</ele>
        <time>2022-08-16T12:35:06Z</time>
      </trkpt>
      <trkpt lat="44.39778" lon="6.93171">
        <ele>1714.2</ele>
        <time>2022-08-16T12:35:07Z</time>
      </trkpt>
      <trkpt lat="44.39778" lon="6.93169">
        <ele>1714.2</ele>
        <time>2022-08-16T12:35:08Z</time>
      </trkpt>
      <trkpt lat="44.39778" lon="6.93166">
        <ele>1714.4</ele>
        <time>2022-08-16T12:35:09Z</time>
      </trkpt>
      <trkpt lat="44.39777" lon="6.93164">
        <ele>1714.4</ele>
        <time>2022-08-16T12:35:10Z</time>
      </trkpt>
      <trkpt lat="44.39777" lon="6.93161">
        <ele>1714.6</ele>
        <time>2022-08-16T12:35:11Z</time>
      </trkpt>
      <trkpt lat="44.39777" lon="6.93159">
        <ele>1714.6</ele>
        <time>2022-08-16T12:35:12Z</time>
      </trkpt>
      <trkpt lat="44.39777" lon="6.93157">
        <ele>1715</ele>
        <time>2022-08-16T12:35:13Z</time>
      </trkpt>
      <trkpt lat="44.39777" lon="6.93154">
        <ele>1715</ele>
        <time>2022-08-16T12:35:14Z</time>
      </trkpt>
      <trkpt lat="44.39777" lon="6.93151">
        <ele>1714.8</ele>
        <time>2022-08-16T12:35:15Z</time>
      </trkpt>
      <trkpt lat="44.39777" lon="6.93149">
        <ele>1715.2</ele>
        <time>2022-08-16T12:35:16Z</time>
      </trkpt>
      <trkpt lat="44.39777" lon="6.93147">
        <ele>1715.2</ele>
        <time>2022-08-16T12:35:17Z</time>
      </trkpt>
      <trkpt lat="44.39777" lon="6.93142">
        <ele>1715.4</ele>
        <time>2022-08-16T12:35:19Z</time>
      </trkpt>
      <trkpt lat="44.39777" lon="6.93134">
        <ele>1715.8</ele>
        <time>2022-08-16T12:35:22Z</time>
      </trkpt>
      <trkpt lat="44.39776" lon="6.93122">
        <ele>1715.8</ele>
        <time>2022-08-16T12:35:27Z</time>
      </trkpt>
      <trkpt lat="44.39776" lon="6.93119">
        <ele>1716</ele>
        <time>2022-08-16T12:35:28Z</time>
      </trkpt>
      <trkpt lat="44.39776" lon="6.93114">
        <ele>1716.4</ele>
        <time>2022-08-16T12:35:30Z</time>
      </trkpt>
      <trkpt lat="44.39775" lon="6.93112">
        <ele>1716.6</ele>
        <time>2022-08-16T12:35:31Z</time>
      </trkpt>
      <trkpt lat="44.39775" lon="6.93109">
        <ele>1716.6</ele>
        <time>2022-08-16T12:35:32Z</time>
      </trkpt>
      <trkpt lat="44.39774" lon="6.93107">
        <ele>1716.6</ele>
        <time>2022-08-16T12:35:33Z</time>
      </trkpt>
      <trkpt lat="44.39774" lon="6.93105">
        <ele>1716.8</ele>
        <time>2022-08-16T12:35:34Z</time>
      </trkpt>
      <trkpt lat="44.39773" lon="6.93102">
        <ele>1717</ele>
        <time>2022-08-16T12:35:35Z</time>
      </trkpt>
      <trkpt lat="44.39773" lon="6.931">
        <ele>1717</ele>
        <time>2022-08-16T12:35:36Z</time>
      </trkpt>
      <trkpt lat="44.39772" lon="6.93098">
        <ele>1717.4</ele>
        <time>2022-08-16T12:35:37Z</time>
      </trkpt>
      <trkpt lat="44.39772" lon="6.93095">
        <ele>1717.6</ele>
        <time>2022-08-16T12:35:38Z</time>
      </trkpt>
      <trkpt lat="44.39772" lon="6.93093">
        <ele>1717.8</ele>
        <time>2022-08-16T12:35:39Z</time>
      </trkpt>
      <trkpt lat="44.39771" lon="6.93091">
        <ele>1718</ele>
        <time>2022-08-16T12:35:40Z</time>
      </trkpt>
      <trkpt lat="44.39771" lon="6.93088">
        <ele>1718</ele>
        <time>2022-08-16T12:35:41Z</time>
      </trkpt>
      <trkpt lat="44.3977" lon="6.93086">
        <ele>1718</ele>
        <time>2022-08-16T12:35:42Z</time>
      </trkpt>
      <trkpt lat="44.3977" lon="6.93083">
        <ele>1718</ele>
        <time>2022-08-16T12:35:43Z</time>
      </trkpt>
      <trkpt lat="44.39769" lon="6.93081">
        <ele>1718.2</ele>
        <time>2022-08-16T12:35:44Z</time>
      </trkpt>
      <trkpt lat="44.39769" lon="6.93078">
        <ele>1718.2</ele>
        <time>2022-08-16T12:35:45Z</time>
      </trkpt>
      <trkpt lat="44.39769" lon="6.93076">
        <ele>1718.6</ele>
        <time>2022-08-16T12:35:46Z</time>
      </trkpt>
      <trkpt lat="44.39769" lon="6.93073">
        <ele>1718.6</ele>
        <time>2022-08-16T12:35:47Z</time>
      </trkpt>
      <trkpt lat="44.39769" lon="6.93071">
        <ele>1718.8</ele>
        <time>2022-08-16T12:35:48Z</time>
      </trkpt>
      <trkpt lat="44.39769" lon="6.93068">
        <ele>1718.8</ele>
        <time>2022-08-16T12:35:49Z</time>
      </trkpt>
      <trkpt lat="44.3977" lon="6.93066">
        <ele>1719</ele>
        <time>2022-08-16T12:35:50Z</time>
      </trkpt>
      <trkpt lat="44.3977" lon="6.93063">
        <ele>1719.2</ele>
        <time>2022-08-16T12:35:51Z</time>
      </trkpt>
      <trkpt lat="44.3977" lon="6.9306">
        <ele>1719.2</ele>
        <time>2022-08-16T12:35:52Z</time>
      </trkpt>
      <trkpt lat="44.3977" lon="6.93058">
        <ele>1719.4</ele>
        <time>2022-08-16T12:35:53Z</time>
      </trkpt>
      <trkpt lat="44.39771" lon="6.93055">
        <ele>1719.4</ele>
        <time>2022-08-16T12:35:54Z</time>
      </trkpt>
      <trkpt lat="44.39771" lon="6.93053">
        <ele>1719.4</ele>
        <time>2022-08-16T12:35:55Z</time>
      </trkpt>
      <trkpt lat="44.39772" lon="6.9305">
        <ele>1719.8</ele>
        <time>2022-08-16T12:35:56Z</time>
      </trkpt>
      <trkpt lat="44.39772" lon="6.93048">
        <ele>1720</ele>
        <time>2022-08-16T12:35:57Z</time>
      </trkpt>
      <trkpt lat="44.39773" lon="6.93045">
        <ele>1720</ele>
        <time>2022-08-16T12:35:58Z</time>
      </trkpt>
      <trkpt lat="44.39774" lon="6.93043">
        <ele>1720.2</ele>
        <time>2022-08-16T12:35:59Z</time>
      </trkpt>
      <trkpt lat="44.39774" lon="6.9304">
        <ele>1720.2</ele>
        <time>2022-08-16T12:36:00Z</time>
      </trkpt>
      <trkpt lat="44.39775" lon="6.93038">
        <ele>1720.4</ele>
        <time>2022-08-16T12:36:01Z</time>
      </trkpt>
      <trkpt lat="44.39775" lon="6.93035">
        <ele>1720.4</ele>
        <time>2022-08-16T12:36:02Z</time>
      </trkpt>
      <trkpt lat="44.39776" lon="6.93033">
        <ele>1720.4</ele>
        <time>2022-08-16T12:36:03Z</time>
      </trkpt>
      <trkpt lat="44.39777" lon="6.93031">
        <ele>1720.4</ele>
        <time>2022-08-16T12:36:04Z</time>
      </trkpt>
      <trkpt lat="44.39778" lon="6.93028">
        <ele>1720.6</ele>
        <time>2022-08-16T12:36:05Z</time>
      </trkpt>
      <trkpt lat="44.39778" lon="6.93026">
        <ele>1720.8</ele>
        <time>2022-08-16T12:36:06Z</time>
      </trkpt>
      <trkpt lat="44.39779" lon="6.93024">
        <ele>1720.8</ele>
        <time>2022-08-16T12:36:07Z</time>
      </trkpt>
      <trkpt lat="44.3978" lon="6.93022">
        <ele>1721</ele>
        <time>2022-08-16T12:36:08Z</time>
      </trkpt>
      <trkpt lat="44.39781" lon="6.93019">
        <ele>1721</ele>
        <time>2022-08-16T12:36:09Z</time>
      </trkpt>
      <trkpt lat="44.39781" lon="6.93017">
        <ele>1721</ele>
        <time>2022-08-16T12:36:10Z</time>
      </trkpt>
      <trkpt lat="44.39782" lon="6.93014">
        <ele>1721.2</ele>
        <time>2022-08-16T12:36:11Z</time>
      </trkpt>
      <trkpt lat="44.39783" lon="6.93012">
        <ele>1721.4</ele>
        <time>2022-08-16T12:36:12Z</time>
      </trkpt>
      <trkpt lat="44.39784" lon="6.9301">
        <ele>1721.6</ele>
        <time>2022-08-16T12:36:13Z</time>
      </trkpt>
      <trkpt lat="44.39784" lon="6.93007">
        <ele>1721.8</ele>
        <time>2022-08-16T12:36:14Z</time>
      </trkpt>
      <trkpt lat="44.39785" lon="6.93005">
        <ele>1721.8</ele>
        <time>2022-08-16T12:36:15Z</time>
      </trkpt>
      <trkpt lat="44.39786" lon="6.93003">
        <ele>1722</ele>
        <time>2022-08-16T12:36:16Z</time>
      </trkpt>
      <trkpt lat="44.39786" lon="6.93">
        <ele>1722.2</ele>
        <time>2022-08-16T12:36:17Z</time>
      </trkpt>
      <trkpt lat="44.39787" lon="6.92998">
        <ele>1722.4</ele>
        <time>2022-08-16T12:36:18Z</time>
      </trkpt>
      <trkpt lat="44.39787" lon="6.92996">
        <ele>1722.4</ele>
        <time>2022-08-16T12:36:19Z</time>
      </trkpt>
      <trkpt lat="44.39788" lon="6.92993">
        <ele>1722.6</ele>
        <time>2022-08-16T12:36:20Z</time>
      </trkpt>
      <trkpt lat="44.39789" lon="6.92991">
        <ele>1722.6</ele>
        <time>2022-08-16T12:36:21Z</time>
      </trkpt>
      <trkpt lat="44.3979" lon="6.92989">
        <ele>1722.8</ele>
        <time>2022-08-16T12:36:22Z</time>
      </trkpt>
      <trkpt lat="44.3979" lon="6.92986">
        <ele>1722.8</ele>
        <time>2022-08-16T12:36:23Z</time>
      </trkpt>
      <trkpt lat="44.39791" lon="6.92984">
        <ele>1723</ele>
        <time>2022-08-16T12:36:24Z</time>
      </trkpt>
      <trkpt lat="44.39791" lon="6.92981">
        <ele>1723.2</ele>
        <time>2022-08-16T12:36:25Z</time>
      </trkpt>
      <trkpt lat="44.39791" lon="6.92978">
        <ele>1723.2</ele>
        <time>2022-08-16T12:36:26Z</time>
      </trkpt>
      <trkpt lat="44.39792" lon="6.92976">
        <ele>1723.4</ele>
        <time>2022-08-16T12:36:27Z</time>
      </trkpt>
      <trkpt lat="44.39792" lon="6.92974">
        <ele>1723.4</ele>
        <time>2022-08-16T12:36:28Z</time>
      </trkpt>
      <trkpt lat="44.39793" lon="6.92971">
        <ele>1723.6</ele>
        <time>2022-08-16T12:36:29Z</time>
      </trkpt>
      <trkpt lat="44.39793" lon="6.92969">
        <ele>1724</ele>
        <time>2022-08-16T12:36:30Z</time>
      </trkpt>
      <trkpt lat="44.39794" lon="6.92966">
        <ele>1724.2</ele>
        <time>2022-08-16T12:36:31Z</time>
      </trkpt>
      <trkpt lat="44.39794" lon="6.92964">
        <ele>1724.4</ele>
        <time>2022-08-16T12:36:32Z</time>
      </trkpt>
      <trkpt lat="44.39794" lon="6.92961">
        <ele>1724.6</ele>
        <time>2022-08-16T12:36:33Z</time>
      </trkpt>
      <trkpt lat="44.39794" lon="6.92959">
        <ele>1725</ele>
        <time>2022-08-16T12:36:34Z</time>
      </trkpt>
      <trkpt lat="44.39794" lon="6.92956">
        <ele>1725</ele>
        <time>2022-08-16T12:36:35Z</time>
      </trkpt>
      <trkpt lat="44.39794" lon="6.92954">
        <ele>1725</ele>
        <time>2022-08-16T12:36:36Z</time>
      </trkpt>
      <trkpt lat="44.39795" lon="6.92951">
        <ele>1725.2</ele>
        <time>2022-08-16T12:36:37Z</time>
      </trkpt>
      <trkpt lat="44.39795" lon="6.92948">
        <ele>1725.4</ele>
        <time>2022-08-16T12:36:38Z</time>
      </trkpt>
      <trkpt lat="44.39795" lon="6.92946">
        <ele>1725.6</ele>
        <time>2022-08-16T12:36:39Z</time>
      </trkpt>
      <trkpt lat="44.39795" lon="6.92943">
        <ele>1725.6</ele>
        <time>2022-08-16T12:36:40Z</time>
      </trkpt>
      <trkpt lat="44.39795" lon="6.92941">
        <ele>1725.6</ele>
        <time>2022-08-16T12:36:41Z</time>
      </trkpt>
      <trkpt lat="44.39795" lon="6.92938">
        <ele>1726</ele>
        <time>2022-08-16T12:36:42Z</time>
      </trkpt>
      <trkpt lat="44.39795" lon="6.92935">
        <ele>1726</ele>
        <time>2022-08-16T12:36:43Z</time>
      </trkpt>
      <trkpt lat="44.39795" lon="6.92933">
        <ele>1726.2</ele>
        <time>2022-08-16T12:36:44Z</time>
      </trkpt>
      <trkpt lat="44.39795" lon="6.9293">
        <ele>1726.4</ele>
        <time>2022-08-16T12:36:45Z</time>
      </trkpt>
      <trkpt lat="44.39795" lon="6.92927">
        <ele>1726.4</ele>
        <time>2022-08-16T12:36:46Z</time>
      </trkpt>
      <trkpt lat="44.39795" lon="6.92924">
        <ele>1726.4</ele>
        <time>2022-08-16T12:36:47Z</time>
      </trkpt>
      <trkpt lat="44.39794" lon="6.92921">
        <ele>1726.4</ele>
        <time>2022-08-16T12:36:48Z</time>
      </trkpt>
      <trkpt lat="44.39794" lon="6.92919">
        <ele>1726.8</ele>
        <time>2022-08-16T12:36:49Z</time>
      </trkpt>
      <trkpt lat="44.39794" lon="6.92916">
        <ele>1727</ele>
        <time>2022-08-16T12:36:50Z</time>
      </trkpt>
      <trkpt lat="44.39794" lon="6.92913">
        <ele>1727</ele>
        <time>2022-08-16T12:36:51Z</time>
      </trkpt>
      <trkpt lat="44.39794" lon="6.9291">
        <ele>1727</ele>
        <time>2022-08-16T12:36:52Z</time>
      </trkpt>
      <trkpt lat="44.39793" lon="6.92907">
        <ele>1727.2</ele>
        <time>2022-08-16T12:36:53Z</time>
      </trkpt>
      <trkpt lat="44.39793" lon="6.92904">
        <ele>1727.2</ele>
        <time>2022-08-16T12:36:54Z</time>
      </trkpt>
      <trkpt lat="44.39793" lon="6.92901">
        <ele>1727.2</ele>
        <time>2022-08-16T12:36:55Z</time>
      </trkpt>
      <trkpt lat="44.39793" lon="6.92898">
        <ele>1727.4</ele>
        <time>2022-08-16T12:36:56Z</time>
      </trkpt>
      <trkpt lat="44.39793" lon="6.92895">
        <ele>1727.6</ele>
        <time>2022-08-16T12:36:57Z</time>
      </trkpt>
      <trkpt lat="44.39793" lon="6.92892">
        <ele>1727.6</ele>
        <time>2022-08-16T12:36:58Z</time>
      </trkpt>
      <trkpt lat="44.39793" lon="6.92889">
        <ele>1727.8</ele>
        <time>2022-08-16T12:36:59Z</time>
      </trkpt>
      <trkpt lat="44.39793" lon="6.92887">
        <ele>1728</ele>
        <time>2022-08-16T12:37:00Z</time>
      </trkpt>
      <trkpt lat="44.39793" lon="6.92884">
        <ele>1728.2</ele>
        <time>2022-08-16T12:37:01Z</time>
      </trkpt>
      <trkpt lat="44.39792" lon="6.92881">
        <ele>1728.2</ele>
        <time>2022-08-16T12:37:02Z</time>
      </trkpt>
      <trkpt lat="44.39792" lon="6.92878">
        <ele>1728.4</ele>
        <time>2022-08-16T12:37:03Z</time>
      </trkpt>
      <trkpt lat="44.39792" lon="6.92875">
        <ele>1728.4</ele>
        <time>2022-08-16T12:37:04Z</time>
      </trkpt>
      <trkpt lat="44.39792" lon="6.92872">
        <ele>1728.6</ele>
        <time>2022-08-16T12:37:05Z</time>
      </trkpt>
      <trkpt lat="44.39792" lon="6.92869">
        <ele>1728.8</ele>
        <time>2022-08-16T12:37:06Z</time>
      </trkpt>
      <trkpt lat="44.39792" lon="6.92866">
        <ele>1729.2</ele>
        <time>2022-08-16T12:37:07Z</time>
      </trkpt>
      <trkpt lat="44.39792" lon="6.92864">
        <ele>1729</ele>
        <time>2022-08-16T12:37:08Z</time>
      </trkpt>
      <trkpt lat="44.39792" lon="6.92861">
        <ele>1729.2</ele>
        <time>2022-08-16T12:37:09Z</time>
      </trkpt>
      <trkpt lat="44.39793" lon="6.92858">
        <ele>1729.2</ele>
        <time>2022-08-16T12:37:10Z</time>
      </trkpt>
      <trkpt lat="44.39793" lon="6.92855">
        <ele>1729.4</ele>
        <time>2022-08-16T12:37:11Z</time>
      </trkpt>
      <trkpt lat="44.39793" lon="6.92853">
        <ele>1729.6</ele>
        <time>2022-08-16T12:37:12Z</time>
      </trkpt>
      <trkpt lat="44.39794" lon="6.9285">
        <ele>1729.8</ele>
        <time>2022-08-16T12:37:13Z</time>
      </trkpt>
      <trkpt lat="44.39794" lon="6.92848">
        <ele>1729.8</ele>
        <time>2022-08-16T12:37:14Z</time>
      </trkpt>
      <trkpt lat="44.39795" lon="6.92845">
        <ele>1729.8</ele>
        <time>2022-08-16T12:37:15Z</time>
      </trkpt>
      <trkpt lat="44.39796" lon="6.92843">
        <ele>1730</ele>
        <time>2022-08-16T12:37:16Z</time>
      </trkpt>
      <trkpt lat="44.39796" lon="6.9284">
        <ele>1730.2</ele>
        <time>2022-08-16T12:37:17Z</time>
      </trkpt>
      <trkpt lat="44.39797" lon="6.92838">
        <ele>1730.4</ele>
        <time>2022-08-16T12:37:18Z</time>
      </trkpt>
      <trkpt lat="44.39798" lon="6.92835">
        <ele>1730.6</ele>
        <time>2022-08-16T12:37:19Z</time>
      </trkpt>
      <trkpt lat="44.39799" lon="6.92832">
        <ele>1730.8</ele>
        <time>2022-08-16T12:37:20Z</time>
      </trkpt>
      <trkpt lat="44.398" lon="6.9283">
        <ele>1730.8</ele>
        <time>2022-08-16T12:37:21Z</time>
      </trkpt>
      <trkpt lat="44.398" lon="6.92827">
        <ele>1731</ele>
        <time>2022-08-16T12:37:22Z</time>
      </trkpt>
      <trkpt lat="44.39801" lon="6.92825">
        <ele>1731.2</ele>
        <time>2022-08-16T12:37:23Z</time>
      </trkpt>
      <trkpt lat="44.39802" lon="6.92823">
        <ele>1731.4</ele>
        <time>2022-08-16T12:37:24Z</time>
      </trkpt>
      <trkpt lat="44.39803" lon="6.9282">
        <ele>1731.2</ele>
        <time>2022-08-16T12:37:25Z</time>
      </trkpt>
      <trkpt lat="44.39804" lon="6.92818">
        <ele>1731.4</ele>
        <time>2022-08-16T12:37:26Z</time>
      </trkpt>
      <trkpt lat="44.39805" lon="6.92815">
        <ele>1731.6</ele>
        <time>2022-08-16T12:37:27Z</time>
      </trkpt>
      <trkpt lat="44.39806" lon="6.92813">
        <ele>1731.6</ele>
        <time>2022-08-16T12:37:28Z</time>
      </trkpt>
      <trkpt lat="44.39807" lon="6.9281">
        <ele>1731.8</ele>
        <time>2022-08-16T12:37:29Z</time>
      </trkpt>
      <trkpt lat="44.39808" lon="6.92808">
        <ele>1732</ele>
        <time>2022-08-16T12:37:30Z</time>
      </trkpt>
      <trkpt lat="44.39809" lon="6.92805">
        <ele>1732</ele>
        <time>2022-08-16T12:37:31Z</time>
      </trkpt>
      <trkpt lat="44.3981" lon="6.92803">
        <ele>1732.2</ele>
        <time>2022-08-16T12:37:32Z</time>
      </trkpt>
      <trkpt lat="44.39811" lon="6.928">
        <ele>1732.4</ele>
        <time>2022-08-16T12:37:33Z</time>
      </trkpt>
      <trkpt lat="44.39812" lon="6.92798">
        <ele>1732.6</ele>
        <time>2022-08-16T12:37:34Z</time>
      </trkpt>
      <trkpt lat="44.39813" lon="6.92796">
        <ele>1732.6</ele>
        <time>2022-08-16T12:37:35Z</time>
      </trkpt>
      <trkpt lat="44.39814" lon="6.92793">
        <ele>1732.8</ele>
        <time>2022-08-16T12:37:36Z</time>
      </trkpt>
      <trkpt lat="44.39815" lon="6.92791">
        <ele>1732.8</ele>
        <time>2022-08-16T12:37:37Z</time>
      </trkpt>
      <trkpt lat="44.39816" lon="6.92789">
        <ele>1733</ele>
        <time>2022-08-16T12:37:38Z</time>
      </trkpt>
      <trkpt lat="44.39817" lon="6.92786">
        <ele>1733.2</ele>
        <time>2022-08-16T12:37:39Z</time>
      </trkpt>
      <trkpt lat="44.39818" lon="6.92784">
        <ele>1733.2</ele>
        <time>2022-08-16T12:37:40Z</time>
      </trkpt>
      <trkpt lat="44.39819" lon="6.92781">
        <ele>1733.4</ele>
        <time>2022-08-16T12:37:41Z</time>
      </trkpt>
      <trkpt lat="44.3982" lon="6.92779">
        <ele>1733.6</ele>
        <time>2022-08-16T12:37:42Z</time>
      </trkpt>
      <trkpt lat="44.39821" lon="6.92776">
        <ele>1733.8</ele>
        <time>2022-08-16T12:37:43Z</time>
      </trkpt>
      <trkpt lat="44.39822" lon="6.92774">
        <ele>1734</ele>
        <time>2022-08-16T12:37:44Z</time>
      </trkpt>
      <trkpt lat="44.39823" lon="6.92772">
        <ele>1734.2</ele>
        <time>2022-08-16T12:37:45Z</time>
      </trkpt>
      <trkpt lat="44.39824" lon="6.92769">
        <ele>1734.4</ele>
        <time>2022-08-16T12:37:46Z</time>
      </trkpt>
      <trkpt lat="44.39825" lon="6.92766">
        <ele>1734.8</ele>
        <time>2022-08-16T12:37:47Z</time>
      </trkpt>
      <trkpt lat="44.39826" lon="6.92764">
        <ele>1735</ele>
        <time>2022-08-16T12:37:48Z</time>
      </trkpt>
      <trkpt lat="44.39827" lon="6.92762">
        <ele>1735</ele>
        <time>2022-08-16T12:37:49Z</time>
      </trkpt>
      <trkpt lat="44.39828" lon="6.92759">
        <ele>1735.2</ele>
        <time>2022-08-16T12:37:50Z</time>
      </trkpt>
      <trkpt lat="44.39829" lon="6.92757">
        <ele>1735.4</ele>
        <time>2022-08-16T12:37:51Z</time>
      </trkpt>
      <trkpt lat="44.3983" lon="6.92754">
        <ele>1735.4</ele>
        <time>2022-08-16T12:37:52Z</time>
      </trkpt>
      <trkpt lat="44.39831" lon="6.92752">
        <ele>1735.6</ele>
        <time>2022-08-16T12:37:53Z</time>
      </trkpt>
      <trkpt lat="44.39832" lon="6.92749">
        <ele>1735.6</ele>
        <time>2022-08-16T12:37:54Z</time>
      </trkpt>
      <trkpt lat="44.39833" lon="6.92747">
        <ele>1735.8</ele>
        <time>2022-08-16T12:37:55Z</time>
      </trkpt>
      <trkpt lat="44.39834" lon="6.92744">
        <ele>1735.8</ele>
        <time>2022-08-16T12:37:56Z</time>
      </trkpt>
      <trkpt lat="44.39834" lon="6.92742">
        <ele>1736.2</ele>
        <time>2022-08-16T12:37:57Z</time>
      </trkpt>
      <trkpt lat="44.39835" lon="6.92739">
        <ele>1736.4</ele>
        <time>2022-08-16T12:37:58Z</time>
      </trkpt>
      <trkpt lat="44.39836" lon="6.92736">
        <ele>1736.4</ele>
        <time>2022-08-16T12:37:59Z</time>
      </trkpt>
      <trkpt lat="44.39837" lon="6.92734">
        <ele>1736.4</ele>
        <time>2022-08-16T12:38:00Z</time>
      </trkpt>
      <trkpt lat="44.39838" lon="6.92731">
        <ele>1736.8</ele>
        <time>2022-08-16T12:38:01Z</time>
      </trkpt>
      <trkpt lat="44.39839" lon="6.92729">
        <ele>1736.8</ele>
        <time>2022-08-16T12:38:02Z</time>
      </trkpt>
      <trkpt lat="44.3984" lon="6.92726">
        <ele>1737.2</ele>
        <time>2022-08-16T12:38:03Z</time>
      </trkpt>
      <trkpt lat="44.3984" lon="6.92723">
        <ele>1737.2</ele>
        <time>2022-08-16T12:38:04Z</time>
      </trkpt>
      <trkpt lat="44.39841" lon="6.92721">
        <ele>1737.2</ele>
        <time>2022-08-16T12:38:05Z</time>
      </trkpt>
      <trkpt lat="44.39842" lon="6.92718">
        <ele>1737.4</ele>
        <time>2022-08-16T12:38:06Z</time>
      </trkpt>
      <trkpt lat="44.39843" lon="6.92716">
        <ele>1737.6</ele>
        <time>2022-08-16T12:38:07Z</time>
      </trkpt>
      <trkpt lat="44.39844" lon="6.92713">
        <ele>1737.8</ele>
        <time>2022-08-16T12:38:08Z</time>
      </trkpt>
      <trkpt lat="44.39845" lon="6.92711">
        <ele>1738</ele>
        <time>2022-08-16T12:38:09Z</time>
      </trkpt>
      <trkpt lat="44.39846" lon="6.92708">
        <ele>1738</ele>
        <time>2022-08-16T12:38:10Z</time>
      </trkpt>
      <trkpt lat="44.39847" lon="6.92706">
        <ele>1738.4</ele>
        <time>2022-08-16T12:38:11Z</time>
      </trkpt>
      <trkpt lat="44.39848" lon="6.92703">
        <ele>1738.2</ele>
        <time>2022-08-16T12:38:12Z</time>
      </trkpt>
      <trkpt lat="44.39848" lon="6.92701">
        <ele>1738.6</ele>
        <time>2022-08-16T12:38:13Z</time>
      </trkpt>
      <trkpt lat="44.39849" lon="6.92698">
        <ele>1738.8</ele>
        <time>2022-08-16T12:38:14Z</time>
      </trkpt>
      <trkpt lat="44.3985" lon="6.92695">
        <ele>1739</ele>
        <time>2022-08-16T12:38:15Z</time>
      </trkpt>
      <trkpt lat="44.39851" lon="6.92693">
        <ele>1739</ele>
        <time>2022-08-16T12:38:16Z</time>
      </trkpt>
      <trkpt lat="44.39851" lon="6.9269">
        <ele>1739</ele>
        <time>2022-08-16T12:38:17Z</time>
      </trkpt>
      <trkpt lat="44.39852" lon="6.92688">
        <ele>1739</ele>
        <time>2022-08-16T12:38:18Z</time>
      </trkpt>
      <trkpt lat="44.39853" lon="6.92685">
        <ele>1739.2</ele>
        <time>2022-08-16T12:38:19Z</time>
      </trkpt>
      <trkpt lat="44.39854" lon="6.92683">
        <ele>1739.4</ele>
        <time>2022-08-16T12:38:20Z</time>
      </trkpt>
      <trkpt lat="44.39856" lon="6.9268">
        <ele>1739.4</ele>
        <time>2022-08-16T12:38:21Z</time>
      </trkpt>
      <trkpt lat="44.39857" lon="6.92678">
        <ele>1739.8</ele>
        <time>2022-08-16T12:38:22Z</time>
      </trkpt>
      <trkpt lat="44.39859" lon="6.92676">
        <ele>1739.8</ele>
        <time>2022-08-16T12:38:23Z</time>
      </trkpt>
      <trkpt lat="44.3986" lon="6.92675">
        <ele>1740</ele>
        <time>2022-08-16T12:38:24Z</time>
      </trkpt>
      <trkpt lat="44.39862" lon="6.92673">
        <ele>1740.2</ele>
        <time>2022-08-16T12:38:25Z</time>
      </trkpt>
      <trkpt lat="44.39864" lon="6.92672">
        <ele>1740.2</ele>
        <time>2022-08-16T12:38:26Z</time>
      </trkpt>
      <trkpt lat="44.39866" lon="6.92671">
        <ele>1740.2</ele>
        <time>2022-08-16T12:38:27Z</time>
      </trkpt>
      <trkpt lat="44.39868" lon="6.92671">
        <ele>1740.4</ele>
        <time>2022-08-16T12:38:28Z</time>
      </trkpt>
      <trkpt lat="44.3987" lon="6.92672">
        <ele>1740.6</ele>
        <time>2022-08-16T12:38:29Z</time>
      </trkpt>
      <trkpt lat="44.39872" lon="6.92673">
        <ele>1740.6</ele>
        <time>2022-08-16T12:38:30Z</time>
      </trkpt>
      <trkpt lat="44.39874" lon="6.92675">
        <ele>1740.6</ele>
        <time>2022-08-16T12:38:31Z</time>
      </trkpt>
      <trkpt lat="44.39875" lon="6.92677">
        <ele>1740.6</ele>
        <time>2022-08-16T12:38:32Z</time>
      </trkpt>
      <trkpt lat="44.39875" lon="6.9268">
        <ele>1740.8</ele>
        <time>2022-08-16T12:38:33Z</time>
      </trkpt>
      <trkpt lat="44.39876" lon="6.92683">
        <ele>1740.8</ele>
        <time>2022-08-16T12:38:34Z</time>
      </trkpt>
      <trkpt lat="44.39876" lon="6.92686">
        <ele>1741</ele>
        <time>2022-08-16T12:38:35Z</time>
      </trkpt>
      <trkpt lat="44.39876" lon="6.92689">
        <ele>1741.2</ele>
        <time>2022-08-16T12:38:36Z</time>
      </trkpt>
      <trkpt lat="44.39875" lon="6.92692">
        <ele>1741.2</ele>
        <time>2022-08-16T12:38:37Z</time>
      </trkpt>
      <trkpt lat="44.39875" lon="6.92695">
        <ele>1741.4</ele>
        <time>2022-08-16T12:38:38Z</time>
      </trkpt>
      <trkpt lat="44.39874" lon="6.92698">
        <ele>1741.6</ele>
        <time>2022-08-16T12:38:39Z</time>
      </trkpt>
      <trkpt lat="44.39874" lon="6.92701">
        <ele>1741.6</ele>
        <time>2022-08-16T12:38:40Z</time>
      </trkpt>
      <trkpt lat="44.39873" lon="6.92703">
        <ele>1741.8</ele>
        <time>2022-08-16T12:38:41Z</time>
      </trkpt>
      <trkpt lat="44.39873" lon="6.92706">
        <ele>1742</ele>
        <time>2022-08-16T12:38:42Z</time>
      </trkpt>
      <trkpt lat="44.39873" lon="6.92709">
        <ele>1742.2</ele>
        <time>2022-08-16T12:38:43Z</time>
      </trkpt>
      <trkpt lat="44.39872" lon="6.92712">
        <ele>1742.2</ele>
        <time>2022-08-16T12:38:44Z</time>
      </trkpt>
      <trkpt lat="44.39872" lon="6.92714">
        <ele>1742.4</ele>
        <time>2022-08-16T12:38:45Z</time>
      </trkpt>
      <trkpt lat="44.39871" lon="6.92717">
        <ele>1742.4</ele>
        <time>2022-08-16T12:38:46Z</time>
      </trkpt>
      <trkpt lat="44.3987" lon="6.9272">
        <ele>1742.4</ele>
        <time>2022-08-16T12:38:47Z</time>
      </trkpt>
      <trkpt lat="44.3987" lon="6.92723">
        <ele>1742.8</ele>
        <time>2022-08-16T12:38:48Z</time>
      </trkpt>
      <trkpt lat="44.39869" lon="6.92725">
        <ele>1743</ele>
        <time>2022-08-16T12:38:49Z</time>
      </trkpt>
      <trkpt lat="44.39868" lon="6.92728">
        <ele>1743</ele>
        <time>2022-08-16T12:38:50Z</time>
      </trkpt>
      <trkpt lat="44.39868" lon="6.92731">
        <ele>1743.4</ele>
        <time>2022-08-16T12:38:51Z</time>
      </trkpt>
      <trkpt lat="44.39867" lon="6.92733">
        <ele>1743.4</ele>
        <time>2022-08-16T12:38:52Z</time>
      </trkpt>
      <trkpt lat="44.39867" lon="6.92736">
        <ele>1743.6</ele>
        <time>2022-08-16T12:38:53Z</time>
      </trkpt>
      <trkpt lat="44.39866" lon="6.92739">
        <ele>1743.8</ele>
        <time>2022-08-16T12:38:54Z</time>
      </trkpt>
      <trkpt lat="44.39866" lon="6.92741">
        <ele>1744</ele>
        <time>2022-08-16T12:38:55Z</time>
      </trkpt>
      <trkpt lat="44.39866" lon="6.92744">
        <ele>1744</ele>
        <time>2022-08-16T12:38:56Z</time>
      </trkpt>
      <trkpt lat="44.39865" lon="6.92747">
        <ele>1744.2</ele>
        <time>2022-08-16T12:38:57Z</time>
      </trkpt>
      <trkpt lat="44.39865" lon="6.9275">
        <ele>1744.4</ele>
        <time>2022-08-16T12:38:58Z</time>
      </trkpt>
      <trkpt lat="44.39865" lon="6.92753">
        <ele>1744.4</ele>
        <time>2022-08-16T12:38:59Z</time>
      </trkpt>
      <trkpt lat="44.39865" lon="6.92756">
        <ele>1744.6</ele>
        <time>2022-08-16T12:39:00Z</time>
      </trkpt>
      <trkpt lat="44.39865" lon="6.92759">
        <ele>1744.8</ele>
        <time>2022-08-16T12:39:01Z</time>
      </trkpt>
      <trkpt lat="44.39865" lon="6.92762">
        <ele>1745</ele>
        <time>2022-08-16T12:39:02Z</time>
      </trkpt>
      <trkpt lat="44.39865" lon="6.92765">
        <ele>1745</ele>
        <time>2022-08-16T12:39:03Z</time>
      </trkpt>
      <trkpt lat="44.39865" lon="6.92768">
        <ele>1745.2</ele>
        <time>2022-08-16T12:39:04Z</time>
      </trkpt>
      <trkpt lat="44.39865" lon="6.9277">
        <ele>1745.2</ele>
        <time>2022-08-16T12:39:05Z</time>
      </trkpt>
      <trkpt lat="44.39865" lon="6.92773">
        <ele>1745.6</ele>
        <time>2022-08-16T12:39:06Z</time>
      </trkpt>
      <trkpt lat="44.39865" lon="6.92776">
        <ele>1745.8</ele>
        <time>2022-08-16T12:39:07Z</time>
      </trkpt>
      <trkpt lat="44.39865" lon="6.92779">
        <ele>1745.8</ele>
        <time>2022-08-16T12:39:08Z</time>
      </trkpt>
      <trkpt lat="44.39865" lon="6.92782">
        <ele>1746</ele>
        <time>2022-08-16T12:39:09Z</time>
      </trkpt>
      <trkpt lat="44.39866" lon="6.92785">
        <ele>1746.2</ele>
        <time>2022-08-16T12:39:10Z</time>
      </trkpt>
      <trkpt lat="44.39866" lon="6.92788">
        <ele>1746.2</ele>
        <time>2022-08-16T12:39:11Z</time>
      </trkpt>
      <trkpt lat="44.39866" lon="6.92791">
        <ele>1746.4</ele>
        <time>2022-08-16T12:39:12Z</time>
      </trkpt>
      <trkpt lat="44.39866" lon="6.92793">
        <ele>1746.8</ele>
        <time>2022-08-16T12:39:13Z</time>
      </trkpt>
      <trkpt lat="44.39867" lon="6.92796">
        <ele>1746.8</ele>
        <time>2022-08-16T12:39:14Z</time>
      </trkpt>
      <trkpt lat="44.39867" lon="6.92799">
        <ele>1747</ele>
        <time>2022-08-16T12:39:15Z</time>
      </trkpt>
      <trkpt lat="44.39868" lon="6.92802">
        <ele>1747</ele>
        <time>2022-08-16T12:39:16Z</time>
      </trkpt>
      <trkpt lat="44.39868" lon="6.92804">
        <ele>1747.4</ele>
        <time>2022-08-16T12:39:17Z</time>
      </trkpt>
      <trkpt lat="44.39869" lon="6.92807">
        <ele>1747.6</ele>
        <time>2022-08-16T12:39:18Z</time>
      </trkpt>
      <trkpt lat="44.39869" lon="6.9281">
        <ele>1747.8</ele>
        <time>2022-08-16T12:39:19Z</time>
      </trkpt>
      <trkpt lat="44.3987" lon="6.92813">
        <ele>1748</ele>
        <time>2022-08-16T12:39:20Z</time>
      </trkpt>
      <trkpt lat="44.39871" lon="6.92815">
        <ele>1748</ele>
        <time>2022-08-16T12:39:21Z</time>
      </trkpt>
      <trkpt lat="44.39871" lon="6.92818">
        <ele>1748.2</ele>
        <time>2022-08-16T12:39:22Z</time>
      </trkpt>
      <trkpt lat="44.39872" lon="6.92821">
        <ele>1748.4</ele>
        <time>2022-08-16T12:39:23Z</time>
      </trkpt>
      <trkpt lat="44.39873" lon="6.92824">
        <ele>1748.6</ele>
        <time>2022-08-16T12:39:24Z</time>
      </trkpt>
      <trkpt lat="44.39873" lon="6.92826">
        <ele>1748.6</ele>
        <time>2022-08-16T12:39:25Z</time>
      </trkpt>
      <trkpt lat="44.39874" lon="6.92829">
        <ele>1748.8</ele>
        <time>2022-08-16T12:39:26Z</time>
      </trkpt>
      <trkpt lat="44.39875" lon="6.92831">
        <ele>1749</ele>
        <time>2022-08-16T12:39:27Z</time>
      </trkpt>
      <trkpt lat="44.39875" lon="6.92834">
        <ele>1748.8</ele>
        <time>2022-08-16T12:39:28Z</time>
      </trkpt>
      <trkpt lat="44.39876" lon="6.92837">
        <ele>1749.2</ele>
        <time>2022-08-16T12:39:29Z</time>
      </trkpt>
      <trkpt lat="44.39877" lon="6.9284">
        <ele>1749.2</ele>
        <time>2022-08-16T12:39:30Z</time>
      </trkpt>
      <trkpt lat="44.39877" lon="6.92842">
        <ele>1749.4</ele>
        <time>2022-08-16T12:39:31Z</time>
      </trkpt>
      <trkpt lat="44.39878" lon="6.92845">
        <ele>1749.6</ele>
        <time>2022-08-16T12:39:32Z</time>
      </trkpt>
      <trkpt lat="44.39879" lon="6.92848">
        <ele>1749.6</ele>
        <time>2022-08-16T12:39:33Z</time>
      </trkpt>
      <trkpt lat="44.3988" lon="6.9285">
        <ele>1749.6</ele>
        <time>2022-08-16T12:39:34Z</time>
      </trkpt>
      <trkpt lat="44.3988" lon="6.92853">
        <ele>1749.8</ele>
        <time>2022-08-16T12:39:35Z</time>
      </trkpt>
      <trkpt lat="44.39881" lon="6.92856">
        <ele>1749.8</ele>
        <time>2022-08-16T12:39:36Z</time>
      </trkpt>
      <trkpt lat="44.39882" lon="6.92858">
        <ele>1750.2</ele>
        <time>2022-08-16T12:39:37Z</time>
      </trkpt>
      <trkpt lat="44.39882" lon="6.92861">
        <ele>1750.2</ele>
        <time>2022-08-16T12:39:38Z</time>
      </trkpt>
      <trkpt lat="44.39883" lon="6.92864">
        <ele>1750.4</ele>
        <time>2022-08-16T12:39:39Z</time>
      </trkpt>
      <trkpt lat="44.39884" lon="6.92866">
        <ele>1750.6</ele>
        <time>2022-08-16T12:39:40Z</time>
      </trkpt>
      <trkpt lat="44.39884" lon="6.92869">
        <ele>1750.6</ele>
        <time>2022-08-16T12:39:41Z</time>
      </trkpt>
      <trkpt lat="44.39885" lon="6.92872">
        <ele>1750.6</ele>
        <time>2022-08-16T12:39:42Z</time>
      </trkpt>
      <trkpt lat="44.39886" lon="6.92875">
        <ele>1750.6</ele>
        <time>2022-08-16T12:39:43Z</time>
      </trkpt>
      <trkpt lat="44.39887" lon="6.92877">
        <ele>1750.8</ele>
        <time>2022-08-16T12:39:44Z</time>
      </trkpt>
      <trkpt lat="44.39887" lon="6.9288">
        <ele>1750.8</ele>
        <time>2022-08-16T12:39:45Z</time>
      </trkpt>
      <trkpt lat="44.39888" lon="6.92883">
        <ele>1751</ele>
        <time>2022-08-16T12:39:46Z</time>
      </trkpt>
      <trkpt lat="44.39889" lon="6.92886">
        <ele>1751</ele>
        <time>2022-08-16T12:39:47Z</time>
      </trkpt>
      <trkpt lat="44.3989" lon="6.92888">
        <ele>1751.2</ele>
        <time>2022-08-16T12:39:48Z</time>
      </trkpt>
      <trkpt lat="44.39891" lon="6.92891">
        <ele>1751.4</ele>
        <time>2022-08-16T12:39:49Z</time>
      </trkpt>
      <trkpt lat="44.39892" lon="6.92894">
        <ele>1751.6</ele>
        <time>2022-08-16T12:39:50Z</time>
      </trkpt>
      <trkpt lat="44.39893" lon="6.92896">
        <ele>1751.8</ele>
        <time>2022-08-16T12:39:51Z</time>
      </trkpt>
      <trkpt lat="44.39895" lon="6.92898">
        <ele>1751.8</ele>
        <time>2022-08-16T12:39:52Z</time>
      </trkpt>
      <trkpt lat="44.39896" lon="6.92901">
        <ele>1752</ele>
        <time>2022-08-16T12:39:53Z</time>
      </trkpt>
      <trkpt lat="44.39897" lon="6.92903">
        <ele>1752.2</ele>
        <time>2022-08-16T12:39:54Z</time>
      </trkpt>
      <trkpt lat="44.39899" lon="6.92905">
        <ele>1752.2</ele>
        <time>2022-08-16T12:39:55Z</time>
      </trkpt>
      <trkpt lat="44.39901" lon="6.92907">
        <ele>1752.6</ele>
        <time>2022-08-16T12:39:56Z</time>
      </trkpt>
      <trkpt lat="44.39903" lon="6.92908">
        <ele>1752.6</ele>
        <time>2022-08-16T12:39:57Z</time>
      </trkpt>
      <trkpt lat="44.39905" lon="6.92908">
        <ele>1752.8</ele>
        <time>2022-08-16T12:39:58Z</time>
      </trkpt>
      <trkpt lat="44.39907" lon="6.92909">
        <ele>1753</ele>
        <time>2022-08-16T12:39:59Z</time>
      </trkpt>
      <trkpt lat="44.39909" lon="6.92908">
        <ele>1753.2</ele>
        <time>2022-08-16T12:40:00Z</time>
      </trkpt>
      <trkpt lat="44.39911" lon="6.92908">
        <ele>1753.6</ele>
        <time>2022-08-16T12:40:01Z</time>
      </trkpt>
      <trkpt lat="44.39913" lon="6.92907">
        <ele>1753.6</ele>
        <time>2022-08-16T12:40:02Z</time>
      </trkpt>
      <trkpt lat="44.39915" lon="6.92906">
        <ele>1753.8</ele>
        <time>2022-08-16T12:40:03Z</time>
      </trkpt>
      <trkpt lat="44.39917" lon="6.92904">
        <ele>1754</ele>
        <time>2022-08-16T12:40:04Z</time>
      </trkpt>
      <trkpt lat="44.39919" lon="6.92902">
        <ele>1754</ele>
        <time>2022-08-16T12:40:05Z</time>
      </trkpt>
      <trkpt lat="44.3992" lon="6.92899">
        <ele>1754.2</ele>
        <time>2022-08-16T12:40:06Z</time>
      </trkpt>
      <trkpt lat="44.39921" lon="6.92895">
        <ele>1754.4</ele>
        <time>2022-08-16T12:40:07Z</time>
      </trkpt>
      <trkpt lat="44.39922" lon="6.92892">
        <ele>1754.4</ele>
        <time>2022-08-16T12:40:08Z</time>
      </trkpt>
      <trkpt lat="44.39923" lon="6.92889">
        <ele>1754.6</ele>
        <time>2022-08-16T12:40:09Z</time>
      </trkpt>
      <trkpt lat="44.39923" lon="6.92886">
        <ele>1754.6</ele>
        <time>2022-08-16T12:40:10Z</time>
      </trkpt>
      <trkpt lat="44.39923" lon="6.92883">
        <ele>1754.6</ele>
        <time>2022-08-16T12:40:11Z</time>
      </trkpt>
      <trkpt lat="44.39923" lon="6.92857">
        <ele>1755</ele>
        <time>2022-08-16T12:40:19Z</time>
      </trkpt>
      <trkpt lat="44.39922" lon="6.92854">
        <ele>1754.8</ele>
        <time>2022-08-16T12:40:20Z</time>
      </trkpt>
      <trkpt lat="44.39921" lon="6.92838">
        <ele>1755.2</ele>
        <time>2022-08-16T12:40:25Z</time>
      </trkpt>
      <trkpt lat="44.39921" lon="6.92835">
        <ele>1755.2</ele>
        <time>2022-08-16T12:40:26Z</time>
      </trkpt>
      <trkpt lat="44.39921" lon="6.92829">
        <ele>1755.4</ele>
        <time>2022-08-16T12:40:28Z</time>
      </trkpt>
      <trkpt lat="44.3992" lon="6.92823">
        <ele>1755.8</ele>
        <time>2022-08-16T12:40:30Z</time>
      </trkpt>
      <trkpt lat="44.3992" lon="6.92807">
        <ele>1756.4</ele>
        <time>2022-08-16T12:40:35Z</time>
      </trkpt>
      <trkpt lat="44.3992" lon="6.92797">
        <ele>1756.8</ele>
        <time>2022-08-16T12:40:38Z</time>
      </trkpt>
      <trkpt lat="44.3992" lon="6.92794">
        <ele>1757</ele>
        <time>2022-08-16T12:40:39Z</time>
      </trkpt>
      <trkpt lat="44.3992" lon="6.92791">
        <ele>1757.2</ele>
        <time>2022-08-16T12:40:40Z</time>
      </trkpt>
      <trkpt lat="44.3992" lon="6.92787">
        <ele>1757.2</ele>
        <time>2022-08-16T12:40:41Z</time>
      </trkpt>
      <trkpt lat="44.3992" lon="6.92784">
        <ele>1757.4</ele>
        <time>2022-08-16T12:40:42Z</time>
      </trkpt>
      <trkpt lat="44.3992" lon="6.92781">
        <ele>1757.2</ele>
        <time>2022-08-16T12:40:43Z</time>
      </trkpt>
      <trkpt lat="44.39921" lon="6.92778">
        <ele>1757.4</ele>
        <time>2022-08-16T12:40:44Z</time>
      </trkpt>
      <trkpt lat="44.39921" lon="6.92774">
        <ele>1757.6</ele>
        <time>2022-08-16T12:40:45Z</time>
      </trkpt>
      <trkpt lat="44.39921" lon="6.92771">
        <ele>1757.8</ele>
        <time>2022-08-16T12:40:46Z</time>
      </trkpt>
      <trkpt lat="44.39922" lon="6.92768">
        <ele>1757.8</ele>
        <time>2022-08-16T12:40:47Z</time>
      </trkpt>
      <trkpt lat="44.39922" lon="6.92765">
        <ele>1758.2</ele>
        <time>2022-08-16T12:40:48Z</time>
      </trkpt>
      <trkpt lat="44.39923" lon="6.92762">
        <ele>1758.2</ele>
        <time>2022-08-16T12:40:49Z</time>
      </trkpt>
      <trkpt lat="44.39924" lon="6.92758">
        <ele>1758.2</ele>
        <time>2022-08-16T12:40:50Z</time>
      </trkpt>
      <trkpt lat="44.39925" lon="6.92755">
        <ele>1758.2</ele>
        <time>2022-08-16T12:40:51Z</time>
      </trkpt>
      <trkpt lat="44.39926" lon="6.92752">
        <ele>1758.6</ele>
        <time>2022-08-16T12:40:52Z</time>
      </trkpt>
      <trkpt lat="44.39927" lon="6.92748">
        <ele>1758.8</ele>
        <time>2022-08-16T12:40:53Z</time>
      </trkpt>
      <trkpt lat="44.39927" lon="6.92745">
        <ele>1758.6</ele>
        <time>2022-08-16T12:40:54Z</time>
      </trkpt>
      <trkpt lat="44.39928" lon="6.92742">
        <ele>1759</ele>
        <time>2022-08-16T12:40:55Z</time>
      </trkpt>
      <trkpt lat="44.39929" lon="6.92739">
        <ele>1759</ele>
        <time>2022-08-16T12:40:56Z</time>
      </trkpt>
      <trkpt lat="44.3993" lon="6.92736">
        <ele>1759.2</ele>
        <time>2022-08-16T12:40:57Z</time>
      </trkpt>
      <trkpt lat="44.3993" lon="6.92733">
        <ele>1759.4</ele>
        <time>2022-08-16T12:40:58Z</time>
      </trkpt>
      <trkpt lat="44.39931" lon="6.92729">
        <ele>1759.4</ele>
        <time>2022-08-16T12:40:59Z</time>
      </trkpt>
      <trkpt lat="44.39932" lon="6.92726">
        <ele>1759.6</ele>
        <time>2022-08-16T12:41:00Z</time>
      </trkpt>
      <trkpt lat="44.39932" lon="6.92723">
        <ele>1759.8</ele>
        <time>2022-08-16T12:41:01Z</time>
      </trkpt>
      <trkpt lat="44.39933" lon="6.9272">
        <ele>1759.8</ele>
        <time>2022-08-16T12:41:02Z</time>
      </trkpt>
      <trkpt lat="44.39934" lon="6.92717">
        <ele>1760</ele>
        <time>2022-08-16T12:41:03Z</time>
      </trkpt>
      <trkpt lat="44.39935" lon="6.92714">
        <ele>1760.2</ele>
        <time>2022-08-16T12:41:04Z</time>
      </trkpt>
      <trkpt lat="44.39936" lon="6.92711">
        <ele>1760.2</ele>
        <time>2022-08-16T12:41:05Z</time>
      </trkpt>
      <trkpt lat="44.39937" lon="6.92708">
        <ele>1760.4</ele>
        <time>2022-08-16T12:41:06Z</time>
      </trkpt>
      <trkpt lat="44.39938" lon="6.92705">
        <ele>1760.4</ele>
        <time>2022-08-16T12:41:07Z</time>
      </trkpt>
      <trkpt lat="44.39939" lon="6.92702">
        <ele>1760.6</ele>
        <time>2022-08-16T12:41:08Z</time>
      </trkpt>
      <trkpt lat="44.3994" lon="6.92699">
        <ele>1760.6</ele>
        <time>2022-08-16T12:41:09Z</time>
      </trkpt>
      <trkpt lat="44.3994" lon="6.92696">
        <ele>1760.6</ele>
        <time>2022-08-16T12:41:10Z</time>
      </trkpt>
      <trkpt lat="44.39941" lon="6.92693">
        <ele>1760.8</ele>
        <time>2022-08-16T12:41:11Z</time>
      </trkpt>
      <trkpt lat="44.39942" lon="6.92689">
        <ele>1760.8</ele>
        <time>2022-08-16T12:41:12Z</time>
      </trkpt>
      <trkpt lat="44.39943" lon="6.92686">
        <ele>1761</ele>
        <time>2022-08-16T12:41:13Z</time>
      </trkpt>
      <trkpt lat="44.39947" lon="6.92674">
        <ele>1761.4</ele>
        <time>2022-08-16T12:41:17Z</time>
      </trkpt>
      <trkpt lat="44.39953" lon="6.92668">
        <ele>1761.6</ele>
        <time>2022-08-16T12:41:20Z</time>
      </trkpt>
      <trkpt lat="44.39955" lon="6.92667">
        <ele>1761.6</ele>
        <time>2022-08-16T12:41:21Z</time>
      </trkpt>
      <trkpt lat="44.39959" lon="6.92669">
        <ele>1761.6</ele>
        <time>2022-08-16T12:41:23Z</time>
      </trkpt>
      <trkpt lat="44.39961" lon="6.9267">
        <ele>1761.8</ele>
        <time>2022-08-16T12:41:24Z</time>
      </trkpt>
      <trkpt lat="44.39963" lon="6.92672">
        <ele>1761.8</ele>
        <time>2022-08-16T12:41:25Z</time>
      </trkpt>
      <trkpt lat="44.39965" lon="6.92675">
        <ele>1761.8</ele>
        <time>2022-08-16T12:41:26Z</time>
      </trkpt>
      <trkpt lat="44.39966" lon="6.92678">
        <ele>1761.8</ele>
        <time>2022-08-16T12:41:27Z</time>
      </trkpt>
      <trkpt lat="44.39966" lon="6.92681">
        <ele>1762</ele>
        <time>2022-08-16T12:41:28Z</time>
      </trkpt>
      <trkpt lat="44.39966" lon="6.92685">
        <ele>1762</ele>
        <time>2022-08-16T12:41:29Z</time>
      </trkpt>
      <trkpt lat="44.39966" lon="6.92688">
        <ele>1762</ele>
        <time>2022-08-16T12:41:30Z</time>
      </trkpt>
      <trkpt lat="44.39965" lon="6.92691">
        <ele>1762.2</ele>
        <time>2022-08-16T12:41:31Z</time>
      </trkpt>
      <trkpt lat="44.39965" lon="6.92695">
        <ele>1762.4</ele>
        <time>2022-08-16T12:41:32Z</time>
      </trkpt>
      <trkpt lat="44.39964" lon="6.92698">
        <ele>1762.4</ele>
        <time>2022-08-16T12:41:33Z</time>
      </trkpt>
      <trkpt lat="44.39963" lon="6.92701">
        <ele>1762.4</ele>
        <time>2022-08-16T12:41:34Z</time>
      </trkpt>
      <trkpt lat="44.39963" lon="6.92704">
        <ele>1762.6</ele>
        <time>2022-08-16T12:41:35Z</time>
      </trkpt>
      <trkpt lat="44.39961" lon="6.92716">
        <ele>1763.4</ele>
        <time>2022-08-16T12:41:39Z</time>
      </trkpt>
      <trkpt lat="44.39961" lon="6.92719">
        <ele>1763.6</ele>
        <time>2022-08-16T12:41:40Z</time>
      </trkpt>
      <trkpt lat="44.3996" lon="6.92722">
        <ele>1763.6</ele>
        <time>2022-08-16T12:41:41Z</time>
      </trkpt>
      <trkpt lat="44.39959" lon="6.92725">
        <ele>1763.8</ele>
        <time>2022-08-16T12:41:42Z</time>
      </trkpt>
      <trkpt lat="44.39958" lon="6.92728">
        <ele>1763.8</ele>
        <time>2022-08-16T12:41:43Z</time>
      </trkpt>
      <trkpt lat="44.39958" lon="6.92731">
        <ele>1764</ele>
        <time>2022-08-16T12:41:44Z</time>
      </trkpt>
      <trkpt lat="44.39957" lon="6.92735">
        <ele>1764</ele>
        <time>2022-08-16T12:41:45Z</time>
      </trkpt>
      <trkpt lat="44.39957" lon="6.92738">
        <ele>1764.2</ele>
        <time>2022-08-16T12:41:46Z</time>
      </trkpt>
      <trkpt lat="44.39957" lon="6.92741">
        <ele>1764.2</ele>
        <time>2022-08-16T12:41:47Z</time>
      </trkpt>
      <trkpt lat="44.39956" lon="6.92744">
        <ele>1764.6</ele>
        <time>2022-08-16T12:41:48Z</time>
      </trkpt>
      <trkpt lat="44.39956" lon="6.92747">
        <ele>1764.8</ele>
        <time>2022-08-16T12:41:49Z</time>
      </trkpt>
      <trkpt lat="44.39956" lon="6.9275">
        <ele>1765</ele>
        <time>2022-08-16T12:41:50Z</time>
      </trkpt>
      <trkpt lat="44.39955" lon="6.92753">
        <ele>1765</ele>
        <time>2022-08-16T12:41:51Z</time>
      </trkpt>
      <trkpt lat="44.39955" lon="6.92756">
        <ele>1765.2</ele>
        <time>2022-08-16T12:41:52Z</time>
      </trkpt>
      <trkpt lat="44.39955" lon="6.92759">
        <ele>1765.6</ele>
        <time>2022-08-16T12:41:53Z</time>
      </trkpt>
      <trkpt lat="44.39955" lon="6.92762">
        <ele>1765.8</ele>
        <time>2022-08-16T12:41:54Z</time>
      </trkpt>
      <trkpt lat="44.39955" lon="6.92765">
        <ele>1765.8</ele>
        <time>2022-08-16T12:41:55Z</time>
      </trkpt>
      <trkpt lat="44.39955" lon="6.92768">
        <ele>1765.8</ele>
        <time>2022-08-16T12:41:56Z</time>
      </trkpt>
      <trkpt lat="44.39955" lon="6.92771">
        <ele>1766</ele>
        <time>2022-08-16T12:41:57Z</time>
      </trkpt>
      <trkpt lat="44.39956" lon="6.92774">
        <ele>1766</ele>
        <time>2022-08-16T12:41:58Z</time>
      </trkpt>
      <trkpt lat="44.39956" lon="6.92777">
        <ele>1766.2</ele>
        <time>2022-08-16T12:41:59Z</time>
      </trkpt>
      <trkpt lat="44.39956" lon="6.9278">
        <ele>1766.4</ele>
        <time>2022-08-16T12:42:00Z</time>
      </trkpt>
      <trkpt lat="44.39956" lon="6.92782">
        <ele>1766.6</ele>
        <time>2022-08-16T12:42:01Z</time>
      </trkpt>
      <trkpt lat="44.39956" lon="6.92785">
        <ele>1766.6</ele>
        <time>2022-08-16T12:42:02Z</time>
      </trkpt>
      <trkpt lat="44.39956" lon="6.92788">
        <ele>1767.2</ele>
        <time>2022-08-16T12:42:03Z</time>
      </trkpt>
      <trkpt lat="44.39957" lon="6.92791">
        <ele>1767.4</ele>
        <time>2022-08-16T12:42:04Z</time>
      </trkpt>
      <trkpt lat="44.39957" lon="6.92794">
        <ele>1767.6</ele>
        <time>2022-08-16T12:42:05Z</time>
      </trkpt>
      <trkpt lat="44.39958" lon="6.92797">
        <ele>1767.8</ele>
        <time>2022-08-16T12:42:06Z</time>
      </trkpt>
      <trkpt lat="44.39958" lon="6.928">
        <ele>1767.8</ele>
        <time>2022-08-16T12:42:07Z</time>
      </trkpt>
      <trkpt lat="44.39958" lon="6.92803">
        <ele>1767.8</ele>
        <time>2022-08-16T12:42:08Z</time>
      </trkpt>
      <trkpt lat="44.39958" lon="6.92806">
        <ele>1768</ele>
        <time>2022-08-16T12:42:09Z</time>
      </trkpt>
      <trkpt lat="44.39959" lon="6.92808">
        <ele>1768.2</ele>
        <time>2022-08-16T12:42:10Z</time>
      </trkpt>
      <trkpt lat="44.39959" lon="6.92811">
        <ele>1768.2</ele>
        <time>2022-08-16T12:42:11Z</time>
      </trkpt>
      <trkpt lat="44.39959" lon="6.92814">
        <ele>1768.2</ele>
        <time>2022-08-16T12:42:12Z</time>
      </trkpt>
      <trkpt lat="44.39959" lon="6.92817">
        <ele>1768.4</ele>
        <time>2022-08-16T12:42:13Z</time>
      </trkpt>
      <trkpt lat="44.3996" lon="6.9282">
        <ele>1768.4</ele>
        <time>2022-08-16T12:42:14Z</time>
      </trkpt>
      <trkpt lat="44.3996" lon="6.92822">
        <ele>1768.6</ele>
        <time>2022-08-16T12:42:15Z</time>
      </trkpt>
      <trkpt lat="44.3996" lon="6.92825">
        <ele>1768.8</ele>
        <time>2022-08-16T12:42:16Z</time>
      </trkpt>
      <trkpt lat="44.39961" lon="6.92828">
        <ele>1768.8</ele>
        <time>2022-08-16T12:42:17Z</time>
      </trkpt>
      <trkpt lat="44.39961" lon="6.92831">
        <ele>1768.8</ele>
        <time>2022-08-16T12:42:18Z</time>
      </trkpt>
      <trkpt lat="44.39961" lon="6.92834">
        <ele>1769</ele>
        <time>2022-08-16T12:42:19Z</time>
      </trkpt>
      <trkpt lat="44.39962" lon="6.92836">
        <ele>1769</ele>
        <time>2022-08-16T12:42:20Z</time>
      </trkpt>
      <trkpt lat="44.39962" lon="6.92839">
        <ele>1769.2</ele>
        <time>2022-08-16T12:42:21Z</time>
      </trkpt>
      <trkpt lat="44.39962" lon="6.92842">
        <ele>1769.2</ele>
        <time>2022-08-16T12:42:22Z</time>
      </trkpt>
      <trkpt lat="44.39963" lon="6.92845">
        <ele>1769.2</ele>
        <time>2022-08-16T12:42:23Z</time>
      </trkpt>
      <trkpt lat="44.39963" lon="6.92848">
        <ele>1769.6</ele>
        <time>2022-08-16T12:42:24Z</time>
      </trkpt>
      <trkpt lat="44.39963" lon="6.9285">
        <ele>1769.4</ele>
        <time>2022-08-16T12:42:25Z</time>
      </trkpt>
      <trkpt lat="44.39964" lon="6.92853">
        <ele>1769.6</ele>
        <time>2022-08-16T12:42:26Z</time>
      </trkpt>
      <trkpt lat="44.39964" lon="6.92856">
        <ele>1769.8</ele>
        <time>2022-08-16T12:42:27Z</time>
      </trkpt>
      <trkpt lat="44.39965" lon="6.92859">
        <ele>1770</ele>
        <time>2022-08-16T12:42:28Z</time>
      </trkpt>
      <trkpt lat="44.39965" lon="6.92861">
        <ele>1770.4</ele>
        <time>2022-08-16T12:42:29Z</time>
      </trkpt>
      <trkpt lat="44.39965" lon="6.92864">
        <ele>1770.4</ele>
        <time>2022-08-16T12:42:30Z</time>
      </trkpt>
      <trkpt lat="44.39965" lon="6.92867">
        <ele>1770.6</ele>
        <time>2022-08-16T12:42:31Z</time>
      </trkpt>
      <trkpt lat="44.39966" lon="6.9287">
        <ele>1770.8</ele>
        <time>2022-08-16T12:42:32Z</time>
      </trkpt>
      <trkpt lat="44.39966" lon="6.92873">
        <ele>1771</ele>
        <time>2022-08-16T12:42:33Z</time>
      </trkpt>
      <trkpt lat="44.39966" lon="6.92876">
        <ele>1771.4</ele>
        <time>2022-08-16T12:42:34Z</time>
      </trkpt>
      <trkpt lat="44.39966" lon="6.92879">
        <ele>1771.4</ele>
        <time>2022-08-16T12:42:35Z</time>
      </trkpt>
      <trkpt lat="44.39966" lon="6.92882">
        <ele>1771.4</ele>
        <time>2022-08-16T12:42:36Z</time>
      </trkpt>
      <trkpt lat="44.39967" lon="6.92884">
        <ele>1771.6</ele>
        <time>2022-08-16T12:42:37Z</time>
      </trkpt>
      <trkpt lat="44.39967" lon="6.92887">
        <ele>1771.8</ele>
        <time>2022-08-16T12:42:38Z</time>
      </trkpt>
      <trkpt lat="44.39968" lon="6.9289">
        <ele>1771.8</ele>
        <time>2022-08-16T12:42:39Z</time>
      </trkpt>
      <trkpt lat="44.39968" lon="6.92893">
        <ele>1772</ele>
        <time>2022-08-16T12:42:40Z</time>
      </trkpt>
      <trkpt lat="44.39968" lon="6.92895">
        <ele>1772.2</ele>
        <time>2022-08-16T12:42:41Z</time>
      </trkpt>
      <trkpt lat="44.39968" lon="6.92898">
        <ele>1772.2</ele>
        <time>2022-08-16T12:42:42Z</time>
      </trkpt>
      <trkpt lat="44.39969" lon="6.92901">
        <ele>1772.2</ele>
        <time>2022-08-16T12:42:43Z</time>
      </trkpt>
      <trkpt lat="44.39969" lon="6.92904">
        <ele>1772.2</ele>
        <time>2022-08-16T12:42:44Z</time>
      </trkpt>
      <trkpt lat="44.3997" lon="6.92906">
        <ele>1772.4</ele>
        <time>2022-08-16T12:42:45Z</time>
      </trkpt>
      <trkpt lat="44.39971" lon="6.92909">
        <ele>1772.4</ele>
        <time>2022-08-16T12:42:46Z</time>
      </trkpt>
      <trkpt lat="44.39972" lon="6.92911">
        <ele>1772.6</ele>
        <time>2022-08-16T12:42:47Z</time>
      </trkpt>
      <trkpt lat="44.39973" lon="6.92914">
        <ele>1772.6</ele>
        <time>2022-08-16T12:42:48Z</time>
      </trkpt>
      <trkpt lat="44.39975" lon="6.92916">
        <ele>1772.8</ele>
        <time>2022-08-16T12:42:49Z</time>
      </trkpt>
      <trkpt lat="44.39976" lon="6.92918">
        <ele>1772.8</ele>
        <time>2022-08-16T12:42:50Z</time>
      </trkpt>
      <trkpt lat="44.39978" lon="6.9292">
        <ele>1773</ele>
        <time>2022-08-16T12:42:51Z</time>
      </trkpt>
      <trkpt lat="44.39979" lon="6.92921">
        <ele>1773</ele>
        <time>2022-08-16T12:42:52Z</time>
      </trkpt>
      <trkpt lat="44.39981" lon="6.92923">
        <ele>1773.2</ele>
        <time>2022-08-16T12:42:53Z</time>
      </trkpt>
      <trkpt lat="44.39983" lon="6.92924">
        <ele>1773.4</ele>
        <time>2022-08-16T12:42:54Z</time>
      </trkpt>
      <trkpt lat="44.39985" lon="6.92924">
        <ele>1773.4</ele>
        <time>2022-08-16T12:42:55Z</time>
      </trkpt>
      <trkpt lat="44.39988" lon="6.92924">
        <ele>1773.6</ele>
        <time>2022-08-16T12:42:56Z</time>
      </trkpt>
      <trkpt lat="44.3999" lon="6.92924">
        <ele>1773.6</ele>
        <time>2022-08-16T12:42:57Z</time>
      </trkpt>
      <trkpt lat="44.39992" lon="6.92923">
        <ele>1773.8</ele>
        <time>2022-08-16T12:42:58Z</time>
      </trkpt>
      <trkpt lat="44.39994" lon="6.92921">
        <ele>1774</ele>
        <time>2022-08-16T12:42:59Z</time>
      </trkpt>
      <trkpt lat="44.39996" lon="6.92919">
        <ele>1774</ele>
        <time>2022-08-16T12:43:00Z</time>
      </trkpt>
      <trkpt lat="44.39998" lon="6.92917">
        <ele>1774.2</ele>
        <time>2022-08-16T12:43:01Z</time>
      </trkpt>
      <trkpt lat="44.39999" lon="6.92914">
        <ele>1774.2</ele>
        <time>2022-08-16T12:43:02Z</time>
      </trkpt>
      <trkpt lat="44.4" lon="6.92911">
        <ele>1774.4</ele>
        <time>2022-08-16T12:43:03Z</time>
      </trkpt>
      <trkpt lat="44.40001" lon="6.92908">
        <ele>1774.8</ele>
        <time>2022-08-16T12:43:04Z</time>
      </trkpt>
      <trkpt lat="44.40002" lon="6.92905">
        <ele>1774.8</ele>
        <time>2022-08-16T12:43:05Z</time>
      </trkpt>
      <trkpt lat="44.40002" lon="6.92902">
        <ele>1775</ele>
        <time>2022-08-16T12:43:06Z</time>
      </trkpt>
      <trkpt lat="44.40003" lon="6.92898">
        <ele>1775</ele>
        <time>2022-08-16T12:43:07Z</time>
      </trkpt>
      <trkpt lat="44.40003" lon="6.92895">
        <ele>1775.2</ele>
        <time>2022-08-16T12:43:08Z</time>
      </trkpt>
      <trkpt lat="44.40002" lon="6.92891">
        <ele>1775.2</ele>
        <time>2022-08-16T12:43:09Z</time>
      </trkpt>
      <trkpt lat="44.40003" lon="6.92875">
        <ele>1775.4</ele>
        <time>2022-08-16T12:43:13Z</time>
      </trkpt>
      <trkpt lat="44.40003" lon="6.92872">
        <ele>1775.4</ele>
        <time>2022-08-16T12:43:14Z</time>
      </trkpt>
      <trkpt lat="44.40003" lon="6.92868">
        <ele>1775.6</ele>
        <time>2022-08-16T12:43:15Z</time>
      </trkpt>
      <trkpt lat="44.40003" lon="6.92865">
        <ele>1775.6</ele>
        <time>2022-08-16T12:43:16Z</time>
      </trkpt>
      <trkpt lat="44.40002" lon="6.92862">
        <ele>1775.6</ele>
        <time>2022-08-16T12:43:17Z</time>
      </trkpt>
      <trkpt lat="44.40002" lon="6.92858">
        <ele>1775.6</ele>
        <time>2022-08-16T12:43:18Z</time>
      </trkpt>
      <trkpt lat="44.40003" lon="6.92855">
        <ele>1775.4</ele>
        <time>2022-08-16T12:43:19Z</time>
      </trkpt>
      <trkpt lat="44.40003" lon="6.92849">
        <ele>1775.6</ele>
        <time>2022-08-16T12:43:21Z</time>
      </trkpt>
      <trkpt lat="44.40003" lon="6.92845">
        <ele>1775.6</ele>
        <time>2022-08-16T12:43:22Z</time>
      </trkpt>
      <trkpt lat="44.40003" lon="6.92842">
        <ele>1775.6</ele>
        <time>2022-08-16T12:43:23Z</time>
      </trkpt>
      <trkpt lat="44.40003" lon="6.92839">
        <ele>1775.6</ele>
        <time>2022-08-16T12:43:24Z</time>
      </trkpt>
      <trkpt lat="44.40003" lon="6.92833">
        <ele>1776</ele>
        <time>2022-08-16T12:43:26Z</time>
      </trkpt>
      <trkpt lat="44.40003" lon="6.92829">
        <ele>1776.2</ele>
        <time>2022-08-16T12:43:27Z</time>
      </trkpt>
      <trkpt lat="44.40003" lon="6.92826">
        <ele>1776.6</ele>
        <time>2022-08-16T12:43:28Z</time>
      </trkpt>
      <trkpt lat="44.40004" lon="6.92823">
        <ele>1776.6</ele>
        <time>2022-08-16T12:43:29Z</time>
      </trkpt>
      <trkpt lat="44.40004" lon="6.9282">
        <ele>1776.8</ele>
        <time>2022-08-16T12:43:30Z</time>
      </trkpt>
      <trkpt lat="44.40004" lon="6.92817">
        <ele>1777.2</ele>
        <time>2022-08-16T12:43:31Z</time>
      </trkpt>
      <trkpt lat="44.40004" lon="6.92814">
        <ele>1777.2</ele>
        <time>2022-08-16T12:43:32Z</time>
      </trkpt>
      <trkpt lat="44.40005" lon="6.92811">
        <ele>1777.4</ele>
        <time>2022-08-16T12:43:33Z</time>
      </trkpt>
      <trkpt lat="44.40005" lon="6.92807">
        <ele>1777.6</ele>
        <time>2022-08-16T12:43:34Z</time>
      </trkpt>
      <trkpt lat="44.40006" lon="6.92804">
        <ele>1777.6</ele>
        <time>2022-08-16T12:43:35Z</time>
      </trkpt>
      <trkpt lat="44.40007" lon="6.92802">
        <ele>1778</ele>
        <time>2022-08-16T12:43:36Z</time>
      </trkpt>
      <trkpt lat="44.40007" lon="6.92799">
        <ele>1778</ele>
        <time>2022-08-16T12:43:37Z</time>
      </trkpt>
      <trkpt lat="44.40008" lon="6.92796">
        <ele>1778.2</ele>
        <time>2022-08-16T12:43:38Z</time>
      </trkpt>
      <trkpt lat="44.40009" lon="6.92793">
        <ele>1778.6</ele>
        <time>2022-08-16T12:43:39Z</time>
      </trkpt>
      <trkpt lat="44.4001" lon="6.9279">
        <ele>1778.8</ele>
        <time>2022-08-16T12:43:40Z</time>
      </trkpt>
      <trkpt lat="44.40011" lon="6.92787">
        <ele>1779</ele>
        <time>2022-08-16T12:43:41Z</time>
      </trkpt>
      <trkpt lat="44.40011" lon="6.92784">
        <ele>1779.2</ele>
        <time>2022-08-16T12:43:42Z</time>
      </trkpt>
      <trkpt lat="44.40012" lon="6.92781">
        <ele>1779.4</ele>
        <time>2022-08-16T12:43:43Z</time>
      </trkpt>
      <trkpt lat="44.40013" lon="6.92778">
        <ele>1779.4</ele>
        <time>2022-08-16T12:43:44Z</time>
      </trkpt>
      <trkpt lat="44.40014" lon="6.92775">
        <ele>1779.6</ele>
        <time>2022-08-16T12:43:45Z</time>
      </trkpt>
      <trkpt lat="44.40015" lon="6.92773">
        <ele>1779.6</ele>
        <time>2022-08-16T12:43:46Z</time>
      </trkpt>
      <trkpt lat="44.40016" lon="6.9277">
        <ele>1779.8</ele>
        <time>2022-08-16T12:43:47Z</time>
      </trkpt>
      <trkpt lat="44.40016" lon="6.92767">
        <ele>1780</ele>
        <time>2022-08-16T12:43:48Z</time>
      </trkpt>
      <trkpt lat="44.40017" lon="6.92764">
        <ele>1780.2</ele>
        <time>2022-08-16T12:43:49Z</time>
      </trkpt>
      <trkpt lat="44.40018" lon="6.92761">
        <ele>1780.4</ele>
        <time>2022-08-16T12:43:50Z</time>
      </trkpt>
      <trkpt lat="44.40019" lon="6.92758">
        <ele>1780.8</ele>
        <time>2022-08-16T12:43:51Z</time>
      </trkpt>
      <trkpt lat="44.4002" lon="6.92755">
        <ele>1781</ele>
        <time>2022-08-16T12:43:52Z</time>
      </trkpt>
      <trkpt lat="44.40021" lon="6.92752">
        <ele>1781</ele>
        <time>2022-08-16T12:43:53Z</time>
      </trkpt>
      <trkpt lat="44.40022" lon="6.9275">
        <ele>1781.2</ele>
        <time>2022-08-16T12:43:54Z</time>
      </trkpt>
      <trkpt lat="44.40023" lon="6.92747">
        <ele>1781.6</ele>
        <time>2022-08-16T12:43:55Z</time>
      </trkpt>
      <trkpt lat="44.40023" lon="6.92744">
        <ele>1781.6</ele>
        <time>2022-08-16T12:43:56Z</time>
      </trkpt>
      <trkpt lat="44.40024" lon="6.92741">
        <ele>1782</ele>
        <time>2022-08-16T12:43:57Z</time>
      </trkpt>
      <trkpt lat="44.40025" lon="6.92738">
        <ele>1782.2</ele>
        <time>2022-08-16T12:43:58Z</time>
      </trkpt>
      <trkpt lat="44.40026" lon="6.92735">
        <ele>1782.4</ele>
        <time>2022-08-16T12:43:59Z</time>
      </trkpt>
      <trkpt lat="44.40027" lon="6.92733">
        <ele>1782.6</ele>
        <time>2022-08-16T12:44:00Z</time>
      </trkpt>
      <trkpt lat="44.40027" lon="6.9273">
        <ele>1782.6</ele>
        <time>2022-08-16T12:44:01Z</time>
      </trkpt>
      <trkpt lat="44.40028" lon="6.92727">
        <ele>1782.6</ele>
        <time>2022-08-16T12:44:02Z</time>
      </trkpt>
      <trkpt lat="44.40029" lon="6.92724">
        <ele>1782.6</ele>
        <time>2022-08-16T12:44:03Z</time>
      </trkpt>
      <trkpt lat="44.4003" lon="6.92721">
        <ele>1783</ele>
        <time>2022-08-16T12:44:04Z</time>
      </trkpt>
      <trkpt lat="44.40031" lon="6.92718">
        <ele>1783</ele>
        <time>2022-08-16T12:44:05Z</time>
      </trkpt>
      <trkpt lat="44.40032" lon="6.92715">
        <ele>1783</ele>
        <time>2022-08-16T12:44:06Z</time>
      </trkpt>
      <trkpt lat="44.40033" lon="6.92712">
        <ele>1783</ele>
        <time>2022-08-16T12:44:07Z</time>
      </trkpt>
      <trkpt lat="44.40034" lon="6.9271">
        <ele>1783</ele>
        <time>2022-08-16T12:44:08Z</time>
      </trkpt>
      <trkpt lat="44.40036" lon="6.92707">
        <ele>1783</ele>
        <time>2022-08-16T12:44:09Z</time>
      </trkpt>
      <trkpt lat="44.40037" lon="6.92705">
        <ele>1783.4</ele>
        <time>2022-08-16T12:44:10Z</time>
      </trkpt>
      <trkpt lat="44.40039" lon="6.92703">
        <ele>1783.4</ele>
        <time>2022-08-16T12:44:11Z</time>
      </trkpt>
      <trkpt lat="44.40041" lon="6.92702">
        <ele>1783.8</ele>
        <time>2022-08-16T12:44:12Z</time>
      </trkpt>
      <trkpt lat="44.40043" lon="6.92702">
        <ele>1783.8</ele>
        <time>2022-08-16T12:44:13Z</time>
      </trkpt>
      <trkpt lat="44.40045" lon="6.92703">
        <ele>1784.2</ele>
        <time>2022-08-16T12:44:14Z</time>
      </trkpt>
      <trkpt lat="44.40047" lon="6.92704">
        <ele>1784.2</ele>
        <time>2022-08-16T12:44:15Z</time>
      </trkpt>
      <trkpt lat="44.40049" lon="6.92705">
        <ele>1784.4</ele>
        <time>2022-08-16T12:44:16Z</time>
      </trkpt>
      <trkpt lat="44.4005" lon="6.92708">
        <ele>1784.6</ele>
        <time>2022-08-16T12:44:17Z</time>
      </trkpt>
      <trkpt lat="44.40052" lon="6.9271">
        <ele>1784.8</ele>
        <time>2022-08-16T12:44:18Z</time>
      </trkpt>
      <trkpt lat="44.40052" lon="6.92714">
        <ele>1785</ele>
        <time>2022-08-16T12:44:19Z</time>
      </trkpt>
      <trkpt lat="44.40053" lon="6.92717">
        <ele>1785</ele>
        <time>2022-08-16T12:44:20Z</time>
      </trkpt>
      <trkpt lat="44.40052" lon="6.9272">
        <ele>1785</ele>
        <time>2022-08-16T12:44:21Z</time>
      </trkpt>
      <trkpt lat="44.40052" lon="6.92723">
        <ele>1785.2</ele>
        <time>2022-08-16T12:44:22Z</time>
      </trkpt>
      <trkpt lat="44.40052" lon="6.92726">
        <ele>1785.2</ele>
        <time>2022-08-16T12:44:23Z</time>
      </trkpt>
      <trkpt lat="44.40052" lon="6.92729">
        <ele>1785.4</ele>
        <time>2022-08-16T12:44:24Z</time>
      </trkpt>
      <trkpt lat="44.40052" lon="6.92732">
        <ele>1785.4</ele>
        <time>2022-08-16T12:44:25Z</time>
      </trkpt>
      <trkpt lat="44.40052" lon="6.92735">
        <ele>1785.4</ele>
        <time>2022-08-16T12:44:26Z</time>
      </trkpt>
      <trkpt lat="44.40052" lon="6.92738">
        <ele>1785.4</ele>
        <time>2022-08-16T12:44:27Z</time>
      </trkpt>
      <trkpt lat="44.40051" lon="6.92741">
        <ele>1785.4</ele>
        <time>2022-08-16T12:44:28Z</time>
      </trkpt>
      <trkpt lat="44.4005" lon="6.92749">
        <ele>1785.6</ele>
        <time>2022-08-16T12:44:31Z</time>
      </trkpt>
      <trkpt lat="44.40049" lon="6.92758">
        <ele>1786</ele>
        <time>2022-08-16T12:44:34Z</time>
      </trkpt>
      <trkpt lat="44.40049" lon="6.92761">
        <ele>1786.2</ele>
        <time>2022-08-16T12:44:35Z</time>
      </trkpt>
      <trkpt lat="44.40049" lon="6.92763">
        <ele>1786.2</ele>
        <time>2022-08-16T12:44:36Z</time>
      </trkpt>
      <trkpt lat="44.40048" lon="6.92766">
        <ele>1786.4</ele>
        <time>2022-08-16T12:44:37Z</time>
      </trkpt>
      <trkpt lat="44.40048" lon="6.92772">
        <ele>1786.4</ele>
        <time>2022-08-16T12:44:39Z</time>
      </trkpt>
      <trkpt lat="44.40047" lon="6.92775">
        <ele>1786.4</ele>
        <time>2022-08-16T12:44:40Z</time>
      </trkpt>
      <trkpt lat="44.40047" lon="6.92777">
        <ele>1786.6</ele>
        <time>2022-08-16T12:44:41Z</time>
      </trkpt>
      <trkpt lat="44.40047" lon="6.9278">
        <ele>1786.8</ele>
        <time>2022-08-16T12:44:42Z</time>
      </trkpt>
      <trkpt lat="44.40047" lon="6.92783">
        <ele>1787.2</ele>
        <time>2022-08-16T12:44:43Z</time>
      </trkpt>
      <trkpt lat="44.40047" lon="6.92786">
        <ele>1787.4</ele>
        <time>2022-08-16T12:44:44Z</time>
      </trkpt>
      <trkpt lat="44.40046" lon="6.92788">
        <ele>1787.6</ele>
        <time>2022-08-16T12:44:45Z</time>
      </trkpt>
      <trkpt lat="44.40046" lon="6.92791">
        <ele>1787.6</ele>
        <time>2022-08-16T12:44:46Z</time>
      </trkpt>
      <trkpt lat="44.40046" lon="6.92794">
        <ele>1787.8</ele>
        <time>2022-08-16T12:44:47Z</time>
      </trkpt>
      <trkpt lat="44.40045" lon="6.92797">
        <ele>1788</ele>
        <time>2022-08-16T12:44:48Z</time>
      </trkpt>
      <trkpt lat="44.40045" lon="6.928">
        <ele>1788</ele>
        <time>2022-08-16T12:44:49Z</time>
      </trkpt>
      <trkpt lat="44.40045" lon="6.92803">
        <ele>1788.4</ele>
        <time>2022-08-16T12:44:50Z</time>
      </trkpt>
      <trkpt lat="44.40045" lon="6.92805">
        <ele>1789</ele>
        <time>2022-08-16T12:44:51Z</time>
      </trkpt>
      <trkpt lat="44.40044" lon="6.92808">
        <ele>1789</ele>
        <time>2022-08-16T12:44:52Z</time>
      </trkpt>
      <trkpt lat="44.40044" lon="6.92811">
        <ele>1789</ele>
        <time>2022-08-16T12:44:53Z</time>
      </trkpt>
      <trkpt lat="44.40044" lon="6.92814">
        <ele>1789.4</ele>
        <time>2022-08-16T12:44:54Z</time>
      </trkpt>
      <trkpt lat="44.40043" lon="6.92817">
        <ele>1789.4</ele>
        <time>2022-08-16T12:44:55Z</time>
      </trkpt>
      <trkpt lat="44.40043" lon="6.9282">
        <ele>1789.8</ele>
        <time>2022-08-16T12:44:56Z</time>
      </trkpt>
      <trkpt lat="44.40043" lon="6.92823">
        <ele>1789.8</ele>
        <time>2022-08-16T12:44:57Z</time>
      </trkpt>
      <trkpt lat="44.40042" lon="6.92825">
        <ele>1789.8</ele>
        <time>2022-08-16T12:44:58Z</time>
      </trkpt>
      <trkpt lat="44.40042" lon="6.92828">
        <ele>1790.2</ele>
        <time>2022-08-16T12:44:59Z</time>
      </trkpt>
      <trkpt lat="44.40042" lon="6.92831">
        <ele>1790.2</ele>
        <time>2022-08-16T12:45:00Z</time>
      </trkpt>
      <trkpt lat="44.40042" lon="6.92834">
        <ele>1790.4</ele>
        <time>2022-08-16T12:45:01Z</time>
      </trkpt>
      <trkpt lat="44.40041" lon="6.92837">
        <ele>1790.6</ele>
        <time>2022-08-16T12:45:02Z</time>
      </trkpt>
      <trkpt lat="44.40041" lon="6.9284">
        <ele>1790.8</ele>
        <time>2022-08-16T12:45:03Z</time>
      </trkpt>
      <trkpt lat="44.40041" lon="6.92843">
        <ele>1791.2</ele>
        <time>2022-08-16T12:45:04Z</time>
      </trkpt>
      <trkpt lat="44.4004" lon="6.92846">
        <ele>1791.2</ele>
        <time>2022-08-16T12:45:05Z</time>
      </trkpt>
      <trkpt lat="44.4004" lon="6.92849">
        <ele>1791.6</ele>
        <time>2022-08-16T12:45:06Z</time>
      </trkpt>
      <trkpt lat="44.4004" lon="6.92852">
        <ele>1791.6</ele>
        <time>2022-08-16T12:45:07Z</time>
      </trkpt>
      <trkpt lat="44.4004" lon="6.92855">
        <ele>1791.8</ele>
        <time>2022-08-16T12:45:08Z</time>
      </trkpt>
      <trkpt lat="44.4004" lon="6.92858">
        <ele>1791.8</ele>
        <time>2022-08-16T12:45:09Z</time>
      </trkpt>
      <trkpt lat="44.4004" lon="6.9286">
        <ele>1792.2</ele>
        <time>2022-08-16T12:45:10Z</time>
      </trkpt>
      <trkpt lat="44.4004" lon="6.92863">
        <ele>1792</ele>
        <time>2022-08-16T12:45:11Z</time>
      </trkpt>
      <trkpt lat="44.40041" lon="6.92866">
        <ele>1792.2</ele>
        <time>2022-08-16T12:45:12Z</time>
      </trkpt>
      <trkpt lat="44.40042" lon="6.92869">
        <ele>1792.4</ele>
        <time>2022-08-16T12:45:13Z</time>
      </trkpt>
      <trkpt lat="44.40043" lon="6.92871">
        <ele>1792.4</ele>
        <time>2022-08-16T12:45:14Z</time>
      </trkpt>
      <trkpt lat="44.40044" lon="6.92874">
        <ele>1792.4</ele>
        <time>2022-08-16T12:45:15Z</time>
      </trkpt>
      <trkpt lat="44.40046" lon="6.92876">
        <ele>1792.6</ele>
        <time>2022-08-16T12:45:16Z</time>
      </trkpt>
      <trkpt lat="44.40048" lon="6.92878">
        <ele>1792.4</ele>
        <time>2022-08-16T12:45:17Z</time>
      </trkpt>
      <trkpt lat="44.4005" lon="6.92879">
        <ele>1792.8</ele>
        <time>2022-08-16T12:45:18Z</time>
      </trkpt>
      <trkpt lat="44.40052" lon="6.9288">
        <ele>1792.8</ele>
        <time>2022-08-16T12:45:19Z</time>
      </trkpt>
      <trkpt lat="44.40054" lon="6.92881">
        <ele>1792.8</ele>
        <time>2022-08-16T12:45:20Z</time>
      </trkpt>
      <trkpt lat="44.40056" lon="6.92881">
        <ele>1793</ele>
        <time>2022-08-16T12:45:21Z</time>
      </trkpt>
      <trkpt lat="44.40058" lon="6.9288">
        <ele>1793.2</ele>
        <time>2022-08-16T12:45:22Z</time>
      </trkpt>
      <trkpt lat="44.4006" lon="6.92879">
        <ele>1793.2</ele>
        <time>2022-08-16T12:45:23Z</time>
      </trkpt>
      <trkpt lat="44.40062" lon="6.92877">
        <ele>1793.2</ele>
        <time>2022-08-16T12:45:24Z</time>
      </trkpt>
      <trkpt lat="44.40064" lon="6.92875">
        <ele>1793.6</ele>
        <time>2022-08-16T12:45:25Z</time>
      </trkpt>
      <trkpt lat="44.40066" lon="6.92872">
        <ele>1793.6</ele>
        <time>2022-08-16T12:45:26Z</time>
      </trkpt>
      <trkpt lat="44.40067" lon="6.92869">
        <ele>1793.6</ele>
        <time>2022-08-16T12:45:27Z</time>
      </trkpt>
      <trkpt lat="44.40068" lon="6.92866">
        <ele>1793.6</ele>
        <time>2022-08-16T12:45:28Z</time>
      </trkpt>
      <trkpt lat="44.40069" lon="6.92863">
        <ele>1793.8</ele>
        <time>2022-08-16T12:45:29Z</time>
      </trkpt>
      <trkpt lat="44.4007" lon="6.9286">
        <ele>1793.6</ele>
        <time>2022-08-16T12:45:30Z</time>
      </trkpt>
      <trkpt lat="44.40071" lon="6.92857">
        <ele>1793.8</ele>
        <time>2022-08-16T12:45:31Z</time>
      </trkpt>
      <trkpt lat="44.40071" lon="6.92854">
        <ele>1794</ele>
        <time>2022-08-16T12:45:32Z</time>
      </trkpt>
      <trkpt lat="44.40072" lon="6.92845">
        <ele>1794.2</ele>
        <time>2022-08-16T12:45:35Z</time>
      </trkpt>
      <trkpt lat="44.40074" lon="6.92825">
        <ele>1794.4</ele>
        <time>2022-08-16T12:45:41Z</time>
      </trkpt>
      <trkpt lat="44.40075" lon="6.92821">
        <ele>1794.4</ele>
        <time>2022-08-16T12:45:42Z</time>
      </trkpt>
      <trkpt lat="44.40075" lon="6.92818">
        <ele>1794.4</ele>
        <time>2022-08-16T12:45:43Z</time>
      </trkpt>
      <trkpt lat="44.40075" lon="6.92815">
        <ele>1794.4</ele>
        <time>2022-08-16T12:45:44Z</time>
      </trkpt>
      <trkpt lat="44.40075" lon="6.92812">
        <ele>1794.6</ele>
        <time>2022-08-16T12:45:45Z</time>
      </trkpt>
      <trkpt lat="44.40077" lon="6.92798">
        <ele>1794.8</ele>
        <time>2022-08-16T12:45:49Z</time>
      </trkpt>
      <trkpt lat="44.40078" lon="6.92795">
        <ele>1795.2</ele>
        <time>2022-08-16T12:45:50Z</time>
      </trkpt>
      <trkpt lat="44.40078" lon="6.92792">
        <ele>1795.4</ele>
        <time>2022-08-16T12:45:51Z</time>
      </trkpt>
      <trkpt lat="44.40078" lon="6.92788">
        <ele>1795.6</ele>
        <time>2022-08-16T12:45:52Z</time>
      </trkpt>
      <trkpt lat="44.40079" lon="6.92785">
        <ele>1796</ele>
        <time>2022-08-16T12:45:53Z</time>
      </trkpt>
      <trkpt lat="44.40079" lon="6.92781">
        <ele>1796.2</ele>
        <time>2022-08-16T12:45:54Z</time>
      </trkpt>
      <trkpt lat="44.40079" lon="6.92778">
        <ele>1796.4</ele>
        <time>2022-08-16T12:45:55Z</time>
      </trkpt>
      <trkpt lat="44.4008" lon="6.92775">
        <ele>1796.8</ele>
        <time>2022-08-16T12:45:56Z</time>
      </trkpt>
      <trkpt lat="44.4008" lon="6.92771">
        <ele>1796.8</ele>
        <time>2022-08-16T12:45:57Z</time>
      </trkpt>
      <trkpt lat="44.4008" lon="6.92768">
        <ele>1797</ele>
        <time>2022-08-16T12:45:58Z</time>
      </trkpt>
      <trkpt lat="44.4008" lon="6.92765">
        <ele>1797</ele>
        <time>2022-08-16T12:45:59Z</time>
      </trkpt>
      <trkpt lat="44.40081" lon="6.92762">
        <ele>1797</ele>
        <time>2022-08-16T12:46:00Z</time>
      </trkpt>
      <trkpt lat="44.40081" lon="6.92758">
        <ele>1797.2</ele>
        <time>2022-08-16T12:46:01Z</time>
      </trkpt>
      <trkpt lat="44.40081" lon="6.92755">
        <ele>1797.4</ele>
        <time>2022-08-16T12:46:02Z</time>
      </trkpt>
      <trkpt lat="44.40082" lon="6.92752">
        <ele>1797.4</ele>
        <time>2022-08-16T12:46:03Z</time>
      </trkpt>
      <trkpt lat="44.40082" lon="6.92748">
        <ele>1797.6</ele>
        <time>2022-08-16T12:46:04Z</time>
      </trkpt>
      <trkpt lat="44.40082" lon="6.92745">
        <ele>1797.8</ele>
        <time>2022-08-16T12:46:05Z</time>
      </trkpt>
      <trkpt lat="44.40083" lon="6.92742">
        <ele>1798</ele>
        <time>2022-08-16T12:46:06Z</time>
      </trkpt>
      <trkpt lat="44.40083" lon="6.92738">
        <ele>1798.2</ele>
        <time>2022-08-16T12:46:07Z</time>
      </trkpt>
      <trkpt lat="44.40083" lon="6.92735">
        <ele>1798.6</ele>
        <time>2022-08-16T12:46:08Z</time>
      </trkpt>
      <trkpt lat="44.40083" lon="6.92732">
        <ele>1798.8</ele>
        <time>2022-08-16T12:46:09Z</time>
      </trkpt>
      <trkpt lat="44.40084" lon="6.92728">
        <ele>1798.6</ele>
        <time>2022-08-16T12:46:10Z</time>
      </trkpt>
      <trkpt lat="44.40084" lon="6.92725">
        <ele>1799</ele>
        <time>2022-08-16T12:46:11Z</time>
      </trkpt>
      <trkpt lat="44.40084" lon="6.92722">
        <ele>1799</ele>
        <time>2022-08-16T12:46:12Z</time>
      </trkpt>
      <trkpt lat="44.40084" lon="6.92719">
        <ele>1799.2</ele>
        <time>2022-08-16T12:46:13Z</time>
      </trkpt>
      <trkpt lat="44.40085" lon="6.92716">
        <ele>1799.4</ele>
        <time>2022-08-16T12:46:14Z</time>
      </trkpt>
      <trkpt lat="44.40085" lon="6.92712">
        <ele>1799.4</ele>
        <time>2022-08-16T12:46:15Z</time>
      </trkpt>
      <trkpt lat="44.40085" lon="6.92709">
        <ele>1799.6</ele>
        <time>2022-08-16T12:46:16Z</time>
      </trkpt>
      <trkpt lat="44.40086" lon="6.92706">
        <ele>1799.6</ele>
        <time>2022-08-16T12:46:17Z</time>
      </trkpt>
      <trkpt lat="44.40086" lon="6.92703">
        <ele>1799.8</ele>
        <time>2022-08-16T12:46:18Z</time>
      </trkpt>
      <trkpt lat="44.40086" lon="6.927">
        <ele>1800</ele>
        <time>2022-08-16T12:46:19Z</time>
      </trkpt>
      <trkpt lat="44.40086" lon="6.92697">
        <ele>1800.2</ele>
        <time>2022-08-16T12:46:20Z</time>
      </trkpt>
      <trkpt lat="44.40086" lon="6.92693">
        <ele>1800.6</ele>
        <time>2022-08-16T12:46:21Z</time>
      </trkpt>
      <trkpt lat="44.40087" lon="6.9269">
        <ele>1800.6</ele>
        <time>2022-08-16T12:46:22Z</time>
      </trkpt>
      <trkpt lat="44.40087" lon="6.92687">
        <ele>1800.6</ele>
        <time>2022-08-16T12:46:23Z</time>
      </trkpt>
      <trkpt lat="44.40087" lon="6.92684">
        <ele>1800.6</ele>
        <time>2022-08-16T12:46:24Z</time>
      </trkpt>
      <trkpt lat="44.40087" lon="6.92681">
        <ele>1800.8</ele>
        <time>2022-08-16T12:46:25Z</time>
      </trkpt>
      <trkpt lat="44.40087" lon="6.92678">
        <ele>1800.8</ele>
        <time>2022-08-16T12:46:26Z</time>
      </trkpt>
      <trkpt lat="44.40088" lon="6.92675">
        <ele>1801.2</ele>
        <time>2022-08-16T12:46:27Z</time>
      </trkpt>
      <trkpt lat="44.40088" lon="6.92673">
        <ele>1801.4</ele>
        <time>2022-08-16T12:46:28Z</time>
      </trkpt>
      <trkpt lat="44.40088" lon="6.9267">
        <ele>1801.4</ele>
        <time>2022-08-16T12:46:29Z</time>
      </trkpt>
      <trkpt lat="44.40088" lon="6.92667">
        <ele>1801.6</ele>
        <time>2022-08-16T12:46:30Z</time>
      </trkpt>
      <trkpt lat="44.40088" lon="6.92664">
        <ele>1801.6</ele>
        <time>2022-08-16T12:46:31Z</time>
      </trkpt>
      <trkpt lat="44.40088" lon="6.92661">
        <ele>1802</ele>
        <time>2022-08-16T12:46:32Z</time>
      </trkpt>
      <trkpt lat="44.40087" lon="6.92658">
        <ele>1802</ele>
        <time>2022-08-16T12:46:33Z</time>
      </trkpt>
      <trkpt lat="44.40087" lon="6.92655">
        <ele>1802.2</ele>
        <time>2022-08-16T12:46:34Z</time>
      </trkpt>
      <trkpt lat="44.40087" lon="6.92652">
        <ele>1802.4</ele>
        <time>2022-08-16T12:46:35Z</time>
      </trkpt>
      <trkpt lat="44.40087" lon="6.92649">
        <ele>1802.6</ele>
        <time>2022-08-16T12:46:36Z</time>
      </trkpt>
      <trkpt lat="44.40087" lon="6.92646">
        <ele>1802.8</ele>
        <time>2022-08-16T12:46:37Z</time>
      </trkpt>
      <trkpt lat="44.40087" lon="6.92643">
        <ele>1802.8</ele>
        <time>2022-08-16T12:46:38Z</time>
      </trkpt>
      <trkpt lat="44.40087" lon="6.9264">
        <ele>1803.2</ele>
        <time>2022-08-16T12:46:39Z</time>
      </trkpt>
      <trkpt lat="44.40087" lon="6.92638">
        <ele>1803.4</ele>
        <time>2022-08-16T12:46:40Z</time>
      </trkpt>
      <trkpt lat="44.40087" lon="6.92635">
        <ele>1803.6</ele>
        <time>2022-08-16T12:46:41Z</time>
      </trkpt>
      <trkpt lat="44.40086" lon="6.92632">
        <ele>1803.6</ele>
        <time>2022-08-16T12:46:42Z</time>
      </trkpt>
      <trkpt lat="44.40086" lon="6.92629">
        <ele>1804</ele>
        <time>2022-08-16T12:46:43Z</time>
      </trkpt>
      <trkpt lat="44.40086" lon="6.92626">
        <ele>1804</ele>
        <time>2022-08-16T12:46:44Z</time>
      </trkpt>
      <trkpt lat="44.40086" lon="6.92623">
        <ele>1804.2</ele>
        <time>2022-08-16T12:46:45Z</time>
      </trkpt>
      <trkpt lat="44.40085" lon="6.92621">
        <ele>1804.2</ele>
        <time>2022-08-16T12:46:46Z</time>
      </trkpt>
      <trkpt lat="44.40085" lon="6.92618">
        <ele>1804.6</ele>
        <time>2022-08-16T12:46:47Z</time>
      </trkpt>
      <trkpt lat="44.40085" lon="6.92615">
        <ele>1804.6</ele>
        <time>2022-08-16T12:46:48Z</time>
      </trkpt>
      <trkpt lat="44.40085" lon="6.92612">
        <ele>1805</ele>
        <time>2022-08-16T12:46:49Z</time>
      </trkpt>
      <trkpt lat="44.40085" lon="6.92609">
        <ele>1805</ele>
        <time>2022-08-16T12:46:50Z</time>
      </trkpt>
      <trkpt lat="44.40084" lon="6.92607">
        <ele>1805</ele>
        <time>2022-08-16T12:46:51Z</time>
      </trkpt>
      <trkpt lat="44.40084" lon="6.92604">
        <ele>1805.2</ele>
        <time>2022-08-16T12:46:52Z</time>
      </trkpt>
      <trkpt lat="44.40084" lon="6.92601">
        <ele>1805.4</ele>
        <time>2022-08-16T12:46:53Z</time>
      </trkpt>
      <trkpt lat="44.40084" lon="6.92598">
        <ele>1805.6</ele>
        <time>2022-08-16T12:46:54Z</time>
      </trkpt>
      <trkpt lat="44.40083" lon="6.92596">
        <ele>1805.6</ele>
        <time>2022-08-16T12:46:55Z</time>
      </trkpt>
      <trkpt lat="44.40083" lon="6.92593">
        <ele>1806</ele>
        <time>2022-08-16T12:46:56Z</time>
      </trkpt>
      <trkpt lat="44.40083" lon="6.9259">
        <ele>1806</ele>
        <time>2022-08-16T12:46:57Z</time>
      </trkpt>
      <trkpt lat="44.40083" lon="6.92587">
        <ele>1806.4</ele>
        <time>2022-08-16T12:46:58Z</time>
      </trkpt>
      <trkpt lat="44.40082" lon="6.92584">
        <ele>1806.4</ele>
        <time>2022-08-16T12:46:59Z</time>
      </trkpt>
      <trkpt lat="44.40082" lon="6.92582">
        <ele>1806.6</ele>
        <time>2022-08-16T12:47:00Z</time>
      </trkpt>
      <trkpt lat="44.40082" lon="6.92579">
        <ele>1806.8</ele>
        <time>2022-08-16T12:47:01Z</time>
      </trkpt>
      <trkpt lat="44.40081" lon="6.92576">
        <ele>1806.8</ele>
        <time>2022-08-16T12:47:02Z</time>
      </trkpt>
      <trkpt lat="44.40081" lon="6.92573">
        <ele>1807</ele>
        <time>2022-08-16T12:47:03Z</time>
      </trkpt>
      <trkpt lat="44.40081" lon="6.9257">
        <ele>1807</ele>
        <time>2022-08-16T12:47:04Z</time>
      </trkpt>
      <trkpt lat="44.4008" lon="6.92567">
        <ele>1807</ele>
        <time>2022-08-16T12:47:05Z</time>
      </trkpt>
      <trkpt lat="44.4008" lon="6.92564">
        <ele>1807</ele>
        <time>2022-08-16T12:47:06Z</time>
      </trkpt>
      <trkpt lat="44.4008" lon="6.92561">
        <ele>1807.2</ele>
        <time>2022-08-16T12:47:07Z</time>
      </trkpt>
      <trkpt lat="44.40079" lon="6.92558">
        <ele>1807.2</ele>
        <time>2022-08-16T12:47:08Z</time>
      </trkpt>
      <trkpt lat="44.40079" lon="6.92555">
        <ele>1807.4</ele>
        <time>2022-08-16T12:47:09Z</time>
      </trkpt>
      <trkpt lat="44.40079" lon="6.92552">
        <ele>1807.6</ele>
        <time>2022-08-16T12:47:10Z</time>
      </trkpt>
      <trkpt lat="44.40079" lon="6.9255">
        <ele>1807.6</ele>
        <time>2022-08-16T12:47:11Z</time>
      </trkpt>
      <trkpt lat="44.40078" lon="6.92547">
        <ele>1807.8</ele>
        <time>2022-08-16T12:47:12Z</time>
      </trkpt>
      <trkpt lat="44.40078" lon="6.92544">
        <ele>1807.8</ele>
        <time>2022-08-16T12:47:13Z</time>
      </trkpt>
      <trkpt lat="44.40078" lon="6.92541">
        <ele>1808</ele>
        <time>2022-08-16T12:47:14Z</time>
      </trkpt>
      <trkpt lat="44.40078" lon="6.92538">
        <ele>1808.4</ele>
        <time>2022-08-16T12:47:15Z</time>
      </trkpt>
      <trkpt lat="44.40078" lon="6.92535">
        <ele>1808.4</ele>
        <time>2022-08-16T12:47:16Z</time>
      </trkpt>
      <trkpt lat="44.40078" lon="6.92531">
        <ele>1808.6</ele>
        <time>2022-08-16T12:47:17Z</time>
      </trkpt>
      <trkpt lat="44.40078" lon="6.92529">
        <ele>1809</ele>
        <time>2022-08-16T12:47:18Z</time>
      </trkpt>
      <trkpt lat="44.40078" lon="6.92526">
        <ele>1809.2</ele>
        <time>2022-08-16T12:47:19Z</time>
      </trkpt>
      <trkpt lat="44.40078" lon="6.92523">
        <ele>1809.2</ele>
        <time>2022-08-16T12:47:20Z</time>
      </trkpt>
      <trkpt lat="44.40078" lon="6.9252">
        <ele>1809.6</ele>
        <time>2022-08-16T12:47:21Z</time>
      </trkpt>
      <trkpt lat="44.40079" lon="6.92518">
        <ele>1809.6</ele>
        <time>2022-08-16T12:47:22Z</time>
      </trkpt>
      <trkpt lat="44.4008" lon="6.92515">
        <ele>1809.8</ele>
        <time>2022-08-16T12:47:23Z</time>
      </trkpt>
      <trkpt lat="44.40081" lon="6.92513">
        <ele>1809.8</ele>
        <time>2022-08-16T12:47:24Z</time>
      </trkpt>
      <trkpt lat="44.40082" lon="6.92511">
        <ele>1809.8</ele>
        <time>2022-08-16T12:47:25Z</time>
      </trkpt>
      <trkpt lat="44.40083" lon="6.92509">
        <ele>1810.2</ele>
        <time>2022-08-16T12:47:26Z</time>
      </trkpt>
      <trkpt lat="44.40085" lon="6.92507">
        <ele>1810.2</ele>
        <time>2022-08-16T12:47:27Z</time>
      </trkpt>
      <trkpt lat="44.40087" lon="6.92506">
        <ele>1810.2</ele>
        <time>2022-08-16T12:47:28Z</time>
      </trkpt>
      <trkpt lat="44.40089" lon="6.92505">
        <ele>1810.4</ele>
        <time>2022-08-16T12:47:29Z</time>
      </trkpt>
      <trkpt lat="44.40091" lon="6.92505">
        <ele>1810.6</ele>
        <time>2022-08-16T12:47:30Z</time>
      </trkpt>
      <trkpt lat="44.40093" lon="6.92505">
        <ele>1810.6</ele>
        <time>2022-08-16T12:47:31Z</time>
      </trkpt>
      <trkpt lat="44.40095" lon="6.92506">
        <ele>1810.8</ele>
        <time>2022-08-16T12:47:32Z</time>
      </trkpt>
      <trkpt lat="44.40097" lon="6.92507">
        <ele>1810.6</ele>
        <time>2022-08-16T12:47:33Z</time>
      </trkpt>
      <trkpt lat="44.40101" lon="6.92509">
        <ele>1810.8</ele>
        <time>2022-08-16T12:47:35Z</time>
      </trkpt>
      <trkpt lat="44.40103" lon="6.92511">
        <ele>1810.8</ele>
        <time>2022-08-16T12:47:36Z</time>
      </trkpt>
      <trkpt lat="44.40104" lon="6.92513">
        <ele>1810.8</ele>
        <time>2022-08-16T12:47:37Z</time>
      </trkpt>
      <trkpt lat="44.40105" lon="6.92516">
        <ele>1810.8</ele>
        <time>2022-08-16T12:47:38Z</time>
      </trkpt>
      <trkpt lat="44.40106" lon="6.92519">
        <ele>1810.8</ele>
        <time>2022-08-16T12:47:39Z</time>
      </trkpt>
      <trkpt lat="44.40107" lon="6.92522">
        <ele>1810.8</ele>
        <time>2022-08-16T12:47:40Z</time>
      </trkpt>
      <trkpt lat="44.40107" lon="6.92525">
        <ele>1810.8</ele>
        <time>2022-08-16T12:47:41Z</time>
      </trkpt>
      <trkpt lat="44.40108" lon="6.92528">
        <ele>1810.6</ele>
        <time>2022-08-16T12:47:42Z</time>
      </trkpt>
      <trkpt lat="44.40109" lon="6.92536">
        <ele>1810.8</ele>
        <time>2022-08-16T12:47:45Z</time>
      </trkpt>
      <trkpt lat="44.40109" lon="6.92539">
        <ele>1811</ele>
        <time>2022-08-16T12:47:46Z</time>
      </trkpt>
      <trkpt lat="44.4011" lon="6.92546">
        <ele>1811</ele>
        <time>2022-08-16T12:47:48Z</time>
      </trkpt>
      <trkpt lat="44.4011" lon="6.92552">
        <ele>1811</ele>
        <time>2022-08-16T12:47:50Z</time>
      </trkpt>
      <trkpt lat="44.40111" lon="6.92555">
        <ele>1811</ele>
        <time>2022-08-16T12:47:51Z</time>
      </trkpt>
      <trkpt lat="44.40111" lon="6.92561">
        <ele>1811.4</ele>
        <time>2022-08-16T12:47:53Z</time>
      </trkpt>
      <trkpt lat="44.40112" lon="6.92564">
        <ele>1811.6</ele>
        <time>2022-08-16T12:47:54Z</time>
      </trkpt>
      <trkpt lat="44.40112" lon="6.92567">
        <ele>1811.6</ele>
        <time>2022-08-16T12:47:55Z</time>
      </trkpt>
      <trkpt lat="44.40113" lon="6.9257">
        <ele>1812</ele>
        <time>2022-08-16T12:47:56Z</time>
      </trkpt>
      <trkpt lat="44.40113" lon="6.92573">
        <ele>1812.4</ele>
        <time>2022-08-16T12:47:57Z</time>
      </trkpt>
      <trkpt lat="44.40113" lon="6.92576">
        <ele>1812.8</ele>
        <time>2022-08-16T12:47:58Z</time>
      </trkpt>
      <trkpt lat="44.40113" lon="6.92579">
        <ele>1813</ele>
        <time>2022-08-16T12:47:59Z</time>
      </trkpt>
      <trkpt lat="44.40114" lon="6.92582">
        <ele>1813.2</ele>
        <time>2022-08-16T12:48:00Z</time>
      </trkpt>
      <trkpt lat="44.40114" lon="6.92585">
        <ele>1813.6</ele>
        <time>2022-08-16T12:48:01Z</time>
      </trkpt>
      <trkpt lat="44.40114" lon="6.92588">
        <ele>1813.8</ele>
        <time>2022-08-16T12:48:02Z</time>
      </trkpt>
      <trkpt lat="44.40115" lon="6.9259">
        <ele>1814</ele>
        <time>2022-08-16T12:48:03Z</time>
      </trkpt>
      <trkpt lat="44.40115" lon="6.92593">
        <ele>1814.2</ele>
        <time>2022-08-16T12:48:04Z</time>
      </trkpt>
      <trkpt lat="44.40116" lon="6.92596">
        <ele>1814.2</ele>
        <time>2022-08-16T12:48:05Z</time>
      </trkpt>
      <trkpt lat="44.40116" lon="6.92599">
        <ele>1814.4</ele>
        <time>2022-08-16T12:48:06Z</time>
      </trkpt>
      <trkpt lat="44.40117" lon="6.92601">
        <ele>1814.4</ele>
        <time>2022-08-16T12:48:07Z</time>
      </trkpt>
      <trkpt lat="44.40118" lon="6.92604">
        <ele>1814.4</ele>
        <time>2022-08-16T12:48:08Z</time>
      </trkpt>
      <trkpt lat="44.40118" lon="6.92606">
        <ele>1814.6</ele>
        <time>2022-08-16T12:48:09Z</time>
      </trkpt>
      <trkpt lat="44.40119" lon="6.92609">
        <ele>1814.6</ele>
        <time>2022-08-16T12:48:10Z</time>
      </trkpt>
      <trkpt lat="44.40119" lon="6.92612">
        <ele>1814.8</ele>
        <time>2022-08-16T12:48:11Z</time>
      </trkpt>
      <trkpt lat="44.4012" lon="6.92614">
        <ele>1814.8</ele>
        <time>2022-08-16T12:48:12Z</time>
      </trkpt>
      <trkpt lat="44.40121" lon="6.92617">
        <ele>1814.8</ele>
        <time>2022-08-16T12:48:13Z</time>
      </trkpt>
      <trkpt lat="44.40122" lon="6.92619">
        <ele>1815</ele>
        <time>2022-08-16T12:48:14Z</time>
      </trkpt>
      <trkpt lat="44.40122" lon="6.92622">
        <ele>1815.2</ele>
        <time>2022-08-16T12:48:15Z</time>
      </trkpt>
      <trkpt lat="44.40123" lon="6.92625">
        <ele>1815.2</ele>
        <time>2022-08-16T12:48:16Z</time>
      </trkpt>
      <trkpt lat="44.40124" lon="6.92627">
        <ele>1815.4</ele>
        <time>2022-08-16T12:48:17Z</time>
      </trkpt>
      <trkpt lat="44.40125" lon="6.9263">
        <ele>1815.4</ele>
        <time>2022-08-16T12:48:18Z</time>
      </trkpt>
      <trkpt lat="44.40126" lon="6.92633">
        <ele>1815.6</ele>
        <time>2022-08-16T12:48:19Z</time>
      </trkpt>
      <trkpt lat="44.40127" lon="6.92635">
        <ele>1816</ele>
        <time>2022-08-16T12:48:20Z</time>
      </trkpt>
      <trkpt lat="44.40127" lon="6.92638">
        <ele>1816.2</ele>
        <time>2022-08-16T12:48:21Z</time>
      </trkpt>
      <trkpt lat="44.40128" lon="6.9264">
        <ele>1816.4</ele>
        <time>2022-08-16T12:48:22Z</time>
      </trkpt>
      <trkpt lat="44.40129" lon="6.92643">
        <ele>1816.6</ele>
        <time>2022-08-16T12:48:23Z</time>
      </trkpt>
      <trkpt lat="44.4013" lon="6.92646">
        <ele>1816.8</ele>
        <time>2022-08-16T12:48:24Z</time>
      </trkpt>
      <trkpt lat="44.40131" lon="6.92648">
        <ele>1816.8</ele>
        <time>2022-08-16T12:48:25Z</time>
      </trkpt>
      <trkpt lat="44.40131" lon="6.92651">
        <ele>1816.8</ele>
        <time>2022-08-16T12:48:26Z</time>
      </trkpt>
      <trkpt lat="44.40132" lon="6.92653">
        <ele>1817</ele>
        <time>2022-08-16T12:48:27Z</time>
      </trkpt>
      <trkpt lat="44.40133" lon="6.92656">
        <ele>1817</ele>
        <time>2022-08-16T12:48:28Z</time>
      </trkpt>
      <trkpt lat="44.40134" lon="6.92658">
        <ele>1817.2</ele>
        <time>2022-08-16T12:48:29Z</time>
      </trkpt>
      <trkpt lat="44.40135" lon="6.92661">
        <ele>1817</ele>
        <time>2022-08-16T12:48:30Z</time>
      </trkpt>
      <trkpt lat="44.40136" lon="6.92663">
        <ele>1817.4</ele>
        <time>2022-08-16T12:48:31Z</time>
      </trkpt>
      <trkpt lat="44.40136" lon="6.92665">
        <ele>1817.4</ele>
        <time>2022-08-16T12:48:32Z</time>
      </trkpt>
      <trkpt lat="44.40137" lon="6.92668">
        <ele>1817.4</ele>
        <time>2022-08-16T12:48:33Z</time>
      </trkpt>
      <trkpt lat="44.40138" lon="6.92671">
        <ele>1817.6</ele>
        <time>2022-08-16T12:48:34Z</time>
      </trkpt>
      <trkpt lat="44.40139" lon="6.92673">
        <ele>1817.6</ele>
        <time>2022-08-16T12:48:35Z</time>
      </trkpt>
      <trkpt lat="44.40139" lon="6.92675">
        <ele>1817.8</ele>
        <time>2022-08-16T12:48:36Z</time>
      </trkpt>
      <trkpt lat="44.40139" lon="6.92676">
        <ele>1817.8</ele>
        <time>2022-08-16T12:48:37Z</time>
      </trkpt>
      <trkpt lat="44.4014" lon="6.92678">
        <ele>1817.8</ele>
        <time>2022-08-16T12:48:38Z</time>
      </trkpt>
      <trkpt lat="44.40141" lon="6.92681">
        <ele>1818</ele>
        <time>2022-08-16T12:48:39Z</time>
      </trkpt>
      <trkpt lat="44.40142" lon="6.92683">
        <ele>1818</ele>
        <time>2022-08-16T12:48:40Z</time>
      </trkpt>
      <trkpt lat="44.40142" lon="6.92685">
        <ele>1818.2</ele>
        <time>2022-08-16T12:48:41Z</time>
      </trkpt>
      <trkpt lat="44.40143" lon="6.92688">
        <ele>1818.2</ele>
        <time>2022-08-16T12:48:42Z</time>
      </trkpt>
      <trkpt lat="44.40144" lon="6.9269">
        <ele>1818.4</ele>
        <time>2022-08-16T12:48:43Z</time>
      </trkpt>
      <trkpt lat="44.40145" lon="6.92692">
        <ele>1818.4</ele>
        <time>2022-08-16T12:48:44Z</time>
      </trkpt>
      <trkpt lat="44.40145" lon="6.92695">
        <ele>1818.8</ele>
        <time>2022-08-16T12:48:45Z</time>
      </trkpt>
      <trkpt lat="44.40146" lon="6.92697">
        <ele>1818.8</ele>
        <time>2022-08-16T12:48:46Z</time>
      </trkpt>
      <trkpt lat="44.40147" lon="6.92699">
        <ele>1819</ele>
        <time>2022-08-16T12:48:47Z</time>
      </trkpt>
      <trkpt lat="44.40148" lon="6.92701">
        <ele>1819.2</ele>
        <time>2022-08-16T12:48:48Z</time>
      </trkpt>
      <trkpt lat="44.40148" lon="6.92704">
        <ele>1819.2</ele>
        <time>2022-08-16T12:48:49Z</time>
      </trkpt>
      <trkpt lat="44.40149" lon="6.92706">
        <ele>1819.4</ele>
        <time>2022-08-16T12:48:50Z</time>
      </trkpt>
      <trkpt lat="44.4015" lon="6.92708">
        <ele>1819.6</ele>
        <time>2022-08-16T12:48:51Z</time>
      </trkpt>
      <trkpt lat="44.4015" lon="6.92711">
        <ele>1819.6</ele>
        <time>2022-08-16T12:48:52Z</time>
      </trkpt>
      <trkpt lat="44.40151" lon="6.92713">
        <ele>1819.8</ele>
        <time>2022-08-16T12:48:53Z</time>
      </trkpt>
      <trkpt lat="44.40152" lon="6.92716">
        <ele>1819.8</ele>
        <time>2022-08-16T12:48:54Z</time>
      </trkpt>
      <trkpt lat="44.40152" lon="6.92718">
        <ele>1820</ele>
        <time>2022-08-16T12:48:55Z</time>
      </trkpt>
      <trkpt lat="44.40153" lon="6.9272">
        <ele>1820</ele>
        <time>2022-08-16T12:48:56Z</time>
      </trkpt>
      <trkpt lat="44.40154" lon="6.92723">
        <ele>1820</ele>
        <time>2022-08-16T12:48:57Z</time>
      </trkpt>
      <trkpt lat="44.40155" lon="6.92725">
        <ele>1820.2</ele>
        <time>2022-08-16T12:48:58Z</time>
      </trkpt>
      <trkpt lat="44.40156" lon="6.92728">
        <ele>1820.2</ele>
        <time>2022-08-16T12:48:59Z</time>
      </trkpt>
      <trkpt lat="44.40156" lon="6.9273">
        <ele>1820.4</ele>
        <time>2022-08-16T12:49:00Z</time>
      </trkpt>
      <trkpt lat="44.40157" lon="6.92732">
        <ele>1820.6</ele>
        <time>2022-08-16T12:49:01Z</time>
      </trkpt>
      <trkpt lat="44.40158" lon="6.92734">
        <ele>1820.8</ele>
        <time>2022-08-16T12:49:02Z</time>
      </trkpt>
      <trkpt lat="44.40159" lon="6.92737">
        <ele>1821</ele>
        <time>2022-08-16T12:49:03Z</time>
      </trkpt>
      <trkpt lat="44.4016" lon="6.92739">
        <ele>1821</ele>
        <time>2022-08-16T12:49:04Z</time>
      </trkpt>
      <trkpt lat="44.4016" lon="6.92741">
        <ele>1821.2</ele>
        <time>2022-08-16T12:49:05Z</time>
      </trkpt>
      <trkpt lat="44.40161" lon="6.92744">
        <ele>1821.2</ele>
        <time>2022-08-16T12:49:06Z</time>
      </trkpt>
      <trkpt lat="44.40162" lon="6.92746">
        <ele>1821.4</ele>
        <time>2022-08-16T12:49:07Z</time>
      </trkpt>
      <trkpt lat="44.40163" lon="6.92749">
        <ele>1821.6</ele>
        <time>2022-08-16T12:49:08Z</time>
      </trkpt>
      <trkpt lat="44.40163" lon="6.92751">
        <ele>1821.8</ele>
        <time>2022-08-16T12:49:09Z</time>
      </trkpt>
      <trkpt lat="44.40164" lon="6.92753">
        <ele>1821.8</ele>
        <time>2022-08-16T12:49:10Z</time>
      </trkpt>
      <trkpt lat="44.40165" lon="6.92755">
        <ele>1822</ele>
        <time>2022-08-16T12:49:11Z</time>
      </trkpt>
      <trkpt lat="44.40166" lon="6.92757">
        <ele>1822</ele>
        <time>2022-08-16T12:49:12Z</time>
      </trkpt>
      <trkpt lat="44.40167" lon="6.92759">
        <ele>1822.2</ele>
        <time>2022-08-16T12:49:13Z</time>
      </trkpt>
      <trkpt lat="44.40169" lon="6.92761">
        <ele>1822.4</ele>
        <time>2022-08-16T12:49:14Z</time>
      </trkpt>
      <trkpt lat="44.40171" lon="6.92762">
        <ele>1822.4</ele>
        <time>2022-08-16T12:49:15Z</time>
      </trkpt>
      <trkpt lat="44.40172" lon="6.92764">
        <ele>1822.4</ele>
        <time>2022-08-16T12:49:16Z</time>
      </trkpt>
      <trkpt lat="44.40174" lon="6.92765">
        <ele>1822.4</ele>
        <time>2022-08-16T12:49:17Z</time>
      </trkpt>
      <trkpt lat="44.40177" lon="6.92766">
        <ele>1822.4</ele>
        <time>2022-08-16T12:49:18Z</time>
      </trkpt>
      <trkpt lat="44.40179" lon="6.92767">
        <ele>1822.6</ele>
        <time>2022-08-16T12:49:19Z</time>
      </trkpt>
      <trkpt lat="44.40181" lon="6.92767">
        <ele>1823</ele>
        <time>2022-08-16T12:49:20Z</time>
      </trkpt>
      <trkpt lat="44.40183" lon="6.92767">
        <ele>1823</ele>
        <time>2022-08-16T12:49:21Z</time>
      </trkpt>
      <trkpt lat="44.40185" lon="6.92767">
        <ele>1823.2</ele>
        <time>2022-08-16T12:49:22Z</time>
      </trkpt>
      <trkpt lat="44.40187" lon="6.92766">
        <ele>1823.4</ele>
        <time>2022-08-16T12:49:23Z</time>
      </trkpt>
      <trkpt lat="44.40189" lon="6.92765">
        <ele>1823.2</ele>
        <time>2022-08-16T12:49:24Z</time>
      </trkpt>
      <trkpt lat="44.40193" lon="6.92763">
        <ele>1823.4</ele>
        <time>2022-08-16T12:49:26Z</time>
      </trkpt>
      <trkpt lat="44.40199" lon="6.92753">
        <ele>1823.6</ele>
        <time>2022-08-16T12:49:30Z</time>
      </trkpt>
      <trkpt lat="44.40201" lon="6.92751">
        <ele>1823.6</ele>
        <time>2022-08-16T12:49:31Z</time>
      </trkpt>
      <trkpt lat="44.40201" lon="6.92747">
        <ele>1823.8</ele>
        <time>2022-08-16T12:49:32Z</time>
      </trkpt>
      <trkpt lat="44.40202" lon="6.92744">
        <ele>1824</ele>
        <time>2022-08-16T12:49:33Z</time>
      </trkpt>
      <trkpt lat="44.40203" lon="6.92742">
        <ele>1824</ele>
        <time>2022-08-16T12:49:34Z</time>
      </trkpt>
      <trkpt lat="44.40205" lon="6.9273">
        <ele>1824.8</ele>
        <time>2022-08-16T12:49:38Z</time>
      </trkpt>
      <trkpt lat="44.40205" lon="6.92727">
        <ele>1824.8</ele>
        <time>2022-08-16T12:49:39Z</time>
      </trkpt>
      <trkpt lat="44.40206" lon="6.92723">
        <ele>1824.8</ele>
        <time>2022-08-16T12:49:40Z</time>
      </trkpt>
      <trkpt lat="44.40206" lon="6.9272">
        <ele>1824.8</ele>
        <time>2022-08-16T12:49:41Z</time>
      </trkpt>
      <trkpt lat="44.40207" lon="6.92717">
        <ele>1825</ele>
        <time>2022-08-16T12:49:42Z</time>
      </trkpt>
      <trkpt lat="44.40207" lon="6.92714">
        <ele>1825</ele>
        <time>2022-08-16T12:49:43Z</time>
      </trkpt>
      <trkpt lat="44.40207" lon="6.92711">
        <ele>1825</ele>
        <time>2022-08-16T12:49:44Z</time>
      </trkpt>
      <trkpt lat="44.40208" lon="6.92708">
        <ele>1825</ele>
        <time>2022-08-16T12:49:45Z</time>
      </trkpt>
      <trkpt lat="44.40208" lon="6.92705">
        <ele>1825.2</ele>
        <time>2022-08-16T12:49:46Z</time>
      </trkpt>
      <trkpt lat="44.40208" lon="6.92701">
        <ele>1825.4</ele>
        <time>2022-08-16T12:49:47Z</time>
      </trkpt>
      <trkpt lat="44.40208" lon="6.92698">
        <ele>1825.8</ele>
        <time>2022-08-16T12:49:48Z</time>
      </trkpt>
      <trkpt lat="44.40209" lon="6.92695">
        <ele>1825.8</ele>
        <time>2022-08-16T12:49:49Z</time>
      </trkpt>
      <trkpt lat="44.40209" lon="6.92692">
        <ele>1825.8</ele>
        <time>2022-08-16T12:49:50Z</time>
      </trkpt>
      <trkpt lat="44.40209" lon="6.92689">
        <ele>1826.2</ele>
        <time>2022-08-16T12:49:51Z</time>
      </trkpt>
      <trkpt lat="44.4021" lon="6.92686">
        <ele>1826</ele>
        <time>2022-08-16T12:49:52Z</time>
      </trkpt>
      <trkpt lat="44.4021" lon="6.92683">
        <ele>1826.2</ele>
        <time>2022-08-16T12:49:53Z</time>
      </trkpt>
      <trkpt lat="44.4021" lon="6.92679">
        <ele>1826.4</ele>
        <time>2022-08-16T12:49:54Z</time>
      </trkpt>
      <trkpt lat="44.4021" lon="6.92676">
        <ele>1826.6</ele>
        <time>2022-08-16T12:49:55Z</time>
      </trkpt>
      <trkpt lat="44.40211" lon="6.92673">
        <ele>1826.8</ele>
        <time>2022-08-16T12:49:56Z</time>
      </trkpt>
      <trkpt lat="44.40211" lon="6.9267">
        <ele>1826.8</ele>
        <time>2022-08-16T12:49:57Z</time>
      </trkpt>
      <trkpt lat="44.40211" lon="6.92667">
        <ele>1827</ele>
        <time>2022-08-16T12:49:58Z</time>
      </trkpt>
      <trkpt lat="44.40211" lon="6.92664">
        <ele>1826.8</ele>
        <time>2022-08-16T12:49:59Z</time>
      </trkpt>
      <trkpt lat="44.40211" lon="6.92661">
        <ele>1827</ele>
        <time>2022-08-16T12:50:00Z</time>
      </trkpt>
      <trkpt lat="44.40212" lon="6.92659">
        <ele>1827</ele>
        <time>2022-08-16T12:50:01Z</time>
      </trkpt>
      <trkpt lat="44.40211" lon="6.92656">
        <ele>1827</ele>
        <time>2022-08-16T12:50:02Z</time>
      </trkpt>
      <trkpt lat="44.40211" lon="6.92653">
        <ele>1827.2</ele>
        <time>2022-08-16T12:50:03Z</time>
      </trkpt>
      <trkpt lat="44.40211" lon="6.9265">
        <ele>1827.4</ele>
        <time>2022-08-16T12:50:04Z</time>
      </trkpt>
      <trkpt lat="44.40211" lon="6.92648">
        <ele>1827.6</ele>
        <time>2022-08-16T12:50:05Z</time>
      </trkpt>
      <trkpt lat="44.4021" lon="6.92645">
        <ele>1827.8</ele>
        <time>2022-08-16T12:50:06Z</time>
      </trkpt>
      <trkpt lat="44.4021" lon="6.92642">
        <ele>1828.2</ele>
        <time>2022-08-16T12:50:07Z</time>
      </trkpt>
      <trkpt lat="44.4021" lon="6.92639">
        <ele>1828.2</ele>
        <time>2022-08-16T12:50:08Z</time>
      </trkpt>
      <trkpt lat="44.4021" lon="6.92636">
        <ele>1828.4</ele>
        <time>2022-08-16T12:50:09Z</time>
      </trkpt>
      <trkpt lat="44.4021" lon="6.92634">
        <ele>1828.4</ele>
        <time>2022-08-16T12:50:10Z</time>
      </trkpt>
      <trkpt lat="44.4021" lon="6.92631">
        <ele>1828.8</ele>
        <time>2022-08-16T12:50:11Z</time>
      </trkpt>
      <trkpt lat="44.4021" lon="6.92628">
        <ele>1829</ele>
        <time>2022-08-16T12:50:12Z</time>
      </trkpt>
      <trkpt lat="44.4021" lon="6.92625">
        <ele>1828.8</ele>
        <time>2022-08-16T12:50:13Z</time>
      </trkpt>
      <trkpt lat="44.4021" lon="6.92623">
        <ele>1829</ele>
        <time>2022-08-16T12:50:14Z</time>
      </trkpt>
      <trkpt lat="44.4021" lon="6.9262">
        <ele>1829.2</ele>
        <time>2022-08-16T12:50:15Z</time>
      </trkpt>
      <trkpt lat="44.40209" lon="6.92617">
        <ele>1829.2</ele>
        <time>2022-08-16T12:50:16Z</time>
      </trkpt>
      <trkpt lat="44.40209" lon="6.92615">
        <ele>1829.4</ele>
        <time>2022-08-16T12:50:17Z</time>
      </trkpt>
      <trkpt lat="44.40209" lon="6.92612">
        <ele>1829.4</ele>
        <time>2022-08-16T12:50:18Z</time>
      </trkpt>
      <trkpt lat="44.40208" lon="6.92609">
        <ele>1829.2</ele>
        <time>2022-08-16T12:50:19Z</time>
      </trkpt>
      <trkpt lat="44.40208" lon="6.92607">
        <ele>1829.6</ele>
        <time>2022-08-16T12:50:20Z</time>
      </trkpt>
      <trkpt lat="44.40207" lon="6.92604">
        <ele>1829.6</ele>
        <time>2022-08-16T12:50:21Z</time>
      </trkpt>
      <trkpt lat="44.40207" lon="6.92601">
        <ele>1830.2</ele>
        <time>2022-08-16T12:50:22Z</time>
      </trkpt>
      <trkpt lat="44.40206" lon="6.92599">
        <ele>1830.2</ele>
        <time>2022-08-16T12:50:23Z</time>
      </trkpt>
      <trkpt lat="44.40205" lon="6.92596">
        <ele>1830.4</ele>
        <time>2022-08-16T12:50:24Z</time>
      </trkpt>
      <trkpt lat="44.40205" lon="6.92593">
        <ele>1830.4</ele>
        <time>2022-08-16T12:50:25Z</time>
      </trkpt>
      <trkpt lat="44.40204" lon="6.9259">
        <ele>1830.6</ele>
        <time>2022-08-16T12:50:26Z</time>
      </trkpt>
      <trkpt lat="44.40204" lon="6.92588">
        <ele>1830.6</ele>
        <time>2022-08-16T12:50:27Z</time>
      </trkpt>
      <trkpt lat="44.40203" lon="6.92585">
        <ele>1830.8</ele>
        <time>2022-08-16T12:50:28Z</time>
      </trkpt>
      <trkpt lat="44.40202" lon="6.92583">
        <ele>1830.6</ele>
        <time>2022-08-16T12:50:29Z</time>
      </trkpt>
      <trkpt lat="44.40202" lon="6.9258">
        <ele>1831</ele>
        <time>2022-08-16T12:50:30Z</time>
      </trkpt>
      <trkpt lat="44.40201" lon="6.92578">
        <ele>1831</ele>
        <time>2022-08-16T12:50:31Z</time>
      </trkpt>
      <trkpt lat="44.402" lon="6.92575">
        <ele>1831.2</ele>
        <time>2022-08-16T12:50:32Z</time>
      </trkpt>
      <trkpt lat="44.40199" lon="6.92572">
        <ele>1831.2</ele>
        <time>2022-08-16T12:50:33Z</time>
      </trkpt>
      <trkpt lat="44.40198" lon="6.9257">
        <ele>1831.2</ele>
        <time>2022-08-16T12:50:34Z</time>
      </trkpt>
      <trkpt lat="44.40197" lon="6.92568">
        <ele>1831.4</ele>
        <time>2022-08-16T12:50:35Z</time>
      </trkpt>
      <trkpt lat="44.40196" lon="6.92565">
        <ele>1831.2</ele>
        <time>2022-08-16T12:50:36Z</time>
      </trkpt>
      <trkpt lat="44.40195" lon="6.92563">
        <ele>1831.4</ele>
        <time>2022-08-16T12:50:37Z</time>
      </trkpt>
      <trkpt lat="44.40194" lon="6.9256">
        <ele>1831.4</ele>
        <time>2022-08-16T12:50:38Z</time>
      </trkpt>
      <trkpt lat="44.40192" lon="6.92558">
        <ele>1831.8</ele>
        <time>2022-08-16T12:50:39Z</time>
      </trkpt>
      <trkpt lat="44.40191" lon="6.92555">
        <ele>1831.8</ele>
        <time>2022-08-16T12:50:40Z</time>
      </trkpt>
      <trkpt lat="44.4019" lon="6.92553">
        <ele>1832</ele>
        <time>2022-08-16T12:50:41Z</time>
      </trkpt>
      <trkpt lat="44.40189" lon="6.9255">
        <ele>1832</ele>
        <time>2022-08-16T12:50:42Z</time>
      </trkpt>
      <trkpt lat="44.40188" lon="6.92548">
        <ele>1832.2</ele>
        <time>2022-08-16T12:50:43Z</time>
      </trkpt>
      <trkpt lat="44.40186" lon="6.92546">
        <ele>1832.2</ele>
        <time>2022-08-16T12:50:44Z</time>
      </trkpt>
      <trkpt lat="44.40185" lon="6.92543">
        <ele>1832.4</ele>
        <time>2022-08-16T12:50:45Z</time>
      </trkpt>
      <trkpt lat="44.40183" lon="6.92541">
        <ele>1832.6</ele>
        <time>2022-08-16T12:50:46Z</time>
      </trkpt>
      <trkpt lat="44.40182" lon="6.92539">
        <ele>1832.6</ele>
        <time>2022-08-16T12:50:47Z</time>
      </trkpt>
      <trkpt lat="44.40181" lon="6.92537">
        <ele>1832.8</ele>
        <time>2022-08-16T12:50:48Z</time>
      </trkpt>
      <trkpt lat="44.40179" lon="6.92535">
        <ele>1832.8</ele>
        <time>2022-08-16T12:50:49Z</time>
      </trkpt>
      <trkpt lat="44.40178" lon="6.92533">
        <ele>1832.8</ele>
        <time>2022-08-16T12:50:50Z</time>
      </trkpt>
      <trkpt lat="44.40176" lon="6.9253">
        <ele>1833.2</ele>
        <time>2022-08-16T12:50:51Z</time>
      </trkpt>
      <trkpt lat="44.40175" lon="6.92528">
        <ele>1833.2</ele>
        <time>2022-08-16T12:50:52Z</time>
      </trkpt>
      <trkpt lat="44.40173" lon="6.92526">
        <ele>1833.2</ele>
        <time>2022-08-16T12:50:53Z</time>
      </trkpt>
      <trkpt lat="44.40172" lon="6.92524">
        <ele>1833.4</ele>
        <time>2022-08-16T12:50:54Z</time>
      </trkpt>
      <trkpt lat="44.4017" lon="6.92522">
        <ele>1833.6</ele>
        <time>2022-08-16T12:50:55Z</time>
      </trkpt>
      <trkpt lat="44.40169" lon="6.9252">
        <ele>1833.6</ele>
        <time>2022-08-16T12:50:56Z</time>
      </trkpt>
      <trkpt lat="44.40167" lon="6.92518">
        <ele>1833.6</ele>
        <time>2022-08-16T12:50:57Z</time>
      </trkpt>
      <trkpt lat="44.40165" lon="6.92516">
        <ele>1833.8</ele>
        <time>2022-08-16T12:50:58Z</time>
      </trkpt>
      <trkpt lat="44.40164" lon="6.92513">
        <ele>1833.8</ele>
        <time>2022-08-16T12:50:59Z</time>
      </trkpt>
      <trkpt lat="44.40162" lon="6.92511">
        <ele>1834.2</ele>
        <time>2022-08-16T12:51:00Z</time>
      </trkpt>
      <trkpt lat="44.40161" lon="6.92509">
        <ele>1834.2</ele>
        <time>2022-08-16T12:51:01Z</time>
      </trkpt>
      <trkpt lat="44.40159" lon="6.92507">
        <ele>1834.2</ele>
        <time>2022-08-16T12:51:02Z</time>
      </trkpt>
      <trkpt lat="44.40158" lon="6.92505">
        <ele>1834.4</ele>
        <time>2022-08-16T12:51:03Z</time>
      </trkpt>
      <trkpt lat="44.40156" lon="6.92502">
        <ele>1834.6</ele>
        <time>2022-08-16T12:51:04Z</time>
      </trkpt>
      <trkpt lat="44.40155" lon="6.925">
        <ele>1834.6</ele>
        <time>2022-08-16T12:51:05Z</time>
      </trkpt>
      <trkpt lat="44.40154" lon="6.92498">
        <ele>1834.8</ele>
        <time>2022-08-16T12:51:06Z</time>
      </trkpt>
      <trkpt lat="44.40152" lon="6.92495">
        <ele>1835</ele>
        <time>2022-08-16T12:51:07Z</time>
      </trkpt>
      <trkpt lat="44.40151" lon="6.92493">
        <ele>1835.4</ele>
        <time>2022-08-16T12:51:08Z</time>
      </trkpt>
      <trkpt lat="44.40151" lon="6.9249">
        <ele>1835.4</ele>
        <time>2022-08-16T12:51:09Z</time>
      </trkpt>
      <trkpt lat="44.4015" lon="6.92487">
        <ele>1835.8</ele>
        <time>2022-08-16T12:51:10Z</time>
      </trkpt>
      <trkpt lat="44.4015" lon="6.92484">
        <ele>1836</ele>
        <time>2022-08-16T12:51:11Z</time>
      </trkpt>
      <trkpt lat="44.4015" lon="6.92481">
        <ele>1836.2</ele>
        <time>2022-08-16T12:51:12Z</time>
      </trkpt>
      <trkpt lat="44.40151" lon="6.92479">
        <ele>1836.4</ele>
        <time>2022-08-16T12:51:13Z</time>
      </trkpt>
      <trkpt lat="44.40152" lon="6.92476">
        <ele>1836.4</ele>
        <time>2022-08-16T12:51:14Z</time>
      </trkpt>
      <trkpt lat="44.40153" lon="6.92474">
        <ele>1836.6</ele>
        <time>2022-08-16T12:51:15Z</time>
      </trkpt>
      <trkpt lat="44.40154" lon="6.92471">
        <ele>1836.8</ele>
        <time>2022-08-16T12:51:16Z</time>
      </trkpt>
      <trkpt lat="44.40156" lon="6.9247">
        <ele>1837</ele>
        <time>2022-08-16T12:51:17Z</time>
      </trkpt>
      <trkpt lat="44.40158" lon="6.92469">
        <ele>1837</ele>
        <time>2022-08-16T12:51:18Z</time>
      </trkpt>
      <trkpt lat="44.4016" lon="6.92468">
        <ele>1837.2</ele>
        <time>2022-08-16T12:51:19Z</time>
      </trkpt>
      <trkpt lat="44.40162" lon="6.92468">
        <ele>1837.2</ele>
        <time>2022-08-16T12:51:20Z</time>
      </trkpt>
      <trkpt lat="44.40165" lon="6.92468">
        <ele>1837.4</ele>
        <time>2022-08-16T12:51:21Z</time>
      </trkpt>
      <trkpt lat="44.40167" lon="6.92468">
        <ele>1837.6</ele>
        <time>2022-08-16T12:51:22Z</time>
      </trkpt>
      <trkpt lat="44.40169" lon="6.92469">
        <ele>1837.6</ele>
        <time>2022-08-16T12:51:23Z</time>
      </trkpt>
      <trkpt lat="44.4017" lon="6.9247">
        <ele>1837.8</ele>
        <time>2022-08-16T12:51:24Z</time>
      </trkpt>
      <trkpt lat="44.40172" lon="6.9247">
        <ele>1837.8</ele>
        <time>2022-08-16T12:51:25Z</time>
      </trkpt>
      <trkpt lat="44.40173" lon="6.92471">
        <ele>1837.8</ele>
        <time>2022-08-16T12:51:26Z</time>
      </trkpt>
      <trkpt lat="44.40175" lon="6.92472">
        <ele>1838</ele>
        <time>2022-08-16T12:51:27Z</time>
      </trkpt>
      <trkpt lat="44.40176" lon="6.92473">
        <ele>1838</ele>
        <time>2022-08-16T12:51:28Z</time>
      </trkpt>
      <trkpt lat="44.40178" lon="6.92475">
        <ele>1838.2</ele>
        <time>2022-08-16T12:51:29Z</time>
      </trkpt>
      <trkpt lat="44.4018" lon="6.92476">
        <ele>1838.2</ele>
        <time>2022-08-16T12:51:30Z</time>
      </trkpt>
      <trkpt lat="44.40181" lon="6.92477">
        <ele>1838.2</ele>
        <time>2022-08-16T12:51:31Z</time>
      </trkpt>
      <trkpt lat="44.40183" lon="6.92479">
        <ele>1838.4</ele>
        <time>2022-08-16T12:51:32Z</time>
      </trkpt>
      <trkpt lat="44.40185" lon="6.9248">
        <ele>1838.4</ele>
        <time>2022-08-16T12:51:33Z</time>
      </trkpt>
      <trkpt lat="44.40187" lon="6.92482">
        <ele>1838.4</ele>
        <time>2022-08-16T12:51:34Z</time>
      </trkpt>
      <trkpt lat="44.40188" lon="6.92483">
        <ele>1838.4</ele>
        <time>2022-08-16T12:51:35Z</time>
      </trkpt>
      <trkpt lat="44.4019" lon="6.92485">
        <ele>1838.6</ele>
        <time>2022-08-16T12:51:36Z</time>
      </trkpt>
      <trkpt lat="44.40192" lon="6.92486">
        <ele>1838.8</ele>
        <time>2022-08-16T12:51:37Z</time>
      </trkpt>
      <trkpt lat="44.40193" lon="6.92488">
        <ele>1839</ele>
        <time>2022-08-16T12:51:38Z</time>
      </trkpt>
      <trkpt lat="44.40195" lon="6.92489">
        <ele>1839</ele>
        <time>2022-08-16T12:51:39Z</time>
      </trkpt>
      <trkpt lat="44.40196" lon="6.92491">
        <ele>1839.2</ele>
        <time>2022-08-16T12:51:40Z</time>
      </trkpt>
      <trkpt lat="44.40198" lon="6.92492">
        <ele>1839.4</ele>
        <time>2022-08-16T12:51:41Z</time>
      </trkpt>
      <trkpt lat="44.402" lon="6.92494">
        <ele>1839.4</ele>
        <time>2022-08-16T12:51:42Z</time>
      </trkpt>
      <trkpt lat="44.40201" lon="6.92495">
        <ele>1839.6</ele>
        <time>2022-08-16T12:51:43Z</time>
      </trkpt>
      <trkpt lat="44.40203" lon="6.92496">
        <ele>1839.8</ele>
        <time>2022-08-16T12:51:44Z</time>
      </trkpt>
      <trkpt lat="44.40205" lon="6.92498">
        <ele>1840</ele>
        <time>2022-08-16T12:51:45Z</time>
      </trkpt>
      <trkpt lat="44.40206" lon="6.92499">
        <ele>1840</ele>
        <time>2022-08-16T12:51:46Z</time>
      </trkpt>
      <trkpt lat="44.40208" lon="6.92501">
        <ele>1840.2</ele>
        <time>2022-08-16T12:51:47Z</time>
      </trkpt>
      <trkpt lat="44.40209" lon="6.92502">
        <ele>1840.4</ele>
        <time>2022-08-16T12:51:48Z</time>
      </trkpt>
      <trkpt lat="44.40211" lon="6.92503">
        <ele>1840.6</ele>
        <time>2022-08-16T12:51:49Z</time>
      </trkpt>
      <trkpt lat="44.40213" lon="6.92505">
        <ele>1840.6</ele>
        <time>2022-08-16T12:51:50Z</time>
      </trkpt>
      <trkpt lat="44.40214" lon="6.92506">
        <ele>1840.8</ele>
        <time>2022-08-16T12:51:51Z</time>
      </trkpt>
      <trkpt lat="44.40216" lon="6.92508">
        <ele>1841.2</ele>
        <time>2022-08-16T12:51:52Z</time>
      </trkpt>
      <trkpt lat="44.40217" lon="6.9251">
        <ele>1841.2</ele>
        <time>2022-08-16T12:51:53Z</time>
      </trkpt>
      <trkpt lat="44.40219" lon="6.92511">
        <ele>1841</ele>
        <time>2022-08-16T12:51:54Z</time>
      </trkpt>
      <trkpt lat="44.40221" lon="6.92513">
        <ele>1841.2</ele>
        <time>2022-08-16T12:51:55Z</time>
      </trkpt>
      <trkpt lat="44.40222" lon="6.92514">
        <ele>1841.4</ele>
        <time>2022-08-16T12:51:56Z</time>
      </trkpt>
      <trkpt lat="44.40224" lon="6.92516">
        <ele>1841.6</ele>
        <time>2022-08-16T12:51:57Z</time>
      </trkpt>
      <trkpt lat="44.40225" lon="6.92518">
        <ele>1841.6</ele>
        <time>2022-08-16T12:51:58Z</time>
      </trkpt>
      <trkpt lat="44.40226" lon="6.9252">
        <ele>1841.8</ele>
        <time>2022-08-16T12:51:59Z</time>
      </trkpt>
      <trkpt lat="44.40228" lon="6.92522">
        <ele>1842</ele>
        <time>2022-08-16T12:52:00Z</time>
      </trkpt>
      <trkpt lat="44.40229" lon="6.92524">
        <ele>1842.2</ele>
        <time>2022-08-16T12:52:01Z</time>
      </trkpt>
      <trkpt lat="44.40231" lon="6.92526">
        <ele>1842.6</ele>
        <time>2022-08-16T12:52:02Z</time>
      </trkpt>
      <trkpt lat="44.40232" lon="6.92528">
        <ele>1842.6</ele>
        <time>2022-08-16T12:52:03Z</time>
      </trkpt>
      <trkpt lat="44.40233" lon="6.9253">
        <ele>1842.8</ele>
        <time>2022-08-16T12:52:04Z</time>
      </trkpt>
      <trkpt lat="44.40235" lon="6.92533">
        <ele>1843</ele>
        <time>2022-08-16T12:52:05Z</time>
      </trkpt>
      <trkpt lat="44.40236" lon="6.92535">
        <ele>1843</ele>
        <time>2022-08-16T12:52:06Z</time>
      </trkpt>
      <trkpt lat="44.40237" lon="6.92538">
        <ele>1843.2</ele>
        <time>2022-08-16T12:52:07Z</time>
      </trkpt>
      <trkpt lat="44.40238" lon="6.9254">
        <ele>1843.4</ele>
        <time>2022-08-16T12:52:08Z</time>
      </trkpt>
      <trkpt lat="44.40239" lon="6.92543">
        <ele>1843.4</ele>
        <time>2022-08-16T12:52:09Z</time>
      </trkpt>
      <trkpt lat="44.4024" lon="6.92545">
        <ele>1843.6</ele>
        <time>2022-08-16T12:52:10Z</time>
      </trkpt>
      <trkpt lat="44.40241" lon="6.92548">
        <ele>1843.6</ele>
        <time>2022-08-16T12:52:11Z</time>
      </trkpt>
      <trkpt lat="44.40241" lon="6.92551">
        <ele>1843.8</ele>
        <time>2022-08-16T12:52:12Z</time>
      </trkpt>
      <trkpt lat="44.40242" lon="6.92554">
        <ele>1844</ele>
        <time>2022-08-16T12:52:13Z</time>
      </trkpt>
      <trkpt lat="44.40242" lon="6.92557">
        <ele>1844</ele>
        <time>2022-08-16T12:52:14Z</time>
      </trkpt>
      <trkpt lat="44.40243" lon="6.9256">
        <ele>1844</ele>
        <time>2022-08-16T12:52:15Z</time>
      </trkpt>
      <trkpt lat="44.40243" lon="6.92563">
        <ele>1844</ele>
        <time>2022-08-16T12:52:16Z</time>
      </trkpt>
      <trkpt lat="44.40243" lon="6.92566">
        <ele>1844.2</ele>
        <time>2022-08-16T12:52:17Z</time>
      </trkpt>
      <trkpt lat="44.40243" lon="6.92569">
        <ele>1844.2</ele>
        <time>2022-08-16T12:52:18Z</time>
      </trkpt>
      <trkpt lat="44.40243" lon="6.92572">
        <ele>1844.6</ele>
        <time>2022-08-16T12:52:19Z</time>
      </trkpt>
      <trkpt lat="44.40243" lon="6.92575">
        <ele>1844.6</ele>
        <time>2022-08-16T12:52:20Z</time>
      </trkpt>
      <trkpt lat="44.40243" lon="6.92578">
        <ele>1844.6</ele>
        <time>2022-08-16T12:52:21Z</time>
      </trkpt>
      <trkpt lat="44.40243" lon="6.92581">
        <ele>1844.8</ele>
        <time>2022-08-16T12:52:22Z</time>
      </trkpt>
      <trkpt lat="44.40243" lon="6.92584">
        <ele>1845</ele>
        <time>2022-08-16T12:52:23Z</time>
      </trkpt>
      <trkpt lat="44.40243" lon="6.92587">
        <ele>1845</ele>
        <time>2022-08-16T12:52:24Z</time>
      </trkpt>
      <trkpt lat="44.40243" lon="6.92589">
        <ele>1845.2</ele>
        <time>2022-08-16T12:52:25Z</time>
      </trkpt>
      <trkpt lat="44.40243" lon="6.92592">
        <ele>1845.4</ele>
        <time>2022-08-16T12:52:26Z</time>
      </trkpt>
      <trkpt lat="44.40243" lon="6.92595">
        <ele>1845.4</ele>
        <time>2022-08-16T12:52:27Z</time>
      </trkpt>
      <trkpt lat="44.40243" lon="6.92598">
        <ele>1845.4</ele>
        <time>2022-08-16T12:52:28Z</time>
      </trkpt>
      <trkpt lat="44.40243" lon="6.92601">
        <ele>1845.6</ele>
        <time>2022-08-16T12:52:29Z</time>
      </trkpt>
      <trkpt lat="44.40243" lon="6.92604">
        <ele>1845.8</ele>
        <time>2022-08-16T12:52:30Z</time>
      </trkpt>
      <trkpt lat="44.40242" lon="6.92607">
        <ele>1846.2</ele>
        <time>2022-08-16T12:52:31Z</time>
      </trkpt>
      <trkpt lat="44.40242" lon="6.9261">
        <ele>1846.2</ele>
        <time>2022-08-16T12:52:32Z</time>
      </trkpt>
      <trkpt lat="44.40242" lon="6.92613">
        <ele>1846.2</ele>
        <time>2022-08-16T12:52:33Z</time>
      </trkpt>
      <trkpt lat="44.40242" lon="6.92616">
        <ele>1846.6</ele>
        <time>2022-08-16T12:52:34Z</time>
      </trkpt>
      <trkpt lat="44.40242" lon="6.92619">
        <ele>1846.6</ele>
        <time>2022-08-16T12:52:35Z</time>
      </trkpt>
      <trkpt lat="44.40242" lon="6.92622">
        <ele>1846.8</ele>
        <time>2022-08-16T12:52:36Z</time>
      </trkpt>
      <trkpt lat="44.40242" lon="6.92625">
        <ele>1846.8</ele>
        <time>2022-08-16T12:52:37Z</time>
      </trkpt>
      <trkpt lat="44.40242" lon="6.92628">
        <ele>1846.8</ele>
        <time>2022-08-16T12:52:38Z</time>
      </trkpt>
      <trkpt lat="44.40242" lon="6.92631">
        <ele>1847</ele>
        <time>2022-08-16T12:52:39Z</time>
      </trkpt>
      <trkpt lat="44.40242" lon="6.92634">
        <ele>1847.2</ele>
        <time>2022-08-16T12:52:40Z</time>
      </trkpt>
      <trkpt lat="44.40242" lon="6.92637">
        <ele>1847.4</ele>
        <time>2022-08-16T12:52:41Z</time>
      </trkpt>
      <trkpt lat="44.40242" lon="6.9264">
        <ele>1847.6</ele>
        <time>2022-08-16T12:52:42Z</time>
      </trkpt>
      <trkpt lat="44.40242" lon="6.92643">
        <ele>1847.8</ele>
        <time>2022-08-16T12:52:43Z</time>
      </trkpt>
      <trkpt lat="44.40243" lon="6.92646">
        <ele>1847.8</ele>
        <time>2022-08-16T12:52:44Z</time>
      </trkpt>
      <trkpt lat="44.40243" lon="6.92649">
        <ele>1848</ele>
        <time>2022-08-16T12:52:45Z</time>
      </trkpt>
      <trkpt lat="44.40244" lon="6.92652">
        <ele>1848.2</ele>
        <time>2022-08-16T12:52:46Z</time>
      </trkpt>
      <trkpt lat="44.40244" lon="6.92654">
        <ele>1848.2</ele>
        <time>2022-08-16T12:52:47Z</time>
      </trkpt>
      <trkpt lat="44.40245" lon="6.92657">
        <ele>1848.2</ele>
        <time>2022-08-16T12:52:48Z</time>
      </trkpt>
      <trkpt lat="44.40247" lon="6.9266">
        <ele>1848.2</ele>
        <time>2022-08-16T12:52:49Z</time>
      </trkpt>
      <trkpt lat="44.40248" lon="6.92662">
        <ele>1848.2</ele>
        <time>2022-08-16T12:52:50Z</time>
      </trkpt>
      <trkpt lat="44.4025" lon="6.92664">
        <ele>1848.2</ele>
        <time>2022-08-16T12:52:51Z</time>
      </trkpt>
      <trkpt lat="44.40251" lon="6.92665">
        <ele>1848.4</ele>
        <time>2022-08-16T12:52:52Z</time>
      </trkpt>
      <trkpt lat="44.40253" lon="6.92667">
        <ele>1848.4</ele>
        <time>2022-08-16T12:52:53Z</time>
      </trkpt>
      <trkpt lat="44.40255" lon="6.92668">
        <ele>1848.6</ele>
        <time>2022-08-16T12:52:54Z</time>
      </trkpt>
      <trkpt lat="44.40257" lon="6.92669">
        <ele>1848.6</ele>
        <time>2022-08-16T12:52:55Z</time>
      </trkpt>
      <trkpt lat="44.40259" lon="6.9267">
        <ele>1848.8</ele>
        <time>2022-08-16T12:52:56Z</time>
      </trkpt>
      <trkpt lat="44.40261" lon="6.9267">
        <ele>1848.8</ele>
        <time>2022-08-16T12:52:57Z</time>
      </trkpt>
      <trkpt lat="44.40263" lon="6.9267">
        <ele>1849</ele>
        <time>2022-08-16T12:52:58Z</time>
      </trkpt>
      <trkpt lat="44.40265" lon="6.92669">
        <ele>1849</ele>
        <time>2022-08-16T12:52:59Z</time>
      </trkpt>
      <trkpt lat="44.40267" lon="6.92668">
        <ele>1849</ele>
        <time>2022-08-16T12:53:00Z</time>
      </trkpt>
      <trkpt lat="44.40269" lon="6.92667">
        <ele>1849.2</ele>
        <time>2022-08-16T12:53:01Z</time>
      </trkpt>
      <trkpt lat="44.40271" lon="6.92665">
        <ele>1849.4</ele>
        <time>2022-08-16T12:53:02Z</time>
      </trkpt>
      <trkpt lat="44.40273" lon="6.92663">
        <ele>1849.6</ele>
        <time>2022-08-16T12:53:03Z</time>
      </trkpt>
      <trkpt lat="44.40274" lon="6.92661">
        <ele>1849.8</ele>
        <time>2022-08-16T12:53:04Z</time>
      </trkpt>
      <trkpt lat="44.40276" lon="6.92659">
        <ele>1850</ele>
        <time>2022-08-16T12:53:05Z</time>
      </trkpt>
      <trkpt lat="44.40277" lon="6.92656">
        <ele>1850</ele>
        <time>2022-08-16T12:53:06Z</time>
      </trkpt>
      <trkpt lat="44.40278" lon="6.92653">
        <ele>1850.2</ele>
        <time>2022-08-16T12:53:07Z</time>
      </trkpt>
      <trkpt lat="44.40279" lon="6.92649">
        <ele>1850.4</ele>
        <time>2022-08-16T12:53:08Z</time>
      </trkpt>
      <trkpt lat="44.40279" lon="6.92646">
        <ele>1850.6</ele>
        <time>2022-08-16T12:53:09Z</time>
      </trkpt>
      <trkpt lat="44.4028" lon="6.92643">
        <ele>1850.8</ele>
        <time>2022-08-16T12:53:10Z</time>
      </trkpt>
      <trkpt lat="44.4028" lon="6.9264">
        <ele>1850.6</ele>
        <time>2022-08-16T12:53:11Z</time>
      </trkpt>
      <trkpt lat="44.4028" lon="6.92637">
        <ele>1850.8</ele>
        <time>2022-08-16T12:53:12Z</time>
      </trkpt>
      <trkpt lat="44.40276" lon="6.92609">
        <ele>1851</ele>
        <time>2022-08-16T12:53:20Z</time>
      </trkpt>
      <trkpt lat="44.40274" lon="6.92603">
        <ele>1851.2</ele>
        <time>2022-08-16T12:53:22Z</time>
      </trkpt>
      <trkpt lat="44.40273" lon="6.92592">
        <ele>1851.2</ele>
        <time>2022-08-16T12:53:25Z</time>
      </trkpt>
      <trkpt lat="44.40272" lon="6.92585">
        <ele>1851.4</ele>
        <time>2022-08-16T12:53:27Z</time>
      </trkpt>
      <trkpt lat="44.40272" lon="6.92581">
        <ele>1851.4</ele>
        <time>2022-08-16T12:53:28Z</time>
      </trkpt>
      <trkpt lat="44.4027" lon="6.92575">
        <ele>1851.6</ele>
        <time>2022-08-16T12:53:30Z</time>
      </trkpt>
      <trkpt lat="44.4027" lon="6.92564">
        <ele>1851.6</ele>
        <time>2022-08-16T12:53:33Z</time>
      </trkpt>
      <trkpt lat="44.40269" lon="6.92561">
        <ele>1851.6</ele>
        <time>2022-08-16T12:53:34Z</time>
      </trkpt>
      <trkpt lat="44.40269" lon="6.92554">
        <ele>1851.8</ele>
        <time>2022-08-16T12:53:36Z</time>
      </trkpt>
      <trkpt lat="44.40269" lon="6.9255">
        <ele>1852</ele>
        <time>2022-08-16T12:53:37Z</time>
      </trkpt>
      <trkpt lat="44.40269" lon="6.92546">
        <ele>1852.2</ele>
        <time>2022-08-16T12:53:38Z</time>
      </trkpt>
      <trkpt lat="44.40269" lon="6.92543">
        <ele>1852.4</ele>
        <time>2022-08-16T12:53:39Z</time>
      </trkpt>
      <trkpt lat="44.40269" lon="6.9254">
        <ele>1852.6</ele>
        <time>2022-08-16T12:53:40Z</time>
      </trkpt>
      <trkpt lat="44.4027" lon="6.92536">
        <ele>1852.8</ele>
        <time>2022-08-16T12:53:41Z</time>
      </trkpt>
      <trkpt lat="44.4027" lon="6.92533">
        <ele>1852.8</ele>
        <time>2022-08-16T12:53:42Z</time>
      </trkpt>
      <trkpt lat="44.4027" lon="6.9253">
        <ele>1853.2</ele>
        <time>2022-08-16T12:53:43Z</time>
      </trkpt>
      <trkpt lat="44.40271" lon="6.92527">
        <ele>1853.4</ele>
        <time>2022-08-16T12:53:44Z</time>
      </trkpt>
      <trkpt lat="44.40272" lon="6.92524">
        <ele>1853.4</ele>
        <time>2022-08-16T12:53:45Z</time>
      </trkpt>
      <trkpt lat="44.40272" lon="6.92521">
        <ele>1853.8</ele>
        <time>2022-08-16T12:53:46Z</time>
      </trkpt>
      <trkpt lat="44.40273" lon="6.92518">
        <ele>1854</ele>
        <time>2022-08-16T12:53:47Z</time>
      </trkpt>
      <trkpt lat="44.40274" lon="6.92515">
        <ele>1854.4</ele>
        <time>2022-08-16T12:53:48Z</time>
      </trkpt>
      <trkpt lat="44.40275" lon="6.92512">
        <ele>1854.4</ele>
        <time>2022-08-16T12:53:49Z</time>
      </trkpt>
      <trkpt lat="44.40276" lon="6.9251">
        <ele>1854.6</ele>
        <time>2022-08-16T12:53:50Z</time>
      </trkpt>
      <trkpt lat="44.40277" lon="6.92507">
        <ele>1854.8</ele>
        <time>2022-08-16T12:53:51Z</time>
      </trkpt>
      <trkpt lat="44.40279" lon="6.92505">
        <ele>1855.2</ele>
        <time>2022-08-16T12:53:52Z</time>
      </trkpt>
      <trkpt lat="44.4028" lon="6.92502">
        <ele>1855.2</ele>
        <time>2022-08-16T12:53:53Z</time>
      </trkpt>
      <trkpt lat="44.40281" lon="6.925">
        <ele>1855.4</ele>
        <time>2022-08-16T12:53:54Z</time>
      </trkpt>
      <trkpt lat="44.40283" lon="6.92498">
        <ele>1855.4</ele>
        <time>2022-08-16T12:53:55Z</time>
      </trkpt>
      <trkpt lat="44.40284" lon="6.92495">
        <ele>1855.6</ele>
        <time>2022-08-16T12:53:56Z</time>
      </trkpt>
      <trkpt lat="44.40285" lon="6.92493">
        <ele>1856</ele>
        <time>2022-08-16T12:53:57Z</time>
      </trkpt>
      <trkpt lat="44.40287" lon="6.92491">
        <ele>1856.2</ele>
        <time>2022-08-16T12:53:58Z</time>
      </trkpt>
      <trkpt lat="44.40288" lon="6.92489">
        <ele>1856.4</ele>
        <time>2022-08-16T12:53:59Z</time>
      </trkpt>
      <trkpt lat="44.4029" lon="6.92487">
        <ele>1856.6</ele>
        <time>2022-08-16T12:54:00Z</time>
      </trkpt>
      <trkpt lat="44.40292" lon="6.92485">
        <ele>1856.6</ele>
        <time>2022-08-16T12:54:01Z</time>
      </trkpt>
      <trkpt lat="44.40294" lon="6.92483">
        <ele>1856.6</ele>
        <time>2022-08-16T12:54:02Z</time>
      </trkpt>
      <trkpt lat="44.40296" lon="6.92482">
        <ele>1856.8</ele>
        <time>2022-08-16T12:54:03Z</time>
      </trkpt>
      <trkpt lat="44.40297" lon="6.9248">
        <ele>1857.2</ele>
        <time>2022-08-16T12:54:04Z</time>
      </trkpt>
      <trkpt lat="44.40299" lon="6.92478">
        <ele>1857.2</ele>
        <time>2022-08-16T12:54:05Z</time>
      </trkpt>
      <trkpt lat="44.40301" lon="6.92477">
        <ele>1857.4</ele>
        <time>2022-08-16T12:54:06Z</time>
      </trkpt>
      <trkpt lat="44.40303" lon="6.92475">
        <ele>1857.4</ele>
        <time>2022-08-16T12:54:07Z</time>
      </trkpt>
      <trkpt lat="44.40305" lon="6.92473">
        <ele>1857.6</ele>
        <time>2022-08-16T12:54:08Z</time>
      </trkpt>
      <trkpt lat="44.40307" lon="6.92471">
        <ele>1857.6</ele>
        <time>2022-08-16T12:54:09Z</time>
      </trkpt>
      <trkpt lat="44.40309" lon="6.9247">
        <ele>1857.6</ele>
        <time>2022-08-16T12:54:10Z</time>
      </trkpt>
      <trkpt lat="44.40312" lon="6.92468">
        <ele>1857.8</ele>
        <time>2022-08-16T12:54:11Z</time>
      </trkpt>
      <trkpt lat="44.40314" lon="6.92467">
        <ele>1858</ele>
        <time>2022-08-16T12:54:12Z</time>
      </trkpt>
      <trkpt lat="44.40316" lon="6.92465">
        <ele>1858</ele>
        <time>2022-08-16T12:54:13Z</time>
      </trkpt>
      <trkpt lat="44.40317" lon="6.92464">
        <ele>1858.4</ele>
        <time>2022-08-16T12:54:14Z</time>
      </trkpt>
      <trkpt lat="44.40319" lon="6.92463">
        <ele>1858.6</ele>
        <time>2022-08-16T12:54:15Z</time>
      </trkpt>
      <trkpt lat="44.40321" lon="6.92462">
        <ele>1858.8</ele>
        <time>2022-08-16T12:54:16Z</time>
      </trkpt>
      <trkpt lat="44.40323" lon="6.92461">
        <ele>1859</ele>
        <time>2022-08-16T12:54:17Z</time>
      </trkpt>
      <trkpt lat="44.40325" lon="6.9246">
        <ele>1859</ele>
        <time>2022-08-16T12:54:18Z</time>
      </trkpt>
      <trkpt lat="44.40327" lon="6.92459">
        <ele>1859</ele>
        <time>2022-08-16T12:54:19Z</time>
      </trkpt>
      <trkpt lat="44.40329" lon="6.92458">
        <ele>1859.2</ele>
        <time>2022-08-16T12:54:20Z</time>
      </trkpt>
      <trkpt lat="44.40331" lon="6.92456">
        <ele>1859.4</ele>
        <time>2022-08-16T12:54:21Z</time>
      </trkpt>
      <trkpt lat="44.40333" lon="6.92455">
        <ele>1859.4</ele>
        <time>2022-08-16T12:54:22Z</time>
      </trkpt>
      <trkpt lat="44.40335" lon="6.92455">
        <ele>1859.4</ele>
        <time>2022-08-16T12:54:23Z</time>
      </trkpt>
      <trkpt lat="44.40337" lon="6.92454">
        <ele>1859.6</ele>
        <time>2022-08-16T12:54:24Z</time>
      </trkpt>
      <trkpt lat="44.40339" lon="6.92453">
        <ele>1859.6</ele>
        <time>2022-08-16T12:54:25Z</time>
      </trkpt>
      <trkpt lat="44.40342" lon="6.92452">
        <ele>1859.6</ele>
        <time>2022-08-16T12:54:26Z</time>
      </trkpt>
      <trkpt lat="44.40344" lon="6.92451">
        <ele>1859.8</ele>
        <time>2022-08-16T12:54:27Z</time>
      </trkpt>
      <trkpt lat="44.40346" lon="6.9245">
        <ele>1860</ele>
        <time>2022-08-16T12:54:28Z</time>
      </trkpt>
      <trkpt lat="44.40348" lon="6.92449">
        <ele>1860</ele>
        <time>2022-08-16T12:54:29Z</time>
      </trkpt>
      <trkpt lat="44.4035" lon="6.92449">
        <ele>1860.6</ele>
        <time>2022-08-16T12:54:30Z</time>
      </trkpt>
      <trkpt lat="44.40352" lon="6.92448">
        <ele>1860.8</ele>
        <time>2022-08-16T12:54:31Z</time>
      </trkpt>
      <trkpt lat="44.40354" lon="6.92447">
        <ele>1861</ele>
        <time>2022-08-16T12:54:32Z</time>
      </trkpt>
      <trkpt lat="44.40356" lon="6.92447">
        <ele>1861.2</ele>
        <time>2022-08-16T12:54:33Z</time>
      </trkpt>
      <trkpt lat="44.40358" lon="6.92446">
        <ele>1861.2</ele>
        <time>2022-08-16T12:54:34Z</time>
      </trkpt>
      <trkpt lat="44.4036" lon="6.92446">
        <ele>1861.4</ele>
        <time>2022-08-16T12:54:35Z</time>
      </trkpt>
      <trkpt lat="44.40362" lon="6.92446">
        <ele>1861.4</ele>
        <time>2022-08-16T12:54:36Z</time>
      </trkpt>
      <trkpt lat="44.40364" lon="6.92445">
        <ele>1861.6</ele>
        <time>2022-08-16T12:54:37Z</time>
      </trkpt>
      <trkpt lat="44.40366" lon="6.92445">
        <ele>1861.8</ele>
        <time>2022-08-16T12:54:38Z</time>
      </trkpt>
      <trkpt lat="44.40369" lon="6.92444">
        <ele>1862</ele>
        <time>2022-08-16T12:54:39Z</time>
      </trkpt>
      <trkpt lat="44.40371" lon="6.92444">
        <ele>1862.2</ele>
        <time>2022-08-16T12:54:40Z</time>
      </trkpt>
      <trkpt lat="44.40373" lon="6.92443">
        <ele>1862.2</ele>
        <time>2022-08-16T12:54:41Z</time>
      </trkpt>
      <trkpt lat="44.40375" lon="6.92442">
        <ele>1862.4</ele>
        <time>2022-08-16T12:54:42Z</time>
      </trkpt>
      <trkpt lat="44.40377" lon="6.92441">
        <ele>1862.6</ele>
        <time>2022-08-16T12:54:43Z</time>
      </trkpt>
      <trkpt lat="44.40379" lon="6.92439">
        <ele>1862.6</ele>
        <time>2022-08-16T12:54:44Z</time>
      </trkpt>
      <trkpt lat="44.40381" lon="6.92438">
        <ele>1862.8</ele>
        <time>2022-08-16T12:54:45Z</time>
      </trkpt>
      <trkpt lat="44.40383" lon="6.92436">
        <ele>1863</ele>
        <time>2022-08-16T12:54:46Z</time>
      </trkpt>
      <trkpt lat="44.40385" lon="6.92434">
        <ele>1863.2</ele>
        <time>2022-08-16T12:54:47Z</time>
      </trkpt>
      <trkpt lat="44.40388" lon="6.92433">
        <ele>1863.2</ele>
        <time>2022-08-16T12:54:48Z</time>
      </trkpt>
      <trkpt lat="44.40389" lon="6.9243">
        <ele>1863.2</ele>
        <time>2022-08-16T12:54:49Z</time>
      </trkpt>
      <trkpt lat="44.40391" lon="6.92428">
        <ele>1863.6</ele>
        <time>2022-08-16T12:54:50Z</time>
      </trkpt>
      <trkpt lat="44.40393" lon="6.92425">
        <ele>1863.6</ele>
        <time>2022-08-16T12:54:51Z</time>
      </trkpt>
      <trkpt lat="44.40395" lon="6.92423">
        <ele>1863.8</ele>
        <time>2022-08-16T12:54:52Z</time>
      </trkpt>
      <trkpt lat="44.40397" lon="6.9242">
        <ele>1864</ele>
        <time>2022-08-16T12:54:53Z</time>
      </trkpt>
      <trkpt lat="44.40398" lon="6.92417">
        <ele>1864.2</ele>
        <time>2022-08-16T12:54:54Z</time>
      </trkpt>
      <trkpt lat="44.404" lon="6.92415">
        <ele>1864.2</ele>
        <time>2022-08-16T12:54:55Z</time>
      </trkpt>
      <trkpt lat="44.40401" lon="6.92412">
        <ele>1864.4</ele>
        <time>2022-08-16T12:54:56Z</time>
      </trkpt>
      <trkpt lat="44.40403" lon="6.92409">
        <ele>1864.4</ele>
        <time>2022-08-16T12:54:57Z</time>
      </trkpt>
      <trkpt lat="44.40405" lon="6.92407">
        <ele>1864.4</ele>
        <time>2022-08-16T12:54:58Z</time>
      </trkpt>
      <trkpt lat="44.40407" lon="6.92404">
        <ele>1864.8</ele>
        <time>2022-08-16T12:54:59Z</time>
      </trkpt>
      <trkpt lat="44.40408" lon="6.92402">
        <ele>1865</ele>
        <time>2022-08-16T12:55:00Z</time>
      </trkpt>
      <trkpt lat="44.4041" lon="6.92399">
        <ele>1865</ele>
        <time>2022-08-16T12:55:01Z</time>
      </trkpt>
      <trkpt lat="44.40412" lon="6.92397">
        <ele>1865</ele>
        <time>2022-08-16T12:55:02Z</time>
      </trkpt>
      <trkpt lat="44.40413" lon="6.92395">
        <ele>1865.2</ele>
        <time>2022-08-16T12:55:03Z</time>
      </trkpt>
      <trkpt lat="44.40415" lon="6.92393">
        <ele>1865.4</ele>
        <time>2022-08-16T12:55:04Z</time>
      </trkpt>
      <trkpt lat="44.40417" lon="6.9239">
        <ele>1865.4</ele>
        <time>2022-08-16T12:55:05Z</time>
      </trkpt>
      <trkpt lat="44.40418" lon="6.92388">
        <ele>1865.6</ele>
        <time>2022-08-16T12:55:06Z</time>
      </trkpt>
      <trkpt lat="44.4042" lon="6.92386">
        <ele>1865.6</ele>
        <time>2022-08-16T12:55:07Z</time>
      </trkpt>
      <trkpt lat="44.40421" lon="6.92383">
        <ele>1865.8</ele>
        <time>2022-08-16T12:55:08Z</time>
      </trkpt>
      <trkpt lat="44.40423" lon="6.92381">
        <ele>1866.4</ele>
        <time>2022-08-16T12:55:09Z</time>
      </trkpt>
      <trkpt lat="44.40424" lon="6.92379">
        <ele>1866.6</ele>
        <time>2022-08-16T12:55:10Z</time>
      </trkpt>
      <trkpt lat="44.40426" lon="6.92377">
        <ele>1866.8</ele>
        <time>2022-08-16T12:55:11Z</time>
      </trkpt>
      <trkpt lat="44.40427" lon="6.92375">
        <ele>1866.8</ele>
        <time>2022-08-16T12:55:12Z</time>
      </trkpt>
      <trkpt lat="44.40429" lon="6.92373">
        <ele>1866.8</ele>
        <time>2022-08-16T12:55:13Z</time>
      </trkpt>
      <trkpt lat="44.40431" lon="6.92372">
        <ele>1866.8</ele>
        <time>2022-08-16T12:55:14Z</time>
      </trkpt>
      <trkpt lat="44.40433" lon="6.9237">
        <ele>1866.8</ele>
        <time>2022-08-16T12:55:15Z</time>
      </trkpt>
      <trkpt lat="44.40435" lon="6.92369">
        <ele>1867</ele>
        <time>2022-08-16T12:55:16Z</time>
      </trkpt>
      <trkpt lat="44.40436" lon="6.92367">
        <ele>1867.2</ele>
        <time>2022-08-16T12:55:17Z</time>
      </trkpt>
      <trkpt lat="44.40438" lon="6.92365">
        <ele>1867.2</ele>
        <time>2022-08-16T12:55:18Z</time>
      </trkpt>
      <trkpt lat="44.4044" lon="6.92364">
        <ele>1867.8</ele>
        <time>2022-08-16T12:55:19Z</time>
      </trkpt>
      <trkpt lat="44.40441" lon="6.92363">
        <ele>1868</ele>
        <time>2022-08-16T12:55:20Z</time>
      </trkpt>
      <trkpt lat="44.40443" lon="6.92362">
        <ele>1868.2</ele>
        <time>2022-08-16T12:55:21Z</time>
      </trkpt>
      <trkpt lat="44.40445" lon="6.9236">
        <ele>1868.4</ele>
        <time>2022-08-16T12:55:22Z</time>
      </trkpt>
      <trkpt lat="44.40447" lon="6.92359">
        <ele>1868.6</ele>
        <time>2022-08-16T12:55:23Z</time>
      </trkpt>
      <trkpt lat="44.40448" lon="6.92358">
        <ele>1868.8</ele>
        <time>2022-08-16T12:55:24Z</time>
      </trkpt>
      <trkpt lat="44.4045" lon="6.92356">
        <ele>1868.8</ele>
        <time>2022-08-16T12:55:25Z</time>
      </trkpt>
      <trkpt lat="44.40452" lon="6.92355">
        <ele>1868.8</ele>
        <time>2022-08-16T12:55:26Z</time>
      </trkpt>
      <trkpt lat="44.40454" lon="6.92354">
        <ele>1869</ele>
        <time>2022-08-16T12:55:27Z</time>
      </trkpt>
      <trkpt lat="44.40455" lon="6.92353">
        <ele>1869.2</ele>
        <time>2022-08-16T12:55:28Z</time>
      </trkpt>
      <trkpt lat="44.40457" lon="6.92351">
        <ele>1869.4</ele>
        <time>2022-08-16T12:55:29Z</time>
      </trkpt>
      <trkpt lat="44.40459" lon="6.9235">
        <ele>1869.4</ele>
        <time>2022-08-16T12:55:30Z</time>
      </trkpt>
      <trkpt lat="44.40461" lon="6.92348">
        <ele>1869.6</ele>
        <time>2022-08-16T12:55:31Z</time>
      </trkpt>
      <trkpt lat="44.40463" lon="6.92347">
        <ele>1869.8</ele>
        <time>2022-08-16T12:55:32Z</time>
      </trkpt>
      <trkpt lat="44.40464" lon="6.92346">
        <ele>1870</ele>
        <time>2022-08-16T12:55:33Z</time>
      </trkpt>
      <trkpt lat="44.40466" lon="6.92345">
        <ele>1870</ele>
        <time>2022-08-16T12:55:34Z</time>
      </trkpt>
      <trkpt lat="44.40468" lon="6.92343">
        <ele>1870.2</ele>
        <time>2022-08-16T12:55:35Z</time>
      </trkpt>
      <trkpt lat="44.4047" lon="6.92341">
        <ele>1870.2</ele>
        <time>2022-08-16T12:55:36Z</time>
      </trkpt>
      <trkpt lat="44.40471" lon="6.9234">
        <ele>1870.2</ele>
        <time>2022-08-16T12:55:37Z</time>
      </trkpt>
      <trkpt lat="44.40473" lon="6.92339">
        <ele>1870.2</ele>
        <time>2022-08-16T12:55:38Z</time>
      </trkpt>
      <trkpt lat="44.40475" lon="6.92337">
        <ele>1870.4</ele>
        <time>2022-08-16T12:55:39Z</time>
      </trkpt>
      <trkpt lat="44.40476" lon="6.92336">
        <ele>1870.6</ele>
        <time>2022-08-16T12:55:40Z</time>
      </trkpt>
      <trkpt lat="44.40478" lon="6.92335">
        <ele>1870.6</ele>
        <time>2022-08-16T12:55:41Z</time>
      </trkpt>
      <trkpt lat="44.4048" lon="6.92334">
        <ele>1870.8</ele>
        <time>2022-08-16T12:55:42Z</time>
      </trkpt>
      <trkpt lat="44.40482" lon="6.92332">
        <ele>1871</ele>
        <time>2022-08-16T12:55:43Z</time>
      </trkpt>
      <trkpt lat="44.40483" lon="6.9233">
        <ele>1871.2</ele>
        <time>2022-08-16T12:55:44Z</time>
      </trkpt>
      <trkpt lat="44.40485" lon="6.92329">
        <ele>1871.4</ele>
        <time>2022-08-16T12:55:45Z</time>
      </trkpt>
      <trkpt lat="44.40487" lon="6.92327">
        <ele>1871.6</ele>
        <time>2022-08-16T12:55:46Z</time>
      </trkpt>
      <trkpt lat="44.40488" lon="6.92325">
        <ele>1871.8</ele>
        <time>2022-08-16T12:55:47Z</time>
      </trkpt>
      <trkpt lat="44.4049" lon="6.92323">
        <ele>1871.8</ele>
        <time>2022-08-16T12:55:48Z</time>
      </trkpt>
      <trkpt lat="44.40492" lon="6.92321">
        <ele>1872</ele>
        <time>2022-08-16T12:55:49Z</time>
      </trkpt>
      <trkpt lat="44.40493" lon="6.92319">
        <ele>1872.2</ele>
        <time>2022-08-16T12:55:50Z</time>
      </trkpt>
      <trkpt lat="44.40495" lon="6.92317">
        <ele>1872.4</ele>
        <time>2022-08-16T12:55:51Z</time>
      </trkpt>
      <trkpt lat="44.40496" lon="6.92316">
        <ele>1872.6</ele>
        <time>2022-08-16T12:55:52Z</time>
      </trkpt>
      <trkpt lat="44.40498" lon="6.92314">
        <ele>1872.6</ele>
        <time>2022-08-16T12:55:53Z</time>
      </trkpt>
      <trkpt lat="44.40499" lon="6.92312">
        <ele>1872.6</ele>
        <time>2022-08-16T12:55:54Z</time>
      </trkpt>
      <trkpt lat="44.405" lon="6.9231">
        <ele>1872.8</ele>
        <time>2022-08-16T12:55:55Z</time>
      </trkpt>
      <trkpt lat="44.40501" lon="6.92307">
        <ele>1873</ele>
        <time>2022-08-16T12:55:56Z</time>
      </trkpt>
      <trkpt lat="44.40503" lon="6.92305">
        <ele>1873.2</ele>
        <time>2022-08-16T12:55:57Z</time>
      </trkpt>
      <trkpt lat="44.40504" lon="6.92302">
        <ele>1873.2</ele>
        <time>2022-08-16T12:55:58Z</time>
      </trkpt>
      <trkpt lat="44.40506" lon="6.923">
        <ele>1873.4</ele>
        <time>2022-08-16T12:55:59Z</time>
      </trkpt>
      <trkpt lat="44.40507" lon="6.92298">
        <ele>1873.4</ele>
        <time>2022-08-16T12:56:00Z</time>
      </trkpt>
      <trkpt lat="44.40508" lon="6.92295">
        <ele>1873.6</ele>
        <time>2022-08-16T12:56:01Z</time>
      </trkpt>
      <trkpt lat="44.4051" lon="6.92293">
        <ele>1873.8</ele>
        <time>2022-08-16T12:56:02Z</time>
      </trkpt>
      <trkpt lat="44.40511" lon="6.92291">
        <ele>1873.8</ele>
        <time>2022-08-16T12:56:03Z</time>
      </trkpt>
      <trkpt lat="44.40512" lon="6.92289">
        <ele>1874</ele>
        <time>2022-08-16T12:56:04Z</time>
      </trkpt>
      <trkpt lat="44.40514" lon="6.92286">
        <ele>1874</ele>
        <time>2022-08-16T12:56:05Z</time>
      </trkpt>
      <trkpt lat="44.40515" lon="6.92284">
        <ele>1874</ele>
        <time>2022-08-16T12:56:06Z</time>
      </trkpt>
      <trkpt lat="44.40516" lon="6.92282">
        <ele>1874.2</ele>
        <time>2022-08-16T12:56:07Z</time>
      </trkpt>
      <trkpt lat="44.40517" lon="6.92279">
        <ele>1874.2</ele>
        <time>2022-08-16T12:56:08Z</time>
      </trkpt>
      <trkpt lat="44.40519" lon="6.92277">
        <ele>1874.4</ele>
        <time>2022-08-16T12:56:09Z</time>
      </trkpt>
      <trkpt lat="44.4052" lon="6.92274">
        <ele>1874.4</ele>
        <time>2022-08-16T12:56:10Z</time>
      </trkpt>
      <trkpt lat="44.40521" lon="6.92272">
        <ele>1874.6</ele>
        <time>2022-08-16T12:56:11Z</time>
      </trkpt>
      <trkpt lat="44.40522" lon="6.9227">
        <ele>1874.6</ele>
        <time>2022-08-16T12:56:12Z</time>
      </trkpt>
      <trkpt lat="44.40524" lon="6.92267">
        <ele>1874.8</ele>
        <time>2022-08-16T12:56:13Z</time>
      </trkpt>
      <trkpt lat="44.40525" lon="6.92265">
        <ele>1875</ele>
        <time>2022-08-16T12:56:14Z</time>
      </trkpt>
      <trkpt lat="44.40526" lon="6.92262">
        <ele>1875.2</ele>
        <time>2022-08-16T12:56:15Z</time>
      </trkpt>
      <trkpt lat="44.40527" lon="6.92259">
        <ele>1875.4</ele>
        <time>2022-08-16T12:56:16Z</time>
      </trkpt>
      <trkpt lat="44.40528" lon="6.92257">
        <ele>1875.6</ele>
        <time>2022-08-16T12:56:17Z</time>
      </trkpt>
      <trkpt lat="44.40529" lon="6.92255">
        <ele>1875.8</ele>
        <time>2022-08-16T12:56:18Z</time>
      </trkpt>
      <trkpt lat="44.4053" lon="6.92252">
        <ele>1875.8</ele>
        <time>2022-08-16T12:56:19Z</time>
      </trkpt>
      <trkpt lat="44.40531" lon="6.9225">
        <ele>1875.8</ele>
        <time>2022-08-16T12:56:20Z</time>
      </trkpt>
      <trkpt lat="44.40532" lon="6.92247">
        <ele>1876</ele>
        <time>2022-08-16T12:56:21Z</time>
      </trkpt>
      <trkpt lat="44.40533" lon="6.92245">
        <ele>1876</ele>
        <time>2022-08-16T12:56:22Z</time>
      </trkpt>
      <trkpt lat="44.40534" lon="6.92242">
        <ele>1876</ele>
        <time>2022-08-16T12:56:23Z</time>
      </trkpt>
      <trkpt lat="44.40535" lon="6.9224">
        <ele>1876.4</ele>
        <time>2022-08-16T12:56:24Z</time>
      </trkpt>
      <trkpt lat="44.40536" lon="6.92238">
        <ele>1876.2</ele>
        <time>2022-08-16T12:56:25Z</time>
      </trkpt>
      <trkpt lat="44.40537" lon="6.92235">
        <ele>1876.6</ele>
        <time>2022-08-16T12:56:26Z</time>
      </trkpt>
      <trkpt lat="44.40537" lon="6.92232">
        <ele>1876.6</ele>
        <time>2022-08-16T12:56:27Z</time>
      </trkpt>
      <trkpt lat="44.40538" lon="6.9223">
        <ele>1876.6</ele>
        <time>2022-08-16T12:56:28Z</time>
      </trkpt>
      <trkpt lat="44.40538" lon="6.92227">
        <ele>1877</ele>
        <time>2022-08-16T12:56:29Z</time>
      </trkpt>
      <trkpt lat="44.40539" lon="6.92224">
        <ele>1877.2</ele>
        <time>2022-08-16T12:56:30Z</time>
      </trkpt>
      <trkpt lat="44.40539" lon="6.92222">
        <ele>1877.2</ele>
        <time>2022-08-16T12:56:31Z</time>
      </trkpt>
      <trkpt lat="44.4054" lon="6.92219">
        <ele>1877.2</ele>
        <time>2022-08-16T12:56:32Z</time>
      </trkpt>
      <trkpt lat="44.40541" lon="6.92216">
        <ele>1877.6</ele>
        <time>2022-08-16T12:56:33Z</time>
      </trkpt>
      <trkpt lat="44.40541" lon="6.92213">
        <ele>1877.6</ele>
        <time>2022-08-16T12:56:34Z</time>
      </trkpt>
      <trkpt lat="44.40542" lon="6.92211">
        <ele>1878</ele>
        <time>2022-08-16T12:56:35Z</time>
      </trkpt>
      <trkpt lat="44.40542" lon="6.92208">
        <ele>1878</ele>
        <time>2022-08-16T12:56:36Z</time>
      </trkpt>
      <trkpt lat="44.40543" lon="6.92206">
        <ele>1878.2</ele>
        <time>2022-08-16T12:56:37Z</time>
      </trkpt>
      <trkpt lat="44.40543" lon="6.92204">
        <ele>1878.6</ele>
        <time>2022-08-16T12:56:38Z</time>
      </trkpt>
      <trkpt lat="44.40544" lon="6.92201">
        <ele>1878.6</ele>
        <time>2022-08-16T12:56:39Z</time>
      </trkpt>
      <trkpt lat="44.40545" lon="6.92198">
        <ele>1878.8</ele>
        <time>2022-08-16T12:56:40Z</time>
      </trkpt>
      <trkpt lat="44.40545" lon="6.92195">
        <ele>1879</ele>
        <time>2022-08-16T12:56:41Z</time>
      </trkpt>
      <trkpt lat="44.40546" lon="6.92193">
        <ele>1879</ele>
        <time>2022-08-16T12:56:42Z</time>
      </trkpt>
      <trkpt lat="44.40546" lon="6.9219">
        <ele>1879</ele>
        <time>2022-08-16T12:56:43Z</time>
      </trkpt>
      <trkpt lat="44.40547" lon="6.92187">
        <ele>1879.2</ele>
        <time>2022-08-16T12:56:44Z</time>
      </trkpt>
      <trkpt lat="44.40547" lon="6.92184">
        <ele>1879.4</ele>
        <time>2022-08-16T12:56:45Z</time>
      </trkpt>
      <trkpt lat="44.40548" lon="6.92181">
        <ele>1879.4</ele>
        <time>2022-08-16T12:56:46Z</time>
      </trkpt>
      <trkpt lat="44.40548" lon="6.92178">
        <ele>1879.6</ele>
        <time>2022-08-16T12:56:47Z</time>
      </trkpt>
      <trkpt lat="44.40549" lon="6.92176">
        <ele>1880</ele>
        <time>2022-08-16T12:56:48Z</time>
      </trkpt>
      <trkpt lat="44.4055" lon="6.92173">
        <ele>1880</ele>
        <time>2022-08-16T12:56:49Z</time>
      </trkpt>
      <trkpt lat="44.40551" lon="6.9217">
        <ele>1880.2</ele>
        <time>2022-08-16T12:56:50Z</time>
      </trkpt>
      <trkpt lat="44.40552" lon="6.92168">
        <ele>1880.4</ele>
        <time>2022-08-16T12:56:51Z</time>
      </trkpt>
      <trkpt lat="44.40552" lon="6.92165">
        <ele>1880.4</ele>
        <time>2022-08-16T12:56:52Z</time>
      </trkpt>
      <trkpt lat="44.40553" lon="6.92162">
        <ele>1880.6</ele>
        <time>2022-08-16T12:56:53Z</time>
      </trkpt>
      <trkpt lat="44.40554" lon="6.9216">
        <ele>1880.8</ele>
        <time>2022-08-16T12:56:54Z</time>
      </trkpt>
      <trkpt lat="44.40555" lon="6.92158">
        <ele>1881</ele>
        <time>2022-08-16T12:56:55Z</time>
      </trkpt>
      <trkpt lat="44.40556" lon="6.92157">
        <ele>1881.2</ele>
        <time>2022-08-16T12:56:56Z</time>
      </trkpt>
      <trkpt lat="44.40557" lon="6.92155">
        <ele>1881.4</ele>
        <time>2022-08-16T12:56:57Z</time>
      </trkpt>
      <trkpt lat="44.40559" lon="6.92154">
        <ele>1881.8</ele>
        <time>2022-08-16T12:56:58Z</time>
      </trkpt>
      <trkpt lat="44.4056" lon="6.92154">
        <ele>1882</ele>
        <time>2022-08-16T12:56:59Z</time>
      </trkpt>
      <trkpt lat="44.40561" lon="6.92155">
        <ele>1882</ele>
        <time>2022-08-16T12:57:00Z</time>
      </trkpt>
      <trkpt lat="44.40562" lon="6.92157">
        <ele>1882.4</ele>
        <time>2022-08-16T12:57:01Z</time>
      </trkpt>
      <trkpt lat="44.40562" lon="6.92159">
        <ele>1882.6</ele>
        <time>2022-08-16T12:57:02Z</time>
      </trkpt>
      <trkpt lat="44.40562" lon="6.92161">
        <ele>1882.8</ele>
        <time>2022-08-16T12:57:03Z</time>
      </trkpt>
      <trkpt lat="44.40561" lon="6.92163">
        <ele>1882.8</ele>
        <time>2022-08-16T12:57:04Z</time>
      </trkpt>
      <trkpt lat="44.40561" lon="6.92166">
        <ele>1882.8</ele>
        <time>2022-08-16T12:57:05Z</time>
      </trkpt>
      <trkpt lat="44.4056" lon="6.92167">
        <ele>1883</ele>
        <time>2022-08-16T12:57:06Z</time>
      </trkpt>
      <trkpt lat="44.40559" lon="6.92169">
        <ele>1883.2</ele>
        <time>2022-08-16T12:57:07Z</time>
      </trkpt>
      <trkpt lat="44.40559" lon="6.92171">
        <ele>1883.4</ele>
        <time>2022-08-16T12:57:08Z</time>
      </trkpt>
      <trkpt lat="44.40558" lon="6.92173">
        <ele>1883.4</ele>
        <time>2022-08-16T12:57:09Z</time>
      </trkpt>
      <trkpt lat="44.40558" lon="6.92175">
        <ele>1883.6</ele>
        <time>2022-08-16T12:57:10Z</time>
      </trkpt>
      <trkpt lat="44.40557" lon="6.92177">
        <ele>1884.2</ele>
        <time>2022-08-16T12:57:11Z</time>
      </trkpt>
      <trkpt lat="44.40556" lon="6.92179">
        <ele>1884.6</ele>
        <time>2022-08-16T12:57:12Z</time>
      </trkpt>
      <trkpt lat="44.40556" lon="6.92181">
        <ele>1884.8</ele>
        <time>2022-08-16T12:57:13Z</time>
      </trkpt>
      <trkpt lat="44.40555" lon="6.92183">
        <ele>1885.2</ele>
        <time>2022-08-16T12:57:14Z</time>
      </trkpt>
      <trkpt lat="44.40555" lon="6.92186">
        <ele>1885.2</ele>
        <time>2022-08-16T12:57:15Z</time>
      </trkpt>
      <trkpt lat="44.40555" lon="6.92188">
        <ele>1885.2</ele>
        <time>2022-08-16T12:57:16Z</time>
      </trkpt>
      <trkpt lat="44.40554" lon="6.9219">
        <ele>1885.4</ele>
        <time>2022-08-16T12:57:17Z</time>
      </trkpt>
      <trkpt lat="44.40553" lon="6.92192">
        <ele>1885.6</ele>
        <time>2022-08-16T12:57:18Z</time>
      </trkpt>
      <trkpt lat="44.40553" lon="6.92194">
        <ele>1885.6</ele>
        <time>2022-08-16T12:57:19Z</time>
      </trkpt>
      <trkpt lat="44.40552" lon="6.92196">
        <ele>1885.8</ele>
        <time>2022-08-16T12:57:20Z</time>
      </trkpt>
      <trkpt lat="44.40552" lon="6.92198">
        <ele>1885.8</ele>
        <time>2022-08-16T12:57:21Z</time>
      </trkpt>
      <trkpt lat="44.40551" lon="6.922">
        <ele>1886</ele>
        <time>2022-08-16T12:57:22Z</time>
      </trkpt>
      <trkpt lat="44.4055" lon="6.92203">
        <ele>1886.2</ele>
        <time>2022-08-16T12:57:23Z</time>
      </trkpt>
      <trkpt lat="44.4055" lon="6.92205">
        <ele>1886.2</ele>
        <time>2022-08-16T12:57:24Z</time>
      </trkpt>
      <trkpt lat="44.4055" lon="6.92208">
        <ele>1886.4</ele>
        <time>2022-08-16T12:57:25Z</time>
      </trkpt>
      <trkpt lat="44.40549" lon="6.9221">
        <ele>1886.4</ele>
        <time>2022-08-16T12:57:26Z</time>
      </trkpt>
      <trkpt lat="44.40549" lon="6.92213">
        <ele>1886.4</ele>
        <time>2022-08-16T12:57:27Z</time>
      </trkpt>
      <trkpt lat="44.40548" lon="6.92215">
        <ele>1886.6</ele>
        <time>2022-08-16T12:57:28Z</time>
      </trkpt>
      <trkpt lat="44.40548" lon="6.9222">
        <ele>1886.6</ele>
        <time>2022-08-16T12:57:30Z</time>
      </trkpt>
      <trkpt lat="44.40547" lon="6.92226">
        <ele>1886.6</ele>
        <time>2022-08-16T12:57:32Z</time>
      </trkpt>
      <trkpt lat="44.40548" lon="6.92228">
        <ele>1886.6</ele>
        <time>2022-08-16T12:57:33Z</time>
      </trkpt>
      <trkpt lat="44.40548" lon="6.9223">
        <ele>1886.8</ele>
        <time>2022-08-16T12:57:34Z</time>
      </trkpt>
      <trkpt lat="44.40549" lon="6.92232">
        <ele>1886.6</ele>
        <time>2022-08-16T12:57:35Z</time>
      </trkpt>
      <trkpt lat="44.4055" lon="6.92233">
        <ele>1886.8</ele>
        <time>2022-08-16T12:57:36Z</time>
      </trkpt>
      <trkpt lat="44.40552" lon="6.92234">
        <ele>1886.8</ele>
        <time>2022-08-16T12:57:37Z</time>
      </trkpt>
      <trkpt lat="44.40555" lon="6.92234">
        <ele>1887.2</ele>
        <time>2022-08-16T12:57:39Z</time>
      </trkpt>
      <trkpt lat="44.40559" lon="6.92232">
        <ele>1887.4</ele>
        <time>2022-08-16T12:57:41Z</time>
      </trkpt>
      <trkpt lat="44.40561" lon="6.9223">
        <ele>1887.6</ele>
        <time>2022-08-16T12:57:42Z</time>
      </trkpt>
      <trkpt lat="44.40562" lon="6.92228">
        <ele>1887.6</ele>
        <time>2022-08-16T12:57:43Z</time>
      </trkpt>
      <trkpt lat="44.40565" lon="6.92224">
        <ele>1887.8</ele>
        <time>2022-08-16T12:57:45Z</time>
      </trkpt>
      <trkpt lat="44.40566" lon="6.92222">
        <ele>1888</ele>
        <time>2022-08-16T12:57:46Z</time>
      </trkpt>
      <trkpt lat="44.40567" lon="6.92219">
        <ele>1888</ele>
        <time>2022-08-16T12:57:47Z</time>
      </trkpt>
      <trkpt lat="44.40568" lon="6.92217">
        <ele>1888</ele>
        <time>2022-08-16T12:57:48Z</time>
      </trkpt>
      <trkpt lat="44.40569" lon="6.92214">
        <ele>1888.2</ele>
        <time>2022-08-16T12:57:49Z</time>
      </trkpt>
      <trkpt lat="44.4057" lon="6.92212">
        <ele>1888.4</ele>
        <time>2022-08-16T12:57:50Z</time>
      </trkpt>
      <trkpt lat="44.40571" lon="6.92209">
        <ele>1888.4</ele>
        <time>2022-08-16T12:57:51Z</time>
      </trkpt>
      <trkpt lat="44.40572" lon="6.92207">
        <ele>1888.6</ele>
        <time>2022-08-16T12:57:52Z</time>
      </trkpt>
      <trkpt lat="44.40573" lon="6.92205">
        <ele>1888.6</ele>
        <time>2022-08-16T12:57:53Z</time>
      </trkpt>
      <trkpt lat="44.40573" lon="6.92203">
        <ele>1889.2</ele>
        <time>2022-08-16T12:57:54Z</time>
      </trkpt>
      <trkpt lat="44.40574" lon="6.922">
        <ele>1889.4</ele>
        <time>2022-08-16T12:57:55Z</time>
      </trkpt>
      <trkpt lat="44.40574" lon="6.92198">
        <ele>1889.6</ele>
        <time>2022-08-16T12:57:56Z</time>
      </trkpt>
      <trkpt lat="44.40575" lon="6.92195">
        <ele>1889.8</ele>
        <time>2022-08-16T12:57:57Z</time>
      </trkpt>
      <trkpt lat="44.40576" lon="6.92193">
        <ele>1890</ele>
        <time>2022-08-16T12:57:58Z</time>
      </trkpt>
      <trkpt lat="44.40577" lon="6.92191">
        <ele>1890</ele>
        <time>2022-08-16T12:57:59Z</time>
      </trkpt>
      <trkpt lat="44.40577" lon="6.92188">
        <ele>1890.2</ele>
        <time>2022-08-16T12:58:00Z</time>
      </trkpt>
      <trkpt lat="44.40578" lon="6.92186">
        <ele>1890.2</ele>
        <time>2022-08-16T12:58:01Z</time>
      </trkpt>
      <trkpt lat="44.40579" lon="6.92184">
        <ele>1890.4</ele>
        <time>2022-08-16T12:58:02Z</time>
      </trkpt>
      <trkpt lat="44.4058" lon="6.92182">
        <ele>1890.6</ele>
        <time>2022-08-16T12:58:03Z</time>
      </trkpt>
      <trkpt lat="44.40581" lon="6.92179">
        <ele>1890.6</ele>
        <time>2022-08-16T12:58:04Z</time>
      </trkpt>
      <trkpt lat="44.40582" lon="6.92177">
        <ele>1890.8</ele>
        <time>2022-08-16T12:58:05Z</time>
      </trkpt>
      <trkpt lat="44.40583" lon="6.92175">
        <ele>1891</ele>
        <time>2022-08-16T12:58:06Z</time>
      </trkpt>
      <trkpt lat="44.40584" lon="6.92173">
        <ele>1891.4</ele>
        <time>2022-08-16T12:58:07Z</time>
      </trkpt>
      <trkpt lat="44.40585" lon="6.92171">
        <ele>1891.8</ele>
        <time>2022-08-16T12:58:08Z</time>
      </trkpt>
      <trkpt lat="44.40586" lon="6.92169">
        <ele>1892</ele>
        <time>2022-08-16T12:58:09Z</time>
      </trkpt>
      <trkpt lat="44.40587" lon="6.92166">
        <ele>1892</ele>
        <time>2022-08-16T12:58:10Z</time>
      </trkpt>
      <trkpt lat="44.40589" lon="6.92164">
        <ele>1892.2</ele>
        <time>2022-08-16T12:58:11Z</time>
      </trkpt>
      <trkpt lat="44.4059" lon="6.92162">
        <ele>1892.4</ele>
        <time>2022-08-16T12:58:12Z</time>
      </trkpt>
      <trkpt lat="44.40591" lon="6.9216">
        <ele>1892.4</ele>
        <time>2022-08-16T12:58:13Z</time>
      </trkpt>
      <trkpt lat="44.40592" lon="6.92158">
        <ele>1892.6</ele>
        <time>2022-08-16T12:58:14Z</time>
      </trkpt>
      <trkpt lat="44.40593" lon="6.92156">
        <ele>1892.8</ele>
        <time>2022-08-16T12:58:15Z</time>
      </trkpt>
      <trkpt lat="44.40595" lon="6.92154">
        <ele>1892.8</ele>
        <time>2022-08-16T12:58:16Z</time>
      </trkpt>
      <trkpt lat="44.40596" lon="6.92152">
        <ele>1893</ele>
        <time>2022-08-16T12:58:17Z</time>
      </trkpt>
      <trkpt lat="44.40597" lon="6.92149">
        <ele>1893.2</ele>
        <time>2022-08-16T12:58:18Z</time>
      </trkpt>
      <trkpt lat="44.40598" lon="6.92147">
        <ele>1893.2</ele>
        <time>2022-08-16T12:58:19Z</time>
      </trkpt>
      <trkpt lat="44.40599" lon="6.92145">
        <ele>1893.4</ele>
        <time>2022-08-16T12:58:20Z</time>
      </trkpt>
      <trkpt lat="44.406" lon="6.92143">
        <ele>1893.4</ele>
        <time>2022-08-16T12:58:21Z</time>
      </trkpt>
      <trkpt lat="44.40601" lon="6.92141">
        <ele>1893.4</ele>
        <time>2022-08-16T12:58:22Z</time>
      </trkpt>
      <trkpt lat="44.40602" lon="6.92139">
        <ele>1893.6</ele>
        <time>2022-08-16T12:58:23Z</time>
      </trkpt>
      <trkpt lat="44.40603" lon="6.92137">
        <ele>1893.8</ele>
        <time>2022-08-16T12:58:24Z</time>
      </trkpt>
      <trkpt lat="44.40604" lon="6.92135">
        <ele>1893.8</ele>
        <time>2022-08-16T12:58:25Z</time>
      </trkpt>
      <trkpt lat="44.40606" lon="6.92132">
        <ele>1893.8</ele>
        <time>2022-08-16T12:58:26Z</time>
      </trkpt>
      <trkpt lat="44.40607" lon="6.9213">
        <ele>1894</ele>
        <time>2022-08-16T12:58:27Z</time>
      </trkpt>
      <trkpt lat="44.40608" lon="6.92128">
        <ele>1894.2</ele>
        <time>2022-08-16T12:58:28Z</time>
      </trkpt>
      <trkpt lat="44.40608" lon="6.92126">
        <ele>1894.4</ele>
        <time>2022-08-16T12:58:29Z</time>
      </trkpt>
      <trkpt lat="44.40609" lon="6.92124">
        <ele>1894.4</ele>
        <time>2022-08-16T12:58:30Z</time>
      </trkpt>
      <trkpt lat="44.4061" lon="6.92122">
        <ele>1894.6</ele>
        <time>2022-08-16T12:58:31Z</time>
      </trkpt>
      <trkpt lat="44.40611" lon="6.9212">
        <ele>1894.6</ele>
        <time>2022-08-16T12:58:32Z</time>
      </trkpt>
      <trkpt lat="44.40612" lon="6.92118">
        <ele>1894.6</ele>
        <time>2022-08-16T12:58:33Z</time>
      </trkpt>
      <trkpt lat="44.40613" lon="6.92116">
        <ele>1894.8</ele>
        <time>2022-08-16T12:58:34Z</time>
      </trkpt>
      <trkpt lat="44.40614" lon="6.92113">
        <ele>1894.8</ele>
        <time>2022-08-16T12:58:35Z</time>
      </trkpt>
      <trkpt lat="44.40615" lon="6.92111">
        <ele>1895</ele>
        <time>2022-08-16T12:58:36Z</time>
      </trkpt>
      <trkpt lat="44.40616" lon="6.92109">
        <ele>1895</ele>
        <time>2022-08-16T12:58:37Z</time>
      </trkpt>
      <trkpt lat="44.40617" lon="6.92107">
        <ele>1895</ele>
        <time>2022-08-16T12:58:38Z</time>
      </trkpt>
      <trkpt lat="44.40618" lon="6.92105">
        <ele>1895.4</ele>
        <time>2022-08-16T12:58:39Z</time>
      </trkpt>
      <trkpt lat="44.40619" lon="6.92102">
        <ele>1895.4</ele>
        <time>2022-08-16T12:58:40Z</time>
      </trkpt>
      <trkpt lat="44.40619" lon="6.921">
        <ele>1895.6</ele>
        <time>2022-08-16T12:58:41Z</time>
      </trkpt>
      <trkpt lat="44.4062" lon="6.92099">
        <ele>1895.6</ele>
        <time>2022-08-16T12:58:42Z</time>
      </trkpt>
      <trkpt lat="44.40621" lon="6.92097">
        <ele>1895.8</ele>
        <time>2022-08-16T12:58:43Z</time>
      </trkpt>
      <trkpt lat="44.40622" lon="6.92095">
        <ele>1896.2</ele>
        <time>2022-08-16T12:58:44Z</time>
      </trkpt>
      <trkpt lat="44.40622" lon="6.92092">
        <ele>1896.2</ele>
        <time>2022-08-16T12:58:45Z</time>
      </trkpt>
      <trkpt lat="44.40623" lon="6.9209">
        <ele>1896.2</ele>
        <time>2022-08-16T12:58:46Z</time>
      </trkpt>
      <trkpt lat="44.40624" lon="6.92087">
        <ele>1896.2</ele>
        <time>2022-08-16T12:58:47Z</time>
      </trkpt>
      <trkpt lat="44.40625" lon="6.92085">
        <ele>1896.4</ele>
        <time>2022-08-16T12:58:48Z</time>
      </trkpt>
      <trkpt lat="44.40625" lon="6.92083">
        <ele>1896.4</ele>
        <time>2022-08-16T12:58:49Z</time>
      </trkpt>
      <trkpt lat="44.40626" lon="6.9208">
        <ele>1896.6</ele>
        <time>2022-08-16T12:58:50Z</time>
      </trkpt>
      <trkpt lat="44.40626" lon="6.92078">
        <ele>1896.6</ele>
        <time>2022-08-16T12:58:51Z</time>
      </trkpt>
      <trkpt lat="44.40627" lon="6.92075">
        <ele>1896.8</ele>
        <time>2022-08-16T12:58:52Z</time>
      </trkpt>
      <trkpt lat="44.40628" lon="6.92073">
        <ele>1896.8</ele>
        <time>2022-08-16T12:58:53Z</time>
      </trkpt>
      <trkpt lat="44.40628" lon="6.9207">
        <ele>1896.8</ele>
        <time>2022-08-16T12:58:54Z</time>
      </trkpt>
      <trkpt lat="44.40629" lon="6.92068">
        <ele>1897</ele>
        <time>2022-08-16T12:58:55Z</time>
      </trkpt>
      <trkpt lat="44.40629" lon="6.92066">
        <ele>1897</ele>
        <time>2022-08-16T12:58:56Z</time>
      </trkpt>
      <trkpt lat="44.4063" lon="6.92063">
        <ele>1897</ele>
        <time>2022-08-16T12:58:57Z</time>
      </trkpt>
      <trkpt lat="44.4063" lon="6.92061">
        <ele>1897</ele>
        <time>2022-08-16T12:58:58Z</time>
      </trkpt>
      <trkpt lat="44.40631" lon="6.92059">
        <ele>1897.4</ele>
        <time>2022-08-16T12:58:59Z</time>
      </trkpt>
      <trkpt lat="44.40631" lon="6.92056">
        <ele>1897.6</ele>
        <time>2022-08-16T12:59:00Z</time>
      </trkpt>
      <trkpt lat="44.40632" lon="6.92054">
        <ele>1897.6</ele>
        <time>2022-08-16T12:59:01Z</time>
      </trkpt>
      <trkpt lat="44.40633" lon="6.92052">
        <ele>1898</ele>
        <time>2022-08-16T12:59:02Z</time>
      </trkpt>
      <trkpt lat="44.40633" lon="6.9205">
        <ele>1898.2</ele>
        <time>2022-08-16T12:59:03Z</time>
      </trkpt>
      <trkpt lat="44.40634" lon="6.92048">
        <ele>1898.4</ele>
        <time>2022-08-16T12:59:04Z</time>
      </trkpt>
      <trkpt lat="44.40635" lon="6.92045">
        <ele>1898.6</ele>
        <time>2022-08-16T12:59:05Z</time>
      </trkpt>
      <trkpt lat="44.40636" lon="6.92043">
        <ele>1898.8</ele>
        <time>2022-08-16T12:59:06Z</time>
      </trkpt>
      <trkpt lat="44.40636" lon="6.92041">
        <ele>1899</ele>
        <time>2022-08-16T12:59:07Z</time>
      </trkpt>
      <trkpt lat="44.40637" lon="6.92039">
        <ele>1899.4</ele>
        <time>2022-08-16T12:59:08Z</time>
      </trkpt>
      <trkpt lat="44.40638" lon="6.92037">
        <ele>1899.4</ele>
        <time>2022-08-16T12:59:09Z</time>
      </trkpt>
      <trkpt lat="44.40639" lon="6.92035">
        <ele>1899.8</ele>
        <time>2022-08-16T12:59:10Z</time>
      </trkpt>
      <trkpt lat="44.4064" lon="6.92033">
        <ele>1900</ele>
        <time>2022-08-16T12:59:11Z</time>
      </trkpt>
      <trkpt lat="44.40641" lon="6.92031">
        <ele>1900.2</ele>
        <time>2022-08-16T12:59:12Z</time>
      </trkpt>
      <trkpt lat="44.40642" lon="6.92029">
        <ele>1900.6</ele>
        <time>2022-08-16T12:59:13Z</time>
      </trkpt>
      <trkpt lat="44.40643" lon="6.92027">
        <ele>1900.8</ele>
        <time>2022-08-16T12:59:14Z</time>
      </trkpt>
      <trkpt lat="44.40644" lon="6.92025">
        <ele>1901</ele>
        <time>2022-08-16T12:59:15Z</time>
      </trkpt>
      <trkpt lat="44.40645" lon="6.92023">
        <ele>1901.2</ele>
        <time>2022-08-16T12:59:16Z</time>
      </trkpt>
      <trkpt lat="44.40646" lon="6.92021">
        <ele>1901.2</ele>
        <time>2022-08-16T12:59:17Z</time>
      </trkpt>
      <trkpt lat="44.40647" lon="6.9202">
        <ele>1901.4</ele>
        <time>2022-08-16T12:59:18Z</time>
      </trkpt>
      <trkpt lat="44.40649" lon="6.92018">
        <ele>1901.4</ele>
        <time>2022-08-16T12:59:19Z</time>
      </trkpt>
      <trkpt lat="44.4065" lon="6.92017">
        <ele>1901.4</ele>
        <time>2022-08-16T12:59:20Z</time>
      </trkpt>
      <trkpt lat="44.40652" lon="6.92016">
        <ele>1901.6</ele>
        <time>2022-08-16T12:59:21Z</time>
      </trkpt>
      <trkpt lat="44.40653" lon="6.92016">
        <ele>1901.4</ele>
        <time>2022-08-16T12:59:22Z</time>
      </trkpt>
      <trkpt lat="44.40655" lon="6.92016">
        <ele>1901.6</ele>
        <time>2022-08-16T12:59:23Z</time>
      </trkpt>
      <trkpt lat="44.40656" lon="6.92018">
        <ele>1901.6</ele>
        <time>2022-08-16T12:59:24Z</time>
      </trkpt>
      <trkpt lat="44.40657" lon="6.9202">
        <ele>1901.6</ele>
        <time>2022-08-16T12:59:25Z</time>
      </trkpt>
      <trkpt lat="44.40657" lon="6.92023">
        <ele>1902</ele>
        <time>2022-08-16T12:59:26Z</time>
      </trkpt>
      <trkpt lat="44.40657" lon="6.92025">
        <ele>1902</ele>
        <time>2022-08-16T12:59:27Z</time>
      </trkpt>
      <trkpt lat="44.40656" lon="6.92028">
        <ele>1902.2</ele>
        <time>2022-08-16T12:59:28Z</time>
      </trkpt>
      <trkpt lat="44.40656" lon="6.9203">
        <ele>1902.4</ele>
        <time>2022-08-16T12:59:29Z</time>
      </trkpt>
      <trkpt lat="44.40655" lon="6.92032">
        <ele>1902.6</ele>
        <time>2022-08-16T12:59:30Z</time>
      </trkpt>
      <trkpt lat="44.40654" lon="6.92034">
        <ele>1902.8</ele>
        <time>2022-08-16T12:59:31Z</time>
      </trkpt>
      <trkpt lat="44.40653" lon="6.92036">
        <ele>1903</ele>
        <time>2022-08-16T12:59:32Z</time>
      </trkpt>
      <trkpt lat="44.40652" lon="6.92039">
        <ele>1903</ele>
        <time>2022-08-16T12:59:33Z</time>
      </trkpt>
      <trkpt lat="44.40651" lon="6.92041">
        <ele>1903.2</ele>
        <time>2022-08-16T12:59:34Z</time>
      </trkpt>
      <trkpt lat="44.4065" lon="6.92043">
        <ele>1903.2</ele>
        <time>2022-08-16T12:59:35Z</time>
      </trkpt>
      <trkpt lat="44.40649" lon="6.92045">
        <ele>1903.6</ele>
        <time>2022-08-16T12:59:36Z</time>
      </trkpt>
      <trkpt lat="44.40648" lon="6.92048">
        <ele>1903.8</ele>
        <time>2022-08-16T12:59:37Z</time>
      </trkpt>
      <trkpt lat="44.40648" lon="6.9205">
        <ele>1904.2</ele>
        <time>2022-08-16T12:59:38Z</time>
      </trkpt>
      <trkpt lat="44.40649" lon="6.92053">
        <ele>1904.2</ele>
        <time>2022-08-16T12:59:39Z</time>
      </trkpt>
      <trkpt lat="44.40649" lon="6.92055">
        <ele>1904.6</ele>
        <time>2022-08-16T12:59:40Z</time>
      </trkpt>
      <trkpt lat="44.4065" lon="6.92057">
        <ele>1904.6</ele>
        <time>2022-08-16T12:59:41Z</time>
      </trkpt>
      <trkpt lat="44.40651" lon="6.92059">
        <ele>1904.8</ele>
        <time>2022-08-16T12:59:42Z</time>
      </trkpt>
      <trkpt lat="44.40653" lon="6.9206">
        <ele>1905</ele>
        <time>2022-08-16T12:59:43Z</time>
      </trkpt>
      <trkpt lat="44.40654" lon="6.9206">
        <ele>1905.2</ele>
        <time>2022-08-16T12:59:44Z</time>
      </trkpt>
      <trkpt lat="44.40656" lon="6.9206">
        <ele>1905.6</ele>
        <time>2022-08-16T12:59:45Z</time>
      </trkpt>
      <trkpt lat="44.40657" lon="6.9206">
        <ele>1905.8</ele>
        <time>2022-08-16T12:59:46Z</time>
      </trkpt>
      <trkpt lat="44.40659" lon="6.9206">
        <ele>1905.8</ele>
        <time>2022-08-16T12:59:47Z</time>
      </trkpt>
      <trkpt lat="44.40661" lon="6.92059">
        <ele>1906</ele>
        <time>2022-08-16T12:59:48Z</time>
      </trkpt>
      <trkpt lat="44.40662" lon="6.92057">
        <ele>1906.2</ele>
        <time>2022-08-16T12:59:49Z</time>
      </trkpt>
      <trkpt lat="44.40664" lon="6.92056">
        <ele>1906.6</ele>
        <time>2022-08-16T12:59:50Z</time>
      </trkpt>
      <trkpt lat="44.40665" lon="6.92054">
        <ele>1906.6</ele>
        <time>2022-08-16T12:59:51Z</time>
      </trkpt>
      <trkpt lat="44.40667" lon="6.92052">
        <ele>1906.8</ele>
        <time>2022-08-16T12:59:52Z</time>
      </trkpt>
      <trkpt lat="44.40668" lon="6.92049">
        <ele>1907</ele>
        <time>2022-08-16T12:59:53Z</time>
      </trkpt>
      <trkpt lat="44.40669" lon="6.92047">
        <ele>1907.2</ele>
        <time>2022-08-16T12:59:54Z</time>
      </trkpt>
      <trkpt lat="44.4067" lon="6.92044">
        <ele>1907.2</ele>
        <time>2022-08-16T12:59:55Z</time>
      </trkpt>
      <trkpt lat="44.40672" lon="6.92041">
        <ele>1907.2</ele>
        <time>2022-08-16T12:59:56Z</time>
      </trkpt>
      <trkpt lat="44.40673" lon="6.92039">
        <ele>1907.4</ele>
        <time>2022-08-16T12:59:57Z</time>
      </trkpt>
      <trkpt lat="44.40674" lon="6.92036">
        <ele>1907.4</ele>
        <time>2022-08-16T12:59:58Z</time>
      </trkpt>
      <trkpt lat="44.40675" lon="6.92034">
        <ele>1907.6</ele>
        <time>2022-08-16T12:59:59Z</time>
      </trkpt>
      <trkpt lat="44.40677" lon="6.92032">
        <ele>1907.6</ele>
        <time>2022-08-16T13:00:00Z</time>
      </trkpt>
      <trkpt lat="44.40678" lon="6.9203">
        <ele>1907.6</ele>
        <time>2022-08-16T13:00:01Z</time>
      </trkpt>
      <trkpt lat="44.4068" lon="6.92027">
        <ele>1907.8</ele>
        <time>2022-08-16T13:00:02Z</time>
      </trkpt>
      <trkpt lat="44.40681" lon="6.92025">
        <ele>1907.8</ele>
        <time>2022-08-16T13:00:03Z</time>
      </trkpt>
      <trkpt lat="44.40683" lon="6.92023">
        <ele>1907.8</ele>
        <time>2022-08-16T13:00:04Z</time>
      </trkpt>
      <trkpt lat="44.40684" lon="6.92021">
        <ele>1908</ele>
        <time>2022-08-16T13:00:05Z</time>
      </trkpt>
      <trkpt lat="44.40686" lon="6.92019">
        <ele>1908.2</ele>
        <time>2022-08-16T13:00:06Z</time>
      </trkpt>
      <trkpt lat="44.40688" lon="6.92018">
        <ele>1908.4</ele>
        <time>2022-08-16T13:00:07Z</time>
      </trkpt>
      <trkpt lat="44.40689" lon="6.92016">
        <ele>1908.6</ele>
        <time>2022-08-16T13:00:08Z</time>
      </trkpt>
      <trkpt lat="44.40691" lon="6.92015">
        <ele>1908.6</ele>
        <time>2022-08-16T13:00:09Z</time>
      </trkpt>
      <trkpt lat="44.40693" lon="6.92013">
        <ele>1908.8</ele>
        <time>2022-08-16T13:00:10Z</time>
      </trkpt>
      <trkpt lat="44.40695" lon="6.92012">
        <ele>1909</ele>
        <time>2022-08-16T13:00:11Z</time>
      </trkpt>
      <trkpt lat="44.40697" lon="6.92012">
        <ele>1909.4</ele>
        <time>2022-08-16T13:00:12Z</time>
      </trkpt>
      <trkpt lat="44.40699" lon="6.92011">
        <ele>1909.4</ele>
        <time>2022-08-16T13:00:13Z</time>
      </trkpt>
      <trkpt lat="44.40701" lon="6.9201">
        <ele>1909.6</ele>
        <time>2022-08-16T13:00:14Z</time>
      </trkpt>
      <trkpt lat="44.40702" lon="6.9201">
        <ele>1909.6</ele>
        <time>2022-08-16T13:00:15Z</time>
      </trkpt>
      <trkpt lat="44.40704" lon="6.92009">
        <ele>1909.6</ele>
        <time>2022-08-16T13:00:16Z</time>
      </trkpt>
      <trkpt lat="44.40705" lon="6.92009">
        <ele>1909.8</ele>
        <time>2022-08-16T13:00:17Z</time>
      </trkpt>
      <trkpt lat="44.40707" lon="6.92009">
        <ele>1910</ele>
        <time>2022-08-16T13:00:18Z</time>
      </trkpt>
      <trkpt lat="44.40709" lon="6.92008">
        <ele>1910</ele>
        <time>2022-08-16T13:00:19Z</time>
      </trkpt>
      <trkpt lat="44.40711" lon="6.92008">
        <ele>1910.2</ele>
        <time>2022-08-16T13:00:20Z</time>
      </trkpt>
      <trkpt lat="44.40713" lon="6.92007">
        <ele>1910.2</ele>
        <time>2022-08-16T13:00:21Z</time>
      </trkpt>
      <trkpt lat="44.40714" lon="6.92006">
        <ele>1910.4</ele>
        <time>2022-08-16T13:00:22Z</time>
      </trkpt>
      <trkpt lat="44.40716" lon="6.92006">
        <ele>1910.4</ele>
        <time>2022-08-16T13:00:23Z</time>
      </trkpt>
      <trkpt lat="44.40718" lon="6.92005">
        <ele>1910.4</ele>
        <time>2022-08-16T13:00:24Z</time>
      </trkpt>
      <trkpt lat="44.4072" lon="6.92004">
        <ele>1910.6</ele>
        <time>2022-08-16T13:00:25Z</time>
      </trkpt>
      <trkpt lat="44.40722" lon="6.92003">
        <ele>1910.6</ele>
        <time>2022-08-16T13:00:26Z</time>
      </trkpt>
      <trkpt lat="44.40723" lon="6.92002">
        <ele>1910.8</ele>
        <time>2022-08-16T13:00:27Z</time>
      </trkpt>
      <trkpt lat="44.40725" lon="6.92002">
        <ele>1910.8</ele>
        <time>2022-08-16T13:00:28Z</time>
      </trkpt>
      <trkpt lat="44.40727" lon="6.92001">
        <ele>1910.8</ele>
        <time>2022-08-16T13:00:29Z</time>
      </trkpt>
      <trkpt lat="44.40729" lon="6.91999">
        <ele>1911</ele>
        <time>2022-08-16T13:00:30Z</time>
      </trkpt>
      <trkpt lat="44.40731" lon="6.91998">
        <ele>1911</ele>
        <time>2022-08-16T13:00:31Z</time>
      </trkpt>
      <trkpt lat="44.40732" lon="6.91996">
        <ele>1911.2</ele>
        <time>2022-08-16T13:00:32Z</time>
      </trkpt>
      <trkpt lat="44.40734" lon="6.91994">
        <ele>1911.4</ele>
        <time>2022-08-16T13:00:33Z</time>
      </trkpt>
      <trkpt lat="44.40735" lon="6.91993">
        <ele>1911.4</ele>
        <time>2022-08-16T13:00:34Z</time>
      </trkpt>
      <trkpt lat="44.40737" lon="6.91991">
        <ele>1911.6</ele>
        <time>2022-08-16T13:00:35Z</time>
      </trkpt>
      <trkpt lat="44.40738" lon="6.91988">
        <ele>1911.6</ele>
        <time>2022-08-16T13:00:36Z</time>
      </trkpt>
      <trkpt lat="44.4074" lon="6.91986">
        <ele>1911.8</ele>
        <time>2022-08-16T13:00:37Z</time>
      </trkpt>
      <trkpt lat="44.40741" lon="6.91984">
        <ele>1912.2</ele>
        <time>2022-08-16T13:00:38Z</time>
      </trkpt>
      <trkpt lat="44.40742" lon="6.91982">
        <ele>1912.4</ele>
        <time>2022-08-16T13:00:39Z</time>
      </trkpt>
      <trkpt lat="44.40744" lon="6.91979">
        <ele>1912.6</ele>
        <time>2022-08-16T13:00:40Z</time>
      </trkpt>
      <trkpt lat="44.40745" lon="6.91977">
        <ele>1912.6</ele>
        <time>2022-08-16T13:00:41Z</time>
      </trkpt>
      <trkpt lat="44.40746" lon="6.91974">
        <ele>1912.8</ele>
        <time>2022-08-16T13:00:42Z</time>
      </trkpt>
      <trkpt lat="44.40748" lon="6.91971">
        <ele>1912.8</ele>
        <time>2022-08-16T13:00:43Z</time>
      </trkpt>
      <trkpt lat="44.40749" lon="6.91969">
        <ele>1913</ele>
        <time>2022-08-16T13:00:44Z</time>
      </trkpt>
      <trkpt lat="44.4075" lon="6.91966">
        <ele>1913</ele>
        <time>2022-08-16T13:00:45Z</time>
      </trkpt>
      <trkpt lat="44.40751" lon="6.91963">
        <ele>1913.2</ele>
        <time>2022-08-16T13:00:46Z</time>
      </trkpt>
      <trkpt lat="44.40752" lon="6.9196">
        <ele>1913.4</ele>
        <time>2022-08-16T13:00:47Z</time>
      </trkpt>
      <trkpt lat="44.40752" lon="6.91958">
        <ele>1913.4</ele>
        <time>2022-08-16T13:00:48Z</time>
      </trkpt>
      <trkpt lat="44.40753" lon="6.91955">
        <ele>1913.6</ele>
        <time>2022-08-16T13:00:49Z</time>
      </trkpt>
      <trkpt lat="44.40754" lon="6.91952">
        <ele>1914</ele>
        <time>2022-08-16T13:00:50Z</time>
      </trkpt>
      <trkpt lat="44.40754" lon="6.9195">
        <ele>1914.2</ele>
        <time>2022-08-16T13:00:51Z</time>
      </trkpt>
      <trkpt lat="44.40755" lon="6.91947">
        <ele>1914</ele>
        <time>2022-08-16T13:00:52Z</time>
      </trkpt>
      <trkpt lat="44.40756" lon="6.91944">
        <ele>1914.4</ele>
        <time>2022-08-16T13:00:53Z</time>
      </trkpt>
      <trkpt lat="44.40756" lon="6.91941">
        <ele>1914.4</ele>
        <time>2022-08-16T13:00:54Z</time>
      </trkpt>
      <trkpt lat="44.40756" lon="6.91939">
        <ele>1914.4</ele>
        <time>2022-08-16T13:00:55Z</time>
      </trkpt>
      <trkpt lat="44.40756" lon="6.91936">
        <ele>1914.8</ele>
        <time>2022-08-16T13:00:56Z</time>
      </trkpt>
      <trkpt lat="44.40756" lon="6.91932">
        <ele>1915</ele>
        <time>2022-08-16T13:00:57Z</time>
      </trkpt>
      <trkpt lat="44.40756" lon="6.91929">
        <ele>1915.2</ele>
        <time>2022-08-16T13:00:58Z</time>
      </trkpt>
      <trkpt lat="44.40756" lon="6.91926">
        <ele>1915.2</ele>
        <time>2022-08-16T13:00:59Z</time>
      </trkpt>
      <trkpt lat="44.40757" lon="6.91923">
        <ele>1915.6</ele>
        <time>2022-08-16T13:01:00Z</time>
      </trkpt>
      <trkpt lat="44.40757" lon="6.91921">
        <ele>1915.8</ele>
        <time>2022-08-16T13:01:01Z</time>
      </trkpt>
      <trkpt lat="44.40757" lon="6.91918">
        <ele>1916</ele>
        <time>2022-08-16T13:01:02Z</time>
      </trkpt>
      <trkpt lat="44.40757" lon="6.91915">
        <ele>1916</ele>
        <time>2022-08-16T13:01:03Z</time>
      </trkpt>
      <trkpt lat="44.40757" lon="6.91912">
        <ele>1916.2</ele>
        <time>2022-08-16T13:01:04Z</time>
      </trkpt>
      <trkpt lat="44.40756" lon="6.91909">
        <ele>1916.2</ele>
        <time>2022-08-16T13:01:05Z</time>
      </trkpt>
      <trkpt lat="44.40756" lon="6.91906">
        <ele>1916.4</ele>
        <time>2022-08-16T13:01:06Z</time>
      </trkpt>
      <trkpt lat="44.40756" lon="6.91903">
        <ele>1916.8</ele>
        <time>2022-08-16T13:01:07Z</time>
      </trkpt>
      <trkpt lat="44.40756" lon="6.919">
        <ele>1916.8</ele>
        <time>2022-08-16T13:01:08Z</time>
      </trkpt>
      <trkpt lat="44.40756" lon="6.91897">
        <ele>1917</ele>
        <time>2022-08-16T13:01:09Z</time>
      </trkpt>
      <trkpt lat="44.40756" lon="6.91894">
        <ele>1917</ele>
        <time>2022-08-16T13:01:10Z</time>
      </trkpt>
      <trkpt lat="44.40756" lon="6.91891">
        <ele>1917.2</ele>
        <time>2022-08-16T13:01:11Z</time>
      </trkpt>
      <trkpt lat="44.40756" lon="6.91888">
        <ele>1917.4</ele>
        <time>2022-08-16T13:01:12Z</time>
      </trkpt>
      <trkpt lat="44.40756" lon="6.91886">
        <ele>1917.4</ele>
        <time>2022-08-16T13:01:13Z</time>
      </trkpt>
      <trkpt lat="44.40756" lon="6.91883">
        <ele>1917.6</ele>
        <time>2022-08-16T13:01:14Z</time>
      </trkpt>
      <trkpt lat="44.40757" lon="6.9188">
        <ele>1917.8</ele>
        <time>2022-08-16T13:01:15Z</time>
      </trkpt>
      <trkpt lat="44.40757" lon="6.91877">
        <ele>1918</ele>
        <time>2022-08-16T13:01:16Z</time>
      </trkpt>
      <trkpt lat="44.40758" lon="6.91874">
        <ele>1918.2</ele>
        <time>2022-08-16T13:01:17Z</time>
      </trkpt>
      <trkpt lat="44.40758" lon="6.91871">
        <ele>1918.6</ele>
        <time>2022-08-16T13:01:18Z</time>
      </trkpt>
      <trkpt lat="44.40759" lon="6.91868">
        <ele>1919</ele>
        <time>2022-08-16T13:01:19Z</time>
      </trkpt>
      <trkpt lat="44.4076" lon="6.91865">
        <ele>1919</ele>
        <time>2022-08-16T13:01:20Z</time>
      </trkpt>
      <trkpt lat="44.4076" lon="6.91862">
        <ele>1919.2</ele>
        <time>2022-08-16T13:01:21Z</time>
      </trkpt>
      <trkpt lat="44.40761" lon="6.91859">
        <ele>1919.4</ele>
        <time>2022-08-16T13:01:22Z</time>
      </trkpt>
      <trkpt lat="44.40762" lon="6.91857">
        <ele>1919.4</ele>
        <time>2022-08-16T13:01:23Z</time>
      </trkpt>
      <trkpt lat="44.40763" lon="6.91854">
        <ele>1919.8</ele>
        <time>2022-08-16T13:01:24Z</time>
      </trkpt>
      <trkpt lat="44.40764" lon="6.91851">
        <ele>1920</ele>
        <time>2022-08-16T13:01:25Z</time>
      </trkpt>
      <trkpt lat="44.40765" lon="6.91848">
        <ele>1920</ele>
        <time>2022-08-16T13:01:26Z</time>
      </trkpt>
      <trkpt lat="44.40766" lon="6.91846">
        <ele>1920.2</ele>
        <time>2022-08-16T13:01:27Z</time>
      </trkpt>
      <trkpt lat="44.40767" lon="6.91843">
        <ele>1920.4</ele>
        <time>2022-08-16T13:01:28Z</time>
      </trkpt>
      <trkpt lat="44.40768" lon="6.91841">
        <ele>1920.6</ele>
        <time>2022-08-16T13:01:29Z</time>
      </trkpt>
      <trkpt lat="44.4077" lon="6.91838">
        <ele>1920.6</ele>
        <time>2022-08-16T13:01:30Z</time>
      </trkpt>
      <trkpt lat="44.40771" lon="6.91836">
        <ele>1920.6</ele>
        <time>2022-08-16T13:01:31Z</time>
      </trkpt>
      <trkpt lat="44.40772" lon="6.91834">
        <ele>1920.8</ele>
        <time>2022-08-16T13:01:32Z</time>
      </trkpt>
      <trkpt lat="44.40774" lon="6.91831">
        <ele>1921.2</ele>
        <time>2022-08-16T13:01:33Z</time>
      </trkpt>
      <trkpt lat="44.40775" lon="6.91829">
        <ele>1921.4</ele>
        <time>2022-08-16T13:01:34Z</time>
      </trkpt>
      <trkpt lat="44.40777" lon="6.91827">
        <ele>1921.6</ele>
        <time>2022-08-16T13:01:35Z</time>
      </trkpt>
      <trkpt lat="44.40779" lon="6.91825">
        <ele>1921.8</ele>
        <time>2022-08-16T13:01:36Z</time>
      </trkpt>
      <trkpt lat="44.4078" lon="6.91824">
        <ele>1922</ele>
        <time>2022-08-16T13:01:37Z</time>
      </trkpt>
      <trkpt lat="44.40782" lon="6.91822">
        <ele>1922.2</ele>
        <time>2022-08-16T13:01:38Z</time>
      </trkpt>
      <trkpt lat="44.40783" lon="6.9182">
        <ele>1922.4</ele>
        <time>2022-08-16T13:01:39Z</time>
      </trkpt>
      <trkpt lat="44.40785" lon="6.91818">
        <ele>1922.4</ele>
        <time>2022-08-16T13:01:40Z</time>
      </trkpt>
      <trkpt lat="44.40787" lon="6.91816">
        <ele>1922.6</ele>
        <time>2022-08-16T13:01:41Z</time>
      </trkpt>
      <trkpt lat="44.40788" lon="6.91814">
        <ele>1922.8</ele>
        <time>2022-08-16T13:01:42Z</time>
      </trkpt>
      <trkpt lat="44.4079" lon="6.91812">
        <ele>1923</ele>
        <time>2022-08-16T13:01:43Z</time>
      </trkpt>
      <trkpt lat="44.40791" lon="6.91811">
        <ele>1923.2</ele>
        <time>2022-08-16T13:01:44Z</time>
      </trkpt>
      <trkpt lat="44.40793" lon="6.91809">
        <ele>1923.4</ele>
        <time>2022-08-16T13:01:45Z</time>
      </trkpt>
      <trkpt lat="44.40795" lon="6.91807">
        <ele>1923.4</ele>
        <time>2022-08-16T13:01:46Z</time>
      </trkpt>
      <trkpt lat="44.40796" lon="6.91805">
        <ele>1923.8</ele>
        <time>2022-08-16T13:01:47Z</time>
      </trkpt>
      <trkpt lat="44.40798" lon="6.91803">
        <ele>1923.8</ele>
        <time>2022-08-16T13:01:48Z</time>
      </trkpt>
      <trkpt lat="44.40799" lon="6.91801">
        <ele>1924</ele>
        <time>2022-08-16T13:01:49Z</time>
      </trkpt>
      <trkpt lat="44.40801" lon="6.91799">
        <ele>1924</ele>
        <time>2022-08-16T13:01:50Z</time>
      </trkpt>
      <trkpt lat="44.40802" lon="6.91797">
        <ele>1924.2</ele>
        <time>2022-08-16T13:01:51Z</time>
      </trkpt>
      <trkpt lat="44.40804" lon="6.91795">
        <ele>1924.2</ele>
        <time>2022-08-16T13:01:52Z</time>
      </trkpt>
      <trkpt lat="44.40805" lon="6.91793">
        <ele>1924.4</ele>
        <time>2022-08-16T13:01:53Z</time>
      </trkpt>
      <trkpt lat="44.40807" lon="6.91791">
        <ele>1924.4</ele>
        <time>2022-08-16T13:01:54Z</time>
      </trkpt>
      <trkpt lat="44.40808" lon="6.91789">
        <ele>1924.6</ele>
        <time>2022-08-16T13:01:55Z</time>
      </trkpt>
      <trkpt lat="44.4081" lon="6.91787">
        <ele>1925</ele>
        <time>2022-08-16T13:01:56Z</time>
      </trkpt>
      <trkpt lat="44.40811" lon="6.91785">
        <ele>1925.2</ele>
        <time>2022-08-16T13:01:57Z</time>
      </trkpt>
      <trkpt lat="44.40812" lon="6.91783">
        <ele>1925.2</ele>
        <time>2022-08-16T13:01:58Z</time>
      </trkpt>
      <trkpt lat="44.40814" lon="6.91781">
        <ele>1925.2</ele>
        <time>2022-08-16T13:01:59Z</time>
      </trkpt>
      <trkpt lat="44.40815" lon="6.91779">
        <ele>1925.6</ele>
        <time>2022-08-16T13:02:00Z</time>
      </trkpt>
      <trkpt lat="44.40816" lon="6.91776">
        <ele>1925.6</ele>
        <time>2022-08-16T13:02:01Z</time>
      </trkpt>
      <trkpt lat="44.40818" lon="6.91774">
        <ele>1925.8</ele>
        <time>2022-08-16T13:02:02Z</time>
      </trkpt>
      <trkpt lat="44.40819" lon="6.91772">
        <ele>1926</ele>
        <time>2022-08-16T13:02:03Z</time>
      </trkpt>
      <trkpt lat="44.4082" lon="6.91769">
        <ele>1926</ele>
        <time>2022-08-16T13:02:04Z</time>
      </trkpt>
      <trkpt lat="44.40821" lon="6.91767">
        <ele>1926</ele>
        <time>2022-08-16T13:02:05Z</time>
      </trkpt>
      <trkpt lat="44.40822" lon="6.91764">
        <ele>1926.2</ele>
        <time>2022-08-16T13:02:06Z</time>
      </trkpt>
      <trkpt lat="44.40823" lon="6.91762">
        <ele>1926.2</ele>
        <time>2022-08-16T13:02:07Z</time>
      </trkpt>
      <trkpt lat="44.40824" lon="6.9176">
        <ele>1926.4</ele>
        <time>2022-08-16T13:02:08Z</time>
      </trkpt>
      <trkpt lat="44.40826" lon="6.91758">
        <ele>1926.6</ele>
        <time>2022-08-16T13:02:09Z</time>
      </trkpt>
      <trkpt lat="44.40827" lon="6.91755">
        <ele>1926.8</ele>
        <time>2022-08-16T13:02:10Z</time>
      </trkpt>
      <trkpt lat="44.40828" lon="6.91753">
        <ele>1927</ele>
        <time>2022-08-16T13:02:11Z</time>
      </trkpt>
      <trkpt lat="44.40829" lon="6.9175">
        <ele>1927.4</ele>
        <time>2022-08-16T13:02:12Z</time>
      </trkpt>
      <trkpt lat="44.4083" lon="6.91748">
        <ele>1927.6</ele>
        <time>2022-08-16T13:02:13Z</time>
      </trkpt>
      <trkpt lat="44.40831" lon="6.91746">
        <ele>1927.6</ele>
        <time>2022-08-16T13:02:14Z</time>
      </trkpt>
      <trkpt lat="44.40832" lon="6.91743">
        <ele>1928</ele>
        <time>2022-08-16T13:02:15Z</time>
      </trkpt>
      <trkpt lat="44.40833" lon="6.91741">
        <ele>1928.2</ele>
        <time>2022-08-16T13:02:16Z</time>
      </trkpt>
      <trkpt lat="44.40835" lon="6.91738">
        <ele>1928.2</ele>
        <time>2022-08-16T13:02:17Z</time>
      </trkpt>
      <trkpt lat="44.40836" lon="6.91736">
        <ele>1928.4</ele>
        <time>2022-08-16T13:02:18Z</time>
      </trkpt>
      <trkpt lat="44.40837" lon="6.91733">
        <ele>1928.6</ele>
        <time>2022-08-16T13:02:19Z</time>
      </trkpt>
      <trkpt lat="44.40838" lon="6.91731">
        <ele>1928.8</ele>
        <time>2022-08-16T13:02:20Z</time>
      </trkpt>
      <trkpt lat="44.40839" lon="6.91728">
        <ele>1928.8</ele>
        <time>2022-08-16T13:02:21Z</time>
      </trkpt>
      <trkpt lat="44.40841" lon="6.91726">
        <ele>1929</ele>
        <time>2022-08-16T13:02:22Z</time>
      </trkpt>
      <trkpt lat="44.40842" lon="6.91723">
        <ele>1929.2</ele>
        <time>2022-08-16T13:02:23Z</time>
      </trkpt>
      <trkpt lat="44.40843" lon="6.9172">
        <ele>1929</ele>
        <time>2022-08-16T13:02:24Z</time>
      </trkpt>
      <trkpt lat="44.40845" lon="6.91718">
        <ele>1929.4</ele>
        <time>2022-08-16T13:02:25Z</time>
      </trkpt>
      <trkpt lat="44.40846" lon="6.91715">
        <ele>1929.6</ele>
        <time>2022-08-16T13:02:26Z</time>
      </trkpt>
      <trkpt lat="44.40847" lon="6.91713">
        <ele>1929.8</ele>
        <time>2022-08-16T13:02:27Z</time>
      </trkpt>
      <trkpt lat="44.40848" lon="6.9171">
        <ele>1929.8</ele>
        <time>2022-08-16T13:02:28Z</time>
      </trkpt>
      <trkpt lat="44.40849" lon="6.91708">
        <ele>1930.2</ele>
        <time>2022-08-16T13:02:29Z</time>
      </trkpt>
      <trkpt lat="44.4085" lon="6.91705">
        <ele>1930.4</ele>
        <time>2022-08-16T13:02:30Z</time>
      </trkpt>
      <trkpt lat="44.40852" lon="6.91703">
        <ele>1930.4</ele>
        <time>2022-08-16T13:02:31Z</time>
      </trkpt>
      <trkpt lat="44.40853" lon="6.917">
        <ele>1930.6</ele>
        <time>2022-08-16T13:02:32Z</time>
      </trkpt>
      <trkpt lat="44.40854" lon="6.91697">
        <ele>1930.6</ele>
        <time>2022-08-16T13:02:33Z</time>
      </trkpt>
      <trkpt lat="44.40856" lon="6.91695">
        <ele>1930.6</ele>
        <time>2022-08-16T13:02:34Z</time>
      </trkpt>
      <trkpt lat="44.40857" lon="6.91693">
        <ele>1930.6</ele>
        <time>2022-08-16T13:02:35Z</time>
      </trkpt>
      <trkpt lat="44.40857" lon="6.91691">
        <ele>1930.6</ele>
        <time>2022-08-16T13:02:36Z</time>
      </trkpt>
      <trkpt lat="44.40858" lon="6.91689">
        <ele>1930.8</ele>
        <time>2022-08-16T13:02:37Z</time>
      </trkpt>
      <trkpt lat="44.4086" lon="6.91686">
        <ele>1931</ele>
        <time>2022-08-16T13:02:38Z</time>
      </trkpt>
      <trkpt lat="44.40861" lon="6.91684">
        <ele>1931.2</ele>
        <time>2022-08-16T13:02:39Z</time>
      </trkpt>
      <trkpt lat="44.40862" lon="6.91681">
        <ele>1931.2</ele>
        <time>2022-08-16T13:02:40Z</time>
      </trkpt>
      <trkpt lat="44.40863" lon="6.91679">
        <ele>1931.6</ele>
        <time>2022-08-16T13:02:41Z</time>
      </trkpt>
      <trkpt lat="44.40864" lon="6.91676">
        <ele>1931.8</ele>
        <time>2022-08-16T13:02:42Z</time>
      </trkpt>
      <trkpt lat="44.40865" lon="6.91674">
        <ele>1931.8</ele>
        <time>2022-08-16T13:02:43Z</time>
      </trkpt>
      <trkpt lat="44.40867" lon="6.91672">
        <ele>1931.8</ele>
        <time>2022-08-16T13:02:44Z</time>
      </trkpt>
      <trkpt lat="44.40868" lon="6.91669">
        <ele>1932</ele>
        <time>2022-08-16T13:02:45Z</time>
      </trkpt>
      <trkpt lat="44.40869" lon="6.91667">
        <ele>1932.4</ele>
        <time>2022-08-16T13:02:46Z</time>
      </trkpt>
      <trkpt lat="44.4087" lon="6.91665">
        <ele>1932.4</ele>
        <time>2022-08-16T13:02:47Z</time>
      </trkpt>
      <trkpt lat="44.40871" lon="6.91662">
        <ele>1932.6</ele>
        <time>2022-08-16T13:02:48Z</time>
      </trkpt>
      <trkpt lat="44.40873" lon="6.9166">
        <ele>1932.8</ele>
        <time>2022-08-16T13:02:49Z</time>
      </trkpt>
      <trkpt lat="44.40874" lon="6.91658">
        <ele>1933.2</ele>
        <time>2022-08-16T13:02:50Z</time>
      </trkpt>
      <trkpt lat="44.40876" lon="6.91656">
        <ele>1933.2</ele>
        <time>2022-08-16T13:02:51Z</time>
      </trkpt>
      <trkpt lat="44.40877" lon="6.91654">
        <ele>1933.4</ele>
        <time>2022-08-16T13:02:52Z</time>
      </trkpt>
      <trkpt lat="44.40879" lon="6.91652">
        <ele>1933.4</ele>
        <time>2022-08-16T13:02:53Z</time>
      </trkpt>
      <trkpt lat="44.40881" lon="6.9165">
        <ele>1933.6</ele>
        <time>2022-08-16T13:02:54Z</time>
      </trkpt>
      <trkpt lat="44.40882" lon="6.91647">
        <ele>1933.8</ele>
        <time>2022-08-16T13:02:55Z</time>
      </trkpt>
      <trkpt lat="44.40884" lon="6.91645">
        <ele>1934</ele>
        <time>2022-08-16T13:02:56Z</time>
      </trkpt>
      <trkpt lat="44.40886" lon="6.91644">
        <ele>1934.2</ele>
        <time>2022-08-16T13:02:57Z</time>
      </trkpt>
      <trkpt lat="44.40888" lon="6.91642">
        <ele>1934.2</ele>
        <time>2022-08-16T13:02:58Z</time>
      </trkpt>
      <trkpt lat="44.40889" lon="6.9164">
        <ele>1934.4</ele>
        <time>2022-08-16T13:02:59Z</time>
      </trkpt>
      <trkpt lat="44.40891" lon="6.91639">
        <ele>1934.4</ele>
        <time>2022-08-16T13:03:00Z</time>
      </trkpt>
      <trkpt lat="44.40893" lon="6.91637">
        <ele>1934.6</ele>
        <time>2022-08-16T13:03:01Z</time>
      </trkpt>
      <trkpt lat="44.40894" lon="6.91635">
        <ele>1934.6</ele>
        <time>2022-08-16T13:03:02Z</time>
      </trkpt>
      <trkpt lat="44.40896" lon="6.91634">
        <ele>1934.6</ele>
        <time>2022-08-16T13:03:03Z</time>
      </trkpt>
      <trkpt lat="44.40898" lon="6.91632">
        <ele>1934.8</ele>
        <time>2022-08-16T13:03:04Z</time>
      </trkpt>
      <trkpt lat="44.409" lon="6.91631">
        <ele>1935</ele>
        <time>2022-08-16T13:03:05Z</time>
      </trkpt>
      <trkpt lat="44.40902" lon="6.91629">
        <ele>1935.2</ele>
        <time>2022-08-16T13:03:06Z</time>
      </trkpt>
      <trkpt lat="44.40903" lon="6.91628">
        <ele>1935.2</ele>
        <time>2022-08-16T13:03:07Z</time>
      </trkpt>
      <trkpt lat="44.40905" lon="6.91627">
        <ele>1935.4</ele>
        <time>2022-08-16T13:03:08Z</time>
      </trkpt>
      <trkpt lat="44.40907" lon="6.91625">
        <ele>1935.6</ele>
        <time>2022-08-16T13:03:09Z</time>
      </trkpt>
      <trkpt lat="44.40908" lon="6.91624">
        <ele>1935.6</ele>
        <time>2022-08-16T13:03:10Z</time>
      </trkpt>
      <trkpt lat="44.4091" lon="6.91622">
        <ele>1935.8</ele>
        <time>2022-08-16T13:03:11Z</time>
      </trkpt>
      <trkpt lat="44.40912" lon="6.91621">
        <ele>1935.8</ele>
        <time>2022-08-16T13:03:12Z</time>
      </trkpt>
      <trkpt lat="44.40914" lon="6.91619">
        <ele>1936</ele>
        <time>2022-08-16T13:03:13Z</time>
      </trkpt>
      <trkpt lat="44.40916" lon="6.91618">
        <ele>1936.2</ele>
        <time>2022-08-16T13:03:14Z</time>
      </trkpt>
      <trkpt lat="44.40917" lon="6.91617">
        <ele>1936.4</ele>
        <time>2022-08-16T13:03:15Z</time>
      </trkpt>
      <trkpt lat="44.40919" lon="6.91615">
        <ele>1936.4</ele>
        <time>2022-08-16T13:03:16Z</time>
      </trkpt>
      <trkpt lat="44.40921" lon="6.91614">
        <ele>1936.6</ele>
        <time>2022-08-16T13:03:17Z</time>
      </trkpt>
      <trkpt lat="44.40923" lon="6.91612">
        <ele>1936.6</ele>
        <time>2022-08-16T13:03:18Z</time>
      </trkpt>
      <trkpt lat="44.40925" lon="6.91611">
        <ele>1936.6</ele>
        <time>2022-08-16T13:03:19Z</time>
      </trkpt>
      <trkpt lat="44.40927" lon="6.9161">
        <ele>1936.6</ele>
        <time>2022-08-16T13:03:20Z</time>
      </trkpt>
      <trkpt lat="44.40929" lon="6.91608">
        <ele>1936.8</ele>
        <time>2022-08-16T13:03:21Z</time>
      </trkpt>
      <trkpt lat="44.40931" lon="6.91607">
        <ele>1937</ele>
        <time>2022-08-16T13:03:22Z</time>
      </trkpt>
      <trkpt lat="44.40933" lon="6.91605">
        <ele>1937.2</ele>
        <time>2022-08-16T13:03:23Z</time>
      </trkpt>
      <trkpt lat="44.40935" lon="6.91604">
        <ele>1937.4</ele>
        <time>2022-08-16T13:03:24Z</time>
      </trkpt>
      <trkpt lat="44.40937" lon="6.91603">
        <ele>1937.4</ele>
        <time>2022-08-16T13:03:25Z</time>
      </trkpt>
      <trkpt lat="44.40938" lon="6.91601">
        <ele>1937.6</ele>
        <time>2022-08-16T13:03:26Z</time>
      </trkpt>
      <trkpt lat="44.4094" lon="6.916">
        <ele>1937.6</ele>
        <time>2022-08-16T13:03:27Z</time>
      </trkpt>
      <trkpt lat="44.40942" lon="6.91598">
        <ele>1938</ele>
        <time>2022-08-16T13:03:28Z</time>
      </trkpt>
      <trkpt lat="44.40945" lon="6.91596">
        <ele>1938</ele>
        <time>2022-08-16T13:03:29Z</time>
      </trkpt>
      <trkpt lat="44.40947" lon="6.91595">
        <ele>1938.2</ele>
        <time>2022-08-16T13:03:30Z</time>
      </trkpt>
      <trkpt lat="44.40949" lon="6.91593">
        <ele>1938.2</ele>
        <time>2022-08-16T13:03:31Z</time>
      </trkpt>
      <trkpt lat="44.40952" lon="6.91592">
        <ele>1938.4</ele>
        <time>2022-08-16T13:03:32Z</time>
      </trkpt>
      <trkpt lat="44.40954" lon="6.9159">
        <ele>1938.6</ele>
        <time>2022-08-16T13:03:33Z</time>
      </trkpt>
      <trkpt lat="44.40957" lon="6.91589">
        <ele>1938.8</ele>
        <time>2022-08-16T13:03:34Z</time>
      </trkpt>
      <trkpt lat="44.40959" lon="6.91588">
        <ele>1939</ele>
        <time>2022-08-16T13:03:35Z</time>
      </trkpt>
      <trkpt lat="44.40962" lon="6.91586">
        <ele>1939.2</ele>
        <time>2022-08-16T13:03:36Z</time>
      </trkpt>
      <trkpt lat="44.40965" lon="6.91585">
        <ele>1939.2</ele>
        <time>2022-08-16T13:03:37Z</time>
      </trkpt>
      <trkpt lat="44.40968" lon="6.91584">
        <ele>1939.4</ele>
        <time>2022-08-16T13:03:38Z</time>
      </trkpt>
      <trkpt lat="44.40971" lon="6.91583">
        <ele>1939.4</ele>
        <time>2022-08-16T13:03:39Z</time>
      </trkpt>
      <trkpt lat="44.40974" lon="6.91582">
        <ele>1939.6</ele>
        <time>2022-08-16T13:03:40Z</time>
      </trkpt>
      <trkpt lat="44.40978" lon="6.91581">
        <ele>1939.6</ele>
        <time>2022-08-16T13:03:41Z</time>
      </trkpt>
      <trkpt lat="44.40981" lon="6.91579">
        <ele>1939.8</ele>
        <time>2022-08-16T13:03:42Z</time>
      </trkpt>
      <trkpt lat="44.40985" lon="6.91578">
        <ele>1940</ele>
        <time>2022-08-16T13:03:43Z</time>
      </trkpt>
      <trkpt lat="44.40988" lon="6.91576">
        <ele>1940.2</ele>
        <time>2022-08-16T13:03:44Z</time>
      </trkpt>
      <trkpt lat="44.40992" lon="6.91575">
        <ele>1940.4</ele>
        <time>2022-08-16T13:03:45Z</time>
      </trkpt>
      <trkpt lat="44.40995" lon="6.91573">
        <ele>1940.2</ele>
        <time>2022-08-16T13:03:46Z</time>
      </trkpt>
      <trkpt lat="44.40999" lon="6.91571">
        <ele>1940.4</ele>
        <time>2022-08-16T13:03:47Z</time>
      </trkpt>
      <trkpt lat="44.41002" lon="6.91569">
        <ele>1940.6</ele>
        <time>2022-08-16T13:03:48Z</time>
      </trkpt>
      <trkpt lat="44.41005" lon="6.91567">
        <ele>1940.4</ele>
        <time>2022-08-16T13:03:49Z</time>
      </trkpt>
      <trkpt lat="44.41009" lon="6.91565">
        <ele>1940.6</ele>
        <time>2022-08-16T13:03:50Z</time>
      </trkpt>
      <trkpt lat="44.41012" lon="6.91563">
        <ele>1940.8</ele>
        <time>2022-08-16T13:03:51Z</time>
      </trkpt>
      <trkpt lat="44.41015" lon="6.9156">
        <ele>1940.8</ele>
        <time>2022-08-16T13:03:52Z</time>
      </trkpt>
      <trkpt lat="44.41017" lon="6.91558">
        <ele>1941</ele>
        <time>2022-08-16T13:03:53Z</time>
      </trkpt>
      <trkpt lat="44.4102" lon="6.91555">
        <ele>1941.2</ele>
        <time>2022-08-16T13:03:54Z</time>
      </trkpt>
      <trkpt lat="44.41024" lon="6.91553">
        <ele>1941.4</ele>
        <time>2022-08-16T13:03:55Z</time>
      </trkpt>
      <trkpt lat="44.41027" lon="6.9155">
        <ele>1941.2</ele>
        <time>2022-08-16T13:03:56Z</time>
      </trkpt>
      <trkpt lat="44.41041" lon="6.91539">
        <ele>1941.6</ele>
        <time>2022-08-16T13:04:00Z</time>
      </trkpt>
      <trkpt lat="44.41073" lon="6.91512">
        <ele>1941.8</ele>
        <time>2022-08-16T13:04:08Z</time>
      </trkpt>
      <trkpt lat="44.41082" lon="6.91505">
        <ele>1942</ele>
        <time>2022-08-16T13:04:10Z</time>
      </trkpt>
      <trkpt lat="44.4109" lon="6.91498">
        <ele>1941.8</ele>
        <time>2022-08-16T13:04:12Z</time>
      </trkpt>
      <trkpt lat="44.41094" lon="6.91494">
        <ele>1941.8</ele>
        <time>2022-08-16T13:04:13Z</time>
      </trkpt>
      <trkpt lat="44.41098" lon="6.91491">
        <ele>1942</ele>
        <time>2022-08-16T13:04:14Z</time>
      </trkpt>
      <trkpt lat="44.41102" lon="6.91488">
        <ele>1942</ele>
        <time>2022-08-16T13:04:15Z</time>
      </trkpt>
      <trkpt lat="44.41106" lon="6.91484">
        <ele>1942</ele>
        <time>2022-08-16T13:04:16Z</time>
      </trkpt>
      <trkpt lat="44.41134" lon="6.91454">
        <ele>1942</ele>
        <time>2022-08-16T13:04:23Z</time>
      </trkpt>
      <trkpt lat="44.41159" lon="6.91426">
        <ele>1941.8</ele>
        <time>2022-08-16T13:04:29Z</time>
      </trkpt>
      <trkpt lat="44.41167" lon="6.91417">
        <ele>1941.8</ele>
        <time>2022-08-16T13:04:31Z</time>
      </trkpt>
      <trkpt lat="44.41171" lon="6.91412">
        <ele>1941.8</ele>
        <time>2022-08-16T13:04:32Z</time>
      </trkpt>
      <trkpt lat="44.41175" lon="6.91407">
        <ele>1941.8</ele>
        <time>2022-08-16T13:04:33Z</time>
      </trkpt>
      <trkpt lat="44.41178" lon="6.91402">
        <ele>1942</ele>
        <time>2022-08-16T13:04:34Z</time>
      </trkpt>
      <trkpt lat="44.41182" lon="6.91398">
        <ele>1941.8</ele>
        <time>2022-08-16T13:04:35Z</time>
      </trkpt>
      <trkpt lat="44.4119" lon="6.91388">
        <ele>1942</ele>
        <time>2022-08-16T13:04:37Z</time>
      </trkpt>
      <trkpt lat="44.41197" lon="6.91378">
        <ele>1942</ele>
        <time>2022-08-16T13:04:39Z</time>
      </trkpt>
      <trkpt lat="44.41201" lon="6.91373">
        <ele>1942</ele>
        <time>2022-08-16T13:04:40Z</time>
      </trkpt>
      <trkpt lat="44.41218" lon="6.91348">
        <ele>1942.8</ele>
        <time>2022-08-16T13:04:45Z</time>
      </trkpt>
      <trkpt lat="44.41225" lon="6.91338">
        <ele>1942.8</ele>
        <time>2022-08-16T13:04:47Z</time>
      </trkpt>
      <trkpt lat="44.41228" lon="6.91333">
        <ele>1942.8</ele>
        <time>2022-08-16T13:04:48Z</time>
      </trkpt>
      <trkpt lat="44.41232" lon="6.91328">
        <ele>1943</ele>
        <time>2022-08-16T13:04:49Z</time>
      </trkpt>
      <trkpt lat="44.41234" lon="6.91323">
        <ele>1942.8</ele>
        <time>2022-08-16T13:04:50Z</time>
      </trkpt>
      <trkpt lat="44.41237" lon="6.91318">
        <ele>1943</ele>
        <time>2022-08-16T13:04:51Z</time>
      </trkpt>
      <trkpt lat="44.4124" lon="6.91312">
        <ele>1943</ele>
        <time>2022-08-16T13:04:52Z</time>
      </trkpt>
      <trkpt lat="44.41242" lon="6.91307">
        <ele>1943</ele>
        <time>2022-08-16T13:04:53Z</time>
      </trkpt>
      <trkpt lat="44.41245" lon="6.91301">
        <ele>1943.2</ele>
        <time>2022-08-16T13:04:54Z</time>
      </trkpt>
      <trkpt lat="44.41247" lon="6.91296">
        <ele>1943.2</ele>
        <time>2022-08-16T13:04:55Z</time>
      </trkpt>
      <trkpt lat="44.41249" lon="6.9129">
        <ele>1943.4</ele>
        <time>2022-08-16T13:04:56Z</time>
      </trkpt>
      <trkpt lat="44.41251" lon="6.91285">
        <ele>1943.4</ele>
        <time>2022-08-16T13:04:57Z</time>
      </trkpt>
      <trkpt lat="44.41252" lon="6.9128">
        <ele>1943.8</ele>
        <time>2022-08-16T13:04:58Z</time>
      </trkpt>
      <trkpt lat="44.41254" lon="6.91275">
        <ele>1943.8</ele>
        <time>2022-08-16T13:04:59Z</time>
      </trkpt>
      <trkpt lat="44.41256" lon="6.9127">
        <ele>1944.2</ele>
        <time>2022-08-16T13:05:00Z</time>
      </trkpt>
      <trkpt lat="44.41258" lon="6.91265">
        <ele>1944.6</ele>
        <time>2022-08-16T13:05:01Z</time>
      </trkpt>
      <trkpt lat="44.41259" lon="6.9126">
        <ele>1944.8</ele>
        <time>2022-08-16T13:05:02Z</time>
      </trkpt>
      <trkpt lat="44.41261" lon="6.91256">
        <ele>1945</ele>
        <time>2022-08-16T13:05:03Z</time>
      </trkpt>
      <trkpt lat="44.41262" lon="6.91251">
        <ele>1945.4</ele>
        <time>2022-08-16T13:05:04Z</time>
      </trkpt>
      <trkpt lat="44.41264" lon="6.91246">
        <ele>1945.4</ele>
        <time>2022-08-16T13:05:05Z</time>
      </trkpt>
      <trkpt lat="44.41265" lon="6.91241">
        <ele>1945.6</ele>
        <time>2022-08-16T13:05:06Z</time>
      </trkpt>
      <trkpt lat="44.41267" lon="6.91236">
        <ele>1946</ele>
        <time>2022-08-16T13:05:07Z</time>
      </trkpt>
      <trkpt lat="44.41269" lon="6.91231">
        <ele>1946.2</ele>
        <time>2022-08-16T13:05:08Z</time>
      </trkpt>
      <trkpt lat="44.4127" lon="6.91227">
        <ele>1946.2</ele>
        <time>2022-08-16T13:05:09Z</time>
      </trkpt>
      <trkpt lat="44.41272" lon="6.91222">
        <ele>1946.2</ele>
        <time>2022-08-16T13:05:10Z</time>
      </trkpt>
      <trkpt lat="44.41274" lon="6.91217">
        <ele>1946.4</ele>
        <time>2022-08-16T13:05:11Z</time>
      </trkpt>
      <trkpt lat="44.41276" lon="6.91211">
        <ele>1946.4</ele>
        <time>2022-08-16T13:05:12Z</time>
      </trkpt>
      <trkpt lat="44.41277" lon="6.91206">
        <ele>1946.6</ele>
        <time>2022-08-16T13:05:13Z</time>
      </trkpt>
      <trkpt lat="44.41279" lon="6.912">
        <ele>1946.8</ele>
        <time>2022-08-16T13:05:14Z</time>
      </trkpt>
      <trkpt lat="44.41281" lon="6.91194">
        <ele>1947</ele>
        <time>2022-08-16T13:05:15Z</time>
      </trkpt>
      <trkpt lat="44.41283" lon="6.91188">
        <ele>1947.2</ele>
        <time>2022-08-16T13:05:16Z</time>
      </trkpt>
      <trkpt lat="44.41285" lon="6.91183">
        <ele>1947.4</ele>
        <time>2022-08-16T13:05:17Z</time>
      </trkpt>
      <trkpt lat="44.41287" lon="6.91178">
        <ele>1947.6</ele>
        <time>2022-08-16T13:05:18Z</time>
      </trkpt>
      <trkpt lat="44.41289" lon="6.91173">
        <ele>1948</ele>
        <time>2022-08-16T13:05:19Z</time>
      </trkpt>
      <trkpt lat="44.41292" lon="6.91167">
        <ele>1948</ele>
        <time>2022-08-16T13:05:20Z</time>
      </trkpt>
      <trkpt lat="44.41294" lon="6.91162">
        <ele>1948.2</ele>
        <time>2022-08-16T13:05:21Z</time>
      </trkpt>
      <trkpt lat="44.41296" lon="6.91157">
        <ele>1948.4</ele>
        <time>2022-08-16T13:05:22Z</time>
      </trkpt>
      <trkpt lat="44.41298" lon="6.91152">
        <ele>1948.4</ele>
        <time>2022-08-16T13:05:23Z</time>
      </trkpt>
      <trkpt lat="44.41301" lon="6.91146">
        <ele>1948.6</ele>
        <time>2022-08-16T13:05:24Z</time>
      </trkpt>
      <trkpt lat="44.41303" lon="6.9114">
        <ele>1948.8</ele>
        <time>2022-08-16T13:05:25Z</time>
      </trkpt>
      <trkpt lat="44.41306" lon="6.91134">
        <ele>1949</ele>
        <time>2022-08-16T13:05:26Z</time>
      </trkpt>
      <trkpt lat="44.41309" lon="6.91128">
        <ele>1949.2</ele>
        <time>2022-08-16T13:05:27Z</time>
      </trkpt>
      <trkpt lat="44.41312" lon="6.91123">
        <ele>1949.2</ele>
        <time>2022-08-16T13:05:28Z</time>
      </trkpt>
      <trkpt lat="44.41314" lon="6.91118">
        <ele>1949.6</ele>
        <time>2022-08-16T13:05:29Z</time>
      </trkpt>
      <trkpt lat="44.41316" lon="6.91114">
        <ele>1949.4</ele>
        <time>2022-08-16T13:05:30Z</time>
      </trkpt>
      <trkpt lat="44.41318" lon="6.9111">
        <ele>1949.4</ele>
        <time>2022-08-16T13:05:31Z</time>
      </trkpt>
      <trkpt lat="44.4132" lon="6.91106">
        <ele>1949.6</ele>
        <time>2022-08-16T13:05:32Z</time>
      </trkpt>
      <trkpt lat="44.41322" lon="6.91102">
        <ele>1949.6</ele>
        <time>2022-08-16T13:05:33Z</time>
      </trkpt>
      <trkpt lat="44.41324" lon="6.91098">
        <ele>1949.8</ele>
        <time>2022-08-16T13:05:34Z</time>
      </trkpt>
      <trkpt lat="44.41326" lon="6.91094">
        <ele>1949.8</ele>
        <time>2022-08-16T13:05:35Z</time>
      </trkpt>
      <trkpt lat="44.41329" lon="6.9109">
        <ele>1950</ele>
        <time>2022-08-16T13:05:36Z</time>
      </trkpt>
      <trkpt lat="44.41331" lon="6.91086">
        <ele>1950.2</ele>
        <time>2022-08-16T13:05:37Z</time>
      </trkpt>
      <trkpt lat="44.41333" lon="6.91082">
        <ele>1950.2</ele>
        <time>2022-08-16T13:05:38Z</time>
      </trkpt>
      <trkpt lat="44.41335" lon="6.91078">
        <ele>1950.2</ele>
        <time>2022-08-16T13:05:39Z</time>
      </trkpt>
      <trkpt lat="44.41337" lon="6.91074">
        <ele>1950.6</ele>
        <time>2022-08-16T13:05:40Z</time>
      </trkpt>
      <trkpt lat="44.41339" lon="6.9107">
        <ele>1951</ele>
        <time>2022-08-16T13:05:41Z</time>
      </trkpt>
      <trkpt lat="44.41342" lon="6.91066">
        <ele>1951.2</ele>
        <time>2022-08-16T13:05:42Z</time>
      </trkpt>
      <trkpt lat="44.41344" lon="6.91062">
        <ele>1951.4</ele>
        <time>2022-08-16T13:05:43Z</time>
      </trkpt>
      <trkpt lat="44.41346" lon="6.91058">
        <ele>1951.8</ele>
        <time>2022-08-16T13:05:44Z</time>
      </trkpt>
      <trkpt lat="44.41348" lon="6.91054">
        <ele>1951.8</ele>
        <time>2022-08-16T13:05:45Z</time>
      </trkpt>
      <trkpt lat="44.4135" lon="6.9105">
        <ele>1952</ele>
        <time>2022-08-16T13:05:46Z</time>
      </trkpt>
      <trkpt lat="44.41352" lon="6.91046">
        <ele>1952.2</ele>
        <time>2022-08-16T13:05:47Z</time>
      </trkpt>
      <trkpt lat="44.41354" lon="6.91042">
        <ele>1952.2</ele>
        <time>2022-08-16T13:05:48Z</time>
      </trkpt>
      <trkpt lat="44.41356" lon="6.91038">
        <ele>1952.2</ele>
        <time>2022-08-16T13:05:49Z</time>
      </trkpt>
      <trkpt lat="44.41358" lon="6.91034">
        <ele>1952.4</ele>
        <time>2022-08-16T13:05:50Z</time>
      </trkpt>
      <trkpt lat="44.41361" lon="6.91029">
        <ele>1952.4</ele>
        <time>2022-08-16T13:05:51Z</time>
      </trkpt>
      <trkpt lat="44.41363" lon="6.91025">
        <ele>1952.4</ele>
        <time>2022-08-16T13:05:52Z</time>
      </trkpt>
      <trkpt lat="44.41365" lon="6.91021">
        <ele>1952.4</ele>
        <time>2022-08-16T13:05:53Z</time>
      </trkpt>
      <trkpt lat="44.41368" lon="6.91016">
        <ele>1952.4</ele>
        <time>2022-08-16T13:05:54Z</time>
      </trkpt>
      <trkpt lat="44.4137" lon="6.91012">
        <ele>1952.4</ele>
        <time>2022-08-16T13:05:55Z</time>
      </trkpt>
      <trkpt lat="44.41372" lon="6.91007">
        <ele>1952.6</ele>
        <time>2022-08-16T13:05:56Z</time>
      </trkpt>
      <trkpt lat="44.41375" lon="6.91003">
        <ele>1952.6</ele>
        <time>2022-08-16T13:05:57Z</time>
      </trkpt>
      <trkpt lat="44.41378" lon="6.90998">
        <ele>1952.6</ele>
        <time>2022-08-16T13:05:58Z</time>
      </trkpt>
      <trkpt lat="44.4138" lon="6.90993">
        <ele>1953</ele>
        <time>2022-08-16T13:05:59Z</time>
      </trkpt>
      <trkpt lat="44.41383" lon="6.90989">
        <ele>1953</ele>
        <time>2022-08-16T13:06:00Z</time>
      </trkpt>
      <trkpt lat="44.41385" lon="6.90984">
        <ele>1953.2</ele>
        <time>2022-08-16T13:06:01Z</time>
      </trkpt>
      <trkpt lat="44.41388" lon="6.90979">
        <ele>1953.4</ele>
        <time>2022-08-16T13:06:02Z</time>
      </trkpt>
      <trkpt lat="44.41391" lon="6.90974">
        <ele>1953.4</ele>
        <time>2022-08-16T13:06:03Z</time>
      </trkpt>
      <trkpt lat="44.41394" lon="6.90969">
        <ele>1953.4</ele>
        <time>2022-08-16T13:06:04Z</time>
      </trkpt>
      <trkpt lat="44.41397" lon="6.90965">
        <ele>1953.4</ele>
        <time>2022-08-16T13:06:05Z</time>
      </trkpt>
      <trkpt lat="44.414" lon="6.9096">
        <ele>1953.6</ele>
        <time>2022-08-16T13:06:06Z</time>
      </trkpt>
      <trkpt lat="44.41403" lon="6.90954">
        <ele>1953.8</ele>
        <time>2022-08-16T13:06:07Z</time>
      </trkpt>
      <trkpt lat="44.41406" lon="6.90949">
        <ele>1954</ele>
        <time>2022-08-16T13:06:08Z</time>
      </trkpt>
      <trkpt lat="44.41409" lon="6.90944">
        <ele>1954.2</ele>
        <time>2022-08-16T13:06:09Z</time>
      </trkpt>
      <trkpt lat="44.41412" lon="6.90939">
        <ele>1954.2</ele>
        <time>2022-08-16T13:06:10Z</time>
      </trkpt>
      <trkpt lat="44.41416" lon="6.90934">
        <ele>1954.4</ele>
        <time>2022-08-16T13:06:11Z</time>
      </trkpt>
      <trkpt lat="44.41449" lon="6.90889">
        <ele>1954.6</ele>
        <time>2022-08-16T13:06:20Z</time>
      </trkpt>
      <trkpt lat="44.41467" lon="6.90862">
        <ele>1954.6</ele>
        <time>2022-08-16T13:06:25Z</time>
      </trkpt>
      <trkpt lat="44.41471" lon="6.90857">
        <ele>1954.6</ele>
        <time>2022-08-16T13:06:26Z</time>
      </trkpt>
      <trkpt lat="44.41474" lon="6.90851">
        <ele>1954.6</ele>
        <time>2022-08-16T13:06:27Z</time>
      </trkpt>
      <trkpt lat="44.41478" lon="6.90846">
        <ele>1954.4</ele>
        <time>2022-08-16T13:06:28Z</time>
      </trkpt>
      <trkpt lat="44.41481" lon="6.90841">
        <ele>1954.4</ele>
        <time>2022-08-16T13:06:29Z</time>
      </trkpt>
      <trkpt lat="44.41485" lon="6.90835">
        <ele>1954.4</ele>
        <time>2022-08-16T13:06:30Z</time>
      </trkpt>
      <trkpt lat="44.41488" lon="6.9083">
        <ele>1954.4</ele>
        <time>2022-08-16T13:06:31Z</time>
      </trkpt>
      <trkpt lat="44.41504" lon="6.90794">
        <ele>1954.4</ele>
        <time>2022-08-16T13:06:37Z</time>
      </trkpt>
      <trkpt lat="44.41507" lon="6.90788">
        <ele>1954.6</ele>
        <time>2022-08-16T13:06:38Z</time>
      </trkpt>
      <trkpt lat="44.41509" lon="6.90782">
        <ele>1954.6</ele>
        <time>2022-08-16T13:06:39Z</time>
      </trkpt>
      <trkpt lat="44.41512" lon="6.90776">
        <ele>1954.6</ele>
        <time>2022-08-16T13:06:40Z</time>
      </trkpt>
      <trkpt lat="44.41515" lon="6.9077">
        <ele>1954.6</ele>
        <time>2022-08-16T13:06:41Z</time>
      </trkpt>
      <trkpt lat="44.41517" lon="6.90764">
        <ele>1954.8</ele>
        <time>2022-08-16T13:06:42Z</time>
      </trkpt>
      <trkpt lat="44.4152" lon="6.90758">
        <ele>1954.8</ele>
        <time>2022-08-16T13:06:43Z</time>
      </trkpt>
      <trkpt lat="44.41522" lon="6.90753">
        <ele>1954.8</ele>
        <time>2022-08-16T13:06:44Z</time>
      </trkpt>
      <trkpt lat="44.41525" lon="6.90747">
        <ele>1954.8</ele>
        <time>2022-08-16T13:06:45Z</time>
      </trkpt>
      <trkpt lat="44.4153" lon="6.90735">
        <ele>1954.8</ele>
        <time>2022-08-16T13:06:47Z</time>
      </trkpt>
      <trkpt lat="44.41533" lon="6.9073">
        <ele>1955</ele>
        <time>2022-08-16T13:06:48Z</time>
      </trkpt>
      <trkpt lat="44.41535" lon="6.90724">
        <ele>1955</ele>
        <time>2022-08-16T13:06:49Z</time>
      </trkpt>
      <trkpt lat="44.41568" lon="6.90664">
        <ele>1955.4</ele>
        <time>2022-08-16T13:07:00Z</time>
      </trkpt>
      <trkpt lat="44.41593" lon="6.90625">
        <ele>1955.8</ele>
        <time>2022-08-16T13:07:07Z</time>
      </trkpt>
      <trkpt lat="44.41598" lon="6.9062">
        <ele>1955.8</ele>
        <time>2022-08-16T13:07:08Z</time>
      </trkpt>
      <trkpt lat="44.41607" lon="6.90611">
        <ele>1955.8</ele>
        <time>2022-08-16T13:07:10Z</time>
      </trkpt>
      <trkpt lat="44.41611" lon="6.90608">
        <ele>1955.8</ele>
        <time>2022-08-16T13:07:11Z</time>
      </trkpt>
      <trkpt lat="44.41615" lon="6.90605">
        <ele>1955.8</ele>
        <time>2022-08-16T13:07:12Z</time>
      </trkpt>
      <trkpt lat="44.4162" lon="6.90602">
        <ele>1955.8</ele>
        <time>2022-08-16T13:07:13Z</time>
      </trkpt>
      <trkpt lat="44.41625" lon="6.906">
        <ele>1955.6</ele>
        <time>2022-08-16T13:07:14Z</time>
      </trkpt>
      <trkpt lat="44.41645" lon="6.90593">
        <ele>1955.6</ele>
        <time>2022-08-16T13:07:18Z</time>
      </trkpt>
      <trkpt lat="44.41697" lon="6.90577">
        <ele>1955.2</ele>
        <time>2022-08-16T13:07:28Z</time>
      </trkpt>
      <trkpt lat="44.41702" lon="6.90576">
        <ele>1955.4</ele>
        <time>2022-08-16T13:07:29Z</time>
      </trkpt>
      <trkpt lat="44.41707" lon="6.90575">
        <ele>1955.2</ele>
        <time>2022-08-16T13:07:30Z</time>
      </trkpt>
      <trkpt lat="44.41713" lon="6.90574">
        <ele>1955.2</ele>
        <time>2022-08-16T13:07:31Z</time>
      </trkpt>
      <trkpt lat="44.4175" lon="6.9057">
        <ele>1955.2</ele>
        <time>2022-08-16T13:07:38Z</time>
      </trkpt>
      <trkpt lat="44.41773" lon="6.90568">
        <ele>1955.2</ele>
        <time>2022-08-16T13:07:42Z</time>
      </trkpt>
      <trkpt lat="44.41784" lon="6.90567">
        <ele>1955.2</ele>
        <time>2022-08-16T13:07:44Z</time>
      </trkpt>
      <trkpt lat="44.4179" lon="6.90567">
        <ele>1955.2</ele>
        <time>2022-08-16T13:07:45Z</time>
      </trkpt>
      <trkpt lat="44.41795" lon="6.90566">
        <ele>1955.2</ele>
        <time>2022-08-16T13:07:46Z</time>
      </trkpt>
      <trkpt lat="44.41801" lon="6.90566">
        <ele>1955.2</ele>
        <time>2022-08-16T13:07:47Z</time>
      </trkpt>
      <trkpt lat="44.41806" lon="6.90565">
        <ele>1955.4</ele>
        <time>2022-08-16T13:07:48Z</time>
      </trkpt>
      <trkpt lat="44.41817" lon="6.90561">
        <ele>1955.4</ele>
        <time>2022-08-16T13:07:50Z</time>
      </trkpt>
      <trkpt lat="44.41821" lon="6.90558">
        <ele>1955.4</ele>
        <time>2022-08-16T13:07:51Z</time>
      </trkpt>
      <trkpt lat="44.41825" lon="6.90553">
        <ele>1955.4</ele>
        <time>2022-08-16T13:07:52Z</time>
      </trkpt>
      <trkpt lat="44.41828" lon="6.90546">
        <ele>1955.4</ele>
        <time>2022-08-16T13:07:53Z</time>
      </trkpt>
      <trkpt lat="44.4183" lon="6.9054">
        <ele>1955.6</ele>
        <time>2022-08-16T13:07:54Z</time>
      </trkpt>
      <trkpt lat="44.41833" lon="6.90533">
        <ele>1955.6</ele>
        <time>2022-08-16T13:07:55Z</time>
      </trkpt>
      <trkpt lat="44.41835" lon="6.90525">
        <ele>1955.6</ele>
        <time>2022-08-16T13:07:56Z</time>
      </trkpt>
      <trkpt lat="44.41856" lon="6.90451">
        <ele>1956.6</ele>
        <time>2022-08-16T13:08:06Z</time>
      </trkpt>
      <trkpt lat="44.41858" lon="6.90443">
        <ele>1956.6</ele>
        <time>2022-08-16T13:08:07Z</time>
      </trkpt>
      <trkpt lat="44.41862" lon="6.90426">
        <ele>1956.8</ele>
        <time>2022-08-16T13:08:09Z</time>
      </trkpt>
      <trkpt lat="44.41863" lon="6.90418">
        <ele>1956.6</ele>
        <time>2022-08-16T13:08:10Z</time>
      </trkpt>
      <trkpt lat="44.41864" lon="6.9041">
        <ele>1956.8</ele>
        <time>2022-08-16T13:08:11Z</time>
      </trkpt>
      <trkpt lat="44.41866" lon="6.90403">
        <ele>1956.8</ele>
        <time>2022-08-16T13:08:12Z</time>
      </trkpt>
      <trkpt lat="44.41867" lon="6.90395">
        <ele>1956.6</ele>
        <time>2022-08-16T13:08:13Z</time>
      </trkpt>
      <trkpt lat="44.41873" lon="6.90364">
        <ele>1956.8</ele>
        <time>2022-08-16T13:08:17Z</time>
      </trkpt>
      <trkpt lat="44.41877" lon="6.9034">
        <ele>1956.8</ele>
        <time>2022-08-16T13:08:20Z</time>
      </trkpt>
      <trkpt lat="44.41879" lon="6.90333">
        <ele>1956.8</ele>
        <time>2022-08-16T13:08:21Z</time>
      </trkpt>
      <trkpt lat="44.4188" lon="6.90325">
        <ele>1956.8</ele>
        <time>2022-08-16T13:08:22Z</time>
      </trkpt>
      <trkpt lat="44.41881" lon="6.90318">
        <ele>1956.8</ele>
        <time>2022-08-16T13:08:23Z</time>
      </trkpt>
      <trkpt lat="44.41883" lon="6.9031">
        <ele>1956.8</ele>
        <time>2022-08-16T13:08:24Z</time>
      </trkpt>
      <trkpt lat="44.41887" lon="6.90287">
        <ele>1957</ele>
        <time>2022-08-16T13:08:27Z</time>
      </trkpt>
      <trkpt lat="44.41889" lon="6.9028">
        <ele>1956.8</ele>
        <time>2022-08-16T13:08:28Z</time>
      </trkpt>
      <trkpt lat="44.41893" lon="6.90266">
        <ele>1956.8</ele>
        <time>2022-08-16T13:08:30Z</time>
      </trkpt>
      <trkpt lat="44.41896" lon="6.90259">
        <ele>1957</ele>
        <time>2022-08-16T13:08:31Z</time>
      </trkpt>
      <trkpt lat="44.41898" lon="6.90253">
        <ele>1957</ele>
        <time>2022-08-16T13:08:32Z</time>
      </trkpt>
      <trkpt lat="44.419" lon="6.90247">
        <ele>1957.2</ele>
        <time>2022-08-16T13:08:33Z</time>
      </trkpt>
      <trkpt lat="44.41902" lon="6.90241">
        <ele>1957.2</ele>
        <time>2022-08-16T13:08:34Z</time>
      </trkpt>
      <trkpt lat="44.41904" lon="6.90235">
        <ele>1957.4</ele>
        <time>2022-08-16T13:08:35Z</time>
      </trkpt>
      <trkpt lat="44.41906" lon="6.9023">
        <ele>1957.2</ele>
        <time>2022-08-16T13:08:36Z</time>
      </trkpt>
      <trkpt lat="44.41908" lon="6.90225">
        <ele>1957.2</ele>
        <time>2022-08-16T13:08:37Z</time>
      </trkpt>
      <trkpt lat="44.4191" lon="6.9022">
        <ele>1957.4</ele>
        <time>2022-08-16T13:08:38Z</time>
      </trkpt>
      <trkpt lat="44.41912" lon="6.90215">
        <ele>1957.6</ele>
        <time>2022-08-16T13:08:39Z</time>
      </trkpt>
      <trkpt lat="44.41914" lon="6.9021">
        <ele>1957.6</ele>
        <time>2022-08-16T13:08:40Z</time>
      </trkpt>
      <trkpt lat="44.41916" lon="6.90204">
        <ele>1957.8</ele>
        <time>2022-08-16T13:08:41Z</time>
      </trkpt>
      <trkpt lat="44.41918" lon="6.90199">
        <ele>1958</ele>
        <time>2022-08-16T13:08:42Z</time>
      </trkpt>
      <trkpt lat="44.4192" lon="6.90195">
        <ele>1958.2</ele>
        <time>2022-08-16T13:08:43Z</time>
      </trkpt>
      <trkpt lat="44.41922" lon="6.9019">
        <ele>1958.4</ele>
        <time>2022-08-16T13:08:44Z</time>
      </trkpt>
      <trkpt lat="44.41924" lon="6.90185">
        <ele>1958.6</ele>
        <time>2022-08-16T13:08:45Z</time>
      </trkpt>
      <trkpt lat="44.41926" lon="6.90181">
        <ele>1958.6</ele>
        <time>2022-08-16T13:08:46Z</time>
      </trkpt>
      <trkpt lat="44.41928" lon="6.90176">
        <ele>1959</ele>
        <time>2022-08-16T13:08:47Z</time>
      </trkpt>
      <trkpt lat="44.4193" lon="6.90172">
        <ele>1959</ele>
        <time>2022-08-16T13:08:48Z</time>
      </trkpt>
      <trkpt lat="44.41931" lon="6.90167">
        <ele>1959</ele>
        <time>2022-08-16T13:08:49Z</time>
      </trkpt>
      <trkpt lat="44.41933" lon="6.90163">
        <ele>1959</ele>
        <time>2022-08-16T13:08:50Z</time>
      </trkpt>
      <trkpt lat="44.41935" lon="6.90159">
        <ele>1959.2</ele>
        <time>2022-08-16T13:08:51Z</time>
      </trkpt>
      <trkpt lat="44.41936" lon="6.90155">
        <ele>1959.4</ele>
        <time>2022-08-16T13:08:52Z</time>
      </trkpt>
      <trkpt lat="44.41938" lon="6.90151">
        <ele>1959.6</ele>
        <time>2022-08-16T13:08:53Z</time>
      </trkpt>
      <trkpt lat="44.4194" lon="6.90147">
        <ele>1959.6</ele>
        <time>2022-08-16T13:08:54Z</time>
      </trkpt>
      <trkpt lat="44.41941" lon="6.90143">
        <ele>1959.6</ele>
        <time>2022-08-16T13:08:55Z</time>
      </trkpt>
      <trkpt lat="44.41943" lon="6.90138">
        <ele>1959.8</ele>
        <time>2022-08-16T13:08:56Z</time>
      </trkpt>
      <trkpt lat="44.41945" lon="6.90134">
        <ele>1960</ele>
        <time>2022-08-16T13:08:57Z</time>
      </trkpt>
      <trkpt lat="44.41946" lon="6.9013">
        <ele>1960.2</ele>
        <time>2022-08-16T13:08:58Z</time>
      </trkpt>
      <trkpt lat="44.41948" lon="6.90125">
        <ele>1960.4</ele>
        <time>2022-08-16T13:08:59Z</time>
      </trkpt>
      <trkpt lat="44.41949" lon="6.90121">
        <ele>1960.6</ele>
        <time>2022-08-16T13:09:00Z</time>
      </trkpt>
      <trkpt lat="44.41951" lon="6.90117">
        <ele>1960.8</ele>
        <time>2022-08-16T13:09:01Z</time>
      </trkpt>
      <trkpt lat="44.41953" lon="6.90113">
        <ele>1961.2</ele>
        <time>2022-08-16T13:09:02Z</time>
      </trkpt>
      <trkpt lat="44.41955" lon="6.90109">
        <ele>1961.2</ele>
        <time>2022-08-16T13:09:03Z</time>
      </trkpt>
      <trkpt lat="44.41957" lon="6.90105">
        <ele>1961.4</ele>
        <time>2022-08-16T13:09:04Z</time>
      </trkpt>
      <trkpt lat="44.41959" lon="6.901">
        <ele>1961.4</ele>
        <time>2022-08-16T13:09:05Z</time>
      </trkpt>
      <trkpt lat="44.41961" lon="6.90097">
        <ele>1961.6</ele>
        <time>2022-08-16T13:09:06Z</time>
      </trkpt>
      <trkpt lat="44.41963" lon="6.90093">
        <ele>1961.6</ele>
        <time>2022-08-16T13:09:07Z</time>
      </trkpt>
      <trkpt lat="44.41965" lon="6.90089">
        <ele>1961.8</ele>
        <time>2022-08-16T13:09:08Z</time>
      </trkpt>
      <trkpt lat="44.41968" lon="6.90086">
        <ele>1962</ele>
        <time>2022-08-16T13:09:09Z</time>
      </trkpt>
      <trkpt lat="44.4197" lon="6.90083">
        <ele>1962</ele>
        <time>2022-08-16T13:09:10Z</time>
      </trkpt>
      <trkpt lat="44.41973" lon="6.90081">
        <ele>1962</ele>
        <time>2022-08-16T13:09:11Z</time>
      </trkpt>
      <trkpt lat="44.41976" lon="6.90078">
        <ele>1962.2</ele>
        <time>2022-08-16T13:09:12Z</time>
      </trkpt>
      <trkpt lat="44.41979" lon="6.90076">
        <ele>1962.4</ele>
        <time>2022-08-16T13:09:13Z</time>
      </trkpt>
      <trkpt lat="44.41982" lon="6.90074">
        <ele>1962.4</ele>
        <time>2022-08-16T13:09:14Z</time>
      </trkpt>
      <trkpt lat="44.41985" lon="6.90072">
        <ele>1962.4</ele>
        <time>2022-08-16T13:09:15Z</time>
      </trkpt>
      <trkpt lat="44.41989" lon="6.90071">
        <ele>1962.8</ele>
        <time>2022-08-16T13:09:16Z</time>
      </trkpt>
      <trkpt lat="44.41992" lon="6.9007">
        <ele>1962.8</ele>
        <time>2022-08-16T13:09:17Z</time>
      </trkpt>
      <trkpt lat="44.41995" lon="6.90069">
        <ele>1963.4</ele>
        <time>2022-08-16T13:09:18Z</time>
      </trkpt>
      <trkpt lat="44.41998" lon="6.90068">
        <ele>1963.8</ele>
        <time>2022-08-16T13:09:19Z</time>
      </trkpt>
      <trkpt lat="44.42002" lon="6.90067">
        <ele>1964</ele>
        <time>2022-08-16T13:09:20Z</time>
      </trkpt>
      <trkpt lat="44.42005" lon="6.90066">
        <ele>1964.2</ele>
        <time>2022-08-16T13:09:21Z</time>
      </trkpt>
      <trkpt lat="44.42008" lon="6.90065">
        <ele>1964.4</ele>
        <time>2022-08-16T13:09:22Z</time>
      </trkpt>
      <trkpt lat="44.42011" lon="6.90064">
        <ele>1964.4</ele>
        <time>2022-08-16T13:09:23Z</time>
      </trkpt>
      <trkpt lat="44.42014" lon="6.90063">
        <ele>1964.6</ele>
        <time>2022-08-16T13:09:24Z</time>
      </trkpt>
      <trkpt lat="44.42017" lon="6.90062">
        <ele>1964.6</ele>
        <time>2022-08-16T13:09:25Z</time>
      </trkpt>
      <trkpt lat="44.4202" lon="6.90061">
        <ele>1964.6</ele>
        <time>2022-08-16T13:09:26Z</time>
      </trkpt>
      <trkpt lat="44.42023" lon="6.90059">
        <ele>1965</ele>
        <time>2022-08-16T13:09:27Z</time>
      </trkpt>
      <trkpt lat="44.42026" lon="6.90058">
        <ele>1965</ele>
        <time>2022-08-16T13:09:28Z</time>
      </trkpt>
      <trkpt lat="44.42029" lon="6.90056">
        <ele>1965.2</ele>
        <time>2022-08-16T13:09:29Z</time>
      </trkpt>
      <trkpt lat="44.42032" lon="6.90055">
        <ele>1965.6</ele>
        <time>2022-08-16T13:09:30Z</time>
      </trkpt>
      <trkpt lat="44.42035" lon="6.90053">
        <ele>1965.8</ele>
        <time>2022-08-16T13:09:31Z</time>
      </trkpt>
      <trkpt lat="44.42038" lon="6.90051">
        <ele>1966</ele>
        <time>2022-08-16T13:09:32Z</time>
      </trkpt>
      <trkpt lat="44.42041" lon="6.90049">
        <ele>1966</ele>
        <time>2022-08-16T13:09:33Z</time>
      </trkpt>
      <trkpt lat="44.42044" lon="6.90046">
        <ele>1966</ele>
        <time>2022-08-16T13:09:34Z</time>
      </trkpt>
      <trkpt lat="44.42046" lon="6.90044">
        <ele>1966</ele>
        <time>2022-08-16T13:09:35Z</time>
      </trkpt>
      <trkpt lat="44.42049" lon="6.90041">
        <ele>1966.2</ele>
        <time>2022-08-16T13:09:36Z</time>
      </trkpt>
      <trkpt lat="44.42052" lon="6.90038">
        <ele>1966.2</ele>
        <time>2022-08-16T13:09:37Z</time>
      </trkpt>
      <trkpt lat="44.42055" lon="6.90035">
        <ele>1966.2</ele>
        <time>2022-08-16T13:09:38Z</time>
      </trkpt>
      <trkpt lat="44.42057" lon="6.90032">
        <ele>1966.4</ele>
        <time>2022-08-16T13:09:39Z</time>
      </trkpt>
      <trkpt lat="44.4206" lon="6.90029">
        <ele>1966.4</ele>
        <time>2022-08-16T13:09:40Z</time>
      </trkpt>
      <trkpt lat="44.42062" lon="6.90026">
        <ele>1966.4</ele>
        <time>2022-08-16T13:09:41Z</time>
      </trkpt>
      <trkpt lat="44.42065" lon="6.90023">
        <ele>1966.6</ele>
        <time>2022-08-16T13:09:42Z</time>
      </trkpt>
      <trkpt lat="44.42068" lon="6.9002">
        <ele>1966.6</ele>
        <time>2022-08-16T13:09:43Z</time>
      </trkpt>
      <trkpt lat="44.42071" lon="6.90017">
        <ele>1966.6</ele>
        <time>2022-08-16T13:09:44Z</time>
      </trkpt>
      <trkpt lat="44.42073" lon="6.90014">
        <ele>1966.6</ele>
        <time>2022-08-16T13:09:45Z</time>
      </trkpt>
      <trkpt lat="44.42076" lon="6.90012">
        <ele>1966.8</ele>
        <time>2022-08-16T13:09:46Z</time>
      </trkpt>
      <trkpt lat="44.42079" lon="6.90009">
        <ele>1966.8</ele>
        <time>2022-08-16T13:09:47Z</time>
      </trkpt>
      <trkpt lat="44.42082" lon="6.90006">
        <ele>1967</ele>
        <time>2022-08-16T13:09:48Z</time>
      </trkpt>
      <trkpt lat="44.42085" lon="6.90003">
        <ele>1967</ele>
        <time>2022-08-16T13:09:49Z</time>
      </trkpt>
      <trkpt lat="44.42087" lon="6.9">
        <ele>1967.2</ele>
        <time>2022-08-16T13:09:50Z</time>
      </trkpt>
      <trkpt lat="44.4209" lon="6.89997">
        <ele>1967.4</ele>
        <time>2022-08-16T13:09:51Z</time>
      </trkpt>
      <trkpt lat="44.42093" lon="6.89994">
        <ele>1967.6</ele>
        <time>2022-08-16T13:09:52Z</time>
      </trkpt>
      <trkpt lat="44.42095" lon="6.89991">
        <ele>1967.6</ele>
        <time>2022-08-16T13:09:53Z</time>
      </trkpt>
      <trkpt lat="44.42098" lon="6.89988">
        <ele>1967.8</ele>
        <time>2022-08-16T13:09:54Z</time>
      </trkpt>
      <trkpt lat="44.421" lon="6.89984">
        <ele>1967.8</ele>
        <time>2022-08-16T13:09:55Z</time>
      </trkpt>
      <trkpt lat="44.42103" lon="6.89981">
        <ele>1967.8</ele>
        <time>2022-08-16T13:09:56Z</time>
      </trkpt>
      <trkpt lat="44.42105" lon="6.89978">
        <ele>1968</ele>
        <time>2022-08-16T13:09:57Z</time>
      </trkpt>
      <trkpt lat="44.42108" lon="6.89975">
        <ele>1968.2</ele>
        <time>2022-08-16T13:09:58Z</time>
      </trkpt>
      <trkpt lat="44.4211" lon="6.89972">
        <ele>1968.4</ele>
        <time>2022-08-16T13:09:59Z</time>
      </trkpt>
      <trkpt lat="44.42113" lon="6.89969">
        <ele>1968.4</ele>
        <time>2022-08-16T13:10:00Z</time>
      </trkpt>
      <trkpt lat="44.42116" lon="6.89965">
        <ele>1968.4</ele>
        <time>2022-08-16T13:10:01Z</time>
      </trkpt>
      <trkpt lat="44.42118" lon="6.89962">
        <ele>1968.6</ele>
        <time>2022-08-16T13:10:02Z</time>
      </trkpt>
      <trkpt lat="44.42121" lon="6.89959">
        <ele>1968.8</ele>
        <time>2022-08-16T13:10:03Z</time>
      </trkpt>
      <trkpt lat="44.42123" lon="6.89955">
        <ele>1968.8</ele>
        <time>2022-08-16T13:10:04Z</time>
      </trkpt>
      <trkpt lat="44.42126" lon="6.89951">
        <ele>1969</ele>
        <time>2022-08-16T13:10:05Z</time>
      </trkpt>
      <trkpt lat="44.42128" lon="6.89948">
        <ele>1969</ele>
        <time>2022-08-16T13:10:06Z</time>
      </trkpt>
      <trkpt lat="44.42131" lon="6.89944">
        <ele>1969.2</ele>
        <time>2022-08-16T13:10:07Z</time>
      </trkpt>
      <trkpt lat="44.42133" lon="6.89941">
        <ele>1969.4</ele>
        <time>2022-08-16T13:10:08Z</time>
      </trkpt>
      <trkpt lat="44.42135" lon="6.89937">
        <ele>1969.4</ele>
        <time>2022-08-16T13:10:09Z</time>
      </trkpt>
      <trkpt lat="44.42137" lon="6.89933">
        <ele>1969.6</ele>
        <time>2022-08-16T13:10:10Z</time>
      </trkpt>
      <trkpt lat="44.42139" lon="6.8993">
        <ele>1969.6</ele>
        <time>2022-08-16T13:10:11Z</time>
      </trkpt>
      <trkpt lat="44.42141" lon="6.89926">
        <ele>1969.6</ele>
        <time>2022-08-16T13:10:12Z</time>
      </trkpt>
      <trkpt lat="44.42144" lon="6.89923">
        <ele>1970</ele>
        <time>2022-08-16T13:10:13Z</time>
      </trkpt>
      <trkpt lat="44.42146" lon="6.8992">
        <ele>1970</ele>
        <time>2022-08-16T13:10:14Z</time>
      </trkpt>
      <trkpt lat="44.42148" lon="6.89916">
        <ele>1970.2</ele>
        <time>2022-08-16T13:10:15Z</time>
      </trkpt>
      <trkpt lat="44.4215" lon="6.89913">
        <ele>1970.4</ele>
        <time>2022-08-16T13:10:16Z</time>
      </trkpt>
      <trkpt lat="44.42151" lon="6.8991">
        <ele>1970.4</ele>
        <time>2022-08-16T13:10:17Z</time>
      </trkpt>
      <trkpt lat="44.42153" lon="6.89906">
        <ele>1970.4</ele>
        <time>2022-08-16T13:10:18Z</time>
      </trkpt>
      <trkpt lat="44.42155" lon="6.89903">
        <ele>1970.6</ele>
        <time>2022-08-16T13:10:19Z</time>
      </trkpt>
      <trkpt lat="44.42157" lon="6.89899">
        <ele>1970.8</ele>
        <time>2022-08-16T13:10:20Z</time>
      </trkpt>
      <trkpt lat="44.42159" lon="6.89896">
        <ele>1971</ele>
        <time>2022-08-16T13:10:21Z</time>
      </trkpt>
      <trkpt lat="44.4216" lon="6.89893">
        <ele>1971.2</ele>
        <time>2022-08-16T13:10:22Z</time>
      </trkpt>
      <trkpt lat="44.42162" lon="6.8989">
        <ele>1971.2</ele>
        <time>2022-08-16T13:10:23Z</time>
      </trkpt>
      <trkpt lat="44.42164" lon="6.89888">
        <ele>1971.4</ele>
        <time>2022-08-16T13:10:24Z</time>
      </trkpt>
      <trkpt lat="44.42165" lon="6.89885">
        <ele>1971.6</ele>
        <time>2022-08-16T13:10:25Z</time>
      </trkpt>
      <trkpt lat="44.42167" lon="6.89882">
        <ele>1971.6</ele>
        <time>2022-08-16T13:10:26Z</time>
      </trkpt>
      <trkpt lat="44.42169" lon="6.89878">
        <ele>1971.8</ele>
        <time>2022-08-16T13:10:27Z</time>
      </trkpt>
      <trkpt lat="44.4217" lon="6.89875">
        <ele>1972</ele>
        <time>2022-08-16T13:10:28Z</time>
      </trkpt>
      <trkpt lat="44.42172" lon="6.89872">
        <ele>1972.2</ele>
        <time>2022-08-16T13:10:29Z</time>
      </trkpt>
      <trkpt lat="44.42174" lon="6.89869">
        <ele>1972.4</ele>
        <time>2022-08-16T13:10:30Z</time>
      </trkpt>
      <trkpt lat="44.42176" lon="6.89866">
        <ele>1972.4</ele>
        <time>2022-08-16T13:10:31Z</time>
      </trkpt>
      <trkpt lat="44.42178" lon="6.89862">
        <ele>1972.8</ele>
        <time>2022-08-16T13:10:32Z</time>
      </trkpt>
      <trkpt lat="44.4218" lon="6.89859">
        <ele>1973</ele>
        <time>2022-08-16T13:10:33Z</time>
      </trkpt>
      <trkpt lat="44.42182" lon="6.89856">
        <ele>1973.2</ele>
        <time>2022-08-16T13:10:34Z</time>
      </trkpt>
      <trkpt lat="44.42184" lon="6.89853">
        <ele>1973.4</ele>
        <time>2022-08-16T13:10:35Z</time>
      </trkpt>
      <trkpt lat="44.42185" lon="6.8985">
        <ele>1973.4</ele>
        <time>2022-08-16T13:10:36Z</time>
      </trkpt>
      <trkpt lat="44.42187" lon="6.89847">
        <ele>1973.6</ele>
        <time>2022-08-16T13:10:37Z</time>
      </trkpt>
      <trkpt lat="44.42188" lon="6.89844">
        <ele>1973.6</ele>
        <time>2022-08-16T13:10:38Z</time>
      </trkpt>
      <trkpt lat="44.4219" lon="6.89841">
        <ele>1973.8</ele>
        <time>2022-08-16T13:10:39Z</time>
      </trkpt>
      <trkpt lat="44.42192" lon="6.89838">
        <ele>1973.8</ele>
        <time>2022-08-16T13:10:40Z</time>
      </trkpt>
      <trkpt lat="44.42194" lon="6.89836">
        <ele>1973.8</ele>
        <time>2022-08-16T13:10:41Z</time>
      </trkpt>
      <trkpt lat="44.42196" lon="6.89833">
        <ele>1974</ele>
        <time>2022-08-16T13:10:42Z</time>
      </trkpt>
      <trkpt lat="44.42198" lon="6.89829">
        <ele>1974</ele>
        <time>2022-08-16T13:10:43Z</time>
      </trkpt>
      <trkpt lat="44.422" lon="6.89826">
        <ele>1974</ele>
        <time>2022-08-16T13:10:44Z</time>
      </trkpt>
      <trkpt lat="44.42202" lon="6.89823">
        <ele>1974</ele>
        <time>2022-08-16T13:10:45Z</time>
      </trkpt>
      <trkpt lat="44.42207" lon="6.89816">
        <ele>1974</ele>
        <time>2022-08-16T13:10:47Z</time>
      </trkpt>
      <trkpt lat="44.42218" lon="6.89798">
        <ele>1974.2</ele>
        <time>2022-08-16T13:10:52Z</time>
      </trkpt>
      <trkpt lat="44.42221" lon="6.89795">
        <ele>1974</ele>
        <time>2022-08-16T13:10:53Z</time>
      </trkpt>
      <trkpt lat="44.42223" lon="6.89791">
        <ele>1974.2</ele>
        <time>2022-08-16T13:10:54Z</time>
      </trkpt>
      <trkpt lat="44.42237" lon="6.89772">
        <ele>1973.8</ele>
        <time>2022-08-16T13:10:59Z</time>
      </trkpt>
      <trkpt lat="44.42243" lon="6.89763">
        <ele>1973.6</ele>
        <time>2022-08-16T13:11:01Z</time>
      </trkpt>
      <trkpt lat="44.4225" lon="6.89754">
        <ele>1973.4</ele>
        <time>2022-08-16T13:11:03Z</time>
      </trkpt>
      <trkpt lat="44.42261" lon="6.89739">
        <ele>1973.4</ele>
        <time>2022-08-16T13:11:06Z</time>
      </trkpt>
      <trkpt lat="44.42274" lon="6.89723">
        <ele>1973</ele>
        <time>2022-08-16T13:11:09Z</time>
      </trkpt>
      <trkpt lat="44.42292" lon="6.89695">
        <ele>1972.6</ele>
        <time>2022-08-16T13:11:13Z</time>
      </trkpt>
      <trkpt lat="44.42303" lon="6.89681">
        <ele>1972.2</ele>
        <time>2022-08-16T13:11:15Z</time>
      </trkpt>
      <trkpt lat="44.42314" lon="6.89665">
        <ele>1971.6</ele>
        <time>2022-08-16T13:11:17Z</time>
      </trkpt>
      <trkpt lat="44.42326" lon="6.89649">
        <ele>1970.8</ele>
        <time>2022-08-16T13:11:19Z</time>
      </trkpt>
      <trkpt lat="44.42332" lon="6.89641">
        <ele>1970.4</ele>
        <time>2022-08-16T13:11:20Z</time>
      </trkpt>
      <trkpt lat="44.42338" lon="6.89635">
        <ele>1970</ele>
        <time>2022-08-16T13:11:21Z</time>
      </trkpt>
      <trkpt lat="44.42344" lon="6.89628">
        <ele>1969.8</ele>
        <time>2022-08-16T13:11:22Z</time>
      </trkpt>
      <trkpt lat="44.4235" lon="6.89621">
        <ele>1969.4</ele>
        <time>2022-08-16T13:11:23Z</time>
      </trkpt>
      <trkpt lat="44.42356" lon="6.89616">
        <ele>1969</ele>
        <time>2022-08-16T13:11:24Z</time>
      </trkpt>
      <trkpt lat="44.4237" lon="6.89606">
        <ele>1969</ele>
        <time>2022-08-16T13:11:26Z</time>
      </trkpt>
      <trkpt lat="44.42376" lon="6.89602">
        <ele>1968.4</ele>
        <time>2022-08-16T13:11:27Z</time>
      </trkpt>
      <trkpt lat="44.42382" lon="6.89599">
        <ele>1967.8</ele>
        <time>2022-08-16T13:11:28Z</time>
      </trkpt>
      <trkpt lat="44.42388" lon="6.89596">
        <ele>1967.2</ele>
        <time>2022-08-16T13:11:29Z</time>
      </trkpt>
      <trkpt lat="44.42393" lon="6.89594">
        <ele>1966.8</ele>
        <time>2022-08-16T13:11:30Z</time>
      </trkpt>
      <trkpt lat="44.42397" lon="6.89592">
        <ele>1966.2</ele>
        <time>2022-08-16T13:11:31Z</time>
      </trkpt>
      <trkpt lat="44.42408" lon="6.89588">
        <ele>1965.2</ele>
        <time>2022-08-16T13:11:33Z</time>
      </trkpt>
      <trkpt lat="44.42421" lon="6.89584">
        <ele>1963.8</ele>
        <time>2022-08-16T13:11:35Z</time>
      </trkpt>
      <trkpt lat="44.42435" lon="6.8958">
        <ele>1963</ele>
        <time>2022-08-16T13:11:37Z</time>
      </trkpt>
      <trkpt lat="44.42442" lon="6.89578">
        <ele>1962.6</ele>
        <time>2022-08-16T13:11:38Z</time>
      </trkpt>
      <trkpt lat="44.4245" lon="6.89576">
        <ele>1962.2</ele>
        <time>2022-08-16T13:11:39Z</time>
      </trkpt>
      <trkpt lat="44.42465" lon="6.89569">
        <ele>1961.8</ele>
        <time>2022-08-16T13:11:41Z</time>
      </trkpt>
      <trkpt lat="44.42473" lon="6.89564">
        <ele>1961.2</ele>
        <time>2022-08-16T13:11:42Z</time>
      </trkpt>
      <trkpt lat="44.42494" lon="6.89544">
        <ele>1959.6</ele>
        <time>2022-08-16T13:11:45Z</time>
      </trkpt>
      <trkpt lat="44.425" lon="6.89535">
        <ele>1959</ele>
        <time>2022-08-16T13:11:46Z</time>
      </trkpt>
      <trkpt lat="44.42519" lon="6.89508">
        <ele>1957.4</ele>
        <time>2022-08-16T13:11:49Z</time>
      </trkpt>
      <trkpt lat="44.42531" lon="6.89489">
        <ele>1956.4</ele>
        <time>2022-08-16T13:11:51Z</time>
      </trkpt>
      <trkpt lat="44.42543" lon="6.8947">
        <ele>1955</ele>
        <time>2022-08-16T13:11:53Z</time>
      </trkpt>
      <trkpt lat="44.42549" lon="6.8946">
        <ele>1954.4</ele>
        <time>2022-08-16T13:11:54Z</time>
      </trkpt>
      <trkpt lat="44.42555" lon="6.89449">
        <ele>1953.6</ele>
        <time>2022-08-16T13:11:55Z</time>
      </trkpt>
      <trkpt lat="44.42567" lon="6.89429">
        <ele>1952.2</ele>
        <time>2022-08-16T13:11:57Z</time>
      </trkpt>
      <trkpt lat="44.42573" lon="6.89419">
        <ele>1951.8</ele>
        <time>2022-08-16T13:11:58Z</time>
      </trkpt>
      <trkpt lat="44.42584" lon="6.89397">
        <ele>1950.8</ele>
        <time>2022-08-16T13:12:00Z</time>
      </trkpt>
      <trkpt lat="44.42596" lon="6.89375">
        <ele>1949.8</ele>
        <time>2022-08-16T13:12:02Z</time>
      </trkpt>
      <trkpt lat="44.42608" lon="6.89354">
        <ele>1947</ele>
        <time>2022-08-16T13:12:04Z</time>
      </trkpt>
      <trkpt lat="44.42614" lon="6.89342">
        <ele>1946.2</ele>
        <time>2022-08-16T13:12:05Z</time>
      </trkpt>
      <trkpt lat="44.42621" lon="6.89332">
        <ele>1945.6</ele>
        <time>2022-08-16T13:12:06Z</time>
      </trkpt>
      <trkpt lat="44.42635" lon="6.89311">
        <ele>1945</ele>
        <time>2022-08-16T13:12:08Z</time>
      </trkpt>
      <trkpt lat="44.42651" lon="6.89293">
        <ele>1944.8</ele>
        <time>2022-08-16T13:12:10Z</time>
      </trkpt>
      <trkpt lat="44.42677" lon="6.89271">
        <ele>1943.8</ele>
        <time>2022-08-16T13:12:13Z</time>
      </trkpt>
      <trkpt lat="44.42686" lon="6.89265">
        <ele>1942.8</ele>
        <time>2022-08-16T13:12:14Z</time>
      </trkpt>
      <trkpt lat="44.42694" lon="6.89261">
        <ele>1942</ele>
        <time>2022-08-16T13:12:15Z</time>
      </trkpt>
      <trkpt lat="44.42702" lon="6.89257">
        <ele>1941.2</ele>
        <time>2022-08-16T13:12:16Z</time>
      </trkpt>
      <trkpt lat="44.42711" lon="6.89253">
        <ele>1940.6</ele>
        <time>2022-08-16T13:12:17Z</time>
      </trkpt>
      <trkpt lat="44.42718" lon="6.89248">
        <ele>1939.6</ele>
        <time>2022-08-16T13:12:18Z</time>
      </trkpt>
      <trkpt lat="44.42726" lon="6.89242">
        <ele>1938.6</ele>
        <time>2022-08-16T13:12:19Z</time>
      </trkpt>
      <trkpt lat="44.42732" lon="6.89235">
        <ele>1938</ele>
        <time>2022-08-16T13:12:20Z</time>
      </trkpt>
      <trkpt lat="44.42737" lon="6.89226">
        <ele>1937.6</ele>
        <time>2022-08-16T13:12:21Z</time>
      </trkpt>
      <trkpt lat="44.42741" lon="6.89216">
        <ele>1937.4</ele>
        <time>2022-08-16T13:12:22Z</time>
      </trkpt>
      <trkpt lat="44.42745" lon="6.89205">
        <ele>1937.4</ele>
        <time>2022-08-16T13:12:23Z</time>
      </trkpt>
      <trkpt lat="44.42747" lon="6.89195">
        <ele>1937</ele>
        <time>2022-08-16T13:12:24Z</time>
      </trkpt>
      <trkpt lat="44.42751" lon="6.89184">
        <ele>1936.8</ele>
        <time>2022-08-16T13:12:25Z</time>
      </trkpt>
      <trkpt lat="44.42762" lon="6.89153">
        <ele>1935</ele>
        <time>2022-08-16T13:12:28Z</time>
      </trkpt>
      <trkpt lat="44.42766" lon="6.89142">
        <ele>1934.6</ele>
        <time>2022-08-16T13:12:29Z</time>
      </trkpt>
      <trkpt lat="44.4277" lon="6.89119">
        <ele>1934.2</ele>
        <time>2022-08-16T13:12:31Z</time>
      </trkpt>
      <trkpt lat="44.42771" lon="6.89107">
        <ele>1933.6</ele>
        <time>2022-08-16T13:12:32Z</time>
      </trkpt>
      <trkpt lat="44.42771" lon="6.89095">
        <ele>1933.4</ele>
        <time>2022-08-16T13:12:33Z</time>
      </trkpt>
      <trkpt lat="44.42766" lon="6.89058">
        <ele>1932.2</ele>
        <time>2022-08-16T13:12:36Z</time>
      </trkpt>
      <trkpt lat="44.42765" lon="6.89046">
        <ele>1932</ele>
        <time>2022-08-16T13:12:37Z</time>
      </trkpt>
      <trkpt lat="44.42763" lon="6.89034">
        <ele>1931.6</ele>
        <time>2022-08-16T13:12:38Z</time>
      </trkpt>
      <trkpt lat="44.42761" lon="6.89022">
        <ele>1931.2</ele>
        <time>2022-08-16T13:12:39Z</time>
      </trkpt>
      <trkpt lat="44.4276" lon="6.89011">
        <ele>1931</ele>
        <time>2022-08-16T13:12:40Z</time>
      </trkpt>
      <trkpt lat="44.4276" lon="6.89">
        <ele>1930.6</ele>
        <time>2022-08-16T13:12:41Z</time>
      </trkpt>
      <trkpt lat="44.42761" lon="6.88989">
        <ele>1929.6</ele>
        <time>2022-08-16T13:12:42Z</time>
      </trkpt>
      <trkpt lat="44.42761" lon="6.8898">
        <ele>1929.2</ele>
        <time>2022-08-16T13:12:43Z</time>
      </trkpt>
      <trkpt lat="44.42761" lon="6.88972">
        <ele>1928.8</ele>
        <time>2022-08-16T13:12:44Z</time>
      </trkpt>
      <trkpt lat="44.42762" lon="6.88966">
        <ele>1928.4</ele>
        <time>2022-08-16T13:12:45Z</time>
      </trkpt>
      <trkpt lat="44.42762" lon="6.88961">
        <ele>1928.2</ele>
        <time>2022-08-16T13:12:46Z</time>
      </trkpt>
      <trkpt lat="44.42764" lon="6.88957">
        <ele>1928.2</ele>
        <time>2022-08-16T13:12:47Z</time>
      </trkpt>
      <trkpt lat="44.42765" lon="6.88955">
        <ele>1928</ele>
        <time>2022-08-16T13:12:48Z</time>
      </trkpt>
      <trkpt lat="44.42767" lon="6.88953">
        <ele>1928</ele>
        <time>2022-08-16T13:12:49Z</time>
      </trkpt>
      <trkpt lat="44.42768" lon="6.88951">
        <ele>1928</ele>
        <time>2022-08-16T13:12:50Z</time>
      </trkpt>
      <trkpt lat="44.4277" lon="6.8895">
        <ele>1928</ele>
        <time>2022-08-16T13:12:51Z</time>
      </trkpt>
      <trkpt lat="44.42771" lon="6.88949">
        <ele>1928</ele>
        <time>2022-08-16T13:12:52Z</time>
      </trkpt>
      <trkpt lat="44.42772" lon="6.88947">
        <ele>1928</ele>
        <time>2022-08-16T13:12:53Z</time>
      </trkpt>
      <trkpt lat="44.42773" lon="6.88946">
        <ele>1928</ele>
        <time>2022-08-16T13:12:54Z</time>
      </trkpt>
      <trkpt lat="44.42775" lon="6.88943">
        <ele>1928</ele>
        <time>2022-08-16T13:12:56Z</time>
      </trkpt>
      <trkpt lat="44.42777" lon="6.88938">
        <ele>1928.4</ele>
        <time>2022-08-16T13:12:58Z</time>
      </trkpt>
      <trkpt lat="44.42777" lon="6.88936">
        <ele>1928.8</ele>
        <time>2022-08-16T13:12:59Z</time>
      </trkpt>
      <trkpt lat="44.42777" lon="6.88936">
        <ele>1929.2</ele>
        <time>2022-08-16T13:13:01Z</time>
      </trkpt>
    </trkseg>
  </trk>
</gpx>